<?xml version="1.0" encoding="UTF-8" standalone="no" ?>
<gpx xmlns="http://www.topografix.com/GPX/1/1" xmlns:xsi="http://www.w3.org/2001/XMLSchema-instance" xsi:schemaLocation="http://www.topografix.com/GPX/1/1 http://www.topografix.com/GPX/1/1/gpx.xsd" version="1.1" creator="VisuGPX - https://www.visugpx.com">
  <metadata>
    <name>Tour de Bretagne étape 7</name>
  </metadata>
  <trk>
    <name><![CDATA[Tour de Bretagne étape 7.]]></name>
    <trkseg>
      <trkpt lat="47.90224" lon="-3.87321">
        <ele>75.8</ele>
        <time>2024-09-07T06:44:12Z</time>
      </trkpt>
      <trkpt lat="47.90224" lon="-3.87321">
        <ele>76</ele>
        <time>2024-09-07T06:44:13Z</time>
      </trkpt>
      <trkpt lat="47.90218" lon="-3.87322">
        <ele>77.2</ele>
        <time>2024-09-07T06:47:04Z</time>
      </trkpt>
      <trkpt lat="47.90217" lon="-3.87323">
        <ele>77.2</ele>
        <time>2024-09-07T06:47:05Z</time>
      </trkpt>
      <trkpt lat="47.90217" lon="-3.87325">
        <ele>77.2</ele>
        <time>2024-09-07T06:47:06Z</time>
      </trkpt>
      <trkpt lat="47.90216" lon="-3.87327">
        <ele>77.2</ele>
        <time>2024-09-07T06:47:07Z</time>
      </trkpt>
      <trkpt lat="47.90215" lon="-3.87328">
        <ele>77.2</ele>
        <time>2024-09-07T06:47:08Z</time>
      </trkpt>
      <trkpt lat="47.90214" lon="-3.8733">
        <ele>77.2</ele>
        <time>2024-09-07T06:47:09Z</time>
      </trkpt>
      <trkpt lat="47.90213" lon="-3.87333">
        <ele>77.2</ele>
        <time>2024-09-07T06:47:10Z</time>
      </trkpt>
      <trkpt lat="47.90213" lon="-3.87335">
        <ele>77.2</ele>
        <time>2024-09-07T06:47:11Z</time>
      </trkpt>
      <trkpt lat="47.90212" lon="-3.87338">
        <ele>77.2</ele>
        <time>2024-09-07T06:47:12Z</time>
      </trkpt>
      <trkpt lat="47.90211" lon="-3.87341">
        <ele>77</ele>
        <time>2024-09-07T06:47:13Z</time>
      </trkpt>
      <trkpt lat="47.90209" lon="-3.87343">
        <ele>77</ele>
        <time>2024-09-07T06:47:14Z</time>
      </trkpt>
      <trkpt lat="47.90208" lon="-3.87346">
        <ele>77</ele>
        <time>2024-09-07T06:47:15Z</time>
      </trkpt>
      <trkpt lat="47.90206" lon="-3.87347">
        <ele>77</ele>
        <time>2024-09-07T06:47:16Z</time>
      </trkpt>
      <trkpt lat="47.90204" lon="-3.87348">
        <ele>77</ele>
        <time>2024-09-07T06:47:17Z</time>
      </trkpt>
      <trkpt lat="47.90203" lon="-3.87347">
        <ele>77</ele>
        <time>2024-09-07T06:47:18Z</time>
      </trkpt>
      <trkpt lat="47.90201" lon="-3.87346">
        <ele>77</ele>
        <time>2024-09-07T06:47:19Z</time>
      </trkpt>
      <trkpt lat="47.902" lon="-3.87344">
        <ele>77</ele>
        <time>2024-09-07T06:47:20Z</time>
      </trkpt>
      <trkpt lat="47.902" lon="-3.87341">
        <ele>77</ele>
        <time>2024-09-07T06:47:21Z</time>
      </trkpt>
      <trkpt lat="47.90199" lon="-3.87338">
        <ele>76.8</ele>
        <time>2024-09-07T06:47:22Z</time>
      </trkpt>
      <trkpt lat="47.90199" lon="-3.87334">
        <ele>76.8</ele>
        <time>2024-09-07T06:47:23Z</time>
      </trkpt>
      <trkpt lat="47.90199" lon="-3.87331">
        <ele>76.8</ele>
        <time>2024-09-07T06:47:24Z</time>
      </trkpt>
      <trkpt lat="47.90198" lon="-3.87327">
        <ele>76.8</ele>
        <time>2024-09-07T06:47:25Z</time>
      </trkpt>
      <trkpt lat="47.90197" lon="-3.87323">
        <ele>76.8</ele>
        <time>2024-09-07T06:47:26Z</time>
      </trkpt>
      <trkpt lat="47.90196" lon="-3.8732">
        <ele>76.8</ele>
        <time>2024-09-07T06:47:27Z</time>
      </trkpt>
      <trkpt lat="47.90194" lon="-3.87317">
        <ele>76.8</ele>
        <time>2024-09-07T06:47:28Z</time>
      </trkpt>
      <trkpt lat="47.90192" lon="-3.87314">
        <ele>76.8</ele>
        <time>2024-09-07T06:47:29Z</time>
      </trkpt>
      <trkpt lat="47.9019" lon="-3.87312">
        <ele>76.6</ele>
        <time>2024-09-07T06:47:30Z</time>
      </trkpt>
      <trkpt lat="47.90188" lon="-3.8731">
        <ele>76.6</ele>
        <time>2024-09-07T06:47:31Z</time>
      </trkpt>
      <trkpt lat="47.90186" lon="-3.87308">
        <ele>76.6</ele>
        <time>2024-09-07T06:47:32Z</time>
      </trkpt>
      <trkpt lat="47.90184" lon="-3.87306">
        <ele>76.6</ele>
        <time>2024-09-07T06:47:33Z</time>
      </trkpt>
      <trkpt lat="47.90181" lon="-3.87303">
        <ele>76.4</ele>
        <time>2024-09-07T06:47:34Z</time>
      </trkpt>
      <trkpt lat="47.90178" lon="-3.87301">
        <ele>76.4</ele>
        <time>2024-09-07T06:47:35Z</time>
      </trkpt>
      <trkpt lat="47.90175" lon="-3.87297">
        <ele>76.4</ele>
        <time>2024-09-07T06:47:36Z</time>
      </trkpt>
      <trkpt lat="47.90173" lon="-3.87294">
        <ele>76.4</ele>
        <time>2024-09-07T06:47:37Z</time>
      </trkpt>
      <trkpt lat="47.90169" lon="-3.87292">
        <ele>76.4</ele>
        <time>2024-09-07T06:47:38Z</time>
      </trkpt>
      <trkpt lat="47.90166" lon="-3.87289">
        <ele>76.4</ele>
        <time>2024-09-07T06:47:39Z</time>
      </trkpt>
      <trkpt lat="47.90163" lon="-3.87285">
        <ele>76.4</ele>
        <time>2024-09-07T06:47:40Z</time>
      </trkpt>
      <trkpt lat="47.90161" lon="-3.87282">
        <ele>76.4</ele>
        <time>2024-09-07T06:47:41Z</time>
      </trkpt>
      <trkpt lat="47.90158" lon="-3.87279">
        <ele>76.4</ele>
        <time>2024-09-07T06:47:42Z</time>
      </trkpt>
      <trkpt lat="47.90155" lon="-3.87276">
        <ele>76.4</ele>
        <time>2024-09-07T06:47:43Z</time>
      </trkpt>
      <trkpt lat="47.90152" lon="-3.87272">
        <ele>76.2</ele>
        <time>2024-09-07T06:47:44Z</time>
      </trkpt>
      <trkpt lat="47.90149" lon="-3.8727">
        <ele>76.2</ele>
        <time>2024-09-07T06:47:45Z</time>
      </trkpt>
      <trkpt lat="47.90145" lon="-3.87266">
        <ele>76.2</ele>
        <time>2024-09-07T06:47:46Z</time>
      </trkpt>
      <trkpt lat="47.90142" lon="-3.87263">
        <ele>76.2</ele>
        <time>2024-09-07T06:47:47Z</time>
      </trkpt>
      <trkpt lat="47.90139" lon="-3.8726">
        <ele>76.2</ele>
        <time>2024-09-07T06:47:48Z</time>
      </trkpt>
      <trkpt lat="47.90136" lon="-3.87256">
        <ele>76.2</ele>
        <time>2024-09-07T06:47:49Z</time>
      </trkpt>
      <trkpt lat="47.90133" lon="-3.87253">
        <ele>76.2</ele>
        <time>2024-09-07T06:47:50Z</time>
      </trkpt>
      <trkpt lat="47.9013" lon="-3.87249">
        <ele>76.2</ele>
        <time>2024-09-07T06:47:51Z</time>
      </trkpt>
      <trkpt lat="47.90127" lon="-3.87244">
        <ele>76.2</ele>
        <time>2024-09-07T06:47:52Z</time>
      </trkpt>
      <trkpt lat="47.90124" lon="-3.8724">
        <ele>76.2</ele>
        <time>2024-09-07T06:47:53Z</time>
      </trkpt>
      <trkpt lat="47.9012" lon="-3.87235">
        <ele>76</ele>
        <time>2024-09-07T06:47:54Z</time>
      </trkpt>
      <trkpt lat="47.90117" lon="-3.8723">
        <ele>76</ele>
        <time>2024-09-07T06:47:55Z</time>
      </trkpt>
      <trkpt lat="47.90113" lon="-3.87225">
        <ele>76</ele>
        <time>2024-09-07T06:47:56Z</time>
      </trkpt>
      <trkpt lat="47.9011" lon="-3.8722">
        <ele>76</ele>
        <time>2024-09-07T06:47:57Z</time>
      </trkpt>
      <trkpt lat="47.90106" lon="-3.87215">
        <ele>75.8</ele>
        <time>2024-09-07T06:47:58Z</time>
      </trkpt>
      <trkpt lat="47.90103" lon="-3.8721">
        <ele>75.8</ele>
        <time>2024-09-07T06:47:59Z</time>
      </trkpt>
      <trkpt lat="47.90099" lon="-3.87206">
        <ele>75.6</ele>
        <time>2024-09-07T06:48:00Z</time>
      </trkpt>
      <trkpt lat="47.90096" lon="-3.87201">
        <ele>75.6</ele>
        <time>2024-09-07T06:48:01Z</time>
      </trkpt>
      <trkpt lat="47.90093" lon="-3.87197">
        <ele>75.4</ele>
        <time>2024-09-07T06:48:02Z</time>
      </trkpt>
      <trkpt lat="47.90091" lon="-3.87194">
        <ele>75.4</ele>
        <time>2024-09-07T06:48:03Z</time>
      </trkpt>
      <trkpt lat="47.9009" lon="-3.8719">
        <ele>75.4</ele>
        <time>2024-09-07T06:48:04Z</time>
      </trkpt>
      <trkpt lat="47.90089" lon="-3.87187">
        <ele>75.2</ele>
        <time>2024-09-07T06:48:05Z</time>
      </trkpt>
      <trkpt lat="47.90089" lon="-3.87185">
        <ele>75</ele>
        <time>2024-09-07T06:48:06Z</time>
      </trkpt>
      <trkpt lat="47.90088" lon="-3.87184">
        <ele>74.6</ele>
        <time>2024-09-07T06:48:07Z</time>
      </trkpt>
      <trkpt lat="47.90088" lon="-3.87183">
        <ele>74.4</ele>
        <time>2024-09-07T06:48:08Z</time>
      </trkpt>
      <trkpt lat="47.90089" lon="-3.87179">
        <ele>72.6</ele>
        <time>2024-09-07T06:48:52Z</time>
      </trkpt>
      <trkpt lat="47.9009" lon="-3.87176">
        <ele>72.6</ele>
        <time>2024-09-07T06:48:53Z</time>
      </trkpt>
      <trkpt lat="47.9009" lon="-3.87173">
        <ele>72.6</ele>
        <time>2024-09-07T06:48:54Z</time>
      </trkpt>
      <trkpt lat="47.90091" lon="-3.87171">
        <ele>72.6</ele>
        <time>2024-09-07T06:48:55Z</time>
      </trkpt>
      <trkpt lat="47.90092" lon="-3.87168">
        <ele>72.6</ele>
        <time>2024-09-07T06:48:56Z</time>
      </trkpt>
      <trkpt lat="47.90093" lon="-3.87165">
        <ele>72.6</ele>
        <time>2024-09-07T06:48:57Z</time>
      </trkpt>
      <trkpt lat="47.90094" lon="-3.87161">
        <ele>72.6</ele>
        <time>2024-09-07T06:48:58Z</time>
      </trkpt>
      <trkpt lat="47.90095" lon="-3.87158">
        <ele>72.6</ele>
        <time>2024-09-07T06:48:59Z</time>
      </trkpt>
      <trkpt lat="47.90096" lon="-3.87155">
        <ele>72.8</ele>
        <time>2024-09-07T06:49:00Z</time>
      </trkpt>
      <trkpt lat="47.90097" lon="-3.87152">
        <ele>72.8</ele>
        <time>2024-09-07T06:49:01Z</time>
      </trkpt>
      <trkpt lat="47.90098" lon="-3.87148">
        <ele>72.8</ele>
        <time>2024-09-07T06:49:02Z</time>
      </trkpt>
      <trkpt lat="47.90098" lon="-3.87145">
        <ele>72.8</ele>
        <time>2024-09-07T06:49:03Z</time>
      </trkpt>
      <trkpt lat="47.901" lon="-3.87143">
        <ele>72.8</ele>
        <time>2024-09-07T06:49:04Z</time>
      </trkpt>
      <trkpt lat="47.90101" lon="-3.8714">
        <ele>72.8</ele>
        <time>2024-09-07T06:49:05Z</time>
      </trkpt>
      <trkpt lat="47.90102" lon="-3.87137">
        <ele>72.8</ele>
        <time>2024-09-07T06:49:06Z</time>
      </trkpt>
      <trkpt lat="47.90104" lon="-3.87135">
        <ele>72.8</ele>
        <time>2024-09-07T06:49:07Z</time>
      </trkpt>
      <trkpt lat="47.90105" lon="-3.87132">
        <ele>72.8</ele>
        <time>2024-09-07T06:49:08Z</time>
      </trkpt>
      <trkpt lat="47.90106" lon="-3.87129">
        <ele>72.8</ele>
        <time>2024-09-07T06:49:09Z</time>
      </trkpt>
      <trkpt lat="47.90108" lon="-3.87126">
        <ele>72.8</ele>
        <time>2024-09-07T06:49:10Z</time>
      </trkpt>
      <trkpt lat="47.90109" lon="-3.87123">
        <ele>73</ele>
        <time>2024-09-07T06:49:11Z</time>
      </trkpt>
      <trkpt lat="47.9011" lon="-3.87121">
        <ele>73</ele>
        <time>2024-09-07T06:49:12Z</time>
      </trkpt>
      <trkpt lat="47.90111" lon="-3.87118">
        <ele>73</ele>
        <time>2024-09-07T06:49:13Z</time>
      </trkpt>
      <trkpt lat="47.90113" lon="-3.87115">
        <ele>73</ele>
        <time>2024-09-07T06:49:14Z</time>
      </trkpt>
      <trkpt lat="47.90114" lon="-3.87112">
        <ele>73</ele>
        <time>2024-09-07T06:49:15Z</time>
      </trkpt>
      <trkpt lat="47.90115" lon="-3.87109">
        <ele>73</ele>
        <time>2024-09-07T06:49:16Z</time>
      </trkpt>
      <trkpt lat="47.90117" lon="-3.87107">
        <ele>73.2</ele>
        <time>2024-09-07T06:49:17Z</time>
      </trkpt>
      <trkpt lat="47.90118" lon="-3.87104">
        <ele>73.2</ele>
        <time>2024-09-07T06:49:18Z</time>
      </trkpt>
      <trkpt lat="47.9012" lon="-3.87101">
        <ele>73.2</ele>
        <time>2024-09-07T06:49:19Z</time>
      </trkpt>
      <trkpt lat="47.90121" lon="-3.87097">
        <ele>73.4</ele>
        <time>2024-09-07T06:49:20Z</time>
      </trkpt>
      <trkpt lat="47.90123" lon="-3.87094">
        <ele>73.4</ele>
        <time>2024-09-07T06:49:21Z</time>
      </trkpt>
      <trkpt lat="47.90125" lon="-3.8709">
        <ele>73.4</ele>
        <time>2024-09-07T06:49:22Z</time>
      </trkpt>
      <trkpt lat="47.90127" lon="-3.87087">
        <ele>73.6</ele>
        <time>2024-09-07T06:49:23Z</time>
      </trkpt>
      <trkpt lat="47.90128" lon="-3.87084">
        <ele>73.6</ele>
        <time>2024-09-07T06:49:24Z</time>
      </trkpt>
      <trkpt lat="47.9013" lon="-3.8708">
        <ele>73.6</ele>
        <time>2024-09-07T06:49:25Z</time>
      </trkpt>
      <trkpt lat="47.90132" lon="-3.87077">
        <ele>73.6</ele>
        <time>2024-09-07T06:49:26Z</time>
      </trkpt>
      <trkpt lat="47.90134" lon="-3.87075">
        <ele>73.6</ele>
        <time>2024-09-07T06:49:27Z</time>
      </trkpt>
      <trkpt lat="47.90135" lon="-3.87072">
        <ele>73.6</ele>
        <time>2024-09-07T06:49:28Z</time>
      </trkpt>
      <trkpt lat="47.90137" lon="-3.87068">
        <ele>73.6</ele>
        <time>2024-09-07T06:49:29Z</time>
      </trkpt>
      <trkpt lat="47.90139" lon="-3.87065">
        <ele>73.8</ele>
        <time>2024-09-07T06:49:30Z</time>
      </trkpt>
      <trkpt lat="47.90141" lon="-3.87061">
        <ele>73.8</ele>
        <time>2024-09-07T06:49:31Z</time>
      </trkpt>
      <trkpt lat="47.90143" lon="-3.87057">
        <ele>73.8</ele>
        <time>2024-09-07T06:49:32Z</time>
      </trkpt>
      <trkpt lat="47.90145" lon="-3.87053">
        <ele>73.8</ele>
        <time>2024-09-07T06:49:33Z</time>
      </trkpt>
      <trkpt lat="47.90146" lon="-3.87049">
        <ele>73.8</ele>
        <time>2024-09-07T06:49:34Z</time>
      </trkpt>
      <trkpt lat="47.90148" lon="-3.87045">
        <ele>73.8</ele>
        <time>2024-09-07T06:49:35Z</time>
      </trkpt>
      <trkpt lat="47.9015" lon="-3.87041">
        <ele>73.8</ele>
        <time>2024-09-07T06:49:36Z</time>
      </trkpt>
      <trkpt lat="47.90152" lon="-3.87037">
        <ele>73.8</ele>
        <time>2024-09-07T06:49:37Z</time>
      </trkpt>
      <trkpt lat="47.90154" lon="-3.87033">
        <ele>73.8</ele>
        <time>2024-09-07T06:49:38Z</time>
      </trkpt>
      <trkpt lat="47.90157" lon="-3.87029">
        <ele>73.8</ele>
        <time>2024-09-07T06:49:39Z</time>
      </trkpt>
      <trkpt lat="47.90159" lon="-3.87025">
        <ele>73.8</ele>
        <time>2024-09-07T06:49:40Z</time>
      </trkpt>
      <trkpt lat="47.90161" lon="-3.87021">
        <ele>73.8</ele>
        <time>2024-09-07T06:49:41Z</time>
      </trkpt>
      <trkpt lat="47.90162" lon="-3.87017">
        <ele>73.6</ele>
        <time>2024-09-07T06:49:42Z</time>
      </trkpt>
      <trkpt lat="47.90164" lon="-3.87012">
        <ele>73.6</ele>
        <time>2024-09-07T06:49:43Z</time>
      </trkpt>
      <trkpt lat="47.90167" lon="-3.87008">
        <ele>73.6</ele>
        <time>2024-09-07T06:49:44Z</time>
      </trkpt>
      <trkpt lat="47.90169" lon="-3.87004">
        <ele>73.6</ele>
        <time>2024-09-07T06:49:45Z</time>
      </trkpt>
      <trkpt lat="47.90171" lon="-3.86999">
        <ele>73.6</ele>
        <time>2024-09-07T06:49:46Z</time>
      </trkpt>
      <trkpt lat="47.90174" lon="-3.86994">
        <ele>73.6</ele>
        <time>2024-09-07T06:49:47Z</time>
      </trkpt>
      <trkpt lat="47.90176" lon="-3.8699">
        <ele>73.6</ele>
        <time>2024-09-07T06:49:48Z</time>
      </trkpt>
      <trkpt lat="47.90178" lon="-3.86985">
        <ele>73.4</ele>
        <time>2024-09-07T06:49:49Z</time>
      </trkpt>
      <trkpt lat="47.90181" lon="-3.8698">
        <ele>73.4</ele>
        <time>2024-09-07T06:49:50Z</time>
      </trkpt>
      <trkpt lat="47.90183" lon="-3.86975">
        <ele>73.4</ele>
        <time>2024-09-07T06:49:51Z</time>
      </trkpt>
      <trkpt lat="47.90185" lon="-3.8697">
        <ele>73.4</ele>
        <time>2024-09-07T06:49:52Z</time>
      </trkpt>
      <trkpt lat="47.90187" lon="-3.86965">
        <ele>73.4</ele>
        <time>2024-09-07T06:49:53Z</time>
      </trkpt>
      <trkpt lat="47.90189" lon="-3.8696">
        <ele>73.4</ele>
        <time>2024-09-07T06:49:54Z</time>
      </trkpt>
      <trkpt lat="47.90192" lon="-3.86955">
        <ele>73.4</ele>
        <time>2024-09-07T06:49:55Z</time>
      </trkpt>
      <trkpt lat="47.90194" lon="-3.8695">
        <ele>73.2</ele>
        <time>2024-09-07T06:49:56Z</time>
      </trkpt>
      <trkpt lat="47.90197" lon="-3.86945">
        <ele>73.2</ele>
        <time>2024-09-07T06:49:57Z</time>
      </trkpt>
      <trkpt lat="47.902" lon="-3.8694">
        <ele>73.2</ele>
        <time>2024-09-07T06:49:58Z</time>
      </trkpt>
      <trkpt lat="47.90202" lon="-3.86935">
        <ele>73.2</ele>
        <time>2024-09-07T06:49:59Z</time>
      </trkpt>
      <trkpt lat="47.90204" lon="-3.8693">
        <ele>73.2</ele>
        <time>2024-09-07T06:50:00Z</time>
      </trkpt>
      <trkpt lat="47.90207" lon="-3.86925">
        <ele>73.2</ele>
        <time>2024-09-07T06:50:01Z</time>
      </trkpt>
      <trkpt lat="47.90209" lon="-3.86921">
        <ele>73.2</ele>
        <time>2024-09-07T06:50:02Z</time>
      </trkpt>
      <trkpt lat="47.90211" lon="-3.86916">
        <ele>73.2</ele>
        <time>2024-09-07T06:50:03Z</time>
      </trkpt>
      <trkpt lat="47.90214" lon="-3.86912">
        <ele>73.2</ele>
        <time>2024-09-07T06:50:04Z</time>
      </trkpt>
      <trkpt lat="47.90216" lon="-3.86907">
        <ele>73.2</ele>
        <time>2024-09-07T06:50:05Z</time>
      </trkpt>
      <trkpt lat="47.90218" lon="-3.86903">
        <ele>73.2</ele>
        <time>2024-09-07T06:50:06Z</time>
      </trkpt>
      <trkpt lat="47.9022" lon="-3.86899">
        <ele>73.2</ele>
        <time>2024-09-07T06:50:07Z</time>
      </trkpt>
      <trkpt lat="47.90222" lon="-3.86894">
        <ele>73.2</ele>
        <time>2024-09-07T06:50:08Z</time>
      </trkpt>
      <trkpt lat="47.90224" lon="-3.86891">
        <ele>73.2</ele>
        <time>2024-09-07T06:50:09Z</time>
      </trkpt>
      <trkpt lat="47.90227" lon="-3.86887">
        <ele>73.2</ele>
        <time>2024-09-07T06:50:10Z</time>
      </trkpt>
      <trkpt lat="47.90229" lon="-3.86883">
        <ele>73.2</ele>
        <time>2024-09-07T06:50:11Z</time>
      </trkpt>
      <trkpt lat="47.90231" lon="-3.86879">
        <ele>73.2</ele>
        <time>2024-09-07T06:50:12Z</time>
      </trkpt>
      <trkpt lat="47.90233" lon="-3.86875">
        <ele>73.2</ele>
        <time>2024-09-07T06:50:13Z</time>
      </trkpt>
      <trkpt lat="47.90235" lon="-3.86871">
        <ele>73.4</ele>
        <time>2024-09-07T06:50:14Z</time>
      </trkpt>
      <trkpt lat="47.90238" lon="-3.86867">
        <ele>73.4</ele>
        <time>2024-09-07T06:50:15Z</time>
      </trkpt>
      <trkpt lat="47.9024" lon="-3.86864">
        <ele>73.4</ele>
        <time>2024-09-07T06:50:16Z</time>
      </trkpt>
      <trkpt lat="47.90242" lon="-3.8686">
        <ele>73.6</ele>
        <time>2024-09-07T06:50:17Z</time>
      </trkpt>
      <trkpt lat="47.90244" lon="-3.86856">
        <ele>73.8</ele>
        <time>2024-09-07T06:50:18Z</time>
      </trkpt>
      <trkpt lat="47.90247" lon="-3.86852">
        <ele>73.8</ele>
        <time>2024-09-07T06:50:19Z</time>
      </trkpt>
      <trkpt lat="47.90249" lon="-3.86849">
        <ele>73.8</ele>
        <time>2024-09-07T06:50:20Z</time>
      </trkpt>
      <trkpt lat="47.90252" lon="-3.86846">
        <ele>74</ele>
        <time>2024-09-07T06:50:21Z</time>
      </trkpt>
      <trkpt lat="47.90254" lon="-3.86843">
        <ele>74</ele>
        <time>2024-09-07T06:50:22Z</time>
      </trkpt>
      <trkpt lat="47.90257" lon="-3.86839">
        <ele>74.2</ele>
        <time>2024-09-07T06:50:23Z</time>
      </trkpt>
      <trkpt lat="47.90259" lon="-3.86836">
        <ele>74.4</ele>
        <time>2024-09-07T06:50:24Z</time>
      </trkpt>
      <trkpt lat="47.90262" lon="-3.86833">
        <ele>74.6</ele>
        <time>2024-09-07T06:50:25Z</time>
      </trkpt>
      <trkpt lat="47.90264" lon="-3.86829">
        <ele>74.6</ele>
        <time>2024-09-07T06:50:26Z</time>
      </trkpt>
      <trkpt lat="47.90267" lon="-3.86826">
        <ele>74.8</ele>
        <time>2024-09-07T06:50:27Z</time>
      </trkpt>
      <trkpt lat="47.90269" lon="-3.86823">
        <ele>75</ele>
        <time>2024-09-07T06:50:28Z</time>
      </trkpt>
      <trkpt lat="47.90272" lon="-3.8682">
        <ele>75</ele>
        <time>2024-09-07T06:50:29Z</time>
      </trkpt>
      <trkpt lat="47.90275" lon="-3.86817">
        <ele>75.2</ele>
        <time>2024-09-07T06:50:30Z</time>
      </trkpt>
      <trkpt lat="47.90277" lon="-3.86815">
        <ele>75.4</ele>
        <time>2024-09-07T06:50:31Z</time>
      </trkpt>
      <trkpt lat="47.9028" lon="-3.86812">
        <ele>75.4</ele>
        <time>2024-09-07T06:50:32Z</time>
      </trkpt>
      <trkpt lat="47.90282" lon="-3.86809">
        <ele>75.6</ele>
        <time>2024-09-07T06:50:33Z</time>
      </trkpt>
      <trkpt lat="47.90285" lon="-3.86807">
        <ele>75.6</ele>
        <time>2024-09-07T06:50:34Z</time>
      </trkpt>
      <trkpt lat="47.90288" lon="-3.86805">
        <ele>75.8</ele>
        <time>2024-09-07T06:50:35Z</time>
      </trkpt>
      <trkpt lat="47.9029" lon="-3.86803">
        <ele>75.8</ele>
        <time>2024-09-07T06:50:36Z</time>
      </trkpt>
      <trkpt lat="47.90293" lon="-3.86801">
        <ele>76</ele>
        <time>2024-09-07T06:50:37Z</time>
      </trkpt>
      <trkpt lat="47.90295" lon="-3.86799">
        <ele>76.2</ele>
        <time>2024-09-07T06:50:38Z</time>
      </trkpt>
      <trkpt lat="47.90298" lon="-3.86797">
        <ele>76.2</ele>
        <time>2024-09-07T06:50:39Z</time>
      </trkpt>
      <trkpt lat="47.903" lon="-3.86795">
        <ele>76.2</ele>
        <time>2024-09-07T06:50:40Z</time>
      </trkpt>
      <trkpt lat="47.90302" lon="-3.86793">
        <ele>76.4</ele>
        <time>2024-09-07T06:50:41Z</time>
      </trkpt>
      <trkpt lat="47.90304" lon="-3.86791">
        <ele>76.6</ele>
        <time>2024-09-07T06:50:42Z</time>
      </trkpt>
      <trkpt lat="47.90306" lon="-3.86789">
        <ele>76.6</ele>
        <time>2024-09-07T06:50:43Z</time>
      </trkpt>
      <trkpt lat="47.90309" lon="-3.86786">
        <ele>76.8</ele>
        <time>2024-09-07T06:50:44Z</time>
      </trkpt>
      <trkpt lat="47.90312" lon="-3.86784">
        <ele>77</ele>
        <time>2024-09-07T06:50:45Z</time>
      </trkpt>
      <trkpt lat="47.90314" lon="-3.86782">
        <ele>77.2</ele>
        <time>2024-09-07T06:50:46Z</time>
      </trkpt>
      <trkpt lat="47.90316" lon="-3.8678">
        <ele>77.4</ele>
        <time>2024-09-07T06:50:47Z</time>
      </trkpt>
      <trkpt lat="47.90319" lon="-3.86779">
        <ele>77.6</ele>
        <time>2024-09-07T06:50:48Z</time>
      </trkpt>
      <trkpt lat="47.90322" lon="-3.86777">
        <ele>77.8</ele>
        <time>2024-09-07T06:50:49Z</time>
      </trkpt>
      <trkpt lat="47.90324" lon="-3.86775">
        <ele>78</ele>
        <time>2024-09-07T06:50:50Z</time>
      </trkpt>
      <trkpt lat="47.90327" lon="-3.86773">
        <ele>78</ele>
        <time>2024-09-07T06:50:51Z</time>
      </trkpt>
      <trkpt lat="47.9033" lon="-3.8677">
        <ele>78.2</ele>
        <time>2024-09-07T06:50:52Z</time>
      </trkpt>
      <trkpt lat="47.90332" lon="-3.86768">
        <ele>78.2</ele>
        <time>2024-09-07T06:50:53Z</time>
      </trkpt>
      <trkpt lat="47.90335" lon="-3.86766">
        <ele>78.4</ele>
        <time>2024-09-07T06:50:54Z</time>
      </trkpt>
      <trkpt lat="47.90338" lon="-3.86764">
        <ele>78.6</ele>
        <time>2024-09-07T06:50:55Z</time>
      </trkpt>
      <trkpt lat="47.9034" lon="-3.86763">
        <ele>78.8</ele>
        <time>2024-09-07T06:50:56Z</time>
      </trkpt>
      <trkpt lat="47.90343" lon="-3.86761">
        <ele>78.8</ele>
        <time>2024-09-07T06:50:57Z</time>
      </trkpt>
      <trkpt lat="47.90345" lon="-3.86759">
        <ele>79</ele>
        <time>2024-09-07T06:50:58Z</time>
      </trkpt>
      <trkpt lat="47.90348" lon="-3.86757">
        <ele>79</ele>
        <time>2024-09-07T06:50:59Z</time>
      </trkpt>
      <trkpt lat="47.9035" lon="-3.86755">
        <ele>79.4</ele>
        <time>2024-09-07T06:51:00Z</time>
      </trkpt>
      <trkpt lat="47.90353" lon="-3.86753">
        <ele>79.4</ele>
        <time>2024-09-07T06:51:01Z</time>
      </trkpt>
      <trkpt lat="47.90355" lon="-3.86751">
        <ele>79.4</ele>
        <time>2024-09-07T06:51:02Z</time>
      </trkpt>
      <trkpt lat="47.90358" lon="-3.8675">
        <ele>79.6</ele>
        <time>2024-09-07T06:51:03Z</time>
      </trkpt>
      <trkpt lat="47.9036" lon="-3.86747">
        <ele>79.6</ele>
        <time>2024-09-07T06:51:04Z</time>
      </trkpt>
      <trkpt lat="47.90363" lon="-3.86746">
        <ele>79.8</ele>
        <time>2024-09-07T06:51:05Z</time>
      </trkpt>
      <trkpt lat="47.90365" lon="-3.86743">
        <ele>80</ele>
        <time>2024-09-07T06:51:06Z</time>
      </trkpt>
      <trkpt lat="47.90368" lon="-3.86741">
        <ele>80.2</ele>
        <time>2024-09-07T06:51:07Z</time>
      </trkpt>
      <trkpt lat="47.9037" lon="-3.86739">
        <ele>80.2</ele>
        <time>2024-09-07T06:51:08Z</time>
      </trkpt>
      <trkpt lat="47.90373" lon="-3.86738">
        <ele>80.4</ele>
        <time>2024-09-07T06:51:09Z</time>
      </trkpt>
      <trkpt lat="47.90375" lon="-3.86736">
        <ele>80.6</ele>
        <time>2024-09-07T06:51:10Z</time>
      </trkpt>
      <trkpt lat="47.90378" lon="-3.86734">
        <ele>80.6</ele>
        <time>2024-09-07T06:51:11Z</time>
      </trkpt>
      <trkpt lat="47.9038" lon="-3.86732">
        <ele>81</ele>
        <time>2024-09-07T06:51:12Z</time>
      </trkpt>
      <trkpt lat="47.90383" lon="-3.86729">
        <ele>81.2</ele>
        <time>2024-09-07T06:51:13Z</time>
      </trkpt>
      <trkpt lat="47.90386" lon="-3.86727">
        <ele>81.2</ele>
        <time>2024-09-07T06:51:14Z</time>
      </trkpt>
      <trkpt lat="47.90389" lon="-3.86724">
        <ele>81.4</ele>
        <time>2024-09-07T06:51:15Z</time>
      </trkpt>
      <trkpt lat="47.90391" lon="-3.86722">
        <ele>81.6</ele>
        <time>2024-09-07T06:51:16Z</time>
      </trkpt>
      <trkpt lat="47.90394" lon="-3.8672">
        <ele>81.8</ele>
        <time>2024-09-07T06:51:17Z</time>
      </trkpt>
      <trkpt lat="47.90396" lon="-3.86718">
        <ele>82</ele>
        <time>2024-09-07T06:51:18Z</time>
      </trkpt>
      <trkpt lat="47.90399" lon="-3.86717">
        <ele>82</ele>
        <time>2024-09-07T06:51:19Z</time>
      </trkpt>
      <trkpt lat="47.90401" lon="-3.86715">
        <ele>82.2</ele>
        <time>2024-09-07T06:51:20Z</time>
      </trkpt>
      <trkpt lat="47.90404" lon="-3.86713">
        <ele>82.2</ele>
        <time>2024-09-07T06:51:21Z</time>
      </trkpt>
      <trkpt lat="47.90407" lon="-3.86711">
        <ele>82.2</ele>
        <time>2024-09-07T06:51:22Z</time>
      </trkpt>
      <trkpt lat="47.9041" lon="-3.86708">
        <ele>82.4</ele>
        <time>2024-09-07T06:51:23Z</time>
      </trkpt>
      <trkpt lat="47.90412" lon="-3.86706">
        <ele>82.6</ele>
        <time>2024-09-07T06:51:24Z</time>
      </trkpt>
      <trkpt lat="47.90415" lon="-3.86704">
        <ele>82.6</ele>
        <time>2024-09-07T06:51:25Z</time>
      </trkpt>
      <trkpt lat="47.90417" lon="-3.86702">
        <ele>82.8</ele>
        <time>2024-09-07T06:51:26Z</time>
      </trkpt>
      <trkpt lat="47.9042" lon="-3.867">
        <ele>82.8</ele>
        <time>2024-09-07T06:51:27Z</time>
      </trkpt>
      <trkpt lat="47.90423" lon="-3.86698">
        <ele>83</ele>
        <time>2024-09-07T06:51:28Z</time>
      </trkpt>
      <trkpt lat="47.90426" lon="-3.86697">
        <ele>83.2</ele>
        <time>2024-09-07T06:51:29Z</time>
      </trkpt>
      <trkpt lat="47.90429" lon="-3.86695">
        <ele>83.2</ele>
        <time>2024-09-07T06:51:30Z</time>
      </trkpt>
      <trkpt lat="47.90431" lon="-3.86693">
        <ele>83.4</ele>
        <time>2024-09-07T06:51:31Z</time>
      </trkpt>
      <trkpt lat="47.90434" lon="-3.86692">
        <ele>83.6</ele>
        <time>2024-09-07T06:51:32Z</time>
      </trkpt>
      <trkpt lat="47.90437" lon="-3.8669">
        <ele>83.6</ele>
        <time>2024-09-07T06:51:33Z</time>
      </trkpt>
      <trkpt lat="47.9044" lon="-3.86688">
        <ele>83.8</ele>
        <time>2024-09-07T06:51:34Z</time>
      </trkpt>
      <trkpt lat="47.90442" lon="-3.86687">
        <ele>84</ele>
        <time>2024-09-07T06:51:35Z</time>
      </trkpt>
      <trkpt lat="47.90445" lon="-3.86685">
        <ele>84</ele>
        <time>2024-09-07T06:51:36Z</time>
      </trkpt>
      <trkpt lat="47.90448" lon="-3.86684">
        <ele>84.2</ele>
        <time>2024-09-07T06:51:37Z</time>
      </trkpt>
      <trkpt lat="47.90451" lon="-3.86683">
        <ele>84.4</ele>
        <time>2024-09-07T06:51:38Z</time>
      </trkpt>
      <trkpt lat="47.90453" lon="-3.86682">
        <ele>84.4</ele>
        <time>2024-09-07T06:51:39Z</time>
      </trkpt>
      <trkpt lat="47.90456" lon="-3.86681">
        <ele>84.6</ele>
        <time>2024-09-07T06:51:40Z</time>
      </trkpt>
      <trkpt lat="47.90459" lon="-3.8668">
        <ele>84.8</ele>
        <time>2024-09-07T06:51:41Z</time>
      </trkpt>
      <trkpt lat="47.90462" lon="-3.86678">
        <ele>84.8</ele>
        <time>2024-09-07T06:51:42Z</time>
      </trkpt>
      <trkpt lat="47.90465" lon="-3.86677">
        <ele>84.8</ele>
        <time>2024-09-07T06:51:43Z</time>
      </trkpt>
      <trkpt lat="47.90467" lon="-3.86676">
        <ele>85</ele>
        <time>2024-09-07T06:51:44Z</time>
      </trkpt>
      <trkpt lat="47.9047" lon="-3.86674">
        <ele>85</ele>
        <time>2024-09-07T06:51:45Z</time>
      </trkpt>
      <trkpt lat="47.90473" lon="-3.86673">
        <ele>85.2</ele>
        <time>2024-09-07T06:51:46Z</time>
      </trkpt>
      <trkpt lat="47.90475" lon="-3.86671">
        <ele>85.4</ele>
        <time>2024-09-07T06:51:47Z</time>
      </trkpt>
      <trkpt lat="47.90478" lon="-3.8667">
        <ele>85.4</ele>
        <time>2024-09-07T06:51:48Z</time>
      </trkpt>
      <trkpt lat="47.90481" lon="-3.86668">
        <ele>85.6</ele>
        <time>2024-09-07T06:51:49Z</time>
      </trkpt>
      <trkpt lat="47.90484" lon="-3.86667">
        <ele>85.8</ele>
        <time>2024-09-07T06:51:50Z</time>
      </trkpt>
      <trkpt lat="47.90487" lon="-3.86666">
        <ele>85.8</ele>
        <time>2024-09-07T06:51:51Z</time>
      </trkpt>
      <trkpt lat="47.9049" lon="-3.86664">
        <ele>86</ele>
        <time>2024-09-07T06:51:52Z</time>
      </trkpt>
      <trkpt lat="47.90492" lon="-3.86663">
        <ele>86.2</ele>
        <time>2024-09-07T06:51:53Z</time>
      </trkpt>
      <trkpt lat="47.90495" lon="-3.86662">
        <ele>86.2</ele>
        <time>2024-09-07T06:51:54Z</time>
      </trkpt>
      <trkpt lat="47.90498" lon="-3.8666">
        <ele>86.4</ele>
        <time>2024-09-07T06:51:55Z</time>
      </trkpt>
      <trkpt lat="47.90501" lon="-3.86659">
        <ele>86.6</ele>
        <time>2024-09-07T06:51:56Z</time>
      </trkpt>
      <trkpt lat="47.90504" lon="-3.86657">
        <ele>86.6</ele>
        <time>2024-09-07T06:51:57Z</time>
      </trkpt>
      <trkpt lat="47.90506" lon="-3.86656">
        <ele>86.8</ele>
        <time>2024-09-07T06:51:58Z</time>
      </trkpt>
      <trkpt lat="47.90509" lon="-3.86655">
        <ele>87</ele>
        <time>2024-09-07T06:51:59Z</time>
      </trkpt>
      <trkpt lat="47.90512" lon="-3.86654">
        <ele>87.2</ele>
        <time>2024-09-07T06:52:00Z</time>
      </trkpt>
      <trkpt lat="47.90515" lon="-3.86653">
        <ele>87.4</ele>
        <time>2024-09-07T06:52:01Z</time>
      </trkpt>
      <trkpt lat="47.90518" lon="-3.86651">
        <ele>87.4</ele>
        <time>2024-09-07T06:52:02Z</time>
      </trkpt>
      <trkpt lat="47.90521" lon="-3.8665">
        <ele>87.4</ele>
        <time>2024-09-07T06:52:03Z</time>
      </trkpt>
      <trkpt lat="47.90524" lon="-3.86648">
        <ele>87.4</ele>
        <time>2024-09-07T06:52:04Z</time>
      </trkpt>
      <trkpt lat="47.90527" lon="-3.86646">
        <ele>87.6</ele>
        <time>2024-09-07T06:52:05Z</time>
      </trkpt>
      <trkpt lat="47.90529" lon="-3.86645">
        <ele>87.8</ele>
        <time>2024-09-07T06:52:06Z</time>
      </trkpt>
      <trkpt lat="47.90532" lon="-3.86643">
        <ele>87.8</ele>
        <time>2024-09-07T06:52:07Z</time>
      </trkpt>
      <trkpt lat="47.90535" lon="-3.86642">
        <ele>88</ele>
        <time>2024-09-07T06:52:08Z</time>
      </trkpt>
      <trkpt lat="47.90537" lon="-3.86641">
        <ele>88.2</ele>
        <time>2024-09-07T06:52:09Z</time>
      </trkpt>
      <trkpt lat="47.9054" lon="-3.86639">
        <ele>88.2</ele>
        <time>2024-09-07T06:52:10Z</time>
      </trkpt>
      <trkpt lat="47.90543" lon="-3.86638">
        <ele>88.4</ele>
        <time>2024-09-07T06:52:11Z</time>
      </trkpt>
      <trkpt lat="47.90545" lon="-3.86637">
        <ele>88.6</ele>
        <time>2024-09-07T06:52:12Z</time>
      </trkpt>
      <trkpt lat="47.90548" lon="-3.86635">
        <ele>88.8</ele>
        <time>2024-09-07T06:52:13Z</time>
      </trkpt>
      <trkpt lat="47.9055" lon="-3.86634">
        <ele>88.8</ele>
        <time>2024-09-07T06:52:14Z</time>
      </trkpt>
      <trkpt lat="47.90552" lon="-3.86632">
        <ele>89</ele>
        <time>2024-09-07T06:52:15Z</time>
      </trkpt>
      <trkpt lat="47.90555" lon="-3.8663">
        <ele>89.2</ele>
        <time>2024-09-07T06:52:16Z</time>
      </trkpt>
      <trkpt lat="47.90557" lon="-3.86628">
        <ele>89.2</ele>
        <time>2024-09-07T06:52:17Z</time>
      </trkpt>
      <trkpt lat="47.9056" lon="-3.86626">
        <ele>89.4</ele>
        <time>2024-09-07T06:52:18Z</time>
      </trkpt>
      <trkpt lat="47.90563" lon="-3.86625">
        <ele>89.4</ele>
        <time>2024-09-07T06:52:19Z</time>
      </trkpt>
      <trkpt lat="47.90566" lon="-3.86623">
        <ele>89.6</ele>
        <time>2024-09-07T06:52:20Z</time>
      </trkpt>
      <trkpt lat="47.90568" lon="-3.86621">
        <ele>89.8</ele>
        <time>2024-09-07T06:52:21Z</time>
      </trkpt>
      <trkpt lat="47.90571" lon="-3.86619">
        <ele>90</ele>
        <time>2024-09-07T06:52:22Z</time>
      </trkpt>
      <trkpt lat="47.90574" lon="-3.86617">
        <ele>90</ele>
        <time>2024-09-07T06:52:23Z</time>
      </trkpt>
      <trkpt lat="47.90576" lon="-3.86616">
        <ele>90</ele>
        <time>2024-09-07T06:52:24Z</time>
      </trkpt>
      <trkpt lat="47.90579" lon="-3.86615">
        <ele>90.2</ele>
        <time>2024-09-07T06:52:25Z</time>
      </trkpt>
      <trkpt lat="47.90581" lon="-3.86616">
        <ele>90.4</ele>
        <time>2024-09-07T06:52:26Z</time>
      </trkpt>
      <trkpt lat="47.90582" lon="-3.86617">
        <ele>90.6</ele>
        <time>2024-09-07T06:52:27Z</time>
      </trkpt>
      <trkpt lat="47.90583" lon="-3.86618">
        <ele>90.6</ele>
        <time>2024-09-07T06:52:28Z</time>
      </trkpt>
      <trkpt lat="47.90583" lon="-3.86618">
        <ele>90.8</ele>
        <time>2024-09-07T06:52:29Z</time>
      </trkpt>
      <trkpt lat="47.90584" lon="-3.86618">
        <ele>91</ele>
        <time>2024-09-07T06:52:30Z</time>
      </trkpt>
      <trkpt lat="47.90591" lon="-3.86597">
        <ele>92.2</ele>
        <time>2024-09-07T06:52:45Z</time>
      </trkpt>
      <trkpt lat="47.90592" lon="-3.86595">
        <ele>92.2</ele>
        <time>2024-09-07T06:52:46Z</time>
      </trkpt>
      <trkpt lat="47.90593" lon="-3.86593">
        <ele>92.2</ele>
        <time>2024-09-07T06:52:47Z</time>
      </trkpt>
      <trkpt lat="47.90594" lon="-3.86592">
        <ele>92.2</ele>
        <time>2024-09-07T06:52:48Z</time>
      </trkpt>
      <trkpt lat="47.90596" lon="-3.8659">
        <ele>92.2</ele>
        <time>2024-09-07T06:52:49Z</time>
      </trkpt>
      <trkpt lat="47.90597" lon="-3.86588">
        <ele>92.2</ele>
        <time>2024-09-07T06:52:50Z</time>
      </trkpt>
      <trkpt lat="47.90599" lon="-3.86585">
        <ele>92.2</ele>
        <time>2024-09-07T06:52:51Z</time>
      </trkpt>
      <trkpt lat="47.90601" lon="-3.86582">
        <ele>92.2</ele>
        <time>2024-09-07T06:52:52Z</time>
      </trkpt>
      <trkpt lat="47.90603" lon="-3.86578">
        <ele>92.2</ele>
        <time>2024-09-07T06:52:53Z</time>
      </trkpt>
      <trkpt lat="47.90605" lon="-3.86574">
        <ele>92.2</ele>
        <time>2024-09-07T06:52:54Z</time>
      </trkpt>
      <trkpt lat="47.90607" lon="-3.86571">
        <ele>92.4</ele>
        <time>2024-09-07T06:52:55Z</time>
      </trkpt>
      <trkpt lat="47.90609" lon="-3.86566">
        <ele>92.4</ele>
        <time>2024-09-07T06:52:56Z</time>
      </trkpt>
      <trkpt lat="47.90611" lon="-3.86562">
        <ele>92.4</ele>
        <time>2024-09-07T06:52:57Z</time>
      </trkpt>
      <trkpt lat="47.90613" lon="-3.86557">
        <ele>92.4</ele>
        <time>2024-09-07T06:52:58Z</time>
      </trkpt>
      <trkpt lat="47.90616" lon="-3.86552">
        <ele>92.6</ele>
        <time>2024-09-07T06:52:59Z</time>
      </trkpt>
      <trkpt lat="47.90618" lon="-3.86546">
        <ele>92.6</ele>
        <time>2024-09-07T06:53:00Z</time>
      </trkpt>
      <trkpt lat="47.9062" lon="-3.86541">
        <ele>92.6</ele>
        <time>2024-09-07T06:53:01Z</time>
      </trkpt>
      <trkpt lat="47.90623" lon="-3.86535">
        <ele>92.6</ele>
        <time>2024-09-07T06:53:02Z</time>
      </trkpt>
      <trkpt lat="47.90625" lon="-3.86528">
        <ele>92.6</ele>
        <time>2024-09-07T06:53:03Z</time>
      </trkpt>
      <trkpt lat="47.90627" lon="-3.86522">
        <ele>92.6</ele>
        <time>2024-09-07T06:53:04Z</time>
      </trkpt>
      <trkpt lat="47.90629" lon="-3.86516">
        <ele>92.6</ele>
        <time>2024-09-07T06:53:05Z</time>
      </trkpt>
      <trkpt lat="47.90631" lon="-3.86509">
        <ele>92.6</ele>
        <time>2024-09-07T06:53:06Z</time>
      </trkpt>
      <trkpt lat="47.90632" lon="-3.86503">
        <ele>92.6</ele>
        <time>2024-09-07T06:53:07Z</time>
      </trkpt>
      <trkpt lat="47.90634" lon="-3.86496">
        <ele>92.6</ele>
        <time>2024-09-07T06:53:08Z</time>
      </trkpt>
      <trkpt lat="47.90635" lon="-3.8649">
        <ele>92.6</ele>
        <time>2024-09-07T06:53:09Z</time>
      </trkpt>
      <trkpt lat="47.90636" lon="-3.86483">
        <ele>92.4</ele>
        <time>2024-09-07T06:53:10Z</time>
      </trkpt>
      <trkpt lat="47.90638" lon="-3.86476">
        <ele>92.4</ele>
        <time>2024-09-07T06:53:11Z</time>
      </trkpt>
      <trkpt lat="47.90639" lon="-3.8647">
        <ele>92.4</ele>
        <time>2024-09-07T06:53:12Z</time>
      </trkpt>
      <trkpt lat="47.9064" lon="-3.86463">
        <ele>92.4</ele>
        <time>2024-09-07T06:53:13Z</time>
      </trkpt>
      <trkpt lat="47.90641" lon="-3.86455">
        <ele>92.4</ele>
        <time>2024-09-07T06:53:14Z</time>
      </trkpt>
      <trkpt lat="47.90642" lon="-3.86448">
        <ele>92.2</ele>
        <time>2024-09-07T06:53:15Z</time>
      </trkpt>
      <trkpt lat="47.90643" lon="-3.8644">
        <ele>92</ele>
        <time>2024-09-07T06:53:16Z</time>
      </trkpt>
      <trkpt lat="47.90645" lon="-3.86433">
        <ele>92</ele>
        <time>2024-09-07T06:53:17Z</time>
      </trkpt>
      <trkpt lat="47.90646" lon="-3.86425">
        <ele>92</ele>
        <time>2024-09-07T06:53:18Z</time>
      </trkpt>
      <trkpt lat="47.90647" lon="-3.86418">
        <ele>92</ele>
        <time>2024-09-07T06:53:19Z</time>
      </trkpt>
      <trkpt lat="47.90648" lon="-3.86411">
        <ele>92</ele>
        <time>2024-09-07T06:53:20Z</time>
      </trkpt>
      <trkpt lat="47.9065" lon="-3.86405">
        <ele>92</ele>
        <time>2024-09-07T06:53:21Z</time>
      </trkpt>
      <trkpt lat="47.90651" lon="-3.86398">
        <ele>92</ele>
        <time>2024-09-07T06:53:22Z</time>
      </trkpt>
      <trkpt lat="47.90652" lon="-3.8639">
        <ele>92</ele>
        <time>2024-09-07T06:53:23Z</time>
      </trkpt>
      <trkpt lat="47.90653" lon="-3.86383">
        <ele>92</ele>
        <time>2024-09-07T06:53:24Z</time>
      </trkpt>
      <trkpt lat="47.90654" lon="-3.86375">
        <ele>92</ele>
        <time>2024-09-07T06:53:25Z</time>
      </trkpt>
      <trkpt lat="47.90656" lon="-3.86367">
        <ele>92</ele>
        <time>2024-09-07T06:53:26Z</time>
      </trkpt>
      <trkpt lat="47.90657" lon="-3.86359">
        <ele>92</ele>
        <time>2024-09-07T06:53:27Z</time>
      </trkpt>
      <trkpt lat="47.90658" lon="-3.86352">
        <ele>92</ele>
        <time>2024-09-07T06:53:28Z</time>
      </trkpt>
      <trkpt lat="47.90659" lon="-3.86346">
        <ele>92.2</ele>
        <time>2024-09-07T06:53:29Z</time>
      </trkpt>
      <trkpt lat="47.90659" lon="-3.8634">
        <ele>92.2</ele>
        <time>2024-09-07T06:53:30Z</time>
      </trkpt>
      <trkpt lat="47.9066" lon="-3.86334">
        <ele>92.2</ele>
        <time>2024-09-07T06:53:31Z</time>
      </trkpt>
      <trkpt lat="47.90661" lon="-3.8633">
        <ele>92.2</ele>
        <time>2024-09-07T06:53:32Z</time>
      </trkpt>
      <trkpt lat="47.90661" lon="-3.86325">
        <ele>92.2</ele>
        <time>2024-09-07T06:53:33Z</time>
      </trkpt>
      <trkpt lat="47.90662" lon="-3.8632">
        <ele>92.4</ele>
        <time>2024-09-07T06:53:34Z</time>
      </trkpt>
      <trkpt lat="47.90662" lon="-3.86315">
        <ele>92.4</ele>
        <time>2024-09-07T06:53:35Z</time>
      </trkpt>
      <trkpt lat="47.90663" lon="-3.86311">
        <ele>92.4</ele>
        <time>2024-09-07T06:53:36Z</time>
      </trkpt>
      <trkpt lat="47.90663" lon="-3.86306">
        <ele>92.4</ele>
        <time>2024-09-07T06:53:37Z</time>
      </trkpt>
      <trkpt lat="47.90664" lon="-3.86301">
        <ele>92.4</ele>
        <time>2024-09-07T06:53:38Z</time>
      </trkpt>
      <trkpt lat="47.90664" lon="-3.86296">
        <ele>92.6</ele>
        <time>2024-09-07T06:53:39Z</time>
      </trkpt>
      <trkpt lat="47.90664" lon="-3.86291">
        <ele>92.6</ele>
        <time>2024-09-07T06:53:40Z</time>
      </trkpt>
      <trkpt lat="47.90664" lon="-3.86286">
        <ele>92.6</ele>
        <time>2024-09-07T06:53:41Z</time>
      </trkpt>
      <trkpt lat="47.90665" lon="-3.8628">
        <ele>92.8</ele>
        <time>2024-09-07T06:53:42Z</time>
      </trkpt>
      <trkpt lat="47.90665" lon="-3.86275">
        <ele>92.8</ele>
        <time>2024-09-07T06:53:43Z</time>
      </trkpt>
      <trkpt lat="47.90665" lon="-3.8627">
        <ele>92.8</ele>
        <time>2024-09-07T06:53:44Z</time>
      </trkpt>
      <trkpt lat="47.90665" lon="-3.86265">
        <ele>93.2</ele>
        <time>2024-09-07T06:53:45Z</time>
      </trkpt>
      <trkpt lat="47.90666" lon="-3.8626">
        <ele>93.2</ele>
        <time>2024-09-07T06:53:46Z</time>
      </trkpt>
      <trkpt lat="47.90666" lon="-3.86255">
        <ele>93</ele>
        <time>2024-09-07T06:53:47Z</time>
      </trkpt>
      <trkpt lat="47.90666" lon="-3.8625">
        <ele>93.2</ele>
        <time>2024-09-07T06:53:48Z</time>
      </trkpt>
      <trkpt lat="47.90666" lon="-3.86245">
        <ele>93.4</ele>
        <time>2024-09-07T06:53:49Z</time>
      </trkpt>
      <trkpt lat="47.90667" lon="-3.8624">
        <ele>93.4</ele>
        <time>2024-09-07T06:53:50Z</time>
      </trkpt>
      <trkpt lat="47.90667" lon="-3.86236">
        <ele>93.6</ele>
        <time>2024-09-07T06:53:51Z</time>
      </trkpt>
      <trkpt lat="47.90667" lon="-3.86231">
        <ele>93.6</ele>
        <time>2024-09-07T06:53:52Z</time>
      </trkpt>
      <trkpt lat="47.90667" lon="-3.86227">
        <ele>93.8</ele>
        <time>2024-09-07T06:53:53Z</time>
      </trkpt>
      <trkpt lat="47.90667" lon="-3.86222">
        <ele>93.8</ele>
        <time>2024-09-07T06:53:54Z</time>
      </trkpt>
      <trkpt lat="47.90667" lon="-3.86217">
        <ele>94</ele>
        <time>2024-09-07T06:53:55Z</time>
      </trkpt>
      <trkpt lat="47.90667" lon="-3.86212">
        <ele>94</ele>
        <time>2024-09-07T06:53:56Z</time>
      </trkpt>
      <trkpt lat="47.90667" lon="-3.86207">
        <ele>94.2</ele>
        <time>2024-09-07T06:53:57Z</time>
      </trkpt>
      <trkpt lat="47.90667" lon="-3.86201">
        <ele>94.2</ele>
        <time>2024-09-07T06:53:58Z</time>
      </trkpt>
      <trkpt lat="47.90667" lon="-3.86196">
        <ele>94.4</ele>
        <time>2024-09-07T06:53:59Z</time>
      </trkpt>
      <trkpt lat="47.90667" lon="-3.8619">
        <ele>94.4</ele>
        <time>2024-09-07T06:54:00Z</time>
      </trkpt>
      <trkpt lat="47.90667" lon="-3.86185">
        <ele>94.4</ele>
        <time>2024-09-07T06:54:01Z</time>
      </trkpt>
      <trkpt lat="47.90667" lon="-3.86181">
        <ele>94.6</ele>
        <time>2024-09-07T06:54:02Z</time>
      </trkpt>
      <trkpt lat="47.90667" lon="-3.86176">
        <ele>94.6</ele>
        <time>2024-09-07T06:54:03Z</time>
      </trkpt>
      <trkpt lat="47.90667" lon="-3.86171">
        <ele>94.8</ele>
        <time>2024-09-07T06:54:04Z</time>
      </trkpt>
      <trkpt lat="47.90667" lon="-3.86166">
        <ele>94.8</ele>
        <time>2024-09-07T06:54:05Z</time>
      </trkpt>
      <trkpt lat="47.90667" lon="-3.86161">
        <ele>94.8</ele>
        <time>2024-09-07T06:54:06Z</time>
      </trkpt>
      <trkpt lat="47.90667" lon="-3.86156">
        <ele>95</ele>
        <time>2024-09-07T06:54:07Z</time>
      </trkpt>
      <trkpt lat="47.90666" lon="-3.86152">
        <ele>95</ele>
        <time>2024-09-07T06:54:08Z</time>
      </trkpt>
      <trkpt lat="47.90666" lon="-3.86147">
        <ele>95</ele>
        <time>2024-09-07T06:54:09Z</time>
      </trkpt>
      <trkpt lat="47.90665" lon="-3.86143">
        <ele>95</ele>
        <time>2024-09-07T06:54:10Z</time>
      </trkpt>
      <trkpt lat="47.90665" lon="-3.86138">
        <ele>95.2</ele>
        <time>2024-09-07T06:54:11Z</time>
      </trkpt>
      <trkpt lat="47.90665" lon="-3.86133">
        <ele>95.2</ele>
        <time>2024-09-07T06:54:12Z</time>
      </trkpt>
      <trkpt lat="47.90665" lon="-3.86127">
        <ele>95.4</ele>
        <time>2024-09-07T06:54:13Z</time>
      </trkpt>
      <trkpt lat="47.90665" lon="-3.86122">
        <ele>95.4</ele>
        <time>2024-09-07T06:54:14Z</time>
      </trkpt>
      <trkpt lat="47.90665" lon="-3.86116">
        <ele>95.4</ele>
        <time>2024-09-07T06:54:15Z</time>
      </trkpt>
      <trkpt lat="47.90665" lon="-3.86112">
        <ele>95.6</ele>
        <time>2024-09-07T06:54:16Z</time>
      </trkpt>
      <trkpt lat="47.90665" lon="-3.86106">
        <ele>95.8</ele>
        <time>2024-09-07T06:54:17Z</time>
      </trkpt>
      <trkpt lat="47.90665" lon="-3.86101">
        <ele>95.8</ele>
        <time>2024-09-07T06:54:18Z</time>
      </trkpt>
      <trkpt lat="47.90665" lon="-3.86096">
        <ele>96</ele>
        <time>2024-09-07T06:54:19Z</time>
      </trkpt>
      <trkpt lat="47.90665" lon="-3.8609">
        <ele>96</ele>
        <time>2024-09-07T06:54:20Z</time>
      </trkpt>
      <trkpt lat="47.90665" lon="-3.86085">
        <ele>96.2</ele>
        <time>2024-09-07T06:54:21Z</time>
      </trkpt>
      <trkpt lat="47.90665" lon="-3.8608">
        <ele>96.2</ele>
        <time>2024-09-07T06:54:22Z</time>
      </trkpt>
      <trkpt lat="47.90665" lon="-3.86075">
        <ele>96.2</ele>
        <time>2024-09-07T06:54:23Z</time>
      </trkpt>
      <trkpt lat="47.90664" lon="-3.8607">
        <ele>96.2</ele>
        <time>2024-09-07T06:54:24Z</time>
      </trkpt>
      <trkpt lat="47.90665" lon="-3.86066">
        <ele>96.4</ele>
        <time>2024-09-07T06:54:25Z</time>
      </trkpt>
      <trkpt lat="47.90665" lon="-3.86061">
        <ele>96.4</ele>
        <time>2024-09-07T06:54:26Z</time>
      </trkpt>
      <trkpt lat="47.90665" lon="-3.86056">
        <ele>96.4</ele>
        <time>2024-09-07T06:54:27Z</time>
      </trkpt>
      <trkpt lat="47.90665" lon="-3.86052">
        <ele>96.6</ele>
        <time>2024-09-07T06:54:28Z</time>
      </trkpt>
      <trkpt lat="47.90665" lon="-3.86047">
        <ele>96.8</ele>
        <time>2024-09-07T06:54:29Z</time>
      </trkpt>
      <trkpt lat="47.90666" lon="-3.86043">
        <ele>97</ele>
        <time>2024-09-07T06:54:30Z</time>
      </trkpt>
      <trkpt lat="47.90666" lon="-3.86038">
        <ele>97</ele>
        <time>2024-09-07T06:54:31Z</time>
      </trkpt>
      <trkpt lat="47.90666" lon="-3.86033">
        <ele>97.2</ele>
        <time>2024-09-07T06:54:32Z</time>
      </trkpt>
      <trkpt lat="47.90667" lon="-3.86028">
        <ele>97.2</ele>
        <time>2024-09-07T06:54:33Z</time>
      </trkpt>
      <trkpt lat="47.90667" lon="-3.86022">
        <ele>97.4</ele>
        <time>2024-09-07T06:54:34Z</time>
      </trkpt>
      <trkpt lat="47.90668" lon="-3.86017">
        <ele>97.4</ele>
        <time>2024-09-07T06:54:35Z</time>
      </trkpt>
      <trkpt lat="47.90668" lon="-3.86011">
        <ele>97.6</ele>
        <time>2024-09-07T06:54:36Z</time>
      </trkpt>
      <trkpt lat="47.90669" lon="-3.86005">
        <ele>97.6</ele>
        <time>2024-09-07T06:54:37Z</time>
      </trkpt>
      <trkpt lat="47.9067" lon="-3.85999">
        <ele>97.8</ele>
        <time>2024-09-07T06:54:38Z</time>
      </trkpt>
      <trkpt lat="47.9067" lon="-3.85993">
        <ele>97.8</ele>
        <time>2024-09-07T06:54:39Z</time>
      </trkpt>
      <trkpt lat="47.90671" lon="-3.85987">
        <ele>98</ele>
        <time>2024-09-07T06:54:40Z</time>
      </trkpt>
      <trkpt lat="47.90671" lon="-3.85981">
        <ele>98</ele>
        <time>2024-09-07T06:54:41Z</time>
      </trkpt>
      <trkpt lat="47.90672" lon="-3.85975">
        <ele>98.2</ele>
        <time>2024-09-07T06:54:42Z</time>
      </trkpt>
      <trkpt lat="47.90672" lon="-3.85969">
        <ele>98.2</ele>
        <time>2024-09-07T06:54:43Z</time>
      </trkpt>
      <trkpt lat="47.90672" lon="-3.85963">
        <ele>98.2</ele>
        <time>2024-09-07T06:54:44Z</time>
      </trkpt>
      <trkpt lat="47.90673" lon="-3.85957">
        <ele>98.4</ele>
        <time>2024-09-07T06:54:45Z</time>
      </trkpt>
      <trkpt lat="47.90673" lon="-3.85952">
        <ele>98.4</ele>
        <time>2024-09-07T06:54:46Z</time>
      </trkpt>
      <trkpt lat="47.90674" lon="-3.85946">
        <ele>98.4</ele>
        <time>2024-09-07T06:54:47Z</time>
      </trkpt>
      <trkpt lat="47.90674" lon="-3.85941">
        <ele>98.6</ele>
        <time>2024-09-07T06:54:48Z</time>
      </trkpt>
      <trkpt lat="47.90675" lon="-3.85935">
        <ele>98.6</ele>
        <time>2024-09-07T06:54:49Z</time>
      </trkpt>
      <trkpt lat="47.90676" lon="-3.85929">
        <ele>98.6</ele>
        <time>2024-09-07T06:54:50Z</time>
      </trkpt>
      <trkpt lat="47.90676" lon="-3.85923">
        <ele>98.6</ele>
        <time>2024-09-07T06:54:51Z</time>
      </trkpt>
      <trkpt lat="47.90677" lon="-3.85917">
        <ele>98.6</ele>
        <time>2024-09-07T06:54:52Z</time>
      </trkpt>
      <trkpt lat="47.90678" lon="-3.8591">
        <ele>98.6</ele>
        <time>2024-09-07T06:54:53Z</time>
      </trkpt>
      <trkpt lat="47.90679" lon="-3.85904">
        <ele>98.8</ele>
        <time>2024-09-07T06:54:54Z</time>
      </trkpt>
      <trkpt lat="47.9068" lon="-3.85898">
        <ele>98.8</ele>
        <time>2024-09-07T06:54:55Z</time>
      </trkpt>
      <trkpt lat="47.90681" lon="-3.85891">
        <ele>98.8</ele>
        <time>2024-09-07T06:54:56Z</time>
      </trkpt>
      <trkpt lat="47.90682" lon="-3.85885">
        <ele>99</ele>
        <time>2024-09-07T06:54:57Z</time>
      </trkpt>
      <trkpt lat="47.90683" lon="-3.85878">
        <ele>99</ele>
        <time>2024-09-07T06:54:58Z</time>
      </trkpt>
      <trkpt lat="47.90684" lon="-3.85872">
        <ele>99</ele>
        <time>2024-09-07T06:54:59Z</time>
      </trkpt>
      <trkpt lat="47.90685" lon="-3.85866">
        <ele>99</ele>
        <time>2024-09-07T06:55:00Z</time>
      </trkpt>
      <trkpt lat="47.90686" lon="-3.85859">
        <ele>99</ele>
        <time>2024-09-07T06:55:01Z</time>
      </trkpt>
      <trkpt lat="47.90687" lon="-3.85853">
        <ele>99</ele>
        <time>2024-09-07T06:55:02Z</time>
      </trkpt>
      <trkpt lat="47.90688" lon="-3.85846">
        <ele>99</ele>
        <time>2024-09-07T06:55:03Z</time>
      </trkpt>
      <trkpt lat="47.90689" lon="-3.85839">
        <ele>99</ele>
        <time>2024-09-07T06:55:04Z</time>
      </trkpt>
      <trkpt lat="47.9069" lon="-3.85832">
        <ele>99</ele>
        <time>2024-09-07T06:55:05Z</time>
      </trkpt>
      <trkpt lat="47.90691" lon="-3.85826">
        <ele>99</ele>
        <time>2024-09-07T06:55:06Z</time>
      </trkpt>
      <trkpt lat="47.90691" lon="-3.85819">
        <ele>99</ele>
        <time>2024-09-07T06:55:07Z</time>
      </trkpt>
      <trkpt lat="47.90692" lon="-3.85812">
        <ele>99</ele>
        <time>2024-09-07T06:55:08Z</time>
      </trkpt>
      <trkpt lat="47.90693" lon="-3.85805">
        <ele>99</ele>
        <time>2024-09-07T06:55:09Z</time>
      </trkpt>
      <trkpt lat="47.90694" lon="-3.85798">
        <ele>99</ele>
        <time>2024-09-07T06:55:10Z</time>
      </trkpt>
      <trkpt lat="47.90695" lon="-3.85791">
        <ele>99</ele>
        <time>2024-09-07T06:55:11Z</time>
      </trkpt>
      <trkpt lat="47.90696" lon="-3.85783">
        <ele>99</ele>
        <time>2024-09-07T06:55:12Z</time>
      </trkpt>
      <trkpt lat="47.90697" lon="-3.85776">
        <ele>98.8</ele>
        <time>2024-09-07T06:55:13Z</time>
      </trkpt>
      <trkpt lat="47.90698" lon="-3.85768">
        <ele>98.8</ele>
        <time>2024-09-07T06:55:14Z</time>
      </trkpt>
      <trkpt lat="47.90698" lon="-3.85761">
        <ele>98.8</ele>
        <time>2024-09-07T06:55:15Z</time>
      </trkpt>
      <trkpt lat="47.90699" lon="-3.85753">
        <ele>98.8</ele>
        <time>2024-09-07T06:55:16Z</time>
      </trkpt>
      <trkpt lat="47.907" lon="-3.85746">
        <ele>98.8</ele>
        <time>2024-09-07T06:55:17Z</time>
      </trkpt>
      <trkpt lat="47.907" lon="-3.85738">
        <ele>98.8</ele>
        <time>2024-09-07T06:55:18Z</time>
      </trkpt>
      <trkpt lat="47.907" lon="-3.8573">
        <ele>98.6</ele>
        <time>2024-09-07T06:55:19Z</time>
      </trkpt>
      <trkpt lat="47.907" lon="-3.85723">
        <ele>98.6</ele>
        <time>2024-09-07T06:55:20Z</time>
      </trkpt>
      <trkpt lat="47.907" lon="-3.85715">
        <ele>98.6</ele>
        <time>2024-09-07T06:55:21Z</time>
      </trkpt>
      <trkpt lat="47.907" lon="-3.85708">
        <ele>98.4</ele>
        <time>2024-09-07T06:55:22Z</time>
      </trkpt>
      <trkpt lat="47.90699" lon="-3.857">
        <ele>98.4</ele>
        <time>2024-09-07T06:55:23Z</time>
      </trkpt>
      <trkpt lat="47.90699" lon="-3.85693">
        <ele>98.4</ele>
        <time>2024-09-07T06:55:24Z</time>
      </trkpt>
      <trkpt lat="47.90699" lon="-3.85686">
        <ele>98.2</ele>
        <time>2024-09-07T06:55:25Z</time>
      </trkpt>
      <trkpt lat="47.90698" lon="-3.8568">
        <ele>98.2</ele>
        <time>2024-09-07T06:55:26Z</time>
      </trkpt>
      <trkpt lat="47.90697" lon="-3.85673">
        <ele>98.2</ele>
        <time>2024-09-07T06:55:27Z</time>
      </trkpt>
      <trkpt lat="47.90697" lon="-3.85667">
        <ele>98.2</ele>
        <time>2024-09-07T06:55:28Z</time>
      </trkpt>
      <trkpt lat="47.90696" lon="-3.85661">
        <ele>98.2</ele>
        <time>2024-09-07T06:55:29Z</time>
      </trkpt>
      <trkpt lat="47.90696" lon="-3.85655">
        <ele>98.2</ele>
        <time>2024-09-07T06:55:30Z</time>
      </trkpt>
      <trkpt lat="47.90695" lon="-3.8565">
        <ele>98.2</ele>
        <time>2024-09-07T06:55:31Z</time>
      </trkpt>
      <trkpt lat="47.90695" lon="-3.85644">
        <ele>98.2</ele>
        <time>2024-09-07T06:55:32Z</time>
      </trkpt>
      <trkpt lat="47.90694" lon="-3.85638">
        <ele>98.2</ele>
        <time>2024-09-07T06:55:33Z</time>
      </trkpt>
      <trkpt lat="47.90693" lon="-3.85632">
        <ele>98.2</ele>
        <time>2024-09-07T06:55:34Z</time>
      </trkpt>
      <trkpt lat="47.90692" lon="-3.85626">
        <ele>98.2</ele>
        <time>2024-09-07T06:55:35Z</time>
      </trkpt>
      <trkpt lat="47.90691" lon="-3.8562">
        <ele>98.2</ele>
        <time>2024-09-07T06:55:36Z</time>
      </trkpt>
      <trkpt lat="47.9069" lon="-3.85614">
        <ele>98.2</ele>
        <time>2024-09-07T06:55:37Z</time>
      </trkpt>
      <trkpt lat="47.90689" lon="-3.85607">
        <ele>98.2</ele>
        <time>2024-09-07T06:55:38Z</time>
      </trkpt>
      <trkpt lat="47.90688" lon="-3.85601">
        <ele>98.2</ele>
        <time>2024-09-07T06:55:39Z</time>
      </trkpt>
      <trkpt lat="47.90687" lon="-3.85595">
        <ele>98.2</ele>
        <time>2024-09-07T06:55:40Z</time>
      </trkpt>
      <trkpt lat="47.90686" lon="-3.85589">
        <ele>98.2</ele>
        <time>2024-09-07T06:55:41Z</time>
      </trkpt>
      <trkpt lat="47.90686" lon="-3.85583">
        <ele>98.2</ele>
        <time>2024-09-07T06:55:42Z</time>
      </trkpt>
      <trkpt lat="47.90686" lon="-3.85578">
        <ele>98.2</ele>
        <time>2024-09-07T06:55:43Z</time>
      </trkpt>
      <trkpt lat="47.90686" lon="-3.85573">
        <ele>98.2</ele>
        <time>2024-09-07T06:55:44Z</time>
      </trkpt>
      <trkpt lat="47.90686" lon="-3.85569">
        <ele>98.2</ele>
        <time>2024-09-07T06:55:45Z</time>
      </trkpt>
      <trkpt lat="47.90687" lon="-3.85564">
        <ele>98.2</ele>
        <time>2024-09-07T06:55:46Z</time>
      </trkpt>
      <trkpt lat="47.90687" lon="-3.8556">
        <ele>98.2</ele>
        <time>2024-09-07T06:55:47Z</time>
      </trkpt>
      <trkpt lat="47.90688" lon="-3.85557">
        <ele>98</ele>
        <time>2024-09-07T06:55:48Z</time>
      </trkpt>
      <trkpt lat="47.9069" lon="-3.85555">
        <ele>98</ele>
        <time>2024-09-07T06:55:49Z</time>
      </trkpt>
      <trkpt lat="47.90692" lon="-3.85552">
        <ele>98</ele>
        <time>2024-09-07T06:55:50Z</time>
      </trkpt>
      <trkpt lat="47.90695" lon="-3.85551">
        <ele>98</ele>
        <time>2024-09-07T06:55:51Z</time>
      </trkpt>
      <trkpt lat="47.90698" lon="-3.85551">
        <ele>97.8</ele>
        <time>2024-09-07T06:55:52Z</time>
      </trkpt>
      <trkpt lat="47.90701" lon="-3.85554">
        <ele>97.8</ele>
        <time>2024-09-07T06:55:53Z</time>
      </trkpt>
      <trkpt lat="47.90704" lon="-3.85559">
        <ele>97.8</ele>
        <time>2024-09-07T06:55:54Z</time>
      </trkpt>
      <trkpt lat="47.90706" lon="-3.85564">
        <ele>97.6</ele>
        <time>2024-09-07T06:55:55Z</time>
      </trkpt>
      <trkpt lat="47.90709" lon="-3.8557">
        <ele>97.6</ele>
        <time>2024-09-07T06:55:56Z</time>
      </trkpt>
      <trkpt lat="47.90711" lon="-3.85575">
        <ele>97.6</ele>
        <time>2024-09-07T06:55:57Z</time>
      </trkpt>
      <trkpt lat="47.90713" lon="-3.85582">
        <ele>97.4</ele>
        <time>2024-09-07T06:55:58Z</time>
      </trkpt>
      <trkpt lat="47.90715" lon="-3.85588">
        <ele>97.2</ele>
        <time>2024-09-07T06:55:59Z</time>
      </trkpt>
      <trkpt lat="47.90717" lon="-3.85594">
        <ele>97.2</ele>
        <time>2024-09-07T06:56:00Z</time>
      </trkpt>
      <trkpt lat="47.9072" lon="-3.85601">
        <ele>97</ele>
        <time>2024-09-07T06:56:01Z</time>
      </trkpt>
      <trkpt lat="47.90722" lon="-3.85608">
        <ele>96.8</ele>
        <time>2024-09-07T06:56:02Z</time>
      </trkpt>
      <trkpt lat="47.90725" lon="-3.85616">
        <ele>96.6</ele>
        <time>2024-09-07T06:56:03Z</time>
      </trkpt>
      <trkpt lat="47.90727" lon="-3.85623">
        <ele>96.6</ele>
        <time>2024-09-07T06:56:04Z</time>
      </trkpt>
      <trkpt lat="47.9073" lon="-3.85631">
        <ele>96.6</ele>
        <time>2024-09-07T06:56:05Z</time>
      </trkpt>
      <trkpt lat="47.90732" lon="-3.85639">
        <ele>96.4</ele>
        <time>2024-09-07T06:56:06Z</time>
      </trkpt>
      <trkpt lat="47.90735" lon="-3.85647">
        <ele>96.4</ele>
        <time>2024-09-07T06:56:07Z</time>
      </trkpt>
      <trkpt lat="47.90737" lon="-3.85655">
        <ele>96.2</ele>
        <time>2024-09-07T06:56:08Z</time>
      </trkpt>
      <trkpt lat="47.90739" lon="-3.85664">
        <ele>96.2</ele>
        <time>2024-09-07T06:56:09Z</time>
      </trkpt>
      <trkpt lat="47.90741" lon="-3.85674">
        <ele>96</ele>
        <time>2024-09-07T06:56:10Z</time>
      </trkpt>
      <trkpt lat="47.90743" lon="-3.85683">
        <ele>95.8</ele>
        <time>2024-09-07T06:56:11Z</time>
      </trkpt>
      <trkpt lat="47.90745" lon="-3.85693">
        <ele>95.6</ele>
        <time>2024-09-07T06:56:12Z</time>
      </trkpt>
      <trkpt lat="47.90746" lon="-3.85704">
        <ele>95.6</ele>
        <time>2024-09-07T06:56:13Z</time>
      </trkpt>
      <trkpt lat="47.90748" lon="-3.85714">
        <ele>95.2</ele>
        <time>2024-09-07T06:56:14Z</time>
      </trkpt>
      <trkpt lat="47.9075" lon="-3.85725">
        <ele>95.2</ele>
        <time>2024-09-07T06:56:15Z</time>
      </trkpt>
      <trkpt lat="47.90751" lon="-3.85736">
        <ele>94.8</ele>
        <time>2024-09-07T06:56:16Z</time>
      </trkpt>
      <trkpt lat="47.90753" lon="-3.85747">
        <ele>94.6</ele>
        <time>2024-09-07T06:56:17Z</time>
      </trkpt>
      <trkpt lat="47.90755" lon="-3.85758">
        <ele>94.4</ele>
        <time>2024-09-07T06:56:18Z</time>
      </trkpt>
      <trkpt lat="47.90757" lon="-3.85769">
        <ele>94.2</ele>
        <time>2024-09-07T06:56:19Z</time>
      </trkpt>
      <trkpt lat="47.90759" lon="-3.85781">
        <ele>93.8</ele>
        <time>2024-09-07T06:56:20Z</time>
      </trkpt>
      <trkpt lat="47.90761" lon="-3.85793">
        <ele>93.6</ele>
        <time>2024-09-07T06:56:21Z</time>
      </trkpt>
      <trkpt lat="47.90763" lon="-3.85806">
        <ele>93.4</ele>
        <time>2024-09-07T06:56:22Z</time>
      </trkpt>
      <trkpt lat="47.90765" lon="-3.85819">
        <ele>93</ele>
        <time>2024-09-07T06:56:23Z</time>
      </trkpt>
      <trkpt lat="47.90767" lon="-3.85832">
        <ele>92.6</ele>
        <time>2024-09-07T06:56:24Z</time>
      </trkpt>
      <trkpt lat="47.90769" lon="-3.85845">
        <ele>92.2</ele>
        <time>2024-09-07T06:56:25Z</time>
      </trkpt>
      <trkpt lat="47.90772" lon="-3.85858">
        <ele>91.8</ele>
        <time>2024-09-07T06:56:26Z</time>
      </trkpt>
      <trkpt lat="47.90774" lon="-3.85872">
        <ele>91.4</ele>
        <time>2024-09-07T06:56:27Z</time>
      </trkpt>
      <trkpt lat="47.90777" lon="-3.85886">
        <ele>91.4</ele>
        <time>2024-09-07T06:56:28Z</time>
      </trkpt>
      <trkpt lat="47.90781" lon="-3.859">
        <ele>90.8</ele>
        <time>2024-09-07T06:56:29Z</time>
      </trkpt>
      <trkpt lat="47.90784" lon="-3.85914">
        <ele>90.2</ele>
        <time>2024-09-07T06:56:30Z</time>
      </trkpt>
      <trkpt lat="47.90788" lon="-3.85927">
        <ele>89.8</ele>
        <time>2024-09-07T06:56:31Z</time>
      </trkpt>
      <trkpt lat="47.90792" lon="-3.85941">
        <ele>89.2</ele>
        <time>2024-09-07T06:56:32Z</time>
      </trkpt>
      <trkpt lat="47.90796" lon="-3.85955">
        <ele>88.6</ele>
        <time>2024-09-07T06:56:33Z</time>
      </trkpt>
      <trkpt lat="47.908" lon="-3.85968">
        <ele>87.8</ele>
        <time>2024-09-07T06:56:34Z</time>
      </trkpt>
      <trkpt lat="47.90805" lon="-3.85982">
        <ele>87.4</ele>
        <time>2024-09-07T06:56:35Z</time>
      </trkpt>
      <trkpt lat="47.90809" lon="-3.85996">
        <ele>86.8</ele>
        <time>2024-09-07T06:56:36Z</time>
      </trkpt>
      <trkpt lat="47.90814" lon="-3.8601">
        <ele>86.4</ele>
        <time>2024-09-07T06:56:37Z</time>
      </trkpt>
      <trkpt lat="47.90818" lon="-3.86024">
        <ele>85.8</ele>
        <time>2024-09-07T06:56:38Z</time>
      </trkpt>
      <trkpt lat="47.90823" lon="-3.86037">
        <ele>85.2</ele>
        <time>2024-09-07T06:56:39Z</time>
      </trkpt>
      <trkpt lat="47.90827" lon="-3.86051">
        <ele>84.8</ele>
        <time>2024-09-07T06:56:40Z</time>
      </trkpt>
      <trkpt lat="47.90832" lon="-3.86065">
        <ele>84.2</ele>
        <time>2024-09-07T06:56:41Z</time>
      </trkpt>
      <trkpt lat="47.90836" lon="-3.86079">
        <ele>83.8</ele>
        <time>2024-09-07T06:56:42Z</time>
      </trkpt>
      <trkpt lat="47.90841" lon="-3.86093">
        <ele>83.2</ele>
        <time>2024-09-07T06:56:43Z</time>
      </trkpt>
      <trkpt lat="47.90846" lon="-3.86107">
        <ele>82.8</ele>
        <time>2024-09-07T06:56:44Z</time>
      </trkpt>
      <trkpt lat="47.9085" lon="-3.86121">
        <ele>82.4</ele>
        <time>2024-09-07T06:56:45Z</time>
      </trkpt>
      <trkpt lat="47.90854" lon="-3.86134">
        <ele>81.8</ele>
        <time>2024-09-07T06:56:46Z</time>
      </trkpt>
      <trkpt lat="47.90859" lon="-3.86148">
        <ele>81.4</ele>
        <time>2024-09-07T06:56:47Z</time>
      </trkpt>
      <trkpt lat="47.90863" lon="-3.86162">
        <ele>81.4</ele>
        <time>2024-09-07T06:56:48Z</time>
      </trkpt>
      <trkpt lat="47.90867" lon="-3.86176">
        <ele>81</ele>
        <time>2024-09-07T06:56:49Z</time>
      </trkpt>
      <trkpt lat="47.90872" lon="-3.8619">
        <ele>80.6</ele>
        <time>2024-09-07T06:56:50Z</time>
      </trkpt>
      <trkpt lat="47.90876" lon="-3.86203">
        <ele>80.2</ele>
        <time>2024-09-07T06:56:51Z</time>
      </trkpt>
      <trkpt lat="47.9088" lon="-3.86216">
        <ele>79.6</ele>
        <time>2024-09-07T06:56:52Z</time>
      </trkpt>
      <trkpt lat="47.90884" lon="-3.8623">
        <ele>79.2</ele>
        <time>2024-09-07T06:56:53Z</time>
      </trkpt>
      <trkpt lat="47.90889" lon="-3.86243">
        <ele>79</ele>
        <time>2024-09-07T06:56:54Z</time>
      </trkpt>
      <trkpt lat="47.90893" lon="-3.86255">
        <ele>78.6</ele>
        <time>2024-09-07T06:56:55Z</time>
      </trkpt>
      <trkpt lat="47.90898" lon="-3.86268">
        <ele>78.2</ele>
        <time>2024-09-07T06:56:56Z</time>
      </trkpt>
      <trkpt lat="47.90903" lon="-3.86281">
        <ele>77.8</ele>
        <time>2024-09-07T06:56:57Z</time>
      </trkpt>
      <trkpt lat="47.90907" lon="-3.86294">
        <ele>77.6</ele>
        <time>2024-09-07T06:56:58Z</time>
      </trkpt>
      <trkpt lat="47.90912" lon="-3.86307">
        <ele>77.2</ele>
        <time>2024-09-07T06:56:59Z</time>
      </trkpt>
      <trkpt lat="47.90917" lon="-3.8632">
        <ele>76.8</ele>
        <time>2024-09-07T06:57:00Z</time>
      </trkpt>
      <trkpt lat="47.90922" lon="-3.86332">
        <ele>76.4</ele>
        <time>2024-09-07T06:57:01Z</time>
      </trkpt>
      <trkpt lat="47.90927" lon="-3.86345">
        <ele>76.2</ele>
        <time>2024-09-07T06:57:02Z</time>
      </trkpt>
      <trkpt lat="47.90932" lon="-3.86358">
        <ele>76</ele>
        <time>2024-09-07T06:57:03Z</time>
      </trkpt>
      <trkpt lat="47.90937" lon="-3.86371">
        <ele>75.6</ele>
        <time>2024-09-07T06:57:04Z</time>
      </trkpt>
      <trkpt lat="47.90942" lon="-3.86383">
        <ele>75.2</ele>
        <time>2024-09-07T06:57:05Z</time>
      </trkpt>
      <trkpt lat="47.90948" lon="-3.86396">
        <ele>75</ele>
        <time>2024-09-07T06:57:06Z</time>
      </trkpt>
      <trkpt lat="47.90953" lon="-3.86409">
        <ele>74.8</ele>
        <time>2024-09-07T06:57:07Z</time>
      </trkpt>
      <trkpt lat="47.90958" lon="-3.86421">
        <ele>74.8</ele>
        <time>2024-09-07T06:57:08Z</time>
      </trkpt>
      <trkpt lat="47.90962" lon="-3.86434">
        <ele>74.4</ele>
        <time>2024-09-07T06:57:09Z</time>
      </trkpt>
      <trkpt lat="47.90966" lon="-3.86447">
        <ele>73.8</ele>
        <time>2024-09-07T06:57:10Z</time>
      </trkpt>
      <trkpt lat="47.9097" lon="-3.8646">
        <ele>73.2</ele>
        <time>2024-09-07T06:57:11Z</time>
      </trkpt>
      <trkpt lat="47.90973" lon="-3.86472">
        <ele>72.8</ele>
        <time>2024-09-07T06:57:12Z</time>
      </trkpt>
      <trkpt lat="47.90976" lon="-3.86484">
        <ele>72.4</ele>
        <time>2024-09-07T06:57:13Z</time>
      </trkpt>
      <trkpt lat="47.90978" lon="-3.86496">
        <ele>72</ele>
        <time>2024-09-07T06:57:14Z</time>
      </trkpt>
      <trkpt lat="47.9098" lon="-3.86508">
        <ele>71.4</ele>
        <time>2024-09-07T06:57:15Z</time>
      </trkpt>
      <trkpt lat="47.90981" lon="-3.86519">
        <ele>71</ele>
        <time>2024-09-07T06:57:16Z</time>
      </trkpt>
      <trkpt lat="47.90982" lon="-3.8653">
        <ele>70.8</ele>
        <time>2024-09-07T06:57:17Z</time>
      </trkpt>
      <trkpt lat="47.90983" lon="-3.86541">
        <ele>70.6</ele>
        <time>2024-09-07T06:57:18Z</time>
      </trkpt>
      <trkpt lat="47.90984" lon="-3.86551">
        <ele>70.4</ele>
        <time>2024-09-07T06:57:19Z</time>
      </trkpt>
      <trkpt lat="47.90984" lon="-3.86562">
        <ele>70.2</ele>
        <time>2024-09-07T06:57:20Z</time>
      </trkpt>
      <trkpt lat="47.90984" lon="-3.86573">
        <ele>70</ele>
        <time>2024-09-07T06:57:21Z</time>
      </trkpt>
      <trkpt lat="47.90984" lon="-3.86583">
        <ele>70</ele>
        <time>2024-09-07T06:57:22Z</time>
      </trkpt>
      <trkpt lat="47.90984" lon="-3.86594">
        <ele>70</ele>
        <time>2024-09-07T06:57:23Z</time>
      </trkpt>
      <trkpt lat="47.90984" lon="-3.86605">
        <ele>69.8</ele>
        <time>2024-09-07T06:57:24Z</time>
      </trkpt>
      <trkpt lat="47.90985" lon="-3.86616">
        <ele>69.8</ele>
        <time>2024-09-07T06:57:25Z</time>
      </trkpt>
      <trkpt lat="47.90985" lon="-3.86627">
        <ele>69.8</ele>
        <time>2024-09-07T06:57:26Z</time>
      </trkpt>
      <trkpt lat="47.90985" lon="-3.86639">
        <ele>69.6</ele>
        <time>2024-09-07T06:57:27Z</time>
      </trkpt>
      <trkpt lat="47.90985" lon="-3.86651">
        <ele>69.6</ele>
        <time>2024-09-07T06:57:28Z</time>
      </trkpt>
      <trkpt lat="47.90985" lon="-3.86663">
        <ele>69.6</ele>
        <time>2024-09-07T06:57:29Z</time>
      </trkpt>
      <trkpt lat="47.90985" lon="-3.86676">
        <ele>69.6</ele>
        <time>2024-09-07T06:57:30Z</time>
      </trkpt>
      <trkpt lat="47.90986" lon="-3.86689">
        <ele>69.6</ele>
        <time>2024-09-07T06:57:31Z</time>
      </trkpt>
      <trkpt lat="47.90986" lon="-3.86703">
        <ele>69.6</ele>
        <time>2024-09-07T06:57:32Z</time>
      </trkpt>
      <trkpt lat="47.90987" lon="-3.86717">
        <ele>69.6</ele>
        <time>2024-09-07T06:57:33Z</time>
      </trkpt>
      <trkpt lat="47.90988" lon="-3.8673">
        <ele>69.6</ele>
        <time>2024-09-07T06:57:34Z</time>
      </trkpt>
      <trkpt lat="47.9099" lon="-3.86744">
        <ele>69.4</ele>
        <time>2024-09-07T06:57:35Z</time>
      </trkpt>
      <trkpt lat="47.90992" lon="-3.86758">
        <ele>69</ele>
        <time>2024-09-07T06:57:36Z</time>
      </trkpt>
      <trkpt lat="47.90996" lon="-3.86772">
        <ele>68.6</ele>
        <time>2024-09-07T06:57:37Z</time>
      </trkpt>
      <trkpt lat="47.90999" lon="-3.86785">
        <ele>68.4</ele>
        <time>2024-09-07T06:57:38Z</time>
      </trkpt>
      <trkpt lat="47.91004" lon="-3.86799">
        <ele>67.8</ele>
        <time>2024-09-07T06:57:39Z</time>
      </trkpt>
      <trkpt lat="47.91008" lon="-3.86812">
        <ele>67.4</ele>
        <time>2024-09-07T06:57:40Z</time>
      </trkpt>
      <trkpt lat="47.91013" lon="-3.86825">
        <ele>67</ele>
        <time>2024-09-07T06:57:41Z</time>
      </trkpt>
      <trkpt lat="47.91019" lon="-3.86839">
        <ele>66.2</ele>
        <time>2024-09-07T06:57:42Z</time>
      </trkpt>
      <trkpt lat="47.91025" lon="-3.86852">
        <ele>66</ele>
        <time>2024-09-07T06:57:43Z</time>
      </trkpt>
      <trkpt lat="47.91031" lon="-3.86866">
        <ele>65.4</ele>
        <time>2024-09-07T06:57:44Z</time>
      </trkpt>
      <trkpt lat="47.91037" lon="-3.86879">
        <ele>64.6</ele>
        <time>2024-09-07T06:57:45Z</time>
      </trkpt>
      <trkpt lat="47.91044" lon="-3.86893">
        <ele>64</ele>
        <time>2024-09-07T06:57:46Z</time>
      </trkpt>
      <trkpt lat="47.91051" lon="-3.86906">
        <ele>64</ele>
        <time>2024-09-07T06:57:47Z</time>
      </trkpt>
      <trkpt lat="47.91058" lon="-3.8692">
        <ele>63.2</ele>
        <time>2024-09-07T06:57:48Z</time>
      </trkpt>
      <trkpt lat="47.91065" lon="-3.86934">
        <ele>62.6</ele>
        <time>2024-09-07T06:57:49Z</time>
      </trkpt>
      <trkpt lat="47.91072" lon="-3.86949">
        <ele>62</ele>
        <time>2024-09-07T06:57:50Z</time>
      </trkpt>
      <trkpt lat="47.91079" lon="-3.86963">
        <ele>61.2</ele>
        <time>2024-09-07T06:57:51Z</time>
      </trkpt>
      <trkpt lat="47.91086" lon="-3.86978">
        <ele>60.6</ele>
        <time>2024-09-07T06:57:52Z</time>
      </trkpt>
      <trkpt lat="47.91093" lon="-3.86992">
        <ele>59.8</ele>
        <time>2024-09-07T06:57:53Z</time>
      </trkpt>
      <trkpt lat="47.911" lon="-3.87007">
        <ele>59</ele>
        <time>2024-09-07T06:57:54Z</time>
      </trkpt>
      <trkpt lat="47.91106" lon="-3.87021">
        <ele>58</ele>
        <time>2024-09-07T06:57:55Z</time>
      </trkpt>
      <trkpt lat="47.91113" lon="-3.87036">
        <ele>57.2</ele>
        <time>2024-09-07T06:57:56Z</time>
      </trkpt>
      <trkpt lat="47.9112" lon="-3.8705">
        <ele>56.4</ele>
        <time>2024-09-07T06:57:57Z</time>
      </trkpt>
      <trkpt lat="47.91127" lon="-3.87064">
        <ele>55.6</ele>
        <time>2024-09-07T06:57:58Z</time>
      </trkpt>
      <trkpt lat="47.91135" lon="-3.87078">
        <ele>54.8</ele>
        <time>2024-09-07T06:57:59Z</time>
      </trkpt>
      <trkpt lat="47.91141" lon="-3.87091">
        <ele>53.8</ele>
        <time>2024-09-07T06:58:00Z</time>
      </trkpt>
      <trkpt lat="47.91148" lon="-3.87105">
        <ele>53.2</ele>
        <time>2024-09-07T06:58:01Z</time>
      </trkpt>
      <trkpt lat="47.91154" lon="-3.87118">
        <ele>52.4</ele>
        <time>2024-09-07T06:58:02Z</time>
      </trkpt>
      <trkpt lat="47.9116" lon="-3.87131">
        <ele>51.8</ele>
        <time>2024-09-07T06:58:03Z</time>
      </trkpt>
      <trkpt lat="47.91166" lon="-3.87143">
        <ele>50.8</ele>
        <time>2024-09-07T06:58:04Z</time>
      </trkpt>
      <trkpt lat="47.91172" lon="-3.87155">
        <ele>50.2</ele>
        <time>2024-09-07T06:58:05Z</time>
      </trkpt>
      <trkpt lat="47.91178" lon="-3.87167">
        <ele>49.4</ele>
        <time>2024-09-07T06:58:06Z</time>
      </trkpt>
      <trkpt lat="47.91184" lon="-3.87179">
        <ele>49.4</ele>
        <time>2024-09-07T06:58:07Z</time>
      </trkpt>
      <trkpt lat="47.91189" lon="-3.8719">
        <ele>49</ele>
        <time>2024-09-07T06:58:08Z</time>
      </trkpt>
      <trkpt lat="47.91194" lon="-3.87201">
        <ele>48.8</ele>
        <time>2024-09-07T06:58:09Z</time>
      </trkpt>
      <trkpt lat="47.91199" lon="-3.87212">
        <ele>48.6</ele>
        <time>2024-09-07T06:58:10Z</time>
      </trkpt>
      <trkpt lat="47.91204" lon="-3.87222">
        <ele>48.4</ele>
        <time>2024-09-07T06:58:11Z</time>
      </trkpt>
      <trkpt lat="47.91209" lon="-3.87232">
        <ele>48.4</ele>
        <time>2024-09-07T06:58:12Z</time>
      </trkpt>
      <trkpt lat="47.91214" lon="-3.87242">
        <ele>48.4</ele>
        <time>2024-09-07T06:58:13Z</time>
      </trkpt>
      <trkpt lat="47.91218" lon="-3.87251">
        <ele>48.4</ele>
        <time>2024-09-07T06:58:14Z</time>
      </trkpt>
      <trkpt lat="47.91222" lon="-3.87261">
        <ele>48.4</ele>
        <time>2024-09-07T06:58:15Z</time>
      </trkpt>
      <trkpt lat="47.91227" lon="-3.87269">
        <ele>48.4</ele>
        <time>2024-09-07T06:58:16Z</time>
      </trkpt>
      <trkpt lat="47.91231" lon="-3.87278">
        <ele>48.4</ele>
        <time>2024-09-07T06:58:17Z</time>
      </trkpt>
      <trkpt lat="47.91235" lon="-3.87286">
        <ele>48.4</ele>
        <time>2024-09-07T06:58:18Z</time>
      </trkpt>
      <trkpt lat="47.91239" lon="-3.87294">
        <ele>48.4</ele>
        <time>2024-09-07T06:58:19Z</time>
      </trkpt>
      <trkpt lat="47.91242" lon="-3.87302">
        <ele>48.4</ele>
        <time>2024-09-07T06:58:20Z</time>
      </trkpt>
      <trkpt lat="47.91246" lon="-3.87309">
        <ele>48.4</ele>
        <time>2024-09-07T06:58:21Z</time>
      </trkpt>
      <trkpt lat="47.9125" lon="-3.87316">
        <ele>48.4</ele>
        <time>2024-09-07T06:58:22Z</time>
      </trkpt>
      <trkpt lat="47.91253" lon="-3.87323">
        <ele>48.8</ele>
        <time>2024-09-07T06:58:23Z</time>
      </trkpt>
      <trkpt lat="47.91256" lon="-3.87329">
        <ele>49</ele>
        <time>2024-09-07T06:58:24Z</time>
      </trkpt>
      <trkpt lat="47.91259" lon="-3.87336">
        <ele>49.6</ele>
        <time>2024-09-07T06:58:25Z</time>
      </trkpt>
      <trkpt lat="47.91262" lon="-3.87342">
        <ele>50</ele>
        <time>2024-09-07T06:58:26Z</time>
      </trkpt>
      <trkpt lat="47.91264" lon="-3.87348">
        <ele>50.4</ele>
        <time>2024-09-07T06:58:27Z</time>
      </trkpt>
      <trkpt lat="47.91267" lon="-3.87354">
        <ele>50.4</ele>
        <time>2024-09-07T06:58:28Z</time>
      </trkpt>
      <trkpt lat="47.91269" lon="-3.8736">
        <ele>50.8</ele>
        <time>2024-09-07T06:58:29Z</time>
      </trkpt>
      <trkpt lat="47.91272" lon="-3.87366">
        <ele>51.4</ele>
        <time>2024-09-07T06:58:30Z</time>
      </trkpt>
      <trkpt lat="47.91274" lon="-3.87371">
        <ele>51.8</ele>
        <time>2024-09-07T06:58:31Z</time>
      </trkpt>
      <trkpt lat="47.91276" lon="-3.87376">
        <ele>52.2</ele>
        <time>2024-09-07T06:58:32Z</time>
      </trkpt>
      <trkpt lat="47.91278" lon="-3.8738">
        <ele>52.6</ele>
        <time>2024-09-07T06:58:33Z</time>
      </trkpt>
      <trkpt lat="47.91281" lon="-3.87384">
        <ele>53</ele>
        <time>2024-09-07T06:58:34Z</time>
      </trkpt>
      <trkpt lat="47.91283" lon="-3.87388">
        <ele>53.6</ele>
        <time>2024-09-07T06:58:35Z</time>
      </trkpt>
      <trkpt lat="47.91286" lon="-3.87393">
        <ele>54</ele>
        <time>2024-09-07T06:58:36Z</time>
      </trkpt>
      <trkpt lat="47.91288" lon="-3.87397">
        <ele>54.4</ele>
        <time>2024-09-07T06:58:37Z</time>
      </trkpt>
      <trkpt lat="47.9129" lon="-3.87402">
        <ele>54.8</ele>
        <time>2024-09-07T06:58:38Z</time>
      </trkpt>
      <trkpt lat="47.91292" lon="-3.87406">
        <ele>55.4</ele>
        <time>2024-09-07T06:58:39Z</time>
      </trkpt>
      <trkpt lat="47.91294" lon="-3.8741">
        <ele>55.6</ele>
        <time>2024-09-07T06:58:40Z</time>
      </trkpt>
      <trkpt lat="47.91296" lon="-3.87415">
        <ele>56.2</ele>
        <time>2024-09-07T06:58:41Z</time>
      </trkpt>
      <trkpt lat="47.91298" lon="-3.87419">
        <ele>56.4</ele>
        <time>2024-09-07T06:58:42Z</time>
      </trkpt>
      <trkpt lat="47.913" lon="-3.87423">
        <ele>56.8</ele>
        <time>2024-09-07T06:58:43Z</time>
      </trkpt>
      <trkpt lat="47.91302" lon="-3.87427">
        <ele>57.2</ele>
        <time>2024-09-07T06:58:44Z</time>
      </trkpt>
      <trkpt lat="47.91304" lon="-3.87431">
        <ele>57.6</ele>
        <time>2024-09-07T06:58:45Z</time>
      </trkpt>
      <trkpt lat="47.91306" lon="-3.87435">
        <ele>58</ele>
        <time>2024-09-07T06:58:46Z</time>
      </trkpt>
      <trkpt lat="47.91308" lon="-3.87439">
        <ele>58.2</ele>
        <time>2024-09-07T06:58:47Z</time>
      </trkpt>
      <trkpt lat="47.9131" lon="-3.87443">
        <ele>58.4</ele>
        <time>2024-09-07T06:58:48Z</time>
      </trkpt>
      <trkpt lat="47.91312" lon="-3.87448">
        <ele>58.8</ele>
        <time>2024-09-07T06:58:49Z</time>
      </trkpt>
      <trkpt lat="47.91314" lon="-3.87452">
        <ele>58.8</ele>
        <time>2024-09-07T06:58:50Z</time>
      </trkpt>
      <trkpt lat="47.91316" lon="-3.87456">
        <ele>59</ele>
        <time>2024-09-07T06:58:51Z</time>
      </trkpt>
      <trkpt lat="47.91318" lon="-3.8746">
        <ele>59.4</ele>
        <time>2024-09-07T06:58:52Z</time>
      </trkpt>
      <trkpt lat="47.9132" lon="-3.87465">
        <ele>59.6</ele>
        <time>2024-09-07T06:58:53Z</time>
      </trkpt>
      <trkpt lat="47.91322" lon="-3.87469">
        <ele>60</ele>
        <time>2024-09-07T06:58:54Z</time>
      </trkpt>
      <trkpt lat="47.91324" lon="-3.87472">
        <ele>60</ele>
        <time>2024-09-07T06:58:55Z</time>
      </trkpt>
      <trkpt lat="47.91326" lon="-3.87477">
        <ele>60.2</ele>
        <time>2024-09-07T06:58:56Z</time>
      </trkpt>
      <trkpt lat="47.91328" lon="-3.87481">
        <ele>60.4</ele>
        <time>2024-09-07T06:58:57Z</time>
      </trkpt>
      <trkpt lat="47.9133" lon="-3.87485">
        <ele>60.6</ele>
        <time>2024-09-07T06:58:58Z</time>
      </trkpt>
      <trkpt lat="47.91332" lon="-3.87489">
        <ele>60.8</ele>
        <time>2024-09-07T06:58:59Z</time>
      </trkpt>
      <trkpt lat="47.91334" lon="-3.87493">
        <ele>61.2</ele>
        <time>2024-09-07T06:59:00Z</time>
      </trkpt>
      <trkpt lat="47.91336" lon="-3.87498">
        <ele>61.4</ele>
        <time>2024-09-07T06:59:01Z</time>
      </trkpt>
      <trkpt lat="47.91339" lon="-3.87502">
        <ele>61.6</ele>
        <time>2024-09-07T06:59:02Z</time>
      </trkpt>
      <trkpt lat="47.91341" lon="-3.87506">
        <ele>61.8</ele>
        <time>2024-09-07T06:59:03Z</time>
      </trkpt>
      <trkpt lat="47.91343" lon="-3.8751">
        <ele>62</ele>
        <time>2024-09-07T06:59:04Z</time>
      </trkpt>
      <trkpt lat="47.91345" lon="-3.87514">
        <ele>62.2</ele>
        <time>2024-09-07T06:59:05Z</time>
      </trkpt>
      <trkpt lat="47.91347" lon="-3.87518">
        <ele>62.4</ele>
        <time>2024-09-07T06:59:06Z</time>
      </trkpt>
      <trkpt lat="47.9135" lon="-3.87522">
        <ele>62.6</ele>
        <time>2024-09-07T06:59:07Z</time>
      </trkpt>
      <trkpt lat="47.91352" lon="-3.87525">
        <ele>62.8</ele>
        <time>2024-09-07T06:59:08Z</time>
      </trkpt>
      <trkpt lat="47.91354" lon="-3.87529">
        <ele>62.8</ele>
        <time>2024-09-07T06:59:09Z</time>
      </trkpt>
      <trkpt lat="47.91356" lon="-3.87532">
        <ele>63</ele>
        <time>2024-09-07T06:59:10Z</time>
      </trkpt>
      <trkpt lat="47.91358" lon="-3.87536">
        <ele>63</ele>
        <time>2024-09-07T06:59:11Z</time>
      </trkpt>
      <trkpt lat="47.91361" lon="-3.8754">
        <ele>63.2</ele>
        <time>2024-09-07T06:59:12Z</time>
      </trkpt>
      <trkpt lat="47.91363" lon="-3.87543">
        <ele>63.4</ele>
        <time>2024-09-07T06:59:13Z</time>
      </trkpt>
      <trkpt lat="47.91366" lon="-3.87547">
        <ele>63.6</ele>
        <time>2024-09-07T06:59:14Z</time>
      </trkpt>
      <trkpt lat="47.91369" lon="-3.8755">
        <ele>63.6</ele>
        <time>2024-09-07T06:59:15Z</time>
      </trkpt>
      <trkpt lat="47.91371" lon="-3.87554">
        <ele>63.6</ele>
        <time>2024-09-07T06:59:16Z</time>
      </trkpt>
      <trkpt lat="47.91374" lon="-3.87558">
        <ele>63.8</ele>
        <time>2024-09-07T06:59:17Z</time>
      </trkpt>
      <trkpt lat="47.91376" lon="-3.87561">
        <ele>64</ele>
        <time>2024-09-07T06:59:18Z</time>
      </trkpt>
      <trkpt lat="47.91379" lon="-3.87565">
        <ele>64</ele>
        <time>2024-09-07T06:59:19Z</time>
      </trkpt>
      <trkpt lat="47.91382" lon="-3.87569">
        <ele>64.2</ele>
        <time>2024-09-07T06:59:20Z</time>
      </trkpt>
      <trkpt lat="47.91384" lon="-3.87572">
        <ele>64.2</ele>
        <time>2024-09-07T06:59:21Z</time>
      </trkpt>
      <trkpt lat="47.91387" lon="-3.87576">
        <ele>64.2</ele>
        <time>2024-09-07T06:59:22Z</time>
      </trkpt>
      <trkpt lat="47.9139" lon="-3.87579">
        <ele>64.4</ele>
        <time>2024-09-07T06:59:23Z</time>
      </trkpt>
      <trkpt lat="47.91393" lon="-3.87583">
        <ele>64.4</ele>
        <time>2024-09-07T06:59:24Z</time>
      </trkpt>
      <trkpt lat="47.91395" lon="-3.87586">
        <ele>64.4</ele>
        <time>2024-09-07T06:59:25Z</time>
      </trkpt>
      <trkpt lat="47.91398" lon="-3.8759">
        <ele>64.6</ele>
        <time>2024-09-07T06:59:26Z</time>
      </trkpt>
      <trkpt lat="47.91401" lon="-3.87593">
        <ele>64.8</ele>
        <time>2024-09-07T06:59:27Z</time>
      </trkpt>
      <trkpt lat="47.91404" lon="-3.87596">
        <ele>64.8</ele>
        <time>2024-09-07T06:59:28Z</time>
      </trkpt>
      <trkpt lat="47.91407" lon="-3.876">
        <ele>64.8</ele>
        <time>2024-09-07T06:59:29Z</time>
      </trkpt>
      <trkpt lat="47.91409" lon="-3.87603">
        <ele>64.8</ele>
        <time>2024-09-07T06:59:30Z</time>
      </trkpt>
      <trkpt lat="47.91412" lon="-3.87606">
        <ele>65</ele>
        <time>2024-09-07T06:59:31Z</time>
      </trkpt>
      <trkpt lat="47.91415" lon="-3.8761">
        <ele>65.2</ele>
        <time>2024-09-07T06:59:32Z</time>
      </trkpt>
      <trkpt lat="47.91418" lon="-3.87613">
        <ele>65.2</ele>
        <time>2024-09-07T06:59:33Z</time>
      </trkpt>
      <trkpt lat="47.9142" lon="-3.87617">
        <ele>65.2</ele>
        <time>2024-09-07T06:59:34Z</time>
      </trkpt>
      <trkpt lat="47.91423" lon="-3.8762">
        <ele>65.4</ele>
        <time>2024-09-07T06:59:35Z</time>
      </trkpt>
      <trkpt lat="47.91426" lon="-3.87623">
        <ele>65.4</ele>
        <time>2024-09-07T06:59:36Z</time>
      </trkpt>
      <trkpt lat="47.91429" lon="-3.87627">
        <ele>65.4</ele>
        <time>2024-09-07T06:59:37Z</time>
      </trkpt>
      <trkpt lat="47.91431" lon="-3.8763">
        <ele>65.6</ele>
        <time>2024-09-07T06:59:38Z</time>
      </trkpt>
      <trkpt lat="47.91434" lon="-3.87633">
        <ele>65.8</ele>
        <time>2024-09-07T06:59:39Z</time>
      </trkpt>
      <trkpt lat="47.91436" lon="-3.87637">
        <ele>65.8</ele>
        <time>2024-09-07T06:59:40Z</time>
      </trkpt>
      <trkpt lat="47.91439" lon="-3.8764">
        <ele>66</ele>
        <time>2024-09-07T06:59:41Z</time>
      </trkpt>
      <trkpt lat="47.91442" lon="-3.87644">
        <ele>66</ele>
        <time>2024-09-07T06:59:42Z</time>
      </trkpt>
      <trkpt lat="47.91445" lon="-3.87647">
        <ele>66.2</ele>
        <time>2024-09-07T06:59:43Z</time>
      </trkpt>
      <trkpt lat="47.91447" lon="-3.8765">
        <ele>66.2</ele>
        <time>2024-09-07T06:59:44Z</time>
      </trkpt>
      <trkpt lat="47.9145" lon="-3.87653">
        <ele>66.4</ele>
        <time>2024-09-07T06:59:45Z</time>
      </trkpt>
      <trkpt lat="47.91452" lon="-3.87657">
        <ele>66.6</ele>
        <time>2024-09-07T06:59:46Z</time>
      </trkpt>
      <trkpt lat="47.91454" lon="-3.8766">
        <ele>66.6</ele>
        <time>2024-09-07T06:59:47Z</time>
      </trkpt>
      <trkpt lat="47.91457" lon="-3.87663">
        <ele>66.6</ele>
        <time>2024-09-07T06:59:48Z</time>
      </trkpt>
      <trkpt lat="47.91459" lon="-3.87667">
        <ele>66.8</ele>
        <time>2024-09-07T06:59:49Z</time>
      </trkpt>
      <trkpt lat="47.91461" lon="-3.8767">
        <ele>67</ele>
        <time>2024-09-07T06:59:50Z</time>
      </trkpt>
      <trkpt lat="47.91463" lon="-3.87674">
        <ele>67</ele>
        <time>2024-09-07T06:59:51Z</time>
      </trkpt>
      <trkpt lat="47.91465" lon="-3.87677">
        <ele>67.2</ele>
        <time>2024-09-07T06:59:52Z</time>
      </trkpt>
      <trkpt lat="47.91467" lon="-3.8768">
        <ele>67.2</ele>
        <time>2024-09-07T06:59:53Z</time>
      </trkpt>
      <trkpt lat="47.91469" lon="-3.87683">
        <ele>67.4</ele>
        <time>2024-09-07T06:59:54Z</time>
      </trkpt>
      <trkpt lat="47.91471" lon="-3.87687">
        <ele>67.6</ele>
        <time>2024-09-07T06:59:55Z</time>
      </trkpt>
      <trkpt lat="47.91473" lon="-3.8769">
        <ele>67.6</ele>
        <time>2024-09-07T06:59:56Z</time>
      </trkpt>
      <trkpt lat="47.91476" lon="-3.87693">
        <ele>67.8</ele>
        <time>2024-09-07T06:59:57Z</time>
      </trkpt>
      <trkpt lat="47.91478" lon="-3.87697">
        <ele>68.2</ele>
        <time>2024-09-07T06:59:58Z</time>
      </trkpt>
      <trkpt lat="47.91479" lon="-3.87701">
        <ele>68.4</ele>
        <time>2024-09-07T06:59:59Z</time>
      </trkpt>
      <trkpt lat="47.91481" lon="-3.87705">
        <ele>68.4</ele>
        <time>2024-09-07T07:00:00Z</time>
      </trkpt>
      <trkpt lat="47.91483" lon="-3.87708">
        <ele>68.6</ele>
        <time>2024-09-07T07:00:01Z</time>
      </trkpt>
      <trkpt lat="47.91486" lon="-3.87712">
        <ele>68.6</ele>
        <time>2024-09-07T07:00:02Z</time>
      </trkpt>
      <trkpt lat="47.91488" lon="-3.87716">
        <ele>68.6</ele>
        <time>2024-09-07T07:00:03Z</time>
      </trkpt>
      <trkpt lat="47.9149" lon="-3.87719">
        <ele>68.8</ele>
        <time>2024-09-07T07:00:04Z</time>
      </trkpt>
      <trkpt lat="47.91492" lon="-3.87723">
        <ele>68.8</ele>
        <time>2024-09-07T07:00:05Z</time>
      </trkpt>
      <trkpt lat="47.91494" lon="-3.87727">
        <ele>68.8</ele>
        <time>2024-09-07T07:00:06Z</time>
      </trkpt>
      <trkpt lat="47.91496" lon="-3.8773">
        <ele>69</ele>
        <time>2024-09-07T07:00:07Z</time>
      </trkpt>
      <trkpt lat="47.91498" lon="-3.87734">
        <ele>69</ele>
        <time>2024-09-07T07:00:08Z</time>
      </trkpt>
      <trkpt lat="47.91501" lon="-3.87738">
        <ele>69.2</ele>
        <time>2024-09-07T07:00:09Z</time>
      </trkpt>
      <trkpt lat="47.91503" lon="-3.87741">
        <ele>69.2</ele>
        <time>2024-09-07T07:00:10Z</time>
      </trkpt>
      <trkpt lat="47.91505" lon="-3.87745">
        <ele>69.2</ele>
        <time>2024-09-07T07:00:11Z</time>
      </trkpt>
      <trkpt lat="47.91506" lon="-3.87749">
        <ele>69.2</ele>
        <time>2024-09-07T07:00:12Z</time>
      </trkpt>
      <trkpt lat="47.91508" lon="-3.87753">
        <ele>69.4</ele>
        <time>2024-09-07T07:00:13Z</time>
      </trkpt>
      <trkpt lat="47.9151" lon="-3.87757">
        <ele>69.4</ele>
        <time>2024-09-07T07:00:14Z</time>
      </trkpt>
      <trkpt lat="47.91512" lon="-3.87761">
        <ele>69.4</ele>
        <time>2024-09-07T07:00:15Z</time>
      </trkpt>
      <trkpt lat="47.91514" lon="-3.87766">
        <ele>69.6</ele>
        <time>2024-09-07T07:00:16Z</time>
      </trkpt>
      <trkpt lat="47.91516" lon="-3.8777">
        <ele>69.6</ele>
        <time>2024-09-07T07:00:17Z</time>
      </trkpt>
      <trkpt lat="47.91518" lon="-3.87775">
        <ele>69.8</ele>
        <time>2024-09-07T07:00:18Z</time>
      </trkpt>
      <trkpt lat="47.9152" lon="-3.87779">
        <ele>69.8</ele>
        <time>2024-09-07T07:00:19Z</time>
      </trkpt>
      <trkpt lat="47.91521" lon="-3.87784">
        <ele>69.8</ele>
        <time>2024-09-07T07:00:20Z</time>
      </trkpt>
      <trkpt lat="47.91523" lon="-3.87789">
        <ele>70</ele>
        <time>2024-09-07T07:00:21Z</time>
      </trkpt>
      <trkpt lat="47.91525" lon="-3.87794">
        <ele>70</ele>
        <time>2024-09-07T07:00:22Z</time>
      </trkpt>
      <trkpt lat="47.91527" lon="-3.87798">
        <ele>70</ele>
        <time>2024-09-07T07:00:23Z</time>
      </trkpt>
      <trkpt lat="47.91529" lon="-3.87803">
        <ele>70</ele>
        <time>2024-09-07T07:00:24Z</time>
      </trkpt>
      <trkpt lat="47.91531" lon="-3.87808">
        <ele>70</ele>
        <time>2024-09-07T07:00:25Z</time>
      </trkpt>
      <trkpt lat="47.91533" lon="-3.87813">
        <ele>70</ele>
        <time>2024-09-07T07:00:26Z</time>
      </trkpt>
      <trkpt lat="47.91535" lon="-3.87818">
        <ele>70</ele>
        <time>2024-09-07T07:00:27Z</time>
      </trkpt>
      <trkpt lat="47.91536" lon="-3.87824">
        <ele>70</ele>
        <time>2024-09-07T07:00:28Z</time>
      </trkpt>
      <trkpt lat="47.91538" lon="-3.87829">
        <ele>70</ele>
        <time>2024-09-07T07:00:29Z</time>
      </trkpt>
      <trkpt lat="47.9154" lon="-3.87834">
        <ele>70</ele>
        <time>2024-09-07T07:00:30Z</time>
      </trkpt>
      <trkpt lat="47.91542" lon="-3.87839">
        <ele>70</ele>
        <time>2024-09-07T07:00:31Z</time>
      </trkpt>
      <trkpt lat="47.91544" lon="-3.87845">
        <ele>70</ele>
        <time>2024-09-07T07:00:32Z</time>
      </trkpt>
      <trkpt lat="47.91546" lon="-3.8785">
        <ele>70</ele>
        <time>2024-09-07T07:00:33Z</time>
      </trkpt>
      <trkpt lat="47.91548" lon="-3.87854">
        <ele>70</ele>
        <time>2024-09-07T07:00:34Z</time>
      </trkpt>
      <trkpt lat="47.9155" lon="-3.87858">
        <ele>70</ele>
        <time>2024-09-07T07:00:35Z</time>
      </trkpt>
      <trkpt lat="47.91552" lon="-3.87862">
        <ele>70</ele>
        <time>2024-09-07T07:00:36Z</time>
      </trkpt>
      <trkpt lat="47.91555" lon="-3.87865">
        <ele>70</ele>
        <time>2024-09-07T07:00:37Z</time>
      </trkpt>
      <trkpt lat="47.91557" lon="-3.87868">
        <ele>70</ele>
        <time>2024-09-07T07:00:38Z</time>
      </trkpt>
      <trkpt lat="47.91559" lon="-3.87871">
        <ele>69.8</ele>
        <time>2024-09-07T07:00:39Z</time>
      </trkpt>
      <trkpt lat="47.91561" lon="-3.87873">
        <ele>69.8</ele>
        <time>2024-09-07T07:00:40Z</time>
      </trkpt>
      <trkpt lat="47.91563" lon="-3.87874">
        <ele>69.8</ele>
        <time>2024-09-07T07:00:41Z</time>
      </trkpt>
      <trkpt lat="47.91565" lon="-3.87876">
        <ele>69.8</ele>
        <time>2024-09-07T07:00:42Z</time>
      </trkpt>
      <trkpt lat="47.91567" lon="-3.87877">
        <ele>69.6</ele>
        <time>2024-09-07T07:00:43Z</time>
      </trkpt>
      <trkpt lat="47.91569" lon="-3.87878">
        <ele>69.6</ele>
        <time>2024-09-07T07:00:44Z</time>
      </trkpt>
      <trkpt lat="47.91571" lon="-3.87879">
        <ele>69.6</ele>
        <time>2024-09-07T07:00:45Z</time>
      </trkpt>
      <trkpt lat="47.91573" lon="-3.87879">
        <ele>69.6</ele>
        <time>2024-09-07T07:00:46Z</time>
      </trkpt>
      <trkpt lat="47.91575" lon="-3.8788">
        <ele>69.4</ele>
        <time>2024-09-07T07:00:47Z</time>
      </trkpt>
      <trkpt lat="47.91577" lon="-3.8788">
        <ele>69.4</ele>
        <time>2024-09-07T07:00:48Z</time>
      </trkpt>
      <trkpt lat="47.91579" lon="-3.8788">
        <ele>69.4</ele>
        <time>2024-09-07T07:00:49Z</time>
      </trkpt>
      <trkpt lat="47.91581" lon="-3.87882">
        <ele>69.4</ele>
        <time>2024-09-07T07:00:50Z</time>
      </trkpt>
      <trkpt lat="47.91583" lon="-3.87883">
        <ele>69.4</ele>
        <time>2024-09-07T07:00:51Z</time>
      </trkpt>
      <trkpt lat="47.91585" lon="-3.87884">
        <ele>69.4</ele>
        <time>2024-09-07T07:00:52Z</time>
      </trkpt>
      <trkpt lat="47.91587" lon="-3.87885">
        <ele>69.4</ele>
        <time>2024-09-07T07:00:53Z</time>
      </trkpt>
      <trkpt lat="47.9159" lon="-3.87885">
        <ele>69.4</ele>
        <time>2024-09-07T07:00:54Z</time>
      </trkpt>
      <trkpt lat="47.91592" lon="-3.87886">
        <ele>69.4</ele>
        <time>2024-09-07T07:00:55Z</time>
      </trkpt>
      <trkpt lat="47.91595" lon="-3.87887">
        <ele>69.4</ele>
        <time>2024-09-07T07:00:56Z</time>
      </trkpt>
      <trkpt lat="47.91598" lon="-3.87886">
        <ele>69.4</ele>
        <time>2024-09-07T07:00:57Z</time>
      </trkpt>
      <trkpt lat="47.91601" lon="-3.87887">
        <ele>69.4</ele>
        <time>2024-09-07T07:00:58Z</time>
      </trkpt>
      <trkpt lat="47.91603" lon="-3.87888">
        <ele>69.4</ele>
        <time>2024-09-07T07:00:59Z</time>
      </trkpt>
      <trkpt lat="47.91605" lon="-3.8789">
        <ele>69.4</ele>
        <time>2024-09-07T07:01:00Z</time>
      </trkpt>
      <trkpt lat="47.91608" lon="-3.87891">
        <ele>69.4</ele>
        <time>2024-09-07T07:01:01Z</time>
      </trkpt>
      <trkpt lat="47.91611" lon="-3.87893">
        <ele>69.6</ele>
        <time>2024-09-07T07:01:02Z</time>
      </trkpt>
      <trkpt lat="47.91613" lon="-3.87894">
        <ele>69.6</ele>
        <time>2024-09-07T07:01:03Z</time>
      </trkpt>
      <trkpt lat="47.91616" lon="-3.87896">
        <ele>69.6</ele>
        <time>2024-09-07T07:01:04Z</time>
      </trkpt>
      <trkpt lat="47.91619" lon="-3.87898">
        <ele>69.6</ele>
        <time>2024-09-07T07:01:05Z</time>
      </trkpt>
      <trkpt lat="47.91622" lon="-3.87901">
        <ele>69.6</ele>
        <time>2024-09-07T07:01:06Z</time>
      </trkpt>
      <trkpt lat="47.91625" lon="-3.87902">
        <ele>69.6</ele>
        <time>2024-09-07T07:01:07Z</time>
      </trkpt>
      <trkpt lat="47.91628" lon="-3.87905">
        <ele>69.4</ele>
        <time>2024-09-07T07:01:08Z</time>
      </trkpt>
      <trkpt lat="47.91631" lon="-3.87907">
        <ele>69.4</ele>
        <time>2024-09-07T07:01:09Z</time>
      </trkpt>
      <trkpt lat="47.91634" lon="-3.87908">
        <ele>69.6</ele>
        <time>2024-09-07T07:01:10Z</time>
      </trkpt>
      <trkpt lat="47.91637" lon="-3.8791">
        <ele>69.6</ele>
        <time>2024-09-07T07:01:11Z</time>
      </trkpt>
      <trkpt lat="47.9164" lon="-3.87912">
        <ele>69.4</ele>
        <time>2024-09-07T07:01:12Z</time>
      </trkpt>
      <trkpt lat="47.91643" lon="-3.87915">
        <ele>69.4</ele>
        <time>2024-09-07T07:01:13Z</time>
      </trkpt>
      <trkpt lat="47.91646" lon="-3.87918">
        <ele>69.8</ele>
        <time>2024-09-07T07:01:14Z</time>
      </trkpt>
      <trkpt lat="47.91648" lon="-3.87921">
        <ele>69.6</ele>
        <time>2024-09-07T07:01:15Z</time>
      </trkpt>
      <trkpt lat="47.91652" lon="-3.87923">
        <ele>69.6</ele>
        <time>2024-09-07T07:01:16Z</time>
      </trkpt>
      <trkpt lat="47.91655" lon="-3.87925">
        <ele>69.6</ele>
        <time>2024-09-07T07:01:17Z</time>
      </trkpt>
      <trkpt lat="47.91658" lon="-3.87927">
        <ele>69.6</ele>
        <time>2024-09-07T07:01:18Z</time>
      </trkpt>
      <trkpt lat="47.91661" lon="-3.87929">
        <ele>69.6</ele>
        <time>2024-09-07T07:01:19Z</time>
      </trkpt>
      <trkpt lat="47.91665" lon="-3.8793">
        <ele>69.8</ele>
        <time>2024-09-07T07:01:20Z</time>
      </trkpt>
      <trkpt lat="47.91668" lon="-3.87933">
        <ele>69.8</ele>
        <time>2024-09-07T07:01:21Z</time>
      </trkpt>
      <trkpt lat="47.91671" lon="-3.87934">
        <ele>69.8</ele>
        <time>2024-09-07T07:01:22Z</time>
      </trkpt>
      <trkpt lat="47.91675" lon="-3.87935">
        <ele>70</ele>
        <time>2024-09-07T07:01:23Z</time>
      </trkpt>
      <trkpt lat="47.91678" lon="-3.87937">
        <ele>70</ele>
        <time>2024-09-07T07:01:24Z</time>
      </trkpt>
      <trkpt lat="47.91681" lon="-3.87938">
        <ele>70</ele>
        <time>2024-09-07T07:01:25Z</time>
      </trkpt>
      <trkpt lat="47.91685" lon="-3.8794">
        <ele>70.2</ele>
        <time>2024-09-07T07:01:26Z</time>
      </trkpt>
      <trkpt lat="47.91688" lon="-3.87941">
        <ele>70.4</ele>
        <time>2024-09-07T07:01:27Z</time>
      </trkpt>
      <trkpt lat="47.91691" lon="-3.87941">
        <ele>70.4</ele>
        <time>2024-09-07T07:01:28Z</time>
      </trkpt>
      <trkpt lat="47.91694" lon="-3.87942">
        <ele>70.6</ele>
        <time>2024-09-07T07:01:29Z</time>
      </trkpt>
      <trkpt lat="47.91698" lon="-3.87941">
        <ele>70.6</ele>
        <time>2024-09-07T07:01:30Z</time>
      </trkpt>
      <trkpt lat="47.91701" lon="-3.8794">
        <ele>70.8</ele>
        <time>2024-09-07T07:01:31Z</time>
      </trkpt>
      <trkpt lat="47.91703" lon="-3.87938">
        <ele>70.8</ele>
        <time>2024-09-07T07:01:32Z</time>
      </trkpt>
      <trkpt lat="47.91706" lon="-3.87936">
        <ele>70.8</ele>
        <time>2024-09-07T07:01:33Z</time>
      </trkpt>
      <trkpt lat="47.91709" lon="-3.87935">
        <ele>71</ele>
        <time>2024-09-07T07:01:34Z</time>
      </trkpt>
      <trkpt lat="47.91711" lon="-3.87933">
        <ele>71.2</ele>
        <time>2024-09-07T07:01:35Z</time>
      </trkpt>
      <trkpt lat="47.91713" lon="-3.87932">
        <ele>71.2</ele>
        <time>2024-09-07T07:01:36Z</time>
      </trkpt>
      <trkpt lat="47.91715" lon="-3.8793">
        <ele>71.2</ele>
        <time>2024-09-07T07:01:37Z</time>
      </trkpt>
      <trkpt lat="47.91717" lon="-3.87928">
        <ele>71.4</ele>
        <time>2024-09-07T07:01:38Z</time>
      </trkpt>
      <trkpt lat="47.91719" lon="-3.87927">
        <ele>71.6</ele>
        <time>2024-09-07T07:01:39Z</time>
      </trkpt>
      <trkpt lat="47.91721" lon="-3.87926">
        <ele>71.8</ele>
        <time>2024-09-07T07:01:40Z</time>
      </trkpt>
      <trkpt lat="47.91724" lon="-3.87924">
        <ele>72</ele>
        <time>2024-09-07T07:01:41Z</time>
      </trkpt>
      <trkpt lat="47.91726" lon="-3.87923">
        <ele>72.2</ele>
        <time>2024-09-07T07:01:42Z</time>
      </trkpt>
      <trkpt lat="47.91729" lon="-3.87922">
        <ele>72.6</ele>
        <time>2024-09-07T07:01:43Z</time>
      </trkpt>
      <trkpt lat="47.91731" lon="-3.87922">
        <ele>72.8</ele>
        <time>2024-09-07T07:01:44Z</time>
      </trkpt>
      <trkpt lat="47.91733" lon="-3.87921">
        <ele>73.2</ele>
        <time>2024-09-07T07:01:45Z</time>
      </trkpt>
      <trkpt lat="47.91736" lon="-3.8792">
        <ele>73.4</ele>
        <time>2024-09-07T07:01:46Z</time>
      </trkpt>
      <trkpt lat="47.91739" lon="-3.87918">
        <ele>73.8</ele>
        <time>2024-09-07T07:01:47Z</time>
      </trkpt>
      <trkpt lat="47.91741" lon="-3.87917">
        <ele>74.2</ele>
        <time>2024-09-07T07:01:48Z</time>
      </trkpt>
      <trkpt lat="47.91743" lon="-3.87916">
        <ele>74.4</ele>
        <time>2024-09-07T07:01:49Z</time>
      </trkpt>
      <trkpt lat="47.91745" lon="-3.87915">
        <ele>74.8</ele>
        <time>2024-09-07T07:01:50Z</time>
      </trkpt>
      <trkpt lat="47.91748" lon="-3.87914">
        <ele>75</ele>
        <time>2024-09-07T07:01:51Z</time>
      </trkpt>
      <trkpt lat="47.91751" lon="-3.87913">
        <ele>75.2</ele>
        <time>2024-09-07T07:01:52Z</time>
      </trkpt>
      <trkpt lat="47.91753" lon="-3.87912">
        <ele>75.2</ele>
        <time>2024-09-07T07:01:53Z</time>
      </trkpt>
      <trkpt lat="47.91756" lon="-3.8791">
        <ele>75.6</ele>
        <time>2024-09-07T07:01:54Z</time>
      </trkpt>
      <trkpt lat="47.91758" lon="-3.87908">
        <ele>75.8</ele>
        <time>2024-09-07T07:01:55Z</time>
      </trkpt>
      <trkpt lat="47.91761" lon="-3.87906">
        <ele>76</ele>
        <time>2024-09-07T07:01:56Z</time>
      </trkpt>
      <trkpt lat="47.91763" lon="-3.87904">
        <ele>76.2</ele>
        <time>2024-09-07T07:01:57Z</time>
      </trkpt>
      <trkpt lat="47.91766" lon="-3.87902">
        <ele>76.4</ele>
        <time>2024-09-07T07:01:58Z</time>
      </trkpt>
      <trkpt lat="47.91769" lon="-3.879">
        <ele>76.6</ele>
        <time>2024-09-07T07:01:59Z</time>
      </trkpt>
      <trkpt lat="47.91772" lon="-3.87898">
        <ele>76.8</ele>
        <time>2024-09-07T07:02:00Z</time>
      </trkpt>
      <trkpt lat="47.91774" lon="-3.87896">
        <ele>77</ele>
        <time>2024-09-07T07:02:01Z</time>
      </trkpt>
      <trkpt lat="47.91777" lon="-3.87894">
        <ele>77.2</ele>
        <time>2024-09-07T07:02:02Z</time>
      </trkpt>
      <trkpt lat="47.9178" lon="-3.87892">
        <ele>77.4</ele>
        <time>2024-09-07T07:02:03Z</time>
      </trkpt>
      <trkpt lat="47.91782" lon="-3.8789">
        <ele>77.6</ele>
        <time>2024-09-07T07:02:04Z</time>
      </trkpt>
      <trkpt lat="47.91784" lon="-3.87887">
        <ele>77.8</ele>
        <time>2024-09-07T07:02:05Z</time>
      </trkpt>
      <trkpt lat="47.91787" lon="-3.87885">
        <ele>77.8</ele>
        <time>2024-09-07T07:02:06Z</time>
      </trkpt>
      <trkpt lat="47.91789" lon="-3.87882">
        <ele>78</ele>
        <time>2024-09-07T07:02:07Z</time>
      </trkpt>
      <trkpt lat="47.91791" lon="-3.87878">
        <ele>78.2</ele>
        <time>2024-09-07T07:02:08Z</time>
      </trkpt>
      <trkpt lat="47.91793" lon="-3.87875">
        <ele>78.2</ele>
        <time>2024-09-07T07:02:09Z</time>
      </trkpt>
      <trkpt lat="47.91796" lon="-3.87872">
        <ele>78.4</ele>
        <time>2024-09-07T07:02:10Z</time>
      </trkpt>
      <trkpt lat="47.91798" lon="-3.87868">
        <ele>78.6</ele>
        <time>2024-09-07T07:02:11Z</time>
      </trkpt>
      <trkpt lat="47.918" lon="-3.87865">
        <ele>78.6</ele>
        <time>2024-09-07T07:02:12Z</time>
      </trkpt>
      <trkpt lat="47.91802" lon="-3.87861">
        <ele>78.6</ele>
        <time>2024-09-07T07:02:13Z</time>
      </trkpt>
      <trkpt lat="47.91804" lon="-3.87857">
        <ele>78.8</ele>
        <time>2024-09-07T07:02:14Z</time>
      </trkpt>
      <trkpt lat="47.91806" lon="-3.87854">
        <ele>78.8</ele>
        <time>2024-09-07T07:02:15Z</time>
      </trkpt>
      <trkpt lat="47.91808" lon="-3.8785">
        <ele>79</ele>
        <time>2024-09-07T07:02:16Z</time>
      </trkpt>
      <trkpt lat="47.9181" lon="-3.87847">
        <ele>79.2</ele>
        <time>2024-09-07T07:02:17Z</time>
      </trkpt>
      <trkpt lat="47.91812" lon="-3.87843">
        <ele>79.2</ele>
        <time>2024-09-07T07:02:18Z</time>
      </trkpt>
      <trkpt lat="47.91814" lon="-3.8784">
        <ele>79.2</ele>
        <time>2024-09-07T07:02:19Z</time>
      </trkpt>
      <trkpt lat="47.91815" lon="-3.87837">
        <ele>79.4</ele>
        <time>2024-09-07T07:02:20Z</time>
      </trkpt>
      <trkpt lat="47.91817" lon="-3.87833">
        <ele>79.4</ele>
        <time>2024-09-07T07:02:21Z</time>
      </trkpt>
      <trkpt lat="47.91819" lon="-3.8783">
        <ele>79.6</ele>
        <time>2024-09-07T07:02:22Z</time>
      </trkpt>
      <trkpt lat="47.9182" lon="-3.87826">
        <ele>79.6</ele>
        <time>2024-09-07T07:02:23Z</time>
      </trkpt>
      <trkpt lat="47.91822" lon="-3.87823">
        <ele>79.6</ele>
        <time>2024-09-07T07:02:24Z</time>
      </trkpt>
      <trkpt lat="47.91824" lon="-3.8782">
        <ele>79.8</ele>
        <time>2024-09-07T07:02:25Z</time>
      </trkpt>
      <trkpt lat="47.91826" lon="-3.87817">
        <ele>79.8</ele>
        <time>2024-09-07T07:02:26Z</time>
      </trkpt>
      <trkpt lat="47.91828" lon="-3.87813">
        <ele>80</ele>
        <time>2024-09-07T07:02:27Z</time>
      </trkpt>
      <trkpt lat="47.91829" lon="-3.8781">
        <ele>80</ele>
        <time>2024-09-07T07:02:28Z</time>
      </trkpt>
      <trkpt lat="47.91831" lon="-3.87806">
        <ele>80</ele>
        <time>2024-09-07T07:02:29Z</time>
      </trkpt>
      <trkpt lat="47.91833" lon="-3.87803">
        <ele>80.2</ele>
        <time>2024-09-07T07:02:30Z</time>
      </trkpt>
      <trkpt lat="47.91835" lon="-3.87799">
        <ele>80.2</ele>
        <time>2024-09-07T07:02:31Z</time>
      </trkpt>
      <trkpt lat="47.91838" lon="-3.87795">
        <ele>80.2</ele>
        <time>2024-09-07T07:02:32Z</time>
      </trkpt>
      <trkpt lat="47.9184" lon="-3.87791">
        <ele>80.2</ele>
        <time>2024-09-07T07:02:33Z</time>
      </trkpt>
      <trkpt lat="47.91842" lon="-3.87787">
        <ele>80.2</ele>
        <time>2024-09-07T07:02:34Z</time>
      </trkpt>
      <trkpt lat="47.91844" lon="-3.87783">
        <ele>80.2</ele>
        <time>2024-09-07T07:02:35Z</time>
      </trkpt>
      <trkpt lat="47.91846" lon="-3.87778">
        <ele>80.2</ele>
        <time>2024-09-07T07:02:36Z</time>
      </trkpt>
      <trkpt lat="47.91848" lon="-3.87773">
        <ele>80.2</ele>
        <time>2024-09-07T07:02:37Z</time>
      </trkpt>
      <trkpt lat="47.91851" lon="-3.87768">
        <ele>80.4</ele>
        <time>2024-09-07T07:02:38Z</time>
      </trkpt>
      <trkpt lat="47.91853" lon="-3.87763">
        <ele>80.4</ele>
        <time>2024-09-07T07:02:39Z</time>
      </trkpt>
      <trkpt lat="47.91856" lon="-3.87758">
        <ele>80.4</ele>
        <time>2024-09-07T07:02:40Z</time>
      </trkpt>
      <trkpt lat="47.91859" lon="-3.87753">
        <ele>80.4</ele>
        <time>2024-09-07T07:02:41Z</time>
      </trkpt>
      <trkpt lat="47.91861" lon="-3.87748">
        <ele>80.4</ele>
        <time>2024-09-07T07:02:42Z</time>
      </trkpt>
      <trkpt lat="47.91863" lon="-3.87743">
        <ele>80.4</ele>
        <time>2024-09-07T07:02:43Z</time>
      </trkpt>
      <trkpt lat="47.91865" lon="-3.87738">
        <ele>80.4</ele>
        <time>2024-09-07T07:02:44Z</time>
      </trkpt>
      <trkpt lat="47.91867" lon="-3.87732">
        <ele>80.4</ele>
        <time>2024-09-07T07:02:45Z</time>
      </trkpt>
      <trkpt lat="47.91869" lon="-3.87726">
        <ele>80.4</ele>
        <time>2024-09-07T07:02:46Z</time>
      </trkpt>
      <trkpt lat="47.91871" lon="-3.8772">
        <ele>80.4</ele>
        <time>2024-09-07T07:02:47Z</time>
      </trkpt>
      <trkpt lat="47.91873" lon="-3.87714">
        <ele>80.4</ele>
        <time>2024-09-07T07:02:48Z</time>
      </trkpt>
      <trkpt lat="47.91874" lon="-3.87708">
        <ele>80.4</ele>
        <time>2024-09-07T07:02:49Z</time>
      </trkpt>
      <trkpt lat="47.91875" lon="-3.87702">
        <ele>80.4</ele>
        <time>2024-09-07T07:02:50Z</time>
      </trkpt>
      <trkpt lat="47.91876" lon="-3.87697">
        <ele>80.4</ele>
        <time>2024-09-07T07:02:51Z</time>
      </trkpt>
      <trkpt lat="47.91877" lon="-3.87691">
        <ele>80.4</ele>
        <time>2024-09-07T07:02:52Z</time>
      </trkpt>
      <trkpt lat="47.91879" lon="-3.87684">
        <ele>80.4</ele>
        <time>2024-09-07T07:02:53Z</time>
      </trkpt>
      <trkpt lat="47.9188" lon="-3.87677">
        <ele>80.4</ele>
        <time>2024-09-07T07:02:54Z</time>
      </trkpt>
      <trkpt lat="47.9188" lon="-3.87669">
        <ele>80.4</ele>
        <time>2024-09-07T07:02:55Z</time>
      </trkpt>
      <trkpt lat="47.91881" lon="-3.87662">
        <ele>80.2</ele>
        <time>2024-09-07T07:02:56Z</time>
      </trkpt>
      <trkpt lat="47.91883" lon="-3.87654">
        <ele>80.2</ele>
        <time>2024-09-07T07:02:57Z</time>
      </trkpt>
      <trkpt lat="47.91885" lon="-3.87646">
        <ele>80.2</ele>
        <time>2024-09-07T07:02:58Z</time>
      </trkpt>
      <trkpt lat="47.91886" lon="-3.87638">
        <ele>80.2</ele>
        <time>2024-09-07T07:02:59Z</time>
      </trkpt>
      <trkpt lat="47.91887" lon="-3.87631">
        <ele>80</ele>
        <time>2024-09-07T07:03:00Z</time>
      </trkpt>
      <trkpt lat="47.91889" lon="-3.87623">
        <ele>80</ele>
        <time>2024-09-07T07:03:01Z</time>
      </trkpt>
      <trkpt lat="47.91891" lon="-3.87616">
        <ele>80</ele>
        <time>2024-09-07T07:03:02Z</time>
      </trkpt>
      <trkpt lat="47.91893" lon="-3.87608">
        <ele>79.8</ele>
        <time>2024-09-07T07:03:03Z</time>
      </trkpt>
      <trkpt lat="47.91895" lon="-3.876">
        <ele>79.8</ele>
        <time>2024-09-07T07:03:04Z</time>
      </trkpt>
      <trkpt lat="47.91897" lon="-3.87593">
        <ele>79.6</ele>
        <time>2024-09-07T07:03:05Z</time>
      </trkpt>
      <trkpt lat="47.91899" lon="-3.87585">
        <ele>79.6</ele>
        <time>2024-09-07T07:03:06Z</time>
      </trkpt>
      <trkpt lat="47.91902" lon="-3.87577">
        <ele>79.4</ele>
        <time>2024-09-07T07:03:07Z</time>
      </trkpt>
      <trkpt lat="47.91905" lon="-3.8757">
        <ele>79.2</ele>
        <time>2024-09-07T07:03:08Z</time>
      </trkpt>
      <trkpt lat="47.9191" lon="-3.87564">
        <ele>79</ele>
        <time>2024-09-07T07:03:09Z</time>
      </trkpt>
      <trkpt lat="47.91915" lon="-3.87559">
        <ele>79</ele>
        <time>2024-09-07T07:03:10Z</time>
      </trkpt>
      <trkpt lat="47.91921" lon="-3.87556">
        <ele>78.8</ele>
        <time>2024-09-07T07:03:11Z</time>
      </trkpt>
      <trkpt lat="47.91926" lon="-3.87555">
        <ele>78.6</ele>
        <time>2024-09-07T07:03:12Z</time>
      </trkpt>
      <trkpt lat="47.91932" lon="-3.87555">
        <ele>78.6</ele>
        <time>2024-09-07T07:03:13Z</time>
      </trkpt>
      <trkpt lat="47.91937" lon="-3.87555">
        <ele>78.6</ele>
        <time>2024-09-07T07:03:14Z</time>
      </trkpt>
      <trkpt lat="47.91941" lon="-3.87555">
        <ele>78.4</ele>
        <time>2024-09-07T07:03:15Z</time>
      </trkpt>
      <trkpt lat="47.91946" lon="-3.87556">
        <ele>78.4</ele>
        <time>2024-09-07T07:03:16Z</time>
      </trkpt>
      <trkpt lat="47.91951" lon="-3.87556">
        <ele>78.2</ele>
        <time>2024-09-07T07:03:17Z</time>
      </trkpt>
      <trkpt lat="47.91955" lon="-3.87557">
        <ele>78.2</ele>
        <time>2024-09-07T07:03:18Z</time>
      </trkpt>
      <trkpt lat="47.91959" lon="-3.87559">
        <ele>78</ele>
        <time>2024-09-07T07:03:19Z</time>
      </trkpt>
      <trkpt lat="47.91963" lon="-3.8756">
        <ele>78</ele>
        <time>2024-09-07T07:03:20Z</time>
      </trkpt>
      <trkpt lat="47.91967" lon="-3.8756">
        <ele>78</ele>
        <time>2024-09-07T07:03:21Z</time>
      </trkpt>
      <trkpt lat="47.91972" lon="-3.87561">
        <ele>78</ele>
        <time>2024-09-07T07:03:22Z</time>
      </trkpt>
      <trkpt lat="47.91976" lon="-3.87561">
        <ele>78</ele>
        <time>2024-09-07T07:03:23Z</time>
      </trkpt>
      <trkpt lat="47.9198" lon="-3.87562">
        <ele>78</ele>
        <time>2024-09-07T07:03:24Z</time>
      </trkpt>
      <trkpt lat="47.91984" lon="-3.87562">
        <ele>78</ele>
        <time>2024-09-07T07:03:25Z</time>
      </trkpt>
      <trkpt lat="47.91989" lon="-3.87562">
        <ele>78</ele>
        <time>2024-09-07T07:03:26Z</time>
      </trkpt>
      <trkpt lat="47.91994" lon="-3.87563">
        <ele>78</ele>
        <time>2024-09-07T07:03:27Z</time>
      </trkpt>
      <trkpt lat="47.91998" lon="-3.87563">
        <ele>78</ele>
        <time>2024-09-07T07:03:28Z</time>
      </trkpt>
      <trkpt lat="47.92003" lon="-3.87564">
        <ele>78</ele>
        <time>2024-09-07T07:03:29Z</time>
      </trkpt>
      <trkpt lat="47.92008" lon="-3.87564">
        <ele>78.2</ele>
        <time>2024-09-07T07:03:30Z</time>
      </trkpt>
      <trkpt lat="47.92012" lon="-3.87565">
        <ele>78.2</ele>
        <time>2024-09-07T07:03:31Z</time>
      </trkpt>
      <trkpt lat="47.92016" lon="-3.87565">
        <ele>78.2</ele>
        <time>2024-09-07T07:03:32Z</time>
      </trkpt>
      <trkpt lat="47.92021" lon="-3.87565">
        <ele>78.2</ele>
        <time>2024-09-07T07:03:33Z</time>
      </trkpt>
      <trkpt lat="47.92026" lon="-3.87565">
        <ele>78.2</ele>
        <time>2024-09-07T07:03:34Z</time>
      </trkpt>
      <trkpt lat="47.9203" lon="-3.87566">
        <ele>78.2</ele>
        <time>2024-09-07T07:03:35Z</time>
      </trkpt>
      <trkpt lat="47.92034" lon="-3.87565">
        <ele>78.4</ele>
        <time>2024-09-07T07:03:36Z</time>
      </trkpt>
      <trkpt lat="47.92039" lon="-3.87566">
        <ele>78.4</ele>
        <time>2024-09-07T07:03:37Z</time>
      </trkpt>
      <trkpt lat="47.92044" lon="-3.87567">
        <ele>78.4</ele>
        <time>2024-09-07T07:03:38Z</time>
      </trkpt>
      <trkpt lat="47.92049" lon="-3.87567">
        <ele>78.6</ele>
        <time>2024-09-07T07:03:39Z</time>
      </trkpt>
      <trkpt lat="47.92053" lon="-3.87568">
        <ele>78.6</ele>
        <time>2024-09-07T07:03:40Z</time>
      </trkpt>
      <trkpt lat="47.92057" lon="-3.87569">
        <ele>78.8</ele>
        <time>2024-09-07T07:03:41Z</time>
      </trkpt>
      <trkpt lat="47.92062" lon="-3.87569">
        <ele>78.8</ele>
        <time>2024-09-07T07:03:42Z</time>
      </trkpt>
      <trkpt lat="47.92066" lon="-3.87569">
        <ele>78.8</ele>
        <time>2024-09-07T07:03:43Z</time>
      </trkpt>
      <trkpt lat="47.9207" lon="-3.87569">
        <ele>79</ele>
        <time>2024-09-07T07:03:44Z</time>
      </trkpt>
      <trkpt lat="47.92074" lon="-3.87569">
        <ele>79</ele>
        <time>2024-09-07T07:03:45Z</time>
      </trkpt>
      <trkpt lat="47.92079" lon="-3.8757">
        <ele>79.2</ele>
        <time>2024-09-07T07:03:46Z</time>
      </trkpt>
      <trkpt lat="47.92083" lon="-3.87571">
        <ele>79.4</ele>
        <time>2024-09-07T07:03:47Z</time>
      </trkpt>
      <trkpt lat="47.92087" lon="-3.87572">
        <ele>79.4</ele>
        <time>2024-09-07T07:03:48Z</time>
      </trkpt>
      <trkpt lat="47.92092" lon="-3.87572">
        <ele>79.6</ele>
        <time>2024-09-07T07:03:49Z</time>
      </trkpt>
      <trkpt lat="47.92096" lon="-3.87572">
        <ele>79.8</ele>
        <time>2024-09-07T07:03:50Z</time>
      </trkpt>
      <trkpt lat="47.921" lon="-3.87571">
        <ele>80</ele>
        <time>2024-09-07T07:03:51Z</time>
      </trkpt>
      <trkpt lat="47.92104" lon="-3.87571">
        <ele>80</ele>
        <time>2024-09-07T07:03:52Z</time>
      </trkpt>
      <trkpt lat="47.92107" lon="-3.87571">
        <ele>80.4</ele>
        <time>2024-09-07T07:03:53Z</time>
      </trkpt>
      <trkpt lat="47.9211" lon="-3.87573">
        <ele>80.6</ele>
        <time>2024-09-07T07:03:54Z</time>
      </trkpt>
      <trkpt lat="47.92114" lon="-3.87573">
        <ele>80.6</ele>
        <time>2024-09-07T07:03:55Z</time>
      </trkpt>
      <trkpt lat="47.92118" lon="-3.87571">
        <ele>80.6</ele>
        <time>2024-09-07T07:03:56Z</time>
      </trkpt>
      <trkpt lat="47.92123" lon="-3.8757">
        <ele>81</ele>
        <time>2024-09-07T07:03:57Z</time>
      </trkpt>
      <trkpt lat="47.92128" lon="-3.87569">
        <ele>81.2</ele>
        <time>2024-09-07T07:03:58Z</time>
      </trkpt>
      <trkpt lat="47.92132" lon="-3.87569">
        <ele>81.2</ele>
        <time>2024-09-07T07:03:59Z</time>
      </trkpt>
      <trkpt lat="47.92136" lon="-3.8757">
        <ele>81.4</ele>
        <time>2024-09-07T07:04:00Z</time>
      </trkpt>
      <trkpt lat="47.9214" lon="-3.8757">
        <ele>81.4</ele>
        <time>2024-09-07T07:04:01Z</time>
      </trkpt>
      <trkpt lat="47.92144" lon="-3.87569">
        <ele>81.8</ele>
        <time>2024-09-07T07:04:02Z</time>
      </trkpt>
      <trkpt lat="47.92147" lon="-3.87568">
        <ele>82</ele>
        <time>2024-09-07T07:04:03Z</time>
      </trkpt>
      <trkpt lat="47.92151" lon="-3.87569">
        <ele>81.8</ele>
        <time>2024-09-07T07:04:04Z</time>
      </trkpt>
      <trkpt lat="47.92154" lon="-3.87568">
        <ele>81.8</ele>
        <time>2024-09-07T07:04:05Z</time>
      </trkpt>
      <trkpt lat="47.92158" lon="-3.87567">
        <ele>82</ele>
        <time>2024-09-07T07:04:06Z</time>
      </trkpt>
      <trkpt lat="47.92162" lon="-3.87566">
        <ele>82</ele>
        <time>2024-09-07T07:04:07Z</time>
      </trkpt>
      <trkpt lat="47.92166" lon="-3.87566">
        <ele>82.2</ele>
        <time>2024-09-07T07:04:08Z</time>
      </trkpt>
      <trkpt lat="47.9217" lon="-3.87565">
        <ele>82.4</ele>
        <time>2024-09-07T07:04:09Z</time>
      </trkpt>
      <trkpt lat="47.92173" lon="-3.87564">
        <ele>82.6</ele>
        <time>2024-09-07T07:04:10Z</time>
      </trkpt>
      <trkpt lat="47.92177" lon="-3.87564">
        <ele>82.6</ele>
        <time>2024-09-07T07:04:11Z</time>
      </trkpt>
      <trkpt lat="47.9218" lon="-3.87563">
        <ele>82.8</ele>
        <time>2024-09-07T07:04:12Z</time>
      </trkpt>
      <trkpt lat="47.92184" lon="-3.87562">
        <ele>82.8</ele>
        <time>2024-09-07T07:04:13Z</time>
      </trkpt>
      <trkpt lat="47.92187" lon="-3.87562">
        <ele>83</ele>
        <time>2024-09-07T07:04:14Z</time>
      </trkpt>
      <trkpt lat="47.92191" lon="-3.87561">
        <ele>83.2</ele>
        <time>2024-09-07T07:04:15Z</time>
      </trkpt>
      <trkpt lat="47.92194" lon="-3.87561">
        <ele>83</ele>
        <time>2024-09-07T07:04:16Z</time>
      </trkpt>
      <trkpt lat="47.92198" lon="-3.8756">
        <ele>83.2</ele>
        <time>2024-09-07T07:04:17Z</time>
      </trkpt>
      <trkpt lat="47.92201" lon="-3.8756">
        <ele>83.6</ele>
        <time>2024-09-07T07:04:18Z</time>
      </trkpt>
      <trkpt lat="47.92204" lon="-3.87559">
        <ele>83.6</ele>
        <time>2024-09-07T07:04:19Z</time>
      </trkpt>
      <trkpt lat="47.92207" lon="-3.87559">
        <ele>83.6</ele>
        <time>2024-09-07T07:04:20Z</time>
      </trkpt>
      <trkpt lat="47.92211" lon="-3.87558">
        <ele>83.8</ele>
        <time>2024-09-07T07:04:21Z</time>
      </trkpt>
      <trkpt lat="47.92214" lon="-3.87557">
        <ele>84</ele>
        <time>2024-09-07T07:04:22Z</time>
      </trkpt>
      <trkpt lat="47.92217" lon="-3.87556">
        <ele>84.2</ele>
        <time>2024-09-07T07:04:23Z</time>
      </trkpt>
      <trkpt lat="47.9222" lon="-3.87556">
        <ele>84.4</ele>
        <time>2024-09-07T07:04:24Z</time>
      </trkpt>
      <trkpt lat="47.92223" lon="-3.87555">
        <ele>84.4</ele>
        <time>2024-09-07T07:04:25Z</time>
      </trkpt>
      <trkpt lat="47.92226" lon="-3.87554">
        <ele>84.8</ele>
        <time>2024-09-07T07:04:26Z</time>
      </trkpt>
      <trkpt lat="47.92228" lon="-3.87553">
        <ele>85</ele>
        <time>2024-09-07T07:04:27Z</time>
      </trkpt>
      <trkpt lat="47.92232" lon="-3.87551">
        <ele>85</ele>
        <time>2024-09-07T07:04:28Z</time>
      </trkpt>
      <trkpt lat="47.92235" lon="-3.8755">
        <ele>85.4</ele>
        <time>2024-09-07T07:04:29Z</time>
      </trkpt>
      <trkpt lat="47.92238" lon="-3.87549">
        <ele>85.6</ele>
        <time>2024-09-07T07:04:30Z</time>
      </trkpt>
      <trkpt lat="47.92242" lon="-3.87549">
        <ele>85.6</ele>
        <time>2024-09-07T07:04:31Z</time>
      </trkpt>
      <trkpt lat="47.92245" lon="-3.87548">
        <ele>85.6</ele>
        <time>2024-09-07T07:04:32Z</time>
      </trkpt>
      <trkpt lat="47.92248" lon="-3.87547">
        <ele>86</ele>
        <time>2024-09-07T07:04:33Z</time>
      </trkpt>
      <trkpt lat="47.92251" lon="-3.87546">
        <ele>86</ele>
        <time>2024-09-07T07:04:34Z</time>
      </trkpt>
      <trkpt lat="47.92254" lon="-3.87546">
        <ele>86.4</ele>
        <time>2024-09-07T07:04:35Z</time>
      </trkpt>
      <trkpt lat="47.92257" lon="-3.87545">
        <ele>86.8</ele>
        <time>2024-09-07T07:04:36Z</time>
      </trkpt>
      <trkpt lat="47.9226" lon="-3.87545">
        <ele>86.8</ele>
        <time>2024-09-07T07:04:37Z</time>
      </trkpt>
      <trkpt lat="47.92262" lon="-3.87544">
        <ele>87</ele>
        <time>2024-09-07T07:04:38Z</time>
      </trkpt>
      <trkpt lat="47.92265" lon="-3.87543">
        <ele>87.2</ele>
        <time>2024-09-07T07:04:39Z</time>
      </trkpt>
      <trkpt lat="47.92268" lon="-3.87542">
        <ele>87.6</ele>
        <time>2024-09-07T07:04:40Z</time>
      </trkpt>
      <trkpt lat="47.92271" lon="-3.87542">
        <ele>87.8</ele>
        <time>2024-09-07T07:04:41Z</time>
      </trkpt>
      <trkpt lat="47.92274" lon="-3.87541">
        <ele>87.8</ele>
        <time>2024-09-07T07:04:42Z</time>
      </trkpt>
      <trkpt lat="47.92277" lon="-3.87541">
        <ele>88</ele>
        <time>2024-09-07T07:04:43Z</time>
      </trkpt>
      <trkpt lat="47.9228" lon="-3.8754">
        <ele>88.4</ele>
        <time>2024-09-07T07:04:44Z</time>
      </trkpt>
      <trkpt lat="47.92283" lon="-3.87538">
        <ele>88.6</ele>
        <time>2024-09-07T07:04:45Z</time>
      </trkpt>
      <trkpt lat="47.92286" lon="-3.87537">
        <ele>88.8</ele>
        <time>2024-09-07T07:04:46Z</time>
      </trkpt>
      <trkpt lat="47.92289" lon="-3.87536">
        <ele>89</ele>
        <time>2024-09-07T07:04:47Z</time>
      </trkpt>
      <trkpt lat="47.92292" lon="-3.87535">
        <ele>89.2</ele>
        <time>2024-09-07T07:04:48Z</time>
      </trkpt>
      <trkpt lat="47.92295" lon="-3.87534">
        <ele>89.4</ele>
        <time>2024-09-07T07:04:49Z</time>
      </trkpt>
      <trkpt lat="47.92298" lon="-3.87534">
        <ele>89.4</ele>
        <time>2024-09-07T07:04:50Z</time>
      </trkpt>
      <trkpt lat="47.92302" lon="-3.87533">
        <ele>89.8</ele>
        <time>2024-09-07T07:04:51Z</time>
      </trkpt>
      <trkpt lat="47.92305" lon="-3.87532">
        <ele>90</ele>
        <time>2024-09-07T07:04:52Z</time>
      </trkpt>
      <trkpt lat="47.92308" lon="-3.87531">
        <ele>90.2</ele>
        <time>2024-09-07T07:04:53Z</time>
      </trkpt>
      <trkpt lat="47.92311" lon="-3.87531">
        <ele>90.4</ele>
        <time>2024-09-07T07:04:54Z</time>
      </trkpt>
      <trkpt lat="47.92315" lon="-3.87529">
        <ele>90.6</ele>
        <time>2024-09-07T07:04:55Z</time>
      </trkpt>
      <trkpt lat="47.92318" lon="-3.87529">
        <ele>90.8</ele>
        <time>2024-09-07T07:04:56Z</time>
      </trkpt>
      <trkpt lat="47.92321" lon="-3.87528">
        <ele>91</ele>
        <time>2024-09-07T07:04:57Z</time>
      </trkpt>
      <trkpt lat="47.92324" lon="-3.87528">
        <ele>91</ele>
        <time>2024-09-07T07:04:58Z</time>
      </trkpt>
      <trkpt lat="47.92328" lon="-3.87527">
        <ele>91.2</ele>
        <time>2024-09-07T07:04:59Z</time>
      </trkpt>
      <trkpt lat="47.92331" lon="-3.87527">
        <ele>91.4</ele>
        <time>2024-09-07T07:05:00Z</time>
      </trkpt>
      <trkpt lat="47.92335" lon="-3.87527">
        <ele>91.6</ele>
        <time>2024-09-07T07:05:01Z</time>
      </trkpt>
      <trkpt lat="47.92338" lon="-3.87525">
        <ele>91.8</ele>
        <time>2024-09-07T07:05:02Z</time>
      </trkpt>
      <trkpt lat="47.92341" lon="-3.87523">
        <ele>92</ele>
        <time>2024-09-07T07:05:03Z</time>
      </trkpt>
      <trkpt lat="47.92345" lon="-3.87522">
        <ele>92.2</ele>
        <time>2024-09-07T07:05:04Z</time>
      </trkpt>
      <trkpt lat="47.92349" lon="-3.87522">
        <ele>92.4</ele>
        <time>2024-09-07T07:05:05Z</time>
      </trkpt>
      <trkpt lat="47.92353" lon="-3.87521">
        <ele>92.4</ele>
        <time>2024-09-07T07:05:06Z</time>
      </trkpt>
      <trkpt lat="47.92357" lon="-3.8752">
        <ele>92.6</ele>
        <time>2024-09-07T07:05:07Z</time>
      </trkpt>
      <trkpt lat="47.9236" lon="-3.87518">
        <ele>92.8</ele>
        <time>2024-09-07T07:05:08Z</time>
      </trkpt>
      <trkpt lat="47.92364" lon="-3.87516">
        <ele>92.8</ele>
        <time>2024-09-07T07:05:09Z</time>
      </trkpt>
      <trkpt lat="47.92368" lon="-3.87515">
        <ele>93</ele>
        <time>2024-09-07T07:05:10Z</time>
      </trkpt>
      <trkpt lat="47.92372" lon="-3.87513">
        <ele>93.2</ele>
        <time>2024-09-07T07:05:11Z</time>
      </trkpt>
      <trkpt lat="47.92376" lon="-3.87511">
        <ele>93.2</ele>
        <time>2024-09-07T07:05:12Z</time>
      </trkpt>
      <trkpt lat="47.9238" lon="-3.8751">
        <ele>93.4</ele>
        <time>2024-09-07T07:05:13Z</time>
      </trkpt>
      <trkpt lat="47.92384" lon="-3.87509">
        <ele>93.6</ele>
        <time>2024-09-07T07:05:14Z</time>
      </trkpt>
      <trkpt lat="47.92388" lon="-3.87509">
        <ele>93.6</ele>
        <time>2024-09-07T07:05:15Z</time>
      </trkpt>
      <trkpt lat="47.92391" lon="-3.87508">
        <ele>93.8</ele>
        <time>2024-09-07T07:05:16Z</time>
      </trkpt>
      <trkpt lat="47.92395" lon="-3.87507">
        <ele>93.8</ele>
        <time>2024-09-07T07:05:17Z</time>
      </trkpt>
      <trkpt lat="47.92399" lon="-3.87506">
        <ele>93.8</ele>
        <time>2024-09-07T07:05:18Z</time>
      </trkpt>
      <trkpt lat="47.92402" lon="-3.87506">
        <ele>94</ele>
        <time>2024-09-07T07:05:19Z</time>
      </trkpt>
      <trkpt lat="47.92405" lon="-3.87505">
        <ele>94.2</ele>
        <time>2024-09-07T07:05:20Z</time>
      </trkpt>
      <trkpt lat="47.92408" lon="-3.87504">
        <ele>94.4</ele>
        <time>2024-09-07T07:05:21Z</time>
      </trkpt>
      <trkpt lat="47.92411" lon="-3.87504">
        <ele>94.4</ele>
        <time>2024-09-07T07:05:22Z</time>
      </trkpt>
      <trkpt lat="47.92414" lon="-3.87503">
        <ele>94.6</ele>
        <time>2024-09-07T07:05:23Z</time>
      </trkpt>
      <trkpt lat="47.92417" lon="-3.87502">
        <ele>94.6</ele>
        <time>2024-09-07T07:05:24Z</time>
      </trkpt>
      <trkpt lat="47.9242" lon="-3.87502">
        <ele>94.6</ele>
        <time>2024-09-07T07:05:25Z</time>
      </trkpt>
      <trkpt lat="47.92423" lon="-3.87501">
        <ele>94.6</ele>
        <time>2024-09-07T07:05:26Z</time>
      </trkpt>
      <trkpt lat="47.92426" lon="-3.875">
        <ele>94.6</ele>
        <time>2024-09-07T07:05:27Z</time>
      </trkpt>
      <trkpt lat="47.92429" lon="-3.87499">
        <ele>94.6</ele>
        <time>2024-09-07T07:05:28Z</time>
      </trkpt>
      <trkpt lat="47.92432" lon="-3.87499">
        <ele>94.6</ele>
        <time>2024-09-07T07:05:29Z</time>
      </trkpt>
      <trkpt lat="47.92434" lon="-3.87498">
        <ele>94.6</ele>
        <time>2024-09-07T07:05:30Z</time>
      </trkpt>
      <trkpt lat="47.92438" lon="-3.87497">
        <ele>94.6</ele>
        <time>2024-09-07T07:05:31Z</time>
      </trkpt>
      <trkpt lat="47.92441" lon="-3.87496">
        <ele>94.6</ele>
        <time>2024-09-07T07:05:32Z</time>
      </trkpt>
      <trkpt lat="47.92444" lon="-3.87496">
        <ele>94.6</ele>
        <time>2024-09-07T07:05:33Z</time>
      </trkpt>
      <trkpt lat="47.92447" lon="-3.87494">
        <ele>94.6</ele>
        <time>2024-09-07T07:05:34Z</time>
      </trkpt>
      <trkpt lat="47.92451" lon="-3.87492">
        <ele>94.6</ele>
        <time>2024-09-07T07:05:35Z</time>
      </trkpt>
      <trkpt lat="47.92454" lon="-3.87491">
        <ele>94.4</ele>
        <time>2024-09-07T07:05:36Z</time>
      </trkpt>
      <trkpt lat="47.92458" lon="-3.87489">
        <ele>94.4</ele>
        <time>2024-09-07T07:05:37Z</time>
      </trkpt>
      <trkpt lat="47.92461" lon="-3.87488">
        <ele>94.2</ele>
        <time>2024-09-07T07:05:38Z</time>
      </trkpt>
      <trkpt lat="47.92464" lon="-3.87486">
        <ele>94.2</ele>
        <time>2024-09-07T07:05:39Z</time>
      </trkpt>
      <trkpt lat="47.92469" lon="-3.87483">
        <ele>94.2</ele>
        <time>2024-09-07T07:05:40Z</time>
      </trkpt>
      <trkpt lat="47.92473" lon="-3.87479">
        <ele>94</ele>
        <time>2024-09-07T07:05:41Z</time>
      </trkpt>
      <trkpt lat="47.92478" lon="-3.87476">
        <ele>94</ele>
        <time>2024-09-07T07:05:42Z</time>
      </trkpt>
      <trkpt lat="47.92483" lon="-3.87472">
        <ele>94</ele>
        <time>2024-09-07T07:05:43Z</time>
      </trkpt>
      <trkpt lat="47.92489" lon="-3.87468">
        <ele>93.8</ele>
        <time>2024-09-07T07:05:44Z</time>
      </trkpt>
      <trkpt lat="47.92494" lon="-3.87464">
        <ele>93.6</ele>
        <time>2024-09-07T07:05:45Z</time>
      </trkpt>
      <trkpt lat="47.925" lon="-3.8746">
        <ele>93.6</ele>
        <time>2024-09-07T07:05:46Z</time>
      </trkpt>
      <trkpt lat="47.92506" lon="-3.87456">
        <ele>93.4</ele>
        <time>2024-09-07T07:05:47Z</time>
      </trkpt>
      <trkpt lat="47.92512" lon="-3.87451">
        <ele>93.4</ele>
        <time>2024-09-07T07:05:48Z</time>
      </trkpt>
      <trkpt lat="47.92519" lon="-3.87447">
        <ele>93</ele>
        <time>2024-09-07T07:05:49Z</time>
      </trkpt>
      <trkpt lat="47.92525" lon="-3.87443">
        <ele>93</ele>
        <time>2024-09-07T07:05:50Z</time>
      </trkpt>
      <trkpt lat="47.92531" lon="-3.87439">
        <ele>92.8</ele>
        <time>2024-09-07T07:05:51Z</time>
      </trkpt>
      <trkpt lat="47.92538" lon="-3.87435">
        <ele>92.8</ele>
        <time>2024-09-07T07:05:52Z</time>
      </trkpt>
      <trkpt lat="47.92544" lon="-3.87431">
        <ele>92.6</ele>
        <time>2024-09-07T07:05:53Z</time>
      </trkpt>
      <trkpt lat="47.9255" lon="-3.87426">
        <ele>92.4</ele>
        <time>2024-09-07T07:05:54Z</time>
      </trkpt>
      <trkpt lat="47.92557" lon="-3.87422">
        <ele>92</ele>
        <time>2024-09-07T07:05:55Z</time>
      </trkpt>
      <trkpt lat="47.92563" lon="-3.87418">
        <ele>91.8</ele>
        <time>2024-09-07T07:05:56Z</time>
      </trkpt>
      <trkpt lat="47.92569" lon="-3.87412">
        <ele>91.2</ele>
        <time>2024-09-07T07:05:57Z</time>
      </trkpt>
      <trkpt lat="47.92576" lon="-3.87407">
        <ele>91</ele>
        <time>2024-09-07T07:05:58Z</time>
      </trkpt>
      <trkpt lat="47.92583" lon="-3.87401">
        <ele>90.8</ele>
        <time>2024-09-07T07:05:59Z</time>
      </trkpt>
      <trkpt lat="47.9259" lon="-3.87396">
        <ele>90.4</ele>
        <time>2024-09-07T07:06:00Z</time>
      </trkpt>
      <trkpt lat="47.92596" lon="-3.87392">
        <ele>90</ele>
        <time>2024-09-07T07:06:01Z</time>
      </trkpt>
      <trkpt lat="47.92602" lon="-3.87386">
        <ele>89.4</ele>
        <time>2024-09-07T07:06:02Z</time>
      </trkpt>
      <trkpt lat="47.92608" lon="-3.87381">
        <ele>89.2</ele>
        <time>2024-09-07T07:06:03Z</time>
      </trkpt>
      <trkpt lat="47.92614" lon="-3.87377">
        <ele>89</ele>
        <time>2024-09-07T07:06:04Z</time>
      </trkpt>
      <trkpt lat="47.9262" lon="-3.87374">
        <ele>88.8</ele>
        <time>2024-09-07T07:06:05Z</time>
      </trkpt>
      <trkpt lat="47.92626" lon="-3.8737">
        <ele>88.8</ele>
        <time>2024-09-07T07:06:06Z</time>
      </trkpt>
      <trkpt lat="47.9263" lon="-3.87366">
        <ele>88.8</ele>
        <time>2024-09-07T07:06:07Z</time>
      </trkpt>
      <trkpt lat="47.92635" lon="-3.87361">
        <ele>88.8</ele>
        <time>2024-09-07T07:06:08Z</time>
      </trkpt>
      <trkpt lat="47.92638" lon="-3.87357">
        <ele>88.8</ele>
        <time>2024-09-07T07:06:09Z</time>
      </trkpt>
      <trkpt lat="47.92642" lon="-3.87355">
        <ele>88.8</ele>
        <time>2024-09-07T07:06:10Z</time>
      </trkpt>
      <trkpt lat="47.92645" lon="-3.87352">
        <ele>88.8</ele>
        <time>2024-09-07T07:06:11Z</time>
      </trkpt>
      <trkpt lat="47.92648" lon="-3.8735">
        <ele>88.8</ele>
        <time>2024-09-07T07:06:12Z</time>
      </trkpt>
      <trkpt lat="47.92651" lon="-3.87348">
        <ele>88.8</ele>
        <time>2024-09-07T07:06:13Z</time>
      </trkpt>
      <trkpt lat="47.92655" lon="-3.87345">
        <ele>88.8</ele>
        <time>2024-09-07T07:06:14Z</time>
      </trkpt>
      <trkpt lat="47.92658" lon="-3.87343">
        <ele>88.8</ele>
        <time>2024-09-07T07:06:15Z</time>
      </trkpt>
      <trkpt lat="47.92661" lon="-3.8734">
        <ele>88.8</ele>
        <time>2024-09-07T07:06:16Z</time>
      </trkpt>
      <trkpt lat="47.92665" lon="-3.87336">
        <ele>89</ele>
        <time>2024-09-07T07:06:17Z</time>
      </trkpt>
      <trkpt lat="47.92668" lon="-3.87334">
        <ele>89</ele>
        <time>2024-09-07T07:06:18Z</time>
      </trkpt>
      <trkpt lat="47.92671" lon="-3.87333">
        <ele>89</ele>
        <time>2024-09-07T07:06:19Z</time>
      </trkpt>
      <trkpt lat="47.92673" lon="-3.87332">
        <ele>89.2</ele>
        <time>2024-09-07T07:06:20Z</time>
      </trkpt>
      <trkpt lat="47.92675" lon="-3.8733">
        <ele>89.4</ele>
        <time>2024-09-07T07:06:21Z</time>
      </trkpt>
      <trkpt lat="47.92678" lon="-3.87328">
        <ele>89.6</ele>
        <time>2024-09-07T07:06:22Z</time>
      </trkpt>
      <trkpt lat="47.92681" lon="-3.87325">
        <ele>89.8</ele>
        <time>2024-09-07T07:06:23Z</time>
      </trkpt>
      <trkpt lat="47.92684" lon="-3.87322">
        <ele>90</ele>
        <time>2024-09-07T07:06:24Z</time>
      </trkpt>
      <trkpt lat="47.92687" lon="-3.87319">
        <ele>90.2</ele>
        <time>2024-09-07T07:06:25Z</time>
      </trkpt>
      <trkpt lat="47.9269" lon="-3.87315">
        <ele>90.2</ele>
        <time>2024-09-07T07:06:26Z</time>
      </trkpt>
      <trkpt lat="47.92693" lon="-3.87313">
        <ele>90.4</ele>
        <time>2024-09-07T07:06:27Z</time>
      </trkpt>
      <trkpt lat="47.92696" lon="-3.87311">
        <ele>90.6</ele>
        <time>2024-09-07T07:06:28Z</time>
      </trkpt>
      <trkpt lat="47.92699" lon="-3.8731">
        <ele>90.8</ele>
        <time>2024-09-07T07:06:29Z</time>
      </trkpt>
      <trkpt lat="47.92702" lon="-3.87307">
        <ele>91</ele>
        <time>2024-09-07T07:06:30Z</time>
      </trkpt>
      <trkpt lat="47.92705" lon="-3.87305">
        <ele>91</ele>
        <time>2024-09-07T07:06:31Z</time>
      </trkpt>
      <trkpt lat="47.92708" lon="-3.87302">
        <ele>91.4</ele>
        <time>2024-09-07T07:06:32Z</time>
      </trkpt>
      <trkpt lat="47.92711" lon="-3.87299">
        <ele>91.8</ele>
        <time>2024-09-07T07:06:33Z</time>
      </trkpt>
      <trkpt lat="47.92715" lon="-3.87297">
        <ele>91.8</ele>
        <time>2024-09-07T07:06:34Z</time>
      </trkpt>
      <trkpt lat="47.92718" lon="-3.87295">
        <ele>92.2</ele>
        <time>2024-09-07T07:06:35Z</time>
      </trkpt>
      <trkpt lat="47.92721" lon="-3.87293">
        <ele>92.4</ele>
        <time>2024-09-07T07:06:36Z</time>
      </trkpt>
      <trkpt lat="47.92723" lon="-3.87291">
        <ele>92.6</ele>
        <time>2024-09-07T07:06:37Z</time>
      </trkpt>
      <trkpt lat="47.92726" lon="-3.87289">
        <ele>92.8</ele>
        <time>2024-09-07T07:06:38Z</time>
      </trkpt>
      <trkpt lat="47.92729" lon="-3.87287">
        <ele>93</ele>
        <time>2024-09-07T07:06:39Z</time>
      </trkpt>
      <trkpt lat="47.92732" lon="-3.87284">
        <ele>93.4</ele>
        <time>2024-09-07T07:06:40Z</time>
      </trkpt>
      <trkpt lat="47.92735" lon="-3.87282">
        <ele>93.8</ele>
        <time>2024-09-07T07:06:41Z</time>
      </trkpt>
      <trkpt lat="47.92738" lon="-3.8728">
        <ele>94</ele>
        <time>2024-09-07T07:06:42Z</time>
      </trkpt>
      <trkpt lat="47.9274" lon="-3.87279">
        <ele>94</ele>
        <time>2024-09-07T07:06:43Z</time>
      </trkpt>
      <trkpt lat="47.92743" lon="-3.87277">
        <ele>94.2</ele>
        <time>2024-09-07T07:06:44Z</time>
      </trkpt>
      <trkpt lat="47.92746" lon="-3.87274">
        <ele>94.6</ele>
        <time>2024-09-07T07:06:45Z</time>
      </trkpt>
      <trkpt lat="47.92749" lon="-3.87271">
        <ele>94.6</ele>
        <time>2024-09-07T07:06:46Z</time>
      </trkpt>
      <trkpt lat="47.92752" lon="-3.87268">
        <ele>94.8</ele>
        <time>2024-09-07T07:06:47Z</time>
      </trkpt>
      <trkpt lat="47.92754" lon="-3.87266">
        <ele>95</ele>
        <time>2024-09-07T07:06:48Z</time>
      </trkpt>
      <trkpt lat="47.92757" lon="-3.87264">
        <ele>95.4</ele>
        <time>2024-09-07T07:06:49Z</time>
      </trkpt>
      <trkpt lat="47.9276" lon="-3.87263">
        <ele>95.4</ele>
        <time>2024-09-07T07:06:50Z</time>
      </trkpt>
      <trkpt lat="47.92763" lon="-3.8726">
        <ele>95.6</ele>
        <time>2024-09-07T07:06:51Z</time>
      </trkpt>
      <trkpt lat="47.92766" lon="-3.87257">
        <ele>95.8</ele>
        <time>2024-09-07T07:06:52Z</time>
      </trkpt>
      <trkpt lat="47.92769" lon="-3.87255">
        <ele>96</ele>
        <time>2024-09-07T07:06:53Z</time>
      </trkpt>
      <trkpt lat="47.92772" lon="-3.87252">
        <ele>96.2</ele>
        <time>2024-09-07T07:06:54Z</time>
      </trkpt>
      <trkpt lat="47.92777" lon="-3.87247">
        <ele>96.4</ele>
        <time>2024-09-07T07:06:55Z</time>
      </trkpt>
      <trkpt lat="47.9278" lon="-3.87244">
        <ele>96.8</ele>
        <time>2024-09-07T07:06:56Z</time>
      </trkpt>
      <trkpt lat="47.92783" lon="-3.87241">
        <ele>97</ele>
        <time>2024-09-07T07:06:57Z</time>
      </trkpt>
      <trkpt lat="47.92786" lon="-3.87238">
        <ele>97</ele>
        <time>2024-09-07T07:06:58Z</time>
      </trkpt>
      <trkpt lat="47.92789" lon="-3.87236">
        <ele>97.2</ele>
        <time>2024-09-07T07:06:59Z</time>
      </trkpt>
      <trkpt lat="47.92792" lon="-3.87234">
        <ele>97.4</ele>
        <time>2024-09-07T07:07:00Z</time>
      </trkpt>
      <trkpt lat="47.92795" lon="-3.87234">
        <ele>97.6</ele>
        <time>2024-09-07T07:07:01Z</time>
      </trkpt>
      <trkpt lat="47.92798" lon="-3.87233">
        <ele>97.8</ele>
        <time>2024-09-07T07:07:02Z</time>
      </trkpt>
      <trkpt lat="47.92801" lon="-3.87231">
        <ele>98</ele>
        <time>2024-09-07T07:07:03Z</time>
      </trkpt>
      <trkpt lat="47.92805" lon="-3.87228">
        <ele>98.2</ele>
        <time>2024-09-07T07:07:04Z</time>
      </trkpt>
      <trkpt lat="47.92808" lon="-3.87226">
        <ele>98.4</ele>
        <time>2024-09-07T07:07:05Z</time>
      </trkpt>
      <trkpt lat="47.9281" lon="-3.87223">
        <ele>98.6</ele>
        <time>2024-09-07T07:07:06Z</time>
      </trkpt>
      <trkpt lat="47.92813" lon="-3.87221">
        <ele>98.6</ele>
        <time>2024-09-07T07:07:07Z</time>
      </trkpt>
      <trkpt lat="47.92816" lon="-3.87219">
        <ele>98.8</ele>
        <time>2024-09-07T07:07:08Z</time>
      </trkpt>
      <trkpt lat="47.92818" lon="-3.87217">
        <ele>99</ele>
        <time>2024-09-07T07:07:09Z</time>
      </trkpt>
      <trkpt lat="47.92821" lon="-3.87215">
        <ele>99</ele>
        <time>2024-09-07T07:07:10Z</time>
      </trkpt>
      <trkpt lat="47.92824" lon="-3.87212">
        <ele>99</ele>
        <time>2024-09-07T07:07:11Z</time>
      </trkpt>
      <trkpt lat="47.92827" lon="-3.8721">
        <ele>99.2</ele>
        <time>2024-09-07T07:07:12Z</time>
      </trkpt>
      <trkpt lat="47.9283" lon="-3.87208">
        <ele>99.4</ele>
        <time>2024-09-07T07:07:13Z</time>
      </trkpt>
      <trkpt lat="47.92833" lon="-3.87206">
        <ele>99.6</ele>
        <time>2024-09-07T07:07:14Z</time>
      </trkpt>
      <trkpt lat="47.92835" lon="-3.87203">
        <ele>99.8</ele>
        <time>2024-09-07T07:07:15Z</time>
      </trkpt>
      <trkpt lat="47.92839" lon="-3.872">
        <ele>100</ele>
        <time>2024-09-07T07:07:16Z</time>
      </trkpt>
      <trkpt lat="47.92842" lon="-3.87197">
        <ele>100</ele>
        <time>2024-09-07T07:07:17Z</time>
      </trkpt>
      <trkpt lat="47.92846" lon="-3.87194">
        <ele>100.2</ele>
        <time>2024-09-07T07:07:18Z</time>
      </trkpt>
      <trkpt lat="47.9285" lon="-3.87191">
        <ele>100.2</ele>
        <time>2024-09-07T07:07:19Z</time>
      </trkpt>
      <trkpt lat="47.92853" lon="-3.87189">
        <ele>100.2</ele>
        <time>2024-09-07T07:07:20Z</time>
      </trkpt>
      <trkpt lat="47.92858" lon="-3.87185">
        <ele>100.2</ele>
        <time>2024-09-07T07:07:21Z</time>
      </trkpt>
      <trkpt lat="47.92861" lon="-3.87182">
        <ele>100.4</ele>
        <time>2024-09-07T07:07:22Z</time>
      </trkpt>
      <trkpt lat="47.92865" lon="-3.87179">
        <ele>100.4</ele>
        <time>2024-09-07T07:07:23Z</time>
      </trkpt>
      <trkpt lat="47.92869" lon="-3.87176">
        <ele>100.4</ele>
        <time>2024-09-07T07:07:24Z</time>
      </trkpt>
      <trkpt lat="47.92873" lon="-3.87173">
        <ele>100.4</ele>
        <time>2024-09-07T07:07:25Z</time>
      </trkpt>
      <trkpt lat="47.92877" lon="-3.8717">
        <ele>100.4</ele>
        <time>2024-09-07T07:07:26Z</time>
      </trkpt>
      <trkpt lat="47.92881" lon="-3.87167">
        <ele>100.4</ele>
        <time>2024-09-07T07:07:27Z</time>
      </trkpt>
      <trkpt lat="47.92885" lon="-3.87164">
        <ele>100.4</ele>
        <time>2024-09-07T07:07:28Z</time>
      </trkpt>
      <trkpt lat="47.92889" lon="-3.87161">
        <ele>100.4</ele>
        <time>2024-09-07T07:07:29Z</time>
      </trkpt>
      <trkpt lat="47.92893" lon="-3.87159">
        <ele>100.4</ele>
        <time>2024-09-07T07:07:30Z</time>
      </trkpt>
      <trkpt lat="47.92897" lon="-3.87157">
        <ele>100.4</ele>
        <time>2024-09-07T07:07:31Z</time>
      </trkpt>
      <trkpt lat="47.92901" lon="-3.87155">
        <ele>100.4</ele>
        <time>2024-09-07T07:07:32Z</time>
      </trkpt>
      <trkpt lat="47.92906" lon="-3.87152">
        <ele>100.4</ele>
        <time>2024-09-07T07:07:33Z</time>
      </trkpt>
      <trkpt lat="47.9291" lon="-3.8715">
        <ele>100.4</ele>
        <time>2024-09-07T07:07:34Z</time>
      </trkpt>
      <trkpt lat="47.92914" lon="-3.87148">
        <ele>100.2</ele>
        <time>2024-09-07T07:07:35Z</time>
      </trkpt>
      <trkpt lat="47.92918" lon="-3.87146">
        <ele>100.2</ele>
        <time>2024-09-07T07:07:36Z</time>
      </trkpt>
      <trkpt lat="47.92922" lon="-3.87143">
        <ele>100.2</ele>
        <time>2024-09-07T07:07:37Z</time>
      </trkpt>
      <trkpt lat="47.92926" lon="-3.87142">
        <ele>100.2</ele>
        <time>2024-09-07T07:07:38Z</time>
      </trkpt>
      <trkpt lat="47.9293" lon="-3.8714">
        <ele>100.2</ele>
        <time>2024-09-07T07:07:39Z</time>
      </trkpt>
      <trkpt lat="47.92933" lon="-3.87137">
        <ele>100.2</ele>
        <time>2024-09-07T07:07:40Z</time>
      </trkpt>
      <trkpt lat="47.92937" lon="-3.87135">
        <ele>100.2</ele>
        <time>2024-09-07T07:07:41Z</time>
      </trkpt>
      <trkpt lat="47.92941" lon="-3.87133">
        <ele>100.2</ele>
        <time>2024-09-07T07:07:42Z</time>
      </trkpt>
      <trkpt lat="47.92944" lon="-3.87131">
        <ele>100.2</ele>
        <time>2024-09-07T07:07:43Z</time>
      </trkpt>
      <trkpt lat="47.92949" lon="-3.87129">
        <ele>100.2</ele>
        <time>2024-09-07T07:07:44Z</time>
      </trkpt>
      <trkpt lat="47.92953" lon="-3.87127">
        <ele>100.2</ele>
        <time>2024-09-07T07:07:45Z</time>
      </trkpt>
      <trkpt lat="47.92956" lon="-3.87125">
        <ele>100.2</ele>
        <time>2024-09-07T07:07:46Z</time>
      </trkpt>
      <trkpt lat="47.9296" lon="-3.87123">
        <ele>100.2</ele>
        <time>2024-09-07T07:07:47Z</time>
      </trkpt>
      <trkpt lat="47.92963" lon="-3.87122">
        <ele>100.2</ele>
        <time>2024-09-07T07:07:48Z</time>
      </trkpt>
      <trkpt lat="47.92967" lon="-3.8712">
        <ele>100.4</ele>
        <time>2024-09-07T07:07:49Z</time>
      </trkpt>
      <trkpt lat="47.9297" lon="-3.87119">
        <ele>100.4</ele>
        <time>2024-09-07T07:07:50Z</time>
      </trkpt>
      <trkpt lat="47.92974" lon="-3.87117">
        <ele>100.4</ele>
        <time>2024-09-07T07:07:51Z</time>
      </trkpt>
      <trkpt lat="47.92978" lon="-3.87115">
        <ele>100.4</ele>
        <time>2024-09-07T07:07:52Z</time>
      </trkpt>
      <trkpt lat="47.92982" lon="-3.87114">
        <ele>100.4</ele>
        <time>2024-09-07T07:07:53Z</time>
      </trkpt>
      <trkpt lat="47.92985" lon="-3.87112">
        <ele>100.4</ele>
        <time>2024-09-07T07:07:54Z</time>
      </trkpt>
      <trkpt lat="47.92989" lon="-3.8711">
        <ele>100.6</ele>
        <time>2024-09-07T07:07:55Z</time>
      </trkpt>
      <trkpt lat="47.92993" lon="-3.87109">
        <ele>100.6</ele>
        <time>2024-09-07T07:07:56Z</time>
      </trkpt>
      <trkpt lat="47.92996" lon="-3.87107">
        <ele>100.6</ele>
        <time>2024-09-07T07:07:57Z</time>
      </trkpt>
      <trkpt lat="47.93" lon="-3.87106">
        <ele>100.8</ele>
        <time>2024-09-07T07:07:58Z</time>
      </trkpt>
      <trkpt lat="47.93003" lon="-3.87105">
        <ele>101</ele>
        <time>2024-09-07T07:07:59Z</time>
      </trkpt>
      <trkpt lat="47.93007" lon="-3.87104">
        <ele>101</ele>
        <time>2024-09-07T07:08:00Z</time>
      </trkpt>
      <trkpt lat="47.9301" lon="-3.87102">
        <ele>101</ele>
        <time>2024-09-07T07:08:01Z</time>
      </trkpt>
      <trkpt lat="47.93013" lon="-3.87101">
        <ele>101.2</ele>
        <time>2024-09-07T07:08:02Z</time>
      </trkpt>
      <trkpt lat="47.93017" lon="-3.87099">
        <ele>101.4</ele>
        <time>2024-09-07T07:08:03Z</time>
      </trkpt>
      <trkpt lat="47.93021" lon="-3.87097">
        <ele>101.4</ele>
        <time>2024-09-07T07:08:04Z</time>
      </trkpt>
      <trkpt lat="47.93024" lon="-3.87095">
        <ele>101.6</ele>
        <time>2024-09-07T07:08:05Z</time>
      </trkpt>
      <trkpt lat="47.93027" lon="-3.87093">
        <ele>101.8</ele>
        <time>2024-09-07T07:08:06Z</time>
      </trkpt>
      <trkpt lat="47.93031" lon="-3.87091">
        <ele>102</ele>
        <time>2024-09-07T07:08:07Z</time>
      </trkpt>
      <trkpt lat="47.93034" lon="-3.8709">
        <ele>102</ele>
        <time>2024-09-07T07:08:08Z</time>
      </trkpt>
      <trkpt lat="47.93038" lon="-3.87088">
        <ele>102.2</ele>
        <time>2024-09-07T07:08:09Z</time>
      </trkpt>
      <trkpt lat="47.93042" lon="-3.87086">
        <ele>102.2</ele>
        <time>2024-09-07T07:08:10Z</time>
      </trkpt>
      <trkpt lat="47.93046" lon="-3.87084">
        <ele>102.2</ele>
        <time>2024-09-07T07:08:11Z</time>
      </trkpt>
      <trkpt lat="47.9305" lon="-3.87081">
        <ele>102.4</ele>
        <time>2024-09-07T07:08:12Z</time>
      </trkpt>
      <trkpt lat="47.93053" lon="-3.87079">
        <ele>102.4</ele>
        <time>2024-09-07T07:08:13Z</time>
      </trkpt>
      <trkpt lat="47.93058" lon="-3.87076">
        <ele>102.6</ele>
        <time>2024-09-07T07:08:14Z</time>
      </trkpt>
      <trkpt lat="47.93062" lon="-3.87074">
        <ele>102.6</ele>
        <time>2024-09-07T07:08:15Z</time>
      </trkpt>
      <trkpt lat="47.93065" lon="-3.87071">
        <ele>102.8</ele>
        <time>2024-09-07T07:08:16Z</time>
      </trkpt>
      <trkpt lat="47.93069" lon="-3.87068">
        <ele>102.8</ele>
        <time>2024-09-07T07:08:17Z</time>
      </trkpt>
      <trkpt lat="47.93073" lon="-3.87065">
        <ele>103</ele>
        <time>2024-09-07T07:08:18Z</time>
      </trkpt>
      <trkpt lat="47.93077" lon="-3.87061">
        <ele>103</ele>
        <time>2024-09-07T07:08:19Z</time>
      </trkpt>
      <trkpt lat="47.93081" lon="-3.87057">
        <ele>103</ele>
        <time>2024-09-07T07:08:20Z</time>
      </trkpt>
      <trkpt lat="47.93084" lon="-3.87054">
        <ele>103</ele>
        <time>2024-09-07T07:08:21Z</time>
      </trkpt>
      <trkpt lat="47.93088" lon="-3.8705">
        <ele>103.2</ele>
        <time>2024-09-07T07:08:22Z</time>
      </trkpt>
      <trkpt lat="47.93091" lon="-3.87047">
        <ele>103.2</ele>
        <time>2024-09-07T07:08:23Z</time>
      </trkpt>
      <trkpt lat="47.93094" lon="-3.87044">
        <ele>103.2</ele>
        <time>2024-09-07T07:08:24Z</time>
      </trkpt>
      <trkpt lat="47.93097" lon="-3.87042">
        <ele>103.2</ele>
        <time>2024-09-07T07:08:25Z</time>
      </trkpt>
      <trkpt lat="47.931" lon="-3.87039">
        <ele>103.4</ele>
        <time>2024-09-07T07:08:26Z</time>
      </trkpt>
      <trkpt lat="47.93103" lon="-3.87037">
        <ele>103.4</ele>
        <time>2024-09-07T07:08:27Z</time>
      </trkpt>
      <trkpt lat="47.93105" lon="-3.87033">
        <ele>103.6</ele>
        <time>2024-09-07T07:08:28Z</time>
      </trkpt>
      <trkpt lat="47.93108" lon="-3.8703">
        <ele>103.6</ele>
        <time>2024-09-07T07:08:29Z</time>
      </trkpt>
      <trkpt lat="47.93111" lon="-3.87026">
        <ele>103.6</ele>
        <time>2024-09-07T07:08:30Z</time>
      </trkpt>
      <trkpt lat="47.93114" lon="-3.87023">
        <ele>103.8</ele>
        <time>2024-09-07T07:08:31Z</time>
      </trkpt>
      <trkpt lat="47.93117" lon="-3.87019">
        <ele>103.8</ele>
        <time>2024-09-07T07:08:32Z</time>
      </trkpt>
      <trkpt lat="47.9312" lon="-3.87016">
        <ele>104</ele>
        <time>2024-09-07T07:08:33Z</time>
      </trkpt>
      <trkpt lat="47.93123" lon="-3.87012">
        <ele>104</ele>
        <time>2024-09-07T07:08:34Z</time>
      </trkpt>
      <trkpt lat="47.93125" lon="-3.87009">
        <ele>104.2</ele>
        <time>2024-09-07T07:08:35Z</time>
      </trkpt>
      <trkpt lat="47.93128" lon="-3.87005">
        <ele>104.2</ele>
        <time>2024-09-07T07:08:36Z</time>
      </trkpt>
      <trkpt lat="47.93131" lon="-3.87002">
        <ele>104.4</ele>
        <time>2024-09-07T07:08:37Z</time>
      </trkpt>
      <trkpt lat="47.93134" lon="-3.86998">
        <ele>104.6</ele>
        <time>2024-09-07T07:08:38Z</time>
      </trkpt>
      <trkpt lat="47.93137" lon="-3.86995">
        <ele>104.6</ele>
        <time>2024-09-07T07:08:39Z</time>
      </trkpt>
      <trkpt lat="47.9314" lon="-3.86991">
        <ele>104.8</ele>
        <time>2024-09-07T07:08:40Z</time>
      </trkpt>
      <trkpt lat="47.93143" lon="-3.86987">
        <ele>105</ele>
        <time>2024-09-07T07:08:41Z</time>
      </trkpt>
      <trkpt lat="47.93145" lon="-3.86984">
        <ele>105</ele>
        <time>2024-09-07T07:08:42Z</time>
      </trkpt>
      <trkpt lat="47.93147" lon="-3.86981">
        <ele>105.2</ele>
        <time>2024-09-07T07:08:43Z</time>
      </trkpt>
      <trkpt lat="47.9315" lon="-3.86977">
        <ele>105.4</ele>
        <time>2024-09-07T07:08:44Z</time>
      </trkpt>
      <trkpt lat="47.93153" lon="-3.86974">
        <ele>105.6</ele>
        <time>2024-09-07T07:08:45Z</time>
      </trkpt>
      <trkpt lat="47.93156" lon="-3.8697">
        <ele>105.8</ele>
        <time>2024-09-07T07:08:46Z</time>
      </trkpt>
      <trkpt lat="47.93158" lon="-3.86967">
        <ele>105.8</ele>
        <time>2024-09-07T07:08:47Z</time>
      </trkpt>
      <trkpt lat="47.93161" lon="-3.86964">
        <ele>106</ele>
        <time>2024-09-07T07:08:48Z</time>
      </trkpt>
      <trkpt lat="47.93163" lon="-3.86961">
        <ele>106.2</ele>
        <time>2024-09-07T07:08:49Z</time>
      </trkpt>
      <trkpt lat="47.93166" lon="-3.86958">
        <ele>106.2</ele>
        <time>2024-09-07T07:08:50Z</time>
      </trkpt>
      <trkpt lat="47.93168" lon="-3.86954">
        <ele>106.4</ele>
        <time>2024-09-07T07:08:51Z</time>
      </trkpt>
      <trkpt lat="47.93171" lon="-3.86951">
        <ele>106.6</ele>
        <time>2024-09-07T07:08:52Z</time>
      </trkpt>
      <trkpt lat="47.93173" lon="-3.86947">
        <ele>106.6</ele>
        <time>2024-09-07T07:08:53Z</time>
      </trkpt>
      <trkpt lat="47.93176" lon="-3.86944">
        <ele>106.8</ele>
        <time>2024-09-07T07:08:54Z</time>
      </trkpt>
      <trkpt lat="47.93179" lon="-3.86942">
        <ele>107</ele>
        <time>2024-09-07T07:08:55Z</time>
      </trkpt>
      <trkpt lat="47.93181" lon="-3.86939">
        <ele>107.2</ele>
        <time>2024-09-07T07:08:56Z</time>
      </trkpt>
      <trkpt lat="47.93184" lon="-3.86936">
        <ele>107.2</ele>
        <time>2024-09-07T07:08:57Z</time>
      </trkpt>
      <trkpt lat="47.93187" lon="-3.86934">
        <ele>107.4</ele>
        <time>2024-09-07T07:08:58Z</time>
      </trkpt>
      <trkpt lat="47.9319" lon="-3.86931">
        <ele>107.6</ele>
        <time>2024-09-07T07:08:59Z</time>
      </trkpt>
      <trkpt lat="47.93192" lon="-3.86928">
        <ele>108</ele>
        <time>2024-09-07T07:09:00Z</time>
      </trkpt>
      <trkpt lat="47.93195" lon="-3.86926">
        <ele>108</ele>
        <time>2024-09-07T07:09:01Z</time>
      </trkpt>
      <trkpt lat="47.93198" lon="-3.86923">
        <ele>108</ele>
        <time>2024-09-07T07:09:02Z</time>
      </trkpt>
      <trkpt lat="47.932" lon="-3.8692">
        <ele>108.4</ele>
        <time>2024-09-07T07:09:03Z</time>
      </trkpt>
      <trkpt lat="47.93203" lon="-3.86918">
        <ele>108.4</ele>
        <time>2024-09-07T07:09:04Z</time>
      </trkpt>
      <trkpt lat="47.93206" lon="-3.86915">
        <ele>108.6</ele>
        <time>2024-09-07T07:09:05Z</time>
      </trkpt>
      <trkpt lat="47.9321" lon="-3.86912">
        <ele>109</ele>
        <time>2024-09-07T07:09:06Z</time>
      </trkpt>
      <trkpt lat="47.93213" lon="-3.86909">
        <ele>109</ele>
        <time>2024-09-07T07:09:07Z</time>
      </trkpt>
      <trkpt lat="47.93216" lon="-3.86907">
        <ele>109.2</ele>
        <time>2024-09-07T07:09:08Z</time>
      </trkpt>
      <trkpt lat="47.93219" lon="-3.86904">
        <ele>109.2</ele>
        <time>2024-09-07T07:09:09Z</time>
      </trkpt>
      <trkpt lat="47.93222" lon="-3.86902">
        <ele>109.2</ele>
        <time>2024-09-07T07:09:10Z</time>
      </trkpt>
      <trkpt lat="47.93225" lon="-3.869">
        <ele>109.4</ele>
        <time>2024-09-07T07:09:11Z</time>
      </trkpt>
      <trkpt lat="47.93228" lon="-3.86898">
        <ele>109.6</ele>
        <time>2024-09-07T07:09:12Z</time>
      </trkpt>
      <trkpt lat="47.93232" lon="-3.86896">
        <ele>109.8</ele>
        <time>2024-09-07T07:09:13Z</time>
      </trkpt>
      <trkpt lat="47.93235" lon="-3.86894">
        <ele>109.8</ele>
        <time>2024-09-07T07:09:14Z</time>
      </trkpt>
      <trkpt lat="47.93238" lon="-3.86892">
        <ele>110</ele>
        <time>2024-09-07T07:09:15Z</time>
      </trkpt>
      <trkpt lat="47.9324" lon="-3.86889">
        <ele>110</ele>
        <time>2024-09-07T07:09:16Z</time>
      </trkpt>
      <trkpt lat="47.93244" lon="-3.86887">
        <ele>110.2</ele>
        <time>2024-09-07T07:09:17Z</time>
      </trkpt>
      <trkpt lat="47.93247" lon="-3.86885">
        <ele>110.2</ele>
        <time>2024-09-07T07:09:18Z</time>
      </trkpt>
      <trkpt lat="47.9325" lon="-3.86883">
        <ele>110.4</ele>
        <time>2024-09-07T07:09:19Z</time>
      </trkpt>
      <trkpt lat="47.93253" lon="-3.86881">
        <ele>110.6</ele>
        <time>2024-09-07T07:09:20Z</time>
      </trkpt>
      <trkpt lat="47.93256" lon="-3.86879">
        <ele>110.8</ele>
        <time>2024-09-07T07:09:21Z</time>
      </trkpt>
      <trkpt lat="47.9326" lon="-3.86878">
        <ele>111</ele>
        <time>2024-09-07T07:09:22Z</time>
      </trkpt>
      <trkpt lat="47.93263" lon="-3.86876">
        <ele>111.2</ele>
        <time>2024-09-07T07:09:23Z</time>
      </trkpt>
      <trkpt lat="47.93267" lon="-3.86874">
        <ele>111.4</ele>
        <time>2024-09-07T07:09:24Z</time>
      </trkpt>
      <trkpt lat="47.9327" lon="-3.86872">
        <ele>111.4</ele>
        <time>2024-09-07T07:09:25Z</time>
      </trkpt>
      <trkpt lat="47.93274" lon="-3.8687">
        <ele>111.6</ele>
        <time>2024-09-07T07:09:26Z</time>
      </trkpt>
      <trkpt lat="47.93278" lon="-3.86869">
        <ele>111.6</ele>
        <time>2024-09-07T07:09:27Z</time>
      </trkpt>
      <trkpt lat="47.93282" lon="-3.86868">
        <ele>111.8</ele>
        <time>2024-09-07T07:09:28Z</time>
      </trkpt>
      <trkpt lat="47.93285" lon="-3.86867">
        <ele>111.8</ele>
        <time>2024-09-07T07:09:29Z</time>
      </trkpt>
      <trkpt lat="47.9329" lon="-3.86866">
        <ele>112</ele>
        <time>2024-09-07T07:09:30Z</time>
      </trkpt>
      <trkpt lat="47.93293" lon="-3.86866">
        <ele>112</ele>
        <time>2024-09-07T07:09:31Z</time>
      </trkpt>
      <trkpt lat="47.93297" lon="-3.86865">
        <ele>112.2</ele>
        <time>2024-09-07T07:09:32Z</time>
      </trkpt>
      <trkpt lat="47.93301" lon="-3.86864">
        <ele>112.2</ele>
        <time>2024-09-07T07:09:33Z</time>
      </trkpt>
      <trkpt lat="47.93305" lon="-3.86862">
        <ele>112.2</ele>
        <time>2024-09-07T07:09:34Z</time>
      </trkpt>
      <trkpt lat="47.9331" lon="-3.86861">
        <ele>112.2</ele>
        <time>2024-09-07T07:09:35Z</time>
      </trkpt>
      <trkpt lat="47.93314" lon="-3.86859">
        <ele>112.2</ele>
        <time>2024-09-07T07:09:36Z</time>
      </trkpt>
      <trkpt lat="47.93319" lon="-3.86858">
        <ele>112.2</ele>
        <time>2024-09-07T07:09:37Z</time>
      </trkpt>
      <trkpt lat="47.93325" lon="-3.86857">
        <ele>112.2</ele>
        <time>2024-09-07T07:09:38Z</time>
      </trkpt>
      <trkpt lat="47.9333" lon="-3.86855">
        <ele>112.2</ele>
        <time>2024-09-07T07:09:39Z</time>
      </trkpt>
      <trkpt lat="47.93335" lon="-3.86853">
        <ele>112.2</ele>
        <time>2024-09-07T07:09:40Z</time>
      </trkpt>
      <trkpt lat="47.93341" lon="-3.86851">
        <ele>112.2</ele>
        <time>2024-09-07T07:09:41Z</time>
      </trkpt>
      <trkpt lat="47.93346" lon="-3.86849">
        <ele>112.2</ele>
        <time>2024-09-07T07:09:42Z</time>
      </trkpt>
      <trkpt lat="47.93352" lon="-3.86847">
        <ele>112</ele>
        <time>2024-09-07T07:09:43Z</time>
      </trkpt>
      <trkpt lat="47.93358" lon="-3.86845">
        <ele>111.8</ele>
        <time>2024-09-07T07:09:44Z</time>
      </trkpt>
      <trkpt lat="47.93365" lon="-3.86843">
        <ele>111.8</ele>
        <time>2024-09-07T07:09:45Z</time>
      </trkpt>
      <trkpt lat="47.93371" lon="-3.86841">
        <ele>111.6</ele>
        <time>2024-09-07T07:09:46Z</time>
      </trkpt>
      <trkpt lat="47.93378" lon="-3.8684">
        <ele>111.4</ele>
        <time>2024-09-07T07:09:47Z</time>
      </trkpt>
      <trkpt lat="47.93384" lon="-3.86838">
        <ele>111.2</ele>
        <time>2024-09-07T07:09:48Z</time>
      </trkpt>
      <trkpt lat="47.93391" lon="-3.86836">
        <ele>111.2</ele>
        <time>2024-09-07T07:09:49Z</time>
      </trkpt>
      <trkpt lat="47.93399" lon="-3.86834">
        <ele>111</ele>
        <time>2024-09-07T07:09:50Z</time>
      </trkpt>
      <trkpt lat="47.93406" lon="-3.86832">
        <ele>110.8</ele>
        <time>2024-09-07T07:09:51Z</time>
      </trkpt>
      <trkpt lat="47.93413" lon="-3.8683">
        <ele>110.4</ele>
        <time>2024-09-07T07:09:52Z</time>
      </trkpt>
      <trkpt lat="47.9342" lon="-3.86828">
        <ele>110</ele>
        <time>2024-09-07T07:09:53Z</time>
      </trkpt>
      <trkpt lat="47.93427" lon="-3.86827">
        <ele>109.6</ele>
        <time>2024-09-07T07:09:54Z</time>
      </trkpt>
      <trkpt lat="47.93434" lon="-3.86825">
        <ele>109.4</ele>
        <time>2024-09-07T07:09:55Z</time>
      </trkpt>
      <trkpt lat="47.93442" lon="-3.86822">
        <ele>109</ele>
        <time>2024-09-07T07:09:56Z</time>
      </trkpt>
      <trkpt lat="47.93449" lon="-3.86821">
        <ele>108.8</ele>
        <time>2024-09-07T07:09:57Z</time>
      </trkpt>
      <trkpt lat="47.93456" lon="-3.86819">
        <ele>108.6</ele>
        <time>2024-09-07T07:09:58Z</time>
      </trkpt>
      <trkpt lat="47.93463" lon="-3.86817">
        <ele>108.2</ele>
        <time>2024-09-07T07:09:59Z</time>
      </trkpt>
      <trkpt lat="47.9347" lon="-3.86815">
        <ele>108</ele>
        <time>2024-09-07T07:10:00Z</time>
      </trkpt>
      <trkpt lat="47.93478" lon="-3.86813">
        <ele>107.6</ele>
        <time>2024-09-07T07:10:01Z</time>
      </trkpt>
      <trkpt lat="47.93485" lon="-3.86811">
        <ele>107.4</ele>
        <time>2024-09-07T07:10:02Z</time>
      </trkpt>
      <trkpt lat="47.93492" lon="-3.86809">
        <ele>107.2</ele>
        <time>2024-09-07T07:10:03Z</time>
      </trkpt>
      <trkpt lat="47.935" lon="-3.86807">
        <ele>106.8</ele>
        <time>2024-09-07T07:10:04Z</time>
      </trkpt>
      <trkpt lat="47.93507" lon="-3.86805">
        <ele>106.4</ele>
        <time>2024-09-07T07:10:05Z</time>
      </trkpt>
      <trkpt lat="47.93514" lon="-3.86803">
        <ele>106.2</ele>
        <time>2024-09-07T07:10:06Z</time>
      </trkpt>
      <trkpt lat="47.93522" lon="-3.86801">
        <ele>106</ele>
        <time>2024-09-07T07:10:07Z</time>
      </trkpt>
      <trkpt lat="47.93529" lon="-3.868">
        <ele>106</ele>
        <time>2024-09-07T07:10:08Z</time>
      </trkpt>
      <trkpt lat="47.93535" lon="-3.86797">
        <ele>105.8</ele>
        <time>2024-09-07T07:10:09Z</time>
      </trkpt>
      <trkpt lat="47.93541" lon="-3.86795">
        <ele>105.6</ele>
        <time>2024-09-07T07:10:10Z</time>
      </trkpt>
      <trkpt lat="47.93547" lon="-3.86793">
        <ele>105.4</ele>
        <time>2024-09-07T07:10:11Z</time>
      </trkpt>
      <trkpt lat="47.93552" lon="-3.8679">
        <ele>105.4</ele>
        <time>2024-09-07T07:10:12Z</time>
      </trkpt>
      <trkpt lat="47.93557" lon="-3.86787">
        <ele>105.2</ele>
        <time>2024-09-07T07:10:13Z</time>
      </trkpt>
      <trkpt lat="47.93561" lon="-3.86783">
        <ele>105</ele>
        <time>2024-09-07T07:10:14Z</time>
      </trkpt>
      <trkpt lat="47.93565" lon="-3.86779">
        <ele>105</ele>
        <time>2024-09-07T07:10:15Z</time>
      </trkpt>
      <trkpt lat="47.93568" lon="-3.86775">
        <ele>105</ele>
        <time>2024-09-07T07:10:16Z</time>
      </trkpt>
      <trkpt lat="47.9357" lon="-3.8677">
        <ele>105</ele>
        <time>2024-09-07T07:10:17Z</time>
      </trkpt>
      <trkpt lat="47.93571" lon="-3.86765">
        <ele>105</ele>
        <time>2024-09-07T07:10:18Z</time>
      </trkpt>
      <trkpt lat="47.93572" lon="-3.8676">
        <ele>105</ele>
        <time>2024-09-07T07:10:19Z</time>
      </trkpt>
      <trkpt lat="47.93572" lon="-3.86754">
        <ele>105</ele>
        <time>2024-09-07T07:10:20Z</time>
      </trkpt>
      <trkpt lat="47.93572" lon="-3.86748">
        <ele>105</ele>
        <time>2024-09-07T07:10:21Z</time>
      </trkpt>
      <trkpt lat="47.93573" lon="-3.86742">
        <ele>105</ele>
        <time>2024-09-07T07:10:22Z</time>
      </trkpt>
      <trkpt lat="47.93573" lon="-3.86736">
        <ele>105</ele>
        <time>2024-09-07T07:10:23Z</time>
      </trkpt>
      <trkpt lat="47.93573" lon="-3.86729">
        <ele>105</ele>
        <time>2024-09-07T07:10:24Z</time>
      </trkpt>
      <trkpt lat="47.93573" lon="-3.86722">
        <ele>105</ele>
        <time>2024-09-07T07:10:25Z</time>
      </trkpt>
      <trkpt lat="47.93574" lon="-3.86715">
        <ele>105</ele>
        <time>2024-09-07T07:10:26Z</time>
      </trkpt>
      <trkpt lat="47.93574" lon="-3.86709">
        <ele>105</ele>
        <time>2024-09-07T07:10:27Z</time>
      </trkpt>
      <trkpt lat="47.93575" lon="-3.86702">
        <ele>105</ele>
        <time>2024-09-07T07:10:28Z</time>
      </trkpt>
      <trkpt lat="47.93575" lon="-3.86695">
        <ele>105</ele>
        <time>2024-09-07T07:10:29Z</time>
      </trkpt>
      <trkpt lat="47.93576" lon="-3.86689">
        <ele>105</ele>
        <time>2024-09-07T07:10:30Z</time>
      </trkpt>
      <trkpt lat="47.93576" lon="-3.86682">
        <ele>105</ele>
        <time>2024-09-07T07:10:31Z</time>
      </trkpt>
      <trkpt lat="47.93577" lon="-3.86675">
        <ele>105</ele>
        <time>2024-09-07T07:10:32Z</time>
      </trkpt>
      <trkpt lat="47.93577" lon="-3.86668">
        <ele>105</ele>
        <time>2024-09-07T07:10:33Z</time>
      </trkpt>
      <trkpt lat="47.93577" lon="-3.86661">
        <ele>105</ele>
        <time>2024-09-07T07:10:34Z</time>
      </trkpt>
      <trkpt lat="47.93578" lon="-3.86654">
        <ele>105</ele>
        <time>2024-09-07T07:10:35Z</time>
      </trkpt>
      <trkpt lat="47.93578" lon="-3.86647">
        <ele>105</ele>
        <time>2024-09-07T07:10:36Z</time>
      </trkpt>
      <trkpt lat="47.93578" lon="-3.86639">
        <ele>105</ele>
        <time>2024-09-07T07:10:37Z</time>
      </trkpt>
      <trkpt lat="47.93579" lon="-3.86632">
        <ele>104.8</ele>
        <time>2024-09-07T07:10:38Z</time>
      </trkpt>
      <trkpt lat="47.93579" lon="-3.86624">
        <ele>104.8</ele>
        <time>2024-09-07T07:10:39Z</time>
      </trkpt>
      <trkpt lat="47.93579" lon="-3.86616">
        <ele>104.8</ele>
        <time>2024-09-07T07:10:40Z</time>
      </trkpt>
      <trkpt lat="47.93579" lon="-3.86609">
        <ele>104.8</ele>
        <time>2024-09-07T07:10:41Z</time>
      </trkpt>
      <trkpt lat="47.93579" lon="-3.86601">
        <ele>104.8</ele>
        <time>2024-09-07T07:10:42Z</time>
      </trkpt>
      <trkpt lat="47.93579" lon="-3.86593">
        <ele>104.6</ele>
        <time>2024-09-07T07:10:43Z</time>
      </trkpt>
      <trkpt lat="47.93579" lon="-3.86586">
        <ele>104.6</ele>
        <time>2024-09-07T07:10:44Z</time>
      </trkpt>
      <trkpt lat="47.93579" lon="-3.86578">
        <ele>104.6</ele>
        <time>2024-09-07T07:10:45Z</time>
      </trkpt>
      <trkpt lat="47.93579" lon="-3.8657">
        <ele>104.6</ele>
        <time>2024-09-07T07:10:46Z</time>
      </trkpt>
      <trkpt lat="47.93579" lon="-3.86563">
        <ele>104.6</ele>
        <time>2024-09-07T07:10:47Z</time>
      </trkpt>
      <trkpt lat="47.93579" lon="-3.86555">
        <ele>104.6</ele>
        <time>2024-09-07T07:10:48Z</time>
      </trkpt>
      <trkpt lat="47.93578" lon="-3.86547">
        <ele>104.6</ele>
        <time>2024-09-07T07:10:49Z</time>
      </trkpt>
      <trkpt lat="47.93578" lon="-3.8654">
        <ele>104.4</ele>
        <time>2024-09-07T07:10:50Z</time>
      </trkpt>
      <trkpt lat="47.93578" lon="-3.86532">
        <ele>104.4</ele>
        <time>2024-09-07T07:10:51Z</time>
      </trkpt>
      <trkpt lat="47.93578" lon="-3.86525">
        <ele>104.4</ele>
        <time>2024-09-07T07:10:52Z</time>
      </trkpt>
      <trkpt lat="47.93578" lon="-3.86518">
        <ele>104.4</ele>
        <time>2024-09-07T07:10:53Z</time>
      </trkpt>
      <trkpt lat="47.93578" lon="-3.86511">
        <ele>104.4</ele>
        <time>2024-09-07T07:10:54Z</time>
      </trkpt>
      <trkpt lat="47.93577" lon="-3.86503">
        <ele>104.4</ele>
        <time>2024-09-07T07:10:55Z</time>
      </trkpt>
      <trkpt lat="47.93577" lon="-3.86496">
        <ele>104.4</ele>
        <time>2024-09-07T07:10:56Z</time>
      </trkpt>
      <trkpt lat="47.93576" lon="-3.86489">
        <ele>104.4</ele>
        <time>2024-09-07T07:10:57Z</time>
      </trkpt>
      <trkpt lat="47.93576" lon="-3.86482">
        <ele>104.4</ele>
        <time>2024-09-07T07:10:58Z</time>
      </trkpt>
      <trkpt lat="47.93576" lon="-3.86475">
        <ele>104.6</ele>
        <time>2024-09-07T07:10:59Z</time>
      </trkpt>
      <trkpt lat="47.93576" lon="-3.86468">
        <ele>104.6</ele>
        <time>2024-09-07T07:11:00Z</time>
      </trkpt>
      <trkpt lat="47.93576" lon="-3.86461">
        <ele>104.6</ele>
        <time>2024-09-07T07:11:01Z</time>
      </trkpt>
      <trkpt lat="47.93576" lon="-3.86455">
        <ele>104.6</ele>
        <time>2024-09-07T07:11:02Z</time>
      </trkpt>
      <trkpt lat="47.93576" lon="-3.86448">
        <ele>104.6</ele>
        <time>2024-09-07T07:11:03Z</time>
      </trkpt>
      <trkpt lat="47.93576" lon="-3.86441">
        <ele>104.8</ele>
        <time>2024-09-07T07:11:04Z</time>
      </trkpt>
      <trkpt lat="47.93575" lon="-3.86434">
        <ele>104.8</ele>
        <time>2024-09-07T07:11:05Z</time>
      </trkpt>
      <trkpt lat="47.93575" lon="-3.86428">
        <ele>105</ele>
        <time>2024-09-07T07:11:06Z</time>
      </trkpt>
      <trkpt lat="47.93575" lon="-3.86421">
        <ele>105</ele>
        <time>2024-09-07T07:11:07Z</time>
      </trkpt>
      <trkpt lat="47.93575" lon="-3.86414">
        <ele>105</ele>
        <time>2024-09-07T07:11:08Z</time>
      </trkpt>
      <trkpt lat="47.93574" lon="-3.86408">
        <ele>105.2</ele>
        <time>2024-09-07T07:11:09Z</time>
      </trkpt>
      <trkpt lat="47.93574" lon="-3.86401">
        <ele>105.2</ele>
        <time>2024-09-07T07:11:10Z</time>
      </trkpt>
      <trkpt lat="47.93574" lon="-3.86394">
        <ele>105.4</ele>
        <time>2024-09-07T07:11:11Z</time>
      </trkpt>
      <trkpt lat="47.93574" lon="-3.86387">
        <ele>105.4</ele>
        <time>2024-09-07T07:11:12Z</time>
      </trkpt>
      <trkpt lat="47.93574" lon="-3.86381">
        <ele>105.6</ele>
        <time>2024-09-07T07:11:13Z</time>
      </trkpt>
      <trkpt lat="47.93573" lon="-3.86374">
        <ele>105.6</ele>
        <time>2024-09-07T07:11:14Z</time>
      </trkpt>
      <trkpt lat="47.93573" lon="-3.86368">
        <ele>105.6</ele>
        <time>2024-09-07T07:11:15Z</time>
      </trkpt>
      <trkpt lat="47.93573" lon="-3.86362">
        <ele>105.8</ele>
        <time>2024-09-07T07:11:16Z</time>
      </trkpt>
      <trkpt lat="47.93573" lon="-3.86355">
        <ele>105.8</ele>
        <time>2024-09-07T07:11:17Z</time>
      </trkpt>
      <trkpt lat="47.93573" lon="-3.86349">
        <ele>105.8</ele>
        <time>2024-09-07T07:11:18Z</time>
      </trkpt>
      <trkpt lat="47.93573" lon="-3.86342">
        <ele>106</ele>
        <time>2024-09-07T07:11:19Z</time>
      </trkpt>
      <trkpt lat="47.93573" lon="-3.86336">
        <ele>106</ele>
        <time>2024-09-07T07:11:20Z</time>
      </trkpt>
      <trkpt lat="47.93572" lon="-3.8633">
        <ele>106.2</ele>
        <time>2024-09-07T07:11:21Z</time>
      </trkpt>
      <trkpt lat="47.93572" lon="-3.86323">
        <ele>106.2</ele>
        <time>2024-09-07T07:11:22Z</time>
      </trkpt>
      <trkpt lat="47.93572" lon="-3.86317">
        <ele>106.4</ele>
        <time>2024-09-07T07:11:23Z</time>
      </trkpt>
      <trkpt lat="47.93572" lon="-3.86311">
        <ele>106.4</ele>
        <time>2024-09-07T07:11:24Z</time>
      </trkpt>
      <trkpt lat="47.93572" lon="-3.86304">
        <ele>106.6</ele>
        <time>2024-09-07T07:11:25Z</time>
      </trkpt>
      <trkpt lat="47.93572" lon="-3.86298">
        <ele>106.8</ele>
        <time>2024-09-07T07:11:26Z</time>
      </trkpt>
      <trkpt lat="47.93572" lon="-3.86292">
        <ele>106.8</ele>
        <time>2024-09-07T07:11:27Z</time>
      </trkpt>
      <trkpt lat="47.93572" lon="-3.86286">
        <ele>106.8</ele>
        <time>2024-09-07T07:11:28Z</time>
      </trkpt>
      <trkpt lat="47.93572" lon="-3.8628">
        <ele>107</ele>
        <time>2024-09-07T07:11:29Z</time>
      </trkpt>
      <trkpt lat="47.93572" lon="-3.86273">
        <ele>107.2</ele>
        <time>2024-09-07T07:11:30Z</time>
      </trkpt>
      <trkpt lat="47.93572" lon="-3.86267">
        <ele>107.4</ele>
        <time>2024-09-07T07:11:31Z</time>
      </trkpt>
      <trkpt lat="47.93573" lon="-3.86261">
        <ele>107.4</ele>
        <time>2024-09-07T07:11:32Z</time>
      </trkpt>
      <trkpt lat="47.93573" lon="-3.86254">
        <ele>107.6</ele>
        <time>2024-09-07T07:11:33Z</time>
      </trkpt>
      <trkpt lat="47.93574" lon="-3.86248">
        <ele>107.6</ele>
        <time>2024-09-07T07:11:34Z</time>
      </trkpt>
      <trkpt lat="47.93574" lon="-3.86241">
        <ele>107.6</ele>
        <time>2024-09-07T07:11:35Z</time>
      </trkpt>
      <trkpt lat="47.93574" lon="-3.86235">
        <ele>107.8</ele>
        <time>2024-09-07T07:11:36Z</time>
      </trkpt>
      <trkpt lat="47.93575" lon="-3.86229">
        <ele>107.8</ele>
        <time>2024-09-07T07:11:37Z</time>
      </trkpt>
      <trkpt lat="47.93576" lon="-3.86222">
        <ele>108</ele>
        <time>2024-09-07T07:11:38Z</time>
      </trkpt>
      <trkpt lat="47.93577" lon="-3.86216">
        <ele>108</ele>
        <time>2024-09-07T07:11:39Z</time>
      </trkpt>
      <trkpt lat="47.93578" lon="-3.8621">
        <ele>108.2</ele>
        <time>2024-09-07T07:11:40Z</time>
      </trkpt>
      <trkpt lat="47.93579" lon="-3.86203">
        <ele>108.2</ele>
        <time>2024-09-07T07:11:41Z</time>
      </trkpt>
      <trkpt lat="47.9358" lon="-3.86197">
        <ele>108.4</ele>
        <time>2024-09-07T07:11:42Z</time>
      </trkpt>
      <trkpt lat="47.93581" lon="-3.86191">
        <ele>108.4</ele>
        <time>2024-09-07T07:11:43Z</time>
      </trkpt>
      <trkpt lat="47.93582" lon="-3.86185">
        <ele>108.4</ele>
        <time>2024-09-07T07:11:44Z</time>
      </trkpt>
      <trkpt lat="47.93584" lon="-3.86179">
        <ele>108.4</ele>
        <time>2024-09-07T07:11:45Z</time>
      </trkpt>
      <trkpt lat="47.93585" lon="-3.86173">
        <ele>108.4</ele>
        <time>2024-09-07T07:11:46Z</time>
      </trkpt>
      <trkpt lat="47.93586" lon="-3.86166">
        <ele>108.6</ele>
        <time>2024-09-07T07:11:47Z</time>
      </trkpt>
      <trkpt lat="47.93587" lon="-3.8616">
        <ele>108.6</ele>
        <time>2024-09-07T07:11:48Z</time>
      </trkpt>
      <trkpt lat="47.93588" lon="-3.86153">
        <ele>108.6</ele>
        <time>2024-09-07T07:11:49Z</time>
      </trkpt>
      <trkpt lat="47.93589" lon="-3.86146">
        <ele>108.8</ele>
        <time>2024-09-07T07:11:50Z</time>
      </trkpt>
      <trkpt lat="47.9359" lon="-3.8614">
        <ele>108.8</ele>
        <time>2024-09-07T07:11:51Z</time>
      </trkpt>
      <trkpt lat="47.93591" lon="-3.86133">
        <ele>108.8</ele>
        <time>2024-09-07T07:11:52Z</time>
      </trkpt>
      <trkpt lat="47.93593" lon="-3.86127">
        <ele>108.8</ele>
        <time>2024-09-07T07:11:53Z</time>
      </trkpt>
      <trkpt lat="47.93594" lon="-3.86121">
        <ele>109</ele>
        <time>2024-09-07T07:11:54Z</time>
      </trkpt>
      <trkpt lat="47.93595" lon="-3.86115">
        <ele>109.2</ele>
        <time>2024-09-07T07:11:55Z</time>
      </trkpt>
      <trkpt lat="47.93596" lon="-3.86108">
        <ele>109.2</ele>
        <time>2024-09-07T07:11:56Z</time>
      </trkpt>
      <trkpt lat="47.93597" lon="-3.86102">
        <ele>109.2</ele>
        <time>2024-09-07T07:11:57Z</time>
      </trkpt>
      <trkpt lat="47.93598" lon="-3.86096">
        <ele>109.2</ele>
        <time>2024-09-07T07:11:58Z</time>
      </trkpt>
      <trkpt lat="47.936" lon="-3.8609">
        <ele>109.4</ele>
        <time>2024-09-07T07:11:59Z</time>
      </trkpt>
      <trkpt lat="47.93601" lon="-3.86084">
        <ele>109.4</ele>
        <time>2024-09-07T07:12:00Z</time>
      </trkpt>
      <trkpt lat="47.93602" lon="-3.86078">
        <ele>109.4</ele>
        <time>2024-09-07T07:12:01Z</time>
      </trkpt>
      <trkpt lat="47.93603" lon="-3.86072">
        <ele>109.6</ele>
        <time>2024-09-07T07:12:02Z</time>
      </trkpt>
      <trkpt lat="47.93604" lon="-3.86065">
        <ele>109.6</ele>
        <time>2024-09-07T07:12:03Z</time>
      </trkpt>
      <trkpt lat="47.93605" lon="-3.86059">
        <ele>109.8</ele>
        <time>2024-09-07T07:12:04Z</time>
      </trkpt>
      <trkpt lat="47.93607" lon="-3.86053">
        <ele>109.8</ele>
        <time>2024-09-07T07:12:05Z</time>
      </trkpt>
      <trkpt lat="47.93608" lon="-3.86046">
        <ele>109.8</ele>
        <time>2024-09-07T07:12:06Z</time>
      </trkpt>
      <trkpt lat="47.93609" lon="-3.8604">
        <ele>110</ele>
        <time>2024-09-07T07:12:07Z</time>
      </trkpt>
      <trkpt lat="47.93611" lon="-3.86034">
        <ele>110</ele>
        <time>2024-09-07T07:12:08Z</time>
      </trkpt>
      <trkpt lat="47.93611" lon="-3.86028">
        <ele>110.2</ele>
        <time>2024-09-07T07:12:09Z</time>
      </trkpt>
      <trkpt lat="47.93612" lon="-3.86022">
        <ele>110.2</ele>
        <time>2024-09-07T07:12:10Z</time>
      </trkpt>
      <trkpt lat="47.93614" lon="-3.86016">
        <ele>110.4</ele>
        <time>2024-09-07T07:12:11Z</time>
      </trkpt>
      <trkpt lat="47.93615" lon="-3.8601">
        <ele>110.4</ele>
        <time>2024-09-07T07:12:12Z</time>
      </trkpt>
      <trkpt lat="47.93616" lon="-3.86003">
        <ele>110.4</ele>
        <time>2024-09-07T07:12:13Z</time>
      </trkpt>
      <trkpt lat="47.93617" lon="-3.85997">
        <ele>110.4</ele>
        <time>2024-09-07T07:12:14Z</time>
      </trkpt>
      <trkpt lat="47.93618" lon="-3.85991">
        <ele>110.6</ele>
        <time>2024-09-07T07:12:15Z</time>
      </trkpt>
      <trkpt lat="47.93619" lon="-3.85985">
        <ele>110.6</ele>
        <time>2024-09-07T07:12:16Z</time>
      </trkpt>
      <trkpt lat="47.93621" lon="-3.85978">
        <ele>110.6</ele>
        <time>2024-09-07T07:12:17Z</time>
      </trkpt>
      <trkpt lat="47.93622" lon="-3.85972">
        <ele>110.6</ele>
        <time>2024-09-07T07:12:18Z</time>
      </trkpt>
      <trkpt lat="47.93623" lon="-3.85966">
        <ele>110.8</ele>
        <time>2024-09-07T07:12:19Z</time>
      </trkpt>
      <trkpt lat="47.93624" lon="-3.8596">
        <ele>110.8</ele>
        <time>2024-09-07T07:12:20Z</time>
      </trkpt>
      <trkpt lat="47.93625" lon="-3.85954">
        <ele>111</ele>
        <time>2024-09-07T07:12:21Z</time>
      </trkpt>
      <trkpt lat="47.93626" lon="-3.85948">
        <ele>111</ele>
        <time>2024-09-07T07:12:22Z</time>
      </trkpt>
      <trkpt lat="47.93627" lon="-3.85942">
        <ele>111.2</ele>
        <time>2024-09-07T07:12:23Z</time>
      </trkpt>
      <trkpt lat="47.93628" lon="-3.85936">
        <ele>111.2</ele>
        <time>2024-09-07T07:12:24Z</time>
      </trkpt>
      <trkpt lat="47.93629" lon="-3.8593">
        <ele>111.4</ele>
        <time>2024-09-07T07:12:25Z</time>
      </trkpt>
      <trkpt lat="47.93631" lon="-3.85924">
        <ele>111.4</ele>
        <time>2024-09-07T07:12:26Z</time>
      </trkpt>
      <trkpt lat="47.93632" lon="-3.85917">
        <ele>111.4</ele>
        <time>2024-09-07T07:12:27Z</time>
      </trkpt>
      <trkpt lat="47.93633" lon="-3.85911">
        <ele>111.6</ele>
        <time>2024-09-07T07:12:28Z</time>
      </trkpt>
      <trkpt lat="47.93634" lon="-3.85904">
        <ele>111.6</ele>
        <time>2024-09-07T07:12:29Z</time>
      </trkpt>
      <trkpt lat="47.93636" lon="-3.85898">
        <ele>111.6</ele>
        <time>2024-09-07T07:12:30Z</time>
      </trkpt>
      <trkpt lat="47.93637" lon="-3.85892">
        <ele>111.8</ele>
        <time>2024-09-07T07:12:31Z</time>
      </trkpt>
      <trkpt lat="47.93638" lon="-3.85885">
        <ele>112</ele>
        <time>2024-09-07T07:12:32Z</time>
      </trkpt>
      <trkpt lat="47.93639" lon="-3.85879">
        <ele>112</ele>
        <time>2024-09-07T07:12:33Z</time>
      </trkpt>
      <trkpt lat="47.93641" lon="-3.85872">
        <ele>112.2</ele>
        <time>2024-09-07T07:12:34Z</time>
      </trkpt>
      <trkpt lat="47.93643" lon="-3.85866">
        <ele>112.2</ele>
        <time>2024-09-07T07:12:35Z</time>
      </trkpt>
      <trkpt lat="47.93644" lon="-3.8586">
        <ele>112.4</ele>
        <time>2024-09-07T07:12:36Z</time>
      </trkpt>
      <trkpt lat="47.93646" lon="-3.85853">
        <ele>112.4</ele>
        <time>2024-09-07T07:12:37Z</time>
      </trkpt>
      <trkpt lat="47.93648" lon="-3.85847">
        <ele>112.6</ele>
        <time>2024-09-07T07:12:38Z</time>
      </trkpt>
      <trkpt lat="47.9365" lon="-3.85841">
        <ele>112.6</ele>
        <time>2024-09-07T07:12:39Z</time>
      </trkpt>
      <trkpt lat="47.93652" lon="-3.85834">
        <ele>112.6</ele>
        <time>2024-09-07T07:12:40Z</time>
      </trkpt>
      <trkpt lat="47.93654" lon="-3.85828">
        <ele>112.6</ele>
        <time>2024-09-07T07:12:41Z</time>
      </trkpt>
      <trkpt lat="47.93656" lon="-3.85822">
        <ele>112.6</ele>
        <time>2024-09-07T07:12:42Z</time>
      </trkpt>
      <trkpt lat="47.93658" lon="-3.85816">
        <ele>112.6</ele>
        <time>2024-09-07T07:12:43Z</time>
      </trkpt>
      <trkpt lat="47.9366" lon="-3.8581">
        <ele>112.6</ele>
        <time>2024-09-07T07:12:44Z</time>
      </trkpt>
      <trkpt lat="47.93662" lon="-3.85803">
        <ele>112.6</ele>
        <time>2024-09-07T07:12:45Z</time>
      </trkpt>
      <trkpt lat="47.93664" lon="-3.85797">
        <ele>112.6</ele>
        <time>2024-09-07T07:12:46Z</time>
      </trkpt>
      <trkpt lat="47.93666" lon="-3.85791">
        <ele>112.6</ele>
        <time>2024-09-07T07:12:47Z</time>
      </trkpt>
      <trkpt lat="47.93668" lon="-3.85785">
        <ele>112.8</ele>
        <time>2024-09-07T07:12:48Z</time>
      </trkpt>
      <trkpt lat="47.9367" lon="-3.85779">
        <ele>112.8</ele>
        <time>2024-09-07T07:12:49Z</time>
      </trkpt>
      <trkpt lat="47.93673" lon="-3.85773">
        <ele>112.8</ele>
        <time>2024-09-07T07:12:50Z</time>
      </trkpt>
      <trkpt lat="47.93675" lon="-3.85767">
        <ele>112.8</ele>
        <time>2024-09-07T07:12:51Z</time>
      </trkpt>
      <trkpt lat="47.93677" lon="-3.85761">
        <ele>112.8</ele>
        <time>2024-09-07T07:12:52Z</time>
      </trkpt>
      <trkpt lat="47.93679" lon="-3.85754">
        <ele>112.6</ele>
        <time>2024-09-07T07:12:53Z</time>
      </trkpt>
      <trkpt lat="47.93681" lon="-3.85748">
        <ele>112.6</ele>
        <time>2024-09-07T07:12:54Z</time>
      </trkpt>
      <trkpt lat="47.93683" lon="-3.85742">
        <ele>112.8</ele>
        <time>2024-09-07T07:12:55Z</time>
      </trkpt>
      <trkpt lat="47.93686" lon="-3.85735">
        <ele>112.8</ele>
        <time>2024-09-07T07:12:56Z</time>
      </trkpt>
      <trkpt lat="47.93688" lon="-3.85729">
        <ele>113</ele>
        <time>2024-09-07T07:12:57Z</time>
      </trkpt>
      <trkpt lat="47.9369" lon="-3.85723">
        <ele>112.8</ele>
        <time>2024-09-07T07:12:58Z</time>
      </trkpt>
      <trkpt lat="47.93693" lon="-3.85717">
        <ele>112.8</ele>
        <time>2024-09-07T07:12:59Z</time>
      </trkpt>
      <trkpt lat="47.93695" lon="-3.85711">
        <ele>112.8</ele>
        <time>2024-09-07T07:13:00Z</time>
      </trkpt>
      <trkpt lat="47.93697" lon="-3.85705">
        <ele>112.8</ele>
        <time>2024-09-07T07:13:01Z</time>
      </trkpt>
      <trkpt lat="47.937" lon="-3.85699">
        <ele>112.8</ele>
        <time>2024-09-07T07:13:02Z</time>
      </trkpt>
      <trkpt lat="47.93702" lon="-3.85693">
        <ele>112.8</ele>
        <time>2024-09-07T07:13:03Z</time>
      </trkpt>
      <trkpt lat="47.93704" lon="-3.85687">
        <ele>113</ele>
        <time>2024-09-07T07:13:04Z</time>
      </trkpt>
      <trkpt lat="47.93706" lon="-3.85681">
        <ele>113</ele>
        <time>2024-09-07T07:13:05Z</time>
      </trkpt>
      <trkpt lat="47.93709" lon="-3.85675">
        <ele>113</ele>
        <time>2024-09-07T07:13:06Z</time>
      </trkpt>
      <trkpt lat="47.93711" lon="-3.85669">
        <ele>113</ele>
        <time>2024-09-07T07:13:07Z</time>
      </trkpt>
      <trkpt lat="47.93713" lon="-3.85664">
        <ele>113</ele>
        <time>2024-09-07T07:13:08Z</time>
      </trkpt>
      <trkpt lat="47.93716" lon="-3.85658">
        <ele>113</ele>
        <time>2024-09-07T07:13:09Z</time>
      </trkpt>
      <trkpt lat="47.93718" lon="-3.85652">
        <ele>113</ele>
        <time>2024-09-07T07:13:10Z</time>
      </trkpt>
      <trkpt lat="47.93721" lon="-3.85646">
        <ele>113.2</ele>
        <time>2024-09-07T07:13:11Z</time>
      </trkpt>
      <trkpt lat="47.93723" lon="-3.8564">
        <ele>113.2</ele>
        <time>2024-09-07T07:13:12Z</time>
      </trkpt>
      <trkpt lat="47.93725" lon="-3.85634">
        <ele>113.2</ele>
        <time>2024-09-07T07:13:13Z</time>
      </trkpt>
      <trkpt lat="47.93728" lon="-3.85629">
        <ele>113.2</ele>
        <time>2024-09-07T07:13:14Z</time>
      </trkpt>
      <trkpt lat="47.9373" lon="-3.85624">
        <ele>113.2</ele>
        <time>2024-09-07T07:13:15Z</time>
      </trkpt>
      <trkpt lat="47.93733" lon="-3.85618">
        <ele>113.2</ele>
        <time>2024-09-07T07:13:16Z</time>
      </trkpt>
      <trkpt lat="47.93735" lon="-3.85612">
        <ele>113.4</ele>
        <time>2024-09-07T07:13:17Z</time>
      </trkpt>
      <trkpt lat="47.93738" lon="-3.85607">
        <ele>113.4</ele>
        <time>2024-09-07T07:13:18Z</time>
      </trkpt>
      <trkpt lat="47.9374" lon="-3.85601">
        <ele>113.4</ele>
        <time>2024-09-07T07:13:19Z</time>
      </trkpt>
      <trkpt lat="47.93742" lon="-3.85595">
        <ele>113.6</ele>
        <time>2024-09-07T07:13:20Z</time>
      </trkpt>
      <trkpt lat="47.93744" lon="-3.85589">
        <ele>113.6</ele>
        <time>2024-09-07T07:13:21Z</time>
      </trkpt>
      <trkpt lat="47.93746" lon="-3.85582">
        <ele>113.6</ele>
        <time>2024-09-07T07:13:22Z</time>
      </trkpt>
      <trkpt lat="47.93748" lon="-3.85576">
        <ele>113.6</ele>
        <time>2024-09-07T07:13:23Z</time>
      </trkpt>
      <trkpt lat="47.9375" lon="-3.85569">
        <ele>113.6</ele>
        <time>2024-09-07T07:13:24Z</time>
      </trkpt>
      <trkpt lat="47.93753" lon="-3.85564">
        <ele>113.6</ele>
        <time>2024-09-07T07:13:25Z</time>
      </trkpt>
      <trkpt lat="47.93756" lon="-3.85559">
        <ele>113.6</ele>
        <time>2024-09-07T07:13:26Z</time>
      </trkpt>
      <trkpt lat="47.9376" lon="-3.85555">
        <ele>113.6</ele>
        <time>2024-09-07T07:13:27Z</time>
      </trkpt>
      <trkpt lat="47.93765" lon="-3.85553">
        <ele>113.6</ele>
        <time>2024-09-07T07:13:28Z</time>
      </trkpt>
      <trkpt lat="47.93769" lon="-3.85552">
        <ele>113.8</ele>
        <time>2024-09-07T07:13:29Z</time>
      </trkpt>
      <trkpt lat="47.93774" lon="-3.8555">
        <ele>113.8</ele>
        <time>2024-09-07T07:13:30Z</time>
      </trkpt>
      <trkpt lat="47.93778" lon="-3.85548">
        <ele>113.8</ele>
        <time>2024-09-07T07:13:31Z</time>
      </trkpt>
      <trkpt lat="47.93782" lon="-3.85546">
        <ele>114</ele>
        <time>2024-09-07T07:13:32Z</time>
      </trkpt>
      <trkpt lat="47.93786" lon="-3.85543">
        <ele>114</ele>
        <time>2024-09-07T07:13:33Z</time>
      </trkpt>
      <trkpt lat="47.9379" lon="-3.8554">
        <ele>114</ele>
        <time>2024-09-07T07:13:34Z</time>
      </trkpt>
      <trkpt lat="47.93794" lon="-3.85537">
        <ele>114</ele>
        <time>2024-09-07T07:13:35Z</time>
      </trkpt>
      <trkpt lat="47.93797" lon="-3.85534">
        <ele>114</ele>
        <time>2024-09-07T07:13:36Z</time>
      </trkpt>
      <trkpt lat="47.93801" lon="-3.8553">
        <ele>114</ele>
        <time>2024-09-07T07:13:37Z</time>
      </trkpt>
      <trkpt lat="47.93804" lon="-3.85527">
        <ele>114.2</ele>
        <time>2024-09-07T07:13:38Z</time>
      </trkpt>
      <trkpt lat="47.93808" lon="-3.85524">
        <ele>114.2</ele>
        <time>2024-09-07T07:13:39Z</time>
      </trkpt>
      <trkpt lat="47.93812" lon="-3.85521">
        <ele>114.2</ele>
        <time>2024-09-07T07:13:40Z</time>
      </trkpt>
      <trkpt lat="47.93815" lon="-3.85518">
        <ele>114.4</ele>
        <time>2024-09-07T07:13:41Z</time>
      </trkpt>
      <trkpt lat="47.93819" lon="-3.85516">
        <ele>114.4</ele>
        <time>2024-09-07T07:13:42Z</time>
      </trkpt>
      <trkpt lat="47.93822" lon="-3.85513">
        <ele>114.6</ele>
        <time>2024-09-07T07:13:43Z</time>
      </trkpt>
      <trkpt lat="47.93825" lon="-3.8551">
        <ele>114.8</ele>
        <time>2024-09-07T07:13:44Z</time>
      </trkpt>
      <trkpt lat="47.93829" lon="-3.85507">
        <ele>114.8</ele>
        <time>2024-09-07T07:13:45Z</time>
      </trkpt>
      <trkpt lat="47.93832" lon="-3.85504">
        <ele>115</ele>
        <time>2024-09-07T07:13:46Z</time>
      </trkpt>
      <trkpt lat="47.93835" lon="-3.85501">
        <ele>115.2</ele>
        <time>2024-09-07T07:13:47Z</time>
      </trkpt>
      <trkpt lat="47.93838" lon="-3.85498">
        <ele>115.2</ele>
        <time>2024-09-07T07:13:48Z</time>
      </trkpt>
      <trkpt lat="47.93842" lon="-3.85495">
        <ele>115.4</ele>
        <time>2024-09-07T07:13:49Z</time>
      </trkpt>
      <trkpt lat="47.93845" lon="-3.85492">
        <ele>115.6</ele>
        <time>2024-09-07T07:13:50Z</time>
      </trkpt>
      <trkpt lat="47.93849" lon="-3.8549">
        <ele>115.6</ele>
        <time>2024-09-07T07:13:51Z</time>
      </trkpt>
      <trkpt lat="47.93852" lon="-3.85487">
        <ele>115.8</ele>
        <time>2024-09-07T07:13:52Z</time>
      </trkpt>
      <trkpt lat="47.93856" lon="-3.85485">
        <ele>116</ele>
        <time>2024-09-07T07:13:53Z</time>
      </trkpt>
      <trkpt lat="47.93859" lon="-3.85483">
        <ele>116.2</ele>
        <time>2024-09-07T07:13:54Z</time>
      </trkpt>
      <trkpt lat="47.93862" lon="-3.85481">
        <ele>116.2</ele>
        <time>2024-09-07T07:13:55Z</time>
      </trkpt>
      <trkpt lat="47.93866" lon="-3.85478">
        <ele>116.4</ele>
        <time>2024-09-07T07:13:56Z</time>
      </trkpt>
      <trkpt lat="47.93869" lon="-3.85476">
        <ele>116.4</ele>
        <time>2024-09-07T07:13:57Z</time>
      </trkpt>
      <trkpt lat="47.93873" lon="-3.85474">
        <ele>116.6</ele>
        <time>2024-09-07T07:13:58Z</time>
      </trkpt>
      <trkpt lat="47.93876" lon="-3.85472">
        <ele>117</ele>
        <time>2024-09-07T07:13:59Z</time>
      </trkpt>
      <trkpt lat="47.93879" lon="-3.8547">
        <ele>117.2</ele>
        <time>2024-09-07T07:14:00Z</time>
      </trkpt>
      <trkpt lat="47.93882" lon="-3.85468">
        <ele>117.4</ele>
        <time>2024-09-07T07:14:01Z</time>
      </trkpt>
      <trkpt lat="47.93886" lon="-3.85466">
        <ele>117.6</ele>
        <time>2024-09-07T07:14:02Z</time>
      </trkpt>
      <trkpt lat="47.93889" lon="-3.85464">
        <ele>117.8</ele>
        <time>2024-09-07T07:14:03Z</time>
      </trkpt>
      <trkpt lat="47.93892" lon="-3.85462">
        <ele>117.8</ele>
        <time>2024-09-07T07:14:04Z</time>
      </trkpt>
      <trkpt lat="47.93896" lon="-3.8546">
        <ele>118</ele>
        <time>2024-09-07T07:14:05Z</time>
      </trkpt>
      <trkpt lat="47.93899" lon="-3.85458">
        <ele>118.2</ele>
        <time>2024-09-07T07:14:06Z</time>
      </trkpt>
      <trkpt lat="47.93902" lon="-3.85455">
        <ele>118.4</ele>
        <time>2024-09-07T07:14:07Z</time>
      </trkpt>
      <trkpt lat="47.93905" lon="-3.85453">
        <ele>118.6</ele>
        <time>2024-09-07T07:14:08Z</time>
      </trkpt>
      <trkpt lat="47.93909" lon="-3.85451">
        <ele>118.8</ele>
        <time>2024-09-07T07:14:09Z</time>
      </trkpt>
      <trkpt lat="47.93912" lon="-3.85449">
        <ele>119</ele>
        <time>2024-09-07T07:14:10Z</time>
      </trkpt>
      <trkpt lat="47.93915" lon="-3.85447">
        <ele>119.2</ele>
        <time>2024-09-07T07:14:11Z</time>
      </trkpt>
      <trkpt lat="47.93917" lon="-3.85445">
        <ele>119.2</ele>
        <time>2024-09-07T07:14:12Z</time>
      </trkpt>
      <trkpt lat="47.9392" lon="-3.85443">
        <ele>119.4</ele>
        <time>2024-09-07T07:14:13Z</time>
      </trkpt>
      <trkpt lat="47.93923" lon="-3.85441">
        <ele>119.4</ele>
        <time>2024-09-07T07:14:14Z</time>
      </trkpt>
      <trkpt lat="47.93926" lon="-3.85439">
        <ele>119.6</ele>
        <time>2024-09-07T07:14:15Z</time>
      </trkpt>
      <trkpt lat="47.93929" lon="-3.85437">
        <ele>119.8</ele>
        <time>2024-09-07T07:14:16Z</time>
      </trkpt>
      <trkpt lat="47.93932" lon="-3.85435">
        <ele>120</ele>
        <time>2024-09-07T07:14:17Z</time>
      </trkpt>
      <trkpt lat="47.93935" lon="-3.85433">
        <ele>120.2</ele>
        <time>2024-09-07T07:14:18Z</time>
      </trkpt>
      <trkpt lat="47.93939" lon="-3.85431">
        <ele>120.4</ele>
        <time>2024-09-07T07:14:19Z</time>
      </trkpt>
      <trkpt lat="47.93941" lon="-3.85429">
        <ele>120.6</ele>
        <time>2024-09-07T07:14:20Z</time>
      </trkpt>
      <trkpt lat="47.93945" lon="-3.85427">
        <ele>120.8</ele>
        <time>2024-09-07T07:14:21Z</time>
      </trkpt>
      <trkpt lat="47.93948" lon="-3.85425">
        <ele>121.2</ele>
        <time>2024-09-07T07:14:22Z</time>
      </trkpt>
      <trkpt lat="47.93951" lon="-3.85423">
        <ele>121.2</ele>
        <time>2024-09-07T07:14:23Z</time>
      </trkpt>
      <trkpt lat="47.93953" lon="-3.85421">
        <ele>121.2</ele>
        <time>2024-09-07T07:14:24Z</time>
      </trkpt>
      <trkpt lat="47.93956" lon="-3.85419">
        <ele>121.4</ele>
        <time>2024-09-07T07:14:25Z</time>
      </trkpt>
      <trkpt lat="47.93959" lon="-3.85417">
        <ele>121.6</ele>
        <time>2024-09-07T07:14:26Z</time>
      </trkpt>
      <trkpt lat="47.93962" lon="-3.85415">
        <ele>121.8</ele>
        <time>2024-09-07T07:14:27Z</time>
      </trkpt>
      <trkpt lat="47.93965" lon="-3.85413">
        <ele>122</ele>
        <time>2024-09-07T07:14:28Z</time>
      </trkpt>
      <trkpt lat="47.93968" lon="-3.85411">
        <ele>122.4</ele>
        <time>2024-09-07T07:14:29Z</time>
      </trkpt>
      <trkpt lat="47.93971" lon="-3.85408">
        <ele>122.6</ele>
        <time>2024-09-07T07:14:30Z</time>
      </trkpt>
      <trkpt lat="47.93974" lon="-3.85406">
        <ele>122.8</ele>
        <time>2024-09-07T07:14:31Z</time>
      </trkpt>
      <trkpt lat="47.93977" lon="-3.85405">
        <ele>123</ele>
        <time>2024-09-07T07:14:32Z</time>
      </trkpt>
      <trkpt lat="47.9398" lon="-3.85403">
        <ele>123.2</ele>
        <time>2024-09-07T07:14:33Z</time>
      </trkpt>
      <trkpt lat="47.93983" lon="-3.85401">
        <ele>123.4</ele>
        <time>2024-09-07T07:14:34Z</time>
      </trkpt>
      <trkpt lat="47.93986" lon="-3.85399">
        <ele>123.6</ele>
        <time>2024-09-07T07:14:35Z</time>
      </trkpt>
      <trkpt lat="47.93989" lon="-3.85398">
        <ele>123.8</ele>
        <time>2024-09-07T07:14:36Z</time>
      </trkpt>
      <trkpt lat="47.93992" lon="-3.85396">
        <ele>124</ele>
        <time>2024-09-07T07:14:37Z</time>
      </trkpt>
      <trkpt lat="47.93995" lon="-3.85395">
        <ele>124.4</ele>
        <time>2024-09-07T07:14:38Z</time>
      </trkpt>
      <trkpt lat="47.93998" lon="-3.85393">
        <ele>124.6</ele>
        <time>2024-09-07T07:14:39Z</time>
      </trkpt>
      <trkpt lat="47.94001" lon="-3.85392">
        <ele>124.8</ele>
        <time>2024-09-07T07:14:40Z</time>
      </trkpt>
      <trkpt lat="47.94004" lon="-3.85391">
        <ele>125</ele>
        <time>2024-09-07T07:14:41Z</time>
      </trkpt>
      <trkpt lat="47.94007" lon="-3.8539">
        <ele>125.2</ele>
        <time>2024-09-07T07:14:42Z</time>
      </trkpt>
      <trkpt lat="47.9401" lon="-3.85389">
        <ele>125.2</ele>
        <time>2024-09-07T07:14:43Z</time>
      </trkpt>
      <trkpt lat="47.94013" lon="-3.85388">
        <ele>125.2</ele>
        <time>2024-09-07T07:14:44Z</time>
      </trkpt>
      <trkpt lat="47.94016" lon="-3.85387">
        <ele>125.4</ele>
        <time>2024-09-07T07:14:45Z</time>
      </trkpt>
      <trkpt lat="47.94019" lon="-3.85387">
        <ele>125.6</ele>
        <time>2024-09-07T07:14:46Z</time>
      </trkpt>
      <trkpt lat="47.94023" lon="-3.85385">
        <ele>125.8</ele>
        <time>2024-09-07T07:14:47Z</time>
      </trkpt>
      <trkpt lat="47.94026" lon="-3.85384">
        <ele>126</ele>
        <time>2024-09-07T07:14:48Z</time>
      </trkpt>
      <trkpt lat="47.94029" lon="-3.85383">
        <ele>126</ele>
        <time>2024-09-07T07:14:49Z</time>
      </trkpt>
      <trkpt lat="47.94032" lon="-3.85382">
        <ele>126.4</ele>
        <time>2024-09-07T07:14:50Z</time>
      </trkpt>
      <trkpt lat="47.94036" lon="-3.85381">
        <ele>126.4</ele>
        <time>2024-09-07T07:14:51Z</time>
      </trkpt>
      <trkpt lat="47.94039" lon="-3.85381">
        <ele>126.6</ele>
        <time>2024-09-07T07:14:52Z</time>
      </trkpt>
      <trkpt lat="47.94043" lon="-3.85381">
        <ele>126.8</ele>
        <time>2024-09-07T07:14:53Z</time>
      </trkpt>
      <trkpt lat="47.94047" lon="-3.85381">
        <ele>126.8</ele>
        <time>2024-09-07T07:14:54Z</time>
      </trkpt>
      <trkpt lat="47.9405" lon="-3.85381">
        <ele>127</ele>
        <time>2024-09-07T07:14:55Z</time>
      </trkpt>
      <trkpt lat="47.94053" lon="-3.8538">
        <ele>127</ele>
        <time>2024-09-07T07:14:56Z</time>
      </trkpt>
      <trkpt lat="47.94057" lon="-3.8538">
        <ele>127.2</ele>
        <time>2024-09-07T07:14:57Z</time>
      </trkpt>
      <trkpt lat="47.94061" lon="-3.8538">
        <ele>127.4</ele>
        <time>2024-09-07T07:14:58Z</time>
      </trkpt>
      <trkpt lat="47.94065" lon="-3.8538">
        <ele>127.6</ele>
        <time>2024-09-07T07:14:59Z</time>
      </trkpt>
      <trkpt lat="47.94068" lon="-3.85379">
        <ele>127.6</ele>
        <time>2024-09-07T07:15:00Z</time>
      </trkpt>
      <trkpt lat="47.94072" lon="-3.85379">
        <ele>127.8</ele>
        <time>2024-09-07T07:15:01Z</time>
      </trkpt>
      <trkpt lat="47.94076" lon="-3.85378">
        <ele>128</ele>
        <time>2024-09-07T07:15:02Z</time>
      </trkpt>
      <trkpt lat="47.94079" lon="-3.85378">
        <ele>128</ele>
        <time>2024-09-07T07:15:03Z</time>
      </trkpt>
      <trkpt lat="47.94083" lon="-3.85378">
        <ele>128.2</ele>
        <time>2024-09-07T07:15:04Z</time>
      </trkpt>
      <trkpt lat="47.94087" lon="-3.85378">
        <ele>128.2</ele>
        <time>2024-09-07T07:15:05Z</time>
      </trkpt>
      <trkpt lat="47.94091" lon="-3.85378">
        <ele>128.2</ele>
        <time>2024-09-07T07:15:06Z</time>
      </trkpt>
      <trkpt lat="47.94095" lon="-3.85378">
        <ele>128.2</ele>
        <time>2024-09-07T07:15:07Z</time>
      </trkpt>
      <trkpt lat="47.94099" lon="-3.85377">
        <ele>128.4</ele>
        <time>2024-09-07T07:15:08Z</time>
      </trkpt>
      <trkpt lat="47.94102" lon="-3.85377">
        <ele>128.6</ele>
        <time>2024-09-07T07:15:09Z</time>
      </trkpt>
      <trkpt lat="47.94106" lon="-3.85376">
        <ele>128.6</ele>
        <time>2024-09-07T07:15:10Z</time>
      </trkpt>
      <trkpt lat="47.9411" lon="-3.85376">
        <ele>128.6</ele>
        <time>2024-09-07T07:15:11Z</time>
      </trkpt>
      <trkpt lat="47.94114" lon="-3.85375">
        <ele>128.8</ele>
        <time>2024-09-07T07:15:12Z</time>
      </trkpt>
      <trkpt lat="47.94118" lon="-3.85375">
        <ele>128.8</ele>
        <time>2024-09-07T07:15:13Z</time>
      </trkpt>
      <trkpt lat="47.94122" lon="-3.85374">
        <ele>128.8</ele>
        <time>2024-09-07T07:15:14Z</time>
      </trkpt>
      <trkpt lat="47.94126" lon="-3.85374">
        <ele>128.8</ele>
        <time>2024-09-07T07:15:15Z</time>
      </trkpt>
      <trkpt lat="47.94129" lon="-3.85373">
        <ele>128.8</ele>
        <time>2024-09-07T07:15:16Z</time>
      </trkpt>
      <trkpt lat="47.94133" lon="-3.85373">
        <ele>128.8</ele>
        <time>2024-09-07T07:15:17Z</time>
      </trkpt>
      <trkpt lat="47.94137" lon="-3.85372">
        <ele>129</ele>
        <time>2024-09-07T07:15:18Z</time>
      </trkpt>
      <trkpt lat="47.94141" lon="-3.85371">
        <ele>129</ele>
        <time>2024-09-07T07:15:19Z</time>
      </trkpt>
      <trkpt lat="47.94144" lon="-3.8537">
        <ele>129</ele>
        <time>2024-09-07T07:15:20Z</time>
      </trkpt>
      <trkpt lat="47.94148" lon="-3.85368">
        <ele>129</ele>
        <time>2024-09-07T07:15:21Z</time>
      </trkpt>
      <trkpt lat="47.94152" lon="-3.85366">
        <ele>129</ele>
        <time>2024-09-07T07:15:22Z</time>
      </trkpt>
      <trkpt lat="47.94155" lon="-3.85364">
        <ele>129.2</ele>
        <time>2024-09-07T07:15:23Z</time>
      </trkpt>
      <trkpt lat="47.94159" lon="-3.85362">
        <ele>129.2</ele>
        <time>2024-09-07T07:15:24Z</time>
      </trkpt>
      <trkpt lat="47.94163" lon="-3.8536">
        <ele>129.2</ele>
        <time>2024-09-07T07:15:25Z</time>
      </trkpt>
      <trkpt lat="47.94166" lon="-3.85357">
        <ele>129.4</ele>
        <time>2024-09-07T07:15:26Z</time>
      </trkpt>
      <trkpt lat="47.9417" lon="-3.85355">
        <ele>129.4</ele>
        <time>2024-09-07T07:15:27Z</time>
      </trkpt>
      <trkpt lat="47.94174" lon="-3.85352">
        <ele>129.4</ele>
        <time>2024-09-07T07:15:28Z</time>
      </trkpt>
      <trkpt lat="47.94177" lon="-3.8535">
        <ele>129.4</ele>
        <time>2024-09-07T07:15:29Z</time>
      </trkpt>
      <trkpt lat="47.94181" lon="-3.85347">
        <ele>129.4</ele>
        <time>2024-09-07T07:15:30Z</time>
      </trkpt>
      <trkpt lat="47.94184" lon="-3.85344">
        <ele>129.6</ele>
        <time>2024-09-07T07:15:31Z</time>
      </trkpt>
      <trkpt lat="47.94188" lon="-3.85342">
        <ele>129.6</ele>
        <time>2024-09-07T07:15:32Z</time>
      </trkpt>
      <trkpt lat="47.94192" lon="-3.85339">
        <ele>129.8</ele>
        <time>2024-09-07T07:15:33Z</time>
      </trkpt>
      <trkpt lat="47.94195" lon="-3.85336">
        <ele>129.8</ele>
        <time>2024-09-07T07:15:34Z</time>
      </trkpt>
      <trkpt lat="47.94199" lon="-3.85333">
        <ele>129.8</ele>
        <time>2024-09-07T07:15:35Z</time>
      </trkpt>
      <trkpt lat="47.94202" lon="-3.85329">
        <ele>130</ele>
        <time>2024-09-07T07:15:36Z</time>
      </trkpt>
      <trkpt lat="47.94205" lon="-3.85326">
        <ele>130</ele>
        <time>2024-09-07T07:15:37Z</time>
      </trkpt>
      <trkpt lat="47.94209" lon="-3.85322">
        <ele>130</ele>
        <time>2024-09-07T07:15:38Z</time>
      </trkpt>
      <trkpt lat="47.94212" lon="-3.85319">
        <ele>130</ele>
        <time>2024-09-07T07:15:39Z</time>
      </trkpt>
      <trkpt lat="47.94216" lon="-3.85315">
        <ele>130</ele>
        <time>2024-09-07T07:15:40Z</time>
      </trkpt>
      <trkpt lat="47.94219" lon="-3.85311">
        <ele>130.2</ele>
        <time>2024-09-07T07:15:41Z</time>
      </trkpt>
      <trkpt lat="47.94222" lon="-3.85307">
        <ele>130.2</ele>
        <time>2024-09-07T07:15:42Z</time>
      </trkpt>
      <trkpt lat="47.94225" lon="-3.85303">
        <ele>130.2</ele>
        <time>2024-09-07T07:15:43Z</time>
      </trkpt>
      <trkpt lat="47.94228" lon="-3.85299">
        <ele>130.2</ele>
        <time>2024-09-07T07:15:44Z</time>
      </trkpt>
      <trkpt lat="47.94231" lon="-3.85296">
        <ele>130.4</ele>
        <time>2024-09-07T07:15:45Z</time>
      </trkpt>
      <trkpt lat="47.94233" lon="-3.85293">
        <ele>130.4</ele>
        <time>2024-09-07T07:15:46Z</time>
      </trkpt>
      <trkpt lat="47.94236" lon="-3.8529">
        <ele>130.4</ele>
        <time>2024-09-07T07:15:47Z</time>
      </trkpt>
      <trkpt lat="47.94239" lon="-3.85286">
        <ele>130.4</ele>
        <time>2024-09-07T07:15:48Z</time>
      </trkpt>
      <trkpt lat="47.94242" lon="-3.85282">
        <ele>130.6</ele>
        <time>2024-09-07T07:15:49Z</time>
      </trkpt>
      <trkpt lat="47.94245" lon="-3.85278">
        <ele>130.6</ele>
        <time>2024-09-07T07:15:50Z</time>
      </trkpt>
      <trkpt lat="47.94248" lon="-3.85274">
        <ele>130.6</ele>
        <time>2024-09-07T07:15:51Z</time>
      </trkpt>
      <trkpt lat="47.94251" lon="-3.8527">
        <ele>130.6</ele>
        <time>2024-09-07T07:15:52Z</time>
      </trkpt>
      <trkpt lat="47.94254" lon="-3.85266">
        <ele>130.6</ele>
        <time>2024-09-07T07:15:53Z</time>
      </trkpt>
      <trkpt lat="47.94257" lon="-3.85262">
        <ele>130.6</ele>
        <time>2024-09-07T07:15:54Z</time>
      </trkpt>
      <trkpt lat="47.9426" lon="-3.85258">
        <ele>130.6</ele>
        <time>2024-09-07T07:15:55Z</time>
      </trkpt>
      <trkpt lat="47.94264" lon="-3.85255">
        <ele>130.6</ele>
        <time>2024-09-07T07:15:56Z</time>
      </trkpt>
      <trkpt lat="47.94267" lon="-3.85251">
        <ele>130.6</ele>
        <time>2024-09-07T07:15:57Z</time>
      </trkpt>
      <trkpt lat="47.9427" lon="-3.85246">
        <ele>130.6</ele>
        <time>2024-09-07T07:15:58Z</time>
      </trkpt>
      <trkpt lat="47.94273" lon="-3.85242">
        <ele>130.8</ele>
        <time>2024-09-07T07:15:59Z</time>
      </trkpt>
      <trkpt lat="47.94276" lon="-3.85238">
        <ele>130.8</ele>
        <time>2024-09-07T07:16:00Z</time>
      </trkpt>
      <trkpt lat="47.94279" lon="-3.85234">
        <ele>130.8</ele>
        <time>2024-09-07T07:16:01Z</time>
      </trkpt>
      <trkpt lat="47.94283" lon="-3.8523">
        <ele>130.6</ele>
        <time>2024-09-07T07:16:02Z</time>
      </trkpt>
      <trkpt lat="47.94286" lon="-3.85227">
        <ele>130.6</ele>
        <time>2024-09-07T07:16:03Z</time>
      </trkpt>
      <trkpt lat="47.94289" lon="-3.85223">
        <ele>130.6</ele>
        <time>2024-09-07T07:16:04Z</time>
      </trkpt>
      <trkpt lat="47.94292" lon="-3.85219">
        <ele>130.6</ele>
        <time>2024-09-07T07:16:05Z</time>
      </trkpt>
      <trkpt lat="47.94295" lon="-3.85215">
        <ele>130.6</ele>
        <time>2024-09-07T07:16:06Z</time>
      </trkpt>
      <trkpt lat="47.94298" lon="-3.85211">
        <ele>130.6</ele>
        <time>2024-09-07T07:16:07Z</time>
      </trkpt>
      <trkpt lat="47.94301" lon="-3.85207">
        <ele>130.6</ele>
        <time>2024-09-07T07:16:08Z</time>
      </trkpt>
      <trkpt lat="47.94305" lon="-3.85203">
        <ele>130.6</ele>
        <time>2024-09-07T07:16:09Z</time>
      </trkpt>
      <trkpt lat="47.94308" lon="-3.85198">
        <ele>130.6</ele>
        <time>2024-09-07T07:16:10Z</time>
      </trkpt>
      <trkpt lat="47.94311" lon="-3.85194">
        <ele>130.6</ele>
        <time>2024-09-07T07:16:11Z</time>
      </trkpt>
      <trkpt lat="47.94314" lon="-3.8519">
        <ele>130.6</ele>
        <time>2024-09-07T07:16:12Z</time>
      </trkpt>
      <trkpt lat="47.94317" lon="-3.85186">
        <ele>130.6</ele>
        <time>2024-09-07T07:16:13Z</time>
      </trkpt>
      <trkpt lat="47.94321" lon="-3.85181">
        <ele>130.6</ele>
        <time>2024-09-07T07:16:14Z</time>
      </trkpt>
      <trkpt lat="47.94324" lon="-3.85177">
        <ele>130.6</ele>
        <time>2024-09-07T07:16:15Z</time>
      </trkpt>
      <trkpt lat="47.94327" lon="-3.85174">
        <ele>130.6</ele>
        <time>2024-09-07T07:16:16Z</time>
      </trkpt>
      <trkpt lat="47.9433" lon="-3.8517">
        <ele>130.6</ele>
        <time>2024-09-07T07:16:17Z</time>
      </trkpt>
      <trkpt lat="47.94334" lon="-3.85167">
        <ele>130.6</ele>
        <time>2024-09-07T07:16:18Z</time>
      </trkpt>
      <trkpt lat="47.94337" lon="-3.85163">
        <ele>130.6</ele>
        <time>2024-09-07T07:16:19Z</time>
      </trkpt>
      <trkpt lat="47.94341" lon="-3.85159">
        <ele>130.6</ele>
        <time>2024-09-07T07:16:20Z</time>
      </trkpt>
      <trkpt lat="47.94344" lon="-3.85155">
        <ele>130.6</ele>
        <time>2024-09-07T07:16:21Z</time>
      </trkpt>
      <trkpt lat="47.94348" lon="-3.85151">
        <ele>130.6</ele>
        <time>2024-09-07T07:16:22Z</time>
      </trkpt>
      <trkpt lat="47.94352" lon="-3.85148">
        <ele>130.6</ele>
        <time>2024-09-07T07:16:23Z</time>
      </trkpt>
      <trkpt lat="47.94356" lon="-3.85144">
        <ele>130.6</ele>
        <time>2024-09-07T07:16:24Z</time>
      </trkpt>
      <trkpt lat="47.9436" lon="-3.85141">
        <ele>130.6</ele>
        <time>2024-09-07T07:16:25Z</time>
      </trkpt>
      <trkpt lat="47.94364" lon="-3.85137">
        <ele>130.6</ele>
        <time>2024-09-07T07:16:26Z</time>
      </trkpt>
      <trkpt lat="47.94368" lon="-3.85134">
        <ele>130.6</ele>
        <time>2024-09-07T07:16:27Z</time>
      </trkpt>
      <trkpt lat="47.94372" lon="-3.85131">
        <ele>130.6</ele>
        <time>2024-09-07T07:16:28Z</time>
      </trkpt>
      <trkpt lat="47.94376" lon="-3.85128">
        <ele>130.6</ele>
        <time>2024-09-07T07:16:29Z</time>
      </trkpt>
      <trkpt lat="47.9438" lon="-3.85125">
        <ele>130.6</ele>
        <time>2024-09-07T07:16:30Z</time>
      </trkpt>
      <trkpt lat="47.94384" lon="-3.85122">
        <ele>130.6</ele>
        <time>2024-09-07T07:16:31Z</time>
      </trkpt>
      <trkpt lat="47.94389" lon="-3.85119">
        <ele>130.6</ele>
        <time>2024-09-07T07:16:32Z</time>
      </trkpt>
      <trkpt lat="47.94393" lon="-3.85116">
        <ele>130.6</ele>
        <time>2024-09-07T07:16:33Z</time>
      </trkpt>
      <trkpt lat="47.94398" lon="-3.85113">
        <ele>130.6</ele>
        <time>2024-09-07T07:16:34Z</time>
      </trkpt>
      <trkpt lat="47.94402" lon="-3.8511">
        <ele>130.6</ele>
        <time>2024-09-07T07:16:35Z</time>
      </trkpt>
      <trkpt lat="47.94406" lon="-3.85107">
        <ele>130.6</ele>
        <time>2024-09-07T07:16:36Z</time>
      </trkpt>
      <trkpt lat="47.94411" lon="-3.85104">
        <ele>130.6</ele>
        <time>2024-09-07T07:16:37Z</time>
      </trkpt>
      <trkpt lat="47.94415" lon="-3.85101">
        <ele>130.6</ele>
        <time>2024-09-07T07:16:38Z</time>
      </trkpt>
      <trkpt lat="47.9442" lon="-3.85098">
        <ele>130.6</ele>
        <time>2024-09-07T07:16:39Z</time>
      </trkpt>
      <trkpt lat="47.94425" lon="-3.85094">
        <ele>130.6</ele>
        <time>2024-09-07T07:16:40Z</time>
      </trkpt>
      <trkpt lat="47.94429" lon="-3.85091">
        <ele>130.6</ele>
        <time>2024-09-07T07:16:41Z</time>
      </trkpt>
      <trkpt lat="47.94434" lon="-3.85088">
        <ele>130.6</ele>
        <time>2024-09-07T07:16:42Z</time>
      </trkpt>
      <trkpt lat="47.94438" lon="-3.85085">
        <ele>130.6</ele>
        <time>2024-09-07T07:16:43Z</time>
      </trkpt>
      <trkpt lat="47.94443" lon="-3.85082">
        <ele>130.6</ele>
        <time>2024-09-07T07:16:44Z</time>
      </trkpt>
      <trkpt lat="47.94447" lon="-3.85078">
        <ele>130.6</ele>
        <time>2024-09-07T07:16:45Z</time>
      </trkpt>
      <trkpt lat="47.94452" lon="-3.85075">
        <ele>130.6</ele>
        <time>2024-09-07T07:16:46Z</time>
      </trkpt>
      <trkpt lat="47.94456" lon="-3.85072">
        <ele>130.6</ele>
        <time>2024-09-07T07:16:47Z</time>
      </trkpt>
      <trkpt lat="47.9446" lon="-3.85069">
        <ele>130.6</ele>
        <time>2024-09-07T07:16:48Z</time>
      </trkpt>
      <trkpt lat="47.94465" lon="-3.85066">
        <ele>130.6</ele>
        <time>2024-09-07T07:16:49Z</time>
      </trkpt>
      <trkpt lat="47.94468" lon="-3.85063">
        <ele>130.6</ele>
        <time>2024-09-07T07:16:50Z</time>
      </trkpt>
      <trkpt lat="47.94472" lon="-3.8506">
        <ele>130.6</ele>
        <time>2024-09-07T07:16:51Z</time>
      </trkpt>
      <trkpt lat="47.94476" lon="-3.85057">
        <ele>130.6</ele>
        <time>2024-09-07T07:16:52Z</time>
      </trkpt>
      <trkpt lat="47.9448" lon="-3.85055">
        <ele>130.8</ele>
        <time>2024-09-07T07:16:53Z</time>
      </trkpt>
      <trkpt lat="47.94484" lon="-3.85051">
        <ele>130.8</ele>
        <time>2024-09-07T07:16:54Z</time>
      </trkpt>
      <trkpt lat="47.94488" lon="-3.85048">
        <ele>130.8</ele>
        <time>2024-09-07T07:16:55Z</time>
      </trkpt>
      <trkpt lat="47.94493" lon="-3.85045">
        <ele>131</ele>
        <time>2024-09-07T07:16:56Z</time>
      </trkpt>
      <trkpt lat="47.94497" lon="-3.85041">
        <ele>131</ele>
        <time>2024-09-07T07:16:57Z</time>
      </trkpt>
      <trkpt lat="47.94501" lon="-3.85038">
        <ele>131.2</ele>
        <time>2024-09-07T07:16:58Z</time>
      </trkpt>
      <trkpt lat="47.94504" lon="-3.85034">
        <ele>131.2</ele>
        <time>2024-09-07T07:16:59Z</time>
      </trkpt>
      <trkpt lat="47.94508" lon="-3.85031">
        <ele>131.2</ele>
        <time>2024-09-07T07:17:00Z</time>
      </trkpt>
      <trkpt lat="47.94512" lon="-3.85027">
        <ele>131.4</ele>
        <time>2024-09-07T07:17:01Z</time>
      </trkpt>
      <trkpt lat="47.94516" lon="-3.85023">
        <ele>131.6</ele>
        <time>2024-09-07T07:17:02Z</time>
      </trkpt>
      <trkpt lat="47.9452" lon="-3.8502">
        <ele>131.6</ele>
        <time>2024-09-07T07:17:03Z</time>
      </trkpt>
      <trkpt lat="47.94524" lon="-3.85016">
        <ele>131.6</ele>
        <time>2024-09-07T07:17:04Z</time>
      </trkpt>
      <trkpt lat="47.94528" lon="-3.85013">
        <ele>131.8</ele>
        <time>2024-09-07T07:17:05Z</time>
      </trkpt>
      <trkpt lat="47.94532" lon="-3.8501">
        <ele>132</ele>
        <time>2024-09-07T07:17:06Z</time>
      </trkpt>
      <trkpt lat="47.94535" lon="-3.85006">
        <ele>132.2</ele>
        <time>2024-09-07T07:17:07Z</time>
      </trkpt>
      <trkpt lat="47.94539" lon="-3.85003">
        <ele>132.4</ele>
        <time>2024-09-07T07:17:08Z</time>
      </trkpt>
      <trkpt lat="47.94542" lon="-3.84999">
        <ele>132.4</ele>
        <time>2024-09-07T07:17:09Z</time>
      </trkpt>
      <trkpt lat="47.94545" lon="-3.84995">
        <ele>132.6</ele>
        <time>2024-09-07T07:17:10Z</time>
      </trkpt>
      <trkpt lat="47.94549" lon="-3.84992">
        <ele>132.8</ele>
        <time>2024-09-07T07:17:11Z</time>
      </trkpt>
      <trkpt lat="47.94553" lon="-3.84988">
        <ele>133</ele>
        <time>2024-09-07T07:17:12Z</time>
      </trkpt>
      <trkpt lat="47.94556" lon="-3.84983">
        <ele>133</ele>
        <time>2024-09-07T07:17:13Z</time>
      </trkpt>
      <trkpt lat="47.9456" lon="-3.84979">
        <ele>133.2</ele>
        <time>2024-09-07T07:17:14Z</time>
      </trkpt>
      <trkpt lat="47.94563" lon="-3.84975">
        <ele>133.2</ele>
        <time>2024-09-07T07:17:15Z</time>
      </trkpt>
      <trkpt lat="47.94567" lon="-3.84971">
        <ele>133.4</ele>
        <time>2024-09-07T07:17:16Z</time>
      </trkpt>
      <trkpt lat="47.9457" lon="-3.84967">
        <ele>133.6</ele>
        <time>2024-09-07T07:17:17Z</time>
      </trkpt>
      <trkpt lat="47.94574" lon="-3.84963">
        <ele>133.8</ele>
        <time>2024-09-07T07:17:18Z</time>
      </trkpt>
      <trkpt lat="47.94577" lon="-3.84959">
        <ele>133.8</ele>
        <time>2024-09-07T07:17:19Z</time>
      </trkpt>
      <trkpt lat="47.94581" lon="-3.84955">
        <ele>134</ele>
        <time>2024-09-07T07:17:20Z</time>
      </trkpt>
      <trkpt lat="47.94584" lon="-3.84951">
        <ele>134.2</ele>
        <time>2024-09-07T07:17:21Z</time>
      </trkpt>
      <trkpt lat="47.94587" lon="-3.84947">
        <ele>134.2</ele>
        <time>2024-09-07T07:17:22Z</time>
      </trkpt>
      <trkpt lat="47.94591" lon="-3.84943">
        <ele>134.4</ele>
        <time>2024-09-07T07:17:23Z</time>
      </trkpt>
      <trkpt lat="47.94595" lon="-3.84939">
        <ele>134.6</ele>
        <time>2024-09-07T07:17:24Z</time>
      </trkpt>
      <trkpt lat="47.94598" lon="-3.84935">
        <ele>134.8</ele>
        <time>2024-09-07T07:17:25Z</time>
      </trkpt>
      <trkpt lat="47.94602" lon="-3.84931">
        <ele>134.8</ele>
        <time>2024-09-07T07:17:26Z</time>
      </trkpt>
      <trkpt lat="47.94605" lon="-3.84927">
        <ele>135</ele>
        <time>2024-09-07T07:17:27Z</time>
      </trkpt>
      <trkpt lat="47.94609" lon="-3.84923">
        <ele>135.2</ele>
        <time>2024-09-07T07:17:28Z</time>
      </trkpt>
      <trkpt lat="47.94613" lon="-3.84919">
        <ele>135.2</ele>
        <time>2024-09-07T07:17:29Z</time>
      </trkpt>
      <trkpt lat="47.94616" lon="-3.84915">
        <ele>135.4</ele>
        <time>2024-09-07T07:17:30Z</time>
      </trkpt>
      <trkpt lat="47.9462" lon="-3.84911">
        <ele>135.6</ele>
        <time>2024-09-07T07:17:31Z</time>
      </trkpt>
      <trkpt lat="47.94623" lon="-3.84907">
        <ele>135.6</ele>
        <time>2024-09-07T07:17:32Z</time>
      </trkpt>
      <trkpt lat="47.94627" lon="-3.84903">
        <ele>135.8</ele>
        <time>2024-09-07T07:17:33Z</time>
      </trkpt>
      <trkpt lat="47.94631" lon="-3.84899">
        <ele>136</ele>
        <time>2024-09-07T07:17:34Z</time>
      </trkpt>
      <trkpt lat="47.94634" lon="-3.84895">
        <ele>136</ele>
        <time>2024-09-07T07:17:35Z</time>
      </trkpt>
      <trkpt lat="47.94638" lon="-3.84891">
        <ele>136.2</ele>
        <time>2024-09-07T07:17:36Z</time>
      </trkpt>
      <trkpt lat="47.94642" lon="-3.84888">
        <ele>136.4</ele>
        <time>2024-09-07T07:17:37Z</time>
      </trkpt>
      <trkpt lat="47.94645" lon="-3.84884">
        <ele>136.4</ele>
        <time>2024-09-07T07:17:38Z</time>
      </trkpt>
      <trkpt lat="47.94649" lon="-3.8488">
        <ele>136.4</ele>
        <time>2024-09-07T07:17:39Z</time>
      </trkpt>
      <trkpt lat="47.94653" lon="-3.84876">
        <ele>136.6</ele>
        <time>2024-09-07T07:17:40Z</time>
      </trkpt>
      <trkpt lat="47.94656" lon="-3.84872">
        <ele>136.8</ele>
        <time>2024-09-07T07:17:41Z</time>
      </trkpt>
      <trkpt lat="47.9466" lon="-3.84867">
        <ele>137</ele>
        <time>2024-09-07T07:17:42Z</time>
      </trkpt>
      <trkpt lat="47.94663" lon="-3.84863">
        <ele>137</ele>
        <time>2024-09-07T07:17:43Z</time>
      </trkpt>
      <trkpt lat="47.94667" lon="-3.84859">
        <ele>137.2</ele>
        <time>2024-09-07T07:17:44Z</time>
      </trkpt>
      <trkpt lat="47.94671" lon="-3.84855">
        <ele>137.4</ele>
        <time>2024-09-07T07:17:45Z</time>
      </trkpt>
      <trkpt lat="47.94675" lon="-3.8485">
        <ele>137.6</ele>
        <time>2024-09-07T07:17:46Z</time>
      </trkpt>
      <trkpt lat="47.94678" lon="-3.84846">
        <ele>137.6</ele>
        <time>2024-09-07T07:17:47Z</time>
      </trkpt>
      <trkpt lat="47.94682" lon="-3.84841">
        <ele>137.8</ele>
        <time>2024-09-07T07:17:48Z</time>
      </trkpt>
      <trkpt lat="47.94686" lon="-3.84837">
        <ele>138</ele>
        <time>2024-09-07T07:17:49Z</time>
      </trkpt>
      <trkpt lat="47.9469" lon="-3.84833">
        <ele>138.2</ele>
        <time>2024-09-07T07:17:50Z</time>
      </trkpt>
      <trkpt lat="47.94694" lon="-3.84828">
        <ele>138.2</ele>
        <time>2024-09-07T07:17:51Z</time>
      </trkpt>
      <trkpt lat="47.94698" lon="-3.84824">
        <ele>138.4</ele>
        <time>2024-09-07T07:17:52Z</time>
      </trkpt>
      <trkpt lat="47.94702" lon="-3.8482">
        <ele>138.4</ele>
        <time>2024-09-07T07:17:53Z</time>
      </trkpt>
      <trkpt lat="47.94706" lon="-3.84815">
        <ele>138.4</ele>
        <time>2024-09-07T07:17:54Z</time>
      </trkpt>
      <trkpt lat="47.94711" lon="-3.8481">
        <ele>138.4</ele>
        <time>2024-09-07T07:17:55Z</time>
      </trkpt>
      <trkpt lat="47.94715" lon="-3.84806">
        <ele>138.6</ele>
        <time>2024-09-07T07:17:56Z</time>
      </trkpt>
      <trkpt lat="47.94719" lon="-3.84801">
        <ele>138.6</ele>
        <time>2024-09-07T07:17:57Z</time>
      </trkpt>
      <trkpt lat="47.94723" lon="-3.84796">
        <ele>138.6</ele>
        <time>2024-09-07T07:17:58Z</time>
      </trkpt>
      <trkpt lat="47.94727" lon="-3.84792">
        <ele>138.6</ele>
        <time>2024-09-07T07:17:59Z</time>
      </trkpt>
      <trkpt lat="47.94731" lon="-3.84787">
        <ele>138.6</ele>
        <time>2024-09-07T07:18:00Z</time>
      </trkpt>
      <trkpt lat="47.94735" lon="-3.84782">
        <ele>138.6</ele>
        <time>2024-09-07T07:18:01Z</time>
      </trkpt>
      <trkpt lat="47.9474" lon="-3.84777">
        <ele>138.6</ele>
        <time>2024-09-07T07:18:02Z</time>
      </trkpt>
      <trkpt lat="47.94744" lon="-3.84772">
        <ele>138.6</ele>
        <time>2024-09-07T07:18:03Z</time>
      </trkpt>
      <trkpt lat="47.94749" lon="-3.84767">
        <ele>138.6</ele>
        <time>2024-09-07T07:18:04Z</time>
      </trkpt>
      <trkpt lat="47.94753" lon="-3.84762">
        <ele>138.6</ele>
        <time>2024-09-07T07:18:05Z</time>
      </trkpt>
      <trkpt lat="47.94757" lon="-3.84757">
        <ele>138.6</ele>
        <time>2024-09-07T07:18:06Z</time>
      </trkpt>
      <trkpt lat="47.94762" lon="-3.84752">
        <ele>138.6</ele>
        <time>2024-09-07T07:18:07Z</time>
      </trkpt>
      <trkpt lat="47.94766" lon="-3.84747">
        <ele>138.6</ele>
        <time>2024-09-07T07:18:08Z</time>
      </trkpt>
      <trkpt lat="47.94771" lon="-3.84742">
        <ele>138.4</ele>
        <time>2024-09-07T07:18:09Z</time>
      </trkpt>
      <trkpt lat="47.94775" lon="-3.84736">
        <ele>138.4</ele>
        <time>2024-09-07T07:18:10Z</time>
      </trkpt>
      <trkpt lat="47.9478" lon="-3.84731">
        <ele>138.4</ele>
        <time>2024-09-07T07:18:11Z</time>
      </trkpt>
      <trkpt lat="47.94785" lon="-3.84726">
        <ele>138.2</ele>
        <time>2024-09-07T07:18:12Z</time>
      </trkpt>
      <trkpt lat="47.9479" lon="-3.8472">
        <ele>138.2</ele>
        <time>2024-09-07T07:18:13Z</time>
      </trkpt>
      <trkpt lat="47.94795" lon="-3.84714">
        <ele>138</ele>
        <time>2024-09-07T07:18:14Z</time>
      </trkpt>
      <trkpt lat="47.948" lon="-3.84708">
        <ele>137.8</ele>
        <time>2024-09-07T07:18:15Z</time>
      </trkpt>
      <trkpt lat="47.94804" lon="-3.84702">
        <ele>137.8</ele>
        <time>2024-09-07T07:18:16Z</time>
      </trkpt>
      <trkpt lat="47.94809" lon="-3.84697">
        <ele>137.6</ele>
        <time>2024-09-07T07:18:17Z</time>
      </trkpt>
      <trkpt lat="47.94813" lon="-3.84691">
        <ele>137.6</ele>
        <time>2024-09-07T07:18:18Z</time>
      </trkpt>
      <trkpt lat="47.94817" lon="-3.84684">
        <ele>137.4</ele>
        <time>2024-09-07T07:18:19Z</time>
      </trkpt>
      <trkpt lat="47.94822" lon="-3.84678">
        <ele>137.4</ele>
        <time>2024-09-07T07:18:20Z</time>
      </trkpt>
      <trkpt lat="47.94826" lon="-3.84672">
        <ele>137.2</ele>
        <time>2024-09-07T07:18:21Z</time>
      </trkpt>
      <trkpt lat="47.9483" lon="-3.84665">
        <ele>137</ele>
        <time>2024-09-07T07:18:22Z</time>
      </trkpt>
      <trkpt lat="47.94835" lon="-3.84659">
        <ele>137</ele>
        <time>2024-09-07T07:18:23Z</time>
      </trkpt>
      <trkpt lat="47.94839" lon="-3.84653">
        <ele>136.8</ele>
        <time>2024-09-07T07:18:24Z</time>
      </trkpt>
      <trkpt lat="47.94844" lon="-3.84647">
        <ele>136.8</ele>
        <time>2024-09-07T07:18:25Z</time>
      </trkpt>
      <trkpt lat="47.94848" lon="-3.8464">
        <ele>136.6</ele>
        <time>2024-09-07T07:18:26Z</time>
      </trkpt>
      <trkpt lat="47.94852" lon="-3.84634">
        <ele>136.6</ele>
        <time>2024-09-07T07:18:27Z</time>
      </trkpt>
      <trkpt lat="47.94857" lon="-3.84627">
        <ele>136.4</ele>
        <time>2024-09-07T07:18:28Z</time>
      </trkpt>
      <trkpt lat="47.94861" lon="-3.84621">
        <ele>136.2</ele>
        <time>2024-09-07T07:18:29Z</time>
      </trkpt>
      <trkpt lat="47.94865" lon="-3.84615">
        <ele>136</ele>
        <time>2024-09-07T07:18:30Z</time>
      </trkpt>
      <trkpt lat="47.94869" lon="-3.84608">
        <ele>136</ele>
        <time>2024-09-07T07:18:31Z</time>
      </trkpt>
      <trkpt lat="47.94874" lon="-3.84602">
        <ele>136.2</ele>
        <time>2024-09-07T07:18:32Z</time>
      </trkpt>
      <trkpt lat="47.94878" lon="-3.84595">
        <ele>135.8</ele>
        <time>2024-09-07T07:18:33Z</time>
      </trkpt>
      <trkpt lat="47.94882" lon="-3.84589">
        <ele>135.8</ele>
        <time>2024-09-07T07:18:34Z</time>
      </trkpt>
      <trkpt lat="47.94887" lon="-3.84583">
        <ele>136</ele>
        <time>2024-09-07T07:18:35Z</time>
      </trkpt>
      <trkpt lat="47.94891" lon="-3.84576">
        <ele>136</ele>
        <time>2024-09-07T07:18:36Z</time>
      </trkpt>
      <trkpt lat="47.94896" lon="-3.8457">
        <ele>136</ele>
        <time>2024-09-07T07:18:37Z</time>
      </trkpt>
      <trkpt lat="47.949" lon="-3.84563">
        <ele>135.6</ele>
        <time>2024-09-07T07:18:38Z</time>
      </trkpt>
      <trkpt lat="47.94905" lon="-3.84557">
        <ele>135.6</ele>
        <time>2024-09-07T07:18:39Z</time>
      </trkpt>
      <trkpt lat="47.94909" lon="-3.8455">
        <ele>135.4</ele>
        <time>2024-09-07T07:18:40Z</time>
      </trkpt>
      <trkpt lat="47.94914" lon="-3.84543">
        <ele>135.4</ele>
        <time>2024-09-07T07:18:41Z</time>
      </trkpt>
      <trkpt lat="47.94918" lon="-3.84537">
        <ele>135.2</ele>
        <time>2024-09-07T07:18:42Z</time>
      </trkpt>
      <trkpt lat="47.94922" lon="-3.8453">
        <ele>135.2</ele>
        <time>2024-09-07T07:18:43Z</time>
      </trkpt>
      <trkpt lat="47.94926" lon="-3.84524">
        <ele>135.2</ele>
        <time>2024-09-07T07:18:44Z</time>
      </trkpt>
      <trkpt lat="47.94931" lon="-3.84518">
        <ele>135</ele>
        <time>2024-09-07T07:18:45Z</time>
      </trkpt>
      <trkpt lat="47.94935" lon="-3.84511">
        <ele>135</ele>
        <time>2024-09-07T07:18:46Z</time>
      </trkpt>
      <trkpt lat="47.9494" lon="-3.84505">
        <ele>135</ele>
        <time>2024-09-07T07:18:47Z</time>
      </trkpt>
      <trkpt lat="47.94943" lon="-3.84499">
        <ele>134.8</ele>
        <time>2024-09-07T07:18:48Z</time>
      </trkpt>
      <trkpt lat="47.94947" lon="-3.84492">
        <ele>134.8</ele>
        <time>2024-09-07T07:18:49Z</time>
      </trkpt>
      <trkpt lat="47.94951" lon="-3.84486">
        <ele>134.8</ele>
        <time>2024-09-07T07:18:50Z</time>
      </trkpt>
      <trkpt lat="47.94955" lon="-3.8448">
        <ele>134.8</ele>
        <time>2024-09-07T07:18:51Z</time>
      </trkpt>
      <trkpt lat="47.94959" lon="-3.84474">
        <ele>134.6</ele>
        <time>2024-09-07T07:18:52Z</time>
      </trkpt>
      <trkpt lat="47.94964" lon="-3.84468">
        <ele>134.6</ele>
        <time>2024-09-07T07:18:53Z</time>
      </trkpt>
      <trkpt lat="47.94968" lon="-3.84462">
        <ele>134.6</ele>
        <time>2024-09-07T07:18:54Z</time>
      </trkpt>
      <trkpt lat="47.94971" lon="-3.84456">
        <ele>134.6</ele>
        <time>2024-09-07T07:18:55Z</time>
      </trkpt>
      <trkpt lat="47.94975" lon="-3.8445">
        <ele>134.4</ele>
        <time>2024-09-07T07:18:56Z</time>
      </trkpt>
      <trkpt lat="47.94979" lon="-3.84443">
        <ele>134.4</ele>
        <time>2024-09-07T07:18:57Z</time>
      </trkpt>
      <trkpt lat="47.94983" lon="-3.84437">
        <ele>134.4</ele>
        <time>2024-09-07T07:18:58Z</time>
      </trkpt>
      <trkpt lat="47.94986" lon="-3.8443">
        <ele>134.4</ele>
        <time>2024-09-07T07:18:59Z</time>
      </trkpt>
      <trkpt lat="47.9499" lon="-3.84424">
        <ele>134.4</ele>
        <time>2024-09-07T07:19:00Z</time>
      </trkpt>
      <trkpt lat="47.94994" lon="-3.84417">
        <ele>134.2</ele>
        <time>2024-09-07T07:19:01Z</time>
      </trkpt>
      <trkpt lat="47.94998" lon="-3.84411">
        <ele>134.2</ele>
        <time>2024-09-07T07:19:02Z</time>
      </trkpt>
      <trkpt lat="47.95001" lon="-3.84405">
        <ele>134.2</ele>
        <time>2024-09-07T07:19:03Z</time>
      </trkpt>
      <trkpt lat="47.95005" lon="-3.84399">
        <ele>134.2</ele>
        <time>2024-09-07T07:19:04Z</time>
      </trkpt>
      <trkpt lat="47.95009" lon="-3.84393">
        <ele>134.2</ele>
        <time>2024-09-07T07:19:05Z</time>
      </trkpt>
      <trkpt lat="47.95013" lon="-3.84387">
        <ele>134.2</ele>
        <time>2024-09-07T07:19:06Z</time>
      </trkpt>
      <trkpt lat="47.95016" lon="-3.84381">
        <ele>134.2</ele>
        <time>2024-09-07T07:19:07Z</time>
      </trkpt>
      <trkpt lat="47.9502" lon="-3.84375">
        <ele>134.2</ele>
        <time>2024-09-07T07:19:08Z</time>
      </trkpt>
      <trkpt lat="47.95023" lon="-3.8437">
        <ele>134.2</ele>
        <time>2024-09-07T07:19:09Z</time>
      </trkpt>
      <trkpt lat="47.95027" lon="-3.84364">
        <ele>134.2</ele>
        <time>2024-09-07T07:19:10Z</time>
      </trkpt>
      <trkpt lat="47.9503" lon="-3.84358">
        <ele>134.4</ele>
        <time>2024-09-07T07:19:11Z</time>
      </trkpt>
      <trkpt lat="47.95034" lon="-3.84352">
        <ele>134.4</ele>
        <time>2024-09-07T07:19:12Z</time>
      </trkpt>
      <trkpt lat="47.95037" lon="-3.84346">
        <ele>134.6</ele>
        <time>2024-09-07T07:19:13Z</time>
      </trkpt>
      <trkpt lat="47.95041" lon="-3.8434">
        <ele>134.6</ele>
        <time>2024-09-07T07:19:14Z</time>
      </trkpt>
      <trkpt lat="47.95044" lon="-3.84334">
        <ele>134.8</ele>
        <time>2024-09-07T07:19:15Z</time>
      </trkpt>
      <trkpt lat="47.95048" lon="-3.84328">
        <ele>134.8</ele>
        <time>2024-09-07T07:19:16Z</time>
      </trkpt>
      <trkpt lat="47.95051" lon="-3.84322">
        <ele>134.8</ele>
        <time>2024-09-07T07:19:17Z</time>
      </trkpt>
      <trkpt lat="47.95054" lon="-3.84316">
        <ele>134.8</ele>
        <time>2024-09-07T07:19:18Z</time>
      </trkpt>
      <trkpt lat="47.95058" lon="-3.84311">
        <ele>135</ele>
        <time>2024-09-07T07:19:19Z</time>
      </trkpt>
      <trkpt lat="47.95061" lon="-3.84305">
        <ele>135</ele>
        <time>2024-09-07T07:19:20Z</time>
      </trkpt>
      <trkpt lat="47.95065" lon="-3.84299">
        <ele>135.2</ele>
        <time>2024-09-07T07:19:21Z</time>
      </trkpt>
      <trkpt lat="47.95068" lon="-3.84294">
        <ele>135</ele>
        <time>2024-09-07T07:19:22Z</time>
      </trkpt>
      <trkpt lat="47.95071" lon="-3.84288">
        <ele>135.2</ele>
        <time>2024-09-07T07:19:23Z</time>
      </trkpt>
      <trkpt lat="47.95074" lon="-3.84282">
        <ele>135.2</ele>
        <time>2024-09-07T07:19:24Z</time>
      </trkpt>
      <trkpt lat="47.95078" lon="-3.84277">
        <ele>135.6</ele>
        <time>2024-09-07T07:19:25Z</time>
      </trkpt>
      <trkpt lat="47.95081" lon="-3.84271">
        <ele>135.4</ele>
        <time>2024-09-07T07:19:26Z</time>
      </trkpt>
      <trkpt lat="47.95084" lon="-3.84266">
        <ele>135.6</ele>
        <time>2024-09-07T07:19:27Z</time>
      </trkpt>
      <trkpt lat="47.95088" lon="-3.8426">
        <ele>135.8</ele>
        <time>2024-09-07T07:19:28Z</time>
      </trkpt>
      <trkpt lat="47.95091" lon="-3.84255">
        <ele>136</ele>
        <time>2024-09-07T07:19:29Z</time>
      </trkpt>
      <trkpt lat="47.95094" lon="-3.84249">
        <ele>136.2</ele>
        <time>2024-09-07T07:19:30Z</time>
      </trkpt>
      <trkpt lat="47.95097" lon="-3.84244">
        <ele>136.2</ele>
        <time>2024-09-07T07:19:31Z</time>
      </trkpt>
      <trkpt lat="47.951" lon="-3.84239">
        <ele>136.4</ele>
        <time>2024-09-07T07:19:32Z</time>
      </trkpt>
      <trkpt lat="47.95103" lon="-3.84234">
        <ele>136.4</ele>
        <time>2024-09-07T07:19:33Z</time>
      </trkpt>
      <trkpt lat="47.95106" lon="-3.84228">
        <ele>136.6</ele>
        <time>2024-09-07T07:19:34Z</time>
      </trkpt>
      <trkpt lat="47.95109" lon="-3.84223">
        <ele>136.6</ele>
        <time>2024-09-07T07:19:35Z</time>
      </trkpt>
      <trkpt lat="47.95112" lon="-3.84218">
        <ele>136.8</ele>
        <time>2024-09-07T07:19:36Z</time>
      </trkpt>
      <trkpt lat="47.95116" lon="-3.84212">
        <ele>137</ele>
        <time>2024-09-07T07:19:37Z</time>
      </trkpt>
      <trkpt lat="47.95119" lon="-3.84207">
        <ele>137</ele>
        <time>2024-09-07T07:19:38Z</time>
      </trkpt>
      <trkpt lat="47.95123" lon="-3.84201">
        <ele>137.2</ele>
        <time>2024-09-07T07:19:39Z</time>
      </trkpt>
      <trkpt lat="47.95126" lon="-3.84196">
        <ele>137.4</ele>
        <time>2024-09-07T07:19:40Z</time>
      </trkpt>
      <trkpt lat="47.95129" lon="-3.84191">
        <ele>137.6</ele>
        <time>2024-09-07T07:19:41Z</time>
      </trkpt>
      <trkpt lat="47.95133" lon="-3.84185">
        <ele>137.8</ele>
        <time>2024-09-07T07:19:42Z</time>
      </trkpt>
      <trkpt lat="47.95136" lon="-3.8418">
        <ele>138</ele>
        <time>2024-09-07T07:19:43Z</time>
      </trkpt>
      <trkpt lat="47.95139" lon="-3.84175">
        <ele>138</ele>
        <time>2024-09-07T07:19:44Z</time>
      </trkpt>
      <trkpt lat="47.95142" lon="-3.8417">
        <ele>138.2</ele>
        <time>2024-09-07T07:19:45Z</time>
      </trkpt>
      <trkpt lat="47.95145" lon="-3.84164">
        <ele>138.4</ele>
        <time>2024-09-07T07:19:46Z</time>
      </trkpt>
      <trkpt lat="47.95149" lon="-3.84159">
        <ele>138.6</ele>
        <time>2024-09-07T07:19:47Z</time>
      </trkpt>
      <trkpt lat="47.95152" lon="-3.84154">
        <ele>138.6</ele>
        <time>2024-09-07T07:19:48Z</time>
      </trkpt>
      <trkpt lat="47.95155" lon="-3.84148">
        <ele>138.8</ele>
        <time>2024-09-07T07:19:49Z</time>
      </trkpt>
      <trkpt lat="47.95158" lon="-3.84143">
        <ele>139</ele>
        <time>2024-09-07T07:19:50Z</time>
      </trkpt>
      <trkpt lat="47.95161" lon="-3.84138">
        <ele>139.2</ele>
        <time>2024-09-07T07:19:51Z</time>
      </trkpt>
      <trkpt lat="47.95165" lon="-3.84133">
        <ele>139.4</ele>
        <time>2024-09-07T07:19:52Z</time>
      </trkpt>
      <trkpt lat="47.95168" lon="-3.84127">
        <ele>139.4</ele>
        <time>2024-09-07T07:19:53Z</time>
      </trkpt>
      <trkpt lat="47.95171" lon="-3.84121">
        <ele>139.6</ele>
        <time>2024-09-07T07:19:54Z</time>
      </trkpt>
      <trkpt lat="47.95173" lon="-3.84115">
        <ele>139.6</ele>
        <time>2024-09-07T07:19:55Z</time>
      </trkpt>
      <trkpt lat="47.95175" lon="-3.84109">
        <ele>139.8</ele>
        <time>2024-09-07T07:19:56Z</time>
      </trkpt>
      <trkpt lat="47.95177" lon="-3.84102">
        <ele>139.8</ele>
        <time>2024-09-07T07:19:57Z</time>
      </trkpt>
      <trkpt lat="47.95178" lon="-3.84095">
        <ele>140</ele>
        <time>2024-09-07T07:19:58Z</time>
      </trkpt>
      <trkpt lat="47.95179" lon="-3.84088">
        <ele>140</ele>
        <time>2024-09-07T07:19:59Z</time>
      </trkpt>
      <trkpt lat="47.95181" lon="-3.84082">
        <ele>140.2</ele>
        <time>2024-09-07T07:20:00Z</time>
      </trkpt>
      <trkpt lat="47.95184" lon="-3.84077">
        <ele>140.2</ele>
        <time>2024-09-07T07:20:01Z</time>
      </trkpt>
      <trkpt lat="47.95188" lon="-3.84072">
        <ele>140.4</ele>
        <time>2024-09-07T07:20:02Z</time>
      </trkpt>
      <trkpt lat="47.95192" lon="-3.84068">
        <ele>140.6</ele>
        <time>2024-09-07T07:20:03Z</time>
      </trkpt>
      <trkpt lat="47.95196" lon="-3.84066">
        <ele>140.8</ele>
        <time>2024-09-07T07:20:04Z</time>
      </trkpt>
      <trkpt lat="47.952" lon="-3.84063">
        <ele>140.8</ele>
        <time>2024-09-07T07:20:05Z</time>
      </trkpt>
      <trkpt lat="47.95204" lon="-3.8406">
        <ele>141</ele>
        <time>2024-09-07T07:20:06Z</time>
      </trkpt>
      <trkpt lat="47.95208" lon="-3.84055">
        <ele>141.2</ele>
        <time>2024-09-07T07:20:07Z</time>
      </trkpt>
      <trkpt lat="47.95212" lon="-3.8405">
        <ele>141.4</ele>
        <time>2024-09-07T07:20:08Z</time>
      </trkpt>
      <trkpt lat="47.95216" lon="-3.84045">
        <ele>141.4</ele>
        <time>2024-09-07T07:20:09Z</time>
      </trkpt>
      <trkpt lat="47.95219" lon="-3.84039">
        <ele>141.6</ele>
        <time>2024-09-07T07:20:10Z</time>
      </trkpt>
      <trkpt lat="47.95222" lon="-3.84033">
        <ele>141.8</ele>
        <time>2024-09-07T07:20:11Z</time>
      </trkpt>
      <trkpt lat="47.95225" lon="-3.84027">
        <ele>141.8</ele>
        <time>2024-09-07T07:20:12Z</time>
      </trkpt>
      <trkpt lat="47.95228" lon="-3.84022">
        <ele>142</ele>
        <time>2024-09-07T07:20:13Z</time>
      </trkpt>
      <trkpt lat="47.95232" lon="-3.84017">
        <ele>142.2</ele>
        <time>2024-09-07T07:20:14Z</time>
      </trkpt>
      <trkpt lat="47.95235" lon="-3.84011">
        <ele>142.2</ele>
        <time>2024-09-07T07:20:15Z</time>
      </trkpt>
      <trkpt lat="47.95238" lon="-3.84006">
        <ele>142.2</ele>
        <time>2024-09-07T07:20:16Z</time>
      </trkpt>
      <trkpt lat="47.95241" lon="-3.84001">
        <ele>142.4</ele>
        <time>2024-09-07T07:20:17Z</time>
      </trkpt>
      <trkpt lat="47.95244" lon="-3.83995">
        <ele>142.4</ele>
        <time>2024-09-07T07:20:18Z</time>
      </trkpt>
      <trkpt lat="47.95248" lon="-3.8399">
        <ele>142.4</ele>
        <time>2024-09-07T07:20:19Z</time>
      </trkpt>
      <trkpt lat="47.95251" lon="-3.83985">
        <ele>142.4</ele>
        <time>2024-09-07T07:20:20Z</time>
      </trkpt>
      <trkpt lat="47.95254" lon="-3.83979">
        <ele>142.6</ele>
        <time>2024-09-07T07:20:21Z</time>
      </trkpt>
      <trkpt lat="47.95257" lon="-3.83974">
        <ele>142.6</ele>
        <time>2024-09-07T07:20:22Z</time>
      </trkpt>
      <trkpt lat="47.95261" lon="-3.83969">
        <ele>142.8</ele>
        <time>2024-09-07T07:20:23Z</time>
      </trkpt>
      <trkpt lat="47.95264" lon="-3.83964">
        <ele>142.8</ele>
        <time>2024-09-07T07:20:24Z</time>
      </trkpt>
      <trkpt lat="47.95267" lon="-3.83958">
        <ele>142.8</ele>
        <time>2024-09-07T07:20:25Z</time>
      </trkpt>
      <trkpt lat="47.9527" lon="-3.83953">
        <ele>143</ele>
        <time>2024-09-07T07:20:26Z</time>
      </trkpt>
      <trkpt lat="47.95274" lon="-3.83947">
        <ele>143</ele>
        <time>2024-09-07T07:20:27Z</time>
      </trkpt>
      <trkpt lat="47.95277" lon="-3.83941">
        <ele>143.2</ele>
        <time>2024-09-07T07:20:28Z</time>
      </trkpt>
      <trkpt lat="47.9528" lon="-3.83936">
        <ele>143.2</ele>
        <time>2024-09-07T07:20:29Z</time>
      </trkpt>
      <trkpt lat="47.95284" lon="-3.8393">
        <ele>143.4</ele>
        <time>2024-09-07T07:20:30Z</time>
      </trkpt>
      <trkpt lat="47.95287" lon="-3.83924">
        <ele>143.4</ele>
        <time>2024-09-07T07:20:31Z</time>
      </trkpt>
      <trkpt lat="47.9529" lon="-3.83918">
        <ele>143.6</ele>
        <time>2024-09-07T07:20:32Z</time>
      </trkpt>
      <trkpt lat="47.95294" lon="-3.83912">
        <ele>143.6</ele>
        <time>2024-09-07T07:20:33Z</time>
      </trkpt>
      <trkpt lat="47.95297" lon="-3.83906">
        <ele>143.6</ele>
        <time>2024-09-07T07:20:34Z</time>
      </trkpt>
      <trkpt lat="47.95301" lon="-3.839">
        <ele>143.8</ele>
        <time>2024-09-07T07:20:35Z</time>
      </trkpt>
      <trkpt lat="47.95305" lon="-3.83894">
        <ele>143.8</ele>
        <time>2024-09-07T07:20:36Z</time>
      </trkpt>
      <trkpt lat="47.95309" lon="-3.83889">
        <ele>143.8</ele>
        <time>2024-09-07T07:20:37Z</time>
      </trkpt>
      <trkpt lat="47.95312" lon="-3.83883">
        <ele>143.8</ele>
        <time>2024-09-07T07:20:38Z</time>
      </trkpt>
      <trkpt lat="47.95316" lon="-3.83877">
        <ele>143.8</ele>
        <time>2024-09-07T07:20:39Z</time>
      </trkpt>
      <trkpt lat="47.95319" lon="-3.83871">
        <ele>143.8</ele>
        <time>2024-09-07T07:20:40Z</time>
      </trkpt>
      <trkpt lat="47.95322" lon="-3.83865">
        <ele>144</ele>
        <time>2024-09-07T07:20:41Z</time>
      </trkpt>
      <trkpt lat="47.95326" lon="-3.83859">
        <ele>144</ele>
        <time>2024-09-07T07:20:42Z</time>
      </trkpt>
      <trkpt lat="47.95329" lon="-3.83854">
        <ele>144</ele>
        <time>2024-09-07T07:20:43Z</time>
      </trkpt>
      <trkpt lat="47.95333" lon="-3.83848">
        <ele>144.2</ele>
        <time>2024-09-07T07:20:44Z</time>
      </trkpt>
      <trkpt lat="47.95336" lon="-3.83842">
        <ele>144.2</ele>
        <time>2024-09-07T07:20:45Z</time>
      </trkpt>
      <trkpt lat="47.95339" lon="-3.83837">
        <ele>144.2</ele>
        <time>2024-09-07T07:20:46Z</time>
      </trkpt>
      <trkpt lat="47.95343" lon="-3.83831">
        <ele>144.4</ele>
        <time>2024-09-07T07:20:47Z</time>
      </trkpt>
      <trkpt lat="47.95346" lon="-3.83825">
        <ele>144.4</ele>
        <time>2024-09-07T07:20:48Z</time>
      </trkpt>
      <trkpt lat="47.9535" lon="-3.8382">
        <ele>144.4</ele>
        <time>2024-09-07T07:20:49Z</time>
      </trkpt>
      <trkpt lat="47.95353" lon="-3.83814">
        <ele>144.4</ele>
        <time>2024-09-07T07:20:50Z</time>
      </trkpt>
      <trkpt lat="47.95356" lon="-3.83808">
        <ele>144.6</ele>
        <time>2024-09-07T07:20:51Z</time>
      </trkpt>
      <trkpt lat="47.9536" lon="-3.83802">
        <ele>144.6</ele>
        <time>2024-09-07T07:20:52Z</time>
      </trkpt>
      <trkpt lat="47.95363" lon="-3.83796">
        <ele>144.6</ele>
        <time>2024-09-07T07:20:53Z</time>
      </trkpt>
      <trkpt lat="47.95366" lon="-3.8379">
        <ele>144.6</ele>
        <time>2024-09-07T07:20:54Z</time>
      </trkpt>
      <trkpt lat="47.9537" lon="-3.83784">
        <ele>144.8</ele>
        <time>2024-09-07T07:20:55Z</time>
      </trkpt>
      <trkpt lat="47.95373" lon="-3.83778">
        <ele>145</ele>
        <time>2024-09-07T07:20:56Z</time>
      </trkpt>
      <trkpt lat="47.95375" lon="-3.83772">
        <ele>145</ele>
        <time>2024-09-07T07:20:57Z</time>
      </trkpt>
      <trkpt lat="47.95378" lon="-3.83765">
        <ele>145</ele>
        <time>2024-09-07T07:20:58Z</time>
      </trkpt>
      <trkpt lat="47.95379" lon="-3.83758">
        <ele>145</ele>
        <time>2024-09-07T07:20:59Z</time>
      </trkpt>
      <trkpt lat="47.9538" lon="-3.83751">
        <ele>145.2</ele>
        <time>2024-09-07T07:21:00Z</time>
      </trkpt>
      <trkpt lat="47.95382" lon="-3.83744">
        <ele>145.2</ele>
        <time>2024-09-07T07:21:01Z</time>
      </trkpt>
      <trkpt lat="47.95384" lon="-3.83737">
        <ele>145.4</ele>
        <time>2024-09-07T07:21:02Z</time>
      </trkpt>
      <trkpt lat="47.95387" lon="-3.83731">
        <ele>145.4</ele>
        <time>2024-09-07T07:21:03Z</time>
      </trkpt>
      <trkpt lat="47.95391" lon="-3.83726">
        <ele>145.4</ele>
        <time>2024-09-07T07:21:04Z</time>
      </trkpt>
      <trkpt lat="47.95395" lon="-3.8372">
        <ele>145.6</ele>
        <time>2024-09-07T07:21:05Z</time>
      </trkpt>
      <trkpt lat="47.95399" lon="-3.83715">
        <ele>145.6</ele>
        <time>2024-09-07T07:21:06Z</time>
      </trkpt>
      <trkpt lat="47.95402" lon="-3.83708">
        <ele>145.6</ele>
        <time>2024-09-07T07:21:07Z</time>
      </trkpt>
      <trkpt lat="47.95405" lon="-3.83702">
        <ele>145.8</ele>
        <time>2024-09-07T07:21:08Z</time>
      </trkpt>
      <trkpt lat="47.95408" lon="-3.83695">
        <ele>145.8</ele>
        <time>2024-09-07T07:21:09Z</time>
      </trkpt>
      <trkpt lat="47.9541" lon="-3.83687">
        <ele>146.2</ele>
        <time>2024-09-07T07:21:10Z</time>
      </trkpt>
      <trkpt lat="47.95412" lon="-3.8368">
        <ele>146</ele>
        <time>2024-09-07T07:21:11Z</time>
      </trkpt>
      <trkpt lat="47.95414" lon="-3.83673">
        <ele>146.2</ele>
        <time>2024-09-07T07:21:12Z</time>
      </trkpt>
      <trkpt lat="47.95416" lon="-3.83666">
        <ele>146.2</ele>
        <time>2024-09-07T07:21:13Z</time>
      </trkpt>
      <trkpt lat="47.95418" lon="-3.83658">
        <ele>146.2</ele>
        <time>2024-09-07T07:21:14Z</time>
      </trkpt>
      <trkpt lat="47.9542" lon="-3.83651">
        <ele>146.2</ele>
        <time>2024-09-07T07:21:15Z</time>
      </trkpt>
      <trkpt lat="47.95422" lon="-3.83644">
        <ele>146.4</ele>
        <time>2024-09-07T07:21:16Z</time>
      </trkpt>
      <trkpt lat="47.95423" lon="-3.83636">
        <ele>146.4</ele>
        <time>2024-09-07T07:21:17Z</time>
      </trkpt>
      <trkpt lat="47.95425" lon="-3.83629">
        <ele>146.4</ele>
        <time>2024-09-07T07:21:18Z</time>
      </trkpt>
      <trkpt lat="47.95426" lon="-3.83621">
        <ele>146.4</ele>
        <time>2024-09-07T07:21:19Z</time>
      </trkpt>
      <trkpt lat="47.95428" lon="-3.83613">
        <ele>146.4</ele>
        <time>2024-09-07T07:21:20Z</time>
      </trkpt>
      <trkpt lat="47.95429" lon="-3.83606">
        <ele>146.6</ele>
        <time>2024-09-07T07:21:21Z</time>
      </trkpt>
      <trkpt lat="47.95431" lon="-3.83598">
        <ele>146.6</ele>
        <time>2024-09-07T07:21:22Z</time>
      </trkpt>
      <trkpt lat="47.95432" lon="-3.8359">
        <ele>146.6</ele>
        <time>2024-09-07T07:21:23Z</time>
      </trkpt>
      <trkpt lat="47.95433" lon="-3.83582">
        <ele>146.6</ele>
        <time>2024-09-07T07:21:24Z</time>
      </trkpt>
      <trkpt lat="47.95434" lon="-3.83573">
        <ele>146.6</ele>
        <time>2024-09-07T07:21:25Z</time>
      </trkpt>
      <trkpt lat="47.95435" lon="-3.83565">
        <ele>146.6</ele>
        <time>2024-09-07T07:21:26Z</time>
      </trkpt>
      <trkpt lat="47.95436" lon="-3.83556">
        <ele>146.6</ele>
        <time>2024-09-07T07:21:27Z</time>
      </trkpt>
      <trkpt lat="47.95436" lon="-3.83548">
        <ele>146.6</ele>
        <time>2024-09-07T07:21:28Z</time>
      </trkpt>
      <trkpt lat="47.95436" lon="-3.83539">
        <ele>146.6</ele>
        <time>2024-09-07T07:21:29Z</time>
      </trkpt>
      <trkpt lat="47.95437" lon="-3.8353">
        <ele>146.6</ele>
        <time>2024-09-07T07:21:30Z</time>
      </trkpt>
      <trkpt lat="47.95437" lon="-3.83521">
        <ele>146.6</ele>
        <time>2024-09-07T07:21:31Z</time>
      </trkpt>
      <trkpt lat="47.95438" lon="-3.83512">
        <ele>146.6</ele>
        <time>2024-09-07T07:21:32Z</time>
      </trkpt>
      <trkpt lat="47.95438" lon="-3.83503">
        <ele>146.6</ele>
        <time>2024-09-07T07:21:33Z</time>
      </trkpt>
      <trkpt lat="47.95438" lon="-3.83494">
        <ele>146.6</ele>
        <time>2024-09-07T07:21:34Z</time>
      </trkpt>
      <trkpt lat="47.95438" lon="-3.83486">
        <ele>146.6</ele>
        <time>2024-09-07T07:21:35Z</time>
      </trkpt>
      <trkpt lat="47.95438" lon="-3.83477">
        <ele>146.6</ele>
        <time>2024-09-07T07:21:36Z</time>
      </trkpt>
      <trkpt lat="47.95437" lon="-3.83468">
        <ele>146.6</ele>
        <time>2024-09-07T07:21:37Z</time>
      </trkpt>
      <trkpt lat="47.95436" lon="-3.83459">
        <ele>146.6</ele>
        <time>2024-09-07T07:21:38Z</time>
      </trkpt>
      <trkpt lat="47.95435" lon="-3.8345">
        <ele>146.6</ele>
        <time>2024-09-07T07:21:39Z</time>
      </trkpt>
      <trkpt lat="47.95435" lon="-3.83441">
        <ele>146.6</ele>
        <time>2024-09-07T07:21:40Z</time>
      </trkpt>
      <trkpt lat="47.95434" lon="-3.83432">
        <ele>146.4</ele>
        <time>2024-09-07T07:21:41Z</time>
      </trkpt>
      <trkpt lat="47.95434" lon="-3.83423">
        <ele>146.4</ele>
        <time>2024-09-07T07:21:42Z</time>
      </trkpt>
      <trkpt lat="47.95434" lon="-3.83414">
        <ele>146.2</ele>
        <time>2024-09-07T07:21:43Z</time>
      </trkpt>
      <trkpt lat="47.95434" lon="-3.83405">
        <ele>146</ele>
        <time>2024-09-07T07:21:44Z</time>
      </trkpt>
      <trkpt lat="47.95434" lon="-3.83396">
        <ele>146</ele>
        <time>2024-09-07T07:21:45Z</time>
      </trkpt>
      <trkpt lat="47.95434" lon="-3.83387">
        <ele>146</ele>
        <time>2024-09-07T07:21:46Z</time>
      </trkpt>
      <trkpt lat="47.95433" lon="-3.83378">
        <ele>146</ele>
        <time>2024-09-07T07:21:47Z</time>
      </trkpt>
      <trkpt lat="47.95433" lon="-3.83369">
        <ele>145.8</ele>
        <time>2024-09-07T07:21:48Z</time>
      </trkpt>
      <trkpt lat="47.95432" lon="-3.8336">
        <ele>145.8</ele>
        <time>2024-09-07T07:21:49Z</time>
      </trkpt>
      <trkpt lat="47.95431" lon="-3.83351">
        <ele>145.6</ele>
        <time>2024-09-07T07:21:50Z</time>
      </trkpt>
      <trkpt lat="47.9543" lon="-3.83342">
        <ele>145.4</ele>
        <time>2024-09-07T07:21:51Z</time>
      </trkpt>
      <trkpt lat="47.95429" lon="-3.83333">
        <ele>145.4</ele>
        <time>2024-09-07T07:21:52Z</time>
      </trkpt>
      <trkpt lat="47.95429" lon="-3.83323">
        <ele>145.2</ele>
        <time>2024-09-07T07:21:53Z</time>
      </trkpt>
      <trkpt lat="47.95428" lon="-3.83314">
        <ele>145.2</ele>
        <time>2024-09-07T07:21:54Z</time>
      </trkpt>
      <trkpt lat="47.95428" lon="-3.83305">
        <ele>145.2</ele>
        <time>2024-09-07T07:21:55Z</time>
      </trkpt>
      <trkpt lat="47.95427" lon="-3.83297">
        <ele>145</ele>
        <time>2024-09-07T07:21:56Z</time>
      </trkpt>
      <trkpt lat="47.95427" lon="-3.83288">
        <ele>145</ele>
        <time>2024-09-07T07:21:57Z</time>
      </trkpt>
      <trkpt lat="47.95426" lon="-3.83279">
        <ele>145</ele>
        <time>2024-09-07T07:21:58Z</time>
      </trkpt>
      <trkpt lat="47.95426" lon="-3.83271">
        <ele>145</ele>
        <time>2024-09-07T07:21:59Z</time>
      </trkpt>
      <trkpt lat="47.95426" lon="-3.83262">
        <ele>144.8</ele>
        <time>2024-09-07T07:22:00Z</time>
      </trkpt>
      <trkpt lat="47.95425" lon="-3.83254">
        <ele>144.8</ele>
        <time>2024-09-07T07:22:01Z</time>
      </trkpt>
      <trkpt lat="47.95425" lon="-3.83245">
        <ele>144.8</ele>
        <time>2024-09-07T07:22:02Z</time>
      </trkpt>
      <trkpt lat="47.95424" lon="-3.83237">
        <ele>144.6</ele>
        <time>2024-09-07T07:22:03Z</time>
      </trkpt>
      <trkpt lat="47.95424" lon="-3.83229">
        <ele>144.4</ele>
        <time>2024-09-07T07:22:04Z</time>
      </trkpt>
      <trkpt lat="47.95424" lon="-3.8322">
        <ele>144.4</ele>
        <time>2024-09-07T07:22:05Z</time>
      </trkpt>
      <trkpt lat="47.95423" lon="-3.83211">
        <ele>144.2</ele>
        <time>2024-09-07T07:22:06Z</time>
      </trkpt>
      <trkpt lat="47.95422" lon="-3.83202">
        <ele>144.2</ele>
        <time>2024-09-07T07:22:07Z</time>
      </trkpt>
      <trkpt lat="47.95422" lon="-3.83194">
        <ele>144</ele>
        <time>2024-09-07T07:22:08Z</time>
      </trkpt>
      <trkpt lat="47.95421" lon="-3.83185">
        <ele>144</ele>
        <time>2024-09-07T07:22:09Z</time>
      </trkpt>
      <trkpt lat="47.9542" lon="-3.83176">
        <ele>144</ele>
        <time>2024-09-07T07:22:10Z</time>
      </trkpt>
      <trkpt lat="47.9542" lon="-3.83168">
        <ele>143.8</ele>
        <time>2024-09-07T07:22:11Z</time>
      </trkpt>
      <trkpt lat="47.95419" lon="-3.83159">
        <ele>143.8</ele>
        <time>2024-09-07T07:22:12Z</time>
      </trkpt>
      <trkpt lat="47.95419" lon="-3.83151">
        <ele>143.8</ele>
        <time>2024-09-07T07:22:13Z</time>
      </trkpt>
      <trkpt lat="47.95418" lon="-3.83142">
        <ele>143.8</ele>
        <time>2024-09-07T07:22:14Z</time>
      </trkpt>
      <trkpt lat="47.95418" lon="-3.83134">
        <ele>143.6</ele>
        <time>2024-09-07T07:22:15Z</time>
      </trkpt>
      <trkpt lat="47.95417" lon="-3.83125">
        <ele>143.6</ele>
        <time>2024-09-07T07:22:16Z</time>
      </trkpt>
      <trkpt lat="47.95417" lon="-3.83117">
        <ele>143.6</ele>
        <time>2024-09-07T07:22:17Z</time>
      </trkpt>
      <trkpt lat="47.95416" lon="-3.83109">
        <ele>143.6</ele>
        <time>2024-09-07T07:22:18Z</time>
      </trkpt>
      <trkpt lat="47.95416" lon="-3.83101">
        <ele>143.6</ele>
        <time>2024-09-07T07:22:19Z</time>
      </trkpt>
      <trkpt lat="47.95415" lon="-3.83092">
        <ele>143.6</ele>
        <time>2024-09-07T07:22:20Z</time>
      </trkpt>
      <trkpt lat="47.95415" lon="-3.83084">
        <ele>143.4</ele>
        <time>2024-09-07T07:22:21Z</time>
      </trkpt>
      <trkpt lat="47.95414" lon="-3.83075">
        <ele>143.4</ele>
        <time>2024-09-07T07:22:22Z</time>
      </trkpt>
      <trkpt lat="47.95413" lon="-3.83066">
        <ele>143.2</ele>
        <time>2024-09-07T07:22:23Z</time>
      </trkpt>
      <trkpt lat="47.95412" lon="-3.83056">
        <ele>143.2</ele>
        <time>2024-09-07T07:22:24Z</time>
      </trkpt>
      <trkpt lat="47.95412" lon="-3.83047">
        <ele>143.2</ele>
        <time>2024-09-07T07:22:25Z</time>
      </trkpt>
      <trkpt lat="47.95412" lon="-3.83038">
        <ele>143</ele>
        <time>2024-09-07T07:22:26Z</time>
      </trkpt>
      <trkpt lat="47.95412" lon="-3.83028">
        <ele>143</ele>
        <time>2024-09-07T07:22:27Z</time>
      </trkpt>
      <trkpt lat="47.95412" lon="-3.83018">
        <ele>142.8</ele>
        <time>2024-09-07T07:22:28Z</time>
      </trkpt>
      <trkpt lat="47.95413" lon="-3.83008">
        <ele>142.8</ele>
        <time>2024-09-07T07:22:29Z</time>
      </trkpt>
      <trkpt lat="47.95413" lon="-3.82998">
        <ele>142.6</ele>
        <time>2024-09-07T07:22:30Z</time>
      </trkpt>
      <trkpt lat="47.95414" lon="-3.82989">
        <ele>142.6</ele>
        <time>2024-09-07T07:22:31Z</time>
      </trkpt>
      <trkpt lat="47.95416" lon="-3.82979">
        <ele>142.6</ele>
        <time>2024-09-07T07:22:32Z</time>
      </trkpt>
      <trkpt lat="47.95418" lon="-3.8297">
        <ele>142.6</ele>
        <time>2024-09-07T07:22:33Z</time>
      </trkpt>
      <trkpt lat="47.95421" lon="-3.82961">
        <ele>142.4</ele>
        <time>2024-09-07T07:22:34Z</time>
      </trkpt>
      <trkpt lat="47.95424" lon="-3.82952">
        <ele>142.2</ele>
        <time>2024-09-07T07:22:35Z</time>
      </trkpt>
      <trkpt lat="47.95428" lon="-3.82944">
        <ele>142.2</ele>
        <time>2024-09-07T07:22:36Z</time>
      </trkpt>
      <trkpt lat="47.95432" lon="-3.82936">
        <ele>142.2</ele>
        <time>2024-09-07T07:22:37Z</time>
      </trkpt>
      <trkpt lat="47.95437" lon="-3.82928">
        <ele>142</ele>
        <time>2024-09-07T07:22:38Z</time>
      </trkpt>
      <trkpt lat="47.95443" lon="-3.82921">
        <ele>141.6</ele>
        <time>2024-09-07T07:22:39Z</time>
      </trkpt>
      <trkpt lat="47.95449" lon="-3.82915">
        <ele>141.4</ele>
        <time>2024-09-07T07:22:40Z</time>
      </trkpt>
      <trkpt lat="47.95456" lon="-3.8291">
        <ele>141</ele>
        <time>2024-09-07T07:22:41Z</time>
      </trkpt>
      <trkpt lat="47.95463" lon="-3.82906">
        <ele>140.8</ele>
        <time>2024-09-07T07:22:42Z</time>
      </trkpt>
      <trkpt lat="47.95471" lon="-3.82903">
        <ele>140.4</ele>
        <time>2024-09-07T07:22:43Z</time>
      </trkpt>
      <trkpt lat="47.95479" lon="-3.829">
        <ele>140.2</ele>
        <time>2024-09-07T07:22:44Z</time>
      </trkpt>
      <trkpt lat="47.95487" lon="-3.82899">
        <ele>139.8</ele>
        <time>2024-09-07T07:22:45Z</time>
      </trkpt>
      <trkpt lat="47.95496" lon="-3.82898">
        <ele>139.6</ele>
        <time>2024-09-07T07:22:46Z</time>
      </trkpt>
      <trkpt lat="47.95504" lon="-3.82898">
        <ele>139.2</ele>
        <time>2024-09-07T07:22:47Z</time>
      </trkpt>
      <trkpt lat="47.95513" lon="-3.82898">
        <ele>138.8</ele>
        <time>2024-09-07T07:22:48Z</time>
      </trkpt>
      <trkpt lat="47.9552" lon="-3.82899">
        <ele>138.4</ele>
        <time>2024-09-07T07:22:49Z</time>
      </trkpt>
      <trkpt lat="47.95527" lon="-3.82899">
        <ele>138</ele>
        <time>2024-09-07T07:22:50Z</time>
      </trkpt>
      <trkpt lat="47.95532" lon="-3.829">
        <ele>137.6</ele>
        <time>2024-09-07T07:22:51Z</time>
      </trkpt>
      <trkpt lat="47.95536" lon="-3.829">
        <ele>137.2</ele>
        <time>2024-09-07T07:22:52Z</time>
      </trkpt>
      <trkpt lat="47.95539" lon="-3.829">
        <ele>136.8</ele>
        <time>2024-09-07T07:22:53Z</time>
      </trkpt>
      <trkpt lat="47.95541" lon="-3.82899">
        <ele>136.2</ele>
        <time>2024-09-07T07:22:54Z</time>
      </trkpt>
      <trkpt lat="47.95543" lon="-3.82898">
        <ele>135.6</ele>
        <time>2024-09-07T07:22:55Z</time>
      </trkpt>
      <trkpt lat="47.95545" lon="-3.82898">
        <ele>135.2</ele>
        <time>2024-09-07T07:22:56Z</time>
      </trkpt>
      <trkpt lat="47.95547" lon="-3.82897">
        <ele>135.2</ele>
        <time>2024-09-07T07:22:57Z</time>
      </trkpt>
      <trkpt lat="47.95549" lon="-3.82897">
        <ele>135</ele>
        <time>2024-09-07T07:22:58Z</time>
      </trkpt>
      <trkpt lat="47.9555" lon="-3.82898">
        <ele>134.4</ele>
        <time>2024-09-07T07:22:59Z</time>
      </trkpt>
      <trkpt lat="47.95551" lon="-3.82899">
        <ele>134</ele>
        <time>2024-09-07T07:23:00Z</time>
      </trkpt>
      <trkpt lat="47.95551" lon="-3.829">
        <ele>133.6</ele>
        <time>2024-09-07T07:23:01Z</time>
      </trkpt>
      <trkpt lat="47.95544" lon="-3.82899">
        <ele>132.2</ele>
        <time>2024-09-07T07:23:09Z</time>
      </trkpt>
      <trkpt lat="47.95542" lon="-3.82898">
        <ele>132.2</ele>
        <time>2024-09-07T07:23:10Z</time>
      </trkpt>
      <trkpt lat="47.95539" lon="-3.82898">
        <ele>132.2</ele>
        <time>2024-09-07T07:23:11Z</time>
      </trkpt>
      <trkpt lat="47.95537" lon="-3.82897">
        <ele>132.2</ele>
        <time>2024-09-07T07:23:12Z</time>
      </trkpt>
      <trkpt lat="47.95535" lon="-3.82896">
        <ele>132.2</ele>
        <time>2024-09-07T07:23:13Z</time>
      </trkpt>
      <trkpt lat="47.95532" lon="-3.82895">
        <ele>132.2</ele>
        <time>2024-09-07T07:23:14Z</time>
      </trkpt>
      <trkpt lat="47.95529" lon="-3.82893">
        <ele>132.2</ele>
        <time>2024-09-07T07:23:15Z</time>
      </trkpt>
      <trkpt lat="47.95526" lon="-3.82892">
        <ele>132.2</ele>
        <time>2024-09-07T07:23:16Z</time>
      </trkpt>
      <trkpt lat="47.95523" lon="-3.82891">
        <ele>132.2</ele>
        <time>2024-09-07T07:23:17Z</time>
      </trkpt>
      <trkpt lat="47.9552" lon="-3.8289">
        <ele>132.2</ele>
        <time>2024-09-07T07:23:18Z</time>
      </trkpt>
      <trkpt lat="47.95517" lon="-3.82888">
        <ele>132.2</ele>
        <time>2024-09-07T07:23:19Z</time>
      </trkpt>
      <trkpt lat="47.95514" lon="-3.82887">
        <ele>132.2</ele>
        <time>2024-09-07T07:23:20Z</time>
      </trkpt>
      <trkpt lat="47.95512" lon="-3.82886">
        <ele>132.4</ele>
        <time>2024-09-07T07:23:21Z</time>
      </trkpt>
      <trkpt lat="47.95511" lon="-3.82884">
        <ele>132.4</ele>
        <time>2024-09-07T07:23:22Z</time>
      </trkpt>
      <trkpt lat="47.95511" lon="-3.82882">
        <ele>132.6</ele>
        <time>2024-09-07T07:23:23Z</time>
      </trkpt>
      <trkpt lat="47.95511" lon="-3.82881">
        <ele>132.6</ele>
        <time>2024-09-07T07:23:24Z</time>
      </trkpt>
      <trkpt lat="47.95511" lon="-3.8288">
        <ele>132.8</ele>
        <time>2024-09-07T07:23:25Z</time>
      </trkpt>
      <trkpt lat="47.95516" lon="-3.82888">
        <ele>132.8</ele>
        <time>2024-09-07T07:24:20Z</time>
      </trkpt>
      <trkpt lat="47.95518" lon="-3.82888">
        <ele>132.8</ele>
        <time>2024-09-07T07:24:21Z</time>
      </trkpt>
      <trkpt lat="47.95521" lon="-3.82889">
        <ele>132.8</ele>
        <time>2024-09-07T07:24:22Z</time>
      </trkpt>
      <trkpt lat="47.95523" lon="-3.82889">
        <ele>132.8</ele>
        <time>2024-09-07T07:24:23Z</time>
      </trkpt>
      <trkpt lat="47.95526" lon="-3.82891">
        <ele>132.8</ele>
        <time>2024-09-07T07:24:24Z</time>
      </trkpt>
      <trkpt lat="47.9553" lon="-3.82892">
        <ele>132.8</ele>
        <time>2024-09-07T07:24:25Z</time>
      </trkpt>
      <trkpt lat="47.95533" lon="-3.82893">
        <ele>132.8</ele>
        <time>2024-09-07T07:24:26Z</time>
      </trkpt>
      <trkpt lat="47.95536" lon="-3.82894">
        <ele>132.8</ele>
        <time>2024-09-07T07:24:27Z</time>
      </trkpt>
      <trkpt lat="47.95539" lon="-3.82895">
        <ele>132.8</ele>
        <time>2024-09-07T07:24:28Z</time>
      </trkpt>
      <trkpt lat="47.95542" lon="-3.82896">
        <ele>132.8</ele>
        <time>2024-09-07T07:24:29Z</time>
      </trkpt>
      <trkpt lat="47.95544" lon="-3.82896">
        <ele>132.8</ele>
        <time>2024-09-07T07:24:30Z</time>
      </trkpt>
      <trkpt lat="47.95546" lon="-3.82897">
        <ele>132.8</ele>
        <time>2024-09-07T07:24:31Z</time>
      </trkpt>
      <trkpt lat="47.95547" lon="-3.82897">
        <ele>132.8</ele>
        <time>2024-09-07T07:24:32Z</time>
      </trkpt>
      <trkpt lat="47.95547" lon="-3.82897">
        <ele>132.8</ele>
        <time>2024-09-07T07:24:33Z</time>
      </trkpt>
      <trkpt lat="47.95547" lon="-3.82897">
        <ele>132.6</ele>
        <time>2024-09-07T07:24:34Z</time>
      </trkpt>
      <trkpt lat="47.95555" lon="-3.829">
        <ele>131.2</ele>
        <time>2024-09-07T07:26:29Z</time>
      </trkpt>
      <trkpt lat="47.95557" lon="-3.829">
        <ele>131.2</ele>
        <time>2024-09-07T07:26:30Z</time>
      </trkpt>
      <trkpt lat="47.95559" lon="-3.829">
        <ele>131.2</ele>
        <time>2024-09-07T07:26:31Z</time>
      </trkpt>
      <trkpt lat="47.95562" lon="-3.82901">
        <ele>131.2</ele>
        <time>2024-09-07T07:26:32Z</time>
      </trkpt>
      <trkpt lat="47.95565" lon="-3.82901">
        <ele>131.2</ele>
        <time>2024-09-07T07:26:33Z</time>
      </trkpt>
      <trkpt lat="47.95567" lon="-3.82901">
        <ele>131.2</ele>
        <time>2024-09-07T07:26:34Z</time>
      </trkpt>
      <trkpt lat="47.95571" lon="-3.82901">
        <ele>131.2</ele>
        <time>2024-09-07T07:26:35Z</time>
      </trkpt>
      <trkpt lat="47.95574" lon="-3.82901">
        <ele>131.2</ele>
        <time>2024-09-07T07:26:36Z</time>
      </trkpt>
      <trkpt lat="47.95578" lon="-3.82902">
        <ele>131</ele>
        <time>2024-09-07T07:26:37Z</time>
      </trkpt>
      <trkpt lat="47.95582" lon="-3.82903">
        <ele>131</ele>
        <time>2024-09-07T07:26:38Z</time>
      </trkpt>
      <trkpt lat="47.95586" lon="-3.82904">
        <ele>131</ele>
        <time>2024-09-07T07:26:39Z</time>
      </trkpt>
      <trkpt lat="47.9559" lon="-3.82904">
        <ele>131</ele>
        <time>2024-09-07T07:26:40Z</time>
      </trkpt>
      <trkpt lat="47.95594" lon="-3.82903">
        <ele>130.8</ele>
        <time>2024-09-07T07:26:41Z</time>
      </trkpt>
      <trkpt lat="47.95598" lon="-3.82903">
        <ele>130.6</ele>
        <time>2024-09-07T07:26:42Z</time>
      </trkpt>
      <trkpt lat="47.95603" lon="-3.82904">
        <ele>130.6</ele>
        <time>2024-09-07T07:26:43Z</time>
      </trkpt>
      <trkpt lat="47.95607" lon="-3.82904">
        <ele>130.4</ele>
        <time>2024-09-07T07:26:44Z</time>
      </trkpt>
      <trkpt lat="47.95611" lon="-3.82904">
        <ele>130.4</ele>
        <time>2024-09-07T07:26:45Z</time>
      </trkpt>
      <trkpt lat="47.95616" lon="-3.82904">
        <ele>130.2</ele>
        <time>2024-09-07T07:26:46Z</time>
      </trkpt>
      <trkpt lat="47.95621" lon="-3.82905">
        <ele>130</ele>
        <time>2024-09-07T07:26:47Z</time>
      </trkpt>
      <trkpt lat="47.95626" lon="-3.82905">
        <ele>129.8</ele>
        <time>2024-09-07T07:26:48Z</time>
      </trkpt>
      <trkpt lat="47.95632" lon="-3.82905">
        <ele>129.8</ele>
        <time>2024-09-07T07:26:49Z</time>
      </trkpt>
      <trkpt lat="47.95637" lon="-3.82905">
        <ele>129.4</ele>
        <time>2024-09-07T07:26:50Z</time>
      </trkpt>
      <trkpt lat="47.95642" lon="-3.82906">
        <ele>129.2</ele>
        <time>2024-09-07T07:26:51Z</time>
      </trkpt>
      <trkpt lat="47.95647" lon="-3.82906">
        <ele>129</ele>
        <time>2024-09-07T07:26:52Z</time>
      </trkpt>
      <trkpt lat="47.95653" lon="-3.82906">
        <ele>128.8</ele>
        <time>2024-09-07T07:26:53Z</time>
      </trkpt>
      <trkpt lat="47.95658" lon="-3.82906">
        <ele>128.8</ele>
        <time>2024-09-07T07:26:54Z</time>
      </trkpt>
      <trkpt lat="47.95664" lon="-3.82906">
        <ele>128.6</ele>
        <time>2024-09-07T07:26:55Z</time>
      </trkpt>
      <trkpt lat="47.9567" lon="-3.82905">
        <ele>128.4</ele>
        <time>2024-09-07T07:26:56Z</time>
      </trkpt>
      <trkpt lat="47.95676" lon="-3.82905">
        <ele>128</ele>
        <time>2024-09-07T07:26:57Z</time>
      </trkpt>
      <trkpt lat="47.95682" lon="-3.82905">
        <ele>127.8</ele>
        <time>2024-09-07T07:26:58Z</time>
      </trkpt>
      <trkpt lat="47.95688" lon="-3.82905">
        <ele>127.8</ele>
        <time>2024-09-07T07:26:59Z</time>
      </trkpt>
      <trkpt lat="47.95695" lon="-3.82905">
        <ele>127.8</ele>
        <time>2024-09-07T07:27:00Z</time>
      </trkpt>
      <trkpt lat="47.95701" lon="-3.82905">
        <ele>127.6</ele>
        <time>2024-09-07T07:27:01Z</time>
      </trkpt>
      <trkpt lat="47.95707" lon="-3.82906">
        <ele>127.2</ele>
        <time>2024-09-07T07:27:02Z</time>
      </trkpt>
      <trkpt lat="47.95713" lon="-3.82906">
        <ele>127.2</ele>
        <time>2024-09-07T07:27:03Z</time>
      </trkpt>
      <trkpt lat="47.95719" lon="-3.82906">
        <ele>126.8</ele>
        <time>2024-09-07T07:27:04Z</time>
      </trkpt>
      <trkpt lat="47.95726" lon="-3.82906">
        <ele>126.4</ele>
        <time>2024-09-07T07:27:05Z</time>
      </trkpt>
      <trkpt lat="47.95732" lon="-3.82906">
        <ele>126</ele>
        <time>2024-09-07T07:27:06Z</time>
      </trkpt>
      <trkpt lat="47.95738" lon="-3.82906">
        <ele>125.8</ele>
        <time>2024-09-07T07:27:07Z</time>
      </trkpt>
      <trkpt lat="47.95745" lon="-3.82906">
        <ele>125.6</ele>
        <time>2024-09-07T07:27:08Z</time>
      </trkpt>
      <trkpt lat="47.95751" lon="-3.82906">
        <ele>125.4</ele>
        <time>2024-09-07T07:27:09Z</time>
      </trkpt>
      <trkpt lat="47.95757" lon="-3.82906">
        <ele>125</ele>
        <time>2024-09-07T07:27:10Z</time>
      </trkpt>
      <trkpt lat="47.95763" lon="-3.82906">
        <ele>124.8</ele>
        <time>2024-09-07T07:27:11Z</time>
      </trkpt>
      <trkpt lat="47.95769" lon="-3.82905">
        <ele>124.6</ele>
        <time>2024-09-07T07:27:12Z</time>
      </trkpt>
      <trkpt lat="47.95775" lon="-3.82906">
        <ele>124.2</ele>
        <time>2024-09-07T07:27:13Z</time>
      </trkpt>
      <trkpt lat="47.95781" lon="-3.82906">
        <ele>124.2</ele>
        <time>2024-09-07T07:27:14Z</time>
      </trkpt>
      <trkpt lat="47.95786" lon="-3.82906">
        <ele>123.8</ele>
        <time>2024-09-07T07:27:15Z</time>
      </trkpt>
      <trkpt lat="47.95792" lon="-3.82907">
        <ele>123.4</ele>
        <time>2024-09-07T07:27:16Z</time>
      </trkpt>
      <trkpt lat="47.95797" lon="-3.82906">
        <ele>123.2</ele>
        <time>2024-09-07T07:27:17Z</time>
      </trkpt>
      <trkpt lat="47.95802" lon="-3.82906">
        <ele>122.8</ele>
        <time>2024-09-07T07:27:18Z</time>
      </trkpt>
      <trkpt lat="47.95806" lon="-3.82905">
        <ele>122.6</ele>
        <time>2024-09-07T07:27:19Z</time>
      </trkpt>
      <trkpt lat="47.9581" lon="-3.82904">
        <ele>122.6</ele>
        <time>2024-09-07T07:27:20Z</time>
      </trkpt>
      <trkpt lat="47.95813" lon="-3.82904">
        <ele>122.2</ele>
        <time>2024-09-07T07:27:21Z</time>
      </trkpt>
      <trkpt lat="47.95816" lon="-3.82904">
        <ele>121.8</ele>
        <time>2024-09-07T07:27:22Z</time>
      </trkpt>
      <trkpt lat="47.95819" lon="-3.82903">
        <ele>121.4</ele>
        <time>2024-09-07T07:27:23Z</time>
      </trkpt>
      <trkpt lat="47.95821" lon="-3.82901">
        <ele>121.2</ele>
        <time>2024-09-07T07:27:24Z</time>
      </trkpt>
      <trkpt lat="47.95823" lon="-3.82899">
        <ele>121</ele>
        <time>2024-09-07T07:27:25Z</time>
      </trkpt>
      <trkpt lat="47.95824" lon="-3.82895">
        <ele>120.6</ele>
        <time>2024-09-07T07:27:26Z</time>
      </trkpt>
      <trkpt lat="47.95825" lon="-3.82891">
        <ele>120.2</ele>
        <time>2024-09-07T07:27:27Z</time>
      </trkpt>
      <trkpt lat="47.95825" lon="-3.82886">
        <ele>120</ele>
        <time>2024-09-07T07:27:28Z</time>
      </trkpt>
      <trkpt lat="47.95825" lon="-3.82881">
        <ele>119.8</ele>
        <time>2024-09-07T07:27:29Z</time>
      </trkpt>
      <trkpt lat="47.95824" lon="-3.82876">
        <ele>119.6</ele>
        <time>2024-09-07T07:27:30Z</time>
      </trkpt>
      <trkpt lat="47.95823" lon="-3.82872">
        <ele>119.4</ele>
        <time>2024-09-07T07:27:31Z</time>
      </trkpt>
      <trkpt lat="47.95821" lon="-3.82867">
        <ele>119.4</ele>
        <time>2024-09-07T07:27:32Z</time>
      </trkpt>
      <trkpt lat="47.9582" lon="-3.82862">
        <ele>119.2</ele>
        <time>2024-09-07T07:27:33Z</time>
      </trkpt>
      <trkpt lat="47.95818" lon="-3.82858">
        <ele>119</ele>
        <time>2024-09-07T07:27:34Z</time>
      </trkpt>
      <trkpt lat="47.95816" lon="-3.82853">
        <ele>119</ele>
        <time>2024-09-07T07:27:35Z</time>
      </trkpt>
      <trkpt lat="47.95814" lon="-3.82849">
        <ele>118.8</ele>
        <time>2024-09-07T07:27:36Z</time>
      </trkpt>
      <trkpt lat="47.95812" lon="-3.82845">
        <ele>118.8</ele>
        <time>2024-09-07T07:27:37Z</time>
      </trkpt>
      <trkpt lat="47.9581" lon="-3.8284">
        <ele>118.6</ele>
        <time>2024-09-07T07:27:38Z</time>
      </trkpt>
      <trkpt lat="47.95808" lon="-3.82836">
        <ele>118.6</ele>
        <time>2024-09-07T07:27:39Z</time>
      </trkpt>
      <trkpt lat="47.95805" lon="-3.82832">
        <ele>118.4</ele>
        <time>2024-09-07T07:27:40Z</time>
      </trkpt>
      <trkpt lat="47.95802" lon="-3.82827">
        <ele>118.2</ele>
        <time>2024-09-07T07:27:41Z</time>
      </trkpt>
      <trkpt lat="47.95799" lon="-3.82823">
        <ele>118.2</ele>
        <time>2024-09-07T07:27:42Z</time>
      </trkpt>
      <trkpt lat="47.95796" lon="-3.82818">
        <ele>118.2</ele>
        <time>2024-09-07T07:27:43Z</time>
      </trkpt>
      <trkpt lat="47.95793" lon="-3.82813">
        <ele>118</ele>
        <time>2024-09-07T07:27:44Z</time>
      </trkpt>
      <trkpt lat="47.95789" lon="-3.82808">
        <ele>118</ele>
        <time>2024-09-07T07:27:45Z</time>
      </trkpt>
      <trkpt lat="47.95786" lon="-3.82802">
        <ele>118</ele>
        <time>2024-09-07T07:27:46Z</time>
      </trkpt>
      <trkpt lat="47.95784" lon="-3.82796">
        <ele>117.8</ele>
        <time>2024-09-07T07:27:47Z</time>
      </trkpt>
      <trkpt lat="47.95782" lon="-3.82791">
        <ele>118</ele>
        <time>2024-09-07T07:27:48Z</time>
      </trkpt>
      <trkpt lat="47.95779" lon="-3.82786">
        <ele>118</ele>
        <time>2024-09-07T07:27:49Z</time>
      </trkpt>
      <trkpt lat="47.95777" lon="-3.82781">
        <ele>118</ele>
        <time>2024-09-07T07:27:50Z</time>
      </trkpt>
      <trkpt lat="47.95776" lon="-3.82776">
        <ele>117.8</ele>
        <time>2024-09-07T07:27:51Z</time>
      </trkpt>
      <trkpt lat="47.95774" lon="-3.8277">
        <ele>117.8</ele>
        <time>2024-09-07T07:27:52Z</time>
      </trkpt>
      <trkpt lat="47.95773" lon="-3.82765">
        <ele>117.6</ele>
        <time>2024-09-07T07:27:53Z</time>
      </trkpt>
      <trkpt lat="47.95772" lon="-3.82761">
        <ele>117.8</ele>
        <time>2024-09-07T07:27:54Z</time>
      </trkpt>
      <trkpt lat="47.9577" lon="-3.82757">
        <ele>117.6</ele>
        <time>2024-09-07T07:27:55Z</time>
      </trkpt>
      <trkpt lat="47.95768" lon="-3.82753">
        <ele>117.4</ele>
        <time>2024-09-07T07:27:56Z</time>
      </trkpt>
      <trkpt lat="47.95767" lon="-3.82749">
        <ele>117.4</ele>
        <time>2024-09-07T07:27:57Z</time>
      </trkpt>
      <trkpt lat="47.95766" lon="-3.82745">
        <ele>117.2</ele>
        <time>2024-09-07T07:27:58Z</time>
      </trkpt>
      <trkpt lat="47.95765" lon="-3.8274">
        <ele>117.2</ele>
        <time>2024-09-07T07:27:59Z</time>
      </trkpt>
      <trkpt lat="47.95764" lon="-3.82736">
        <ele>117</ele>
        <time>2024-09-07T07:28:00Z</time>
      </trkpt>
      <trkpt lat="47.95763" lon="-3.82731">
        <ele>116.8</ele>
        <time>2024-09-07T07:28:01Z</time>
      </trkpt>
      <trkpt lat="47.95762" lon="-3.82726">
        <ele>116.6</ele>
        <time>2024-09-07T07:28:02Z</time>
      </trkpt>
      <trkpt lat="47.9576" lon="-3.82721">
        <ele>116.4</ele>
        <time>2024-09-07T07:28:03Z</time>
      </trkpt>
      <trkpt lat="47.95759" lon="-3.82716">
        <ele>116.2</ele>
        <time>2024-09-07T07:28:04Z</time>
      </trkpt>
      <trkpt lat="47.95758" lon="-3.82711">
        <ele>115.8</ele>
        <time>2024-09-07T07:28:05Z</time>
      </trkpt>
      <trkpt lat="47.95757" lon="-3.82707">
        <ele>115.6</ele>
        <time>2024-09-07T07:28:06Z</time>
      </trkpt>
      <trkpt lat="47.95756" lon="-3.82703">
        <ele>115.4</ele>
        <time>2024-09-07T07:28:07Z</time>
      </trkpt>
      <trkpt lat="47.95755" lon="-3.82699">
        <ele>115.2</ele>
        <time>2024-09-07T07:28:08Z</time>
      </trkpt>
      <trkpt lat="47.95754" lon="-3.82694">
        <ele>114.8</ele>
        <time>2024-09-07T07:28:09Z</time>
      </trkpt>
      <trkpt lat="47.95753" lon="-3.82689">
        <ele>114.6</ele>
        <time>2024-09-07T07:28:10Z</time>
      </trkpt>
      <trkpt lat="47.95752" lon="-3.82684">
        <ele>114.2</ele>
        <time>2024-09-07T07:28:11Z</time>
      </trkpt>
      <trkpt lat="47.95751" lon="-3.82679">
        <ele>113.8</ele>
        <time>2024-09-07T07:28:12Z</time>
      </trkpt>
      <trkpt lat="47.9575" lon="-3.82675">
        <ele>113.6</ele>
        <time>2024-09-07T07:28:13Z</time>
      </trkpt>
      <trkpt lat="47.95748" lon="-3.8267">
        <ele>113.4</ele>
        <time>2024-09-07T07:28:14Z</time>
      </trkpt>
      <trkpt lat="47.95748" lon="-3.82665">
        <ele>113.2</ele>
        <time>2024-09-07T07:28:15Z</time>
      </trkpt>
      <trkpt lat="47.95747" lon="-3.8266">
        <ele>113</ele>
        <time>2024-09-07T07:28:16Z</time>
      </trkpt>
      <trkpt lat="47.95748" lon="-3.82655">
        <ele>112.8</ele>
        <time>2024-09-07T07:28:17Z</time>
      </trkpt>
      <trkpt lat="47.95748" lon="-3.82651">
        <ele>112.8</ele>
        <time>2024-09-07T07:28:18Z</time>
      </trkpt>
      <trkpt lat="47.95748" lon="-3.82647">
        <ele>112.8</ele>
        <time>2024-09-07T07:28:19Z</time>
      </trkpt>
      <trkpt lat="47.95748" lon="-3.82643">
        <ele>112.8</ele>
        <time>2024-09-07T07:28:20Z</time>
      </trkpt>
      <trkpt lat="47.95749" lon="-3.82639">
        <ele>112.8</ele>
        <time>2024-09-07T07:28:21Z</time>
      </trkpt>
      <trkpt lat="47.95749" lon="-3.82634">
        <ele>112.8</ele>
        <time>2024-09-07T07:28:22Z</time>
      </trkpt>
      <trkpt lat="47.9575" lon="-3.8263">
        <ele>112.8</ele>
        <time>2024-09-07T07:28:23Z</time>
      </trkpt>
      <trkpt lat="47.9575" lon="-3.82625">
        <ele>112.8</ele>
        <time>2024-09-07T07:28:24Z</time>
      </trkpt>
      <trkpt lat="47.95751" lon="-3.8262">
        <ele>112.8</ele>
        <time>2024-09-07T07:28:25Z</time>
      </trkpt>
      <trkpt lat="47.95751" lon="-3.82615">
        <ele>112.8</ele>
        <time>2024-09-07T07:28:26Z</time>
      </trkpt>
      <trkpt lat="47.95752" lon="-3.82611">
        <ele>112.8</ele>
        <time>2024-09-07T07:28:27Z</time>
      </trkpt>
      <trkpt lat="47.95753" lon="-3.82606">
        <ele>112.8</ele>
        <time>2024-09-07T07:28:28Z</time>
      </trkpt>
      <trkpt lat="47.95753" lon="-3.82601">
        <ele>112.8</ele>
        <time>2024-09-07T07:28:29Z</time>
      </trkpt>
      <trkpt lat="47.95754" lon="-3.82595">
        <ele>113</ele>
        <time>2024-09-07T07:28:30Z</time>
      </trkpt>
      <trkpt lat="47.95755" lon="-3.8259">
        <ele>113.2</ele>
        <time>2024-09-07T07:28:31Z</time>
      </trkpt>
      <trkpt lat="47.95755" lon="-3.82584">
        <ele>113.2</ele>
        <time>2024-09-07T07:28:32Z</time>
      </trkpt>
      <trkpt lat="47.95756" lon="-3.82579">
        <ele>113.2</ele>
        <time>2024-09-07T07:28:33Z</time>
      </trkpt>
      <trkpt lat="47.95756" lon="-3.82573">
        <ele>113.4</ele>
        <time>2024-09-07T07:28:34Z</time>
      </trkpt>
      <trkpt lat="47.95756" lon="-3.82568">
        <ele>113.6</ele>
        <time>2024-09-07T07:28:35Z</time>
      </trkpt>
      <trkpt lat="47.95757" lon="-3.82562">
        <ele>113.6</ele>
        <time>2024-09-07T07:28:36Z</time>
      </trkpt>
      <trkpt lat="47.95757" lon="-3.82556">
        <ele>113.6</ele>
        <time>2024-09-07T07:28:37Z</time>
      </trkpt>
      <trkpt lat="47.95758" lon="-3.8255">
        <ele>113.6</ele>
        <time>2024-09-07T07:28:38Z</time>
      </trkpt>
      <trkpt lat="47.95758" lon="-3.82545">
        <ele>113.6</ele>
        <time>2024-09-07T07:28:39Z</time>
      </trkpt>
      <trkpt lat="47.95759" lon="-3.82539">
        <ele>113.8</ele>
        <time>2024-09-07T07:28:40Z</time>
      </trkpt>
      <trkpt lat="47.95759" lon="-3.82533">
        <ele>113.8</ele>
        <time>2024-09-07T07:28:41Z</time>
      </trkpt>
      <trkpt lat="47.9576" lon="-3.82527">
        <ele>113.8</ele>
        <time>2024-09-07T07:28:42Z</time>
      </trkpt>
      <trkpt lat="47.95761" lon="-3.82521">
        <ele>113.8</ele>
        <time>2024-09-07T07:28:43Z</time>
      </trkpt>
      <trkpt lat="47.95761" lon="-3.82516">
        <ele>113.8</ele>
        <time>2024-09-07T07:28:44Z</time>
      </trkpt>
      <trkpt lat="47.95762" lon="-3.8251">
        <ele>113.8</ele>
        <time>2024-09-07T07:28:45Z</time>
      </trkpt>
      <trkpt lat="47.95763" lon="-3.82504">
        <ele>113.8</ele>
        <time>2024-09-07T07:28:46Z</time>
      </trkpt>
      <trkpt lat="47.95763" lon="-3.82498">
        <ele>114</ele>
        <time>2024-09-07T07:28:47Z</time>
      </trkpt>
      <trkpt lat="47.95764" lon="-3.82492">
        <ele>114</ele>
        <time>2024-09-07T07:28:48Z</time>
      </trkpt>
      <trkpt lat="47.95765" lon="-3.82486">
        <ele>114</ele>
        <time>2024-09-07T07:28:49Z</time>
      </trkpt>
      <trkpt lat="47.95766" lon="-3.8248">
        <ele>114</ele>
        <time>2024-09-07T07:28:50Z</time>
      </trkpt>
      <trkpt lat="47.95767" lon="-3.82474">
        <ele>114</ele>
        <time>2024-09-07T07:28:51Z</time>
      </trkpt>
      <trkpt lat="47.95767" lon="-3.82468">
        <ele>114</ele>
        <time>2024-09-07T07:28:52Z</time>
      </trkpt>
      <trkpt lat="47.95768" lon="-3.82462">
        <ele>114</ele>
        <time>2024-09-07T07:28:53Z</time>
      </trkpt>
      <trkpt lat="47.95769" lon="-3.82456">
        <ele>114.2</ele>
        <time>2024-09-07T07:28:54Z</time>
      </trkpt>
      <trkpt lat="47.9577" lon="-3.8245">
        <ele>114.2</ele>
        <time>2024-09-07T07:28:55Z</time>
      </trkpt>
      <trkpt lat="47.95771" lon="-3.82444">
        <ele>114.2</ele>
        <time>2024-09-07T07:28:56Z</time>
      </trkpt>
      <trkpt lat="47.95772" lon="-3.82438">
        <ele>114.2</ele>
        <time>2024-09-07T07:28:57Z</time>
      </trkpt>
      <trkpt lat="47.95774" lon="-3.82433">
        <ele>114.2</ele>
        <time>2024-09-07T07:28:58Z</time>
      </trkpt>
      <trkpt lat="47.95775" lon="-3.82427">
        <ele>114.2</ele>
        <time>2024-09-07T07:28:59Z</time>
      </trkpt>
      <trkpt lat="47.95776" lon="-3.82421">
        <ele>114.4</ele>
        <time>2024-09-07T07:29:00Z</time>
      </trkpt>
      <trkpt lat="47.95777" lon="-3.82416">
        <ele>114.4</ele>
        <time>2024-09-07T07:29:01Z</time>
      </trkpt>
      <trkpt lat="47.95778" lon="-3.8241">
        <ele>114.4</ele>
        <time>2024-09-07T07:29:02Z</time>
      </trkpt>
      <trkpt lat="47.9578" lon="-3.82405">
        <ele>114.6</ele>
        <time>2024-09-07T07:29:03Z</time>
      </trkpt>
      <trkpt lat="47.95781" lon="-3.824">
        <ele>114.8</ele>
        <time>2024-09-07T07:29:04Z</time>
      </trkpt>
      <trkpt lat="47.95782" lon="-3.82395">
        <ele>114.8</ele>
        <time>2024-09-07T07:29:05Z</time>
      </trkpt>
      <trkpt lat="47.95784" lon="-3.8239">
        <ele>115</ele>
        <time>2024-09-07T07:29:06Z</time>
      </trkpt>
      <trkpt lat="47.95785" lon="-3.82385">
        <ele>115</ele>
        <time>2024-09-07T07:29:07Z</time>
      </trkpt>
      <trkpt lat="47.95786" lon="-3.82379">
        <ele>115</ele>
        <time>2024-09-07T07:29:08Z</time>
      </trkpt>
      <trkpt lat="47.95788" lon="-3.82374">
        <ele>115.2</ele>
        <time>2024-09-07T07:29:09Z</time>
      </trkpt>
      <trkpt lat="47.95789" lon="-3.82369">
        <ele>115.4</ele>
        <time>2024-09-07T07:29:10Z</time>
      </trkpt>
      <trkpt lat="47.95791" lon="-3.82364">
        <ele>115.4</ele>
        <time>2024-09-07T07:29:11Z</time>
      </trkpt>
      <trkpt lat="47.95792" lon="-3.82359">
        <ele>115.6</ele>
        <time>2024-09-07T07:29:12Z</time>
      </trkpt>
      <trkpt lat="47.95794" lon="-3.82354">
        <ele>115.6</ele>
        <time>2024-09-07T07:29:13Z</time>
      </trkpt>
      <trkpt lat="47.95795" lon="-3.82349">
        <ele>115.8</ele>
        <time>2024-09-07T07:29:14Z</time>
      </trkpt>
      <trkpt lat="47.95796" lon="-3.82344">
        <ele>115.8</ele>
        <time>2024-09-07T07:29:15Z</time>
      </trkpt>
      <trkpt lat="47.95799" lon="-3.82338">
        <ele>116</ele>
        <time>2024-09-07T07:29:16Z</time>
      </trkpt>
      <trkpt lat="47.958" lon="-3.82334">
        <ele>116.2</ele>
        <time>2024-09-07T07:29:17Z</time>
      </trkpt>
      <trkpt lat="47.95801" lon="-3.8233">
        <ele>116.2</ele>
        <time>2024-09-07T07:29:18Z</time>
      </trkpt>
      <trkpt lat="47.95803" lon="-3.82326">
        <ele>116.4</ele>
        <time>2024-09-07T07:29:19Z</time>
      </trkpt>
      <trkpt lat="47.95804" lon="-3.82322">
        <ele>116.4</ele>
        <time>2024-09-07T07:29:20Z</time>
      </trkpt>
      <trkpt lat="47.95806" lon="-3.82317">
        <ele>116.6</ele>
        <time>2024-09-07T07:29:21Z</time>
      </trkpt>
      <trkpt lat="47.95807" lon="-3.82313">
        <ele>116.6</ele>
        <time>2024-09-07T07:29:22Z</time>
      </trkpt>
      <trkpt lat="47.95808" lon="-3.82309">
        <ele>116.8</ele>
        <time>2024-09-07T07:29:23Z</time>
      </trkpt>
      <trkpt lat="47.9581" lon="-3.82305">
        <ele>117</ele>
        <time>2024-09-07T07:29:24Z</time>
      </trkpt>
      <trkpt lat="47.95811" lon="-3.82301">
        <ele>117</ele>
        <time>2024-09-07T07:29:25Z</time>
      </trkpt>
      <trkpt lat="47.95813" lon="-3.82297">
        <ele>117.2</ele>
        <time>2024-09-07T07:29:26Z</time>
      </trkpt>
      <trkpt lat="47.95815" lon="-3.82293">
        <ele>117.2</ele>
        <time>2024-09-07T07:29:27Z</time>
      </trkpt>
      <trkpt lat="47.95816" lon="-3.82289">
        <ele>117.4</ele>
        <time>2024-09-07T07:29:28Z</time>
      </trkpt>
      <trkpt lat="47.95818" lon="-3.82285">
        <ele>117.6</ele>
        <time>2024-09-07T07:29:29Z</time>
      </trkpt>
      <trkpt lat="47.9582" lon="-3.82281">
        <ele>117.8</ele>
        <time>2024-09-07T07:29:30Z</time>
      </trkpt>
      <trkpt lat="47.95821" lon="-3.82277">
        <ele>117.8</ele>
        <time>2024-09-07T07:29:31Z</time>
      </trkpt>
      <trkpt lat="47.95822" lon="-3.82273">
        <ele>118</ele>
        <time>2024-09-07T07:29:32Z</time>
      </trkpt>
      <trkpt lat="47.95823" lon="-3.82269">
        <ele>118</ele>
        <time>2024-09-07T07:29:33Z</time>
      </trkpt>
      <trkpt lat="47.95825" lon="-3.82265">
        <ele>118</ele>
        <time>2024-09-07T07:29:34Z</time>
      </trkpt>
      <trkpt lat="47.95826" lon="-3.82262">
        <ele>118.2</ele>
        <time>2024-09-07T07:29:35Z</time>
      </trkpt>
      <trkpt lat="47.95827" lon="-3.82258">
        <ele>118.2</ele>
        <time>2024-09-07T07:29:36Z</time>
      </trkpt>
      <trkpt lat="47.95829" lon="-3.82254">
        <ele>118.4</ele>
        <time>2024-09-07T07:29:37Z</time>
      </trkpt>
      <trkpt lat="47.9583" lon="-3.8225">
        <ele>118.4</ele>
        <time>2024-09-07T07:29:38Z</time>
      </trkpt>
      <trkpt lat="47.95832" lon="-3.82246">
        <ele>118.6</ele>
        <time>2024-09-07T07:29:39Z</time>
      </trkpt>
      <trkpt lat="47.95833" lon="-3.82242">
        <ele>118.6</ele>
        <time>2024-09-07T07:29:40Z</time>
      </trkpt>
      <trkpt lat="47.95835" lon="-3.82237">
        <ele>118.8</ele>
        <time>2024-09-07T07:29:41Z</time>
      </trkpt>
      <trkpt lat="47.95837" lon="-3.82232">
        <ele>118.8</ele>
        <time>2024-09-07T07:29:42Z</time>
      </trkpt>
      <trkpt lat="47.95839" lon="-3.82228">
        <ele>118.8</ele>
        <time>2024-09-07T07:29:43Z</time>
      </trkpt>
      <trkpt lat="47.95841" lon="-3.82223">
        <ele>118.8</ele>
        <time>2024-09-07T07:29:44Z</time>
      </trkpt>
      <trkpt lat="47.95842" lon="-3.82218">
        <ele>118.8</ele>
        <time>2024-09-07T07:29:45Z</time>
      </trkpt>
      <trkpt lat="47.95844" lon="-3.82213">
        <ele>118.8</ele>
        <time>2024-09-07T07:29:46Z</time>
      </trkpt>
      <trkpt lat="47.95846" lon="-3.82207">
        <ele>118.8</ele>
        <time>2024-09-07T07:29:47Z</time>
      </trkpt>
      <trkpt lat="47.95847" lon="-3.82201">
        <ele>118.8</ele>
        <time>2024-09-07T07:29:48Z</time>
      </trkpt>
      <trkpt lat="47.95847" lon="-3.82195">
        <ele>118.8</ele>
        <time>2024-09-07T07:29:49Z</time>
      </trkpt>
      <trkpt lat="47.95848" lon="-3.82188">
        <ele>118.8</ele>
        <time>2024-09-07T07:29:50Z</time>
      </trkpt>
      <trkpt lat="47.95849" lon="-3.82182">
        <ele>118.8</ele>
        <time>2024-09-07T07:29:51Z</time>
      </trkpt>
      <trkpt lat="47.9585" lon="-3.82175">
        <ele>118.6</ele>
        <time>2024-09-07T07:29:52Z</time>
      </trkpt>
      <trkpt lat="47.9585" lon="-3.82168">
        <ele>118.6</ele>
        <time>2024-09-07T07:29:53Z</time>
      </trkpt>
      <trkpt lat="47.9585" lon="-3.82161">
        <ele>118.4</ele>
        <time>2024-09-07T07:29:54Z</time>
      </trkpt>
      <trkpt lat="47.9585" lon="-3.82154">
        <ele>118.4</ele>
        <time>2024-09-07T07:29:55Z</time>
      </trkpt>
      <trkpt lat="47.95849" lon="-3.82146">
        <ele>118.2</ele>
        <time>2024-09-07T07:29:56Z</time>
      </trkpt>
      <trkpt lat="47.95848" lon="-3.82138">
        <ele>118</ele>
        <time>2024-09-07T07:29:57Z</time>
      </trkpt>
      <trkpt lat="47.95846" lon="-3.8213">
        <ele>117.8</ele>
        <time>2024-09-07T07:29:58Z</time>
      </trkpt>
      <trkpt lat="47.95844" lon="-3.82122">
        <ele>117.8</ele>
        <time>2024-09-07T07:29:59Z</time>
      </trkpt>
      <trkpt lat="47.95842" lon="-3.82114">
        <ele>117.8</ele>
        <time>2024-09-07T07:30:00Z</time>
      </trkpt>
      <trkpt lat="47.9584" lon="-3.82106">
        <ele>117.6</ele>
        <time>2024-09-07T07:30:01Z</time>
      </trkpt>
      <trkpt lat="47.95838" lon="-3.82097">
        <ele>117.4</ele>
        <time>2024-09-07T07:30:02Z</time>
      </trkpt>
      <trkpt lat="47.95835" lon="-3.82089">
        <ele>117.4</ele>
        <time>2024-09-07T07:30:03Z</time>
      </trkpt>
      <trkpt lat="47.95833" lon="-3.82081">
        <ele>117.2</ele>
        <time>2024-09-07T07:30:04Z</time>
      </trkpt>
      <trkpt lat="47.9583" lon="-3.82073">
        <ele>117</ele>
        <time>2024-09-07T07:30:05Z</time>
      </trkpt>
      <trkpt lat="47.95828" lon="-3.82064">
        <ele>117</ele>
        <time>2024-09-07T07:30:06Z</time>
      </trkpt>
      <trkpt lat="47.95826" lon="-3.82056">
        <ele>116.8</ele>
        <time>2024-09-07T07:30:07Z</time>
      </trkpt>
      <trkpt lat="47.95825" lon="-3.82048">
        <ele>116.6</ele>
        <time>2024-09-07T07:30:08Z</time>
      </trkpt>
      <trkpt lat="47.95825" lon="-3.82041">
        <ele>116.4</ele>
        <time>2024-09-07T07:30:09Z</time>
      </trkpt>
      <trkpt lat="47.95824" lon="-3.82034">
        <ele>116.2</ele>
        <time>2024-09-07T07:30:10Z</time>
      </trkpt>
      <trkpt lat="47.95823" lon="-3.82028">
        <ele>116.2</ele>
        <time>2024-09-07T07:30:11Z</time>
      </trkpt>
      <trkpt lat="47.95821" lon="-3.82023">
        <ele>116</ele>
        <time>2024-09-07T07:30:12Z</time>
      </trkpt>
      <trkpt lat="47.95819" lon="-3.82019">
        <ele>115.8</ele>
        <time>2024-09-07T07:30:13Z</time>
      </trkpt>
      <trkpt lat="47.95816" lon="-3.82014">
        <ele>115.8</ele>
        <time>2024-09-07T07:30:14Z</time>
      </trkpt>
      <trkpt lat="47.95813" lon="-3.82009">
        <ele>115.8</ele>
        <time>2024-09-07T07:30:15Z</time>
      </trkpt>
      <trkpt lat="47.95811" lon="-3.82004">
        <ele>115.6</ele>
        <time>2024-09-07T07:30:16Z</time>
      </trkpt>
      <trkpt lat="47.9581" lon="-3.81997">
        <ele>115.4</ele>
        <time>2024-09-07T07:30:17Z</time>
      </trkpt>
      <trkpt lat="47.95809" lon="-3.81991">
        <ele>115.4</ele>
        <time>2024-09-07T07:30:18Z</time>
      </trkpt>
      <trkpt lat="47.9581" lon="-3.81984">
        <ele>115.2</ele>
        <time>2024-09-07T07:30:19Z</time>
      </trkpt>
      <trkpt lat="47.95812" lon="-3.81978">
        <ele>115</ele>
        <time>2024-09-07T07:30:20Z</time>
      </trkpt>
      <trkpt lat="47.95815" lon="-3.81973">
        <ele>114.6</ele>
        <time>2024-09-07T07:30:21Z</time>
      </trkpt>
      <trkpt lat="47.95819" lon="-3.81969">
        <ele>114.4</ele>
        <time>2024-09-07T07:30:22Z</time>
      </trkpt>
      <trkpt lat="47.95822" lon="-3.81967">
        <ele>114.4</ele>
        <time>2024-09-07T07:30:23Z</time>
      </trkpt>
      <trkpt lat="47.95826" lon="-3.81966">
        <ele>114</ele>
        <time>2024-09-07T07:30:24Z</time>
      </trkpt>
      <trkpt lat="47.9583" lon="-3.81966">
        <ele>114</ele>
        <time>2024-09-07T07:30:25Z</time>
      </trkpt>
      <trkpt lat="47.95833" lon="-3.81966">
        <ele>113.8</ele>
        <time>2024-09-07T07:30:26Z</time>
      </trkpt>
      <trkpt lat="47.95836" lon="-3.81967">
        <ele>113.8</ele>
        <time>2024-09-07T07:30:27Z</time>
      </trkpt>
      <trkpt lat="47.95839" lon="-3.81967">
        <ele>113.6</ele>
        <time>2024-09-07T07:30:28Z</time>
      </trkpt>
      <trkpt lat="47.95842" lon="-3.81969">
        <ele>113.6</ele>
        <time>2024-09-07T07:30:29Z</time>
      </trkpt>
      <trkpt lat="47.95843" lon="-3.81971">
        <ele>113.6</ele>
        <time>2024-09-07T07:30:30Z</time>
      </trkpt>
      <trkpt lat="47.95844" lon="-3.81974">
        <ele>113.6</ele>
        <time>2024-09-07T07:30:31Z</time>
      </trkpt>
      <trkpt lat="47.95846" lon="-3.81978">
        <ele>113.6</ele>
        <time>2024-09-07T07:30:32Z</time>
      </trkpt>
      <trkpt lat="47.95847" lon="-3.81982">
        <ele>113.6</ele>
        <time>2024-09-07T07:30:33Z</time>
      </trkpt>
      <trkpt lat="47.95847" lon="-3.81987">
        <ele>113.6</ele>
        <time>2024-09-07T07:30:34Z</time>
      </trkpt>
      <trkpt lat="47.95848" lon="-3.81992">
        <ele>113.6</ele>
        <time>2024-09-07T07:30:35Z</time>
      </trkpt>
      <trkpt lat="47.95847" lon="-3.81997">
        <ele>113.6</ele>
        <time>2024-09-07T07:30:36Z</time>
      </trkpt>
      <trkpt lat="47.95846" lon="-3.82002">
        <ele>113.6</ele>
        <time>2024-09-07T07:30:37Z</time>
      </trkpt>
      <trkpt lat="47.95845" lon="-3.82008">
        <ele>113.6</ele>
        <time>2024-09-07T07:30:38Z</time>
      </trkpt>
      <trkpt lat="47.95843" lon="-3.82013">
        <ele>113.6</ele>
        <time>2024-09-07T07:30:39Z</time>
      </trkpt>
      <trkpt lat="47.95841" lon="-3.82019">
        <ele>113.8</ele>
        <time>2024-09-07T07:30:40Z</time>
      </trkpt>
      <trkpt lat="47.95838" lon="-3.82024">
        <ele>113.8</ele>
        <time>2024-09-07T07:30:41Z</time>
      </trkpt>
      <trkpt lat="47.95835" lon="-3.8203">
        <ele>113.8</ele>
        <time>2024-09-07T07:30:42Z</time>
      </trkpt>
      <trkpt lat="47.95833" lon="-3.82036">
        <ele>114</ele>
        <time>2024-09-07T07:30:43Z</time>
      </trkpt>
      <trkpt lat="47.95831" lon="-3.82043">
        <ele>114</ele>
        <time>2024-09-07T07:30:44Z</time>
      </trkpt>
      <trkpt lat="47.95831" lon="-3.8205">
        <ele>114.2</ele>
        <time>2024-09-07T07:30:45Z</time>
      </trkpt>
      <trkpt lat="47.95831" lon="-3.82057">
        <ele>114.2</ele>
        <time>2024-09-07T07:30:46Z</time>
      </trkpt>
      <trkpt lat="47.95833" lon="-3.82064">
        <ele>114.2</ele>
        <time>2024-09-07T07:30:47Z</time>
      </trkpt>
      <trkpt lat="47.95834" lon="-3.82072">
        <ele>114.2</ele>
        <time>2024-09-07T07:30:48Z</time>
      </trkpt>
      <trkpt lat="47.95835" lon="-3.82079">
        <ele>114.2</ele>
        <time>2024-09-07T07:30:49Z</time>
      </trkpt>
      <trkpt lat="47.95837" lon="-3.82085">
        <ele>114.4</ele>
        <time>2024-09-07T07:30:50Z</time>
      </trkpt>
      <trkpt lat="47.9584" lon="-3.82092">
        <ele>114.4</ele>
        <time>2024-09-07T07:30:51Z</time>
      </trkpt>
      <trkpt lat="47.95842" lon="-3.82098">
        <ele>114.4</ele>
        <time>2024-09-07T07:30:52Z</time>
      </trkpt>
      <trkpt lat="47.95844" lon="-3.82105">
        <ele>114.4</ele>
        <time>2024-09-07T07:30:53Z</time>
      </trkpt>
      <trkpt lat="47.95845" lon="-3.82112">
        <ele>114.4</ele>
        <time>2024-09-07T07:30:54Z</time>
      </trkpt>
      <trkpt lat="47.95847" lon="-3.82118">
        <ele>114.4</ele>
        <time>2024-09-07T07:30:55Z</time>
      </trkpt>
      <trkpt lat="47.95849" lon="-3.82125">
        <ele>114.6</ele>
        <time>2024-09-07T07:30:56Z</time>
      </trkpt>
      <trkpt lat="47.9585" lon="-3.82132">
        <ele>114.6</ele>
        <time>2024-09-07T07:30:57Z</time>
      </trkpt>
      <trkpt lat="47.95852" lon="-3.82138">
        <ele>114.8</ele>
        <time>2024-09-07T07:30:58Z</time>
      </trkpt>
      <trkpt lat="47.95853" lon="-3.82145">
        <ele>114.8</ele>
        <time>2024-09-07T07:30:59Z</time>
      </trkpt>
      <trkpt lat="47.95854" lon="-3.82151">
        <ele>115</ele>
        <time>2024-09-07T07:31:00Z</time>
      </trkpt>
      <trkpt lat="47.95855" lon="-3.82158">
        <ele>115</ele>
        <time>2024-09-07T07:31:01Z</time>
      </trkpt>
      <trkpt lat="47.95855" lon="-3.82165">
        <ele>115.2</ele>
        <time>2024-09-07T07:31:02Z</time>
      </trkpt>
      <trkpt lat="47.95855" lon="-3.82172">
        <ele>115.4</ele>
        <time>2024-09-07T07:31:03Z</time>
      </trkpt>
      <trkpt lat="47.95854" lon="-3.82178">
        <ele>115.4</ele>
        <time>2024-09-07T07:31:04Z</time>
      </trkpt>
      <trkpt lat="47.95854" lon="-3.82185">
        <ele>115.6</ele>
        <time>2024-09-07T07:31:05Z</time>
      </trkpt>
      <trkpt lat="47.95853" lon="-3.82191">
        <ele>115.8</ele>
        <time>2024-09-07T07:31:06Z</time>
      </trkpt>
      <trkpt lat="47.95852" lon="-3.82197">
        <ele>115.8</ele>
        <time>2024-09-07T07:31:07Z</time>
      </trkpt>
      <trkpt lat="47.9585" lon="-3.82204">
        <ele>116</ele>
        <time>2024-09-07T07:31:08Z</time>
      </trkpt>
      <trkpt lat="47.95849" lon="-3.8221">
        <ele>116.2</ele>
        <time>2024-09-07T07:31:09Z</time>
      </trkpt>
      <trkpt lat="47.95847" lon="-3.82216">
        <ele>116.4</ele>
        <time>2024-09-07T07:31:10Z</time>
      </trkpt>
      <trkpt lat="47.95845" lon="-3.82221">
        <ele>116.6</ele>
        <time>2024-09-07T07:31:11Z</time>
      </trkpt>
      <trkpt lat="47.95843" lon="-3.82226">
        <ele>116.6</ele>
        <time>2024-09-07T07:31:12Z</time>
      </trkpt>
      <trkpt lat="47.95841" lon="-3.82232">
        <ele>116.8</ele>
        <time>2024-09-07T07:31:13Z</time>
      </trkpt>
      <trkpt lat="47.95839" lon="-3.82237">
        <ele>116.8</ele>
        <time>2024-09-07T07:31:14Z</time>
      </trkpt>
      <trkpt lat="47.95837" lon="-3.82242">
        <ele>117</ele>
        <time>2024-09-07T07:31:15Z</time>
      </trkpt>
      <trkpt lat="47.95835" lon="-3.82247">
        <ele>117.2</ele>
        <time>2024-09-07T07:31:16Z</time>
      </trkpt>
      <trkpt lat="47.95833" lon="-3.82252">
        <ele>117.2</ele>
        <time>2024-09-07T07:31:17Z</time>
      </trkpt>
      <trkpt lat="47.95831" lon="-3.82257">
        <ele>117.4</ele>
        <time>2024-09-07T07:31:18Z</time>
      </trkpt>
      <trkpt lat="47.95829" lon="-3.82262">
        <ele>117.6</ele>
        <time>2024-09-07T07:31:19Z</time>
      </trkpt>
      <trkpt lat="47.95827" lon="-3.82268">
        <ele>117.6</ele>
        <time>2024-09-07T07:31:20Z</time>
      </trkpt>
      <trkpt lat="47.95825" lon="-3.82274">
        <ele>117.6</ele>
        <time>2024-09-07T07:31:21Z</time>
      </trkpt>
      <trkpt lat="47.95823" lon="-3.8228">
        <ele>117.8</ele>
        <time>2024-09-07T07:31:22Z</time>
      </trkpt>
      <trkpt lat="47.95821" lon="-3.82286">
        <ele>118</ele>
        <time>2024-09-07T07:31:23Z</time>
      </trkpt>
      <trkpt lat="47.95818" lon="-3.82293">
        <ele>118</ele>
        <time>2024-09-07T07:31:24Z</time>
      </trkpt>
      <trkpt lat="47.95816" lon="-3.82299">
        <ele>118.2</ele>
        <time>2024-09-07T07:31:25Z</time>
      </trkpt>
      <trkpt lat="47.95814" lon="-3.82306">
        <ele>118.2</ele>
        <time>2024-09-07T07:31:26Z</time>
      </trkpt>
      <trkpt lat="47.95811" lon="-3.82313">
        <ele>118.2</ele>
        <time>2024-09-07T07:31:27Z</time>
      </trkpt>
      <trkpt lat="47.95808" lon="-3.8232">
        <ele>118.2</ele>
        <time>2024-09-07T07:31:28Z</time>
      </trkpt>
      <trkpt lat="47.95806" lon="-3.82327">
        <ele>118.2</ele>
        <time>2024-09-07T07:31:29Z</time>
      </trkpt>
      <trkpt lat="47.95803" lon="-3.82335">
        <ele>118.2</ele>
        <time>2024-09-07T07:31:30Z</time>
      </trkpt>
      <trkpt lat="47.958" lon="-3.82342">
        <ele>118.2</ele>
        <time>2024-09-07T07:31:31Z</time>
      </trkpt>
      <trkpt lat="47.95798" lon="-3.8235">
        <ele>118.2</ele>
        <time>2024-09-07T07:31:32Z</time>
      </trkpt>
      <trkpt lat="47.95795" lon="-3.82358">
        <ele>118.2</ele>
        <time>2024-09-07T07:31:33Z</time>
      </trkpt>
      <trkpt lat="47.95793" lon="-3.82366">
        <ele>118.2</ele>
        <time>2024-09-07T07:31:34Z</time>
      </trkpt>
      <trkpt lat="47.95791" lon="-3.82374">
        <ele>118.2</ele>
        <time>2024-09-07T07:31:35Z</time>
      </trkpt>
      <trkpt lat="47.95788" lon="-3.82382">
        <ele>118.2</ele>
        <time>2024-09-07T07:31:36Z</time>
      </trkpt>
      <trkpt lat="47.95786" lon="-3.82389">
        <ele>118</ele>
        <time>2024-09-07T07:31:37Z</time>
      </trkpt>
      <trkpt lat="47.95784" lon="-3.82396">
        <ele>117.8</ele>
        <time>2024-09-07T07:31:38Z</time>
      </trkpt>
      <trkpt lat="47.95783" lon="-3.82401">
        <ele>117.8</ele>
        <time>2024-09-07T07:31:39Z</time>
      </trkpt>
      <trkpt lat="47.95781" lon="-3.82407">
        <ele>117.8</ele>
        <time>2024-09-07T07:31:40Z</time>
      </trkpt>
      <trkpt lat="47.9578" lon="-3.82411">
        <ele>117.6</ele>
        <time>2024-09-07T07:31:41Z</time>
      </trkpt>
      <trkpt lat="47.95779" lon="-3.82416">
        <ele>117.4</ele>
        <time>2024-09-07T07:31:42Z</time>
      </trkpt>
      <trkpt lat="47.95779" lon="-3.8242">
        <ele>117</ele>
        <time>2024-09-07T07:31:43Z</time>
      </trkpt>
      <trkpt lat="47.95778" lon="-3.82423">
        <ele>117</ele>
        <time>2024-09-07T07:31:44Z</time>
      </trkpt>
      <trkpt lat="47.95777" lon="-3.82426">
        <ele>116.8</ele>
        <time>2024-09-07T07:31:45Z</time>
      </trkpt>
      <trkpt lat="47.95776" lon="-3.82429">
        <ele>116.6</ele>
        <time>2024-09-07T07:31:46Z</time>
      </trkpt>
      <trkpt lat="47.95776" lon="-3.82432">
        <ele>116.4</ele>
        <time>2024-09-07T07:31:47Z</time>
      </trkpt>
      <trkpt lat="47.95775" lon="-3.82434">
        <ele>116.2</ele>
        <time>2024-09-07T07:31:48Z</time>
      </trkpt>
      <trkpt lat="47.95775" lon="-3.82436">
        <ele>116</ele>
        <time>2024-09-07T07:31:49Z</time>
      </trkpt>
      <trkpt lat="47.95775" lon="-3.82436">
        <ele>115.6</ele>
        <time>2024-09-07T07:31:50Z</time>
      </trkpt>
      <trkpt lat="47.95775" lon="-3.82436">
        <ele>115.4</ele>
        <time>2024-09-07T07:31:51Z</time>
      </trkpt>
      <trkpt lat="47.95778" lon="-3.82428">
        <ele>114.6</ele>
        <time>2024-09-07T07:32:34Z</time>
      </trkpt>
      <trkpt lat="47.95778" lon="-3.82426">
        <ele>114.6</ele>
        <time>2024-09-07T07:32:35Z</time>
      </trkpt>
      <trkpt lat="47.95779" lon="-3.82423">
        <ele>114.6</ele>
        <time>2024-09-07T07:32:36Z</time>
      </trkpt>
      <trkpt lat="47.9578" lon="-3.82421">
        <ele>114.6</ele>
        <time>2024-09-07T07:32:37Z</time>
      </trkpt>
      <trkpt lat="47.9578" lon="-3.82419">
        <ele>114.6</ele>
        <time>2024-09-07T07:32:38Z</time>
      </trkpt>
      <trkpt lat="47.95781" lon="-3.82417">
        <ele>114.6</ele>
        <time>2024-09-07T07:32:39Z</time>
      </trkpt>
      <trkpt lat="47.95781" lon="-3.82415">
        <ele>114.6</ele>
        <time>2024-09-07T07:32:40Z</time>
      </trkpt>
      <trkpt lat="47.95782" lon="-3.82413">
        <ele>114.6</ele>
        <time>2024-09-07T07:32:41Z</time>
      </trkpt>
      <trkpt lat="47.95783" lon="-3.82412">
        <ele>114.6</ele>
        <time>2024-09-07T07:32:42Z</time>
      </trkpt>
      <trkpt lat="47.95784" lon="-3.82412">
        <ele>114.8</ele>
        <time>2024-09-07T07:32:43Z</time>
      </trkpt>
      <trkpt lat="47.95784" lon="-3.82412">
        <ele>114.8</ele>
        <time>2024-09-07T07:32:44Z</time>
      </trkpt>
      <trkpt lat="47.95784" lon="-3.82413">
        <ele>114.8</ele>
        <time>2024-09-07T07:32:45Z</time>
      </trkpt>
      <trkpt lat="47.95784" lon="-3.82415">
        <ele>114.8</ele>
        <time>2024-09-07T07:32:46Z</time>
      </trkpt>
      <trkpt lat="47.95784" lon="-3.82417">
        <ele>114.8</ele>
        <time>2024-09-07T07:32:47Z</time>
      </trkpt>
      <trkpt lat="47.95784" lon="-3.8242">
        <ele>114.8</ele>
        <time>2024-09-07T07:32:48Z</time>
      </trkpt>
      <trkpt lat="47.95784" lon="-3.82423">
        <ele>114.8</ele>
        <time>2024-09-07T07:32:49Z</time>
      </trkpt>
      <trkpt lat="47.95785" lon="-3.82426">
        <ele>114.8</ele>
        <time>2024-09-07T07:32:50Z</time>
      </trkpt>
      <trkpt lat="47.95787" lon="-3.82429">
        <ele>114.8</ele>
        <time>2024-09-07T07:32:51Z</time>
      </trkpt>
      <trkpt lat="47.95789" lon="-3.8243">
        <ele>114.8</ele>
        <time>2024-09-07T07:32:52Z</time>
      </trkpt>
      <trkpt lat="47.95793" lon="-3.82431">
        <ele>114.8</ele>
        <time>2024-09-07T07:32:53Z</time>
      </trkpt>
      <trkpt lat="47.95797" lon="-3.82431">
        <ele>114.8</ele>
        <time>2024-09-07T07:32:54Z</time>
      </trkpt>
      <trkpt lat="47.95802" lon="-3.82431">
        <ele>114.8</ele>
        <time>2024-09-07T07:32:55Z</time>
      </trkpt>
      <trkpt lat="47.95807" lon="-3.8243">
        <ele>114.8</ele>
        <time>2024-09-07T07:32:56Z</time>
      </trkpt>
      <trkpt lat="47.95812" lon="-3.82431">
        <ele>114.8</ele>
        <time>2024-09-07T07:32:57Z</time>
      </trkpt>
      <trkpt lat="47.95816" lon="-3.82432">
        <ele>114.8</ele>
        <time>2024-09-07T07:32:58Z</time>
      </trkpt>
      <trkpt lat="47.9582" lon="-3.82434">
        <ele>114.8</ele>
        <time>2024-09-07T07:32:59Z</time>
      </trkpt>
      <trkpt lat="47.95823" lon="-3.82434">
        <ele>114.6</ele>
        <time>2024-09-07T07:33:00Z</time>
      </trkpt>
      <trkpt lat="47.95826" lon="-3.82434">
        <ele>114.6</ele>
        <time>2024-09-07T07:33:01Z</time>
      </trkpt>
      <trkpt lat="47.95829" lon="-3.82434">
        <ele>114.4</ele>
        <time>2024-09-07T07:33:02Z</time>
      </trkpt>
      <trkpt lat="47.95832" lon="-3.82433">
        <ele>114.2</ele>
        <time>2024-09-07T07:33:03Z</time>
      </trkpt>
      <trkpt lat="47.95836" lon="-3.82432">
        <ele>113.8</ele>
        <time>2024-09-07T07:33:04Z</time>
      </trkpt>
      <trkpt lat="47.9584" lon="-3.82432">
        <ele>113.6</ele>
        <time>2024-09-07T07:33:05Z</time>
      </trkpt>
      <trkpt lat="47.95844" lon="-3.82431">
        <ele>113.4</ele>
        <time>2024-09-07T07:33:06Z</time>
      </trkpt>
      <trkpt lat="47.95849" lon="-3.8243">
        <ele>112.8</ele>
        <time>2024-09-07T07:33:07Z</time>
      </trkpt>
      <trkpt lat="47.95853" lon="-3.8243">
        <ele>112.6</ele>
        <time>2024-09-07T07:33:08Z</time>
      </trkpt>
      <trkpt lat="47.95857" lon="-3.82429">
        <ele>112.4</ele>
        <time>2024-09-07T07:33:09Z</time>
      </trkpt>
      <trkpt lat="47.95862" lon="-3.82429">
        <ele>112.2</ele>
        <time>2024-09-07T07:33:10Z</time>
      </trkpt>
      <trkpt lat="47.95867" lon="-3.82428">
        <ele>112</ele>
        <time>2024-09-07T07:33:11Z</time>
      </trkpt>
      <trkpt lat="47.95871" lon="-3.82427">
        <ele>112</ele>
        <time>2024-09-07T07:33:12Z</time>
      </trkpt>
      <trkpt lat="47.95875" lon="-3.82426">
        <ele>111.8</ele>
        <time>2024-09-07T07:33:13Z</time>
      </trkpt>
      <trkpt lat="47.9588" lon="-3.82425">
        <ele>111.8</ele>
        <time>2024-09-07T07:33:14Z</time>
      </trkpt>
      <trkpt lat="47.95884" lon="-3.82424">
        <ele>111.8</ele>
        <time>2024-09-07T07:33:15Z</time>
      </trkpt>
      <trkpt lat="47.95889" lon="-3.82424">
        <ele>111.8</ele>
        <time>2024-09-07T07:33:16Z</time>
      </trkpt>
      <trkpt lat="47.95894" lon="-3.82424">
        <ele>111.6</ele>
        <time>2024-09-07T07:33:17Z</time>
      </trkpt>
      <trkpt lat="47.95899" lon="-3.82424">
        <ele>111.6</ele>
        <time>2024-09-07T07:33:18Z</time>
      </trkpt>
      <trkpt lat="47.95904" lon="-3.82424">
        <ele>111.6</ele>
        <time>2024-09-07T07:33:19Z</time>
      </trkpt>
      <trkpt lat="47.95909" lon="-3.82425">
        <ele>111.6</ele>
        <time>2024-09-07T07:33:20Z</time>
      </trkpt>
      <trkpt lat="47.95914" lon="-3.82425">
        <ele>111.6</ele>
        <time>2024-09-07T07:33:21Z</time>
      </trkpt>
      <trkpt lat="47.95919" lon="-3.82426">
        <ele>111.6</ele>
        <time>2024-09-07T07:33:22Z</time>
      </trkpt>
      <trkpt lat="47.95923" lon="-3.82427">
        <ele>111.4</ele>
        <time>2024-09-07T07:33:23Z</time>
      </trkpt>
      <trkpt lat="47.95928" lon="-3.82429">
        <ele>111.6</ele>
        <time>2024-09-07T07:33:24Z</time>
      </trkpt>
      <trkpt lat="47.95933" lon="-3.82429">
        <ele>111.6</ele>
        <time>2024-09-07T07:33:25Z</time>
      </trkpt>
      <trkpt lat="47.95938" lon="-3.82426">
        <ele>111.6</ele>
        <time>2024-09-07T07:33:26Z</time>
      </trkpt>
      <trkpt lat="47.95943" lon="-3.82424">
        <ele>111.6</ele>
        <time>2024-09-07T07:33:27Z</time>
      </trkpt>
      <trkpt lat="47.95948" lon="-3.82422">
        <ele>111.2</ele>
        <time>2024-09-07T07:33:28Z</time>
      </trkpt>
      <trkpt lat="47.95953" lon="-3.8242">
        <ele>111.2</ele>
        <time>2024-09-07T07:33:29Z</time>
      </trkpt>
      <trkpt lat="47.95957" lon="-3.82415">
        <ele>111.2</ele>
        <time>2024-09-07T07:33:30Z</time>
      </trkpt>
      <trkpt lat="47.95961" lon="-3.82411">
        <ele>111.2</ele>
        <time>2024-09-07T07:33:31Z</time>
      </trkpt>
      <trkpt lat="47.95965" lon="-3.82407">
        <ele>111.4</ele>
        <time>2024-09-07T07:33:32Z</time>
      </trkpt>
      <trkpt lat="47.95968" lon="-3.82404">
        <ele>111.4</ele>
        <time>2024-09-07T07:33:33Z</time>
      </trkpt>
      <trkpt lat="47.95972" lon="-3.82402">
        <ele>111.4</ele>
        <time>2024-09-07T07:33:34Z</time>
      </trkpt>
      <trkpt lat="47.95976" lon="-3.824">
        <ele>111.4</ele>
        <time>2024-09-07T07:33:35Z</time>
      </trkpt>
      <trkpt lat="47.9598" lon="-3.82399">
        <ele>111.4</ele>
        <time>2024-09-07T07:33:36Z</time>
      </trkpt>
      <trkpt lat="47.95983" lon="-3.82399">
        <ele>111.4</ele>
        <time>2024-09-07T07:33:37Z</time>
      </trkpt>
      <trkpt lat="47.95986" lon="-3.82399">
        <ele>111.4</ele>
        <time>2024-09-07T07:33:38Z</time>
      </trkpt>
      <trkpt lat="47.95988" lon="-3.82401">
        <ele>111.4</ele>
        <time>2024-09-07T07:33:39Z</time>
      </trkpt>
      <trkpt lat="47.95991" lon="-3.82404">
        <ele>111.6</ele>
        <time>2024-09-07T07:33:40Z</time>
      </trkpt>
      <trkpt lat="47.95993" lon="-3.82408">
        <ele>111.6</ele>
        <time>2024-09-07T07:33:41Z</time>
      </trkpt>
      <trkpt lat="47.95993" lon="-3.82412">
        <ele>111.6</ele>
        <time>2024-09-07T07:33:42Z</time>
      </trkpt>
      <trkpt lat="47.95994" lon="-3.82416">
        <ele>111.6</ele>
        <time>2024-09-07T07:33:43Z</time>
      </trkpt>
      <trkpt lat="47.95994" lon="-3.8242">
        <ele>111.6</ele>
        <time>2024-09-07T07:33:44Z</time>
      </trkpt>
      <trkpt lat="47.95994" lon="-3.82425">
        <ele>111.6</ele>
        <time>2024-09-07T07:33:45Z</time>
      </trkpt>
      <trkpt lat="47.95994" lon="-3.8243">
        <ele>111.6</ele>
        <time>2024-09-07T07:33:46Z</time>
      </trkpt>
      <trkpt lat="47.95995" lon="-3.82435">
        <ele>111.6</ele>
        <time>2024-09-07T07:33:47Z</time>
      </trkpt>
      <trkpt lat="47.95995" lon="-3.8244">
        <ele>111.6</ele>
        <time>2024-09-07T07:33:48Z</time>
      </trkpt>
      <trkpt lat="47.95996" lon="-3.82445">
        <ele>111.8</ele>
        <time>2024-09-07T07:33:49Z</time>
      </trkpt>
      <trkpt lat="47.95996" lon="-3.8245">
        <ele>111.8</ele>
        <time>2024-09-07T07:33:50Z</time>
      </trkpt>
      <trkpt lat="47.95997" lon="-3.82455">
        <ele>111.8</ele>
        <time>2024-09-07T07:33:51Z</time>
      </trkpt>
      <trkpt lat="47.95998" lon="-3.8246">
        <ele>112</ele>
        <time>2024-09-07T07:33:52Z</time>
      </trkpt>
      <trkpt lat="47.95998" lon="-3.82465">
        <ele>112</ele>
        <time>2024-09-07T07:33:53Z</time>
      </trkpt>
      <trkpt lat="47.95998" lon="-3.8247">
        <ele>112</ele>
        <time>2024-09-07T07:33:54Z</time>
      </trkpt>
      <trkpt lat="47.95998" lon="-3.82476">
        <ele>112</ele>
        <time>2024-09-07T07:33:55Z</time>
      </trkpt>
      <trkpt lat="47.95998" lon="-3.82482">
        <ele>112</ele>
        <time>2024-09-07T07:33:56Z</time>
      </trkpt>
      <trkpt lat="47.95998" lon="-3.82487">
        <ele>112.2</ele>
        <time>2024-09-07T07:33:57Z</time>
      </trkpt>
      <trkpt lat="47.95999" lon="-3.82493">
        <ele>112.2</ele>
        <time>2024-09-07T07:33:58Z</time>
      </trkpt>
      <trkpt lat="47.96" lon="-3.82499">
        <ele>112.2</ele>
        <time>2024-09-07T07:33:59Z</time>
      </trkpt>
      <trkpt lat="47.96" lon="-3.82505">
        <ele>112.2</ele>
        <time>2024-09-07T07:34:00Z</time>
      </trkpt>
      <trkpt lat="47.96" lon="-3.8251">
        <ele>112.2</ele>
        <time>2024-09-07T07:34:01Z</time>
      </trkpt>
      <trkpt lat="47.96001" lon="-3.82516">
        <ele>112.2</ele>
        <time>2024-09-07T07:34:02Z</time>
      </trkpt>
      <trkpt lat="47.96001" lon="-3.82521">
        <ele>112.2</ele>
        <time>2024-09-07T07:34:03Z</time>
      </trkpt>
      <trkpt lat="47.96002" lon="-3.82526">
        <ele>112.2</ele>
        <time>2024-09-07T07:34:04Z</time>
      </trkpt>
      <trkpt lat="47.96002" lon="-3.82532">
        <ele>112.2</ele>
        <time>2024-09-07T07:34:05Z</time>
      </trkpt>
      <trkpt lat="47.96002" lon="-3.82537">
        <ele>112.2</ele>
        <time>2024-09-07T07:34:06Z</time>
      </trkpt>
      <trkpt lat="47.96002" lon="-3.82541">
        <ele>112.2</ele>
        <time>2024-09-07T07:34:07Z</time>
      </trkpt>
      <trkpt lat="47.96002" lon="-3.82545">
        <ele>112.2</ele>
        <time>2024-09-07T07:34:08Z</time>
      </trkpt>
      <trkpt lat="47.96002" lon="-3.8255">
        <ele>112.2</ele>
        <time>2024-09-07T07:34:09Z</time>
      </trkpt>
      <trkpt lat="47.96002" lon="-3.82554">
        <ele>112.2</ele>
        <time>2024-09-07T07:34:10Z</time>
      </trkpt>
      <trkpt lat="47.96003" lon="-3.82558">
        <ele>112</ele>
        <time>2024-09-07T07:34:11Z</time>
      </trkpt>
      <trkpt lat="47.96003" lon="-3.82561">
        <ele>112</ele>
        <time>2024-09-07T07:34:12Z</time>
      </trkpt>
      <trkpt lat="47.96003" lon="-3.82565">
        <ele>112</ele>
        <time>2024-09-07T07:34:13Z</time>
      </trkpt>
      <trkpt lat="47.96003" lon="-3.82568">
        <ele>112</ele>
        <time>2024-09-07T07:34:14Z</time>
      </trkpt>
      <trkpt lat="47.96003" lon="-3.82571">
        <ele>112</ele>
        <time>2024-09-07T07:34:15Z</time>
      </trkpt>
      <trkpt lat="47.96003" lon="-3.82572">
        <ele>112</ele>
        <time>2024-09-07T07:34:16Z</time>
      </trkpt>
      <trkpt lat="47.96003" lon="-3.82572">
        <ele>112</ele>
        <time>2024-09-07T07:34:17Z</time>
      </trkpt>
      <trkpt lat="47.96004" lon="-3.82584">
        <ele>111.8</ele>
        <time>2024-09-07T07:34:40Z</time>
      </trkpt>
      <trkpt lat="47.96005" lon="-3.82587">
        <ele>111.8</ele>
        <time>2024-09-07T07:34:41Z</time>
      </trkpt>
      <trkpt lat="47.96005" lon="-3.8259">
        <ele>111.8</ele>
        <time>2024-09-07T07:34:42Z</time>
      </trkpt>
      <trkpt lat="47.96006" lon="-3.82593">
        <ele>111.8</ele>
        <time>2024-09-07T07:34:43Z</time>
      </trkpt>
      <trkpt lat="47.96006" lon="-3.82596">
        <ele>111.8</ele>
        <time>2024-09-07T07:34:44Z</time>
      </trkpt>
      <trkpt lat="47.96007" lon="-3.826">
        <ele>111.8</ele>
        <time>2024-09-07T07:34:45Z</time>
      </trkpt>
      <trkpt lat="47.96007" lon="-3.82603">
        <ele>111.8</ele>
        <time>2024-09-07T07:34:46Z</time>
      </trkpt>
      <trkpt lat="47.96007" lon="-3.82609">
        <ele>111.8</ele>
        <time>2024-09-07T07:34:47Z</time>
      </trkpt>
      <trkpt lat="47.96007" lon="-3.82615">
        <ele>111.8</ele>
        <time>2024-09-07T07:34:48Z</time>
      </trkpt>
      <trkpt lat="47.96007" lon="-3.82621">
        <ele>111.8</ele>
        <time>2024-09-07T07:34:49Z</time>
      </trkpt>
      <trkpt lat="47.96007" lon="-3.82626">
        <ele>111.8</ele>
        <time>2024-09-07T07:34:50Z</time>
      </trkpt>
      <trkpt lat="47.96007" lon="-3.82631">
        <ele>111.8</ele>
        <time>2024-09-07T07:34:51Z</time>
      </trkpt>
      <trkpt lat="47.96008" lon="-3.82636">
        <ele>111.8</ele>
        <time>2024-09-07T07:34:52Z</time>
      </trkpt>
      <trkpt lat="47.96008" lon="-3.8264">
        <ele>111.8</ele>
        <time>2024-09-07T07:34:53Z</time>
      </trkpt>
      <trkpt lat="47.96009" lon="-3.82645">
        <ele>111.8</ele>
        <time>2024-09-07T07:34:54Z</time>
      </trkpt>
      <trkpt lat="47.9601" lon="-3.8265">
        <ele>111.6</ele>
        <time>2024-09-07T07:34:55Z</time>
      </trkpt>
      <trkpt lat="47.9601" lon="-3.82655">
        <ele>111.6</ele>
        <time>2024-09-07T07:34:56Z</time>
      </trkpt>
      <trkpt lat="47.9601" lon="-3.82659">
        <ele>111.6</ele>
        <time>2024-09-07T07:34:57Z</time>
      </trkpt>
      <trkpt lat="47.9601" lon="-3.82664">
        <ele>111.6</ele>
        <time>2024-09-07T07:34:58Z</time>
      </trkpt>
      <trkpt lat="47.9601" lon="-3.8267">
        <ele>111.6</ele>
        <time>2024-09-07T07:34:59Z</time>
      </trkpt>
      <trkpt lat="47.9601" lon="-3.82676">
        <ele>111.6</ele>
        <time>2024-09-07T07:35:00Z</time>
      </trkpt>
      <trkpt lat="47.9601" lon="-3.82682">
        <ele>111.6</ele>
        <time>2024-09-07T07:35:01Z</time>
      </trkpt>
      <trkpt lat="47.9601" lon="-3.82688">
        <ele>111.6</ele>
        <time>2024-09-07T07:35:02Z</time>
      </trkpt>
      <trkpt lat="47.9601" lon="-3.82693">
        <ele>111.6</ele>
        <time>2024-09-07T07:35:03Z</time>
      </trkpt>
      <trkpt lat="47.96011" lon="-3.82697">
        <ele>111.6</ele>
        <time>2024-09-07T07:35:04Z</time>
      </trkpt>
      <trkpt lat="47.96011" lon="-3.82701">
        <ele>111.8</ele>
        <time>2024-09-07T07:35:05Z</time>
      </trkpt>
      <trkpt lat="47.9601" lon="-3.82704">
        <ele>111.8</ele>
        <time>2024-09-07T07:35:06Z</time>
      </trkpt>
      <trkpt lat="47.9601" lon="-3.82706">
        <ele>111.8</ele>
        <time>2024-09-07T07:35:07Z</time>
      </trkpt>
      <trkpt lat="47.9601" lon="-3.82706">
        <ele>111.8</ele>
        <time>2024-09-07T07:35:08Z</time>
      </trkpt>
      <trkpt lat="47.96011" lon="-3.82708">
        <ele>111.8</ele>
        <time>2024-09-07T07:35:09Z</time>
      </trkpt>
      <trkpt lat="47.96011" lon="-3.82711">
        <ele>111.8</ele>
        <time>2024-09-07T07:35:10Z</time>
      </trkpt>
      <trkpt lat="47.96012" lon="-3.82714">
        <ele>112</ele>
        <time>2024-09-07T07:35:11Z</time>
      </trkpt>
      <trkpt lat="47.96012" lon="-3.82717">
        <ele>112</ele>
        <time>2024-09-07T07:35:12Z</time>
      </trkpt>
      <trkpt lat="47.96012" lon="-3.82719">
        <ele>112</ele>
        <time>2024-09-07T07:35:13Z</time>
      </trkpt>
      <trkpt lat="47.96012" lon="-3.82722">
        <ele>112</ele>
        <time>2024-09-07T07:35:14Z</time>
      </trkpt>
      <trkpt lat="47.96012" lon="-3.82724">
        <ele>112</ele>
        <time>2024-09-07T07:35:15Z</time>
      </trkpt>
      <trkpt lat="47.96011" lon="-3.82725">
        <ele>112</ele>
        <time>2024-09-07T07:35:16Z</time>
      </trkpt>
      <trkpt lat="47.9601" lon="-3.82726">
        <ele>112</ele>
        <time>2024-09-07T07:35:17Z</time>
      </trkpt>
      <trkpt lat="47.96009" lon="-3.82726">
        <ele>112</ele>
        <time>2024-09-07T07:35:18Z</time>
      </trkpt>
      <trkpt lat="47.96008" lon="-3.82726">
        <ele>112</ele>
        <time>2024-09-07T07:35:19Z</time>
      </trkpt>
      <trkpt lat="47.96007" lon="-3.82727">
        <ele>112</ele>
        <time>2024-09-07T07:35:20Z</time>
      </trkpt>
      <trkpt lat="47.96007" lon="-3.82728">
        <ele>112</ele>
        <time>2024-09-07T07:35:21Z</time>
      </trkpt>
      <trkpt lat="47.96007" lon="-3.82729">
        <ele>112</ele>
        <time>2024-09-07T07:35:22Z</time>
      </trkpt>
      <trkpt lat="47.96008" lon="-3.8273">
        <ele>112</ele>
        <time>2024-09-07T07:35:23Z</time>
      </trkpt>
      <trkpt lat="47.96008" lon="-3.82731">
        <ele>112</ele>
        <time>2024-09-07T07:35:24Z</time>
      </trkpt>
      <trkpt lat="47.96002" lon="-3.82727">
        <ele>112.4</ele>
        <time>2024-09-07T07:36:43Z</time>
      </trkpt>
      <trkpt lat="47.96001" lon="-3.82728">
        <ele>112.4</ele>
        <time>2024-09-07T07:36:44Z</time>
      </trkpt>
      <trkpt lat="47.96" lon="-3.82729">
        <ele>112.4</ele>
        <time>2024-09-07T07:36:45Z</time>
      </trkpt>
      <trkpt lat="47.95999" lon="-3.8273">
        <ele>112.4</ele>
        <time>2024-09-07T07:36:46Z</time>
      </trkpt>
      <trkpt lat="47.95999" lon="-3.82732">
        <ele>112.4</ele>
        <time>2024-09-07T07:36:47Z</time>
      </trkpt>
      <trkpt lat="47.96005" lon="-3.82756">
        <ele>113.4</ele>
        <time>2024-09-07T07:37:01Z</time>
      </trkpt>
      <trkpt lat="47.96008" lon="-3.82756">
        <ele>113.4</ele>
        <time>2024-09-07T07:37:02Z</time>
      </trkpt>
      <trkpt lat="47.96011" lon="-3.82757">
        <ele>113.4</ele>
        <time>2024-09-07T07:37:03Z</time>
      </trkpt>
      <trkpt lat="47.96015" lon="-3.82758">
        <ele>113.4</ele>
        <time>2024-09-07T07:37:04Z</time>
      </trkpt>
      <trkpt lat="47.9602" lon="-3.82758">
        <ele>113.4</ele>
        <time>2024-09-07T07:37:05Z</time>
      </trkpt>
      <trkpt lat="47.96025" lon="-3.82758">
        <ele>113.4</ele>
        <time>2024-09-07T07:37:06Z</time>
      </trkpt>
      <trkpt lat="47.96025" lon="-3.82758">
        <ele>113.4</ele>
        <time>2024-09-07T07:37:07Z</time>
      </trkpt>
      <trkpt lat="47.96026" lon="-3.82759">
        <ele>113.4</ele>
        <time>2024-09-07T07:37:08Z</time>
      </trkpt>
      <trkpt lat="47.96028" lon="-3.82758">
        <ele>113.4</ele>
        <time>2024-09-07T07:37:09Z</time>
      </trkpt>
      <trkpt lat="47.96029" lon="-3.82758">
        <ele>113.4</ele>
        <time>2024-09-07T07:37:10Z</time>
      </trkpt>
      <trkpt lat="47.9603" lon="-3.82757">
        <ele>113.4</ele>
        <time>2024-09-07T07:37:11Z</time>
      </trkpt>
      <trkpt lat="47.96031" lon="-3.82756">
        <ele>113.4</ele>
        <time>2024-09-07T07:37:12Z</time>
      </trkpt>
      <trkpt lat="47.96031" lon="-3.8275">
        <ele>112.4</ele>
        <time>2024-09-07T07:37:16Z</time>
      </trkpt>
      <trkpt lat="47.96031" lon="-3.82748">
        <ele>112.2</ele>
        <time>2024-09-07T07:37:17Z</time>
      </trkpt>
      <trkpt lat="47.96031" lon="-3.82746">
        <ele>112.2</ele>
        <time>2024-09-07T07:37:18Z</time>
      </trkpt>
      <trkpt lat="47.96031" lon="-3.82744">
        <ele>112.2</ele>
        <time>2024-09-07T07:37:19Z</time>
      </trkpt>
      <trkpt lat="47.96032" lon="-3.8274">
        <ele>112.2</ele>
        <time>2024-09-07T07:37:20Z</time>
      </trkpt>
      <trkpt lat="47.96033" lon="-3.82737">
        <ele>112.2</ele>
        <time>2024-09-07T07:37:21Z</time>
      </trkpt>
      <trkpt lat="47.96034" lon="-3.82733">
        <ele>112.2</ele>
        <time>2024-09-07T07:37:22Z</time>
      </trkpt>
      <trkpt lat="47.96036" lon="-3.8273">
        <ele>112.2</ele>
        <time>2024-09-07T07:37:23Z</time>
      </trkpt>
      <trkpt lat="47.96038" lon="-3.82729">
        <ele>112.2</ele>
        <time>2024-09-07T07:37:24Z</time>
      </trkpt>
      <trkpt lat="47.96041" lon="-3.82729">
        <ele>112.2</ele>
        <time>2024-09-07T07:37:25Z</time>
      </trkpt>
      <trkpt lat="47.96044" lon="-3.8273">
        <ele>112.2</ele>
        <time>2024-09-07T07:37:26Z</time>
      </trkpt>
      <trkpt lat="47.96047" lon="-3.82732">
        <ele>112.2</ele>
        <time>2024-09-07T07:37:27Z</time>
      </trkpt>
      <trkpt lat="47.96051" lon="-3.82735">
        <ele>112.2</ele>
        <time>2024-09-07T07:37:28Z</time>
      </trkpt>
      <trkpt lat="47.96054" lon="-3.82737">
        <ele>112.2</ele>
        <time>2024-09-07T07:37:29Z</time>
      </trkpt>
      <trkpt lat="47.96057" lon="-3.8274">
        <ele>112.2</ele>
        <time>2024-09-07T07:37:30Z</time>
      </trkpt>
      <trkpt lat="47.9606" lon="-3.82742">
        <ele>112</ele>
        <time>2024-09-07T07:37:31Z</time>
      </trkpt>
      <trkpt lat="47.96062" lon="-3.82745">
        <ele>112</ele>
        <time>2024-09-07T07:37:32Z</time>
      </trkpt>
      <trkpt lat="47.96064" lon="-3.82748">
        <ele>112</ele>
        <time>2024-09-07T07:37:33Z</time>
      </trkpt>
      <trkpt lat="47.96066" lon="-3.82751">
        <ele>112</ele>
        <time>2024-09-07T07:37:34Z</time>
      </trkpt>
      <trkpt lat="47.96068" lon="-3.82753">
        <ele>112</ele>
        <time>2024-09-07T07:37:35Z</time>
      </trkpt>
      <trkpt lat="47.96071" lon="-3.82755">
        <ele>111.8</ele>
        <time>2024-09-07T07:37:36Z</time>
      </trkpt>
      <trkpt lat="47.96073" lon="-3.82757">
        <ele>111.8</ele>
        <time>2024-09-07T07:37:37Z</time>
      </trkpt>
      <trkpt lat="47.96076" lon="-3.82759">
        <ele>111.8</ele>
        <time>2024-09-07T07:37:38Z</time>
      </trkpt>
      <trkpt lat="47.96079" lon="-3.82761">
        <ele>111.8</ele>
        <time>2024-09-07T07:37:39Z</time>
      </trkpt>
      <trkpt lat="47.96082" lon="-3.82763">
        <ele>111.8</ele>
        <time>2024-09-07T07:37:40Z</time>
      </trkpt>
      <trkpt lat="47.96085" lon="-3.82766">
        <ele>111.8</ele>
        <time>2024-09-07T07:37:41Z</time>
      </trkpt>
      <trkpt lat="47.96089" lon="-3.82768">
        <ele>111.8</ele>
        <time>2024-09-07T07:37:42Z</time>
      </trkpt>
      <trkpt lat="47.96093" lon="-3.8277">
        <ele>111.8</ele>
        <time>2024-09-07T07:37:43Z</time>
      </trkpt>
      <trkpt lat="47.96097" lon="-3.82771">
        <ele>111.8</ele>
        <time>2024-09-07T07:37:44Z</time>
      </trkpt>
      <trkpt lat="47.96101" lon="-3.82773">
        <ele>111.8</ele>
        <time>2024-09-07T07:37:45Z</time>
      </trkpt>
      <trkpt lat="47.96104" lon="-3.82775">
        <ele>111.8</ele>
        <time>2024-09-07T07:37:46Z</time>
      </trkpt>
      <trkpt lat="47.96107" lon="-3.82778">
        <ele>111.8</ele>
        <time>2024-09-07T07:37:47Z</time>
      </trkpt>
      <trkpt lat="47.96109" lon="-3.82781">
        <ele>111.8</ele>
        <time>2024-09-07T07:37:48Z</time>
      </trkpt>
      <trkpt lat="47.9611" lon="-3.82783">
        <ele>111.8</ele>
        <time>2024-09-07T07:37:49Z</time>
      </trkpt>
      <trkpt lat="47.96112" lon="-3.82785">
        <ele>111.8</ele>
        <time>2024-09-07T07:37:50Z</time>
      </trkpt>
      <trkpt lat="47.96112" lon="-3.82786">
        <ele>111.8</ele>
        <time>2024-09-07T07:37:51Z</time>
      </trkpt>
      <trkpt lat="47.96112" lon="-3.82786">
        <ele>111.8</ele>
        <time>2024-09-07T07:37:52Z</time>
      </trkpt>
      <trkpt lat="47.96112" lon="-3.82786">
        <ele>111.8</ele>
        <time>2024-09-07T07:37:53Z</time>
      </trkpt>
      <trkpt lat="47.96121" lon="-3.8279">
        <ele>112.2</ele>
        <time>2024-09-07T07:38:09Z</time>
      </trkpt>
      <trkpt lat="47.96123" lon="-3.82792">
        <ele>112.2</ele>
        <time>2024-09-07T07:38:10Z</time>
      </trkpt>
      <trkpt lat="47.96125" lon="-3.82795">
        <ele>112.2</ele>
        <time>2024-09-07T07:38:11Z</time>
      </trkpt>
      <trkpt lat="47.96128" lon="-3.82797">
        <ele>112.2</ele>
        <time>2024-09-07T07:38:12Z</time>
      </trkpt>
      <trkpt lat="47.96131" lon="-3.828">
        <ele>112.2</ele>
        <time>2024-09-07T07:38:13Z</time>
      </trkpt>
      <trkpt lat="47.96134" lon="-3.82803">
        <ele>112.2</ele>
        <time>2024-09-07T07:38:14Z</time>
      </trkpt>
      <trkpt lat="47.96137" lon="-3.82806">
        <ele>112.2</ele>
        <time>2024-09-07T07:38:15Z</time>
      </trkpt>
      <trkpt lat="47.96141" lon="-3.82809">
        <ele>112.2</ele>
        <time>2024-09-07T07:38:16Z</time>
      </trkpt>
      <trkpt lat="47.96144" lon="-3.82812">
        <ele>112.2</ele>
        <time>2024-09-07T07:38:17Z</time>
      </trkpt>
      <trkpt lat="47.96147" lon="-3.82815">
        <ele>112.2</ele>
        <time>2024-09-07T07:38:18Z</time>
      </trkpt>
      <trkpt lat="47.9615" lon="-3.82818">
        <ele>112.2</ele>
        <time>2024-09-07T07:38:19Z</time>
      </trkpt>
      <trkpt lat="47.96153" lon="-3.82822">
        <ele>112.2</ele>
        <time>2024-09-07T07:38:20Z</time>
      </trkpt>
      <trkpt lat="47.96156" lon="-3.82825">
        <ele>112.2</ele>
        <time>2024-09-07T07:38:21Z</time>
      </trkpt>
      <trkpt lat="47.96159" lon="-3.82828">
        <ele>112.2</ele>
        <time>2024-09-07T07:38:22Z</time>
      </trkpt>
      <trkpt lat="47.96162" lon="-3.82831">
        <ele>112.2</ele>
        <time>2024-09-07T07:38:23Z</time>
      </trkpt>
      <trkpt lat="47.96165" lon="-3.82833">
        <ele>112.2</ele>
        <time>2024-09-07T07:38:24Z</time>
      </trkpt>
      <trkpt lat="47.96168" lon="-3.82836">
        <ele>112.2</ele>
        <time>2024-09-07T07:38:25Z</time>
      </trkpt>
      <trkpt lat="47.96171" lon="-3.82839">
        <ele>112.4</ele>
        <time>2024-09-07T07:38:26Z</time>
      </trkpt>
      <trkpt lat="47.96174" lon="-3.82842">
        <ele>112.4</ele>
        <time>2024-09-07T07:38:27Z</time>
      </trkpt>
      <trkpt lat="47.96177" lon="-3.82844">
        <ele>112.4</ele>
        <time>2024-09-07T07:38:28Z</time>
      </trkpt>
      <trkpt lat="47.9618" lon="-3.82847">
        <ele>112.4</ele>
        <time>2024-09-07T07:38:29Z</time>
      </trkpt>
      <trkpt lat="47.96183" lon="-3.8285">
        <ele>112.4</ele>
        <time>2024-09-07T07:38:30Z</time>
      </trkpt>
      <trkpt lat="47.96186" lon="-3.82852">
        <ele>112.4</ele>
        <time>2024-09-07T07:38:31Z</time>
      </trkpt>
      <trkpt lat="47.96188" lon="-3.82855">
        <ele>112.6</ele>
        <time>2024-09-07T07:38:32Z</time>
      </trkpt>
      <trkpt lat="47.9619" lon="-3.82857">
        <ele>112.6</ele>
        <time>2024-09-07T07:38:33Z</time>
      </trkpt>
      <trkpt lat="47.96192" lon="-3.82859">
        <ele>112.6</ele>
        <time>2024-09-07T07:38:34Z</time>
      </trkpt>
      <trkpt lat="47.96194" lon="-3.82861">
        <ele>112.6</ele>
        <time>2024-09-07T07:38:35Z</time>
      </trkpt>
      <trkpt lat="47.96197" lon="-3.82862">
        <ele>112.6</ele>
        <time>2024-09-07T07:38:36Z</time>
      </trkpt>
      <trkpt lat="47.962" lon="-3.82862">
        <ele>112.6</ele>
        <time>2024-09-07T07:38:37Z</time>
      </trkpt>
      <trkpt lat="47.96202" lon="-3.8286">
        <ele>112.6</ele>
        <time>2024-09-07T07:38:38Z</time>
      </trkpt>
      <trkpt lat="47.96205" lon="-3.82858">
        <ele>112.6</ele>
        <time>2024-09-07T07:38:39Z</time>
      </trkpt>
      <trkpt lat="47.96208" lon="-3.82854">
        <ele>112.8</ele>
        <time>2024-09-07T07:38:40Z</time>
      </trkpt>
      <trkpt lat="47.96211" lon="-3.8285">
        <ele>112.8</ele>
        <time>2024-09-07T07:38:41Z</time>
      </trkpt>
      <trkpt lat="47.96214" lon="-3.82845">
        <ele>112.8</ele>
        <time>2024-09-07T07:38:42Z</time>
      </trkpt>
      <trkpt lat="47.96217" lon="-3.8284">
        <ele>112.8</ele>
        <time>2024-09-07T07:38:43Z</time>
      </trkpt>
      <trkpt lat="47.9622" lon="-3.82836">
        <ele>112.8</ele>
        <time>2024-09-07T07:38:44Z</time>
      </trkpt>
      <trkpt lat="47.96224" lon="-3.82832">
        <ele>112.8</ele>
        <time>2024-09-07T07:38:45Z</time>
      </trkpt>
      <trkpt lat="47.96228" lon="-3.82828">
        <ele>113</ele>
        <time>2024-09-07T07:38:46Z</time>
      </trkpt>
      <trkpt lat="47.96232" lon="-3.82823">
        <ele>113</ele>
        <time>2024-09-07T07:38:47Z</time>
      </trkpt>
      <trkpt lat="47.96236" lon="-3.82817">
        <ele>113.2</ele>
        <time>2024-09-07T07:38:48Z</time>
      </trkpt>
      <trkpt lat="47.96239" lon="-3.82811">
        <ele>113.4</ele>
        <time>2024-09-07T07:38:49Z</time>
      </trkpt>
      <trkpt lat="47.96243" lon="-3.82806">
        <ele>113.4</ele>
        <time>2024-09-07T07:38:50Z</time>
      </trkpt>
      <trkpt lat="47.96246" lon="-3.828">
        <ele>113.6</ele>
        <time>2024-09-07T07:38:51Z</time>
      </trkpt>
      <trkpt lat="47.96249" lon="-3.82795">
        <ele>113.6</ele>
        <time>2024-09-07T07:38:52Z</time>
      </trkpt>
      <trkpt lat="47.96253" lon="-3.8279">
        <ele>113.6</ele>
        <time>2024-09-07T07:38:53Z</time>
      </trkpt>
      <trkpt lat="47.96257" lon="-3.82784">
        <ele>113.6</ele>
        <time>2024-09-07T07:38:54Z</time>
      </trkpt>
      <trkpt lat="47.96261" lon="-3.82778">
        <ele>113.6</ele>
        <time>2024-09-07T07:38:55Z</time>
      </trkpt>
      <trkpt lat="47.96264" lon="-3.82772">
        <ele>113.6</ele>
        <time>2024-09-07T07:38:56Z</time>
      </trkpt>
      <trkpt lat="47.96268" lon="-3.82766">
        <ele>113.6</ele>
        <time>2024-09-07T07:38:57Z</time>
      </trkpt>
      <trkpt lat="47.96272" lon="-3.8276">
        <ele>113.8</ele>
        <time>2024-09-07T07:38:58Z</time>
      </trkpt>
      <trkpt lat="47.96275" lon="-3.82755">
        <ele>113.8</ele>
        <time>2024-09-07T07:38:59Z</time>
      </trkpt>
      <trkpt lat="47.96278" lon="-3.8275">
        <ele>113.8</ele>
        <time>2024-09-07T07:39:00Z</time>
      </trkpt>
      <trkpt lat="47.96282" lon="-3.82745">
        <ele>113.6</ele>
        <time>2024-09-07T07:39:01Z</time>
      </trkpt>
      <trkpt lat="47.96285" lon="-3.82741">
        <ele>113.8</ele>
        <time>2024-09-07T07:39:02Z</time>
      </trkpt>
      <trkpt lat="47.96288" lon="-3.82736">
        <ele>113.8</ele>
        <time>2024-09-07T07:39:03Z</time>
      </trkpt>
      <trkpt lat="47.96291" lon="-3.8273">
        <ele>113.8</ele>
        <time>2024-09-07T07:39:04Z</time>
      </trkpt>
      <trkpt lat="47.96294" lon="-3.82724">
        <ele>113.8</ele>
        <time>2024-09-07T07:39:05Z</time>
      </trkpt>
      <trkpt lat="47.96297" lon="-3.82719">
        <ele>113.6</ele>
        <time>2024-09-07T07:39:06Z</time>
      </trkpt>
      <trkpt lat="47.963" lon="-3.82715">
        <ele>113.6</ele>
        <time>2024-09-07T07:39:07Z</time>
      </trkpt>
      <trkpt lat="47.96303" lon="-3.82711">
        <ele>113.6</ele>
        <time>2024-09-07T07:39:08Z</time>
      </trkpt>
      <trkpt lat="47.96307" lon="-3.82705">
        <ele>113.6</ele>
        <time>2024-09-07T07:39:09Z</time>
      </trkpt>
      <trkpt lat="47.9631" lon="-3.827">
        <ele>113.6</ele>
        <time>2024-09-07T07:39:10Z</time>
      </trkpt>
      <trkpt lat="47.96313" lon="-3.82695">
        <ele>113.6</ele>
        <time>2024-09-07T07:39:11Z</time>
      </trkpt>
      <trkpt lat="47.96317" lon="-3.8269">
        <ele>113.6</ele>
        <time>2024-09-07T07:39:12Z</time>
      </trkpt>
      <trkpt lat="47.9632" lon="-3.82685">
        <ele>113.6</ele>
        <time>2024-09-07T07:39:13Z</time>
      </trkpt>
      <trkpt lat="47.96323" lon="-3.8268">
        <ele>113.6</ele>
        <time>2024-09-07T07:39:14Z</time>
      </trkpt>
      <trkpt lat="47.96325" lon="-3.82675">
        <ele>113.6</ele>
        <time>2024-09-07T07:39:15Z</time>
      </trkpt>
      <trkpt lat="47.96328" lon="-3.8267">
        <ele>113.6</ele>
        <time>2024-09-07T07:39:16Z</time>
      </trkpt>
      <trkpt lat="47.96331" lon="-3.82665">
        <ele>113.6</ele>
        <time>2024-09-07T07:39:17Z</time>
      </trkpt>
      <trkpt lat="47.96335" lon="-3.82661">
        <ele>113.6</ele>
        <time>2024-09-07T07:39:18Z</time>
      </trkpt>
      <trkpt lat="47.96338" lon="-3.82656">
        <ele>113.4</ele>
        <time>2024-09-07T07:39:19Z</time>
      </trkpt>
      <trkpt lat="47.96341" lon="-3.82651">
        <ele>113.4</ele>
        <time>2024-09-07T07:39:20Z</time>
      </trkpt>
      <trkpt lat="47.96344" lon="-3.82647">
        <ele>113.4</ele>
        <time>2024-09-07T07:39:21Z</time>
      </trkpt>
      <trkpt lat="47.96346" lon="-3.82642">
        <ele>113.4</ele>
        <time>2024-09-07T07:39:22Z</time>
      </trkpt>
      <trkpt lat="47.96348" lon="-3.82637">
        <ele>113.4</ele>
        <time>2024-09-07T07:39:23Z</time>
      </trkpt>
      <trkpt lat="47.96351" lon="-3.82632">
        <ele>113.4</ele>
        <time>2024-09-07T07:39:24Z</time>
      </trkpt>
      <trkpt lat="47.96354" lon="-3.82627">
        <ele>113.4</ele>
        <time>2024-09-07T07:39:25Z</time>
      </trkpt>
      <trkpt lat="47.96357" lon="-3.82622">
        <ele>113.4</ele>
        <time>2024-09-07T07:39:26Z</time>
      </trkpt>
      <trkpt lat="47.96361" lon="-3.82616">
        <ele>113.4</ele>
        <time>2024-09-07T07:39:27Z</time>
      </trkpt>
      <trkpt lat="47.96364" lon="-3.82611">
        <ele>113.4</ele>
        <time>2024-09-07T07:39:28Z</time>
      </trkpt>
      <trkpt lat="47.96367" lon="-3.82605">
        <ele>113.4</ele>
        <time>2024-09-07T07:39:29Z</time>
      </trkpt>
      <trkpt lat="47.96371" lon="-3.82599">
        <ele>113.4</ele>
        <time>2024-09-07T07:39:30Z</time>
      </trkpt>
      <trkpt lat="47.96374" lon="-3.82593">
        <ele>113.6</ele>
        <time>2024-09-07T07:39:31Z</time>
      </trkpt>
      <trkpt lat="47.96377" lon="-3.82587">
        <ele>113.6</ele>
        <time>2024-09-07T07:39:32Z</time>
      </trkpt>
      <trkpt lat="47.9638" lon="-3.8258">
        <ele>113.6</ele>
        <time>2024-09-07T07:39:33Z</time>
      </trkpt>
      <trkpt lat="47.96384" lon="-3.82574">
        <ele>113.6</ele>
        <time>2024-09-07T07:39:34Z</time>
      </trkpt>
      <trkpt lat="47.96388" lon="-3.8257">
        <ele>113.4</ele>
        <time>2024-09-07T07:39:35Z</time>
      </trkpt>
      <trkpt lat="47.9639" lon="-3.82565">
        <ele>113.6</ele>
        <time>2024-09-07T07:39:36Z</time>
      </trkpt>
      <trkpt lat="47.96393" lon="-3.8256">
        <ele>113.4</ele>
        <time>2024-09-07T07:39:37Z</time>
      </trkpt>
      <trkpt lat="47.96395" lon="-3.82556">
        <ele>113.4</ele>
        <time>2024-09-07T07:39:38Z</time>
      </trkpt>
      <trkpt lat="47.96398" lon="-3.82551">
        <ele>113.4</ele>
        <time>2024-09-07T07:39:39Z</time>
      </trkpt>
      <trkpt lat="47.96401" lon="-3.82545">
        <ele>113.4</ele>
        <time>2024-09-07T07:39:40Z</time>
      </trkpt>
      <trkpt lat="47.96405" lon="-3.82539">
        <ele>113.4</ele>
        <time>2024-09-07T07:39:41Z</time>
      </trkpt>
      <trkpt lat="47.96409" lon="-3.82532">
        <ele>113.4</ele>
        <time>2024-09-07T07:39:42Z</time>
      </trkpt>
      <trkpt lat="47.96412" lon="-3.82526">
        <ele>113.4</ele>
        <time>2024-09-07T07:39:43Z</time>
      </trkpt>
      <trkpt lat="47.96416" lon="-3.82521">
        <ele>113.4</ele>
        <time>2024-09-07T07:39:44Z</time>
      </trkpt>
      <trkpt lat="47.96419" lon="-3.82515">
        <ele>113.4</ele>
        <time>2024-09-07T07:39:45Z</time>
      </trkpt>
      <trkpt lat="47.96421" lon="-3.82511">
        <ele>113.4</ele>
        <time>2024-09-07T07:39:46Z</time>
      </trkpt>
      <trkpt lat="47.96424" lon="-3.82506">
        <ele>113.4</ele>
        <time>2024-09-07T07:39:47Z</time>
      </trkpt>
      <trkpt lat="47.96427" lon="-3.825">
        <ele>113.4</ele>
        <time>2024-09-07T07:39:48Z</time>
      </trkpt>
      <trkpt lat="47.9643" lon="-3.82494">
        <ele>113.4</ele>
        <time>2024-09-07T07:39:49Z</time>
      </trkpt>
      <trkpt lat="47.96433" lon="-3.82489">
        <ele>113.4</ele>
        <time>2024-09-07T07:39:50Z</time>
      </trkpt>
      <trkpt lat="47.96437" lon="-3.82484">
        <ele>113.4</ele>
        <time>2024-09-07T07:39:51Z</time>
      </trkpt>
      <trkpt lat="47.9644" lon="-3.82479">
        <ele>113.4</ele>
        <time>2024-09-07T07:39:52Z</time>
      </trkpt>
      <trkpt lat="47.96443" lon="-3.82474">
        <ele>113.4</ele>
        <time>2024-09-07T07:39:53Z</time>
      </trkpt>
      <trkpt lat="47.96446" lon="-3.82469">
        <ele>113.4</ele>
        <time>2024-09-07T07:39:54Z</time>
      </trkpt>
      <trkpt lat="47.96448" lon="-3.82465">
        <ele>113.4</ele>
        <time>2024-09-07T07:39:55Z</time>
      </trkpt>
      <trkpt lat="47.96451" lon="-3.8246">
        <ele>113.4</ele>
        <time>2024-09-07T07:39:56Z</time>
      </trkpt>
      <trkpt lat="47.96453" lon="-3.82455">
        <ele>113.4</ele>
        <time>2024-09-07T07:39:57Z</time>
      </trkpt>
      <trkpt lat="47.96456" lon="-3.82451">
        <ele>113.4</ele>
        <time>2024-09-07T07:39:58Z</time>
      </trkpt>
      <trkpt lat="47.96459" lon="-3.82446">
        <ele>113.6</ele>
        <time>2024-09-07T07:39:59Z</time>
      </trkpt>
      <trkpt lat="47.96462" lon="-3.82442">
        <ele>113.6</ele>
        <time>2024-09-07T07:40:00Z</time>
      </trkpt>
      <trkpt lat="47.96465" lon="-3.82438">
        <ele>113.6</ele>
        <time>2024-09-07T07:40:01Z</time>
      </trkpt>
      <trkpt lat="47.96468" lon="-3.82434">
        <ele>113.6</ele>
        <time>2024-09-07T07:40:02Z</time>
      </trkpt>
      <trkpt lat="47.96469" lon="-3.8243">
        <ele>113.6</ele>
        <time>2024-09-07T07:40:03Z</time>
      </trkpt>
      <trkpt lat="47.96471" lon="-3.82426">
        <ele>113.6</ele>
        <time>2024-09-07T07:40:04Z</time>
      </trkpt>
      <trkpt lat="47.96473" lon="-3.82422">
        <ele>113.8</ele>
        <time>2024-09-07T07:40:05Z</time>
      </trkpt>
      <trkpt lat="47.96475" lon="-3.82418">
        <ele>113.8</ele>
        <time>2024-09-07T07:40:06Z</time>
      </trkpt>
      <trkpt lat="47.96478" lon="-3.82414">
        <ele>113.8</ele>
        <time>2024-09-07T07:40:07Z</time>
      </trkpt>
      <trkpt lat="47.9648" lon="-3.82411">
        <ele>114</ele>
        <time>2024-09-07T07:40:08Z</time>
      </trkpt>
      <trkpt lat="47.96482" lon="-3.82407">
        <ele>114</ele>
        <time>2024-09-07T07:40:09Z</time>
      </trkpt>
      <trkpt lat="47.96483" lon="-3.82404">
        <ele>114.2</ele>
        <time>2024-09-07T07:40:10Z</time>
      </trkpt>
      <trkpt lat="47.96486" lon="-3.82399">
        <ele>114.2</ele>
        <time>2024-09-07T07:40:11Z</time>
      </trkpt>
      <trkpt lat="47.96488" lon="-3.82394">
        <ele>114.4</ele>
        <time>2024-09-07T07:40:12Z</time>
      </trkpt>
      <trkpt lat="47.96491" lon="-3.82389">
        <ele>114.4</ele>
        <time>2024-09-07T07:40:13Z</time>
      </trkpt>
      <trkpt lat="47.96494" lon="-3.82383">
        <ele>114.4</ele>
        <time>2024-09-07T07:40:14Z</time>
      </trkpt>
      <trkpt lat="47.96497" lon="-3.82378">
        <ele>114.6</ele>
        <time>2024-09-07T07:40:15Z</time>
      </trkpt>
      <trkpt lat="47.965" lon="-3.82373">
        <ele>114.6</ele>
        <time>2024-09-07T07:40:16Z</time>
      </trkpt>
      <trkpt lat="47.96503" lon="-3.82368">
        <ele>114.6</ele>
        <time>2024-09-07T07:40:17Z</time>
      </trkpt>
      <trkpt lat="47.96506" lon="-3.82363">
        <ele>114.8</ele>
        <time>2024-09-07T07:40:18Z</time>
      </trkpt>
      <trkpt lat="47.96509" lon="-3.82359">
        <ele>114.8</ele>
        <time>2024-09-07T07:40:19Z</time>
      </trkpt>
      <trkpt lat="47.96513" lon="-3.82354">
        <ele>114.8</ele>
        <time>2024-09-07T07:40:20Z</time>
      </trkpt>
      <trkpt lat="47.96516" lon="-3.8235">
        <ele>115</ele>
        <time>2024-09-07T07:40:21Z</time>
      </trkpt>
      <trkpt lat="47.9652" lon="-3.82346">
        <ele>115</ele>
        <time>2024-09-07T07:40:22Z</time>
      </trkpt>
      <trkpt lat="47.96523" lon="-3.82343">
        <ele>115.2</ele>
        <time>2024-09-07T07:40:23Z</time>
      </trkpt>
      <trkpt lat="47.96525" lon="-3.8234">
        <ele>115.2</ele>
        <time>2024-09-07T07:40:24Z</time>
      </trkpt>
      <trkpt lat="47.96528" lon="-3.82337">
        <ele>115.4</ele>
        <time>2024-09-07T07:40:25Z</time>
      </trkpt>
      <trkpt lat="47.96531" lon="-3.82334">
        <ele>115.4</ele>
        <time>2024-09-07T07:40:26Z</time>
      </trkpt>
      <trkpt lat="47.96534" lon="-3.82331">
        <ele>115.4</ele>
        <time>2024-09-07T07:40:27Z</time>
      </trkpt>
      <trkpt lat="47.96536" lon="-3.82328">
        <ele>115.4</ele>
        <time>2024-09-07T07:40:28Z</time>
      </trkpt>
      <trkpt lat="47.96539" lon="-3.82325">
        <ele>115.6</ele>
        <time>2024-09-07T07:40:29Z</time>
      </trkpt>
      <trkpt lat="47.96542" lon="-3.8232">
        <ele>115.6</ele>
        <time>2024-09-07T07:40:30Z</time>
      </trkpt>
      <trkpt lat="47.96546" lon="-3.82315">
        <ele>115.6</ele>
        <time>2024-09-07T07:40:31Z</time>
      </trkpt>
      <trkpt lat="47.96549" lon="-3.82312">
        <ele>115.6</ele>
        <time>2024-09-07T07:40:32Z</time>
      </trkpt>
      <trkpt lat="47.96551" lon="-3.82309">
        <ele>115.8</ele>
        <time>2024-09-07T07:40:33Z</time>
      </trkpt>
      <trkpt lat="47.96554" lon="-3.82306">
        <ele>115.8</ele>
        <time>2024-09-07T07:40:34Z</time>
      </trkpt>
      <trkpt lat="47.96558" lon="-3.82303">
        <ele>115.8</ele>
        <time>2024-09-07T07:40:35Z</time>
      </trkpt>
      <trkpt lat="47.96561" lon="-3.823">
        <ele>115.8</ele>
        <time>2024-09-07T07:40:36Z</time>
      </trkpt>
      <trkpt lat="47.96565" lon="-3.82296">
        <ele>116</ele>
        <time>2024-09-07T07:40:37Z</time>
      </trkpt>
      <trkpt lat="47.96568" lon="-3.82293">
        <ele>116</ele>
        <time>2024-09-07T07:40:38Z</time>
      </trkpt>
      <trkpt lat="47.96572" lon="-3.82289">
        <ele>116.2</ele>
        <time>2024-09-07T07:40:39Z</time>
      </trkpt>
      <trkpt lat="47.96575" lon="-3.82285">
        <ele>116.2</ele>
        <time>2024-09-07T07:40:40Z</time>
      </trkpt>
      <trkpt lat="47.96578" lon="-3.82282">
        <ele>116.4</ele>
        <time>2024-09-07T07:40:41Z</time>
      </trkpt>
      <trkpt lat="47.96582" lon="-3.82278">
        <ele>116.4</ele>
        <time>2024-09-07T07:40:42Z</time>
      </trkpt>
      <trkpt lat="47.96585" lon="-3.82275">
        <ele>116.6</ele>
        <time>2024-09-07T07:40:43Z</time>
      </trkpt>
      <trkpt lat="47.96588" lon="-3.82272">
        <ele>116.8</ele>
        <time>2024-09-07T07:40:44Z</time>
      </trkpt>
      <trkpt lat="47.96592" lon="-3.82268">
        <ele>116.8</ele>
        <time>2024-09-07T07:40:45Z</time>
      </trkpt>
      <trkpt lat="47.96597" lon="-3.82263">
        <ele>117</ele>
        <time>2024-09-07T07:40:46Z</time>
      </trkpt>
      <trkpt lat="47.96601" lon="-3.82258">
        <ele>117</ele>
        <time>2024-09-07T07:40:47Z</time>
      </trkpt>
      <trkpt lat="47.96605" lon="-3.82252">
        <ele>117.2</ele>
        <time>2024-09-07T07:40:48Z</time>
      </trkpt>
      <trkpt lat="47.9661" lon="-3.82248">
        <ele>117.2</ele>
        <time>2024-09-07T07:40:49Z</time>
      </trkpt>
      <trkpt lat="47.96614" lon="-3.82245">
        <ele>117.4</ele>
        <time>2024-09-07T07:40:50Z</time>
      </trkpt>
      <trkpt lat="47.96618" lon="-3.8224">
        <ele>117.6</ele>
        <time>2024-09-07T07:40:51Z</time>
      </trkpt>
      <trkpt lat="47.96622" lon="-3.82237">
        <ele>117.6</ele>
        <time>2024-09-07T07:40:52Z</time>
      </trkpt>
      <trkpt lat="47.96626" lon="-3.82233">
        <ele>117.6</ele>
        <time>2024-09-07T07:40:53Z</time>
      </trkpt>
      <trkpt lat="47.9663" lon="-3.82229">
        <ele>117.6</ele>
        <time>2024-09-07T07:40:54Z</time>
      </trkpt>
      <trkpt lat="47.96634" lon="-3.82226">
        <ele>117.8</ele>
        <time>2024-09-07T07:40:55Z</time>
      </trkpt>
      <trkpt lat="47.96637" lon="-3.82223">
        <ele>117.8</ele>
        <time>2024-09-07T07:40:56Z</time>
      </trkpt>
      <trkpt lat="47.9664" lon="-3.8222">
        <ele>118</ele>
        <time>2024-09-07T07:40:57Z</time>
      </trkpt>
      <trkpt lat="47.96645" lon="-3.82217">
        <ele>118.2</ele>
        <time>2024-09-07T07:40:58Z</time>
      </trkpt>
      <trkpt lat="47.96649" lon="-3.82213">
        <ele>118.4</ele>
        <time>2024-09-07T07:40:59Z</time>
      </trkpt>
      <trkpt lat="47.96653" lon="-3.82208">
        <ele>118.6</ele>
        <time>2024-09-07T07:41:00Z</time>
      </trkpt>
      <trkpt lat="47.96656" lon="-3.82205">
        <ele>118.6</ele>
        <time>2024-09-07T07:41:01Z</time>
      </trkpt>
      <trkpt lat="47.9666" lon="-3.82202">
        <ele>118.8</ele>
        <time>2024-09-07T07:41:02Z</time>
      </trkpt>
      <trkpt lat="47.96665" lon="-3.82196">
        <ele>118.8</ele>
        <time>2024-09-07T07:41:03Z</time>
      </trkpt>
      <trkpt lat="47.96668" lon="-3.82193">
        <ele>119</ele>
        <time>2024-09-07T07:41:04Z</time>
      </trkpt>
      <trkpt lat="47.96672" lon="-3.8219">
        <ele>119</ele>
        <time>2024-09-07T07:41:05Z</time>
      </trkpt>
      <trkpt lat="47.96675" lon="-3.82187">
        <ele>119.2</ele>
        <time>2024-09-07T07:41:06Z</time>
      </trkpt>
      <trkpt lat="47.9668" lon="-3.82182">
        <ele>119.2</ele>
        <time>2024-09-07T07:41:07Z</time>
      </trkpt>
      <trkpt lat="47.96684" lon="-3.82179">
        <ele>119.4</ele>
        <time>2024-09-07T07:41:08Z</time>
      </trkpt>
      <trkpt lat="47.96688" lon="-3.82175">
        <ele>119.4</ele>
        <time>2024-09-07T07:41:09Z</time>
      </trkpt>
      <trkpt lat="47.96691" lon="-3.82172">
        <ele>119.4</ele>
        <time>2024-09-07T07:41:10Z</time>
      </trkpt>
      <trkpt lat="47.96694" lon="-3.8217">
        <ele>119.4</ele>
        <time>2024-09-07T07:41:11Z</time>
      </trkpt>
      <trkpt lat="47.96697" lon="-3.82167">
        <ele>119.6</ele>
        <time>2024-09-07T07:41:12Z</time>
      </trkpt>
      <trkpt lat="47.967" lon="-3.82164">
        <ele>119.6</ele>
        <time>2024-09-07T07:41:13Z</time>
      </trkpt>
      <trkpt lat="47.96704" lon="-3.82161">
        <ele>119.8</ele>
        <time>2024-09-07T07:41:14Z</time>
      </trkpt>
      <trkpt lat="47.9671" lon="-3.82154">
        <ele>120</ele>
        <time>2024-09-07T07:41:15Z</time>
      </trkpt>
      <trkpt lat="47.96714" lon="-3.8215">
        <ele>119.8</ele>
        <time>2024-09-07T07:41:16Z</time>
      </trkpt>
      <trkpt lat="47.96717" lon="-3.82147">
        <ele>120</ele>
        <time>2024-09-07T07:41:17Z</time>
      </trkpt>
      <trkpt lat="47.96721" lon="-3.82143">
        <ele>120.2</ele>
        <time>2024-09-07T07:41:18Z</time>
      </trkpt>
      <trkpt lat="47.96724" lon="-3.8214">
        <ele>120.2</ele>
        <time>2024-09-07T07:41:19Z</time>
      </trkpt>
      <trkpt lat="47.96728" lon="-3.82137">
        <ele>120.4</ele>
        <time>2024-09-07T07:41:20Z</time>
      </trkpt>
      <trkpt lat="47.96733" lon="-3.82132">
        <ele>120.4</ele>
        <time>2024-09-07T07:41:21Z</time>
      </trkpt>
      <trkpt lat="47.96736" lon="-3.82129">
        <ele>120.6</ele>
        <time>2024-09-07T07:41:22Z</time>
      </trkpt>
      <trkpt lat="47.9674" lon="-3.82127">
        <ele>120.8</ele>
        <time>2024-09-07T07:41:23Z</time>
      </trkpt>
      <trkpt lat="47.96744" lon="-3.82124">
        <ele>120.8</ele>
        <time>2024-09-07T07:41:24Z</time>
      </trkpt>
      <trkpt lat="47.96748" lon="-3.8212">
        <ele>121</ele>
        <time>2024-09-07T07:41:25Z</time>
      </trkpt>
      <trkpt lat="47.96753" lon="-3.82115">
        <ele>121.2</ele>
        <time>2024-09-07T07:41:26Z</time>
      </trkpt>
      <trkpt lat="47.96758" lon="-3.82112">
        <ele>121.2</ele>
        <time>2024-09-07T07:41:27Z</time>
      </trkpt>
      <trkpt lat="47.9676" lon="-3.82108">
        <ele>121.2</ele>
        <time>2024-09-07T07:41:28Z</time>
      </trkpt>
      <trkpt lat="47.96763" lon="-3.82106">
        <ele>121.4</ele>
        <time>2024-09-07T07:41:29Z</time>
      </trkpt>
      <trkpt lat="47.96765" lon="-3.82103">
        <ele>121.4</ele>
        <time>2024-09-07T07:41:30Z</time>
      </trkpt>
      <trkpt lat="47.9677" lon="-3.82099">
        <ele>121.4</ele>
        <time>2024-09-07T07:41:31Z</time>
      </trkpt>
      <trkpt lat="47.96773" lon="-3.82096">
        <ele>121.6</ele>
        <time>2024-09-07T07:41:32Z</time>
      </trkpt>
      <trkpt lat="47.96776" lon="-3.82093">
        <ele>121.6</ele>
        <time>2024-09-07T07:41:33Z</time>
      </trkpt>
      <trkpt lat="47.96779" lon="-3.8209">
        <ele>121.8</ele>
        <time>2024-09-07T07:41:34Z</time>
      </trkpt>
      <trkpt lat="47.96782" lon="-3.82087">
        <ele>121.8</ele>
        <time>2024-09-07T07:41:35Z</time>
      </trkpt>
      <trkpt lat="47.96785" lon="-3.82084">
        <ele>122</ele>
        <time>2024-09-07T07:41:36Z</time>
      </trkpt>
      <trkpt lat="47.96788" lon="-3.82081">
        <ele>122</ele>
        <time>2024-09-07T07:41:37Z</time>
      </trkpt>
      <trkpt lat="47.96792" lon="-3.82078">
        <ele>122.2</ele>
        <time>2024-09-07T07:41:38Z</time>
      </trkpt>
      <trkpt lat="47.96795" lon="-3.82075">
        <ele>122.4</ele>
        <time>2024-09-07T07:41:39Z</time>
      </trkpt>
      <trkpt lat="47.96799" lon="-3.82072">
        <ele>122.4</ele>
        <time>2024-09-07T07:41:40Z</time>
      </trkpt>
      <trkpt lat="47.96802" lon="-3.82069">
        <ele>122.4</ele>
        <time>2024-09-07T07:41:41Z</time>
      </trkpt>
      <trkpt lat="47.96804" lon="-3.82067">
        <ele>122.6</ele>
        <time>2024-09-07T07:41:42Z</time>
      </trkpt>
      <trkpt lat="47.96807" lon="-3.82065">
        <ele>122.6</ele>
        <time>2024-09-07T07:41:43Z</time>
      </trkpt>
      <trkpt lat="47.9681" lon="-3.82063">
        <ele>122.8</ele>
        <time>2024-09-07T07:41:44Z</time>
      </trkpt>
      <trkpt lat="47.96813" lon="-3.82059">
        <ele>123</ele>
        <time>2024-09-07T07:41:45Z</time>
      </trkpt>
      <trkpt lat="47.96816" lon="-3.82055">
        <ele>123</ele>
        <time>2024-09-07T07:41:46Z</time>
      </trkpt>
      <trkpt lat="47.9682" lon="-3.82051">
        <ele>123</ele>
        <time>2024-09-07T07:41:47Z</time>
      </trkpt>
      <trkpt lat="47.96823" lon="-3.82046">
        <ele>123</ele>
        <time>2024-09-07T07:41:48Z</time>
      </trkpt>
      <trkpt lat="47.96827" lon="-3.82042">
        <ele>123</ele>
        <time>2024-09-07T07:41:49Z</time>
      </trkpt>
      <trkpt lat="47.9683" lon="-3.82038">
        <ele>123.2</ele>
        <time>2024-09-07T07:41:50Z</time>
      </trkpt>
      <trkpt lat="47.96833" lon="-3.82034">
        <ele>123.2</ele>
        <time>2024-09-07T07:41:51Z</time>
      </trkpt>
      <trkpt lat="47.96837" lon="-3.8203">
        <ele>123.2</ele>
        <time>2024-09-07T07:41:52Z</time>
      </trkpt>
      <trkpt lat="47.96841" lon="-3.82026">
        <ele>123.4</ele>
        <time>2024-09-07T07:41:53Z</time>
      </trkpt>
      <trkpt lat="47.96845" lon="-3.82022">
        <ele>123.4</ele>
        <time>2024-09-07T07:41:54Z</time>
      </trkpt>
      <trkpt lat="47.96849" lon="-3.82018">
        <ele>123.6</ele>
        <time>2024-09-07T07:41:55Z</time>
      </trkpt>
      <trkpt lat="47.96854" lon="-3.82012">
        <ele>123.6</ele>
        <time>2024-09-07T07:41:56Z</time>
      </trkpt>
      <trkpt lat="47.96858" lon="-3.82008">
        <ele>123.8</ele>
        <time>2024-09-07T07:41:57Z</time>
      </trkpt>
      <trkpt lat="47.96862" lon="-3.82004">
        <ele>123.8</ele>
        <time>2024-09-07T07:41:58Z</time>
      </trkpt>
      <trkpt lat="47.96866" lon="-3.81999">
        <ele>124</ele>
        <time>2024-09-07T07:41:59Z</time>
      </trkpt>
      <trkpt lat="47.9687" lon="-3.81996">
        <ele>124</ele>
        <time>2024-09-07T07:42:00Z</time>
      </trkpt>
      <trkpt lat="47.96874" lon="-3.81992">
        <ele>124</ele>
        <time>2024-09-07T07:42:01Z</time>
      </trkpt>
      <trkpt lat="47.96878" lon="-3.81988">
        <ele>124</ele>
        <time>2024-09-07T07:42:02Z</time>
      </trkpt>
      <trkpt lat="47.96882" lon="-3.81984">
        <ele>124.2</ele>
        <time>2024-09-07T07:42:03Z</time>
      </trkpt>
      <trkpt lat="47.96886" lon="-3.81981">
        <ele>124.2</ele>
        <time>2024-09-07T07:42:04Z</time>
      </trkpt>
      <trkpt lat="47.96889" lon="-3.81978">
        <ele>124.4</ele>
        <time>2024-09-07T07:42:05Z</time>
      </trkpt>
      <trkpt lat="47.96892" lon="-3.81976">
        <ele>124.4</ele>
        <time>2024-09-07T07:42:06Z</time>
      </trkpt>
      <trkpt lat="47.96895" lon="-3.81974">
        <ele>124.4</ele>
        <time>2024-09-07T07:42:07Z</time>
      </trkpt>
      <trkpt lat="47.969" lon="-3.8197">
        <ele>124.6</ele>
        <time>2024-09-07T07:42:08Z</time>
      </trkpt>
      <trkpt lat="47.96903" lon="-3.81968">
        <ele>124.6</ele>
        <time>2024-09-07T07:42:09Z</time>
      </trkpt>
      <trkpt lat="47.96905" lon="-3.81966">
        <ele>124.8</ele>
        <time>2024-09-07T07:42:10Z</time>
      </trkpt>
      <trkpt lat="47.96907" lon="-3.81964">
        <ele>125</ele>
        <time>2024-09-07T07:42:11Z</time>
      </trkpt>
      <trkpt lat="47.96908" lon="-3.81962">
        <ele>125</ele>
        <time>2024-09-07T07:42:12Z</time>
      </trkpt>
      <trkpt lat="47.9691" lon="-3.8196">
        <ele>125.2</ele>
        <time>2024-09-07T07:42:13Z</time>
      </trkpt>
      <trkpt lat="47.96911" lon="-3.81958">
        <ele>125.2</ele>
        <time>2024-09-07T07:42:14Z</time>
      </trkpt>
      <trkpt lat="47.96912" lon="-3.81957">
        <ele>125.2</ele>
        <time>2024-09-07T07:42:15Z</time>
      </trkpt>
      <trkpt lat="47.96914" lon="-3.81955">
        <ele>125.4</ele>
        <time>2024-09-07T07:42:16Z</time>
      </trkpt>
      <trkpt lat="47.96915" lon="-3.81955">
        <ele>125.4</ele>
        <time>2024-09-07T07:42:17Z</time>
      </trkpt>
      <trkpt lat="47.96916" lon="-3.81954">
        <ele>125.6</ele>
        <time>2024-09-07T07:42:18Z</time>
      </trkpt>
      <trkpt lat="47.96917" lon="-3.81952">
        <ele>125.6</ele>
        <time>2024-09-07T07:42:19Z</time>
      </trkpt>
      <trkpt lat="47.96918" lon="-3.81951">
        <ele>125.6</ele>
        <time>2024-09-07T07:42:20Z</time>
      </trkpt>
      <trkpt lat="47.9692" lon="-3.8195">
        <ele>125.8</ele>
        <time>2024-09-07T07:42:21Z</time>
      </trkpt>
      <trkpt lat="47.96921" lon="-3.81948">
        <ele>125.8</ele>
        <time>2024-09-07T07:42:22Z</time>
      </trkpt>
      <trkpt lat="47.96922" lon="-3.81947">
        <ele>126</ele>
        <time>2024-09-07T07:42:23Z</time>
      </trkpt>
      <trkpt lat="47.96924" lon="-3.81945">
        <ele>126</ele>
        <time>2024-09-07T07:42:24Z</time>
      </trkpt>
      <trkpt lat="47.96926" lon="-3.81944">
        <ele>126</ele>
        <time>2024-09-07T07:42:25Z</time>
      </trkpt>
      <trkpt lat="47.96928" lon="-3.81943">
        <ele>126</ele>
        <time>2024-09-07T07:42:26Z</time>
      </trkpt>
      <trkpt lat="47.9693" lon="-3.81942">
        <ele>126</ele>
        <time>2024-09-07T07:42:27Z</time>
      </trkpt>
      <trkpt lat="47.96932" lon="-3.81941">
        <ele>126.2</ele>
        <time>2024-09-07T07:42:28Z</time>
      </trkpt>
      <trkpt lat="47.96935" lon="-3.81938">
        <ele>126.2</ele>
        <time>2024-09-07T07:42:29Z</time>
      </trkpt>
      <trkpt lat="47.96937" lon="-3.81935">
        <ele>126.2</ele>
        <time>2024-09-07T07:42:30Z</time>
      </trkpt>
      <trkpt lat="47.9694" lon="-3.81931">
        <ele>126.2</ele>
        <time>2024-09-07T07:42:31Z</time>
      </trkpt>
      <trkpt lat="47.96943" lon="-3.81927">
        <ele>126.2</ele>
        <time>2024-09-07T07:42:32Z</time>
      </trkpt>
      <trkpt lat="47.96947" lon="-3.81923">
        <ele>126.2</ele>
        <time>2024-09-07T07:42:33Z</time>
      </trkpt>
      <trkpt lat="47.96951" lon="-3.81919">
        <ele>126.2</ele>
        <time>2024-09-07T07:42:34Z</time>
      </trkpt>
      <trkpt lat="47.96955" lon="-3.81915">
        <ele>126.2</ele>
        <time>2024-09-07T07:42:35Z</time>
      </trkpt>
      <trkpt lat="47.96959" lon="-3.81912">
        <ele>126.2</ele>
        <time>2024-09-07T07:42:36Z</time>
      </trkpt>
      <trkpt lat="47.96964" lon="-3.81907">
        <ele>126.2</ele>
        <time>2024-09-07T07:42:37Z</time>
      </trkpt>
      <trkpt lat="47.96969" lon="-3.81902">
        <ele>126.2</ele>
        <time>2024-09-07T07:42:38Z</time>
      </trkpt>
      <trkpt lat="47.96973" lon="-3.81898">
        <ele>126.2</ele>
        <time>2024-09-07T07:42:39Z</time>
      </trkpt>
      <trkpt lat="47.96977" lon="-3.81894">
        <ele>126.2</ele>
        <time>2024-09-07T07:42:40Z</time>
      </trkpt>
      <trkpt lat="47.96982" lon="-3.8189">
        <ele>126.4</ele>
        <time>2024-09-07T07:42:41Z</time>
      </trkpt>
      <trkpt lat="47.96986" lon="-3.81887">
        <ele>126.4</ele>
        <time>2024-09-07T07:42:42Z</time>
      </trkpt>
      <trkpt lat="47.9699" lon="-3.81883">
        <ele>126.4</ele>
        <time>2024-09-07T07:42:43Z</time>
      </trkpt>
      <trkpt lat="47.96995" lon="-3.81878">
        <ele>126.4</ele>
        <time>2024-09-07T07:42:44Z</time>
      </trkpt>
      <trkpt lat="47.96999" lon="-3.81873">
        <ele>126.4</ele>
        <time>2024-09-07T07:42:45Z</time>
      </trkpt>
      <trkpt lat="47.97003" lon="-3.81869">
        <ele>126.4</ele>
        <time>2024-09-07T07:42:46Z</time>
      </trkpt>
      <trkpt lat="47.97007" lon="-3.81864">
        <ele>126.4</ele>
        <time>2024-09-07T07:42:47Z</time>
      </trkpt>
      <trkpt lat="47.97011" lon="-3.81861">
        <ele>126.4</ele>
        <time>2024-09-07T07:42:48Z</time>
      </trkpt>
      <trkpt lat="47.97015" lon="-3.81857">
        <ele>126.6</ele>
        <time>2024-09-07T07:42:49Z</time>
      </trkpt>
      <trkpt lat="47.97019" lon="-3.81854">
        <ele>126.6</ele>
        <time>2024-09-07T07:42:50Z</time>
      </trkpt>
      <trkpt lat="47.97023" lon="-3.8185">
        <ele>126.6</ele>
        <time>2024-09-07T07:42:51Z</time>
      </trkpt>
      <trkpt lat="47.97027" lon="-3.81846">
        <ele>126.6</ele>
        <time>2024-09-07T07:42:52Z</time>
      </trkpt>
      <trkpt lat="47.97031" lon="-3.81843">
        <ele>126.6</ele>
        <time>2024-09-07T07:42:53Z</time>
      </trkpt>
      <trkpt lat="47.97035" lon="-3.81839">
        <ele>126.6</ele>
        <time>2024-09-07T07:42:54Z</time>
      </trkpt>
      <trkpt lat="47.97039" lon="-3.81834">
        <ele>126.6</ele>
        <time>2024-09-07T07:42:55Z</time>
      </trkpt>
      <trkpt lat="47.97043" lon="-3.8183">
        <ele>126.6</ele>
        <time>2024-09-07T07:42:56Z</time>
      </trkpt>
      <trkpt lat="47.97047" lon="-3.81827">
        <ele>126.6</ele>
        <time>2024-09-07T07:42:57Z</time>
      </trkpt>
      <trkpt lat="47.97051" lon="-3.81822">
        <ele>126.6</ele>
        <time>2024-09-07T07:42:58Z</time>
      </trkpt>
      <trkpt lat="47.97055" lon="-3.81818">
        <ele>126.6</ele>
        <time>2024-09-07T07:42:59Z</time>
      </trkpt>
      <trkpt lat="47.97059" lon="-3.81813">
        <ele>126.8</ele>
        <time>2024-09-07T07:43:00Z</time>
      </trkpt>
      <trkpt lat="47.97063" lon="-3.81808">
        <ele>126.8</ele>
        <time>2024-09-07T07:43:01Z</time>
      </trkpt>
      <trkpt lat="47.97067" lon="-3.81802">
        <ele>126.8</ele>
        <time>2024-09-07T07:43:02Z</time>
      </trkpt>
      <trkpt lat="47.97072" lon="-3.81797">
        <ele>126.8</ele>
        <time>2024-09-07T07:43:03Z</time>
      </trkpt>
      <trkpt lat="47.97076" lon="-3.81791">
        <ele>126.8</ele>
        <time>2024-09-07T07:43:04Z</time>
      </trkpt>
      <trkpt lat="47.9708" lon="-3.81786">
        <ele>127</ele>
        <time>2024-09-07T07:43:05Z</time>
      </trkpt>
      <trkpt lat="47.97084" lon="-3.81781">
        <ele>127</ele>
        <time>2024-09-07T07:43:06Z</time>
      </trkpt>
      <trkpt lat="47.97087" lon="-3.81775">
        <ele>127</ele>
        <time>2024-09-07T07:43:07Z</time>
      </trkpt>
      <trkpt lat="47.97091" lon="-3.8177">
        <ele>127</ele>
        <time>2024-09-07T07:43:08Z</time>
      </trkpt>
      <trkpt lat="47.97094" lon="-3.81765">
        <ele>127</ele>
        <time>2024-09-07T07:43:09Z</time>
      </trkpt>
      <trkpt lat="47.97097" lon="-3.8176">
        <ele>127</ele>
        <time>2024-09-07T07:43:10Z</time>
      </trkpt>
      <trkpt lat="47.971" lon="-3.81755">
        <ele>127.2</ele>
        <time>2024-09-07T07:43:11Z</time>
      </trkpt>
      <trkpt lat="47.97104" lon="-3.81749">
        <ele>127.2</ele>
        <time>2024-09-07T07:43:12Z</time>
      </trkpt>
      <trkpt lat="47.97107" lon="-3.81743">
        <ele>127.2</ele>
        <time>2024-09-07T07:43:13Z</time>
      </trkpt>
      <trkpt lat="47.97111" lon="-3.81736">
        <ele>127.4</ele>
        <time>2024-09-07T07:43:14Z</time>
      </trkpt>
      <trkpt lat="47.97114" lon="-3.8173">
        <ele>127.4</ele>
        <time>2024-09-07T07:43:15Z</time>
      </trkpt>
      <trkpt lat="47.97118" lon="-3.81724">
        <ele>127.4</ele>
        <time>2024-09-07T07:43:16Z</time>
      </trkpt>
      <trkpt lat="47.97121" lon="-3.81717">
        <ele>127.4</ele>
        <time>2024-09-07T07:43:17Z</time>
      </trkpt>
      <trkpt lat="47.97124" lon="-3.81711">
        <ele>127.4</ele>
        <time>2024-09-07T07:43:18Z</time>
      </trkpt>
      <trkpt lat="47.97127" lon="-3.81705">
        <ele>127.6</ele>
        <time>2024-09-07T07:43:19Z</time>
      </trkpt>
      <trkpt lat="47.9713" lon="-3.81698">
        <ele>127.6</ele>
        <time>2024-09-07T07:43:20Z</time>
      </trkpt>
      <trkpt lat="47.97134" lon="-3.81692">
        <ele>127.8</ele>
        <time>2024-09-07T07:43:21Z</time>
      </trkpt>
      <trkpt lat="47.97137" lon="-3.81687">
        <ele>127.8</ele>
        <time>2024-09-07T07:43:22Z</time>
      </trkpt>
      <trkpt lat="47.9714" lon="-3.81681">
        <ele>127.8</ele>
        <time>2024-09-07T07:43:23Z</time>
      </trkpt>
      <trkpt lat="47.97144" lon="-3.81675">
        <ele>128</ele>
        <time>2024-09-07T07:43:24Z</time>
      </trkpt>
      <trkpt lat="47.97147" lon="-3.8167">
        <ele>128</ele>
        <time>2024-09-07T07:43:25Z</time>
      </trkpt>
      <trkpt lat="47.9715" lon="-3.81666">
        <ele>128</ele>
        <time>2024-09-07T07:43:26Z</time>
      </trkpt>
      <trkpt lat="47.97152" lon="-3.81661">
        <ele>128</ele>
        <time>2024-09-07T07:43:27Z</time>
      </trkpt>
      <trkpt lat="47.97155" lon="-3.81656">
        <ele>128</ele>
        <time>2024-09-07T07:43:28Z</time>
      </trkpt>
      <trkpt lat="47.97158" lon="-3.8165">
        <ele>128</ele>
        <time>2024-09-07T07:43:29Z</time>
      </trkpt>
      <trkpt lat="47.9716" lon="-3.81645">
        <ele>128</ele>
        <time>2024-09-07T07:43:30Z</time>
      </trkpt>
      <trkpt lat="47.97162" lon="-3.8164">
        <ele>128</ele>
        <time>2024-09-07T07:43:31Z</time>
      </trkpt>
      <trkpt lat="47.97164" lon="-3.81635">
        <ele>128</ele>
        <time>2024-09-07T07:43:32Z</time>
      </trkpt>
      <trkpt lat="47.97167" lon="-3.81631">
        <ele>128.2</ele>
        <time>2024-09-07T07:43:33Z</time>
      </trkpt>
      <trkpt lat="47.9717" lon="-3.81625">
        <ele>128.2</ele>
        <time>2024-09-07T07:43:34Z</time>
      </trkpt>
      <trkpt lat="47.97173" lon="-3.81619">
        <ele>128.2</ele>
        <time>2024-09-07T07:43:35Z</time>
      </trkpt>
      <trkpt lat="47.97177" lon="-3.81613">
        <ele>128.2</ele>
        <time>2024-09-07T07:43:36Z</time>
      </trkpt>
      <trkpt lat="47.97179" lon="-3.81608">
        <ele>128.2</ele>
        <time>2024-09-07T07:43:37Z</time>
      </trkpt>
      <trkpt lat="47.97181" lon="-3.81604">
        <ele>128.2</ele>
        <time>2024-09-07T07:43:38Z</time>
      </trkpt>
      <trkpt lat="47.97184" lon="-3.81599">
        <ele>128.2</ele>
        <time>2024-09-07T07:43:39Z</time>
      </trkpt>
      <trkpt lat="47.97186" lon="-3.81594">
        <ele>128.2</ele>
        <time>2024-09-07T07:43:40Z</time>
      </trkpt>
      <trkpt lat="47.97189" lon="-3.8159">
        <ele>128.2</ele>
        <time>2024-09-07T07:43:41Z</time>
      </trkpt>
      <trkpt lat="47.97191" lon="-3.81585">
        <ele>128.4</ele>
        <time>2024-09-07T07:43:42Z</time>
      </trkpt>
      <trkpt lat="47.97194" lon="-3.81579">
        <ele>128.4</ele>
        <time>2024-09-07T07:43:43Z</time>
      </trkpt>
      <trkpt lat="47.97197" lon="-3.81573">
        <ele>128.4</ele>
        <time>2024-09-07T07:43:44Z</time>
      </trkpt>
      <trkpt lat="47.972" lon="-3.81568">
        <ele>128.4</ele>
        <time>2024-09-07T07:43:45Z</time>
      </trkpt>
      <trkpt lat="47.97203" lon="-3.81562">
        <ele>128.4</ele>
        <time>2024-09-07T07:43:46Z</time>
      </trkpt>
      <trkpt lat="47.97206" lon="-3.81556">
        <ele>128.4</ele>
        <time>2024-09-07T07:43:47Z</time>
      </trkpt>
      <trkpt lat="47.97209" lon="-3.81551">
        <ele>128.4</ele>
        <time>2024-09-07T07:43:48Z</time>
      </trkpt>
      <trkpt lat="47.97211" lon="-3.81546">
        <ele>128.6</ele>
        <time>2024-09-07T07:43:49Z</time>
      </trkpt>
      <trkpt lat="47.97214" lon="-3.8154">
        <ele>128.6</ele>
        <time>2024-09-07T07:43:50Z</time>
      </trkpt>
      <trkpt lat="47.97218" lon="-3.81535">
        <ele>128.6</ele>
        <time>2024-09-07T07:43:51Z</time>
      </trkpt>
      <trkpt lat="47.97221" lon="-3.81529">
        <ele>128.8</ele>
        <time>2024-09-07T07:43:52Z</time>
      </trkpt>
      <trkpt lat="47.97224" lon="-3.81523">
        <ele>128.8</ele>
        <time>2024-09-07T07:43:53Z</time>
      </trkpt>
      <trkpt lat="47.97228" lon="-3.81517">
        <ele>128.8</ele>
        <time>2024-09-07T07:43:54Z</time>
      </trkpt>
      <trkpt lat="47.97231" lon="-3.81511">
        <ele>128.8</ele>
        <time>2024-09-07T07:43:55Z</time>
      </trkpt>
      <trkpt lat="47.97234" lon="-3.81506">
        <ele>128.8</ele>
        <time>2024-09-07T07:43:56Z</time>
      </trkpt>
      <trkpt lat="47.97237" lon="-3.815">
        <ele>128.8</ele>
        <time>2024-09-07T07:43:57Z</time>
      </trkpt>
      <trkpt lat="47.9724" lon="-3.81495">
        <ele>128.8</ele>
        <time>2024-09-07T07:43:58Z</time>
      </trkpt>
      <trkpt lat="47.97243" lon="-3.81489">
        <ele>128.8</ele>
        <time>2024-09-07T07:43:59Z</time>
      </trkpt>
      <trkpt lat="47.97246" lon="-3.81483">
        <ele>129</ele>
        <time>2024-09-07T07:44:00Z</time>
      </trkpt>
      <trkpt lat="47.97249" lon="-3.81477">
        <ele>129</ele>
        <time>2024-09-07T07:44:01Z</time>
      </trkpt>
      <trkpt lat="47.97253" lon="-3.81471">
        <ele>129</ele>
        <time>2024-09-07T07:44:02Z</time>
      </trkpt>
      <trkpt lat="47.97256" lon="-3.81464">
        <ele>129</ele>
        <time>2024-09-07T07:44:03Z</time>
      </trkpt>
      <trkpt lat="47.97259" lon="-3.81459">
        <ele>129</ele>
        <time>2024-09-07T07:44:04Z</time>
      </trkpt>
      <trkpt lat="47.97262" lon="-3.81453">
        <ele>129.2</ele>
        <time>2024-09-07T07:44:05Z</time>
      </trkpt>
      <trkpt lat="47.97265" lon="-3.81447">
        <ele>129.2</ele>
        <time>2024-09-07T07:44:06Z</time>
      </trkpt>
      <trkpt lat="47.97268" lon="-3.81441">
        <ele>129.2</ele>
        <time>2024-09-07T07:44:07Z</time>
      </trkpt>
      <trkpt lat="47.97272" lon="-3.81435">
        <ele>129.2</ele>
        <time>2024-09-07T07:44:08Z</time>
      </trkpt>
      <trkpt lat="47.97275" lon="-3.81429">
        <ele>129.2</ele>
        <time>2024-09-07T07:44:09Z</time>
      </trkpt>
      <trkpt lat="47.97278" lon="-3.81423">
        <ele>129.2</ele>
        <time>2024-09-07T07:44:10Z</time>
      </trkpt>
      <trkpt lat="47.97281" lon="-3.81417">
        <ele>129.4</ele>
        <time>2024-09-07T07:44:11Z</time>
      </trkpt>
      <trkpt lat="47.97285" lon="-3.81412">
        <ele>129.4</ele>
        <time>2024-09-07T07:44:12Z</time>
      </trkpt>
      <trkpt lat="47.97288" lon="-3.81407">
        <ele>129.4</ele>
        <time>2024-09-07T07:44:13Z</time>
      </trkpt>
      <trkpt lat="47.97291" lon="-3.81401">
        <ele>129.4</ele>
        <time>2024-09-07T07:44:14Z</time>
      </trkpt>
      <trkpt lat="47.97294" lon="-3.81395">
        <ele>129.4</ele>
        <time>2024-09-07T07:44:15Z</time>
      </trkpt>
      <trkpt lat="47.97298" lon="-3.81389">
        <ele>129.4</ele>
        <time>2024-09-07T07:44:16Z</time>
      </trkpt>
      <trkpt lat="47.97302" lon="-3.81382">
        <ele>129.4</ele>
        <time>2024-09-07T07:44:17Z</time>
      </trkpt>
      <trkpt lat="47.97306" lon="-3.81375">
        <ele>129.4</ele>
        <time>2024-09-07T07:44:18Z</time>
      </trkpt>
      <trkpt lat="47.97309" lon="-3.81368">
        <ele>129.4</ele>
        <time>2024-09-07T07:44:19Z</time>
      </trkpt>
      <trkpt lat="47.97313" lon="-3.81361">
        <ele>129.4</ele>
        <time>2024-09-07T07:44:20Z</time>
      </trkpt>
      <trkpt lat="47.97317" lon="-3.81354">
        <ele>129.4</ele>
        <time>2024-09-07T07:44:21Z</time>
      </trkpt>
      <trkpt lat="47.9732" lon="-3.81347">
        <ele>129.4</ele>
        <time>2024-09-07T07:44:22Z</time>
      </trkpt>
      <trkpt lat="47.97324" lon="-3.81341">
        <ele>129.4</ele>
        <time>2024-09-07T07:44:23Z</time>
      </trkpt>
      <trkpt lat="47.97327" lon="-3.81334">
        <ele>129.4</ele>
        <time>2024-09-07T07:44:24Z</time>
      </trkpt>
      <trkpt lat="47.9733" lon="-3.81328">
        <ele>129.4</ele>
        <time>2024-09-07T07:44:25Z</time>
      </trkpt>
      <trkpt lat="47.97333" lon="-3.81322">
        <ele>129.2</ele>
        <time>2024-09-07T07:44:26Z</time>
      </trkpt>
      <trkpt lat="47.97337" lon="-3.81316">
        <ele>129.2</ele>
        <time>2024-09-07T07:44:27Z</time>
      </trkpt>
      <trkpt lat="47.9734" lon="-3.81309">
        <ele>129.2</ele>
        <time>2024-09-07T07:44:28Z</time>
      </trkpt>
      <trkpt lat="47.97343" lon="-3.81303">
        <ele>129.2</ele>
        <time>2024-09-07T07:44:29Z</time>
      </trkpt>
      <trkpt lat="47.97346" lon="-3.81297">
        <ele>129.2</ele>
        <time>2024-09-07T07:44:30Z</time>
      </trkpt>
      <trkpt lat="47.9735" lon="-3.81291">
        <ele>129.2</ele>
        <time>2024-09-07T07:44:31Z</time>
      </trkpt>
      <trkpt lat="47.97353" lon="-3.81284">
        <ele>129.2</ele>
        <time>2024-09-07T07:44:32Z</time>
      </trkpt>
      <trkpt lat="47.97357" lon="-3.81278">
        <ele>129.2</ele>
        <time>2024-09-07T07:44:33Z</time>
      </trkpt>
      <trkpt lat="47.9736" lon="-3.81271">
        <ele>129.2</ele>
        <time>2024-09-07T07:44:34Z</time>
      </trkpt>
      <trkpt lat="47.97364" lon="-3.81265">
        <ele>129.2</ele>
        <time>2024-09-07T07:44:35Z</time>
      </trkpt>
      <trkpt lat="47.97368" lon="-3.81258">
        <ele>129.2</ele>
        <time>2024-09-07T07:44:36Z</time>
      </trkpt>
      <trkpt lat="47.97371" lon="-3.81252">
        <ele>129.2</ele>
        <time>2024-09-07T07:44:37Z</time>
      </trkpt>
      <trkpt lat="47.97375" lon="-3.81245">
        <ele>129.2</ele>
        <time>2024-09-07T07:44:38Z</time>
      </trkpt>
      <trkpt lat="47.97377" lon="-3.81239">
        <ele>129.2</ele>
        <time>2024-09-07T07:44:39Z</time>
      </trkpt>
      <trkpt lat="47.97381" lon="-3.81233">
        <ele>129.2</ele>
        <time>2024-09-07T07:44:40Z</time>
      </trkpt>
      <trkpt lat="47.97383" lon="-3.81228">
        <ele>129.2</ele>
        <time>2024-09-07T07:44:41Z</time>
      </trkpt>
      <trkpt lat="47.97386" lon="-3.81223">
        <ele>129</ele>
        <time>2024-09-07T07:44:42Z</time>
      </trkpt>
      <trkpt lat="47.97389" lon="-3.81218">
        <ele>129</ele>
        <time>2024-09-07T07:44:43Z</time>
      </trkpt>
      <trkpt lat="47.97393" lon="-3.8121">
        <ele>129</ele>
        <time>2024-09-07T07:44:44Z</time>
      </trkpt>
      <trkpt lat="47.97396" lon="-3.81203">
        <ele>129</ele>
        <time>2024-09-07T07:44:45Z</time>
      </trkpt>
      <trkpt lat="47.97399" lon="-3.81197">
        <ele>129</ele>
        <time>2024-09-07T07:44:46Z</time>
      </trkpt>
      <trkpt lat="47.97403" lon="-3.81191">
        <ele>129</ele>
        <time>2024-09-07T07:44:47Z</time>
      </trkpt>
      <trkpt lat="47.97406" lon="-3.81185">
        <ele>129</ele>
        <time>2024-09-07T07:44:48Z</time>
      </trkpt>
      <trkpt lat="47.9741" lon="-3.81178">
        <ele>129</ele>
        <time>2024-09-07T07:44:49Z</time>
      </trkpt>
      <trkpt lat="47.97414" lon="-3.81171">
        <ele>129</ele>
        <time>2024-09-07T07:44:50Z</time>
      </trkpt>
      <trkpt lat="47.97417" lon="-3.81164">
        <ele>129</ele>
        <time>2024-09-07T07:44:51Z</time>
      </trkpt>
      <trkpt lat="47.97421" lon="-3.81158">
        <ele>129</ele>
        <time>2024-09-07T07:44:52Z</time>
      </trkpt>
      <trkpt lat="47.97425" lon="-3.81151">
        <ele>129</ele>
        <time>2024-09-07T07:44:53Z</time>
      </trkpt>
      <trkpt lat="47.97429" lon="-3.81145">
        <ele>129</ele>
        <time>2024-09-07T07:44:54Z</time>
      </trkpt>
      <trkpt lat="47.97433" lon="-3.81138">
        <ele>129</ele>
        <time>2024-09-07T07:44:55Z</time>
      </trkpt>
      <trkpt lat="47.97436" lon="-3.81131">
        <ele>129</ele>
        <time>2024-09-07T07:44:56Z</time>
      </trkpt>
      <trkpt lat="47.9744" lon="-3.81124">
        <ele>129</ele>
        <time>2024-09-07T07:44:57Z</time>
      </trkpt>
      <trkpt lat="47.97443" lon="-3.81117">
        <ele>129</ele>
        <time>2024-09-07T07:44:58Z</time>
      </trkpt>
      <trkpt lat="47.97447" lon="-3.8111">
        <ele>128.8</ele>
        <time>2024-09-07T07:44:59Z</time>
      </trkpt>
      <trkpt lat="47.97451" lon="-3.81103">
        <ele>129</ele>
        <time>2024-09-07T07:45:00Z</time>
      </trkpt>
      <trkpt lat="47.97454" lon="-3.81096">
        <ele>129</ele>
        <time>2024-09-07T07:45:01Z</time>
      </trkpt>
      <trkpt lat="47.97458" lon="-3.81089">
        <ele>129</ele>
        <time>2024-09-07T07:45:02Z</time>
      </trkpt>
      <trkpt lat="47.97462" lon="-3.81083">
        <ele>129</ele>
        <time>2024-09-07T07:45:03Z</time>
      </trkpt>
      <trkpt lat="47.97465" lon="-3.81076">
        <ele>129</ele>
        <time>2024-09-07T07:45:04Z</time>
      </trkpt>
      <trkpt lat="47.97469" lon="-3.81069">
        <ele>129</ele>
        <time>2024-09-07T07:45:05Z</time>
      </trkpt>
      <trkpt lat="47.97472" lon="-3.81063">
        <ele>129</ele>
        <time>2024-09-07T07:45:06Z</time>
      </trkpt>
      <trkpt lat="47.97476" lon="-3.81056">
        <ele>129</ele>
        <time>2024-09-07T07:45:07Z</time>
      </trkpt>
      <trkpt lat="47.9748" lon="-3.8105">
        <ele>129</ele>
        <time>2024-09-07T07:45:08Z</time>
      </trkpt>
      <trkpt lat="47.97483" lon="-3.81043">
        <ele>129</ele>
        <time>2024-09-07T07:45:09Z</time>
      </trkpt>
      <trkpt lat="47.97487" lon="-3.81037">
        <ele>129</ele>
        <time>2024-09-07T07:45:10Z</time>
      </trkpt>
      <trkpt lat="47.9749" lon="-3.8103">
        <ele>129</ele>
        <time>2024-09-07T07:45:11Z</time>
      </trkpt>
      <trkpt lat="47.97493" lon="-3.81024">
        <ele>129</ele>
        <time>2024-09-07T07:45:12Z</time>
      </trkpt>
      <trkpt lat="47.97496" lon="-3.81018">
        <ele>129</ele>
        <time>2024-09-07T07:45:13Z</time>
      </trkpt>
      <trkpt lat="47.97499" lon="-3.81012">
        <ele>129</ele>
        <time>2024-09-07T07:45:14Z</time>
      </trkpt>
      <trkpt lat="47.97502" lon="-3.81007">
        <ele>128.8</ele>
        <time>2024-09-07T07:45:15Z</time>
      </trkpt>
      <trkpt lat="47.97505" lon="-3.81002">
        <ele>128.8</ele>
        <time>2024-09-07T07:45:16Z</time>
      </trkpt>
      <trkpt lat="47.97508" lon="-3.80996">
        <ele>128.8</ele>
        <time>2024-09-07T07:45:17Z</time>
      </trkpt>
      <trkpt lat="47.97511" lon="-3.8099">
        <ele>128.8</ele>
        <time>2024-09-07T07:45:18Z</time>
      </trkpt>
      <trkpt lat="47.97515" lon="-3.80983">
        <ele>128.8</ele>
        <time>2024-09-07T07:45:19Z</time>
      </trkpt>
      <trkpt lat="47.97519" lon="-3.80977">
        <ele>128.8</ele>
        <time>2024-09-07T07:45:20Z</time>
      </trkpt>
      <trkpt lat="47.97522" lon="-3.80971">
        <ele>128.8</ele>
        <time>2024-09-07T07:45:21Z</time>
      </trkpt>
      <trkpt lat="47.97526" lon="-3.80965">
        <ele>128.8</ele>
        <time>2024-09-07T07:45:22Z</time>
      </trkpt>
      <trkpt lat="47.97529" lon="-3.80959">
        <ele>128.8</ele>
        <time>2024-09-07T07:45:23Z</time>
      </trkpt>
      <trkpt lat="47.97533" lon="-3.80953">
        <ele>129</ele>
        <time>2024-09-07T07:45:24Z</time>
      </trkpt>
      <trkpt lat="47.97537" lon="-3.80947">
        <ele>129</ele>
        <time>2024-09-07T07:45:25Z</time>
      </trkpt>
      <trkpt lat="47.9754" lon="-3.8094">
        <ele>129</ele>
        <time>2024-09-07T07:45:26Z</time>
      </trkpt>
      <trkpt lat="47.97544" lon="-3.80934">
        <ele>129</ele>
        <time>2024-09-07T07:45:27Z</time>
      </trkpt>
      <trkpt lat="47.97547" lon="-3.80927">
        <ele>129</ele>
        <time>2024-09-07T07:45:28Z</time>
      </trkpt>
      <trkpt lat="47.97551" lon="-3.8092">
        <ele>129</ele>
        <time>2024-09-07T07:45:29Z</time>
      </trkpt>
      <trkpt lat="47.97555" lon="-3.80913">
        <ele>128.8</ele>
        <time>2024-09-07T07:45:30Z</time>
      </trkpt>
      <trkpt lat="47.97558" lon="-3.80906">
        <ele>128.8</ele>
        <time>2024-09-07T07:45:31Z</time>
      </trkpt>
      <trkpt lat="47.97562" lon="-3.809">
        <ele>129</ele>
        <time>2024-09-07T07:45:32Z</time>
      </trkpt>
      <trkpt lat="47.97565" lon="-3.80893">
        <ele>129</ele>
        <time>2024-09-07T07:45:33Z</time>
      </trkpt>
      <trkpt lat="47.97569" lon="-3.80887">
        <ele>129</ele>
        <time>2024-09-07T07:45:34Z</time>
      </trkpt>
      <trkpt lat="47.97572" lon="-3.8088">
        <ele>129</ele>
        <time>2024-09-07T07:45:35Z</time>
      </trkpt>
      <trkpt lat="47.97576" lon="-3.80874">
        <ele>129</ele>
        <time>2024-09-07T07:45:36Z</time>
      </trkpt>
      <trkpt lat="47.97579" lon="-3.80867">
        <ele>129</ele>
        <time>2024-09-07T07:45:37Z</time>
      </trkpt>
      <trkpt lat="47.97583" lon="-3.80861">
        <ele>128.8</ele>
        <time>2024-09-07T07:45:38Z</time>
      </trkpt>
      <trkpt lat="47.97586" lon="-3.80855">
        <ele>128.8</ele>
        <time>2024-09-07T07:45:39Z</time>
      </trkpt>
      <trkpt lat="47.97589" lon="-3.80849">
        <ele>128.8</ele>
        <time>2024-09-07T07:45:40Z</time>
      </trkpt>
      <trkpt lat="47.97593" lon="-3.80843">
        <ele>128.8</ele>
        <time>2024-09-07T07:45:41Z</time>
      </trkpt>
      <trkpt lat="47.97596" lon="-3.80837">
        <ele>128.8</ele>
        <time>2024-09-07T07:45:42Z</time>
      </trkpt>
      <trkpt lat="47.97599" lon="-3.80832">
        <ele>128.8</ele>
        <time>2024-09-07T07:45:43Z</time>
      </trkpt>
      <trkpt lat="47.97603" lon="-3.80826">
        <ele>128.8</ele>
        <time>2024-09-07T07:45:44Z</time>
      </trkpt>
      <trkpt lat="47.97606" lon="-3.8082">
        <ele>129</ele>
        <time>2024-09-07T07:45:45Z</time>
      </trkpt>
      <trkpt lat="47.97609" lon="-3.80814">
        <ele>129</ele>
        <time>2024-09-07T07:45:46Z</time>
      </trkpt>
      <trkpt lat="47.97613" lon="-3.80807">
        <ele>128.8</ele>
        <time>2024-09-07T07:45:47Z</time>
      </trkpt>
      <trkpt lat="47.97616" lon="-3.80801">
        <ele>128.8</ele>
        <time>2024-09-07T07:45:48Z</time>
      </trkpt>
      <trkpt lat="47.9762" lon="-3.80794">
        <ele>128.8</ele>
        <time>2024-09-07T07:45:49Z</time>
      </trkpt>
      <trkpt lat="47.97623" lon="-3.80788">
        <ele>128.8</ele>
        <time>2024-09-07T07:45:50Z</time>
      </trkpt>
      <trkpt lat="47.97626" lon="-3.80781">
        <ele>128.8</ele>
        <time>2024-09-07T07:45:51Z</time>
      </trkpt>
      <trkpt lat="47.9763" lon="-3.80774">
        <ele>128.8</ele>
        <time>2024-09-07T07:45:52Z</time>
      </trkpt>
      <trkpt lat="47.97634" lon="-3.80767">
        <ele>128.8</ele>
        <time>2024-09-07T07:45:53Z</time>
      </trkpt>
      <trkpt lat="47.97638" lon="-3.80759">
        <ele>128.8</ele>
        <time>2024-09-07T07:45:54Z</time>
      </trkpt>
      <trkpt lat="47.97642" lon="-3.80751">
        <ele>128.8</ele>
        <time>2024-09-07T07:45:55Z</time>
      </trkpt>
      <trkpt lat="47.97646" lon="-3.80744">
        <ele>128.8</ele>
        <time>2024-09-07T07:45:56Z</time>
      </trkpt>
      <trkpt lat="47.9765" lon="-3.80737">
        <ele>128.8</ele>
        <time>2024-09-07T07:45:57Z</time>
      </trkpt>
      <trkpt lat="47.97654" lon="-3.80729">
        <ele>129</ele>
        <time>2024-09-07T07:45:58Z</time>
      </trkpt>
      <trkpt lat="47.97658" lon="-3.80722">
        <ele>129</ele>
        <time>2024-09-07T07:45:59Z</time>
      </trkpt>
      <trkpt lat="47.97663" lon="-3.80715">
        <ele>129</ele>
        <time>2024-09-07T07:46:00Z</time>
      </trkpt>
      <trkpt lat="47.97667" lon="-3.80708">
        <ele>129</ele>
        <time>2024-09-07T07:46:01Z</time>
      </trkpt>
      <trkpt lat="47.97671" lon="-3.807">
        <ele>129</ele>
        <time>2024-09-07T07:46:02Z</time>
      </trkpt>
      <trkpt lat="47.97676" lon="-3.80693">
        <ele>129</ele>
        <time>2024-09-07T07:46:03Z</time>
      </trkpt>
      <trkpt lat="47.97679" lon="-3.80686">
        <ele>129</ele>
        <time>2024-09-07T07:46:04Z</time>
      </trkpt>
      <trkpt lat="47.97682" lon="-3.80679">
        <ele>129</ele>
        <time>2024-09-07T07:46:05Z</time>
      </trkpt>
      <trkpt lat="47.97686" lon="-3.80672">
        <ele>129</ele>
        <time>2024-09-07T07:46:06Z</time>
      </trkpt>
      <trkpt lat="47.9769" lon="-3.80664">
        <ele>129</ele>
        <time>2024-09-07T07:46:07Z</time>
      </trkpt>
      <trkpt lat="47.97694" lon="-3.80656">
        <ele>129</ele>
        <time>2024-09-07T07:46:08Z</time>
      </trkpt>
      <trkpt lat="47.97698" lon="-3.80649">
        <ele>129</ele>
        <time>2024-09-07T07:46:09Z</time>
      </trkpt>
      <trkpt lat="47.97702" lon="-3.80641">
        <ele>129</ele>
        <time>2024-09-07T07:46:10Z</time>
      </trkpt>
      <trkpt lat="47.97706" lon="-3.80633">
        <ele>129</ele>
        <time>2024-09-07T07:46:11Z</time>
      </trkpt>
      <trkpt lat="47.9771" lon="-3.80625">
        <ele>129</ele>
        <time>2024-09-07T07:46:12Z</time>
      </trkpt>
      <trkpt lat="47.97714" lon="-3.80618">
        <ele>129</ele>
        <time>2024-09-07T07:46:13Z</time>
      </trkpt>
      <trkpt lat="47.97717" lon="-3.80611">
        <ele>128.8</ele>
        <time>2024-09-07T07:46:14Z</time>
      </trkpt>
      <trkpt lat="47.97721" lon="-3.80604">
        <ele>128.8</ele>
        <time>2024-09-07T07:46:15Z</time>
      </trkpt>
      <trkpt lat="47.97725" lon="-3.80597">
        <ele>128.8</ele>
        <time>2024-09-07T07:46:16Z</time>
      </trkpt>
      <trkpt lat="47.97728" lon="-3.8059">
        <ele>128.8</ele>
        <time>2024-09-07T07:46:17Z</time>
      </trkpt>
      <trkpt lat="47.97732" lon="-3.80583">
        <ele>128.6</ele>
        <time>2024-09-07T07:46:18Z</time>
      </trkpt>
      <trkpt lat="47.97736" lon="-3.80575">
        <ele>128.6</ele>
        <time>2024-09-07T07:46:19Z</time>
      </trkpt>
      <trkpt lat="47.9774" lon="-3.80569">
        <ele>128.4</ele>
        <time>2024-09-07T07:46:20Z</time>
      </trkpt>
      <trkpt lat="47.97743" lon="-3.80561">
        <ele>128.4</ele>
        <time>2024-09-07T07:46:21Z</time>
      </trkpt>
      <trkpt lat="47.97747" lon="-3.80554">
        <ele>128.4</ele>
        <time>2024-09-07T07:46:22Z</time>
      </trkpt>
      <trkpt lat="47.9775" lon="-3.80547">
        <ele>128.2</ele>
        <time>2024-09-07T07:46:23Z</time>
      </trkpt>
      <trkpt lat="47.97754" lon="-3.80541">
        <ele>128</ele>
        <time>2024-09-07T07:46:24Z</time>
      </trkpt>
      <trkpt lat="47.97758" lon="-3.80535">
        <ele>127.8</ele>
        <time>2024-09-07T07:46:25Z</time>
      </trkpt>
      <trkpt lat="47.97761" lon="-3.80529">
        <ele>127.8</ele>
        <time>2024-09-07T07:46:26Z</time>
      </trkpt>
      <trkpt lat="47.97764" lon="-3.80522">
        <ele>127.8</ele>
        <time>2024-09-07T07:46:27Z</time>
      </trkpt>
      <trkpt lat="47.97767" lon="-3.80516">
        <ele>127.6</ele>
        <time>2024-09-07T07:46:28Z</time>
      </trkpt>
      <trkpt lat="47.97771" lon="-3.80509">
        <ele>127.6</ele>
        <time>2024-09-07T07:46:29Z</time>
      </trkpt>
      <trkpt lat="47.97775" lon="-3.80502">
        <ele>127.4</ele>
        <time>2024-09-07T07:46:30Z</time>
      </trkpt>
      <trkpt lat="47.97779" lon="-3.80496">
        <ele>127.4</ele>
        <time>2024-09-07T07:46:31Z</time>
      </trkpt>
      <trkpt lat="47.97782" lon="-3.80489">
        <ele>127.4</ele>
        <time>2024-09-07T07:46:32Z</time>
      </trkpt>
      <trkpt lat="47.97786" lon="-3.80483">
        <ele>127.2</ele>
        <time>2024-09-07T07:46:33Z</time>
      </trkpt>
      <trkpt lat="47.9779" lon="-3.80477">
        <ele>127.2</ele>
        <time>2024-09-07T07:46:34Z</time>
      </trkpt>
      <trkpt lat="47.97793" lon="-3.8047">
        <ele>127.2</ele>
        <time>2024-09-07T07:46:35Z</time>
      </trkpt>
      <trkpt lat="47.97797" lon="-3.80463">
        <ele>127</ele>
        <time>2024-09-07T07:46:36Z</time>
      </trkpt>
      <trkpt lat="47.97801" lon="-3.80455">
        <ele>127</ele>
        <time>2024-09-07T07:46:37Z</time>
      </trkpt>
      <trkpt lat="47.97805" lon="-3.80448">
        <ele>127</ele>
        <time>2024-09-07T07:46:38Z</time>
      </trkpt>
      <trkpt lat="47.97809" lon="-3.80442">
        <ele>126.8</ele>
        <time>2024-09-07T07:46:39Z</time>
      </trkpt>
      <trkpt lat="47.97812" lon="-3.80436">
        <ele>126.8</ele>
        <time>2024-09-07T07:46:40Z</time>
      </trkpt>
      <trkpt lat="47.97816" lon="-3.80429">
        <ele>126.8</ele>
        <time>2024-09-07T07:46:41Z</time>
      </trkpt>
      <trkpt lat="47.97819" lon="-3.80423">
        <ele>126.8</ele>
        <time>2024-09-07T07:46:42Z</time>
      </trkpt>
      <trkpt lat="47.97822" lon="-3.80416">
        <ele>126.8</ele>
        <time>2024-09-07T07:46:43Z</time>
      </trkpt>
      <trkpt lat="47.97825" lon="-3.80411">
        <ele>126.6</ele>
        <time>2024-09-07T07:46:44Z</time>
      </trkpt>
      <trkpt lat="47.97828" lon="-3.80405">
        <ele>126.6</ele>
        <time>2024-09-07T07:46:45Z</time>
      </trkpt>
      <trkpt lat="47.97832" lon="-3.80398">
        <ele>126.6</ele>
        <time>2024-09-07T07:46:46Z</time>
      </trkpt>
      <trkpt lat="47.97835" lon="-3.80392">
        <ele>126.4</ele>
        <time>2024-09-07T07:46:47Z</time>
      </trkpt>
      <trkpt lat="47.97838" lon="-3.80386">
        <ele>126.4</ele>
        <time>2024-09-07T07:46:48Z</time>
      </trkpt>
      <trkpt lat="47.97841" lon="-3.80381">
        <ele>126.4</ele>
        <time>2024-09-07T07:46:49Z</time>
      </trkpt>
      <trkpt lat="47.97844" lon="-3.80376">
        <ele>126.4</ele>
        <time>2024-09-07T07:46:50Z</time>
      </trkpt>
      <trkpt lat="47.97847" lon="-3.8037">
        <ele>126.4</ele>
        <time>2024-09-07T07:46:51Z</time>
      </trkpt>
      <trkpt lat="47.97851" lon="-3.80364">
        <ele>126.4</ele>
        <time>2024-09-07T07:46:52Z</time>
      </trkpt>
      <trkpt lat="47.97854" lon="-3.80358">
        <ele>126.2</ele>
        <time>2024-09-07T07:46:53Z</time>
      </trkpt>
      <trkpt lat="47.97856" lon="-3.80352">
        <ele>126.2</ele>
        <time>2024-09-07T07:46:54Z</time>
      </trkpt>
      <trkpt lat="47.9786" lon="-3.80346">
        <ele>126.2</ele>
        <time>2024-09-07T07:46:55Z</time>
      </trkpt>
      <trkpt lat="47.97863" lon="-3.80339">
        <ele>126.2</ele>
        <time>2024-09-07T07:46:56Z</time>
      </trkpt>
      <trkpt lat="47.97867" lon="-3.80333">
        <ele>126</ele>
        <time>2024-09-07T07:46:57Z</time>
      </trkpt>
      <trkpt lat="47.9787" lon="-3.80326">
        <ele>126</ele>
        <time>2024-09-07T07:46:58Z</time>
      </trkpt>
      <trkpt lat="47.97873" lon="-3.8032">
        <ele>126</ele>
        <time>2024-09-07T07:46:59Z</time>
      </trkpt>
      <trkpt lat="47.97876" lon="-3.80314">
        <ele>126</ele>
        <time>2024-09-07T07:47:00Z</time>
      </trkpt>
      <trkpt lat="47.97879" lon="-3.80308">
        <ele>125.8</ele>
        <time>2024-09-07T07:47:01Z</time>
      </trkpt>
      <trkpt lat="47.97882" lon="-3.80302">
        <ele>125.8</ele>
        <time>2024-09-07T07:47:02Z</time>
      </trkpt>
      <trkpt lat="47.97885" lon="-3.80296">
        <ele>125.8</ele>
        <time>2024-09-07T07:47:03Z</time>
      </trkpt>
      <trkpt lat="47.97888" lon="-3.8029">
        <ele>125.8</ele>
        <time>2024-09-07T07:47:04Z</time>
      </trkpt>
      <trkpt lat="47.97891" lon="-3.80285">
        <ele>125.8</ele>
        <time>2024-09-07T07:47:05Z</time>
      </trkpt>
      <trkpt lat="47.97894" lon="-3.8028">
        <ele>125.6</ele>
        <time>2024-09-07T07:47:06Z</time>
      </trkpt>
      <trkpt lat="47.97896" lon="-3.80275">
        <ele>125.6</ele>
        <time>2024-09-07T07:47:07Z</time>
      </trkpt>
      <trkpt lat="47.97899" lon="-3.8027">
        <ele>125.4</ele>
        <time>2024-09-07T07:47:08Z</time>
      </trkpt>
      <trkpt lat="47.97902" lon="-3.80265">
        <ele>125.4</ele>
        <time>2024-09-07T07:47:09Z</time>
      </trkpt>
      <trkpt lat="47.97905" lon="-3.80261">
        <ele>125.2</ele>
        <time>2024-09-07T07:47:10Z</time>
      </trkpt>
      <trkpt lat="47.97907" lon="-3.80255">
        <ele>125.2</ele>
        <time>2024-09-07T07:47:11Z</time>
      </trkpt>
      <trkpt lat="47.97911" lon="-3.8025">
        <ele>125</ele>
        <time>2024-09-07T07:47:12Z</time>
      </trkpt>
      <trkpt lat="47.97914" lon="-3.80243">
        <ele>125</ele>
        <time>2024-09-07T07:47:13Z</time>
      </trkpt>
      <trkpt lat="47.97918" lon="-3.80237">
        <ele>125</ele>
        <time>2024-09-07T07:47:14Z</time>
      </trkpt>
      <trkpt lat="47.97921" lon="-3.80231">
        <ele>124.8</ele>
        <time>2024-09-07T07:47:15Z</time>
      </trkpt>
      <trkpt lat="47.97924" lon="-3.80225">
        <ele>124.8</ele>
        <time>2024-09-07T07:47:16Z</time>
      </trkpt>
      <trkpt lat="47.97928" lon="-3.80218">
        <ele>124.8</ele>
        <time>2024-09-07T07:47:17Z</time>
      </trkpt>
      <trkpt lat="47.97931" lon="-3.80212">
        <ele>124.8</ele>
        <time>2024-09-07T07:47:18Z</time>
      </trkpt>
      <trkpt lat="47.97934" lon="-3.80205">
        <ele>124.6</ele>
        <time>2024-09-07T07:47:19Z</time>
      </trkpt>
      <trkpt lat="47.97937" lon="-3.802">
        <ele>124.6</ele>
        <time>2024-09-07T07:47:20Z</time>
      </trkpt>
      <trkpt lat="47.97939" lon="-3.80195">
        <ele>124.4</ele>
        <time>2024-09-07T07:47:21Z</time>
      </trkpt>
      <trkpt lat="47.97941" lon="-3.80191">
        <ele>124.4</ele>
        <time>2024-09-07T07:47:22Z</time>
      </trkpt>
      <trkpt lat="47.97943" lon="-3.80187">
        <ele>124.4</ele>
        <time>2024-09-07T07:47:23Z</time>
      </trkpt>
      <trkpt lat="47.97945" lon="-3.80184">
        <ele>124.2</ele>
        <time>2024-09-07T07:47:24Z</time>
      </trkpt>
      <trkpt lat="47.97947" lon="-3.80182">
        <ele>124.2</ele>
        <time>2024-09-07T07:47:25Z</time>
      </trkpt>
      <trkpt lat="47.97948" lon="-3.8018">
        <ele>124.2</ele>
        <time>2024-09-07T07:47:26Z</time>
      </trkpt>
      <trkpt lat="47.97949" lon="-3.80178">
        <ele>124</ele>
        <time>2024-09-07T07:47:27Z</time>
      </trkpt>
      <trkpt lat="47.9795" lon="-3.80176">
        <ele>124</ele>
        <time>2024-09-07T07:47:28Z</time>
      </trkpt>
      <trkpt lat="47.97951" lon="-3.80174">
        <ele>124</ele>
        <time>2024-09-07T07:47:29Z</time>
      </trkpt>
      <trkpt lat="47.97952" lon="-3.80172">
        <ele>124</ele>
        <time>2024-09-07T07:47:30Z</time>
      </trkpt>
      <trkpt lat="47.97952" lon="-3.8017">
        <ele>124</ele>
        <time>2024-09-07T07:47:31Z</time>
      </trkpt>
      <trkpt lat="47.97953" lon="-3.80169">
        <ele>124</ele>
        <time>2024-09-07T07:47:32Z</time>
      </trkpt>
      <trkpt lat="47.97961" lon="-3.80155">
        <ele>124</ele>
        <time>2024-09-07T07:47:41Z</time>
      </trkpt>
      <trkpt lat="47.97963" lon="-3.80151">
        <ele>124</ele>
        <time>2024-09-07T07:47:42Z</time>
      </trkpt>
      <trkpt lat="47.97966" lon="-3.80146">
        <ele>124</ele>
        <time>2024-09-07T07:47:43Z</time>
      </trkpt>
      <trkpt lat="47.97969" lon="-3.80142">
        <ele>124</ele>
        <time>2024-09-07T07:47:44Z</time>
      </trkpt>
      <trkpt lat="47.97971" lon="-3.80137">
        <ele>124</ele>
        <time>2024-09-07T07:47:45Z</time>
      </trkpt>
      <trkpt lat="47.97974" lon="-3.80132">
        <ele>124</ele>
        <time>2024-09-07T07:47:46Z</time>
      </trkpt>
      <trkpt lat="47.97977" lon="-3.80127">
        <ele>124</ele>
        <time>2024-09-07T07:47:47Z</time>
      </trkpt>
      <trkpt lat="47.97979" lon="-3.80122">
        <ele>124</ele>
        <time>2024-09-07T07:47:48Z</time>
      </trkpt>
      <trkpt lat="47.97982" lon="-3.80117">
        <ele>123.8</ele>
        <time>2024-09-07T07:47:49Z</time>
      </trkpt>
      <trkpt lat="47.97984" lon="-3.80112">
        <ele>123.8</ele>
        <time>2024-09-07T07:47:50Z</time>
      </trkpt>
      <trkpt lat="47.97987" lon="-3.80107">
        <ele>123.8</ele>
        <time>2024-09-07T07:47:51Z</time>
      </trkpt>
      <trkpt lat="47.97989" lon="-3.80103">
        <ele>123.6</ele>
        <time>2024-09-07T07:47:52Z</time>
      </trkpt>
      <trkpt lat="47.97991" lon="-3.80098">
        <ele>123.6</ele>
        <time>2024-09-07T07:47:53Z</time>
      </trkpt>
      <trkpt lat="47.97994" lon="-3.80093">
        <ele>123.6</ele>
        <time>2024-09-07T07:47:54Z</time>
      </trkpt>
      <trkpt lat="47.97997" lon="-3.80088">
        <ele>123.6</ele>
        <time>2024-09-07T07:47:55Z</time>
      </trkpt>
      <trkpt lat="47.98" lon="-3.80083">
        <ele>123.6</ele>
        <time>2024-09-07T07:47:56Z</time>
      </trkpt>
      <trkpt lat="47.98002" lon="-3.80078">
        <ele>123.6</ele>
        <time>2024-09-07T07:47:57Z</time>
      </trkpt>
      <trkpt lat="47.98005" lon="-3.80074">
        <ele>123.6</ele>
        <time>2024-09-07T07:47:58Z</time>
      </trkpt>
      <trkpt lat="47.98007" lon="-3.80069">
        <ele>123.6</ele>
        <time>2024-09-07T07:47:59Z</time>
      </trkpt>
      <trkpt lat="47.9801" lon="-3.80064">
        <ele>123.6</ele>
        <time>2024-09-07T07:48:00Z</time>
      </trkpt>
      <trkpt lat="47.98012" lon="-3.8006">
        <ele>123.6</ele>
        <time>2024-09-07T07:48:01Z</time>
      </trkpt>
      <trkpt lat="47.98014" lon="-3.80055">
        <ele>123.6</ele>
        <time>2024-09-07T07:48:02Z</time>
      </trkpt>
      <trkpt lat="47.98016" lon="-3.80051">
        <ele>123.6</ele>
        <time>2024-09-07T07:48:03Z</time>
      </trkpt>
      <trkpt lat="47.98019" lon="-3.80046">
        <ele>123.6</ele>
        <time>2024-09-07T07:48:04Z</time>
      </trkpt>
      <trkpt lat="47.98021" lon="-3.80042">
        <ele>123.6</ele>
        <time>2024-09-07T07:48:05Z</time>
      </trkpt>
      <trkpt lat="47.98023" lon="-3.80038">
        <ele>123.6</ele>
        <time>2024-09-07T07:48:06Z</time>
      </trkpt>
      <trkpt lat="47.98025" lon="-3.80033">
        <ele>123.6</ele>
        <time>2024-09-07T07:48:07Z</time>
      </trkpt>
      <trkpt lat="47.98028" lon="-3.8003">
        <ele>123.6</ele>
        <time>2024-09-07T07:48:08Z</time>
      </trkpt>
      <trkpt lat="47.9803" lon="-3.80026">
        <ele>123.8</ele>
        <time>2024-09-07T07:48:09Z</time>
      </trkpt>
      <trkpt lat="47.98032" lon="-3.80022">
        <ele>123.8</ele>
        <time>2024-09-07T07:48:10Z</time>
      </trkpt>
      <trkpt lat="47.98035" lon="-3.80018">
        <ele>124</ele>
        <time>2024-09-07T07:48:11Z</time>
      </trkpt>
      <trkpt lat="47.98037" lon="-3.80014">
        <ele>124</ele>
        <time>2024-09-07T07:48:12Z</time>
      </trkpt>
      <trkpt lat="47.98039" lon="-3.8001">
        <ele>124</ele>
        <time>2024-09-07T07:48:13Z</time>
      </trkpt>
      <trkpt lat="47.98042" lon="-3.80005">
        <ele>124</ele>
        <time>2024-09-07T07:48:14Z</time>
      </trkpt>
      <trkpt lat="47.98044" lon="-3.80001">
        <ele>124</ele>
        <time>2024-09-07T07:48:15Z</time>
      </trkpt>
      <trkpt lat="47.98046" lon="-3.79996">
        <ele>124.2</ele>
        <time>2024-09-07T07:48:16Z</time>
      </trkpt>
      <trkpt lat="47.98049" lon="-3.79991">
        <ele>124.2</ele>
        <time>2024-09-07T07:48:17Z</time>
      </trkpt>
      <trkpt lat="47.98051" lon="-3.79987">
        <ele>124.2</ele>
        <time>2024-09-07T07:48:18Z</time>
      </trkpt>
      <trkpt lat="47.98054" lon="-3.79982">
        <ele>124.2</ele>
        <time>2024-09-07T07:48:19Z</time>
      </trkpt>
      <trkpt lat="47.98056" lon="-3.79978">
        <ele>124.4</ele>
        <time>2024-09-07T07:48:20Z</time>
      </trkpt>
      <trkpt lat="47.98059" lon="-3.79973">
        <ele>124.4</ele>
        <time>2024-09-07T07:48:21Z</time>
      </trkpt>
      <trkpt lat="47.98061" lon="-3.79969">
        <ele>124.6</ele>
        <time>2024-09-07T07:48:22Z</time>
      </trkpt>
      <trkpt lat="47.98064" lon="-3.79964">
        <ele>124.6</ele>
        <time>2024-09-07T07:48:23Z</time>
      </trkpt>
      <trkpt lat="47.98066" lon="-3.7996">
        <ele>124.6</ele>
        <time>2024-09-07T07:48:24Z</time>
      </trkpt>
      <trkpt lat="47.98068" lon="-3.79955">
        <ele>124.8</ele>
        <time>2024-09-07T07:48:25Z</time>
      </trkpt>
      <trkpt lat="47.9807" lon="-3.79951">
        <ele>124.8</ele>
        <time>2024-09-07T07:48:26Z</time>
      </trkpt>
      <trkpt lat="47.98072" lon="-3.79946">
        <ele>125</ele>
        <time>2024-09-07T07:48:27Z</time>
      </trkpt>
      <trkpt lat="47.98074" lon="-3.79942">
        <ele>125</ele>
        <time>2024-09-07T07:48:28Z</time>
      </trkpt>
      <trkpt lat="47.98077" lon="-3.79937">
        <ele>125</ele>
        <time>2024-09-07T07:48:29Z</time>
      </trkpt>
      <trkpt lat="47.98079" lon="-3.79933">
        <ele>125.2</ele>
        <time>2024-09-07T07:48:30Z</time>
      </trkpt>
      <trkpt lat="47.98081" lon="-3.79929">
        <ele>125.2</ele>
        <time>2024-09-07T07:48:31Z</time>
      </trkpt>
      <trkpt lat="47.98084" lon="-3.79925">
        <ele>125.2</ele>
        <time>2024-09-07T07:48:32Z</time>
      </trkpt>
      <trkpt lat="47.98086" lon="-3.7992">
        <ele>125.4</ele>
        <time>2024-09-07T07:48:33Z</time>
      </trkpt>
      <trkpt lat="47.98088" lon="-3.79916">
        <ele>125.4</ele>
        <time>2024-09-07T07:48:34Z</time>
      </trkpt>
      <trkpt lat="47.9809" lon="-3.79912">
        <ele>125.6</ele>
        <time>2024-09-07T07:48:35Z</time>
      </trkpt>
      <trkpt lat="47.98093" lon="-3.79907">
        <ele>125.6</ele>
        <time>2024-09-07T07:48:36Z</time>
      </trkpt>
      <trkpt lat="47.98095" lon="-3.79903">
        <ele>125.6</ele>
        <time>2024-09-07T07:48:37Z</time>
      </trkpt>
      <trkpt lat="47.98098" lon="-3.79898">
        <ele>125.8</ele>
        <time>2024-09-07T07:48:38Z</time>
      </trkpt>
      <trkpt lat="47.981" lon="-3.79894">
        <ele>125.8</ele>
        <time>2024-09-07T07:48:39Z</time>
      </trkpt>
      <trkpt lat="47.98103" lon="-3.7989">
        <ele>126</ele>
        <time>2024-09-07T07:48:40Z</time>
      </trkpt>
      <trkpt lat="47.98105" lon="-3.79886">
        <ele>126.2</ele>
        <time>2024-09-07T07:48:41Z</time>
      </trkpt>
      <trkpt lat="47.98108" lon="-3.79883">
        <ele>126.2</ele>
        <time>2024-09-07T07:48:42Z</time>
      </trkpt>
      <trkpt lat="47.9811" lon="-3.7988">
        <ele>126.2</ele>
        <time>2024-09-07T07:48:43Z</time>
      </trkpt>
      <trkpt lat="47.98112" lon="-3.79877">
        <ele>126.2</ele>
        <time>2024-09-07T07:48:44Z</time>
      </trkpt>
      <trkpt lat="47.98114" lon="-3.79874">
        <ele>126.4</ele>
        <time>2024-09-07T07:48:45Z</time>
      </trkpt>
      <trkpt lat="47.98115" lon="-3.79873">
        <ele>126.4</ele>
        <time>2024-09-07T07:48:46Z</time>
      </trkpt>
      <trkpt lat="47.98117" lon="-3.79871">
        <ele>126.4</ele>
        <time>2024-09-07T07:48:47Z</time>
      </trkpt>
      <trkpt lat="47.98118" lon="-3.79869">
        <ele>126.4</ele>
        <time>2024-09-07T07:48:48Z</time>
      </trkpt>
      <trkpt lat="47.98119" lon="-3.79867">
        <ele>126.6</ele>
        <time>2024-09-07T07:48:49Z</time>
      </trkpt>
      <trkpt lat="47.98121" lon="-3.79865">
        <ele>126.6</ele>
        <time>2024-09-07T07:48:50Z</time>
      </trkpt>
      <trkpt lat="47.98122" lon="-3.79862">
        <ele>126.6</ele>
        <time>2024-09-07T07:48:51Z</time>
      </trkpt>
      <trkpt lat="47.98124" lon="-3.79859">
        <ele>127</ele>
        <time>2024-09-07T07:48:52Z</time>
      </trkpt>
      <trkpt lat="47.98125" lon="-3.79856">
        <ele>127</ele>
        <time>2024-09-07T07:48:53Z</time>
      </trkpt>
      <trkpt lat="47.98127" lon="-3.79854">
        <ele>127.2</ele>
        <time>2024-09-07T07:48:54Z</time>
      </trkpt>
      <trkpt lat="47.9813" lon="-3.79852">
        <ele>127.4</ele>
        <time>2024-09-07T07:48:55Z</time>
      </trkpt>
      <trkpt lat="47.98133" lon="-3.7985">
        <ele>127.6</ele>
        <time>2024-09-07T07:48:56Z</time>
      </trkpt>
      <trkpt lat="47.98135" lon="-3.79847">
        <ele>127.6</ele>
        <time>2024-09-07T07:48:57Z</time>
      </trkpt>
      <trkpt lat="47.98138" lon="-3.79845">
        <ele>127.6</ele>
        <time>2024-09-07T07:48:58Z</time>
      </trkpt>
      <trkpt lat="47.98142" lon="-3.79842">
        <ele>127.6</ele>
        <time>2024-09-07T07:48:59Z</time>
      </trkpt>
      <trkpt lat="47.98145" lon="-3.79838">
        <ele>127.8</ele>
        <time>2024-09-07T07:49:00Z</time>
      </trkpt>
      <trkpt lat="47.98148" lon="-3.79835">
        <ele>127.8</ele>
        <time>2024-09-07T07:49:01Z</time>
      </trkpt>
      <trkpt lat="47.98152" lon="-3.79832">
        <ele>127.8</ele>
        <time>2024-09-07T07:49:02Z</time>
      </trkpt>
      <trkpt lat="47.98155" lon="-3.79829">
        <ele>127.8</ele>
        <time>2024-09-07T07:49:03Z</time>
      </trkpt>
      <trkpt lat="47.98158" lon="-3.79826">
        <ele>127.8</ele>
        <time>2024-09-07T07:49:04Z</time>
      </trkpt>
      <trkpt lat="47.98162" lon="-3.79822">
        <ele>127.8</ele>
        <time>2024-09-07T07:49:05Z</time>
      </trkpt>
      <trkpt lat="47.98165" lon="-3.79819">
        <ele>127.8</ele>
        <time>2024-09-07T07:49:06Z</time>
      </trkpt>
      <trkpt lat="47.98168" lon="-3.79816">
        <ele>127.8</ele>
        <time>2024-09-07T07:49:07Z</time>
      </trkpt>
      <trkpt lat="47.98171" lon="-3.79812">
        <ele>127.8</ele>
        <time>2024-09-07T07:49:08Z</time>
      </trkpt>
      <trkpt lat="47.98174" lon="-3.7981">
        <ele>128</ele>
        <time>2024-09-07T07:49:09Z</time>
      </trkpt>
      <trkpt lat="47.98177" lon="-3.79807">
        <ele>128</ele>
        <time>2024-09-07T07:49:10Z</time>
      </trkpt>
      <trkpt lat="47.9818" lon="-3.79805">
        <ele>128</ele>
        <time>2024-09-07T07:49:11Z</time>
      </trkpt>
      <trkpt lat="47.98183" lon="-3.79802">
        <ele>128</ele>
        <time>2024-09-07T07:49:12Z</time>
      </trkpt>
      <trkpt lat="47.98187" lon="-3.79799">
        <ele>128</ele>
        <time>2024-09-07T07:49:13Z</time>
      </trkpt>
      <trkpt lat="47.9819" lon="-3.79796">
        <ele>128</ele>
        <time>2024-09-07T07:49:14Z</time>
      </trkpt>
      <trkpt lat="47.98193" lon="-3.79794">
        <ele>127.8</ele>
        <time>2024-09-07T07:49:15Z</time>
      </trkpt>
      <trkpt lat="47.98196" lon="-3.7979">
        <ele>127.8</ele>
        <time>2024-09-07T07:49:16Z</time>
      </trkpt>
      <trkpt lat="47.98199" lon="-3.79787">
        <ele>127.8</ele>
        <time>2024-09-07T07:49:17Z</time>
      </trkpt>
      <trkpt lat="47.98203" lon="-3.79783">
        <ele>127.8</ele>
        <time>2024-09-07T07:49:18Z</time>
      </trkpt>
      <trkpt lat="47.98206" lon="-3.7978">
        <ele>127.8</ele>
        <time>2024-09-07T07:49:19Z</time>
      </trkpt>
      <trkpt lat="47.98209" lon="-3.79778">
        <ele>127.8</ele>
        <time>2024-09-07T07:49:20Z</time>
      </trkpt>
      <trkpt lat="47.98212" lon="-3.79776">
        <ele>127.8</ele>
        <time>2024-09-07T07:49:21Z</time>
      </trkpt>
      <trkpt lat="47.98215" lon="-3.79773">
        <ele>127.8</ele>
        <time>2024-09-07T07:49:22Z</time>
      </trkpt>
      <trkpt lat="47.98219" lon="-3.79769">
        <ele>127.8</ele>
        <time>2024-09-07T07:49:23Z</time>
      </trkpt>
      <trkpt lat="47.98222" lon="-3.79766">
        <ele>127.8</ele>
        <time>2024-09-07T07:49:24Z</time>
      </trkpt>
      <trkpt lat="47.98226" lon="-3.79762">
        <ele>127.8</ele>
        <time>2024-09-07T07:49:25Z</time>
      </trkpt>
      <trkpt lat="47.98229" lon="-3.79759">
        <ele>127.8</ele>
        <time>2024-09-07T07:49:26Z</time>
      </trkpt>
      <trkpt lat="47.98232" lon="-3.79756">
        <ele>127.8</ele>
        <time>2024-09-07T07:49:27Z</time>
      </trkpt>
      <trkpt lat="47.98235" lon="-3.79753">
        <ele>127.8</ele>
        <time>2024-09-07T07:49:28Z</time>
      </trkpt>
      <trkpt lat="47.98239" lon="-3.79751">
        <ele>127.8</ele>
        <time>2024-09-07T07:49:29Z</time>
      </trkpt>
      <trkpt lat="47.98242" lon="-3.79748">
        <ele>127.8</ele>
        <time>2024-09-07T07:49:30Z</time>
      </trkpt>
      <trkpt lat="47.98246" lon="-3.79744">
        <ele>128</ele>
        <time>2024-09-07T07:49:31Z</time>
      </trkpt>
      <trkpt lat="47.9825" lon="-3.7974">
        <ele>128</ele>
        <time>2024-09-07T07:49:32Z</time>
      </trkpt>
      <trkpt lat="47.98253" lon="-3.79735">
        <ele>128</ele>
        <time>2024-09-07T07:49:33Z</time>
      </trkpt>
      <trkpt lat="47.98257" lon="-3.79731">
        <ele>128.2</ele>
        <time>2024-09-07T07:49:34Z</time>
      </trkpt>
      <trkpt lat="47.98261" lon="-3.79728">
        <ele>128.2</ele>
        <time>2024-09-07T07:49:35Z</time>
      </trkpt>
      <trkpt lat="47.98264" lon="-3.79724">
        <ele>128.2</ele>
        <time>2024-09-07T07:49:36Z</time>
      </trkpt>
      <trkpt lat="47.98268" lon="-3.79721">
        <ele>128.2</ele>
        <time>2024-09-07T07:49:37Z</time>
      </trkpt>
      <trkpt lat="47.98272" lon="-3.79717">
        <ele>128.4</ele>
        <time>2024-09-07T07:49:38Z</time>
      </trkpt>
      <trkpt lat="47.98276" lon="-3.79713">
        <ele>128.4</ele>
        <time>2024-09-07T07:49:39Z</time>
      </trkpt>
      <trkpt lat="47.98281" lon="-3.79709">
        <ele>128.4</ele>
        <time>2024-09-07T07:49:40Z</time>
      </trkpt>
      <trkpt lat="47.98286" lon="-3.79704">
        <ele>128.4</ele>
        <time>2024-09-07T07:49:41Z</time>
      </trkpt>
      <trkpt lat="47.9829" lon="-3.797">
        <ele>128.4</ele>
        <time>2024-09-07T07:49:42Z</time>
      </trkpt>
      <trkpt lat="47.98294" lon="-3.79696">
        <ele>128.6</ele>
        <time>2024-09-07T07:49:43Z</time>
      </trkpt>
      <trkpt lat="47.98299" lon="-3.79691">
        <ele>128.6</ele>
        <time>2024-09-07T07:49:44Z</time>
      </trkpt>
      <trkpt lat="47.98302" lon="-3.79686">
        <ele>128.6</ele>
        <time>2024-09-07T07:49:45Z</time>
      </trkpt>
      <trkpt lat="47.98306" lon="-3.79682">
        <ele>128.6</ele>
        <time>2024-09-07T07:49:46Z</time>
      </trkpt>
      <trkpt lat="47.98312" lon="-3.79677">
        <ele>128.6</ele>
        <time>2024-09-07T07:49:47Z</time>
      </trkpt>
      <trkpt lat="47.98316" lon="-3.79672">
        <ele>128.8</ele>
        <time>2024-09-07T07:49:48Z</time>
      </trkpt>
      <trkpt lat="47.9832" lon="-3.79668">
        <ele>128.8</ele>
        <time>2024-09-07T07:49:49Z</time>
      </trkpt>
      <trkpt lat="47.98324" lon="-3.79665">
        <ele>128.8</ele>
        <time>2024-09-07T07:49:50Z</time>
      </trkpt>
      <trkpt lat="47.98328" lon="-3.79661">
        <ele>128.8</ele>
        <time>2024-09-07T07:49:51Z</time>
      </trkpt>
      <trkpt lat="47.98333" lon="-3.79657">
        <ele>129</ele>
        <time>2024-09-07T07:49:52Z</time>
      </trkpt>
      <trkpt lat="47.98337" lon="-3.79654">
        <ele>129</ele>
        <time>2024-09-07T07:49:53Z</time>
      </trkpt>
      <trkpt lat="47.98342" lon="-3.7965">
        <ele>129</ele>
        <time>2024-09-07T07:49:54Z</time>
      </trkpt>
      <trkpt lat="47.98346" lon="-3.79648">
        <ele>129</ele>
        <time>2024-09-07T07:49:55Z</time>
      </trkpt>
      <trkpt lat="47.9835" lon="-3.79644">
        <ele>129.2</ele>
        <time>2024-09-07T07:49:56Z</time>
      </trkpt>
      <trkpt lat="47.98356" lon="-3.79641">
        <ele>129.2</ele>
        <time>2024-09-07T07:49:57Z</time>
      </trkpt>
      <trkpt lat="47.9836" lon="-3.79638">
        <ele>129.2</ele>
        <time>2024-09-07T07:49:58Z</time>
      </trkpt>
      <trkpt lat="47.98364" lon="-3.79635">
        <ele>129.2</ele>
        <time>2024-09-07T07:49:59Z</time>
      </trkpt>
      <trkpt lat="47.98368" lon="-3.79631">
        <ele>129.4</ele>
        <time>2024-09-07T07:50:00Z</time>
      </trkpt>
      <trkpt lat="47.98372" lon="-3.79628">
        <ele>129.4</ele>
        <time>2024-09-07T07:50:01Z</time>
      </trkpt>
      <trkpt lat="47.98377" lon="-3.79626">
        <ele>129.6</ele>
        <time>2024-09-07T07:50:02Z</time>
      </trkpt>
      <trkpt lat="47.98381" lon="-3.79625">
        <ele>129.6</ele>
        <time>2024-09-07T07:50:03Z</time>
      </trkpt>
      <trkpt lat="47.98385" lon="-3.79624">
        <ele>129.6</ele>
        <time>2024-09-07T07:50:04Z</time>
      </trkpt>
      <trkpt lat="47.9839" lon="-3.79623">
        <ele>129.6</ele>
        <time>2024-09-07T07:50:05Z</time>
      </trkpt>
      <trkpt lat="47.98395" lon="-3.79621">
        <ele>129.6</ele>
        <time>2024-09-07T07:50:06Z</time>
      </trkpt>
      <trkpt lat="47.984" lon="-3.7962">
        <ele>129.6</ele>
        <time>2024-09-07T07:50:07Z</time>
      </trkpt>
      <trkpt lat="47.98404" lon="-3.79618">
        <ele>129.8</ele>
        <time>2024-09-07T07:50:08Z</time>
      </trkpt>
      <trkpt lat="47.9841" lon="-3.79617">
        <ele>129.8</ele>
        <time>2024-09-07T07:50:09Z</time>
      </trkpt>
      <trkpt lat="47.98415" lon="-3.79615">
        <ele>129.8</ele>
        <time>2024-09-07T07:50:10Z</time>
      </trkpt>
      <trkpt lat="47.98419" lon="-3.79614">
        <ele>129.8</ele>
        <time>2024-09-07T07:50:11Z</time>
      </trkpt>
      <trkpt lat="47.98424" lon="-3.79613">
        <ele>129.8</ele>
        <time>2024-09-07T07:50:12Z</time>
      </trkpt>
      <trkpt lat="47.98428" lon="-3.79612">
        <ele>130</ele>
        <time>2024-09-07T07:50:13Z</time>
      </trkpt>
      <trkpt lat="47.98432" lon="-3.79611">
        <ele>130</ele>
        <time>2024-09-07T07:50:14Z</time>
      </trkpt>
      <trkpt lat="47.98437" lon="-3.79611">
        <ele>130</ele>
        <time>2024-09-07T07:50:15Z</time>
      </trkpt>
      <trkpt lat="47.9844" lon="-3.7961">
        <ele>130</ele>
        <time>2024-09-07T07:50:16Z</time>
      </trkpt>
      <trkpt lat="47.98445" lon="-3.79609">
        <ele>130.2</ele>
        <time>2024-09-07T07:50:17Z</time>
      </trkpt>
      <trkpt lat="47.98451" lon="-3.79607">
        <ele>130.2</ele>
        <time>2024-09-07T07:50:18Z</time>
      </trkpt>
      <trkpt lat="47.98457" lon="-3.79605">
        <ele>130.2</ele>
        <time>2024-09-07T07:50:19Z</time>
      </trkpt>
      <trkpt lat="47.98463" lon="-3.79602">
        <ele>130.2</ele>
        <time>2024-09-07T07:50:20Z</time>
      </trkpt>
      <trkpt lat="47.98468" lon="-3.796">
        <ele>130.2</ele>
        <time>2024-09-07T07:50:21Z</time>
      </trkpt>
      <trkpt lat="47.98474" lon="-3.79598">
        <ele>130.2</ele>
        <time>2024-09-07T07:50:22Z</time>
      </trkpt>
      <trkpt lat="47.98479" lon="-3.79597">
        <ele>130.2</ele>
        <time>2024-09-07T07:50:23Z</time>
      </trkpt>
      <trkpt lat="47.98484" lon="-3.79595">
        <ele>130.4</ele>
        <time>2024-09-07T07:50:24Z</time>
      </trkpt>
      <trkpt lat="47.98489" lon="-3.79592">
        <ele>130.4</ele>
        <time>2024-09-07T07:50:25Z</time>
      </trkpt>
      <trkpt lat="47.98494" lon="-3.79591">
        <ele>130.4</ele>
        <time>2024-09-07T07:50:26Z</time>
      </trkpt>
      <trkpt lat="47.98499" lon="-3.79589">
        <ele>130.4</ele>
        <time>2024-09-07T07:50:27Z</time>
      </trkpt>
      <trkpt lat="47.98503" lon="-3.79587">
        <ele>130.4</ele>
        <time>2024-09-07T07:50:28Z</time>
      </trkpt>
      <trkpt lat="47.98508" lon="-3.79586">
        <ele>130.4</ele>
        <time>2024-09-07T07:50:29Z</time>
      </trkpt>
      <trkpt lat="47.98512" lon="-3.79585">
        <ele>130.6</ele>
        <time>2024-09-07T07:50:30Z</time>
      </trkpt>
      <trkpt lat="47.98519" lon="-3.79584">
        <ele>130.6</ele>
        <time>2024-09-07T07:50:31Z</time>
      </trkpt>
      <trkpt lat="47.98525" lon="-3.79581">
        <ele>130.6</ele>
        <time>2024-09-07T07:50:32Z</time>
      </trkpt>
      <trkpt lat="47.98528" lon="-3.79579">
        <ele>130.6</ele>
        <time>2024-09-07T07:50:33Z</time>
      </trkpt>
      <trkpt lat="47.98533" lon="-3.79579">
        <ele>130.6</ele>
        <time>2024-09-07T07:50:34Z</time>
      </trkpt>
      <trkpt lat="47.98539" lon="-3.79578">
        <ele>130.6</ele>
        <time>2024-09-07T07:50:35Z</time>
      </trkpt>
      <trkpt lat="47.98545" lon="-3.79575">
        <ele>130.6</ele>
        <time>2024-09-07T07:50:36Z</time>
      </trkpt>
      <trkpt lat="47.9855" lon="-3.79574">
        <ele>130.8</ele>
        <time>2024-09-07T07:50:37Z</time>
      </trkpt>
      <trkpt lat="47.98555" lon="-3.79571">
        <ele>130.8</ele>
        <time>2024-09-07T07:50:38Z</time>
      </trkpt>
      <trkpt lat="47.9856" lon="-3.7957">
        <ele>130.8</ele>
        <time>2024-09-07T07:50:39Z</time>
      </trkpt>
      <trkpt lat="47.98565" lon="-3.7957">
        <ele>130.8</ele>
        <time>2024-09-07T07:50:40Z</time>
      </trkpt>
      <trkpt lat="47.9857" lon="-3.79569">
        <ele>130.8</ele>
        <time>2024-09-07T07:50:41Z</time>
      </trkpt>
      <trkpt lat="47.98575" lon="-3.79567">
        <ele>130.8</ele>
        <time>2024-09-07T07:50:42Z</time>
      </trkpt>
      <trkpt lat="47.9858" lon="-3.79562">
        <ele>130.8</ele>
        <time>2024-09-07T07:50:43Z</time>
      </trkpt>
      <trkpt lat="47.98586" lon="-3.79559">
        <ele>131</ele>
        <time>2024-09-07T07:50:44Z</time>
      </trkpt>
      <trkpt lat="47.9859" lon="-3.79557">
        <ele>130.8</ele>
        <time>2024-09-07T07:50:45Z</time>
      </trkpt>
      <trkpt lat="47.98594" lon="-3.79553">
        <ele>130.8</ele>
        <time>2024-09-07T07:50:46Z</time>
      </trkpt>
      <trkpt lat="47.98599" lon="-3.79548">
        <ele>131</ele>
        <time>2024-09-07T07:50:47Z</time>
      </trkpt>
      <trkpt lat="47.98604" lon="-3.79545">
        <ele>131</ele>
        <time>2024-09-07T07:50:48Z</time>
      </trkpt>
      <trkpt lat="47.98608" lon="-3.7954">
        <ele>131</ele>
        <time>2024-09-07T07:50:49Z</time>
      </trkpt>
      <trkpt lat="47.98613" lon="-3.79536">
        <ele>131.2</ele>
        <time>2024-09-07T07:50:50Z</time>
      </trkpt>
      <trkpt lat="47.98617" lon="-3.79532">
        <ele>131.2</ele>
        <time>2024-09-07T07:50:51Z</time>
      </trkpt>
      <trkpt lat="47.98621" lon="-3.79528">
        <ele>131.2</ele>
        <time>2024-09-07T07:50:52Z</time>
      </trkpt>
      <trkpt lat="47.98626" lon="-3.79523">
        <ele>131.2</ele>
        <time>2024-09-07T07:50:53Z</time>
      </trkpt>
      <trkpt lat="47.9863" lon="-3.79519">
        <ele>131.2</ele>
        <time>2024-09-07T07:50:54Z</time>
      </trkpt>
      <trkpt lat="47.98634" lon="-3.79514">
        <ele>131.4</ele>
        <time>2024-09-07T07:50:55Z</time>
      </trkpt>
      <trkpt lat="47.98639" lon="-3.79509">
        <ele>131.4</ele>
        <time>2024-09-07T07:50:56Z</time>
      </trkpt>
      <trkpt lat="47.98643" lon="-3.79503">
        <ele>131.4</ele>
        <time>2024-09-07T07:50:57Z</time>
      </trkpt>
      <trkpt lat="47.98647" lon="-3.79498">
        <ele>131.4</ele>
        <time>2024-09-07T07:50:58Z</time>
      </trkpt>
      <trkpt lat="47.98652" lon="-3.79494">
        <ele>131.4</ele>
        <time>2024-09-07T07:50:59Z</time>
      </trkpt>
      <trkpt lat="47.98656" lon="-3.79488">
        <ele>131.4</ele>
        <time>2024-09-07T07:51:00Z</time>
      </trkpt>
      <trkpt lat="47.98661" lon="-3.79483">
        <ele>131.4</ele>
        <time>2024-09-07T07:51:01Z</time>
      </trkpt>
      <trkpt lat="47.98665" lon="-3.79476">
        <ele>131.4</ele>
        <time>2024-09-07T07:51:02Z</time>
      </trkpt>
      <trkpt lat="47.98668" lon="-3.7947">
        <ele>131.4</ele>
        <time>2024-09-07T07:51:03Z</time>
      </trkpt>
      <trkpt lat="47.9867" lon="-3.79464">
        <ele>131.4</ele>
        <time>2024-09-07T07:51:04Z</time>
      </trkpt>
      <trkpt lat="47.98673" lon="-3.79459">
        <ele>131.4</ele>
        <time>2024-09-07T07:51:05Z</time>
      </trkpt>
      <trkpt lat="47.98675" lon="-3.79454">
        <ele>131.4</ele>
        <time>2024-09-07T07:51:06Z</time>
      </trkpt>
      <trkpt lat="47.98678" lon="-3.79449">
        <ele>131.6</ele>
        <time>2024-09-07T07:51:07Z</time>
      </trkpt>
      <trkpt lat="47.98681" lon="-3.79443">
        <ele>131.6</ele>
        <time>2024-09-07T07:51:08Z</time>
      </trkpt>
      <trkpt lat="47.98684" lon="-3.79437">
        <ele>131.6</ele>
        <time>2024-09-07T07:51:09Z</time>
      </trkpt>
      <trkpt lat="47.98687" lon="-3.79432">
        <ele>131.6</ele>
        <time>2024-09-07T07:51:10Z</time>
      </trkpt>
      <trkpt lat="47.9869" lon="-3.79426">
        <ele>131.6</ele>
        <time>2024-09-07T07:51:11Z</time>
      </trkpt>
      <trkpt lat="47.98693" lon="-3.7942">
        <ele>131.6</ele>
        <time>2024-09-07T07:51:12Z</time>
      </trkpt>
      <trkpt lat="47.98695" lon="-3.79414">
        <ele>131.6</ele>
        <time>2024-09-07T07:51:13Z</time>
      </trkpt>
      <trkpt lat="47.98697" lon="-3.79407">
        <ele>131.8</ele>
        <time>2024-09-07T07:51:14Z</time>
      </trkpt>
      <trkpt lat="47.98699" lon="-3.794">
        <ele>131.8</ele>
        <time>2024-09-07T07:51:15Z</time>
      </trkpt>
      <trkpt lat="47.98702" lon="-3.79394">
        <ele>132</ele>
        <time>2024-09-07T07:51:16Z</time>
      </trkpt>
      <trkpt lat="47.98705" lon="-3.79386">
        <ele>132</ele>
        <time>2024-09-07T07:51:17Z</time>
      </trkpt>
      <trkpt lat="47.98708" lon="-3.7938">
        <ele>132.2</ele>
        <time>2024-09-07T07:51:18Z</time>
      </trkpt>
      <trkpt lat="47.98711" lon="-3.79374">
        <ele>132.2</ele>
        <time>2024-09-07T07:51:19Z</time>
      </trkpt>
      <trkpt lat="47.98715" lon="-3.79368">
        <ele>132.2</ele>
        <time>2024-09-07T07:51:20Z</time>
      </trkpt>
      <trkpt lat="47.98717" lon="-3.79361">
        <ele>132.2</ele>
        <time>2024-09-07T07:51:21Z</time>
      </trkpt>
      <trkpt lat="47.9872" lon="-3.79354">
        <ele>132.4</ele>
        <time>2024-09-07T07:51:22Z</time>
      </trkpt>
      <trkpt lat="47.98724" lon="-3.79346">
        <ele>132.4</ele>
        <time>2024-09-07T07:51:23Z</time>
      </trkpt>
      <trkpt lat="47.98728" lon="-3.79339">
        <ele>132.4</ele>
        <time>2024-09-07T07:51:24Z</time>
      </trkpt>
      <trkpt lat="47.98731" lon="-3.79332">
        <ele>132.4</ele>
        <time>2024-09-07T07:51:25Z</time>
      </trkpt>
      <trkpt lat="47.98734" lon="-3.79325">
        <ele>132.6</ele>
        <time>2024-09-07T07:51:26Z</time>
      </trkpt>
      <trkpt lat="47.98736" lon="-3.79318">
        <ele>132.6</ele>
        <time>2024-09-07T07:51:27Z</time>
      </trkpt>
      <trkpt lat="47.98739" lon="-3.79313">
        <ele>132.6</ele>
        <time>2024-09-07T07:51:28Z</time>
      </trkpt>
      <trkpt lat="47.98742" lon="-3.79307">
        <ele>132.8</ele>
        <time>2024-09-07T07:51:29Z</time>
      </trkpt>
      <trkpt lat="47.98745" lon="-3.79301">
        <ele>132.8</ele>
        <time>2024-09-07T07:51:30Z</time>
      </trkpt>
      <trkpt lat="47.98747" lon="-3.79295">
        <ele>132.8</ele>
        <time>2024-09-07T07:51:31Z</time>
      </trkpt>
      <trkpt lat="47.9875" lon="-3.79289">
        <ele>133</ele>
        <time>2024-09-07T07:51:32Z</time>
      </trkpt>
      <trkpt lat="47.98753" lon="-3.79282">
        <ele>133</ele>
        <time>2024-09-07T07:51:33Z</time>
      </trkpt>
      <trkpt lat="47.98755" lon="-3.79276">
        <ele>133</ele>
        <time>2024-09-07T07:51:34Z</time>
      </trkpt>
      <trkpt lat="47.98757" lon="-3.79269">
        <ele>133</ele>
        <time>2024-09-07T07:51:35Z</time>
      </trkpt>
      <trkpt lat="47.98759" lon="-3.79263">
        <ele>133</ele>
        <time>2024-09-07T07:51:36Z</time>
      </trkpt>
      <trkpt lat="47.98762" lon="-3.79258">
        <ele>133</ele>
        <time>2024-09-07T07:51:37Z</time>
      </trkpt>
      <trkpt lat="47.98764" lon="-3.79252">
        <ele>133</ele>
        <time>2024-09-07T07:51:38Z</time>
      </trkpt>
      <trkpt lat="47.98766" lon="-3.79246">
        <ele>133.2</ele>
        <time>2024-09-07T07:51:39Z</time>
      </trkpt>
      <trkpt lat="47.98769" lon="-3.7924">
        <ele>133.2</ele>
        <time>2024-09-07T07:51:40Z</time>
      </trkpt>
      <trkpt lat="47.98771" lon="-3.79234">
        <ele>133.2</ele>
        <time>2024-09-07T07:51:41Z</time>
      </trkpt>
      <trkpt lat="47.98773" lon="-3.79228">
        <ele>133.2</ele>
        <time>2024-09-07T07:51:42Z</time>
      </trkpt>
      <trkpt lat="47.98775" lon="-3.79223">
        <ele>133.2</ele>
        <time>2024-09-07T07:51:43Z</time>
      </trkpt>
      <trkpt lat="47.98777" lon="-3.79218">
        <ele>133.2</ele>
        <time>2024-09-07T07:51:44Z</time>
      </trkpt>
      <trkpt lat="47.98779" lon="-3.79212">
        <ele>133.2</ele>
        <time>2024-09-07T07:51:45Z</time>
      </trkpt>
      <trkpt lat="47.98782" lon="-3.79207">
        <ele>133.2</ele>
        <time>2024-09-07T07:51:46Z</time>
      </trkpt>
      <trkpt lat="47.98783" lon="-3.79202">
        <ele>133.4</ele>
        <time>2024-09-07T07:51:47Z</time>
      </trkpt>
      <trkpt lat="47.98785" lon="-3.79197">
        <ele>133.4</ele>
        <time>2024-09-07T07:51:48Z</time>
      </trkpt>
      <trkpt lat="47.98787" lon="-3.79191">
        <ele>133.4</ele>
        <time>2024-09-07T07:51:49Z</time>
      </trkpt>
      <trkpt lat="47.98789" lon="-3.79184">
        <ele>133.4</ele>
        <time>2024-09-07T07:51:50Z</time>
      </trkpt>
      <trkpt lat="47.98792" lon="-3.79177">
        <ele>133.4</ele>
        <time>2024-09-07T07:51:51Z</time>
      </trkpt>
      <trkpt lat="47.98795" lon="-3.79171">
        <ele>133.6</ele>
        <time>2024-09-07T07:51:52Z</time>
      </trkpt>
      <trkpt lat="47.98798" lon="-3.79164">
        <ele>133.6</ele>
        <time>2024-09-07T07:51:53Z</time>
      </trkpt>
      <trkpt lat="47.98801" lon="-3.79158">
        <ele>133.6</ele>
        <time>2024-09-07T07:51:54Z</time>
      </trkpt>
      <trkpt lat="47.98804" lon="-3.79152">
        <ele>133.6</ele>
        <time>2024-09-07T07:51:55Z</time>
      </trkpt>
      <trkpt lat="47.98807" lon="-3.79145">
        <ele>133.6</ele>
        <time>2024-09-07T07:51:56Z</time>
      </trkpt>
      <trkpt lat="47.98809" lon="-3.79139">
        <ele>133.8</ele>
        <time>2024-09-07T07:51:57Z</time>
      </trkpt>
      <trkpt lat="47.98812" lon="-3.79134">
        <ele>133.8</ele>
        <time>2024-09-07T07:51:58Z</time>
      </trkpt>
      <trkpt lat="47.98814" lon="-3.79129">
        <ele>133.8</ele>
        <time>2024-09-07T07:51:59Z</time>
      </trkpt>
      <trkpt lat="47.98816" lon="-3.79123">
        <ele>133.8</ele>
        <time>2024-09-07T07:52:00Z</time>
      </trkpt>
      <trkpt lat="47.98818" lon="-3.79118">
        <ele>133.8</ele>
        <time>2024-09-07T07:52:01Z</time>
      </trkpt>
      <trkpt lat="47.9882" lon="-3.79113">
        <ele>134</ele>
        <time>2024-09-07T07:52:02Z</time>
      </trkpt>
      <trkpt lat="47.98823" lon="-3.79107">
        <ele>134</ele>
        <time>2024-09-07T07:52:03Z</time>
      </trkpt>
      <trkpt lat="47.98825" lon="-3.79102">
        <ele>134</ele>
        <time>2024-09-07T07:52:04Z</time>
      </trkpt>
      <trkpt lat="47.98827" lon="-3.79096">
        <ele>134</ele>
        <time>2024-09-07T07:52:05Z</time>
      </trkpt>
      <trkpt lat="47.9883" lon="-3.7909">
        <ele>134</ele>
        <time>2024-09-07T07:52:06Z</time>
      </trkpt>
      <trkpt lat="47.98833" lon="-3.79083">
        <ele>134.2</ele>
        <time>2024-09-07T07:52:07Z</time>
      </trkpt>
      <trkpt lat="47.98835" lon="-3.79079">
        <ele>134.2</ele>
        <time>2024-09-07T07:52:08Z</time>
      </trkpt>
      <trkpt lat="47.98837" lon="-3.79073">
        <ele>134.2</ele>
        <time>2024-09-07T07:52:09Z</time>
      </trkpt>
      <trkpt lat="47.98839" lon="-3.79068">
        <ele>134.4</ele>
        <time>2024-09-07T07:52:10Z</time>
      </trkpt>
      <trkpt lat="47.98841" lon="-3.79063">
        <ele>134.6</ele>
        <time>2024-09-07T07:52:11Z</time>
      </trkpt>
      <trkpt lat="47.98842" lon="-3.79059">
        <ele>134.8</ele>
        <time>2024-09-07T07:52:12Z</time>
      </trkpt>
      <trkpt lat="47.98843" lon="-3.79056">
        <ele>135</ele>
        <time>2024-09-07T07:52:13Z</time>
      </trkpt>
      <trkpt lat="47.98845" lon="-3.79051">
        <ele>135</ele>
        <time>2024-09-07T07:52:14Z</time>
      </trkpt>
      <trkpt lat="47.98846" lon="-3.79046">
        <ele>135</ele>
        <time>2024-09-07T07:52:15Z</time>
      </trkpt>
      <trkpt lat="47.98848" lon="-3.7904">
        <ele>135.2</ele>
        <time>2024-09-07T07:52:16Z</time>
      </trkpt>
      <trkpt lat="47.98851" lon="-3.79033">
        <ele>135.4</ele>
        <time>2024-09-07T07:52:17Z</time>
      </trkpt>
      <trkpt lat="47.98853" lon="-3.79027">
        <ele>135.4</ele>
        <time>2024-09-07T07:52:18Z</time>
      </trkpt>
      <trkpt lat="47.98854" lon="-3.79022">
        <ele>135.4</ele>
        <time>2024-09-07T07:52:19Z</time>
      </trkpt>
      <trkpt lat="47.98856" lon="-3.79016">
        <ele>135.6</ele>
        <time>2024-09-07T07:52:20Z</time>
      </trkpt>
      <trkpt lat="47.98858" lon="-3.7901">
        <ele>135.6</ele>
        <time>2024-09-07T07:52:21Z</time>
      </trkpt>
      <trkpt lat="47.98861" lon="-3.79004">
        <ele>135.8</ele>
        <time>2024-09-07T07:52:22Z</time>
      </trkpt>
      <trkpt lat="47.98863" lon="-3.79">
        <ele>135.8</ele>
        <time>2024-09-07T07:52:23Z</time>
      </trkpt>
      <trkpt lat="47.98864" lon="-3.78994">
        <ele>135.8</ele>
        <time>2024-09-07T07:52:24Z</time>
      </trkpt>
      <trkpt lat="47.98865" lon="-3.78989">
        <ele>135.8</ele>
        <time>2024-09-07T07:52:25Z</time>
      </trkpt>
      <trkpt lat="47.98868" lon="-3.78983">
        <ele>136</ele>
        <time>2024-09-07T07:52:26Z</time>
      </trkpt>
      <trkpt lat="47.98871" lon="-3.78978">
        <ele>136.2</ele>
        <time>2024-09-07T07:52:27Z</time>
      </trkpt>
      <trkpt lat="47.98872" lon="-3.78973">
        <ele>136.4</ele>
        <time>2024-09-07T07:52:28Z</time>
      </trkpt>
      <trkpt lat="47.98872" lon="-3.78967">
        <ele>136.4</ele>
        <time>2024-09-07T07:52:29Z</time>
      </trkpt>
      <trkpt lat="47.98873" lon="-3.78961">
        <ele>136.6</ele>
        <time>2024-09-07T07:52:30Z</time>
      </trkpt>
      <trkpt lat="47.98875" lon="-3.78954">
        <ele>136.8</ele>
        <time>2024-09-07T07:52:31Z</time>
      </trkpt>
      <trkpt lat="47.98876" lon="-3.78948">
        <ele>137</ele>
        <time>2024-09-07T07:52:32Z</time>
      </trkpt>
      <trkpt lat="47.98876" lon="-3.78943">
        <ele>137.2</ele>
        <time>2024-09-07T07:52:33Z</time>
      </trkpt>
      <trkpt lat="47.98877" lon="-3.78938">
        <ele>137.4</ele>
        <time>2024-09-07T07:52:34Z</time>
      </trkpt>
      <trkpt lat="47.98878" lon="-3.78932">
        <ele>137.6</ele>
        <time>2024-09-07T07:52:35Z</time>
      </trkpt>
      <trkpt lat="47.98878" lon="-3.78927">
        <ele>137.6</ele>
        <time>2024-09-07T07:52:36Z</time>
      </trkpt>
      <trkpt lat="47.98879" lon="-3.78923">
        <ele>137.6</ele>
        <time>2024-09-07T07:52:37Z</time>
      </trkpt>
      <trkpt lat="47.98879" lon="-3.78917">
        <ele>137.8</ele>
        <time>2024-09-07T07:52:38Z</time>
      </trkpt>
      <trkpt lat="47.9888" lon="-3.78911">
        <ele>137.8</ele>
        <time>2024-09-07T07:52:39Z</time>
      </trkpt>
      <trkpt lat="47.98881" lon="-3.78905">
        <ele>138</ele>
        <time>2024-09-07T07:52:40Z</time>
      </trkpt>
      <trkpt lat="47.98882" lon="-3.78899">
        <ele>138</ele>
        <time>2024-09-07T07:52:41Z</time>
      </trkpt>
      <trkpt lat="47.98883" lon="-3.78892">
        <ele>138</ele>
        <time>2024-09-07T07:52:42Z</time>
      </trkpt>
      <trkpt lat="47.98884" lon="-3.78886">
        <ele>138</ele>
        <time>2024-09-07T07:52:43Z</time>
      </trkpt>
      <trkpt lat="47.98885" lon="-3.7888">
        <ele>138</ele>
        <time>2024-09-07T07:52:44Z</time>
      </trkpt>
      <trkpt lat="47.98886" lon="-3.78873">
        <ele>138.2</ele>
        <time>2024-09-07T07:52:45Z</time>
      </trkpt>
      <trkpt lat="47.98887" lon="-3.78867">
        <ele>138.2</ele>
        <time>2024-09-07T07:52:46Z</time>
      </trkpt>
      <trkpt lat="47.98888" lon="-3.78861">
        <ele>138.2</ele>
        <time>2024-09-07T07:52:47Z</time>
      </trkpt>
      <trkpt lat="47.98889" lon="-3.78855">
        <ele>138.4</ele>
        <time>2024-09-07T07:52:48Z</time>
      </trkpt>
      <trkpt lat="47.98889" lon="-3.78849">
        <ele>138.6</ele>
        <time>2024-09-07T07:52:49Z</time>
      </trkpt>
      <trkpt lat="47.9889" lon="-3.78842">
        <ele>138.6</ele>
        <time>2024-09-07T07:52:50Z</time>
      </trkpt>
      <trkpt lat="47.9889" lon="-3.78835">
        <ele>138.6</ele>
        <time>2024-09-07T07:52:51Z</time>
      </trkpt>
      <trkpt lat="47.98891" lon="-3.78829">
        <ele>138.6</ele>
        <time>2024-09-07T07:52:52Z</time>
      </trkpt>
      <trkpt lat="47.98891" lon="-3.78823">
        <ele>138.8</ele>
        <time>2024-09-07T07:52:53Z</time>
      </trkpt>
      <trkpt lat="47.98891" lon="-3.78817">
        <ele>138.8</ele>
        <time>2024-09-07T07:52:54Z</time>
      </trkpt>
      <trkpt lat="47.98892" lon="-3.78811">
        <ele>139</ele>
        <time>2024-09-07T07:52:55Z</time>
      </trkpt>
      <trkpt lat="47.98893" lon="-3.78804">
        <ele>139</ele>
        <time>2024-09-07T07:52:56Z</time>
      </trkpt>
      <trkpt lat="47.98893" lon="-3.78798">
        <ele>139.2</ele>
        <time>2024-09-07T07:52:57Z</time>
      </trkpt>
      <trkpt lat="47.98894" lon="-3.78792">
        <ele>139.2</ele>
        <time>2024-09-07T07:52:58Z</time>
      </trkpt>
      <trkpt lat="47.98895" lon="-3.78786">
        <ele>139.2</ele>
        <time>2024-09-07T07:52:59Z</time>
      </trkpt>
      <trkpt lat="47.98895" lon="-3.7878">
        <ele>139.2</ele>
        <time>2024-09-07T07:53:00Z</time>
      </trkpt>
      <trkpt lat="47.98895" lon="-3.78773">
        <ele>139.4</ele>
        <time>2024-09-07T07:53:01Z</time>
      </trkpt>
      <trkpt lat="47.98896" lon="-3.78767">
        <ele>139.4</ele>
        <time>2024-09-07T07:53:02Z</time>
      </trkpt>
      <trkpt lat="47.98896" lon="-3.78761">
        <ele>139.6</ele>
        <time>2024-09-07T07:53:03Z</time>
      </trkpt>
      <trkpt lat="47.98897" lon="-3.78755">
        <ele>139.8</ele>
        <time>2024-09-07T07:53:04Z</time>
      </trkpt>
      <trkpt lat="47.98898" lon="-3.7875">
        <ele>139.8</ele>
        <time>2024-09-07T07:53:05Z</time>
      </trkpt>
      <trkpt lat="47.98899" lon="-3.78745">
        <ele>139.8</ele>
        <time>2024-09-07T07:53:06Z</time>
      </trkpt>
      <trkpt lat="47.989" lon="-3.7874">
        <ele>140</ele>
        <time>2024-09-07T07:53:07Z</time>
      </trkpt>
      <trkpt lat="47.989" lon="-3.78735">
        <ele>140.2</ele>
        <time>2024-09-07T07:53:08Z</time>
      </trkpt>
      <trkpt lat="47.98901" lon="-3.7873">
        <ele>140.2</ele>
        <time>2024-09-07T07:53:09Z</time>
      </trkpt>
      <trkpt lat="47.98903" lon="-3.78724">
        <ele>140.4</ele>
        <time>2024-09-07T07:53:10Z</time>
      </trkpt>
      <trkpt lat="47.98903" lon="-3.78718">
        <ele>140.6</ele>
        <time>2024-09-07T07:53:11Z</time>
      </trkpt>
      <trkpt lat="47.98904" lon="-3.78712">
        <ele>140.6</ele>
        <time>2024-09-07T07:53:12Z</time>
      </trkpt>
      <trkpt lat="47.98905" lon="-3.78707">
        <ele>140.6</ele>
        <time>2024-09-07T07:53:13Z</time>
      </trkpt>
      <trkpt lat="47.98906" lon="-3.78701">
        <ele>140.8</ele>
        <time>2024-09-07T07:53:14Z</time>
      </trkpt>
      <trkpt lat="47.98906" lon="-3.78694">
        <ele>140.8</ele>
        <time>2024-09-07T07:53:15Z</time>
      </trkpt>
      <trkpt lat="47.98907" lon="-3.78687">
        <ele>141</ele>
        <time>2024-09-07T07:53:16Z</time>
      </trkpt>
      <trkpt lat="47.98907" lon="-3.78679">
        <ele>141</ele>
        <time>2024-09-07T07:53:17Z</time>
      </trkpt>
      <trkpt lat="47.98909" lon="-3.78672">
        <ele>141.2</ele>
        <time>2024-09-07T07:53:18Z</time>
      </trkpt>
      <trkpt lat="47.98908" lon="-3.78663">
        <ele>141.2</ele>
        <time>2024-09-07T07:53:19Z</time>
      </trkpt>
      <trkpt lat="47.98907" lon="-3.78656">
        <ele>141.2</ele>
        <time>2024-09-07T07:53:20Z</time>
      </trkpt>
      <trkpt lat="47.98908" lon="-3.78649">
        <ele>141.4</ele>
        <time>2024-09-07T07:53:21Z</time>
      </trkpt>
      <trkpt lat="47.98909" lon="-3.78642">
        <ele>141.4</ele>
        <time>2024-09-07T07:53:22Z</time>
      </trkpt>
      <trkpt lat="47.9891" lon="-3.78635">
        <ele>141.6</ele>
        <time>2024-09-07T07:53:23Z</time>
      </trkpt>
      <trkpt lat="47.98911" lon="-3.78629">
        <ele>141.6</ele>
        <time>2024-09-07T07:53:24Z</time>
      </trkpt>
      <trkpt lat="47.9891" lon="-3.78622">
        <ele>141.6</ele>
        <time>2024-09-07T07:53:25Z</time>
      </trkpt>
      <trkpt lat="47.9891" lon="-3.78615">
        <ele>141.6</ele>
        <time>2024-09-07T07:53:26Z</time>
      </trkpt>
      <trkpt lat="47.98911" lon="-3.78608">
        <ele>141.6</ele>
        <time>2024-09-07T07:53:27Z</time>
      </trkpt>
      <trkpt lat="47.98912" lon="-3.78601">
        <ele>141.6</ele>
        <time>2024-09-07T07:53:28Z</time>
      </trkpt>
      <trkpt lat="47.98913" lon="-3.78596">
        <ele>141.6</ele>
        <time>2024-09-07T07:53:29Z</time>
      </trkpt>
      <trkpt lat="47.98912" lon="-3.7859">
        <ele>141.6</ele>
        <time>2024-09-07T07:53:30Z</time>
      </trkpt>
      <trkpt lat="47.98912" lon="-3.78583">
        <ele>141.6</ele>
        <time>2024-09-07T07:53:31Z</time>
      </trkpt>
      <trkpt lat="47.98912" lon="-3.78577">
        <ele>141.6</ele>
        <time>2024-09-07T07:53:32Z</time>
      </trkpt>
      <trkpt lat="47.98912" lon="-3.78571">
        <ele>141.6</ele>
        <time>2024-09-07T07:53:33Z</time>
      </trkpt>
      <trkpt lat="47.98912" lon="-3.78564">
        <ele>141.6</ele>
        <time>2024-09-07T07:53:34Z</time>
      </trkpt>
      <trkpt lat="47.98912" lon="-3.78557">
        <ele>141.6</ele>
        <time>2024-09-07T07:53:35Z</time>
      </trkpt>
      <trkpt lat="47.98911" lon="-3.7855">
        <ele>141.6</ele>
        <time>2024-09-07T07:53:36Z</time>
      </trkpt>
      <trkpt lat="47.98911" lon="-3.78544">
        <ele>141.6</ele>
        <time>2024-09-07T07:53:37Z</time>
      </trkpt>
      <trkpt lat="47.98911" lon="-3.78538">
        <ele>141.6</ele>
        <time>2024-09-07T07:53:38Z</time>
      </trkpt>
      <trkpt lat="47.98911" lon="-3.78534">
        <ele>141.6</ele>
        <time>2024-09-07T07:53:39Z</time>
      </trkpt>
      <trkpt lat="47.98912" lon="-3.78531">
        <ele>141.4</ele>
        <time>2024-09-07T07:53:40Z</time>
      </trkpt>
      <trkpt lat="47.98913" lon="-3.78526">
        <ele>141.2</ele>
        <time>2024-09-07T07:53:41Z</time>
      </trkpt>
      <trkpt lat="47.98914" lon="-3.78521">
        <ele>141</ele>
        <time>2024-09-07T07:53:42Z</time>
      </trkpt>
      <trkpt lat="47.98914" lon="-3.78516">
        <ele>140.6</ele>
        <time>2024-09-07T07:53:43Z</time>
      </trkpt>
      <trkpt lat="47.98915" lon="-3.78511">
        <ele>140.4</ele>
        <time>2024-09-07T07:53:44Z</time>
      </trkpt>
      <trkpt lat="47.98917" lon="-3.78505">
        <ele>140.4</ele>
        <time>2024-09-07T07:53:45Z</time>
      </trkpt>
      <trkpt lat="47.98918" lon="-3.78498">
        <ele>140</ele>
        <time>2024-09-07T07:53:46Z</time>
      </trkpt>
      <trkpt lat="47.98919" lon="-3.78491">
        <ele>139.6</ele>
        <time>2024-09-07T07:53:47Z</time>
      </trkpt>
      <trkpt lat="47.9892" lon="-3.78484">
        <ele>139.2</ele>
        <time>2024-09-07T07:53:48Z</time>
      </trkpt>
      <trkpt lat="47.98921" lon="-3.78476">
        <ele>139</ele>
        <time>2024-09-07T07:53:49Z</time>
      </trkpt>
      <trkpt lat="47.98921" lon="-3.78469">
        <ele>138.8</ele>
        <time>2024-09-07T07:53:50Z</time>
      </trkpt>
      <trkpt lat="47.98922" lon="-3.78461">
        <ele>138.6</ele>
        <time>2024-09-07T07:53:51Z</time>
      </trkpt>
      <trkpt lat="47.98922" lon="-3.78454">
        <ele>138.4</ele>
        <time>2024-09-07T07:53:52Z</time>
      </trkpt>
      <trkpt lat="47.98923" lon="-3.78448">
        <ele>138.4</ele>
        <time>2024-09-07T07:53:53Z</time>
      </trkpt>
      <trkpt lat="47.98923" lon="-3.78442">
        <ele>138.4</ele>
        <time>2024-09-07T07:53:54Z</time>
      </trkpt>
      <trkpt lat="47.98924" lon="-3.78437">
        <ele>138.4</ele>
        <time>2024-09-07T07:53:55Z</time>
      </trkpt>
      <trkpt lat="47.98924" lon="-3.78433">
        <ele>138.4</ele>
        <time>2024-09-07T07:53:56Z</time>
      </trkpt>
      <trkpt lat="47.98924" lon="-3.78429">
        <ele>138.4</ele>
        <time>2024-09-07T07:53:57Z</time>
      </trkpt>
      <trkpt lat="47.98924" lon="-3.78425">
        <ele>138.4</ele>
        <time>2024-09-07T07:53:58Z</time>
      </trkpt>
      <trkpt lat="47.98924" lon="-3.7842">
        <ele>138.4</ele>
        <time>2024-09-07T07:53:59Z</time>
      </trkpt>
      <trkpt lat="47.98925" lon="-3.78416">
        <ele>138.4</ele>
        <time>2024-09-07T07:54:00Z</time>
      </trkpt>
      <trkpt lat="47.98925" lon="-3.78411">
        <ele>138.4</ele>
        <time>2024-09-07T07:54:01Z</time>
      </trkpt>
      <trkpt lat="47.98926" lon="-3.78405">
        <ele>138.4</ele>
        <time>2024-09-07T07:54:02Z</time>
      </trkpt>
      <trkpt lat="47.98926" lon="-3.784">
        <ele>138.4</ele>
        <time>2024-09-07T07:54:03Z</time>
      </trkpt>
      <trkpt lat="47.98927" lon="-3.78394">
        <ele>138.6</ele>
        <time>2024-09-07T07:54:04Z</time>
      </trkpt>
      <trkpt lat="47.98927" lon="-3.78388">
        <ele>138.6</ele>
        <time>2024-09-07T07:54:05Z</time>
      </trkpt>
      <trkpt lat="47.98928" lon="-3.78382">
        <ele>138.6</ele>
        <time>2024-09-07T07:54:06Z</time>
      </trkpt>
      <trkpt lat="47.98929" lon="-3.78377">
        <ele>138.8</ele>
        <time>2024-09-07T07:54:07Z</time>
      </trkpt>
      <trkpt lat="47.98929" lon="-3.7837">
        <ele>139</ele>
        <time>2024-09-07T07:54:08Z</time>
      </trkpt>
      <trkpt lat="47.9893" lon="-3.78363">
        <ele>139</ele>
        <time>2024-09-07T07:54:09Z</time>
      </trkpt>
      <trkpt lat="47.98931" lon="-3.78356">
        <ele>139</ele>
        <time>2024-09-07T07:54:10Z</time>
      </trkpt>
      <trkpt lat="47.98932" lon="-3.7835">
        <ele>139</ele>
        <time>2024-09-07T07:54:11Z</time>
      </trkpt>
      <trkpt lat="47.98933" lon="-3.78342">
        <ele>139.2</ele>
        <time>2024-09-07T07:54:12Z</time>
      </trkpt>
      <trkpt lat="47.98934" lon="-3.78335">
        <ele>139.2</ele>
        <time>2024-09-07T07:54:13Z</time>
      </trkpt>
      <trkpt lat="47.98935" lon="-3.78328">
        <ele>139.4</ele>
        <time>2024-09-07T07:54:14Z</time>
      </trkpt>
      <trkpt lat="47.98937" lon="-3.78321">
        <ele>139.4</ele>
        <time>2024-09-07T07:54:15Z</time>
      </trkpt>
      <trkpt lat="47.98938" lon="-3.78313">
        <ele>139.4</ele>
        <time>2024-09-07T07:54:16Z</time>
      </trkpt>
      <trkpt lat="47.98939" lon="-3.78306">
        <ele>139.4</ele>
        <time>2024-09-07T07:54:17Z</time>
      </trkpt>
      <trkpt lat="47.98938" lon="-3.783">
        <ele>139.4</ele>
        <time>2024-09-07T07:54:18Z</time>
      </trkpt>
      <trkpt lat="47.98939" lon="-3.78293">
        <ele>139.4</ele>
        <time>2024-09-07T07:54:19Z</time>
      </trkpt>
      <trkpt lat="47.9894" lon="-3.78287">
        <ele>139.4</ele>
        <time>2024-09-07T07:54:20Z</time>
      </trkpt>
      <trkpt lat="47.9894" lon="-3.7828">
        <ele>139.4</ele>
        <time>2024-09-07T07:54:21Z</time>
      </trkpt>
      <trkpt lat="47.9894" lon="-3.78273">
        <ele>139.4</ele>
        <time>2024-09-07T07:54:22Z</time>
      </trkpt>
      <trkpt lat="47.98941" lon="-3.78266">
        <ele>139.4</ele>
        <time>2024-09-07T07:54:23Z</time>
      </trkpt>
      <trkpt lat="47.98942" lon="-3.7826">
        <ele>139.6</ele>
        <time>2024-09-07T07:54:24Z</time>
      </trkpt>
      <trkpt lat="47.98942" lon="-3.78253">
        <ele>139.6</ele>
        <time>2024-09-07T07:54:25Z</time>
      </trkpt>
      <trkpt lat="47.98943" lon="-3.78245">
        <ele>139.6</ele>
        <time>2024-09-07T07:54:26Z</time>
      </trkpt>
      <trkpt lat="47.98944" lon="-3.78238">
        <ele>139.8</ele>
        <time>2024-09-07T07:54:27Z</time>
      </trkpt>
      <trkpt lat="47.98945" lon="-3.78232">
        <ele>139.8</ele>
        <time>2024-09-07T07:54:28Z</time>
      </trkpt>
      <trkpt lat="47.98946" lon="-3.78225">
        <ele>140</ele>
        <time>2024-09-07T07:54:29Z</time>
      </trkpt>
      <trkpt lat="47.98946" lon="-3.78218">
        <ele>140</ele>
        <time>2024-09-07T07:54:30Z</time>
      </trkpt>
      <trkpt lat="47.98947" lon="-3.78213">
        <ele>140.2</ele>
        <time>2024-09-07T07:54:31Z</time>
      </trkpt>
      <trkpt lat="47.98946" lon="-3.78206">
        <ele>140.2</ele>
        <time>2024-09-07T07:54:32Z</time>
      </trkpt>
      <trkpt lat="47.98946" lon="-3.782">
        <ele>140.4</ele>
        <time>2024-09-07T07:54:33Z</time>
      </trkpt>
      <trkpt lat="47.98947" lon="-3.78193">
        <ele>140.4</ele>
        <time>2024-09-07T07:54:34Z</time>
      </trkpt>
      <trkpt lat="47.98947" lon="-3.78187">
        <ele>140.4</ele>
        <time>2024-09-07T07:54:35Z</time>
      </trkpt>
      <trkpt lat="47.98948" lon="-3.78181">
        <ele>140.4</ele>
        <time>2024-09-07T07:54:36Z</time>
      </trkpt>
      <trkpt lat="47.98948" lon="-3.78175">
        <ele>140.6</ele>
        <time>2024-09-07T07:54:37Z</time>
      </trkpt>
      <trkpt lat="47.98948" lon="-3.78169">
        <ele>140.6</ele>
        <time>2024-09-07T07:54:38Z</time>
      </trkpt>
      <trkpt lat="47.98948" lon="-3.78164">
        <ele>140.6</ele>
        <time>2024-09-07T07:54:39Z</time>
      </trkpt>
      <trkpt lat="47.98948" lon="-3.78158">
        <ele>140.8</ele>
        <time>2024-09-07T07:54:40Z</time>
      </trkpt>
      <trkpt lat="47.98947" lon="-3.78152">
        <ele>140.8</ele>
        <time>2024-09-07T07:54:41Z</time>
      </trkpt>
      <trkpt lat="47.98948" lon="-3.78147">
        <ele>140.8</ele>
        <time>2024-09-07T07:54:42Z</time>
      </trkpt>
      <trkpt lat="47.9895" lon="-3.78141">
        <ele>141</ele>
        <time>2024-09-07T07:54:43Z</time>
      </trkpt>
      <trkpt lat="47.98951" lon="-3.78135">
        <ele>141</ele>
        <time>2024-09-07T07:54:44Z</time>
      </trkpt>
      <trkpt lat="47.98953" lon="-3.7813">
        <ele>141.2</ele>
        <time>2024-09-07T07:54:45Z</time>
      </trkpt>
      <trkpt lat="47.98954" lon="-3.78124">
        <ele>141.2</ele>
        <time>2024-09-07T07:54:46Z</time>
      </trkpt>
      <trkpt lat="47.98954" lon="-3.78118">
        <ele>141.2</ele>
        <time>2024-09-07T07:54:47Z</time>
      </trkpt>
      <trkpt lat="47.98954" lon="-3.78112">
        <ele>141.4</ele>
        <time>2024-09-07T07:54:48Z</time>
      </trkpt>
      <trkpt lat="47.98956" lon="-3.78106">
        <ele>141.6</ele>
        <time>2024-09-07T07:54:49Z</time>
      </trkpt>
      <trkpt lat="47.98957" lon="-3.781">
        <ele>142</ele>
        <time>2024-09-07T07:54:50Z</time>
      </trkpt>
      <trkpt lat="47.98959" lon="-3.78094">
        <ele>142.2</ele>
        <time>2024-09-07T07:54:51Z</time>
      </trkpt>
      <trkpt lat="47.98959" lon="-3.78087">
        <ele>142.2</ele>
        <time>2024-09-07T07:54:52Z</time>
      </trkpt>
      <trkpt lat="47.9896" lon="-3.78081">
        <ele>142.4</ele>
        <time>2024-09-07T07:54:53Z</time>
      </trkpt>
      <trkpt lat="47.98961" lon="-3.78075">
        <ele>142.4</ele>
        <time>2024-09-07T07:54:54Z</time>
      </trkpt>
      <trkpt lat="47.98961" lon="-3.78069">
        <ele>142.4</ele>
        <time>2024-09-07T07:54:55Z</time>
      </trkpt>
      <trkpt lat="47.98962" lon="-3.78062">
        <ele>142.4</ele>
        <time>2024-09-07T07:54:56Z</time>
      </trkpt>
      <trkpt lat="47.98963" lon="-3.78055">
        <ele>142.4</ele>
        <time>2024-09-07T07:54:57Z</time>
      </trkpt>
      <trkpt lat="47.98963" lon="-3.78049">
        <ele>142.6</ele>
        <time>2024-09-07T07:54:58Z</time>
      </trkpt>
      <trkpt lat="47.98964" lon="-3.78043">
        <ele>142.6</ele>
        <time>2024-09-07T07:54:59Z</time>
      </trkpt>
      <trkpt lat="47.98965" lon="-3.78035">
        <ele>143</ele>
        <time>2024-09-07T07:55:00Z</time>
      </trkpt>
      <trkpt lat="47.98966" lon="-3.78029">
        <ele>143</ele>
        <time>2024-09-07T07:55:01Z</time>
      </trkpt>
      <trkpt lat="47.98966" lon="-3.78022">
        <ele>143</ele>
        <time>2024-09-07T07:55:02Z</time>
      </trkpt>
      <trkpt lat="47.98966" lon="-3.78015">
        <ele>143.2</ele>
        <time>2024-09-07T07:55:03Z</time>
      </trkpt>
      <trkpt lat="47.98966" lon="-3.78009">
        <ele>143.2</ele>
        <time>2024-09-07T07:55:04Z</time>
      </trkpt>
      <trkpt lat="47.98966" lon="-3.78002">
        <ele>143.2</ele>
        <time>2024-09-07T07:55:05Z</time>
      </trkpt>
      <trkpt lat="47.98966" lon="-3.77995">
        <ele>143.4</ele>
        <time>2024-09-07T07:55:06Z</time>
      </trkpt>
      <trkpt lat="47.98967" lon="-3.77988">
        <ele>143.4</ele>
        <time>2024-09-07T07:55:07Z</time>
      </trkpt>
      <trkpt lat="47.98969" lon="-3.77982">
        <ele>143.4</ele>
        <time>2024-09-07T07:55:08Z</time>
      </trkpt>
      <trkpt lat="47.9897" lon="-3.77975">
        <ele>143.6</ele>
        <time>2024-09-07T07:55:09Z</time>
      </trkpt>
      <trkpt lat="47.98971" lon="-3.7797">
        <ele>143.6</ele>
        <time>2024-09-07T07:55:10Z</time>
      </trkpt>
      <trkpt lat="47.98973" lon="-3.77965">
        <ele>143.8</ele>
        <time>2024-09-07T07:55:11Z</time>
      </trkpt>
      <trkpt lat="47.98975" lon="-3.7796">
        <ele>143.8</ele>
        <time>2024-09-07T07:55:12Z</time>
      </trkpt>
      <trkpt lat="47.98976" lon="-3.77953">
        <ele>143.8</ele>
        <time>2024-09-07T07:55:13Z</time>
      </trkpt>
      <trkpt lat="47.98977" lon="-3.77948">
        <ele>143.8</ele>
        <time>2024-09-07T07:55:14Z</time>
      </trkpt>
      <trkpt lat="47.98977" lon="-3.77943">
        <ele>144</ele>
        <time>2024-09-07T07:55:15Z</time>
      </trkpt>
      <trkpt lat="47.98978" lon="-3.77938">
        <ele>144</ele>
        <time>2024-09-07T07:55:16Z</time>
      </trkpt>
      <trkpt lat="47.98979" lon="-3.77933">
        <ele>144</ele>
        <time>2024-09-07T07:55:17Z</time>
      </trkpt>
      <trkpt lat="47.9898" lon="-3.77928">
        <ele>144</ele>
        <time>2024-09-07T07:55:18Z</time>
      </trkpt>
      <trkpt lat="47.98982" lon="-3.77923">
        <ele>144</ele>
        <time>2024-09-07T07:55:19Z</time>
      </trkpt>
      <trkpt lat="47.98983" lon="-3.77919">
        <ele>144</ele>
        <time>2024-09-07T07:55:20Z</time>
      </trkpt>
      <trkpt lat="47.98985" lon="-3.77915">
        <ele>144.2</ele>
        <time>2024-09-07T07:55:21Z</time>
      </trkpt>
      <trkpt lat="47.98986" lon="-3.7791">
        <ele>144.4</ele>
        <time>2024-09-07T07:55:22Z</time>
      </trkpt>
      <trkpt lat="47.98988" lon="-3.77904">
        <ele>144.6</ele>
        <time>2024-09-07T07:55:23Z</time>
      </trkpt>
      <trkpt lat="47.9899" lon="-3.77898">
        <ele>144.6</ele>
        <time>2024-09-07T07:55:24Z</time>
      </trkpt>
      <trkpt lat="47.98992" lon="-3.77892">
        <ele>144.6</ele>
        <time>2024-09-07T07:55:25Z</time>
      </trkpt>
      <trkpt lat="47.98994" lon="-3.77886">
        <ele>144.6</ele>
        <time>2024-09-07T07:55:26Z</time>
      </trkpt>
      <trkpt lat="47.98997" lon="-3.7788">
        <ele>144.8</ele>
        <time>2024-09-07T07:55:27Z</time>
      </trkpt>
      <trkpt lat="47.98999" lon="-3.77875">
        <ele>144.8</ele>
        <time>2024-09-07T07:55:28Z</time>
      </trkpt>
      <trkpt lat="47.99001" lon="-3.7787">
        <ele>144.8</ele>
        <time>2024-09-07T07:55:29Z</time>
      </trkpt>
      <trkpt lat="47.99003" lon="-3.77865">
        <ele>144.8</ele>
        <time>2024-09-07T07:55:30Z</time>
      </trkpt>
      <trkpt lat="47.99006" lon="-3.7786">
        <ele>144.8</ele>
        <time>2024-09-07T07:55:31Z</time>
      </trkpt>
      <trkpt lat="47.99009" lon="-3.77855">
        <ele>145</ele>
        <time>2024-09-07T07:55:32Z</time>
      </trkpt>
      <trkpt lat="47.99011" lon="-3.7785">
        <ele>145</ele>
        <time>2024-09-07T07:55:33Z</time>
      </trkpt>
      <trkpt lat="47.99014" lon="-3.77845">
        <ele>145</ele>
        <time>2024-09-07T07:55:34Z</time>
      </trkpt>
      <trkpt lat="47.99016" lon="-3.77839">
        <ele>145</ele>
        <time>2024-09-07T07:55:35Z</time>
      </trkpt>
      <trkpt lat="47.99019" lon="-3.77832">
        <ele>145</ele>
        <time>2024-09-07T07:55:36Z</time>
      </trkpt>
      <trkpt lat="47.99022" lon="-3.77825">
        <ele>145</ele>
        <time>2024-09-07T07:55:37Z</time>
      </trkpt>
      <trkpt lat="47.99026" lon="-3.77817">
        <ele>145</ele>
        <time>2024-09-07T07:55:38Z</time>
      </trkpt>
      <trkpt lat="47.99028" lon="-3.77811">
        <ele>145</ele>
        <time>2024-09-07T07:55:39Z</time>
      </trkpt>
      <trkpt lat="47.9903" lon="-3.77806">
        <ele>145</ele>
        <time>2024-09-07T07:55:40Z</time>
      </trkpt>
      <trkpt lat="47.99032" lon="-3.77801">
        <ele>145</ele>
        <time>2024-09-07T07:55:41Z</time>
      </trkpt>
      <trkpt lat="47.99034" lon="-3.77796">
        <ele>145</ele>
        <time>2024-09-07T07:55:42Z</time>
      </trkpt>
      <trkpt lat="47.99036" lon="-3.7779">
        <ele>145</ele>
        <time>2024-09-07T07:55:43Z</time>
      </trkpt>
      <trkpt lat="47.99039" lon="-3.77782">
        <ele>145</ele>
        <time>2024-09-07T07:55:44Z</time>
      </trkpt>
      <trkpt lat="47.99042" lon="-3.77774">
        <ele>145</ele>
        <time>2024-09-07T07:55:45Z</time>
      </trkpt>
      <trkpt lat="47.99046" lon="-3.77767">
        <ele>145</ele>
        <time>2024-09-07T07:55:46Z</time>
      </trkpt>
      <trkpt lat="47.9905" lon="-3.7776">
        <ele>145</ele>
        <time>2024-09-07T07:55:47Z</time>
      </trkpt>
      <trkpt lat="47.99053" lon="-3.77754">
        <ele>145</ele>
        <time>2024-09-07T07:55:48Z</time>
      </trkpt>
      <trkpt lat="47.99056" lon="-3.77747">
        <ele>145</ele>
        <time>2024-09-07T07:55:49Z</time>
      </trkpt>
      <trkpt lat="47.99059" lon="-3.77739">
        <ele>145</ele>
        <time>2024-09-07T07:55:50Z</time>
      </trkpt>
      <trkpt lat="47.99062" lon="-3.77731">
        <ele>145</ele>
        <time>2024-09-07T07:55:51Z</time>
      </trkpt>
      <trkpt lat="47.99065" lon="-3.77724">
        <ele>145.2</ele>
        <time>2024-09-07T07:55:52Z</time>
      </trkpt>
      <trkpt lat="47.99067" lon="-3.77718">
        <ele>145.2</ele>
        <time>2024-09-07T07:55:53Z</time>
      </trkpt>
      <trkpt lat="47.99068" lon="-3.77712">
        <ele>145.2</ele>
        <time>2024-09-07T07:55:54Z</time>
      </trkpt>
      <trkpt lat="47.9907" lon="-3.77707">
        <ele>145.2</ele>
        <time>2024-09-07T07:55:55Z</time>
      </trkpt>
      <trkpt lat="47.99071" lon="-3.77702">
        <ele>145.2</ele>
        <time>2024-09-07T07:55:56Z</time>
      </trkpt>
      <trkpt lat="47.99073" lon="-3.77697">
        <ele>145.2</ele>
        <time>2024-09-07T07:55:57Z</time>
      </trkpt>
      <trkpt lat="47.99077" lon="-3.77691">
        <ele>145.2</ele>
        <time>2024-09-07T07:55:58Z</time>
      </trkpt>
      <trkpt lat="47.9908" lon="-3.77685">
        <ele>145.2</ele>
        <time>2024-09-07T07:55:59Z</time>
      </trkpt>
      <trkpt lat="47.99083" lon="-3.77679">
        <ele>145.2</ele>
        <time>2024-09-07T07:56:00Z</time>
      </trkpt>
      <trkpt lat="47.99085" lon="-3.77673">
        <ele>145.4</ele>
        <time>2024-09-07T07:56:01Z</time>
      </trkpt>
      <trkpt lat="47.99087" lon="-3.77668">
        <ele>145.4</ele>
        <time>2024-09-07T07:56:02Z</time>
      </trkpt>
      <trkpt lat="47.99089" lon="-3.77662">
        <ele>145.4</ele>
        <time>2024-09-07T07:56:03Z</time>
      </trkpt>
      <trkpt lat="47.99091" lon="-3.77656">
        <ele>145.4</ele>
        <time>2024-09-07T07:56:04Z</time>
      </trkpt>
      <trkpt lat="47.99093" lon="-3.77649">
        <ele>145.4</ele>
        <time>2024-09-07T07:56:05Z</time>
      </trkpt>
      <trkpt lat="47.99095" lon="-3.77643">
        <ele>145.4</ele>
        <time>2024-09-07T07:56:06Z</time>
      </trkpt>
      <trkpt lat="47.99097" lon="-3.77636">
        <ele>145.6</ele>
        <time>2024-09-07T07:56:07Z</time>
      </trkpt>
      <trkpt lat="47.99099" lon="-3.7763">
        <ele>145.6</ele>
        <time>2024-09-07T07:56:08Z</time>
      </trkpt>
      <trkpt lat="47.99101" lon="-3.77623">
        <ele>145.8</ele>
        <time>2024-09-07T07:56:09Z</time>
      </trkpt>
      <trkpt lat="47.99103" lon="-3.77617">
        <ele>145.8</ele>
        <time>2024-09-07T07:56:10Z</time>
      </trkpt>
      <trkpt lat="47.99105" lon="-3.77609">
        <ele>145.8</ele>
        <time>2024-09-07T07:56:11Z</time>
      </trkpt>
      <trkpt lat="47.99107" lon="-3.77603">
        <ele>145.8</ele>
        <time>2024-09-07T07:56:12Z</time>
      </trkpt>
      <trkpt lat="47.99108" lon="-3.77596">
        <ele>145.8</ele>
        <time>2024-09-07T07:56:13Z</time>
      </trkpt>
      <trkpt lat="47.9911" lon="-3.7759">
        <ele>145.8</ele>
        <time>2024-09-07T07:56:14Z</time>
      </trkpt>
      <trkpt lat="47.9911" lon="-3.77583">
        <ele>145.8</ele>
        <time>2024-09-07T07:56:15Z</time>
      </trkpt>
      <trkpt lat="47.99111" lon="-3.77575">
        <ele>145.8</ele>
        <time>2024-09-07T07:56:16Z</time>
      </trkpt>
      <trkpt lat="47.99112" lon="-3.77568">
        <ele>145.8</ele>
        <time>2024-09-07T07:56:17Z</time>
      </trkpt>
      <trkpt lat="47.99113" lon="-3.77561">
        <ele>145.8</ele>
        <time>2024-09-07T07:56:18Z</time>
      </trkpt>
      <trkpt lat="47.99114" lon="-3.77553">
        <ele>145.8</ele>
        <time>2024-09-07T07:56:19Z</time>
      </trkpt>
      <trkpt lat="47.99115" lon="-3.77547">
        <ele>145.8</ele>
        <time>2024-09-07T07:56:20Z</time>
      </trkpt>
      <trkpt lat="47.99116" lon="-3.7754">
        <ele>145.8</ele>
        <time>2024-09-07T07:56:21Z</time>
      </trkpt>
      <trkpt lat="47.99118" lon="-3.77532">
        <ele>145.8</ele>
        <time>2024-09-07T07:56:22Z</time>
      </trkpt>
      <trkpt lat="47.99119" lon="-3.77524">
        <ele>145.8</ele>
        <time>2024-09-07T07:56:23Z</time>
      </trkpt>
      <trkpt lat="47.9912" lon="-3.77517">
        <ele>145.8</ele>
        <time>2024-09-07T07:56:24Z</time>
      </trkpt>
      <trkpt lat="47.99121" lon="-3.77509">
        <ele>145.8</ele>
        <time>2024-09-07T07:56:25Z</time>
      </trkpt>
      <trkpt lat="47.99121" lon="-3.77502">
        <ele>145.8</ele>
        <time>2024-09-07T07:56:26Z</time>
      </trkpt>
      <trkpt lat="47.99121" lon="-3.77494">
        <ele>145.8</ele>
        <time>2024-09-07T07:56:27Z</time>
      </trkpt>
      <trkpt lat="47.99122" lon="-3.77488">
        <ele>145.8</ele>
        <time>2024-09-07T07:56:28Z</time>
      </trkpt>
      <trkpt lat="47.99122" lon="-3.7748">
        <ele>145.8</ele>
        <time>2024-09-07T07:56:29Z</time>
      </trkpt>
      <trkpt lat="47.99122" lon="-3.77473">
        <ele>145.8</ele>
        <time>2024-09-07T07:56:30Z</time>
      </trkpt>
      <trkpt lat="47.99122" lon="-3.77466">
        <ele>145.8</ele>
        <time>2024-09-07T07:56:31Z</time>
      </trkpt>
      <trkpt lat="47.99122" lon="-3.77458">
        <ele>145.8</ele>
        <time>2024-09-07T07:56:32Z</time>
      </trkpt>
      <trkpt lat="47.99122" lon="-3.77451">
        <ele>145.8</ele>
        <time>2024-09-07T07:56:33Z</time>
      </trkpt>
      <trkpt lat="47.99122" lon="-3.77444">
        <ele>145.8</ele>
        <time>2024-09-07T07:56:34Z</time>
      </trkpt>
      <trkpt lat="47.99121" lon="-3.77437">
        <ele>145.8</ele>
        <time>2024-09-07T07:56:35Z</time>
      </trkpt>
      <trkpt lat="47.9912" lon="-3.77429">
        <ele>145.8</ele>
        <time>2024-09-07T07:56:36Z</time>
      </trkpt>
      <trkpt lat="47.99121" lon="-3.77422">
        <ele>145.8</ele>
        <time>2024-09-07T07:56:37Z</time>
      </trkpt>
      <trkpt lat="47.99121" lon="-3.77415">
        <ele>146</ele>
        <time>2024-09-07T07:56:38Z</time>
      </trkpt>
      <trkpt lat="47.9912" lon="-3.77409">
        <ele>146</ele>
        <time>2024-09-07T07:56:39Z</time>
      </trkpt>
      <trkpt lat="47.99119" lon="-3.77403">
        <ele>146</ele>
        <time>2024-09-07T07:56:40Z</time>
      </trkpt>
      <trkpt lat="47.99119" lon="-3.77396">
        <ele>146</ele>
        <time>2024-09-07T07:56:41Z</time>
      </trkpt>
      <trkpt lat="47.99118" lon="-3.77389">
        <ele>146</ele>
        <time>2024-09-07T07:56:42Z</time>
      </trkpt>
      <trkpt lat="47.99117" lon="-3.77382">
        <ele>146</ele>
        <time>2024-09-07T07:56:43Z</time>
      </trkpt>
      <trkpt lat="47.99117" lon="-3.77374">
        <ele>146</ele>
        <time>2024-09-07T07:56:44Z</time>
      </trkpt>
      <trkpt lat="47.99117" lon="-3.77367">
        <ele>146</ele>
        <time>2024-09-07T07:56:45Z</time>
      </trkpt>
      <trkpt lat="47.99117" lon="-3.7736">
        <ele>146</ele>
        <time>2024-09-07T07:56:46Z</time>
      </trkpt>
      <trkpt lat="47.99116" lon="-3.77353">
        <ele>146</ele>
        <time>2024-09-07T07:56:47Z</time>
      </trkpt>
      <trkpt lat="47.99116" lon="-3.77346">
        <ele>146</ele>
        <time>2024-09-07T07:56:48Z</time>
      </trkpt>
      <trkpt lat="47.99117" lon="-3.77339">
        <ele>146</ele>
        <time>2024-09-07T07:56:49Z</time>
      </trkpt>
      <trkpt lat="47.99117" lon="-3.77331">
        <ele>146.2</ele>
        <time>2024-09-07T07:56:50Z</time>
      </trkpt>
      <trkpt lat="47.99117" lon="-3.77323">
        <ele>146.2</ele>
        <time>2024-09-07T07:56:51Z</time>
      </trkpt>
      <trkpt lat="47.99116" lon="-3.77316">
        <ele>146.2</ele>
        <time>2024-09-07T07:56:52Z</time>
      </trkpt>
      <trkpt lat="47.99116" lon="-3.77309">
        <ele>146.2</ele>
        <time>2024-09-07T07:56:53Z</time>
      </trkpt>
      <trkpt lat="47.99116" lon="-3.77301">
        <ele>146.2</ele>
        <time>2024-09-07T07:56:54Z</time>
      </trkpt>
      <trkpt lat="47.99116" lon="-3.77295">
        <ele>146.2</ele>
        <time>2024-09-07T07:56:55Z</time>
      </trkpt>
      <trkpt lat="47.99117" lon="-3.77288">
        <ele>146.2</ele>
        <time>2024-09-07T07:56:56Z</time>
      </trkpt>
      <trkpt lat="47.99117" lon="-3.7728">
        <ele>146.2</ele>
        <time>2024-09-07T07:56:57Z</time>
      </trkpt>
      <trkpt lat="47.99117" lon="-3.77273">
        <ele>146.2</ele>
        <time>2024-09-07T07:56:58Z</time>
      </trkpt>
      <trkpt lat="47.99117" lon="-3.77265">
        <ele>146.2</ele>
        <time>2024-09-07T07:56:59Z</time>
      </trkpt>
      <trkpt lat="47.99116" lon="-3.77258">
        <ele>146.2</ele>
        <time>2024-09-07T07:57:00Z</time>
      </trkpt>
      <trkpt lat="47.99116" lon="-3.77251">
        <ele>146.4</ele>
        <time>2024-09-07T07:57:01Z</time>
      </trkpt>
      <trkpt lat="47.99116" lon="-3.77243">
        <ele>146.4</ele>
        <time>2024-09-07T07:57:02Z</time>
      </trkpt>
      <trkpt lat="47.99116" lon="-3.77235">
        <ele>146.4</ele>
        <time>2024-09-07T07:57:03Z</time>
      </trkpt>
      <trkpt lat="47.99117" lon="-3.77226">
        <ele>146.4</ele>
        <time>2024-09-07T07:57:04Z</time>
      </trkpt>
      <trkpt lat="47.99117" lon="-3.77217">
        <ele>146.4</ele>
        <time>2024-09-07T07:57:05Z</time>
      </trkpt>
      <trkpt lat="47.99117" lon="-3.7721">
        <ele>146.4</ele>
        <time>2024-09-07T07:57:06Z</time>
      </trkpt>
      <trkpt lat="47.99116" lon="-3.77203">
        <ele>146.4</ele>
        <time>2024-09-07T07:57:07Z</time>
      </trkpt>
      <trkpt lat="47.99116" lon="-3.77197">
        <ele>146.4</ele>
        <time>2024-09-07T07:57:08Z</time>
      </trkpt>
      <trkpt lat="47.99117" lon="-3.7719">
        <ele>146.4</ele>
        <time>2024-09-07T07:57:09Z</time>
      </trkpt>
      <trkpt lat="47.99118" lon="-3.77182">
        <ele>146.4</ele>
        <time>2024-09-07T07:57:10Z</time>
      </trkpt>
      <trkpt lat="47.99119" lon="-3.77174">
        <ele>146.4</ele>
        <time>2024-09-07T07:57:11Z</time>
      </trkpt>
      <trkpt lat="47.9912" lon="-3.77166">
        <ele>146.4</ele>
        <time>2024-09-07T07:57:12Z</time>
      </trkpt>
      <trkpt lat="47.99121" lon="-3.7716">
        <ele>146.4</ele>
        <time>2024-09-07T07:57:13Z</time>
      </trkpt>
      <trkpt lat="47.99122" lon="-3.77153">
        <ele>146.4</ele>
        <time>2024-09-07T07:57:14Z</time>
      </trkpt>
      <trkpt lat="47.99123" lon="-3.77145">
        <ele>146.4</ele>
        <time>2024-09-07T07:57:15Z</time>
      </trkpt>
      <trkpt lat="47.99124" lon="-3.77138">
        <ele>146.4</ele>
        <time>2024-09-07T07:57:16Z</time>
      </trkpt>
      <trkpt lat="47.99125" lon="-3.77132">
        <ele>146.4</ele>
        <time>2024-09-07T07:57:17Z</time>
      </trkpt>
      <trkpt lat="47.99127" lon="-3.77125">
        <ele>146.6</ele>
        <time>2024-09-07T07:57:18Z</time>
      </trkpt>
      <trkpt lat="47.9913" lon="-3.77117">
        <ele>146.6</ele>
        <time>2024-09-07T07:57:19Z</time>
      </trkpt>
      <trkpt lat="47.99131" lon="-3.7711">
        <ele>146.6</ele>
        <time>2024-09-07T07:57:20Z</time>
      </trkpt>
      <trkpt lat="47.99133" lon="-3.77104">
        <ele>146.6</ele>
        <time>2024-09-07T07:57:21Z</time>
      </trkpt>
      <trkpt lat="47.99135" lon="-3.77098">
        <ele>146.6</ele>
        <time>2024-09-07T07:57:22Z</time>
      </trkpt>
      <trkpt lat="47.99138" lon="-3.77091">
        <ele>146.6</ele>
        <time>2024-09-07T07:57:23Z</time>
      </trkpt>
      <trkpt lat="47.99141" lon="-3.77084">
        <ele>146.6</ele>
        <time>2024-09-07T07:57:24Z</time>
      </trkpt>
      <trkpt lat="47.99146" lon="-3.77074">
        <ele>146.6</ele>
        <time>2024-09-07T07:57:25Z</time>
      </trkpt>
      <trkpt lat="47.9915" lon="-3.77066">
        <ele>146.6</ele>
        <time>2024-09-07T07:57:26Z</time>
      </trkpt>
      <trkpt lat="47.99153" lon="-3.77059">
        <ele>146.6</ele>
        <time>2024-09-07T07:57:27Z</time>
      </trkpt>
      <trkpt lat="47.99156" lon="-3.77052">
        <ele>146.6</ele>
        <time>2024-09-07T07:57:28Z</time>
      </trkpt>
      <trkpt lat="47.99159" lon="-3.77045">
        <ele>146.6</ele>
        <time>2024-09-07T07:57:29Z</time>
      </trkpt>
      <trkpt lat="47.99163" lon="-3.77039">
        <ele>146.4</ele>
        <time>2024-09-07T07:57:30Z</time>
      </trkpt>
      <trkpt lat="47.99167" lon="-3.77032">
        <ele>146.4</ele>
        <time>2024-09-07T07:57:31Z</time>
      </trkpt>
      <trkpt lat="47.99172" lon="-3.77025">
        <ele>146.2</ele>
        <time>2024-09-07T07:57:32Z</time>
      </trkpt>
      <trkpt lat="47.99177" lon="-3.77017">
        <ele>146.2</ele>
        <time>2024-09-07T07:57:33Z</time>
      </trkpt>
      <trkpt lat="47.99181" lon="-3.77009">
        <ele>146</ele>
        <time>2024-09-07T07:57:34Z</time>
      </trkpt>
      <trkpt lat="47.99186" lon="-3.77002">
        <ele>146</ele>
        <time>2024-09-07T07:57:35Z</time>
      </trkpt>
      <trkpt lat="47.99192" lon="-3.76996">
        <ele>146</ele>
        <time>2024-09-07T07:57:36Z</time>
      </trkpt>
      <trkpt lat="47.99197" lon="-3.7699">
        <ele>145.8</ele>
        <time>2024-09-07T07:57:37Z</time>
      </trkpt>
      <trkpt lat="47.99202" lon="-3.76985">
        <ele>145.8</ele>
        <time>2024-09-07T07:57:38Z</time>
      </trkpt>
      <trkpt lat="47.99206" lon="-3.76981">
        <ele>145.8</ele>
        <time>2024-09-07T07:57:39Z</time>
      </trkpt>
      <trkpt lat="47.9921" lon="-3.76977">
        <ele>145.6</ele>
        <time>2024-09-07T07:57:40Z</time>
      </trkpt>
      <trkpt lat="47.99213" lon="-3.76974">
        <ele>145.6</ele>
        <time>2024-09-07T07:57:41Z</time>
      </trkpt>
      <trkpt lat="47.99218" lon="-3.7697">
        <ele>145.6</ele>
        <time>2024-09-07T07:57:42Z</time>
      </trkpt>
      <trkpt lat="47.99223" lon="-3.76967">
        <ele>145.4</ele>
        <time>2024-09-07T07:57:43Z</time>
      </trkpt>
      <trkpt lat="47.99228" lon="-3.76962">
        <ele>145.4</ele>
        <time>2024-09-07T07:57:44Z</time>
      </trkpt>
      <trkpt lat="47.99232" lon="-3.76958">
        <ele>145.2</ele>
        <time>2024-09-07T07:57:45Z</time>
      </trkpt>
      <trkpt lat="47.99236" lon="-3.76954">
        <ele>145</ele>
        <time>2024-09-07T07:57:46Z</time>
      </trkpt>
      <trkpt lat="47.99241" lon="-3.7695">
        <ele>144.8</ele>
        <time>2024-09-07T07:57:47Z</time>
      </trkpt>
      <trkpt lat="47.99245" lon="-3.76946">
        <ele>144.8</ele>
        <time>2024-09-07T07:57:48Z</time>
      </trkpt>
      <trkpt lat="47.9925" lon="-3.76942">
        <ele>144.6</ele>
        <time>2024-09-07T07:57:49Z</time>
      </trkpt>
      <trkpt lat="47.99255" lon="-3.76939">
        <ele>144.6</ele>
        <time>2024-09-07T07:57:50Z</time>
      </trkpt>
      <trkpt lat="47.9926" lon="-3.76936">
        <ele>144.6</ele>
        <time>2024-09-07T07:57:51Z</time>
      </trkpt>
      <trkpt lat="47.99265" lon="-3.76933">
        <ele>144.4</ele>
        <time>2024-09-07T07:57:52Z</time>
      </trkpt>
      <trkpt lat="47.99269" lon="-3.76929">
        <ele>144.4</ele>
        <time>2024-09-07T07:57:53Z</time>
      </trkpt>
      <trkpt lat="47.99274" lon="-3.76925">
        <ele>144.2</ele>
        <time>2024-09-07T07:57:54Z</time>
      </trkpt>
      <trkpt lat="47.99278" lon="-3.76922">
        <ele>144.2</ele>
        <time>2024-09-07T07:57:55Z</time>
      </trkpt>
      <trkpt lat="47.99283" lon="-3.76918">
        <ele>144</ele>
        <time>2024-09-07T07:57:56Z</time>
      </trkpt>
      <trkpt lat="47.99287" lon="-3.76915">
        <ele>144</ele>
        <time>2024-09-07T07:57:57Z</time>
      </trkpt>
      <trkpt lat="47.99292" lon="-3.76911">
        <ele>144</ele>
        <time>2024-09-07T07:57:58Z</time>
      </trkpt>
      <trkpt lat="47.99296" lon="-3.76908">
        <ele>144</ele>
        <time>2024-09-07T07:57:59Z</time>
      </trkpt>
      <trkpt lat="47.99301" lon="-3.76905">
        <ele>144</ele>
        <time>2024-09-07T07:58:00Z</time>
      </trkpt>
      <trkpt lat="47.99305" lon="-3.76901">
        <ele>144</ele>
        <time>2024-09-07T07:58:01Z</time>
      </trkpt>
      <trkpt lat="47.99309" lon="-3.76896">
        <ele>144</ele>
        <time>2024-09-07T07:58:02Z</time>
      </trkpt>
      <trkpt lat="47.99314" lon="-3.7689">
        <ele>144</ele>
        <time>2024-09-07T07:58:03Z</time>
      </trkpt>
      <trkpt lat="47.99319" lon="-3.76883">
        <ele>144</ele>
        <time>2024-09-07T07:58:04Z</time>
      </trkpt>
      <trkpt lat="47.99323" lon="-3.76877">
        <ele>143.8</ele>
        <time>2024-09-07T07:58:05Z</time>
      </trkpt>
      <trkpt lat="47.99327" lon="-3.76871">
        <ele>143.8</ele>
        <time>2024-09-07T07:58:06Z</time>
      </trkpt>
      <trkpt lat="47.99331" lon="-3.76865">
        <ele>143.8</ele>
        <time>2024-09-07T07:58:07Z</time>
      </trkpt>
      <trkpt lat="47.99335" lon="-3.76858">
        <ele>143.8</ele>
        <time>2024-09-07T07:58:08Z</time>
      </trkpt>
      <trkpt lat="47.9934" lon="-3.76851">
        <ele>144</ele>
        <time>2024-09-07T07:58:09Z</time>
      </trkpt>
      <trkpt lat="47.99343" lon="-3.76844">
        <ele>144</ele>
        <time>2024-09-07T07:58:10Z</time>
      </trkpt>
      <trkpt lat="47.99347" lon="-3.76838">
        <ele>144</ele>
        <time>2024-09-07T07:58:11Z</time>
      </trkpt>
      <trkpt lat="47.99351" lon="-3.76832">
        <ele>144</ele>
        <time>2024-09-07T07:58:12Z</time>
      </trkpt>
      <trkpt lat="47.99353" lon="-3.76827">
        <ele>144</ele>
        <time>2024-09-07T07:58:13Z</time>
      </trkpt>
      <trkpt lat="47.99355" lon="-3.76822">
        <ele>144</ele>
        <time>2024-09-07T07:58:14Z</time>
      </trkpt>
      <trkpt lat="47.99357" lon="-3.76817">
        <ele>144</ele>
        <time>2024-09-07T07:58:15Z</time>
      </trkpt>
      <trkpt lat="47.9936" lon="-3.76809">
        <ele>144</ele>
        <time>2024-09-07T07:58:16Z</time>
      </trkpt>
      <trkpt lat="47.99362" lon="-3.76802">
        <ele>144</ele>
        <time>2024-09-07T07:58:17Z</time>
      </trkpt>
      <trkpt lat="47.99364" lon="-3.76796">
        <ele>144</ele>
        <time>2024-09-07T07:58:18Z</time>
      </trkpt>
      <trkpt lat="47.99366" lon="-3.7679">
        <ele>144</ele>
        <time>2024-09-07T07:58:19Z</time>
      </trkpt>
      <trkpt lat="47.99368" lon="-3.76783">
        <ele>144</ele>
        <time>2024-09-07T07:58:20Z</time>
      </trkpt>
      <trkpt lat="47.9937" lon="-3.76776">
        <ele>144</ele>
        <time>2024-09-07T07:58:21Z</time>
      </trkpt>
      <trkpt lat="47.99373" lon="-3.76769">
        <ele>144.2</ele>
        <time>2024-09-07T07:58:22Z</time>
      </trkpt>
      <trkpt lat="47.99375" lon="-3.76763">
        <ele>144.2</ele>
        <time>2024-09-07T07:58:23Z</time>
      </trkpt>
      <trkpt lat="47.99376" lon="-3.76758">
        <ele>144.2</ele>
        <time>2024-09-07T07:58:24Z</time>
      </trkpt>
      <trkpt lat="47.99377" lon="-3.76753">
        <ele>144.2</ele>
        <time>2024-09-07T07:58:25Z</time>
      </trkpt>
      <trkpt lat="47.99377" lon="-3.76747">
        <ele>144.2</ele>
        <time>2024-09-07T07:58:26Z</time>
      </trkpt>
      <trkpt lat="47.99378" lon="-3.76741">
        <ele>144.2</ele>
        <time>2024-09-07T07:58:27Z</time>
      </trkpt>
      <trkpt lat="47.99379" lon="-3.76734">
        <ele>144.4</ele>
        <time>2024-09-07T07:58:28Z</time>
      </trkpt>
      <trkpt lat="47.9938" lon="-3.76727">
        <ele>144.4</ele>
        <time>2024-09-07T07:58:29Z</time>
      </trkpt>
      <trkpt lat="47.99381" lon="-3.7672">
        <ele>144.4</ele>
        <time>2024-09-07T07:58:30Z</time>
      </trkpt>
      <trkpt lat="47.99382" lon="-3.76714">
        <ele>144.4</ele>
        <time>2024-09-07T07:58:31Z</time>
      </trkpt>
      <trkpt lat="47.99383" lon="-3.76709">
        <ele>144.6</ele>
        <time>2024-09-07T07:58:32Z</time>
      </trkpt>
      <trkpt lat="47.99384" lon="-3.76703">
        <ele>144.6</ele>
        <time>2024-09-07T07:58:33Z</time>
      </trkpt>
      <trkpt lat="47.99385" lon="-3.76699">
        <ele>144.6</ele>
        <time>2024-09-07T07:58:34Z</time>
      </trkpt>
      <trkpt lat="47.99386" lon="-3.76694">
        <ele>144.8</ele>
        <time>2024-09-07T07:58:35Z</time>
      </trkpt>
      <trkpt lat="47.99386" lon="-3.76689">
        <ele>144.8</ele>
        <time>2024-09-07T07:58:36Z</time>
      </trkpt>
      <trkpt lat="47.99387" lon="-3.76683">
        <ele>145</ele>
        <time>2024-09-07T07:58:37Z</time>
      </trkpt>
      <trkpt lat="47.99388" lon="-3.76678">
        <ele>145.2</ele>
        <time>2024-09-07T07:58:38Z</time>
      </trkpt>
      <trkpt lat="47.99389" lon="-3.76671">
        <ele>145.2</ele>
        <time>2024-09-07T07:58:39Z</time>
      </trkpt>
      <trkpt lat="47.9939" lon="-3.76665">
        <ele>145.4</ele>
        <time>2024-09-07T07:58:40Z</time>
      </trkpt>
      <trkpt lat="47.99391" lon="-3.76658">
        <ele>145.4</ele>
        <time>2024-09-07T07:58:41Z</time>
      </trkpt>
      <trkpt lat="47.99393" lon="-3.76652">
        <ele>145.4</ele>
        <time>2024-09-07T07:58:42Z</time>
      </trkpt>
      <trkpt lat="47.99394" lon="-3.76645">
        <ele>145.6</ele>
        <time>2024-09-07T07:58:43Z</time>
      </trkpt>
      <trkpt lat="47.99395" lon="-3.76637">
        <ele>145.6</ele>
        <time>2024-09-07T07:58:44Z</time>
      </trkpt>
      <trkpt lat="47.99397" lon="-3.7663">
        <ele>145.6</ele>
        <time>2024-09-07T07:58:45Z</time>
      </trkpt>
      <trkpt lat="47.99398" lon="-3.76622">
        <ele>145.8</ele>
        <time>2024-09-07T07:58:46Z</time>
      </trkpt>
      <trkpt lat="47.99399" lon="-3.76614">
        <ele>145.8</ele>
        <time>2024-09-07T07:58:47Z</time>
      </trkpt>
      <trkpt lat="47.994" lon="-3.76608">
        <ele>145.8</ele>
        <time>2024-09-07T07:58:48Z</time>
      </trkpt>
      <trkpt lat="47.99402" lon="-3.76601">
        <ele>145.8</ele>
        <time>2024-09-07T07:58:49Z</time>
      </trkpt>
      <trkpt lat="47.99404" lon="-3.76594">
        <ele>145.8</ele>
        <time>2024-09-07T07:58:50Z</time>
      </trkpt>
      <trkpt lat="47.99406" lon="-3.76587">
        <ele>145.8</ele>
        <time>2024-09-07T07:58:51Z</time>
      </trkpt>
      <trkpt lat="47.99408" lon="-3.7658">
        <ele>145.8</ele>
        <time>2024-09-07T07:58:52Z</time>
      </trkpt>
      <trkpt lat="47.9941" lon="-3.76573">
        <ele>145.8</ele>
        <time>2024-09-07T07:58:53Z</time>
      </trkpt>
      <trkpt lat="47.99412" lon="-3.76567">
        <ele>145.8</ele>
        <time>2024-09-07T07:58:54Z</time>
      </trkpt>
      <trkpt lat="47.99415" lon="-3.7656">
        <ele>145.8</ele>
        <time>2024-09-07T07:58:55Z</time>
      </trkpt>
      <trkpt lat="47.99417" lon="-3.76555">
        <ele>145.8</ele>
        <time>2024-09-07T07:58:56Z</time>
      </trkpt>
      <trkpt lat="47.9942" lon="-3.76548">
        <ele>145.8</ele>
        <time>2024-09-07T07:58:57Z</time>
      </trkpt>
      <trkpt lat="47.99423" lon="-3.76541">
        <ele>145.8</ele>
        <time>2024-09-07T07:58:58Z</time>
      </trkpt>
      <trkpt lat="47.99426" lon="-3.76535">
        <ele>145.8</ele>
        <time>2024-09-07T07:58:59Z</time>
      </trkpt>
      <trkpt lat="47.9943" lon="-3.76527">
        <ele>145.6</ele>
        <time>2024-09-07T07:59:00Z</time>
      </trkpt>
      <trkpt lat="47.99435" lon="-3.7652">
        <ele>145.8</ele>
        <time>2024-09-07T07:59:01Z</time>
      </trkpt>
      <trkpt lat="47.9944" lon="-3.76513">
        <ele>145.6</ele>
        <time>2024-09-07T07:59:02Z</time>
      </trkpt>
      <trkpt lat="47.99444" lon="-3.76505">
        <ele>145.6</ele>
        <time>2024-09-07T07:59:03Z</time>
      </trkpt>
      <trkpt lat="47.99449" lon="-3.76498">
        <ele>145.4</ele>
        <time>2024-09-07T07:59:04Z</time>
      </trkpt>
      <trkpt lat="47.99453" lon="-3.76492">
        <ele>145.2</ele>
        <time>2024-09-07T07:59:05Z</time>
      </trkpt>
      <trkpt lat="47.99459" lon="-3.76485">
        <ele>145</ele>
        <time>2024-09-07T07:59:06Z</time>
      </trkpt>
      <trkpt lat="47.99465" lon="-3.76478">
        <ele>144.8</ele>
        <time>2024-09-07T07:59:07Z</time>
      </trkpt>
      <trkpt lat="47.9947" lon="-3.76473">
        <ele>144.6</ele>
        <time>2024-09-07T07:59:08Z</time>
      </trkpt>
      <trkpt lat="47.99476" lon="-3.76468">
        <ele>144.6</ele>
        <time>2024-09-07T07:59:09Z</time>
      </trkpt>
      <trkpt lat="47.99482" lon="-3.76463">
        <ele>144.4</ele>
        <time>2024-09-07T07:59:10Z</time>
      </trkpt>
      <trkpt lat="47.99487" lon="-3.76458">
        <ele>144.4</ele>
        <time>2024-09-07T07:59:11Z</time>
      </trkpt>
      <trkpt lat="47.99492" lon="-3.76454">
        <ele>144.2</ele>
        <time>2024-09-07T07:59:12Z</time>
      </trkpt>
      <trkpt lat="47.99496" lon="-3.76451">
        <ele>144</ele>
        <time>2024-09-07T07:59:13Z</time>
      </trkpt>
      <trkpt lat="47.99501" lon="-3.76447">
        <ele>144</ele>
        <time>2024-09-07T07:59:14Z</time>
      </trkpt>
      <trkpt lat="47.99506" lon="-3.76442">
        <ele>143.8</ele>
        <time>2024-09-07T07:59:15Z</time>
      </trkpt>
      <trkpt lat="47.9951" lon="-3.76438">
        <ele>143.6</ele>
        <time>2024-09-07T07:59:16Z</time>
      </trkpt>
      <trkpt lat="47.99515" lon="-3.76434">
        <ele>143.4</ele>
        <time>2024-09-07T07:59:17Z</time>
      </trkpt>
      <trkpt lat="47.99519" lon="-3.76431">
        <ele>143.4</ele>
        <time>2024-09-07T07:59:18Z</time>
      </trkpt>
      <trkpt lat="47.99524" lon="-3.76427">
        <ele>143.2</ele>
        <time>2024-09-07T07:59:19Z</time>
      </trkpt>
      <trkpt lat="47.99529" lon="-3.76423">
        <ele>143.2</ele>
        <time>2024-09-07T07:59:20Z</time>
      </trkpt>
      <trkpt lat="47.99533" lon="-3.76419">
        <ele>143</ele>
        <time>2024-09-07T07:59:21Z</time>
      </trkpt>
      <trkpt lat="47.99538" lon="-3.76414">
        <ele>143</ele>
        <time>2024-09-07T07:59:22Z</time>
      </trkpt>
      <trkpt lat="47.99543" lon="-3.76409">
        <ele>142.8</ele>
        <time>2024-09-07T07:59:23Z</time>
      </trkpt>
      <trkpt lat="47.99547" lon="-3.76404">
        <ele>142.6</ele>
        <time>2024-09-07T07:59:24Z</time>
      </trkpt>
      <trkpt lat="47.99553" lon="-3.764">
        <ele>142.6</ele>
        <time>2024-09-07T07:59:25Z</time>
      </trkpt>
      <trkpt lat="47.99558" lon="-3.76395">
        <ele>142.4</ele>
        <time>2024-09-07T07:59:26Z</time>
      </trkpt>
      <trkpt lat="47.99563" lon="-3.7639">
        <ele>142.4</ele>
        <time>2024-09-07T07:59:27Z</time>
      </trkpt>
      <trkpt lat="47.99568" lon="-3.76386">
        <ele>142.2</ele>
        <time>2024-09-07T07:59:28Z</time>
      </trkpt>
      <trkpt lat="47.99573" lon="-3.76381">
        <ele>142.2</ele>
        <time>2024-09-07T07:59:29Z</time>
      </trkpt>
      <trkpt lat="47.99577" lon="-3.76376">
        <ele>142</ele>
        <time>2024-09-07T07:59:30Z</time>
      </trkpt>
      <trkpt lat="47.99582" lon="-3.76371">
        <ele>141.8</ele>
        <time>2024-09-07T07:59:31Z</time>
      </trkpt>
      <trkpt lat="47.99586" lon="-3.76367">
        <ele>141.8</ele>
        <time>2024-09-07T07:59:32Z</time>
      </trkpt>
      <trkpt lat="47.99591" lon="-3.76362">
        <ele>141.8</ele>
        <time>2024-09-07T07:59:33Z</time>
      </trkpt>
      <trkpt lat="47.99595" lon="-3.76357">
        <ele>141.6</ele>
        <time>2024-09-07T07:59:34Z</time>
      </trkpt>
      <trkpt lat="47.99599" lon="-3.76352">
        <ele>141.6</ele>
        <time>2024-09-07T07:59:35Z</time>
      </trkpt>
      <trkpt lat="47.99604" lon="-3.76346">
        <ele>141.4</ele>
        <time>2024-09-07T07:59:36Z</time>
      </trkpt>
      <trkpt lat="47.99608" lon="-3.76341">
        <ele>141.2</ele>
        <time>2024-09-07T07:59:37Z</time>
      </trkpt>
      <trkpt lat="47.99613" lon="-3.76335">
        <ele>141.2</ele>
        <time>2024-09-07T07:59:38Z</time>
      </trkpt>
      <trkpt lat="47.99618" lon="-3.76329">
        <ele>141.2</ele>
        <time>2024-09-07T07:59:39Z</time>
      </trkpt>
      <trkpt lat="47.99623" lon="-3.76323">
        <ele>141</ele>
        <time>2024-09-07T07:59:40Z</time>
      </trkpt>
      <trkpt lat="47.99628" lon="-3.76316">
        <ele>141</ele>
        <time>2024-09-07T07:59:41Z</time>
      </trkpt>
      <trkpt lat="47.99633" lon="-3.76309">
        <ele>140.8</ele>
        <time>2024-09-07T07:59:42Z</time>
      </trkpt>
      <trkpt lat="47.99638" lon="-3.76302">
        <ele>140.8</ele>
        <time>2024-09-07T07:59:43Z</time>
      </trkpt>
      <trkpt lat="47.99643" lon="-3.76295">
        <ele>140.6</ele>
        <time>2024-09-07T07:59:44Z</time>
      </trkpt>
      <trkpt lat="47.99649" lon="-3.76287">
        <ele>140.4</ele>
        <time>2024-09-07T07:59:45Z</time>
      </trkpt>
      <trkpt lat="47.99654" lon="-3.76279">
        <ele>140.4</ele>
        <time>2024-09-07T07:59:46Z</time>
      </trkpt>
      <trkpt lat="47.99659" lon="-3.76271">
        <ele>140.2</ele>
        <time>2024-09-07T07:59:47Z</time>
      </trkpt>
      <trkpt lat="47.99664" lon="-3.76263">
        <ele>140.2</ele>
        <time>2024-09-07T07:59:48Z</time>
      </trkpt>
      <trkpt lat="47.99669" lon="-3.76255">
        <ele>140.2</ele>
        <time>2024-09-07T07:59:49Z</time>
      </trkpt>
      <trkpt lat="47.99674" lon="-3.76247">
        <ele>140</ele>
        <time>2024-09-07T07:59:50Z</time>
      </trkpt>
      <trkpt lat="47.99679" lon="-3.76239">
        <ele>140</ele>
        <time>2024-09-07T07:59:51Z</time>
      </trkpt>
      <trkpt lat="47.99685" lon="-3.76231">
        <ele>140</ele>
        <time>2024-09-07T07:59:52Z</time>
      </trkpt>
      <trkpt lat="47.99691" lon="-3.76223">
        <ele>140</ele>
        <time>2024-09-07T07:59:53Z</time>
      </trkpt>
      <trkpt lat="47.99696" lon="-3.76216">
        <ele>139.8</ele>
        <time>2024-09-07T07:59:54Z</time>
      </trkpt>
      <trkpt lat="47.99701" lon="-3.76208">
        <ele>139.8</ele>
        <time>2024-09-07T07:59:55Z</time>
      </trkpt>
      <trkpt lat="47.99706" lon="-3.76201">
        <ele>139.6</ele>
        <time>2024-09-07T07:59:56Z</time>
      </trkpt>
      <trkpt lat="47.99711" lon="-3.76195">
        <ele>139.4</ele>
        <time>2024-09-07T07:59:57Z</time>
      </trkpt>
      <trkpt lat="47.99716" lon="-3.76188">
        <ele>139.2</ele>
        <time>2024-09-07T07:59:58Z</time>
      </trkpt>
      <trkpt lat="47.99721" lon="-3.76181">
        <ele>139</ele>
        <time>2024-09-07T07:59:59Z</time>
      </trkpt>
      <trkpt lat="47.99726" lon="-3.76173">
        <ele>138.8</ele>
        <time>2024-09-07T08:00:00Z</time>
      </trkpt>
      <trkpt lat="47.99731" lon="-3.76166">
        <ele>138.6</ele>
        <time>2024-09-07T08:00:01Z</time>
      </trkpt>
      <trkpt lat="47.99735" lon="-3.76159">
        <ele>138.4</ele>
        <time>2024-09-07T08:00:02Z</time>
      </trkpt>
      <trkpt lat="47.9974" lon="-3.76153">
        <ele>138.2</ele>
        <time>2024-09-07T08:00:03Z</time>
      </trkpt>
      <trkpt lat="47.99745" lon="-3.76146">
        <ele>138</ele>
        <time>2024-09-07T08:00:04Z</time>
      </trkpt>
      <trkpt lat="47.9975" lon="-3.76139">
        <ele>138</ele>
        <time>2024-09-07T08:00:05Z</time>
      </trkpt>
      <trkpt lat="47.99755" lon="-3.76133">
        <ele>137.8</ele>
        <time>2024-09-07T08:00:06Z</time>
      </trkpt>
      <trkpt lat="47.9976" lon="-3.76125">
        <ele>137.8</ele>
        <time>2024-09-07T08:00:07Z</time>
      </trkpt>
      <trkpt lat="47.99765" lon="-3.76118">
        <ele>137.6</ele>
        <time>2024-09-07T08:00:08Z</time>
      </trkpt>
      <trkpt lat="47.99769" lon="-3.7611">
        <ele>137.4</ele>
        <time>2024-09-07T08:00:09Z</time>
      </trkpt>
      <trkpt lat="47.99773" lon="-3.76104">
        <ele>137.2</ele>
        <time>2024-09-07T08:00:10Z</time>
      </trkpt>
      <trkpt lat="47.99777" lon="-3.76097">
        <ele>137.2</ele>
        <time>2024-09-07T08:00:11Z</time>
      </trkpt>
      <trkpt lat="47.99781" lon="-3.7609">
        <ele>137.2</ele>
        <time>2024-09-07T08:00:12Z</time>
      </trkpt>
      <trkpt lat="47.99785" lon="-3.76084">
        <ele>137</ele>
        <time>2024-09-07T08:00:13Z</time>
      </trkpt>
      <trkpt lat="47.99789" lon="-3.76078">
        <ele>136.8</ele>
        <time>2024-09-07T08:00:14Z</time>
      </trkpt>
      <trkpt lat="47.99795" lon="-3.76071">
        <ele>136.6</ele>
        <time>2024-09-07T08:00:15Z</time>
      </trkpt>
      <trkpt lat="47.998" lon="-3.76063">
        <ele>136.4</ele>
        <time>2024-09-07T08:00:16Z</time>
      </trkpt>
      <trkpt lat="47.99805" lon="-3.76056">
        <ele>136.2</ele>
        <time>2024-09-07T08:00:17Z</time>
      </trkpt>
      <trkpt lat="47.9981" lon="-3.7605">
        <ele>136</ele>
        <time>2024-09-07T08:00:18Z</time>
      </trkpt>
      <trkpt lat="47.99816" lon="-3.76043">
        <ele>136</ele>
        <time>2024-09-07T08:00:19Z</time>
      </trkpt>
      <trkpt lat="47.99821" lon="-3.76037">
        <ele>135.8</ele>
        <time>2024-09-07T08:00:20Z</time>
      </trkpt>
      <trkpt lat="47.99825" lon="-3.76031">
        <ele>135.6</ele>
        <time>2024-09-07T08:00:21Z</time>
      </trkpt>
      <trkpt lat="47.99829" lon="-3.76025">
        <ele>135.4</ele>
        <time>2024-09-07T08:00:22Z</time>
      </trkpt>
      <trkpt lat="47.99832" lon="-3.76019">
        <ele>135.4</ele>
        <time>2024-09-07T08:00:23Z</time>
      </trkpt>
      <trkpt lat="47.99836" lon="-3.76014">
        <ele>135.4</ele>
        <time>2024-09-07T08:00:24Z</time>
      </trkpt>
      <trkpt lat="47.9984" lon="-3.76008">
        <ele>135.2</ele>
        <time>2024-09-07T08:00:25Z</time>
      </trkpt>
      <trkpt lat="47.99842" lon="-3.76003">
        <ele>135</ele>
        <time>2024-09-07T08:00:26Z</time>
      </trkpt>
      <trkpt lat="47.99845" lon="-3.75998">
        <ele>134.8</ele>
        <time>2024-09-07T08:00:27Z</time>
      </trkpt>
      <trkpt lat="47.99847" lon="-3.75994">
        <ele>134.6</ele>
        <time>2024-09-07T08:00:28Z</time>
      </trkpt>
      <trkpt lat="47.9985" lon="-3.7599">
        <ele>134.4</ele>
        <time>2024-09-07T08:00:29Z</time>
      </trkpt>
      <trkpt lat="47.99852" lon="-3.75987">
        <ele>134.2</ele>
        <time>2024-09-07T08:00:30Z</time>
      </trkpt>
      <trkpt lat="47.99854" lon="-3.75983">
        <ele>134.2</ele>
        <time>2024-09-07T08:00:31Z</time>
      </trkpt>
      <trkpt lat="47.99856" lon="-3.75979">
        <ele>134.2</ele>
        <time>2024-09-07T08:00:32Z</time>
      </trkpt>
      <trkpt lat="47.99857" lon="-3.75975">
        <ele>134</ele>
        <time>2024-09-07T08:00:33Z</time>
      </trkpt>
      <trkpt lat="47.99859" lon="-3.75971">
        <ele>133.8</ele>
        <time>2024-09-07T08:00:34Z</time>
      </trkpt>
      <trkpt lat="47.99861" lon="-3.75967">
        <ele>133.6</ele>
        <time>2024-09-07T08:00:35Z</time>
      </trkpt>
      <trkpt lat="47.99863" lon="-3.75962">
        <ele>133.6</ele>
        <time>2024-09-07T08:00:36Z</time>
      </trkpt>
      <trkpt lat="47.99865" lon="-3.75958">
        <ele>133.6</ele>
        <time>2024-09-07T08:00:37Z</time>
      </trkpt>
      <trkpt lat="47.99867" lon="-3.75954">
        <ele>133.4</ele>
        <time>2024-09-07T08:00:38Z</time>
      </trkpt>
      <trkpt lat="47.99869" lon="-3.7595">
        <ele>133.4</ele>
        <time>2024-09-07T08:00:39Z</time>
      </trkpt>
      <trkpt lat="47.99872" lon="-3.75945">
        <ele>133.4</ele>
        <time>2024-09-07T08:00:40Z</time>
      </trkpt>
      <trkpt lat="47.99875" lon="-3.75941">
        <ele>133.4</ele>
        <time>2024-09-07T08:00:41Z</time>
      </trkpt>
      <trkpt lat="47.99877" lon="-3.75937">
        <ele>133.4</ele>
        <time>2024-09-07T08:00:42Z</time>
      </trkpt>
      <trkpt lat="47.99879" lon="-3.75932">
        <ele>133.4</ele>
        <time>2024-09-07T08:00:43Z</time>
      </trkpt>
      <trkpt lat="47.99881" lon="-3.75926">
        <ele>133.2</ele>
        <time>2024-09-07T08:00:44Z</time>
      </trkpt>
      <trkpt lat="47.99883" lon="-3.75921">
        <ele>133.2</ele>
        <time>2024-09-07T08:00:45Z</time>
      </trkpt>
      <trkpt lat="47.99885" lon="-3.75915">
        <ele>133.2</ele>
        <time>2024-09-07T08:00:46Z</time>
      </trkpt>
      <trkpt lat="47.99887" lon="-3.75909">
        <ele>133</ele>
        <time>2024-09-07T08:00:47Z</time>
      </trkpt>
      <trkpt lat="47.9989" lon="-3.75901">
        <ele>133</ele>
        <time>2024-09-07T08:00:48Z</time>
      </trkpt>
      <trkpt lat="47.99893" lon="-3.75893">
        <ele>132.8</ele>
        <time>2024-09-07T08:00:49Z</time>
      </trkpt>
      <trkpt lat="47.99896" lon="-3.75885">
        <ele>132.6</ele>
        <time>2024-09-07T08:00:50Z</time>
      </trkpt>
      <trkpt lat="47.99901" lon="-3.75876">
        <ele>132.6</ele>
        <time>2024-09-07T08:00:51Z</time>
      </trkpt>
      <trkpt lat="47.99903" lon="-3.75868">
        <ele>132.4</ele>
        <time>2024-09-07T08:00:52Z</time>
      </trkpt>
      <trkpt lat="47.99905" lon="-3.7586">
        <ele>132.2</ele>
        <time>2024-09-07T08:00:53Z</time>
      </trkpt>
      <trkpt lat="47.99907" lon="-3.75851">
        <ele>132</ele>
        <time>2024-09-07T08:00:54Z</time>
      </trkpt>
      <trkpt lat="47.99909" lon="-3.75844">
        <ele>132</ele>
        <time>2024-09-07T08:00:55Z</time>
      </trkpt>
      <trkpt lat="47.9991" lon="-3.75835">
        <ele>131.8</ele>
        <time>2024-09-07T08:00:56Z</time>
      </trkpt>
      <trkpt lat="47.99912" lon="-3.75826">
        <ele>131.8</ele>
        <time>2024-09-07T08:00:57Z</time>
      </trkpt>
      <trkpt lat="47.99915" lon="-3.75817">
        <ele>131.6</ele>
        <time>2024-09-07T08:00:58Z</time>
      </trkpt>
      <trkpt lat="47.99917" lon="-3.75808">
        <ele>131.4</ele>
        <time>2024-09-07T08:00:59Z</time>
      </trkpt>
      <trkpt lat="47.99918" lon="-3.75799">
        <ele>131.2</ele>
        <time>2024-09-07T08:01:00Z</time>
      </trkpt>
      <trkpt lat="47.9992" lon="-3.75789">
        <ele>131.2</ele>
        <time>2024-09-07T08:01:01Z</time>
      </trkpt>
      <trkpt lat="47.99922" lon="-3.7578">
        <ele>131</ele>
        <time>2024-09-07T08:01:02Z</time>
      </trkpt>
      <trkpt lat="47.99926" lon="-3.75771">
        <ele>130.8</ele>
        <time>2024-09-07T08:01:03Z</time>
      </trkpt>
      <trkpt lat="47.99927" lon="-3.75761">
        <ele>130.8</ele>
        <time>2024-09-07T08:01:04Z</time>
      </trkpt>
      <trkpt lat="47.9993" lon="-3.75752">
        <ele>130.6</ele>
        <time>2024-09-07T08:01:05Z</time>
      </trkpt>
      <trkpt lat="47.99932" lon="-3.75742">
        <ele>130.4</ele>
        <time>2024-09-07T08:01:06Z</time>
      </trkpt>
      <trkpt lat="47.99934" lon="-3.75733">
        <ele>130.4</ele>
        <time>2024-09-07T08:01:07Z</time>
      </trkpt>
      <trkpt lat="47.99935" lon="-3.75725">
        <ele>130.4</ele>
        <time>2024-09-07T08:01:08Z</time>
      </trkpt>
      <trkpt lat="47.99936" lon="-3.75716">
        <ele>130.2</ele>
        <time>2024-09-07T08:01:09Z</time>
      </trkpt>
      <trkpt lat="47.99938" lon="-3.75708">
        <ele>130.2</ele>
        <time>2024-09-07T08:01:10Z</time>
      </trkpt>
      <trkpt lat="47.9994" lon="-3.75698">
        <ele>130</ele>
        <time>2024-09-07T08:01:11Z</time>
      </trkpt>
      <trkpt lat="47.99936" lon="-3.75689">
        <ele>129.8</ele>
        <time>2024-09-07T08:01:12Z</time>
      </trkpt>
      <trkpt lat="47.99934" lon="-3.75679">
        <ele>129.8</ele>
        <time>2024-09-07T08:01:13Z</time>
      </trkpt>
      <trkpt lat="47.99936" lon="-3.75672">
        <ele>129.8</ele>
        <time>2024-09-07T08:01:14Z</time>
      </trkpt>
      <trkpt lat="47.99938" lon="-3.75668">
        <ele>129.6</ele>
        <time>2024-09-07T08:01:15Z</time>
      </trkpt>
      <trkpt lat="47.99939" lon="-3.75665">
        <ele>129.6</ele>
        <time>2024-09-07T08:01:16Z</time>
      </trkpt>
      <trkpt lat="47.99939" lon="-3.75665">
        <ele>129.4</ele>
        <time>2024-09-07T08:01:17Z</time>
      </trkpt>
      <trkpt lat="47.99939" lon="-3.75665">
        <ele>129.4</ele>
        <time>2024-09-07T08:01:18Z</time>
      </trkpt>
      <trkpt lat="47.99939" lon="-3.75665">
        <ele>129.4</ele>
        <time>2024-09-07T08:01:19Z</time>
      </trkpt>
      <trkpt lat="47.99936" lon="-3.75676">
        <ele>129</ele>
        <time>2024-09-07T08:01:40Z</time>
      </trkpt>
      <trkpt lat="47.99936" lon="-3.75679">
        <ele>129</ele>
        <time>2024-09-07T08:01:41Z</time>
      </trkpt>
      <trkpt lat="47.99935" lon="-3.7568">
        <ele>129</ele>
        <time>2024-09-07T08:01:42Z</time>
      </trkpt>
      <trkpt lat="47.99935" lon="-3.75682">
        <ele>129</ele>
        <time>2024-09-07T08:01:43Z</time>
      </trkpt>
      <trkpt lat="47.99935" lon="-3.75684">
        <ele>129</ele>
        <time>2024-09-07T08:01:44Z</time>
      </trkpt>
      <trkpt lat="47.99934" lon="-3.75686">
        <ele>129</ele>
        <time>2024-09-07T08:01:45Z</time>
      </trkpt>
      <trkpt lat="47.99934" lon="-3.75688">
        <ele>129</ele>
        <time>2024-09-07T08:01:46Z</time>
      </trkpt>
      <trkpt lat="47.99933" lon="-3.7569">
        <ele>129</ele>
        <time>2024-09-07T08:01:47Z</time>
      </trkpt>
      <trkpt lat="47.99933" lon="-3.75692">
        <ele>129</ele>
        <time>2024-09-07T08:01:48Z</time>
      </trkpt>
      <trkpt lat="47.99932" lon="-3.75693">
        <ele>129</ele>
        <time>2024-09-07T08:01:49Z</time>
      </trkpt>
      <trkpt lat="47.99932" lon="-3.75695">
        <ele>129</ele>
        <time>2024-09-07T08:01:50Z</time>
      </trkpt>
      <trkpt lat="47.99932" lon="-3.75698">
        <ele>129</ele>
        <time>2024-09-07T08:01:51Z</time>
      </trkpt>
      <trkpt lat="47.99931" lon="-3.757">
        <ele>129</ele>
        <time>2024-09-07T08:01:52Z</time>
      </trkpt>
      <trkpt lat="47.99931" lon="-3.75702">
        <ele>129</ele>
        <time>2024-09-07T08:01:53Z</time>
      </trkpt>
      <trkpt lat="47.99931" lon="-3.75704">
        <ele>129</ele>
        <time>2024-09-07T08:01:54Z</time>
      </trkpt>
      <trkpt lat="47.99931" lon="-3.75706">
        <ele>129</ele>
        <time>2024-09-07T08:01:55Z</time>
      </trkpt>
      <trkpt lat="47.99931" lon="-3.75708">
        <ele>129</ele>
        <time>2024-09-07T08:01:56Z</time>
      </trkpt>
      <trkpt lat="47.9993" lon="-3.7571">
        <ele>129</ele>
        <time>2024-09-07T08:01:57Z</time>
      </trkpt>
      <trkpt lat="47.9993" lon="-3.75712">
        <ele>129</ele>
        <time>2024-09-07T08:01:58Z</time>
      </trkpt>
      <trkpt lat="47.99929" lon="-3.75714">
        <ele>129</ele>
        <time>2024-09-07T08:01:59Z</time>
      </trkpt>
      <trkpt lat="47.99928" lon="-3.75717">
        <ele>129</ele>
        <time>2024-09-07T08:02:00Z</time>
      </trkpt>
      <trkpt lat="47.99928" lon="-3.75718">
        <ele>129</ele>
        <time>2024-09-07T08:02:01Z</time>
      </trkpt>
      <trkpt lat="47.99927" lon="-3.75721">
        <ele>129</ele>
        <time>2024-09-07T08:02:02Z</time>
      </trkpt>
      <trkpt lat="47.99926" lon="-3.75722">
        <ele>129</ele>
        <time>2024-09-07T08:02:03Z</time>
      </trkpt>
      <trkpt lat="47.99926" lon="-3.75724">
        <ele>129</ele>
        <time>2024-09-07T08:02:04Z</time>
      </trkpt>
      <trkpt lat="47.99926" lon="-3.75727">
        <ele>129</ele>
        <time>2024-09-07T08:02:05Z</time>
      </trkpt>
      <trkpt lat="47.99926" lon="-3.75729">
        <ele>129</ele>
        <time>2024-09-07T08:02:06Z</time>
      </trkpt>
      <trkpt lat="47.99926" lon="-3.7573">
        <ele>129</ele>
        <time>2024-09-07T08:02:07Z</time>
      </trkpt>
      <trkpt lat="47.99926" lon="-3.75732">
        <ele>129</ele>
        <time>2024-09-07T08:02:08Z</time>
      </trkpt>
      <trkpt lat="47.99925" lon="-3.75734">
        <ele>129</ele>
        <time>2024-09-07T08:02:09Z</time>
      </trkpt>
      <trkpt lat="47.99925" lon="-3.75737">
        <ele>129</ele>
        <time>2024-09-07T08:02:10Z</time>
      </trkpt>
      <trkpt lat="47.99925" lon="-3.75737">
        <ele>129.2</ele>
        <time>2024-09-07T08:02:11Z</time>
      </trkpt>
      <trkpt lat="47.99924" lon="-3.75737">
        <ele>129.2</ele>
        <time>2024-09-07T08:02:12Z</time>
      </trkpt>
      <trkpt lat="47.99927" lon="-3.75726">
        <ele>128.4</ele>
        <time>2024-09-07T08:14:39Z</time>
      </trkpt>
      <trkpt lat="47.99927" lon="-3.75723">
        <ele>128.4</ele>
        <time>2024-09-07T08:14:40Z</time>
      </trkpt>
      <trkpt lat="47.99928" lon="-3.7572">
        <ele>128.4</ele>
        <time>2024-09-07T08:14:41Z</time>
      </trkpt>
      <trkpt lat="47.99928" lon="-3.75716">
        <ele>128.4</ele>
        <time>2024-09-07T08:14:42Z</time>
      </trkpt>
      <trkpt lat="47.99928" lon="-3.75712">
        <ele>128.4</ele>
        <time>2024-09-07T08:14:43Z</time>
      </trkpt>
      <trkpt lat="47.99929" lon="-3.75708">
        <ele>128.6</ele>
        <time>2024-09-07T08:14:44Z</time>
      </trkpt>
      <trkpt lat="47.9993" lon="-3.75704">
        <ele>128.6</ele>
        <time>2024-09-07T08:14:45Z</time>
      </trkpt>
      <trkpt lat="47.99932" lon="-3.757">
        <ele>128.6</ele>
        <time>2024-09-07T08:14:46Z</time>
      </trkpt>
      <trkpt lat="47.99932" lon="-3.75696">
        <ele>128.6</ele>
        <time>2024-09-07T08:14:47Z</time>
      </trkpt>
      <trkpt lat="47.99933" lon="-3.75691">
        <ele>128.6</ele>
        <time>2024-09-07T08:14:48Z</time>
      </trkpt>
      <trkpt lat="47.99934" lon="-3.75687">
        <ele>128.6</ele>
        <time>2024-09-07T08:14:49Z</time>
      </trkpt>
      <trkpt lat="47.99935" lon="-3.75683">
        <ele>128.6</ele>
        <time>2024-09-07T08:14:50Z</time>
      </trkpt>
      <trkpt lat="47.99936" lon="-3.75679">
        <ele>128.6</ele>
        <time>2024-09-07T08:14:51Z</time>
      </trkpt>
      <trkpt lat="47.99937" lon="-3.75674">
        <ele>128.4</ele>
        <time>2024-09-07T08:14:52Z</time>
      </trkpt>
      <trkpt lat="47.99938" lon="-3.75669">
        <ele>128.2</ele>
        <time>2024-09-07T08:14:53Z</time>
      </trkpt>
      <trkpt lat="47.9994" lon="-3.75664">
        <ele>128.2</ele>
        <time>2024-09-07T08:14:54Z</time>
      </trkpt>
      <trkpt lat="47.99941" lon="-3.75659">
        <ele>128.2</ele>
        <time>2024-09-07T08:14:55Z</time>
      </trkpt>
      <trkpt lat="47.99941" lon="-3.75653">
        <ele>128</ele>
        <time>2024-09-07T08:14:56Z</time>
      </trkpt>
      <trkpt lat="47.99942" lon="-3.75648">
        <ele>128</ele>
        <time>2024-09-07T08:14:57Z</time>
      </trkpt>
      <trkpt lat="47.99943" lon="-3.75643">
        <ele>128</ele>
        <time>2024-09-07T08:14:58Z</time>
      </trkpt>
      <trkpt lat="47.99945" lon="-3.75637">
        <ele>128</ele>
        <time>2024-09-07T08:14:59Z</time>
      </trkpt>
      <trkpt lat="47.99947" lon="-3.7563">
        <ele>128</ele>
        <time>2024-09-07T08:15:00Z</time>
      </trkpt>
      <trkpt lat="47.99948" lon="-3.75624">
        <ele>127.8</ele>
        <time>2024-09-07T08:15:01Z</time>
      </trkpt>
      <trkpt lat="47.99949" lon="-3.75618">
        <ele>127.8</ele>
        <time>2024-09-07T08:15:02Z</time>
      </trkpt>
      <trkpt lat="47.9995" lon="-3.7561">
        <ele>127.8</ele>
        <time>2024-09-07T08:15:03Z</time>
      </trkpt>
      <trkpt lat="47.99951" lon="-3.75605">
        <ele>127.8</ele>
        <time>2024-09-07T08:15:04Z</time>
      </trkpt>
      <trkpt lat="47.99951" lon="-3.756">
        <ele>127.8</ele>
        <time>2024-09-07T08:15:05Z</time>
      </trkpt>
      <trkpt lat="47.99952" lon="-3.75594">
        <ele>127.8</ele>
        <time>2024-09-07T08:15:06Z</time>
      </trkpt>
      <trkpt lat="47.99953" lon="-3.75588">
        <ele>127.6</ele>
        <time>2024-09-07T08:15:07Z</time>
      </trkpt>
      <trkpt lat="47.99954" lon="-3.7558">
        <ele>127.6</ele>
        <time>2024-09-07T08:15:08Z</time>
      </trkpt>
      <trkpt lat="47.99954" lon="-3.75573">
        <ele>127.6</ele>
        <time>2024-09-07T08:15:09Z</time>
      </trkpt>
      <trkpt lat="47.99954" lon="-3.75567">
        <ele>127.6</ele>
        <time>2024-09-07T08:15:10Z</time>
      </trkpt>
      <trkpt lat="47.99955" lon="-3.75561">
        <ele>127.6</ele>
        <time>2024-09-07T08:15:11Z</time>
      </trkpt>
      <trkpt lat="47.99956" lon="-3.75557">
        <ele>127.6</ele>
        <time>2024-09-07T08:15:12Z</time>
      </trkpt>
      <trkpt lat="47.99958" lon="-3.75551">
        <ele>127.6</ele>
        <time>2024-09-07T08:15:13Z</time>
      </trkpt>
      <trkpt lat="47.9996" lon="-3.75547">
        <ele>127.6</ele>
        <time>2024-09-07T08:15:14Z</time>
      </trkpt>
      <trkpt lat="47.9996" lon="-3.75542">
        <ele>127.6</ele>
        <time>2024-09-07T08:15:15Z</time>
      </trkpt>
      <trkpt lat="47.9996" lon="-3.75537">
        <ele>127.6</ele>
        <time>2024-09-07T08:15:16Z</time>
      </trkpt>
      <trkpt lat="47.99961" lon="-3.75531">
        <ele>127.8</ele>
        <time>2024-09-07T08:15:17Z</time>
      </trkpt>
      <trkpt lat="47.99962" lon="-3.75526">
        <ele>127.8</ele>
        <time>2024-09-07T08:15:18Z</time>
      </trkpt>
      <trkpt lat="47.99962" lon="-3.75519">
        <ele>127.8</ele>
        <time>2024-09-07T08:15:19Z</time>
      </trkpt>
      <trkpt lat="47.99964" lon="-3.75513">
        <ele>127.8</ele>
        <time>2024-09-07T08:15:20Z</time>
      </trkpt>
      <trkpt lat="47.99966" lon="-3.75508">
        <ele>127.8</ele>
        <time>2024-09-07T08:15:21Z</time>
      </trkpt>
      <trkpt lat="47.99968" lon="-3.75503">
        <ele>127.8</ele>
        <time>2024-09-07T08:15:22Z</time>
      </trkpt>
      <trkpt lat="47.99969" lon="-3.75497">
        <ele>128</ele>
        <time>2024-09-07T08:15:23Z</time>
      </trkpt>
      <trkpt lat="47.99971" lon="-3.7549">
        <ele>128</ele>
        <time>2024-09-07T08:15:24Z</time>
      </trkpt>
      <trkpt lat="47.99973" lon="-3.75484">
        <ele>128</ele>
        <time>2024-09-07T08:15:25Z</time>
      </trkpt>
      <trkpt lat="47.99975" lon="-3.75478">
        <ele>128</ele>
        <time>2024-09-07T08:15:26Z</time>
      </trkpt>
      <trkpt lat="47.99977" lon="-3.75471">
        <ele>128</ele>
        <time>2024-09-07T08:15:27Z</time>
      </trkpt>
      <trkpt lat="47.99979" lon="-3.75465">
        <ele>128</ele>
        <time>2024-09-07T08:15:28Z</time>
      </trkpt>
      <trkpt lat="47.99981" lon="-3.7546">
        <ele>128</ele>
        <time>2024-09-07T08:15:29Z</time>
      </trkpt>
      <trkpt lat="47.99983" lon="-3.75455">
        <ele>128</ele>
        <time>2024-09-07T08:15:30Z</time>
      </trkpt>
      <trkpt lat="47.99985" lon="-3.75448">
        <ele>128</ele>
        <time>2024-09-07T08:15:31Z</time>
      </trkpt>
      <trkpt lat="47.99987" lon="-3.75442">
        <ele>128</ele>
        <time>2024-09-07T08:15:32Z</time>
      </trkpt>
      <trkpt lat="47.99989" lon="-3.75435">
        <ele>128</ele>
        <time>2024-09-07T08:15:33Z</time>
      </trkpt>
      <trkpt lat="47.99991" lon="-3.75429">
        <ele>128</ele>
        <time>2024-09-07T08:15:34Z</time>
      </trkpt>
      <trkpt lat="47.99992" lon="-3.75423">
        <ele>128</ele>
        <time>2024-09-07T08:15:35Z</time>
      </trkpt>
      <trkpt lat="47.99994" lon="-3.75417">
        <ele>128</ele>
        <time>2024-09-07T08:15:36Z</time>
      </trkpt>
      <trkpt lat="47.99996" lon="-3.75411">
        <ele>128</ele>
        <time>2024-09-07T08:15:37Z</time>
      </trkpt>
      <trkpt lat="47.99999" lon="-3.75405">
        <ele>128</ele>
        <time>2024-09-07T08:15:38Z</time>
      </trkpt>
      <trkpt lat="48.00001" lon="-3.754">
        <ele>128</ele>
        <time>2024-09-07T08:15:39Z</time>
      </trkpt>
      <trkpt lat="48.00002" lon="-3.75394">
        <ele>128</ele>
        <time>2024-09-07T08:15:40Z</time>
      </trkpt>
      <trkpt lat="48.00005" lon="-3.75387">
        <ele>128</ele>
        <time>2024-09-07T08:15:41Z</time>
      </trkpt>
      <trkpt lat="48.00007" lon="-3.75382">
        <ele>128</ele>
        <time>2024-09-07T08:15:42Z</time>
      </trkpt>
      <trkpt lat="48.00009" lon="-3.75376">
        <ele>128</ele>
        <time>2024-09-07T08:15:43Z</time>
      </trkpt>
      <trkpt lat="48.00012" lon="-3.75371">
        <ele>128</ele>
        <time>2024-09-07T08:15:44Z</time>
      </trkpt>
      <trkpt lat="48.00014" lon="-3.75366">
        <ele>128</ele>
        <time>2024-09-07T08:15:45Z</time>
      </trkpt>
      <trkpt lat="48.00016" lon="-3.75362">
        <ele>127.8</ele>
        <time>2024-09-07T08:15:46Z</time>
      </trkpt>
      <trkpt lat="48.00018" lon="-3.75357">
        <ele>127.8</ele>
        <time>2024-09-07T08:15:47Z</time>
      </trkpt>
      <trkpt lat="48.00019" lon="-3.75352">
        <ele>127.8</ele>
        <time>2024-09-07T08:15:48Z</time>
      </trkpt>
      <trkpt lat="48.0002" lon="-3.75348">
        <ele>127.8</ele>
        <time>2024-09-07T08:15:49Z</time>
      </trkpt>
      <trkpt lat="48.00021" lon="-3.75344">
        <ele>127.8</ele>
        <time>2024-09-07T08:15:50Z</time>
      </trkpt>
      <trkpt lat="48.00025" lon="-3.75338">
        <ele>127.8</ele>
        <time>2024-09-07T08:15:51Z</time>
      </trkpt>
      <trkpt lat="48.00028" lon="-3.7533">
        <ele>127.8</ele>
        <time>2024-09-07T08:15:52Z</time>
      </trkpt>
      <trkpt lat="48.00032" lon="-3.75323">
        <ele>127.8</ele>
        <time>2024-09-07T08:15:53Z</time>
      </trkpt>
      <trkpt lat="48.00035" lon="-3.75317">
        <ele>127.8</ele>
        <time>2024-09-07T08:15:54Z</time>
      </trkpt>
      <trkpt lat="48.00038" lon="-3.75312">
        <ele>128</ele>
        <time>2024-09-07T08:15:55Z</time>
      </trkpt>
      <trkpt lat="48.00042" lon="-3.75306">
        <ele>128</ele>
        <time>2024-09-07T08:15:56Z</time>
      </trkpt>
      <trkpt lat="48.00045" lon="-3.75299">
        <ele>128</ele>
        <time>2024-09-07T08:15:57Z</time>
      </trkpt>
      <trkpt lat="48.00051" lon="-3.75292">
        <ele>128.2</ele>
        <time>2024-09-07T08:15:58Z</time>
      </trkpt>
      <trkpt lat="48.00054" lon="-3.75285">
        <ele>128.2</ele>
        <time>2024-09-07T08:15:59Z</time>
      </trkpt>
      <trkpt lat="48.00057" lon="-3.75278">
        <ele>128.2</ele>
        <time>2024-09-07T08:16:00Z</time>
      </trkpt>
      <trkpt lat="48.00059" lon="-3.75273">
        <ele>128.2</ele>
        <time>2024-09-07T08:16:01Z</time>
      </trkpt>
      <trkpt lat="48.00062" lon="-3.75269">
        <ele>128.2</ele>
        <time>2024-09-07T08:16:02Z</time>
      </trkpt>
      <trkpt lat="48.00064" lon="-3.75264">
        <ele>128.2</ele>
        <time>2024-09-07T08:16:03Z</time>
      </trkpt>
      <trkpt lat="48.00068" lon="-3.75258">
        <ele>128.2</ele>
        <time>2024-09-07T08:16:04Z</time>
      </trkpt>
      <trkpt lat="48.00072" lon="-3.75253">
        <ele>128.2</ele>
        <time>2024-09-07T08:16:05Z</time>
      </trkpt>
      <trkpt lat="48.00074" lon="-3.75245">
        <ele>128.4</ele>
        <time>2024-09-07T08:16:06Z</time>
      </trkpt>
      <trkpt lat="48.00076" lon="-3.75236">
        <ele>128.4</ele>
        <time>2024-09-07T08:16:07Z</time>
      </trkpt>
      <trkpt lat="48.00078" lon="-3.75232">
        <ele>128.4</ele>
        <time>2024-09-07T08:16:08Z</time>
      </trkpt>
      <trkpt lat="48.0008" lon="-3.75226">
        <ele>128.4</ele>
        <time>2024-09-07T08:16:09Z</time>
      </trkpt>
      <trkpt lat="48.00083" lon="-3.75221">
        <ele>128.4</ele>
        <time>2024-09-07T08:16:10Z</time>
      </trkpt>
      <trkpt lat="48.00086" lon="-3.75215">
        <ele>128.4</ele>
        <time>2024-09-07T08:16:11Z</time>
      </trkpt>
      <trkpt lat="48.00087" lon="-3.7521">
        <ele>128.4</ele>
        <time>2024-09-07T08:16:12Z</time>
      </trkpt>
      <trkpt lat="48.0009" lon="-3.75203">
        <ele>128.6</ele>
        <time>2024-09-07T08:16:13Z</time>
      </trkpt>
      <trkpt lat="48.00095" lon="-3.75196">
        <ele>128.6</ele>
        <time>2024-09-07T08:16:14Z</time>
      </trkpt>
      <trkpt lat="48.00096" lon="-3.75191">
        <ele>128.6</ele>
        <time>2024-09-07T08:16:15Z</time>
      </trkpt>
      <trkpt lat="48.00097" lon="-3.75186">
        <ele>128.6</ele>
        <time>2024-09-07T08:16:16Z</time>
      </trkpt>
      <trkpt lat="48.001" lon="-3.75182">
        <ele>128.6</ele>
        <time>2024-09-07T08:16:17Z</time>
      </trkpt>
      <trkpt lat="48.00105" lon="-3.75176">
        <ele>128.6</ele>
        <time>2024-09-07T08:16:18Z</time>
      </trkpt>
      <trkpt lat="48.00108" lon="-3.75169">
        <ele>128.8</ele>
        <time>2024-09-07T08:16:19Z</time>
      </trkpt>
      <trkpt lat="48.00111" lon="-3.75163">
        <ele>128.8</ele>
        <time>2024-09-07T08:16:20Z</time>
      </trkpt>
      <trkpt lat="48.00113" lon="-3.75157">
        <ele>128.8</ele>
        <time>2024-09-07T08:16:21Z</time>
      </trkpt>
      <trkpt lat="48.00117" lon="-3.75151">
        <ele>129</ele>
        <time>2024-09-07T08:16:22Z</time>
      </trkpt>
      <trkpt lat="48.00119" lon="-3.75145">
        <ele>129</ele>
        <time>2024-09-07T08:16:23Z</time>
      </trkpt>
      <trkpt lat="48.00121" lon="-3.7514">
        <ele>129</ele>
        <time>2024-09-07T08:16:24Z</time>
      </trkpt>
      <trkpt lat="48.00124" lon="-3.75136">
        <ele>129</ele>
        <time>2024-09-07T08:16:25Z</time>
      </trkpt>
      <trkpt lat="48.00125" lon="-3.75132">
        <ele>129</ele>
        <time>2024-09-07T08:16:26Z</time>
      </trkpt>
      <trkpt lat="48.00128" lon="-3.75127">
        <ele>129.2</ele>
        <time>2024-09-07T08:16:27Z</time>
      </trkpt>
      <trkpt lat="48.0013" lon="-3.75123">
        <ele>129.2</ele>
        <time>2024-09-07T08:16:28Z</time>
      </trkpt>
      <trkpt lat="48.00132" lon="-3.7512">
        <ele>129.2</ele>
        <time>2024-09-07T08:16:29Z</time>
      </trkpt>
      <trkpt lat="48.00134" lon="-3.75116">
        <ele>129.2</ele>
        <time>2024-09-07T08:16:30Z</time>
      </trkpt>
      <trkpt lat="48.00136" lon="-3.75113">
        <ele>129.2</ele>
        <time>2024-09-07T08:16:31Z</time>
      </trkpt>
      <trkpt lat="48.00137" lon="-3.7511">
        <ele>129.2</ele>
        <time>2024-09-07T08:16:32Z</time>
      </trkpt>
      <trkpt lat="48.00139" lon="-3.75107">
        <ele>129.2</ele>
        <time>2024-09-07T08:16:33Z</time>
      </trkpt>
      <trkpt lat="48.00141" lon="-3.75104">
        <ele>129.2</ele>
        <time>2024-09-07T08:16:34Z</time>
      </trkpt>
      <trkpt lat="48.00143" lon="-3.75102">
        <ele>129.4</ele>
        <time>2024-09-07T08:16:35Z</time>
      </trkpt>
      <trkpt lat="48.00144" lon="-3.75099">
        <ele>129.4</ele>
        <time>2024-09-07T08:16:36Z</time>
      </trkpt>
      <trkpt lat="48.00147" lon="-3.75097">
        <ele>129.4</ele>
        <time>2024-09-07T08:16:37Z</time>
      </trkpt>
      <trkpt lat="48.00148" lon="-3.75095">
        <ele>129.6</ele>
        <time>2024-09-07T08:16:38Z</time>
      </trkpt>
      <trkpt lat="48.00151" lon="-3.75092">
        <ele>129.6</ele>
        <time>2024-09-07T08:16:39Z</time>
      </trkpt>
      <trkpt lat="48.00152" lon="-3.7509">
        <ele>129.6</ele>
        <time>2024-09-07T08:16:40Z</time>
      </trkpt>
      <trkpt lat="48.00154" lon="-3.75087">
        <ele>129.6</ele>
        <time>2024-09-07T08:16:41Z</time>
      </trkpt>
      <trkpt lat="48.00157" lon="-3.75085">
        <ele>129.6</ele>
        <time>2024-09-07T08:16:42Z</time>
      </trkpt>
      <trkpt lat="48.00159" lon="-3.75082">
        <ele>129.8</ele>
        <time>2024-09-07T08:16:43Z</time>
      </trkpt>
      <trkpt lat="48.00161" lon="-3.7508">
        <ele>129.8</ele>
        <time>2024-09-07T08:16:44Z</time>
      </trkpt>
      <trkpt lat="48.00163" lon="-3.75078">
        <ele>129.8</ele>
        <time>2024-09-07T08:16:45Z</time>
      </trkpt>
      <trkpt lat="48.00165" lon="-3.75076">
        <ele>129.8</ele>
        <time>2024-09-07T08:16:46Z</time>
      </trkpt>
      <trkpt lat="48.00167" lon="-3.75074">
        <ele>129.8</ele>
        <time>2024-09-07T08:16:47Z</time>
      </trkpt>
      <trkpt lat="48.0017" lon="-3.75072">
        <ele>129.8</ele>
        <time>2024-09-07T08:16:48Z</time>
      </trkpt>
      <trkpt lat="48.00172" lon="-3.7507">
        <ele>129.8</ele>
        <time>2024-09-07T08:16:49Z</time>
      </trkpt>
      <trkpt lat="48.00173" lon="-3.75069">
        <ele>130</ele>
        <time>2024-09-07T08:16:50Z</time>
      </trkpt>
      <trkpt lat="48.00175" lon="-3.75067">
        <ele>130</ele>
        <time>2024-09-07T08:16:51Z</time>
      </trkpt>
      <trkpt lat="48.00177" lon="-3.75063">
        <ele>130</ele>
        <time>2024-09-07T08:16:52Z</time>
      </trkpt>
      <trkpt lat="48.00178" lon="-3.7506">
        <ele>130.2</ele>
        <time>2024-09-07T08:16:53Z</time>
      </trkpt>
      <trkpt lat="48.00179" lon="-3.75058">
        <ele>130.2</ele>
        <time>2024-09-07T08:16:54Z</time>
      </trkpt>
      <trkpt lat="48.0018" lon="-3.75057">
        <ele>130.2</ele>
        <time>2024-09-07T08:16:55Z</time>
      </trkpt>
      <trkpt lat="48.00181" lon="-3.75055">
        <ele>130.4</ele>
        <time>2024-09-07T08:16:56Z</time>
      </trkpt>
      <trkpt lat="48.00183" lon="-3.75053">
        <ele>130.4</ele>
        <time>2024-09-07T08:16:57Z</time>
      </trkpt>
      <trkpt lat="48.00186" lon="-3.75051">
        <ele>130.4</ele>
        <time>2024-09-07T08:16:58Z</time>
      </trkpt>
      <trkpt lat="48.00188" lon="-3.75048">
        <ele>130.4</ele>
        <time>2024-09-07T08:16:59Z</time>
      </trkpt>
      <trkpt lat="48.00191" lon="-3.75044">
        <ele>130.4</ele>
        <time>2024-09-07T08:17:00Z</time>
      </trkpt>
      <trkpt lat="48.00194" lon="-3.75041">
        <ele>130.4</ele>
        <time>2024-09-07T08:17:01Z</time>
      </trkpt>
      <trkpt lat="48.00197" lon="-3.75038">
        <ele>130.4</ele>
        <time>2024-09-07T08:17:02Z</time>
      </trkpt>
      <trkpt lat="48.002" lon="-3.75035">
        <ele>130.4</ele>
        <time>2024-09-07T08:17:03Z</time>
      </trkpt>
      <trkpt lat="48.00203" lon="-3.75032">
        <ele>130.4</ele>
        <time>2024-09-07T08:17:04Z</time>
      </trkpt>
      <trkpt lat="48.00206" lon="-3.75028">
        <ele>130.4</ele>
        <time>2024-09-07T08:17:05Z</time>
      </trkpt>
      <trkpt lat="48.00208" lon="-3.75025">
        <ele>130.4</ele>
        <time>2024-09-07T08:17:06Z</time>
      </trkpt>
      <trkpt lat="48.00211" lon="-3.75023">
        <ele>130.4</ele>
        <time>2024-09-07T08:17:07Z</time>
      </trkpt>
      <trkpt lat="48.00213" lon="-3.75022">
        <ele>130.4</ele>
        <time>2024-09-07T08:17:08Z</time>
      </trkpt>
      <trkpt lat="48.00214" lon="-3.75019">
        <ele>130.4</ele>
        <time>2024-09-07T08:17:09Z</time>
      </trkpt>
      <trkpt lat="48.00216" lon="-3.75017">
        <ele>130.4</ele>
        <time>2024-09-07T08:17:10Z</time>
      </trkpt>
      <trkpt lat="48.00218" lon="-3.75014">
        <ele>130.4</ele>
        <time>2024-09-07T08:17:11Z</time>
      </trkpt>
      <trkpt lat="48.0022" lon="-3.75013">
        <ele>130.4</ele>
        <time>2024-09-07T08:17:12Z</time>
      </trkpt>
      <trkpt lat="48.00222" lon="-3.75011">
        <ele>130.4</ele>
        <time>2024-09-07T08:17:13Z</time>
      </trkpt>
      <trkpt lat="48.00224" lon="-3.7501">
        <ele>130.6</ele>
        <time>2024-09-07T08:17:14Z</time>
      </trkpt>
      <trkpt lat="48.00227" lon="-3.75008">
        <ele>130.6</ele>
        <time>2024-09-07T08:17:15Z</time>
      </trkpt>
      <trkpt lat="48.00231" lon="-3.75005">
        <ele>130.6</ele>
        <time>2024-09-07T08:17:16Z</time>
      </trkpt>
      <trkpt lat="48.00234" lon="-3.75003">
        <ele>130.6</ele>
        <time>2024-09-07T08:17:17Z</time>
      </trkpt>
      <trkpt lat="48.00237" lon="-3.75">
        <ele>130.6</ele>
        <time>2024-09-07T08:17:18Z</time>
      </trkpt>
      <trkpt lat="48.0024" lon="-3.74999">
        <ele>130.6</ele>
        <time>2024-09-07T08:17:19Z</time>
      </trkpt>
      <trkpt lat="48.00242" lon="-3.74997">
        <ele>130.8</ele>
        <time>2024-09-07T08:17:20Z</time>
      </trkpt>
      <trkpt lat="48.00246" lon="-3.74995">
        <ele>130.8</ele>
        <time>2024-09-07T08:17:21Z</time>
      </trkpt>
      <trkpt lat="48.0025" lon="-3.74992">
        <ele>130.8</ele>
        <time>2024-09-07T08:17:22Z</time>
      </trkpt>
      <trkpt lat="48.00255" lon="-3.74989">
        <ele>130.8</ele>
        <time>2024-09-07T08:17:23Z</time>
      </trkpt>
      <trkpt lat="48.00259" lon="-3.74987">
        <ele>130.8</ele>
        <time>2024-09-07T08:17:24Z</time>
      </trkpt>
      <trkpt lat="48.00263" lon="-3.74984">
        <ele>131</ele>
        <time>2024-09-07T08:17:25Z</time>
      </trkpt>
      <trkpt lat="48.00266" lon="-3.74981">
        <ele>131.2</ele>
        <time>2024-09-07T08:17:26Z</time>
      </trkpt>
      <trkpt lat="48.00269" lon="-3.74979">
        <ele>131.2</ele>
        <time>2024-09-07T08:17:27Z</time>
      </trkpt>
      <trkpt lat="48.00271" lon="-3.74977">
        <ele>131.2</ele>
        <time>2024-09-07T08:17:28Z</time>
      </trkpt>
      <trkpt lat="48.00274" lon="-3.74975">
        <ele>131.2</ele>
        <time>2024-09-07T08:17:29Z</time>
      </trkpt>
      <trkpt lat="48.00277" lon="-3.74972">
        <ele>131.2</ele>
        <time>2024-09-07T08:17:30Z</time>
      </trkpt>
      <trkpt lat="48.00281" lon="-3.7497">
        <ele>131.4</ele>
        <time>2024-09-07T08:17:31Z</time>
      </trkpt>
      <trkpt lat="48.00285" lon="-3.74967">
        <ele>131.4</ele>
        <time>2024-09-07T08:17:32Z</time>
      </trkpt>
      <trkpt lat="48.00288" lon="-3.74964">
        <ele>131.4</ele>
        <time>2024-09-07T08:17:33Z</time>
      </trkpt>
      <trkpt lat="48.00291" lon="-3.74961">
        <ele>131.4</ele>
        <time>2024-09-07T08:17:34Z</time>
      </trkpt>
      <trkpt lat="48.00294" lon="-3.74959">
        <ele>131.4</ele>
        <time>2024-09-07T08:17:35Z</time>
      </trkpt>
      <trkpt lat="48.00297" lon="-3.74956">
        <ele>131.4</ele>
        <time>2024-09-07T08:17:36Z</time>
      </trkpt>
      <trkpt lat="48.003" lon="-3.74953">
        <ele>131.4</ele>
        <time>2024-09-07T08:17:37Z</time>
      </trkpt>
      <trkpt lat="48.00305" lon="-3.74949">
        <ele>131.6</ele>
        <time>2024-09-07T08:17:38Z</time>
      </trkpt>
      <trkpt lat="48.0031" lon="-3.74946">
        <ele>131.6</ele>
        <time>2024-09-07T08:17:39Z</time>
      </trkpt>
      <trkpt lat="48.00314" lon="-3.74943">
        <ele>131.8</ele>
        <time>2024-09-07T08:17:40Z</time>
      </trkpt>
      <trkpt lat="48.00319" lon="-3.74938">
        <ele>131.8</ele>
        <time>2024-09-07T08:17:41Z</time>
      </trkpt>
      <trkpt lat="48.00324" lon="-3.74932">
        <ele>132</ele>
        <time>2024-09-07T08:17:42Z</time>
      </trkpt>
      <trkpt lat="48.00329" lon="-3.7493">
        <ele>132.2</ele>
        <time>2024-09-07T08:17:43Z</time>
      </trkpt>
      <trkpt lat="48.00333" lon="-3.74927">
        <ele>132.2</ele>
        <time>2024-09-07T08:17:44Z</time>
      </trkpt>
      <trkpt lat="48.00338" lon="-3.74924">
        <ele>132.2</ele>
        <time>2024-09-07T08:17:45Z</time>
      </trkpt>
      <trkpt lat="48.00341" lon="-3.74923">
        <ele>132.4</ele>
        <time>2024-09-07T08:17:46Z</time>
      </trkpt>
      <trkpt lat="48.00343" lon="-3.74921">
        <ele>132.4</ele>
        <time>2024-09-07T08:17:47Z</time>
      </trkpt>
      <trkpt lat="48.00345" lon="-3.7492">
        <ele>132.6</ele>
        <time>2024-09-07T08:17:48Z</time>
      </trkpt>
      <trkpt lat="48.00348" lon="-3.74917">
        <ele>132.6</ele>
        <time>2024-09-07T08:17:49Z</time>
      </trkpt>
      <trkpt lat="48.00351" lon="-3.74915">
        <ele>132.6</ele>
        <time>2024-09-07T08:17:50Z</time>
      </trkpt>
      <trkpt lat="48.00354" lon="-3.74912">
        <ele>132.8</ele>
        <time>2024-09-07T08:17:51Z</time>
      </trkpt>
      <trkpt lat="48.00356" lon="-3.74909">
        <ele>132.8</ele>
        <time>2024-09-07T08:17:52Z</time>
      </trkpt>
      <trkpt lat="48.00359" lon="-3.74907">
        <ele>132.8</ele>
        <time>2024-09-07T08:17:53Z</time>
      </trkpt>
      <trkpt lat="48.00361" lon="-3.74905">
        <ele>133</ele>
        <time>2024-09-07T08:17:54Z</time>
      </trkpt>
      <trkpt lat="48.00363" lon="-3.74903">
        <ele>133</ele>
        <time>2024-09-07T08:17:55Z</time>
      </trkpt>
      <trkpt lat="48.00366" lon="-3.74901">
        <ele>133</ele>
        <time>2024-09-07T08:17:56Z</time>
      </trkpt>
      <trkpt lat="48.00368" lon="-3.74899">
        <ele>133</ele>
        <time>2024-09-07T08:17:57Z</time>
      </trkpt>
      <trkpt lat="48.0037" lon="-3.74898">
        <ele>133.2</ele>
        <time>2024-09-07T08:17:58Z</time>
      </trkpt>
      <trkpt lat="48.00373" lon="-3.74895">
        <ele>133.2</ele>
        <time>2024-09-07T08:17:59Z</time>
      </trkpt>
      <trkpt lat="48.00376" lon="-3.74893">
        <ele>133.2</ele>
        <time>2024-09-07T08:18:00Z</time>
      </trkpt>
      <trkpt lat="48.00379" lon="-3.7489">
        <ele>133.4</ele>
        <time>2024-09-07T08:18:01Z</time>
      </trkpt>
      <trkpt lat="48.00382" lon="-3.74889">
        <ele>133.4</ele>
        <time>2024-09-07T08:18:02Z</time>
      </trkpt>
      <trkpt lat="48.00385" lon="-3.74887">
        <ele>133.6</ele>
        <time>2024-09-07T08:18:03Z</time>
      </trkpt>
      <trkpt lat="48.00387" lon="-3.74885">
        <ele>133.6</ele>
        <time>2024-09-07T08:18:04Z</time>
      </trkpt>
      <trkpt lat="48.00389" lon="-3.74884">
        <ele>133.8</ele>
        <time>2024-09-07T08:18:05Z</time>
      </trkpt>
      <trkpt lat="48.00392" lon="-3.74882">
        <ele>133.8</ele>
        <time>2024-09-07T08:18:06Z</time>
      </trkpt>
      <trkpt lat="48.00396" lon="-3.74879">
        <ele>134</ele>
        <time>2024-09-07T08:18:07Z</time>
      </trkpt>
      <trkpt lat="48.00399" lon="-3.74876">
        <ele>134</ele>
        <time>2024-09-07T08:18:08Z</time>
      </trkpt>
      <trkpt lat="48.00402" lon="-3.74872">
        <ele>134</ele>
        <time>2024-09-07T08:18:09Z</time>
      </trkpt>
      <trkpt lat="48.00406" lon="-3.7487">
        <ele>134.2</ele>
        <time>2024-09-07T08:18:10Z</time>
      </trkpt>
      <trkpt lat="48.00409" lon="-3.74867">
        <ele>134.2</ele>
        <time>2024-09-07T08:18:11Z</time>
      </trkpt>
      <trkpt lat="48.00412" lon="-3.74864">
        <ele>134.2</ele>
        <time>2024-09-07T08:18:12Z</time>
      </trkpt>
      <trkpt lat="48.00415" lon="-3.74861">
        <ele>134.4</ele>
        <time>2024-09-07T08:18:13Z</time>
      </trkpt>
      <trkpt lat="48.00419" lon="-3.74858">
        <ele>134.4</ele>
        <time>2024-09-07T08:18:14Z</time>
      </trkpt>
      <trkpt lat="48.00423" lon="-3.74855">
        <ele>134.4</ele>
        <time>2024-09-07T08:18:15Z</time>
      </trkpt>
      <trkpt lat="48.00426" lon="-3.74853">
        <ele>134.4</ele>
        <time>2024-09-07T08:18:16Z</time>
      </trkpt>
      <trkpt lat="48.0043" lon="-3.7485">
        <ele>134.6</ele>
        <time>2024-09-07T08:18:17Z</time>
      </trkpt>
      <trkpt lat="48.00434" lon="-3.74847">
        <ele>134.6</ele>
        <time>2024-09-07T08:18:18Z</time>
      </trkpt>
      <trkpt lat="48.00437" lon="-3.74844">
        <ele>134.6</ele>
        <time>2024-09-07T08:18:19Z</time>
      </trkpt>
      <trkpt lat="48.00441" lon="-3.74841">
        <ele>135</ele>
        <time>2024-09-07T08:18:20Z</time>
      </trkpt>
      <trkpt lat="48.00443" lon="-3.74838">
        <ele>134.8</ele>
        <time>2024-09-07T08:18:21Z</time>
      </trkpt>
      <trkpt lat="48.00446" lon="-3.74835">
        <ele>135</ele>
        <time>2024-09-07T08:18:22Z</time>
      </trkpt>
      <trkpt lat="48.00449" lon="-3.74832">
        <ele>135</ele>
        <time>2024-09-07T08:18:23Z</time>
      </trkpt>
      <trkpt lat="48.00451" lon="-3.74828">
        <ele>135.2</ele>
        <time>2024-09-07T08:18:24Z</time>
      </trkpt>
      <trkpt lat="48.00455" lon="-3.74824">
        <ele>135.2</ele>
        <time>2024-09-07T08:18:25Z</time>
      </trkpt>
      <trkpt lat="48.0046" lon="-3.7482">
        <ele>135.2</ele>
        <time>2024-09-07T08:18:26Z</time>
      </trkpt>
      <trkpt lat="48.00462" lon="-3.74816">
        <ele>135.2</ele>
        <time>2024-09-07T08:18:27Z</time>
      </trkpt>
      <trkpt lat="48.00465" lon="-3.74811">
        <ele>135.6</ele>
        <time>2024-09-07T08:18:28Z</time>
      </trkpt>
      <trkpt lat="48.00468" lon="-3.74808">
        <ele>135.6</ele>
        <time>2024-09-07T08:18:29Z</time>
      </trkpt>
      <trkpt lat="48.0047" lon="-3.74806">
        <ele>135.6</ele>
        <time>2024-09-07T08:18:30Z</time>
      </trkpt>
      <trkpt lat="48.00473" lon="-3.74804">
        <ele>135.6</ele>
        <time>2024-09-07T08:18:31Z</time>
      </trkpt>
      <trkpt lat="48.00475" lon="-3.74802">
        <ele>135.6</ele>
        <time>2024-09-07T08:18:32Z</time>
      </trkpt>
      <trkpt lat="48.00476" lon="-3.748">
        <ele>135.6</ele>
        <time>2024-09-07T08:18:33Z</time>
      </trkpt>
      <trkpt lat="48.00479" lon="-3.74797">
        <ele>135.6</ele>
        <time>2024-09-07T08:18:34Z</time>
      </trkpt>
      <trkpt lat="48.00483" lon="-3.74793">
        <ele>135.8</ele>
        <time>2024-09-07T08:18:35Z</time>
      </trkpt>
      <trkpt lat="48.00485" lon="-3.74791">
        <ele>135.8</ele>
        <time>2024-09-07T08:18:36Z</time>
      </trkpt>
      <trkpt lat="48.00487" lon="-3.74788">
        <ele>136</ele>
        <time>2024-09-07T08:18:37Z</time>
      </trkpt>
      <trkpt lat="48.00489" lon="-3.74785">
        <ele>136.2</ele>
        <time>2024-09-07T08:18:38Z</time>
      </trkpt>
      <trkpt lat="48.00491" lon="-3.74781">
        <ele>136.2</ele>
        <time>2024-09-07T08:18:39Z</time>
      </trkpt>
      <trkpt lat="48.00494" lon="-3.74778">
        <ele>136.2</ele>
        <time>2024-09-07T08:18:40Z</time>
      </trkpt>
      <trkpt lat="48.00495" lon="-3.74775">
        <ele>136.2</ele>
        <time>2024-09-07T08:18:41Z</time>
      </trkpt>
      <trkpt lat="48.00498" lon="-3.74772">
        <ele>136.4</ele>
        <time>2024-09-07T08:18:42Z</time>
      </trkpt>
      <trkpt lat="48.00501" lon="-3.74768">
        <ele>136.4</ele>
        <time>2024-09-07T08:18:43Z</time>
      </trkpt>
      <trkpt lat="48.00503" lon="-3.74764">
        <ele>136.4</ele>
        <time>2024-09-07T08:18:44Z</time>
      </trkpt>
      <trkpt lat="48.00505" lon="-3.74761">
        <ele>136.4</ele>
        <time>2024-09-07T08:18:45Z</time>
      </trkpt>
      <trkpt lat="48.00507" lon="-3.74757">
        <ele>136.6</ele>
        <time>2024-09-07T08:18:46Z</time>
      </trkpt>
      <trkpt lat="48.00509" lon="-3.74753">
        <ele>136.6</ele>
        <time>2024-09-07T08:18:47Z</time>
      </trkpt>
      <trkpt lat="48.0051" lon="-3.7475">
        <ele>136.6</ele>
        <time>2024-09-07T08:18:48Z</time>
      </trkpt>
      <trkpt lat="48.00512" lon="-3.74747">
        <ele>136.8</ele>
        <time>2024-09-07T08:18:49Z</time>
      </trkpt>
      <trkpt lat="48.00514" lon="-3.74744">
        <ele>136.8</ele>
        <time>2024-09-07T08:18:50Z</time>
      </trkpt>
      <trkpt lat="48.00516" lon="-3.7474">
        <ele>136.8</ele>
        <time>2024-09-07T08:18:51Z</time>
      </trkpt>
      <trkpt lat="48.00518" lon="-3.74736">
        <ele>137</ele>
        <time>2024-09-07T08:18:52Z</time>
      </trkpt>
      <trkpt lat="48.00521" lon="-3.74731">
        <ele>137</ele>
        <time>2024-09-07T08:18:53Z</time>
      </trkpt>
      <trkpt lat="48.00524" lon="-3.74727">
        <ele>137.2</ele>
        <time>2024-09-07T08:18:54Z</time>
      </trkpt>
      <trkpt lat="48.00526" lon="-3.74723">
        <ele>137.4</ele>
        <time>2024-09-07T08:18:55Z</time>
      </trkpt>
      <trkpt lat="48.00529" lon="-3.7472">
        <ele>137.4</ele>
        <time>2024-09-07T08:18:56Z</time>
      </trkpt>
      <trkpt lat="48.00532" lon="-3.74715">
        <ele>137.6</ele>
        <time>2024-09-07T08:18:57Z</time>
      </trkpt>
      <trkpt lat="48.00534" lon="-3.74711">
        <ele>137.6</ele>
        <time>2024-09-07T08:18:58Z</time>
      </trkpt>
      <trkpt lat="48.00536" lon="-3.74705">
        <ele>137.6</ele>
        <time>2024-09-07T08:18:59Z</time>
      </trkpt>
      <trkpt lat="48.00537" lon="-3.747">
        <ele>137.8</ele>
        <time>2024-09-07T08:19:00Z</time>
      </trkpt>
      <trkpt lat="48.00539" lon="-3.74694">
        <ele>138</ele>
        <time>2024-09-07T08:19:01Z</time>
      </trkpt>
      <trkpt lat="48.00541" lon="-3.7469">
        <ele>138</ele>
        <time>2024-09-07T08:19:02Z</time>
      </trkpt>
      <trkpt lat="48.00544" lon="-3.74684">
        <ele>138.2</ele>
        <time>2024-09-07T08:19:03Z</time>
      </trkpt>
      <trkpt lat="48.00545" lon="-3.7468">
        <ele>138.2</ele>
        <time>2024-09-07T08:19:04Z</time>
      </trkpt>
      <trkpt lat="48.00548" lon="-3.74675">
        <ele>138.2</ele>
        <time>2024-09-07T08:19:05Z</time>
      </trkpt>
      <trkpt lat="48.00549" lon="-3.74671">
        <ele>138.2</ele>
        <time>2024-09-07T08:19:06Z</time>
      </trkpt>
      <trkpt lat="48.00552" lon="-3.74666">
        <ele>138.4</ele>
        <time>2024-09-07T08:19:07Z</time>
      </trkpt>
      <trkpt lat="48.00554" lon="-3.74661">
        <ele>138.4</ele>
        <time>2024-09-07T08:19:08Z</time>
      </trkpt>
      <trkpt lat="48.00556" lon="-3.74655">
        <ele>138.4</ele>
        <time>2024-09-07T08:19:09Z</time>
      </trkpt>
      <trkpt lat="48.00558" lon="-3.74649">
        <ele>138.6</ele>
        <time>2024-09-07T08:19:10Z</time>
      </trkpt>
      <trkpt lat="48.0056" lon="-3.74644">
        <ele>138.6</ele>
        <time>2024-09-07T08:19:11Z</time>
      </trkpt>
      <trkpt lat="48.00563" lon="-3.74638">
        <ele>138.6</ele>
        <time>2024-09-07T08:19:12Z</time>
      </trkpt>
      <trkpt lat="48.00564" lon="-3.74632">
        <ele>138.8</ele>
        <time>2024-09-07T08:19:13Z</time>
      </trkpt>
      <trkpt lat="48.00566" lon="-3.74625">
        <ele>138.8</ele>
        <time>2024-09-07T08:19:14Z</time>
      </trkpt>
      <trkpt lat="48.00567" lon="-3.74619">
        <ele>139</ele>
        <time>2024-09-07T08:19:15Z</time>
      </trkpt>
      <trkpt lat="48.00569" lon="-3.74614">
        <ele>139</ele>
        <time>2024-09-07T08:19:16Z</time>
      </trkpt>
      <trkpt lat="48.0057" lon="-3.74607">
        <ele>139</ele>
        <time>2024-09-07T08:19:17Z</time>
      </trkpt>
      <trkpt lat="48.00573" lon="-3.74601">
        <ele>139.2</ele>
        <time>2024-09-07T08:19:18Z</time>
      </trkpt>
      <trkpt lat="48.00574" lon="-3.74595">
        <ele>139.2</ele>
        <time>2024-09-07T08:19:19Z</time>
      </trkpt>
      <trkpt lat="48.00575" lon="-3.74591">
        <ele>139.4</ele>
        <time>2024-09-07T08:19:20Z</time>
      </trkpt>
      <trkpt lat="48.00576" lon="-3.74586">
        <ele>139.4</ele>
        <time>2024-09-07T08:19:21Z</time>
      </trkpt>
      <trkpt lat="48.00577" lon="-3.7458">
        <ele>139.4</ele>
        <time>2024-09-07T08:19:22Z</time>
      </trkpt>
      <trkpt lat="48.00577" lon="-3.74576">
        <ele>139.6</ele>
        <time>2024-09-07T08:19:23Z</time>
      </trkpt>
      <trkpt lat="48.00579" lon="-3.74571">
        <ele>139.6</ele>
        <time>2024-09-07T08:19:24Z</time>
      </trkpt>
      <trkpt lat="48.00579" lon="-3.74566">
        <ele>139.8</ele>
        <time>2024-09-07T08:19:25Z</time>
      </trkpt>
      <trkpt lat="48.0058" lon="-3.74561">
        <ele>139.8</ele>
        <time>2024-09-07T08:19:26Z</time>
      </trkpt>
      <trkpt lat="48.0058" lon="-3.74556">
        <ele>139.8</ele>
        <time>2024-09-07T08:19:27Z</time>
      </trkpt>
      <trkpt lat="48.00581" lon="-3.74551">
        <ele>139.8</ele>
        <time>2024-09-07T08:19:28Z</time>
      </trkpt>
      <trkpt lat="48.00582" lon="-3.74546">
        <ele>139.8</ele>
        <time>2024-09-07T08:19:29Z</time>
      </trkpt>
      <trkpt lat="48.00583" lon="-3.74541">
        <ele>140</ele>
        <time>2024-09-07T08:19:30Z</time>
      </trkpt>
      <trkpt lat="48.00585" lon="-3.74535">
        <ele>140</ele>
        <time>2024-09-07T08:19:31Z</time>
      </trkpt>
      <trkpt lat="48.00587" lon="-3.74529">
        <ele>140.2</ele>
        <time>2024-09-07T08:19:32Z</time>
      </trkpt>
      <trkpt lat="48.00589" lon="-3.74523">
        <ele>140.2</ele>
        <time>2024-09-07T08:19:33Z</time>
      </trkpt>
      <trkpt lat="48.00592" lon="-3.74516">
        <ele>140.4</ele>
        <time>2024-09-07T08:19:34Z</time>
      </trkpt>
      <trkpt lat="48.00594" lon="-3.7451">
        <ele>140.4</ele>
        <time>2024-09-07T08:19:35Z</time>
      </trkpt>
      <trkpt lat="48.00595" lon="-3.74504">
        <ele>140.4</ele>
        <time>2024-09-07T08:19:36Z</time>
      </trkpt>
      <trkpt lat="48.00597" lon="-3.74497">
        <ele>140.6</ele>
        <time>2024-09-07T08:19:37Z</time>
      </trkpt>
      <trkpt lat="48.00598" lon="-3.74491">
        <ele>140.8</ele>
        <time>2024-09-07T08:19:38Z</time>
      </trkpt>
      <trkpt lat="48.006" lon="-3.74485">
        <ele>140.8</ele>
        <time>2024-09-07T08:19:39Z</time>
      </trkpt>
      <trkpt lat="48.00602" lon="-3.74478">
        <ele>140.8</ele>
        <time>2024-09-07T08:19:40Z</time>
      </trkpt>
      <trkpt lat="48.00603" lon="-3.74472">
        <ele>141</ele>
        <time>2024-09-07T08:19:41Z</time>
      </trkpt>
      <trkpt lat="48.00605" lon="-3.74465">
        <ele>141</ele>
        <time>2024-09-07T08:19:42Z</time>
      </trkpt>
      <trkpt lat="48.00607" lon="-3.74459">
        <ele>141.2</ele>
        <time>2024-09-07T08:19:43Z</time>
      </trkpt>
      <trkpt lat="48.0061" lon="-3.74453">
        <ele>141.2</ele>
        <time>2024-09-07T08:19:44Z</time>
      </trkpt>
      <trkpt lat="48.00613" lon="-3.74446">
        <ele>141.2</ele>
        <time>2024-09-07T08:19:45Z</time>
      </trkpt>
      <trkpt lat="48.00615" lon="-3.7444">
        <ele>141.4</ele>
        <time>2024-09-07T08:19:46Z</time>
      </trkpt>
      <trkpt lat="48.00618" lon="-3.74433">
        <ele>141.4</ele>
        <time>2024-09-07T08:19:47Z</time>
      </trkpt>
      <trkpt lat="48.0062" lon="-3.74427">
        <ele>141.4</ele>
        <time>2024-09-07T08:19:48Z</time>
      </trkpt>
      <trkpt lat="48.00621" lon="-3.74421">
        <ele>141.4</ele>
        <time>2024-09-07T08:19:49Z</time>
      </trkpt>
      <trkpt lat="48.00623" lon="-3.74414">
        <ele>141.6</ele>
        <time>2024-09-07T08:19:50Z</time>
      </trkpt>
      <trkpt lat="48.00624" lon="-3.74408">
        <ele>141.6</ele>
        <time>2024-09-07T08:19:51Z</time>
      </trkpt>
      <trkpt lat="48.00625" lon="-3.74402">
        <ele>141.8</ele>
        <time>2024-09-07T08:19:52Z</time>
      </trkpt>
      <trkpt lat="48.00627" lon="-3.74394">
        <ele>141.8</ele>
        <time>2024-09-07T08:19:53Z</time>
      </trkpt>
      <trkpt lat="48.00629" lon="-3.74387">
        <ele>142</ele>
        <time>2024-09-07T08:19:54Z</time>
      </trkpt>
      <trkpt lat="48.00633" lon="-3.7438">
        <ele>142</ele>
        <time>2024-09-07T08:19:55Z</time>
      </trkpt>
      <trkpt lat="48.00635" lon="-3.74374">
        <ele>142.2</ele>
        <time>2024-09-07T08:19:56Z</time>
      </trkpt>
      <trkpt lat="48.00636" lon="-3.74367">
        <ele>142.4</ele>
        <time>2024-09-07T08:19:57Z</time>
      </trkpt>
      <trkpt lat="48.00637" lon="-3.74361">
        <ele>142.6</ele>
        <time>2024-09-07T08:19:58Z</time>
      </trkpt>
      <trkpt lat="48.00638" lon="-3.74354">
        <ele>142.6</ele>
        <time>2024-09-07T08:19:59Z</time>
      </trkpt>
      <trkpt lat="48.0064" lon="-3.74349">
        <ele>142.8</ele>
        <time>2024-09-07T08:20:00Z</time>
      </trkpt>
      <trkpt lat="48.00641" lon="-3.74343">
        <ele>142.8</ele>
        <time>2024-09-07T08:20:01Z</time>
      </trkpt>
      <trkpt lat="48.00644" lon="-3.74335">
        <ele>142.8</ele>
        <time>2024-09-07T08:20:02Z</time>
      </trkpt>
      <trkpt lat="48.00647" lon="-3.74327">
        <ele>142.8</ele>
        <time>2024-09-07T08:20:03Z</time>
      </trkpt>
      <trkpt lat="48.00651" lon="-3.74318">
        <ele>143</ele>
        <time>2024-09-07T08:20:04Z</time>
      </trkpt>
      <trkpt lat="48.00654" lon="-3.74312">
        <ele>143</ele>
        <time>2024-09-07T08:20:05Z</time>
      </trkpt>
      <trkpt lat="48.00656" lon="-3.74306">
        <ele>143</ele>
        <time>2024-09-07T08:20:06Z</time>
      </trkpt>
      <trkpt lat="48.00658" lon="-3.74301">
        <ele>143</ele>
        <time>2024-09-07T08:20:07Z</time>
      </trkpt>
      <trkpt lat="48.00659" lon="-3.74296">
        <ele>143</ele>
        <time>2024-09-07T08:20:08Z</time>
      </trkpt>
      <trkpt lat="48.00661" lon="-3.7429">
        <ele>143.2</ele>
        <time>2024-09-07T08:20:09Z</time>
      </trkpt>
      <trkpt lat="48.00661" lon="-3.74284">
        <ele>143.4</ele>
        <time>2024-09-07T08:20:10Z</time>
      </trkpt>
      <trkpt lat="48.00662" lon="-3.74278">
        <ele>143.4</ele>
        <time>2024-09-07T08:20:11Z</time>
      </trkpt>
      <trkpt lat="48.00663" lon="-3.74274">
        <ele>143.4</ele>
        <time>2024-09-07T08:20:12Z</time>
      </trkpt>
      <trkpt lat="48.00664" lon="-3.74269">
        <ele>143.6</ele>
        <time>2024-09-07T08:20:13Z</time>
      </trkpt>
      <trkpt lat="48.00665" lon="-3.74264">
        <ele>143.6</ele>
        <time>2024-09-07T08:20:14Z</time>
      </trkpt>
      <trkpt lat="48.00665" lon="-3.74259">
        <ele>143.8</ele>
        <time>2024-09-07T08:20:15Z</time>
      </trkpt>
      <trkpt lat="48.00666" lon="-3.74253">
        <ele>143.8</ele>
        <time>2024-09-07T08:20:16Z</time>
      </trkpt>
      <trkpt lat="48.00667" lon="-3.74248">
        <ele>144</ele>
        <time>2024-09-07T08:20:17Z</time>
      </trkpt>
      <trkpt lat="48.00667" lon="-3.74243">
        <ele>144</ele>
        <time>2024-09-07T08:20:18Z</time>
      </trkpt>
      <trkpt lat="48.00668" lon="-3.74239">
        <ele>144.2</ele>
        <time>2024-09-07T08:20:19Z</time>
      </trkpt>
      <trkpt lat="48.00668" lon="-3.74234">
        <ele>144.2</ele>
        <time>2024-09-07T08:20:20Z</time>
      </trkpt>
      <trkpt lat="48.00668" lon="-3.74229">
        <ele>144.4</ele>
        <time>2024-09-07T08:20:21Z</time>
      </trkpt>
      <trkpt lat="48.00669" lon="-3.74225">
        <ele>144.4</ele>
        <time>2024-09-07T08:20:22Z</time>
      </trkpt>
      <trkpt lat="48.00671" lon="-3.74217">
        <ele>144.6</ele>
        <time>2024-09-07T08:20:23Z</time>
      </trkpt>
      <trkpt lat="48.00673" lon="-3.74209">
        <ele>144.6</ele>
        <time>2024-09-07T08:20:24Z</time>
      </trkpt>
      <trkpt lat="48.00674" lon="-3.74203">
        <ele>144.8</ele>
        <time>2024-09-07T08:20:25Z</time>
      </trkpt>
      <trkpt lat="48.00674" lon="-3.74197">
        <ele>144.8</ele>
        <time>2024-09-07T08:20:26Z</time>
      </trkpt>
      <trkpt lat="48.00674" lon="-3.74192">
        <ele>145</ele>
        <time>2024-09-07T08:20:27Z</time>
      </trkpt>
      <trkpt lat="48.00675" lon="-3.74187">
        <ele>145</ele>
        <time>2024-09-07T08:20:28Z</time>
      </trkpt>
      <trkpt lat="48.00675" lon="-3.74182">
        <ele>145</ele>
        <time>2024-09-07T08:20:29Z</time>
      </trkpt>
      <trkpt lat="48.00676" lon="-3.74175">
        <ele>145</ele>
        <time>2024-09-07T08:20:30Z</time>
      </trkpt>
      <trkpt lat="48.00677" lon="-3.74169">
        <ele>145.2</ele>
        <time>2024-09-07T08:20:31Z</time>
      </trkpt>
      <trkpt lat="48.00678" lon="-3.74162">
        <ele>145.4</ele>
        <time>2024-09-07T08:20:32Z</time>
      </trkpt>
      <trkpt lat="48.00679" lon="-3.74156">
        <ele>145.4</ele>
        <time>2024-09-07T08:20:33Z</time>
      </trkpt>
      <trkpt lat="48.0068" lon="-3.74151">
        <ele>145.6</ele>
        <time>2024-09-07T08:20:34Z</time>
      </trkpt>
      <trkpt lat="48.0068" lon="-3.74146">
        <ele>145.8</ele>
        <time>2024-09-07T08:20:35Z</time>
      </trkpt>
      <trkpt lat="48.00681" lon="-3.74142">
        <ele>145.8</ele>
        <time>2024-09-07T08:20:36Z</time>
      </trkpt>
      <trkpt lat="48.00682" lon="-3.74138">
        <ele>146</ele>
        <time>2024-09-07T08:20:37Z</time>
      </trkpt>
      <trkpt lat="48.00683" lon="-3.74134">
        <ele>146</ele>
        <time>2024-09-07T08:20:38Z</time>
      </trkpt>
      <trkpt lat="48.00684" lon="-3.74129">
        <ele>146</ele>
        <time>2024-09-07T08:20:39Z</time>
      </trkpt>
      <trkpt lat="48.00684" lon="-3.74124">
        <ele>146.2</ele>
        <time>2024-09-07T08:20:40Z</time>
      </trkpt>
      <trkpt lat="48.00684" lon="-3.74119">
        <ele>146.2</ele>
        <time>2024-09-07T08:20:41Z</time>
      </trkpt>
      <trkpt lat="48.00682" lon="-3.74112">
        <ele>146.4</ele>
        <time>2024-09-07T08:20:42Z</time>
      </trkpt>
      <trkpt lat="48.00681" lon="-3.74103">
        <ele>146.8</ele>
        <time>2024-09-07T08:20:43Z</time>
      </trkpt>
      <trkpt lat="48.00678" lon="-3.74096">
        <ele>147</ele>
        <time>2024-09-07T08:20:44Z</time>
      </trkpt>
      <trkpt lat="48.00677" lon="-3.74088">
        <ele>147.2</ele>
        <time>2024-09-07T08:20:45Z</time>
      </trkpt>
      <trkpt lat="48.00675" lon="-3.7408">
        <ele>147.2</ele>
        <time>2024-09-07T08:20:46Z</time>
      </trkpt>
      <trkpt lat="48.00674" lon="-3.74073">
        <ele>147.2</ele>
        <time>2024-09-07T08:20:47Z</time>
      </trkpt>
      <trkpt lat="48.00673" lon="-3.74066">
        <ele>147.2</ele>
        <time>2024-09-07T08:20:48Z</time>
      </trkpt>
      <trkpt lat="48.00672" lon="-3.7406">
        <ele>147.6</ele>
        <time>2024-09-07T08:20:49Z</time>
      </trkpt>
      <trkpt lat="48.00671" lon="-3.74053">
        <ele>147.6</ele>
        <time>2024-09-07T08:20:50Z</time>
      </trkpt>
      <trkpt lat="48.0067" lon="-3.74044">
        <ele>147.6</ele>
        <time>2024-09-07T08:20:51Z</time>
      </trkpt>
      <trkpt lat="48.00668" lon="-3.74035">
        <ele>147.6</ele>
        <time>2024-09-07T08:20:52Z</time>
      </trkpt>
      <trkpt lat="48.00665" lon="-3.74026">
        <ele>147.6</ele>
        <time>2024-09-07T08:20:53Z</time>
      </trkpt>
      <trkpt lat="48.00664" lon="-3.74018">
        <ele>147.8</ele>
        <time>2024-09-07T08:20:54Z</time>
      </trkpt>
      <trkpt lat="48.00664" lon="-3.74012">
        <ele>147.8</ele>
        <time>2024-09-07T08:20:55Z</time>
      </trkpt>
      <trkpt lat="48.00664" lon="-3.74005">
        <ele>148</ele>
        <time>2024-09-07T08:20:56Z</time>
      </trkpt>
      <trkpt lat="48.00663" lon="-3.73998">
        <ele>148.2</ele>
        <time>2024-09-07T08:20:57Z</time>
      </trkpt>
      <trkpt lat="48.00664" lon="-3.73989">
        <ele>148.2</ele>
        <time>2024-09-07T08:20:58Z</time>
      </trkpt>
      <trkpt lat="48.00662" lon="-3.73981">
        <ele>148.2</ele>
        <time>2024-09-07T08:20:59Z</time>
      </trkpt>
      <trkpt lat="48.00661" lon="-3.73975">
        <ele>148.4</ele>
        <time>2024-09-07T08:21:00Z</time>
      </trkpt>
      <trkpt lat="48.00661" lon="-3.73968">
        <ele>148.4</ele>
        <time>2024-09-07T08:21:01Z</time>
      </trkpt>
      <trkpt lat="48.00659" lon="-3.73961">
        <ele>148.6</ele>
        <time>2024-09-07T08:21:02Z</time>
      </trkpt>
      <trkpt lat="48.00658" lon="-3.73955">
        <ele>148.6</ele>
        <time>2024-09-07T08:21:03Z</time>
      </trkpt>
      <trkpt lat="48.00656" lon="-3.73949">
        <ele>148.6</ele>
        <time>2024-09-07T08:21:04Z</time>
      </trkpt>
      <trkpt lat="48.00653" lon="-3.73942">
        <ele>148.8</ele>
        <time>2024-09-07T08:21:05Z</time>
      </trkpt>
      <trkpt lat="48.00651" lon="-3.73936">
        <ele>148.8</ele>
        <time>2024-09-07T08:21:06Z</time>
      </trkpt>
      <trkpt lat="48.00648" lon="-3.73929">
        <ele>149</ele>
        <time>2024-09-07T08:21:07Z</time>
      </trkpt>
      <trkpt lat="48.00646" lon="-3.73922">
        <ele>149</ele>
        <time>2024-09-07T08:21:08Z</time>
      </trkpt>
      <trkpt lat="48.00644" lon="-3.73915">
        <ele>149</ele>
        <time>2024-09-07T08:21:09Z</time>
      </trkpt>
      <trkpt lat="48.00643" lon="-3.73908">
        <ele>149</ele>
        <time>2024-09-07T08:21:10Z</time>
      </trkpt>
      <trkpt lat="48.00644" lon="-3.739">
        <ele>149</ele>
        <time>2024-09-07T08:21:11Z</time>
      </trkpt>
      <trkpt lat="48.00644" lon="-3.73894">
        <ele>149.2</ele>
        <time>2024-09-07T08:21:12Z</time>
      </trkpt>
      <trkpt lat="48.00643" lon="-3.73887">
        <ele>149.2</ele>
        <time>2024-09-07T08:21:13Z</time>
      </trkpt>
      <trkpt lat="48.00641" lon="-3.73881">
        <ele>149.4</ele>
        <time>2024-09-07T08:21:14Z</time>
      </trkpt>
      <trkpt lat="48.00639" lon="-3.73875">
        <ele>149.6</ele>
        <time>2024-09-07T08:21:15Z</time>
      </trkpt>
      <trkpt lat="48.00638" lon="-3.73868">
        <ele>149.8</ele>
        <time>2024-09-07T08:21:16Z</time>
      </trkpt>
      <trkpt lat="48.00639" lon="-3.73863">
        <ele>150</ele>
        <time>2024-09-07T08:21:17Z</time>
      </trkpt>
      <trkpt lat="48.0064" lon="-3.73857">
        <ele>150</ele>
        <time>2024-09-07T08:21:18Z</time>
      </trkpt>
      <trkpt lat="48.0064" lon="-3.73848">
        <ele>150.2</ele>
        <time>2024-09-07T08:21:19Z</time>
      </trkpt>
      <trkpt lat="48.0064" lon="-3.73842">
        <ele>150.2</ele>
        <time>2024-09-07T08:21:20Z</time>
      </trkpt>
      <trkpt lat="48.0064" lon="-3.73837">
        <ele>150.2</ele>
        <time>2024-09-07T08:21:21Z</time>
      </trkpt>
      <trkpt lat="48.0064" lon="-3.73829">
        <ele>150.4</ele>
        <time>2024-09-07T08:21:22Z</time>
      </trkpt>
      <trkpt lat="48.00641" lon="-3.73823">
        <ele>150.6</ele>
        <time>2024-09-07T08:21:23Z</time>
      </trkpt>
      <trkpt lat="48.00641" lon="-3.73817">
        <ele>150.6</ele>
        <time>2024-09-07T08:21:24Z</time>
      </trkpt>
      <trkpt lat="48.00644" lon="-3.73809">
        <ele>151</ele>
        <time>2024-09-07T08:21:25Z</time>
      </trkpt>
      <trkpt lat="48.00647" lon="-3.73803">
        <ele>151</ele>
        <time>2024-09-07T08:21:26Z</time>
      </trkpt>
      <trkpt lat="48.00649" lon="-3.73797">
        <ele>151</ele>
        <time>2024-09-07T08:21:27Z</time>
      </trkpt>
      <trkpt lat="48.00649" lon="-3.73791">
        <ele>151</ele>
        <time>2024-09-07T08:21:28Z</time>
      </trkpt>
      <trkpt lat="48.00649" lon="-3.73787">
        <ele>151.2</ele>
        <time>2024-09-07T08:21:29Z</time>
      </trkpt>
      <trkpt lat="48.0065" lon="-3.73782">
        <ele>151.2</ele>
        <time>2024-09-07T08:21:30Z</time>
      </trkpt>
      <trkpt lat="48.00651" lon="-3.73777">
        <ele>151.4</ele>
        <time>2024-09-07T08:21:31Z</time>
      </trkpt>
      <trkpt lat="48.00651" lon="-3.73772">
        <ele>151.4</ele>
        <time>2024-09-07T08:21:32Z</time>
      </trkpt>
      <trkpt lat="48.00652" lon="-3.73767">
        <ele>151.6</ele>
        <time>2024-09-07T08:21:33Z</time>
      </trkpt>
      <trkpt lat="48.00653" lon="-3.7376">
        <ele>151.8</ele>
        <time>2024-09-07T08:21:34Z</time>
      </trkpt>
      <trkpt lat="48.00654" lon="-3.73756">
        <ele>151.8</ele>
        <time>2024-09-07T08:21:35Z</time>
      </trkpt>
      <trkpt lat="48.00654" lon="-3.7375">
        <ele>152</ele>
        <time>2024-09-07T08:21:36Z</time>
      </trkpt>
      <trkpt lat="48.00655" lon="-3.73744">
        <ele>152.2</ele>
        <time>2024-09-07T08:21:37Z</time>
      </trkpt>
      <trkpt lat="48.00656" lon="-3.73739">
        <ele>152.4</ele>
        <time>2024-09-07T08:21:38Z</time>
      </trkpt>
      <trkpt lat="48.00657" lon="-3.73733">
        <ele>152.4</ele>
        <time>2024-09-07T08:21:39Z</time>
      </trkpt>
      <trkpt lat="48.00658" lon="-3.73728">
        <ele>152.6</ele>
        <time>2024-09-07T08:21:40Z</time>
      </trkpt>
      <trkpt lat="48.00659" lon="-3.73722">
        <ele>152.6</ele>
        <time>2024-09-07T08:21:41Z</time>
      </trkpt>
      <trkpt lat="48.0066" lon="-3.73717">
        <ele>152.8</ele>
        <time>2024-09-07T08:21:42Z</time>
      </trkpt>
      <trkpt lat="48.00661" lon="-3.7371">
        <ele>152.8</ele>
        <time>2024-09-07T08:21:43Z</time>
      </trkpt>
      <trkpt lat="48.00663" lon="-3.73706">
        <ele>152.8</ele>
        <time>2024-09-07T08:21:44Z</time>
      </trkpt>
      <trkpt lat="48.00665" lon="-3.737">
        <ele>153</ele>
        <time>2024-09-07T08:21:45Z</time>
      </trkpt>
      <trkpt lat="48.00666" lon="-3.73693">
        <ele>153</ele>
        <time>2024-09-07T08:21:46Z</time>
      </trkpt>
      <trkpt lat="48.00668" lon="-3.73687">
        <ele>153.2</ele>
        <time>2024-09-07T08:21:47Z</time>
      </trkpt>
      <trkpt lat="48.0067" lon="-3.73682">
        <ele>153.2</ele>
        <time>2024-09-07T08:21:48Z</time>
      </trkpt>
      <trkpt lat="48.00672" lon="-3.73676">
        <ele>153.2</ele>
        <time>2024-09-07T08:21:49Z</time>
      </trkpt>
      <trkpt lat="48.00674" lon="-3.73672">
        <ele>153.4</ele>
        <time>2024-09-07T08:21:50Z</time>
      </trkpt>
      <trkpt lat="48.00677" lon="-3.73666">
        <ele>153.4</ele>
        <time>2024-09-07T08:21:51Z</time>
      </trkpt>
      <trkpt lat="48.00678" lon="-3.73662">
        <ele>153.4</ele>
        <time>2024-09-07T08:21:52Z</time>
      </trkpt>
      <trkpt lat="48.0068" lon="-3.73657">
        <ele>153.6</ele>
        <time>2024-09-07T08:21:53Z</time>
      </trkpt>
      <trkpt lat="48.00683" lon="-3.73652">
        <ele>153.6</ele>
        <time>2024-09-07T08:21:54Z</time>
      </trkpt>
      <trkpt lat="48.00686" lon="-3.73645">
        <ele>153.8</ele>
        <time>2024-09-07T08:21:55Z</time>
      </trkpt>
      <trkpt lat="48.00689" lon="-3.7364">
        <ele>153.8</ele>
        <time>2024-09-07T08:21:56Z</time>
      </trkpt>
      <trkpt lat="48.00692" lon="-3.73635">
        <ele>153.8</ele>
        <time>2024-09-07T08:21:57Z</time>
      </trkpt>
      <trkpt lat="48.00694" lon="-3.7363">
        <ele>154</ele>
        <time>2024-09-07T08:21:58Z</time>
      </trkpt>
      <trkpt lat="48.00697" lon="-3.73625">
        <ele>154</ele>
        <time>2024-09-07T08:21:59Z</time>
      </trkpt>
      <trkpt lat="48.00699" lon="-3.7362">
        <ele>154</ele>
        <time>2024-09-07T08:22:00Z</time>
      </trkpt>
      <trkpt lat="48.00702" lon="-3.73616">
        <ele>154.2</ele>
        <time>2024-09-07T08:22:01Z</time>
      </trkpt>
      <trkpt lat="48.00706" lon="-3.73611">
        <ele>154.4</ele>
        <time>2024-09-07T08:22:02Z</time>
      </trkpt>
      <trkpt lat="48.00709" lon="-3.73606">
        <ele>154.4</ele>
        <time>2024-09-07T08:22:03Z</time>
      </trkpt>
      <trkpt lat="48.00713" lon="-3.73601">
        <ele>154.6</ele>
        <time>2024-09-07T08:22:04Z</time>
      </trkpt>
      <trkpt lat="48.00716" lon="-3.73597">
        <ele>154.6</ele>
        <time>2024-09-07T08:22:05Z</time>
      </trkpt>
      <trkpt lat="48.0072" lon="-3.73592">
        <ele>154.8</ele>
        <time>2024-09-07T08:22:06Z</time>
      </trkpt>
      <trkpt lat="48.00723" lon="-3.73588">
        <ele>154.8</ele>
        <time>2024-09-07T08:22:07Z</time>
      </trkpt>
      <trkpt lat="48.00727" lon="-3.73584">
        <ele>154.8</ele>
        <time>2024-09-07T08:22:08Z</time>
      </trkpt>
      <trkpt lat="48.0073" lon="-3.73579">
        <ele>155</ele>
        <time>2024-09-07T08:22:09Z</time>
      </trkpt>
      <trkpt lat="48.00734" lon="-3.73575">
        <ele>155</ele>
        <time>2024-09-07T08:22:10Z</time>
      </trkpt>
      <trkpt lat="48.00736" lon="-3.73572">
        <ele>155.2</ele>
        <time>2024-09-07T08:22:11Z</time>
      </trkpt>
      <trkpt lat="48.00738" lon="-3.73569">
        <ele>155.4</ele>
        <time>2024-09-07T08:22:12Z</time>
      </trkpt>
      <trkpt lat="48.00741" lon="-3.73564">
        <ele>155.4</ele>
        <time>2024-09-07T08:22:13Z</time>
      </trkpt>
      <trkpt lat="48.00745" lon="-3.73561">
        <ele>155.6</ele>
        <time>2024-09-07T08:22:14Z</time>
      </trkpt>
      <trkpt lat="48.00749" lon="-3.73557">
        <ele>155.6</ele>
        <time>2024-09-07T08:22:15Z</time>
      </trkpt>
      <trkpt lat="48.00752" lon="-3.73552">
        <ele>155.8</ele>
        <time>2024-09-07T08:22:16Z</time>
      </trkpt>
      <trkpt lat="48.00758" lon="-3.73546">
        <ele>155.8</ele>
        <time>2024-09-07T08:22:17Z</time>
      </trkpt>
      <trkpt lat="48.00763" lon="-3.73541">
        <ele>156</ele>
        <time>2024-09-07T08:22:18Z</time>
      </trkpt>
      <trkpt lat="48.00767" lon="-3.73536">
        <ele>156</ele>
        <time>2024-09-07T08:22:19Z</time>
      </trkpt>
      <trkpt lat="48.0077" lon="-3.73533">
        <ele>156.2</ele>
        <time>2024-09-07T08:22:20Z</time>
      </trkpt>
      <trkpt lat="48.00773" lon="-3.7353">
        <ele>156.4</ele>
        <time>2024-09-07T08:22:21Z</time>
      </trkpt>
      <trkpt lat="48.00776" lon="-3.73525">
        <ele>156.4</ele>
        <time>2024-09-07T08:22:22Z</time>
      </trkpt>
      <trkpt lat="48.00778" lon="-3.73521">
        <ele>156.6</ele>
        <time>2024-09-07T08:22:23Z</time>
      </trkpt>
      <trkpt lat="48.00781" lon="-3.73517">
        <ele>156.6</ele>
        <time>2024-09-07T08:22:24Z</time>
      </trkpt>
      <trkpt lat="48.00784" lon="-3.73512">
        <ele>156.8</ele>
        <time>2024-09-07T08:22:25Z</time>
      </trkpt>
      <trkpt lat="48.00788" lon="-3.73509">
        <ele>157</ele>
        <time>2024-09-07T08:22:26Z</time>
      </trkpt>
      <trkpt lat="48.00793" lon="-3.73504">
        <ele>157</ele>
        <time>2024-09-07T08:22:27Z</time>
      </trkpt>
      <trkpt lat="48.00797" lon="-3.73499">
        <ele>157</ele>
        <time>2024-09-07T08:22:28Z</time>
      </trkpt>
      <trkpt lat="48.008" lon="-3.73494">
        <ele>157</ele>
        <time>2024-09-07T08:22:29Z</time>
      </trkpt>
      <trkpt lat="48.00804" lon="-3.73488">
        <ele>157</ele>
        <time>2024-09-07T08:22:30Z</time>
      </trkpt>
      <trkpt lat="48.00808" lon="-3.73482">
        <ele>157.2</ele>
        <time>2024-09-07T08:22:31Z</time>
      </trkpt>
      <trkpt lat="48.00812" lon="-3.73477">
        <ele>157.2</ele>
        <time>2024-09-07T08:22:32Z</time>
      </trkpt>
      <trkpt lat="48.00815" lon="-3.73473">
        <ele>157.2</ele>
        <time>2024-09-07T08:22:33Z</time>
      </trkpt>
      <trkpt lat="48.00819" lon="-3.73468">
        <ele>157.2</ele>
        <time>2024-09-07T08:22:34Z</time>
      </trkpt>
      <trkpt lat="48.0082" lon="-3.73464">
        <ele>157.4</ele>
        <time>2024-09-07T08:22:35Z</time>
      </trkpt>
      <trkpt lat="48.00824" lon="-3.7346">
        <ele>157.6</ele>
        <time>2024-09-07T08:22:36Z</time>
      </trkpt>
      <trkpt lat="48.00829" lon="-3.73455">
        <ele>157.6</ele>
        <time>2024-09-07T08:22:37Z</time>
      </trkpt>
      <trkpt lat="48.00835" lon="-3.7345">
        <ele>157.8</ele>
        <time>2024-09-07T08:22:38Z</time>
      </trkpt>
      <trkpt lat="48.00838" lon="-3.73445">
        <ele>158</ele>
        <time>2024-09-07T08:22:39Z</time>
      </trkpt>
      <trkpt lat="48.00841" lon="-3.73441">
        <ele>158</ele>
        <time>2024-09-07T08:22:40Z</time>
      </trkpt>
      <trkpt lat="48.00843" lon="-3.73437">
        <ele>158</ele>
        <time>2024-09-07T08:22:41Z</time>
      </trkpt>
      <trkpt lat="48.00847" lon="-3.73433">
        <ele>158.2</ele>
        <time>2024-09-07T08:22:42Z</time>
      </trkpt>
      <trkpt lat="48.00851" lon="-3.73427">
        <ele>158.2</ele>
        <time>2024-09-07T08:22:43Z</time>
      </trkpt>
      <trkpt lat="48.00855" lon="-3.7342">
        <ele>158.4</ele>
        <time>2024-09-07T08:22:44Z</time>
      </trkpt>
      <trkpt lat="48.00858" lon="-3.73418">
        <ele>158.4</ele>
        <time>2024-09-07T08:22:45Z</time>
      </trkpt>
      <trkpt lat="48.0086" lon="-3.73414">
        <ele>158.4</ele>
        <time>2024-09-07T08:22:46Z</time>
      </trkpt>
      <trkpt lat="48.00863" lon="-3.7341">
        <ele>158.4</ele>
        <time>2024-09-07T08:22:47Z</time>
      </trkpt>
      <trkpt lat="48.00865" lon="-3.73406">
        <ele>158.6</ele>
        <time>2024-09-07T08:22:48Z</time>
      </trkpt>
      <trkpt lat="48.00868" lon="-3.73401">
        <ele>158.6</ele>
        <time>2024-09-07T08:22:49Z</time>
      </trkpt>
      <trkpt lat="48.0087" lon="-3.73399">
        <ele>158.8</ele>
        <time>2024-09-07T08:22:50Z</time>
      </trkpt>
      <trkpt lat="48.00873" lon="-3.73395">
        <ele>158.8</ele>
        <time>2024-09-07T08:22:51Z</time>
      </trkpt>
      <trkpt lat="48.00876" lon="-3.73391">
        <ele>159</ele>
        <time>2024-09-07T08:22:52Z</time>
      </trkpt>
      <trkpt lat="48.0088" lon="-3.73386">
        <ele>159</ele>
        <time>2024-09-07T08:22:53Z</time>
      </trkpt>
      <trkpt lat="48.00883" lon="-3.73381">
        <ele>159.2</ele>
        <time>2024-09-07T08:22:54Z</time>
      </trkpt>
      <trkpt lat="48.00886" lon="-3.73374">
        <ele>159.4</ele>
        <time>2024-09-07T08:22:55Z</time>
      </trkpt>
      <trkpt lat="48.00888" lon="-3.73369">
        <ele>159.4</ele>
        <time>2024-09-07T08:22:56Z</time>
      </trkpt>
      <trkpt lat="48.00891" lon="-3.73363">
        <ele>159.6</ele>
        <time>2024-09-07T08:22:57Z</time>
      </trkpt>
      <trkpt lat="48.00894" lon="-3.73357">
        <ele>159.6</ele>
        <time>2024-09-07T08:22:58Z</time>
      </trkpt>
      <trkpt lat="48.00897" lon="-3.73351">
        <ele>159.8</ele>
        <time>2024-09-07T08:22:59Z</time>
      </trkpt>
      <trkpt lat="48.009" lon="-3.73346">
        <ele>159.8</ele>
        <time>2024-09-07T08:23:00Z</time>
      </trkpt>
      <trkpt lat="48.00902" lon="-3.73341">
        <ele>159.8</ele>
        <time>2024-09-07T08:23:01Z</time>
      </trkpt>
      <trkpt lat="48.00904" lon="-3.73335">
        <ele>160</ele>
        <time>2024-09-07T08:23:02Z</time>
      </trkpt>
      <trkpt lat="48.00908" lon="-3.73329">
        <ele>160</ele>
        <time>2024-09-07T08:23:03Z</time>
      </trkpt>
      <trkpt lat="48.00911" lon="-3.73323">
        <ele>160</ele>
        <time>2024-09-07T08:23:04Z</time>
      </trkpt>
      <trkpt lat="48.00913" lon="-3.73318">
        <ele>160</ele>
        <time>2024-09-07T08:23:05Z</time>
      </trkpt>
      <trkpt lat="48.00916" lon="-3.73311">
        <ele>160</ele>
        <time>2024-09-07T08:23:06Z</time>
      </trkpt>
      <trkpt lat="48.00918" lon="-3.73307">
        <ele>160.4</ele>
        <time>2024-09-07T08:23:07Z</time>
      </trkpt>
      <trkpt lat="48.0092" lon="-3.73302">
        <ele>160.4</ele>
        <time>2024-09-07T08:23:08Z</time>
      </trkpt>
      <trkpt lat="48.00922" lon="-3.73297">
        <ele>160.6</ele>
        <time>2024-09-07T08:23:09Z</time>
      </trkpt>
      <trkpt lat="48.00924" lon="-3.73292">
        <ele>160.6</ele>
        <time>2024-09-07T08:23:10Z</time>
      </trkpt>
      <trkpt lat="48.00927" lon="-3.73286">
        <ele>160.8</ele>
        <time>2024-09-07T08:23:11Z</time>
      </trkpt>
      <trkpt lat="48.00931" lon="-3.7328">
        <ele>160.8</ele>
        <time>2024-09-07T08:23:12Z</time>
      </trkpt>
      <trkpt lat="48.00936" lon="-3.73273">
        <ele>160.8</ele>
        <time>2024-09-07T08:23:13Z</time>
      </trkpt>
      <trkpt lat="48.00939" lon="-3.73266">
        <ele>160.8</ele>
        <time>2024-09-07T08:23:14Z</time>
      </trkpt>
      <trkpt lat="48.00942" lon="-3.7326">
        <ele>161</ele>
        <time>2024-09-07T08:23:15Z</time>
      </trkpt>
      <trkpt lat="48.00944" lon="-3.73254">
        <ele>161.4</ele>
        <time>2024-09-07T08:23:16Z</time>
      </trkpt>
      <trkpt lat="48.00947" lon="-3.73247">
        <ele>161.6</ele>
        <time>2024-09-07T08:23:17Z</time>
      </trkpt>
      <trkpt lat="48.0095" lon="-3.7324">
        <ele>161.6</ele>
        <time>2024-09-07T08:23:18Z</time>
      </trkpt>
      <trkpt lat="48.00951" lon="-3.73234">
        <ele>161.8</ele>
        <time>2024-09-07T08:23:19Z</time>
      </trkpt>
      <trkpt lat="48.00952" lon="-3.73229">
        <ele>161.8</ele>
        <time>2024-09-07T08:23:20Z</time>
      </trkpt>
      <trkpt lat="48.00954" lon="-3.73222">
        <ele>162</ele>
        <time>2024-09-07T08:23:21Z</time>
      </trkpt>
      <trkpt lat="48.00958" lon="-3.73214">
        <ele>162</ele>
        <time>2024-09-07T08:23:22Z</time>
      </trkpt>
      <trkpt lat="48.0096" lon="-3.73209">
        <ele>162.2</ele>
        <time>2024-09-07T08:23:23Z</time>
      </trkpt>
      <trkpt lat="48.00961" lon="-3.73204">
        <ele>162.4</ele>
        <time>2024-09-07T08:23:24Z</time>
      </trkpt>
      <trkpt lat="48.00963" lon="-3.73198">
        <ele>162.4</ele>
        <time>2024-09-07T08:23:25Z</time>
      </trkpt>
      <trkpt lat="48.00964" lon="-3.73194">
        <ele>162.6</ele>
        <time>2024-09-07T08:23:26Z</time>
      </trkpt>
      <trkpt lat="48.00966" lon="-3.73188">
        <ele>162.6</ele>
        <time>2024-09-07T08:23:27Z</time>
      </trkpt>
      <trkpt lat="48.00968" lon="-3.73182">
        <ele>162.6</ele>
        <time>2024-09-07T08:23:28Z</time>
      </trkpt>
      <trkpt lat="48.00971" lon="-3.73177">
        <ele>162.6</ele>
        <time>2024-09-07T08:23:29Z</time>
      </trkpt>
      <trkpt lat="48.00972" lon="-3.73171">
        <ele>162.8</ele>
        <time>2024-09-07T08:23:30Z</time>
      </trkpt>
      <trkpt lat="48.00976" lon="-3.73165">
        <ele>162.8</ele>
        <time>2024-09-07T08:23:31Z</time>
      </trkpt>
      <trkpt lat="48.00979" lon="-3.73159">
        <ele>163</ele>
        <time>2024-09-07T08:23:32Z</time>
      </trkpt>
      <trkpt lat="48.00981" lon="-3.73153">
        <ele>163.2</ele>
        <time>2024-09-07T08:23:33Z</time>
      </trkpt>
      <trkpt lat="48.00984" lon="-3.73146">
        <ele>163.2</ele>
        <time>2024-09-07T08:23:34Z</time>
      </trkpt>
      <trkpt lat="48.00985" lon="-3.73141">
        <ele>163.2</ele>
        <time>2024-09-07T08:23:35Z</time>
      </trkpt>
      <trkpt lat="48.00987" lon="-3.73136">
        <ele>163.4</ele>
        <time>2024-09-07T08:23:36Z</time>
      </trkpt>
      <trkpt lat="48.00989" lon="-3.7313">
        <ele>163.4</ele>
        <time>2024-09-07T08:23:37Z</time>
      </trkpt>
      <trkpt lat="48.00991" lon="-3.73124">
        <ele>163.4</ele>
        <time>2024-09-07T08:23:38Z</time>
      </trkpt>
      <trkpt lat="48.00992" lon="-3.73118">
        <ele>163.6</ele>
        <time>2024-09-07T08:23:39Z</time>
      </trkpt>
      <trkpt lat="48.00994" lon="-3.73112">
        <ele>163.6</ele>
        <time>2024-09-07T08:23:40Z</time>
      </trkpt>
      <trkpt lat="48.00996" lon="-3.73106">
        <ele>163.8</ele>
        <time>2024-09-07T08:23:41Z</time>
      </trkpt>
      <trkpt lat="48.00997" lon="-3.73099">
        <ele>163.8</ele>
        <time>2024-09-07T08:23:42Z</time>
      </trkpt>
      <trkpt lat="48.00999" lon="-3.73093">
        <ele>164</ele>
        <time>2024-09-07T08:23:43Z</time>
      </trkpt>
      <trkpt lat="48.01" lon="-3.73089">
        <ele>164</ele>
        <time>2024-09-07T08:23:44Z</time>
      </trkpt>
      <trkpt lat="48.01002" lon="-3.73083">
        <ele>164.2</ele>
        <time>2024-09-07T08:23:45Z</time>
      </trkpt>
      <trkpt lat="48.01004" lon="-3.73077">
        <ele>164.2</ele>
        <time>2024-09-07T08:23:46Z</time>
      </trkpt>
      <trkpt lat="48.01005" lon="-3.73071">
        <ele>164.4</ele>
        <time>2024-09-07T08:23:47Z</time>
      </trkpt>
      <trkpt lat="48.01009" lon="-3.73065">
        <ele>164.6</ele>
        <time>2024-09-07T08:23:48Z</time>
      </trkpt>
      <trkpt lat="48.01012" lon="-3.73059">
        <ele>164.6</ele>
        <time>2024-09-07T08:23:49Z</time>
      </trkpt>
      <trkpt lat="48.01014" lon="-3.73053">
        <ele>164.6</ele>
        <time>2024-09-07T08:23:50Z</time>
      </trkpt>
      <trkpt lat="48.01017" lon="-3.73047">
        <ele>164.8</ele>
        <time>2024-09-07T08:23:51Z</time>
      </trkpt>
      <trkpt lat="48.01019" lon="-3.73042">
        <ele>164.8</ele>
        <time>2024-09-07T08:23:52Z</time>
      </trkpt>
      <trkpt lat="48.01021" lon="-3.73035">
        <ele>164.8</ele>
        <time>2024-09-07T08:23:53Z</time>
      </trkpt>
      <trkpt lat="48.01024" lon="-3.73027">
        <ele>165</ele>
        <time>2024-09-07T08:23:54Z</time>
      </trkpt>
      <trkpt lat="48.01028" lon="-3.73018">
        <ele>165</ele>
        <time>2024-09-07T08:23:55Z</time>
      </trkpt>
      <trkpt lat="48.01031" lon="-3.73011">
        <ele>165.2</ele>
        <time>2024-09-07T08:23:56Z</time>
      </trkpt>
      <trkpt lat="48.01032" lon="-3.73006">
        <ele>165.4</ele>
        <time>2024-09-07T08:23:57Z</time>
      </trkpt>
      <trkpt lat="48.01034" lon="-3.73001">
        <ele>165.4</ele>
        <time>2024-09-07T08:23:58Z</time>
      </trkpt>
      <trkpt lat="48.01036" lon="-3.72997">
        <ele>165.6</ele>
        <time>2024-09-07T08:23:59Z</time>
      </trkpt>
      <trkpt lat="48.01038" lon="-3.72991">
        <ele>165.6</ele>
        <time>2024-09-07T08:24:00Z</time>
      </trkpt>
      <trkpt lat="48.01041" lon="-3.72984">
        <ele>165.6</ele>
        <time>2024-09-07T08:24:01Z</time>
      </trkpt>
      <trkpt lat="48.01042" lon="-3.72978">
        <ele>165.8</ele>
        <time>2024-09-07T08:24:02Z</time>
      </trkpt>
      <trkpt lat="48.01043" lon="-3.72973">
        <ele>165.8</ele>
        <time>2024-09-07T08:24:03Z</time>
      </trkpt>
      <trkpt lat="48.01044" lon="-3.72968">
        <ele>166</ele>
        <time>2024-09-07T08:24:04Z</time>
      </trkpt>
      <trkpt lat="48.01046" lon="-3.72962">
        <ele>166</ele>
        <time>2024-09-07T08:24:05Z</time>
      </trkpt>
      <trkpt lat="48.01048" lon="-3.72956">
        <ele>166.2</ele>
        <time>2024-09-07T08:24:06Z</time>
      </trkpt>
      <trkpt lat="48.01051" lon="-3.7295">
        <ele>166.2</ele>
        <time>2024-09-07T08:24:07Z</time>
      </trkpt>
      <trkpt lat="48.01053" lon="-3.72945">
        <ele>166.2</ele>
        <time>2024-09-07T08:24:08Z</time>
      </trkpt>
      <trkpt lat="48.01055" lon="-3.72939">
        <ele>166.2</ele>
        <time>2024-09-07T08:24:09Z</time>
      </trkpt>
      <trkpt lat="48.01057" lon="-3.72933">
        <ele>166.4</ele>
        <time>2024-09-07T08:24:10Z</time>
      </trkpt>
      <trkpt lat="48.01059" lon="-3.72927">
        <ele>166.4</ele>
        <time>2024-09-07T08:24:11Z</time>
      </trkpt>
      <trkpt lat="48.01062" lon="-3.72921">
        <ele>166.6</ele>
        <time>2024-09-07T08:24:12Z</time>
      </trkpt>
      <trkpt lat="48.01066" lon="-3.72915">
        <ele>166.6</ele>
        <time>2024-09-07T08:24:13Z</time>
      </trkpt>
      <trkpt lat="48.01068" lon="-3.72909">
        <ele>166.8</ele>
        <time>2024-09-07T08:24:14Z</time>
      </trkpt>
      <trkpt lat="48.0107" lon="-3.72902">
        <ele>166.8</ele>
        <time>2024-09-07T08:24:15Z</time>
      </trkpt>
      <trkpt lat="48.01074" lon="-3.72895">
        <ele>167</ele>
        <time>2024-09-07T08:24:16Z</time>
      </trkpt>
      <trkpt lat="48.01076" lon="-3.72891">
        <ele>167</ele>
        <time>2024-09-07T08:24:17Z</time>
      </trkpt>
      <trkpt lat="48.01078" lon="-3.72884">
        <ele>167.2</ele>
        <time>2024-09-07T08:24:18Z</time>
      </trkpt>
      <trkpt lat="48.01081" lon="-3.72878">
        <ele>167.2</ele>
        <time>2024-09-07T08:24:19Z</time>
      </trkpt>
      <trkpt lat="48.01083" lon="-3.72872">
        <ele>167.4</ele>
        <time>2024-09-07T08:24:20Z</time>
      </trkpt>
      <trkpt lat="48.01086" lon="-3.72866">
        <ele>167.4</ele>
        <time>2024-09-07T08:24:21Z</time>
      </trkpt>
      <trkpt lat="48.01088" lon="-3.7286">
        <ele>167.4</ele>
        <time>2024-09-07T08:24:22Z</time>
      </trkpt>
      <trkpt lat="48.0109" lon="-3.72855">
        <ele>167.8</ele>
        <time>2024-09-07T08:24:23Z</time>
      </trkpt>
      <trkpt lat="48.01093" lon="-3.72849">
        <ele>168</ele>
        <time>2024-09-07T08:24:24Z</time>
      </trkpt>
      <trkpt lat="48.01096" lon="-3.72843">
        <ele>168</ele>
        <time>2024-09-07T08:24:25Z</time>
      </trkpt>
      <trkpt lat="48.01099" lon="-3.72836">
        <ele>168</ele>
        <time>2024-09-07T08:24:26Z</time>
      </trkpt>
      <trkpt lat="48.01103" lon="-3.72829">
        <ele>167.8</ele>
        <time>2024-09-07T08:24:27Z</time>
      </trkpt>
      <trkpt lat="48.01104" lon="-3.72824">
        <ele>168</ele>
        <time>2024-09-07T08:24:28Z</time>
      </trkpt>
      <trkpt lat="48.01107" lon="-3.72818">
        <ele>168.2</ele>
        <time>2024-09-07T08:24:29Z</time>
      </trkpt>
      <trkpt lat="48.0111" lon="-3.72813">
        <ele>168.4</ele>
        <time>2024-09-07T08:24:30Z</time>
      </trkpt>
      <trkpt lat="48.01113" lon="-3.72807">
        <ele>168.4</ele>
        <time>2024-09-07T08:24:31Z</time>
      </trkpt>
      <trkpt lat="48.01116" lon="-3.728">
        <ele>168.6</ele>
        <time>2024-09-07T08:24:32Z</time>
      </trkpt>
      <trkpt lat="48.01118" lon="-3.72796">
        <ele>168.6</ele>
        <time>2024-09-07T08:24:33Z</time>
      </trkpt>
      <trkpt lat="48.01122" lon="-3.72792">
        <ele>168.6</ele>
        <time>2024-09-07T08:24:34Z</time>
      </trkpt>
      <trkpt lat="48.01126" lon="-3.72786">
        <ele>168.8</ele>
        <time>2024-09-07T08:24:35Z</time>
      </trkpt>
      <trkpt lat="48.01129" lon="-3.72781">
        <ele>169</ele>
        <time>2024-09-07T08:24:36Z</time>
      </trkpt>
      <trkpt lat="48.01132" lon="-3.72775">
        <ele>169.2</ele>
        <time>2024-09-07T08:24:37Z</time>
      </trkpt>
      <trkpt lat="48.01133" lon="-3.7277">
        <ele>169.2</ele>
        <time>2024-09-07T08:24:38Z</time>
      </trkpt>
      <trkpt lat="48.01135" lon="-3.72765">
        <ele>169.4</ele>
        <time>2024-09-07T08:24:39Z</time>
      </trkpt>
      <trkpt lat="48.01137" lon="-3.7276">
        <ele>169.4</ele>
        <time>2024-09-07T08:24:40Z</time>
      </trkpt>
      <trkpt lat="48.0114" lon="-3.72755">
        <ele>169.6</ele>
        <time>2024-09-07T08:24:41Z</time>
      </trkpt>
      <trkpt lat="48.01143" lon="-3.7275">
        <ele>169.6</ele>
        <time>2024-09-07T08:24:42Z</time>
      </trkpt>
      <trkpt lat="48.01146" lon="-3.72744">
        <ele>169.8</ele>
        <time>2024-09-07T08:24:43Z</time>
      </trkpt>
      <trkpt lat="48.01149" lon="-3.72739">
        <ele>169.8</ele>
        <time>2024-09-07T08:24:44Z</time>
      </trkpt>
      <trkpt lat="48.01151" lon="-3.72733">
        <ele>169.8</ele>
        <time>2024-09-07T08:24:45Z</time>
      </trkpt>
      <trkpt lat="48.01154" lon="-3.72727">
        <ele>169.8</ele>
        <time>2024-09-07T08:24:46Z</time>
      </trkpt>
      <trkpt lat="48.01156" lon="-3.72723">
        <ele>169.8</ele>
        <time>2024-09-07T08:24:47Z</time>
      </trkpt>
      <trkpt lat="48.01158" lon="-3.72718">
        <ele>170</ele>
        <time>2024-09-07T08:24:48Z</time>
      </trkpt>
      <trkpt lat="48.0116" lon="-3.72713">
        <ele>170</ele>
        <time>2024-09-07T08:24:49Z</time>
      </trkpt>
      <trkpt lat="48.01162" lon="-3.72708">
        <ele>170.2</ele>
        <time>2024-09-07T08:24:50Z</time>
      </trkpt>
      <trkpt lat="48.01163" lon="-3.72703">
        <ele>170.2</ele>
        <time>2024-09-07T08:24:51Z</time>
      </trkpt>
      <trkpt lat="48.01165" lon="-3.72698">
        <ele>170.4</ele>
        <time>2024-09-07T08:24:52Z</time>
      </trkpt>
      <trkpt lat="48.01167" lon="-3.72694">
        <ele>170.4</ele>
        <time>2024-09-07T08:24:53Z</time>
      </trkpt>
      <trkpt lat="48.0117" lon="-3.72688">
        <ele>170.6</ele>
        <time>2024-09-07T08:24:54Z</time>
      </trkpt>
      <trkpt lat="48.01173" lon="-3.72682">
        <ele>170.6</ele>
        <time>2024-09-07T08:24:55Z</time>
      </trkpt>
      <trkpt lat="48.01176" lon="-3.72678">
        <ele>170.8</ele>
        <time>2024-09-07T08:24:56Z</time>
      </trkpt>
      <trkpt lat="48.01179" lon="-3.72673">
        <ele>171</ele>
        <time>2024-09-07T08:24:57Z</time>
      </trkpt>
      <trkpt lat="48.01181" lon="-3.72669">
        <ele>171</ele>
        <time>2024-09-07T08:24:58Z</time>
      </trkpt>
      <trkpt lat="48.01184" lon="-3.72663">
        <ele>171.2</ele>
        <time>2024-09-07T08:24:59Z</time>
      </trkpt>
      <trkpt lat="48.01188" lon="-3.72658">
        <ele>171.2</ele>
        <time>2024-09-07T08:25:00Z</time>
      </trkpt>
      <trkpt lat="48.01191" lon="-3.72653">
        <ele>171.4</ele>
        <time>2024-09-07T08:25:01Z</time>
      </trkpt>
      <trkpt lat="48.01194" lon="-3.72647">
        <ele>171.4</ele>
        <time>2024-09-07T08:25:02Z</time>
      </trkpt>
      <trkpt lat="48.01197" lon="-3.72642">
        <ele>171.4</ele>
        <time>2024-09-07T08:25:03Z</time>
      </trkpt>
      <trkpt lat="48.01199" lon="-3.72637">
        <ele>171.4</ele>
        <time>2024-09-07T08:25:04Z</time>
      </trkpt>
      <trkpt lat="48.01201" lon="-3.72632">
        <ele>171.6</ele>
        <time>2024-09-07T08:25:05Z</time>
      </trkpt>
      <trkpt lat="48.01205" lon="-3.72627">
        <ele>171.6</ele>
        <time>2024-09-07T08:25:06Z</time>
      </trkpt>
      <trkpt lat="48.01208" lon="-3.7262">
        <ele>171.6</ele>
        <time>2024-09-07T08:25:07Z</time>
      </trkpt>
      <trkpt lat="48.01211" lon="-3.72614">
        <ele>171.8</ele>
        <time>2024-09-07T08:25:08Z</time>
      </trkpt>
      <trkpt lat="48.01214" lon="-3.72608">
        <ele>171.8</ele>
        <time>2024-09-07T08:25:09Z</time>
      </trkpt>
      <trkpt lat="48.01217" lon="-3.72602">
        <ele>172</ele>
        <time>2024-09-07T08:25:10Z</time>
      </trkpt>
      <trkpt lat="48.0122" lon="-3.72598">
        <ele>172</ele>
        <time>2024-09-07T08:25:11Z</time>
      </trkpt>
      <trkpt lat="48.01223" lon="-3.72593">
        <ele>172</ele>
        <time>2024-09-07T08:25:12Z</time>
      </trkpt>
      <trkpt lat="48.01225" lon="-3.72588">
        <ele>172.2</ele>
        <time>2024-09-07T08:25:13Z</time>
      </trkpt>
      <trkpt lat="48.01228" lon="-3.72583">
        <ele>172.2</ele>
        <time>2024-09-07T08:25:14Z</time>
      </trkpt>
      <trkpt lat="48.01231" lon="-3.72578">
        <ele>172.2</ele>
        <time>2024-09-07T08:25:15Z</time>
      </trkpt>
      <trkpt lat="48.01235" lon="-3.72572">
        <ele>172.2</ele>
        <time>2024-09-07T08:25:16Z</time>
      </trkpt>
      <trkpt lat="48.01237" lon="-3.72567">
        <ele>172.4</ele>
        <time>2024-09-07T08:25:17Z</time>
      </trkpt>
      <trkpt lat="48.0124" lon="-3.72561">
        <ele>172.6</ele>
        <time>2024-09-07T08:25:18Z</time>
      </trkpt>
      <trkpt lat="48.01242" lon="-3.72557">
        <ele>172.6</ele>
        <time>2024-09-07T08:25:19Z</time>
      </trkpt>
      <trkpt lat="48.01245" lon="-3.72553">
        <ele>172.6</ele>
        <time>2024-09-07T08:25:20Z</time>
      </trkpt>
      <trkpt lat="48.01248" lon="-3.72548">
        <ele>172.8</ele>
        <time>2024-09-07T08:25:21Z</time>
      </trkpt>
      <trkpt lat="48.0125" lon="-3.72542">
        <ele>172.8</ele>
        <time>2024-09-07T08:25:22Z</time>
      </trkpt>
      <trkpt lat="48.01252" lon="-3.72537">
        <ele>173</ele>
        <time>2024-09-07T08:25:23Z</time>
      </trkpt>
      <trkpt lat="48.01255" lon="-3.72532">
        <ele>173.2</ele>
        <time>2024-09-07T08:25:24Z</time>
      </trkpt>
      <trkpt lat="48.01259" lon="-3.72527">
        <ele>173.2</ele>
        <time>2024-09-07T08:25:25Z</time>
      </trkpt>
      <trkpt lat="48.01262" lon="-3.72523">
        <ele>173.4</ele>
        <time>2024-09-07T08:25:26Z</time>
      </trkpt>
      <trkpt lat="48.01264" lon="-3.72517">
        <ele>173.4</ele>
        <time>2024-09-07T08:25:27Z</time>
      </trkpt>
      <trkpt lat="48.01267" lon="-3.72511">
        <ele>173.6</ele>
        <time>2024-09-07T08:25:28Z</time>
      </trkpt>
      <trkpt lat="48.0127" lon="-3.72507">
        <ele>173.6</ele>
        <time>2024-09-07T08:25:29Z</time>
      </trkpt>
      <trkpt lat="48.01271" lon="-3.72503">
        <ele>173.8</ele>
        <time>2024-09-07T08:25:30Z</time>
      </trkpt>
      <trkpt lat="48.01273" lon="-3.72498">
        <ele>173.8</ele>
        <time>2024-09-07T08:25:31Z</time>
      </trkpt>
      <trkpt lat="48.01277" lon="-3.72489">
        <ele>174</ele>
        <time>2024-09-07T08:25:32Z</time>
      </trkpt>
      <trkpt lat="48.0128" lon="-3.72482">
        <ele>174</ele>
        <time>2024-09-07T08:25:33Z</time>
      </trkpt>
      <trkpt lat="48.01284" lon="-3.72476">
        <ele>174.2</ele>
        <time>2024-09-07T08:25:34Z</time>
      </trkpt>
      <trkpt lat="48.01286" lon="-3.72474">
        <ele>174.4</ele>
        <time>2024-09-07T08:25:35Z</time>
      </trkpt>
      <trkpt lat="48.01289" lon="-3.72469">
        <ele>174.4</ele>
        <time>2024-09-07T08:25:36Z</time>
      </trkpt>
      <trkpt lat="48.01291" lon="-3.72465">
        <ele>174.6</ele>
        <time>2024-09-07T08:25:37Z</time>
      </trkpt>
      <trkpt lat="48.01295" lon="-3.7246">
        <ele>174.6</ele>
        <time>2024-09-07T08:25:38Z</time>
      </trkpt>
      <trkpt lat="48.01299" lon="-3.72454">
        <ele>174.8</ele>
        <time>2024-09-07T08:25:39Z</time>
      </trkpt>
      <trkpt lat="48.01302" lon="-3.72448">
        <ele>174.8</ele>
        <time>2024-09-07T08:25:40Z</time>
      </trkpt>
      <trkpt lat="48.01304" lon="-3.72444">
        <ele>174.8</ele>
        <time>2024-09-07T08:25:41Z</time>
      </trkpt>
      <trkpt lat="48.01306" lon="-3.7244">
        <ele>175</ele>
        <time>2024-09-07T08:25:42Z</time>
      </trkpt>
      <trkpt lat="48.01308" lon="-3.72437">
        <ele>175</ele>
        <time>2024-09-07T08:25:43Z</time>
      </trkpt>
      <trkpt lat="48.0131" lon="-3.72432">
        <ele>175</ele>
        <time>2024-09-07T08:25:44Z</time>
      </trkpt>
      <trkpt lat="48.01312" lon="-3.72425">
        <ele>175</ele>
        <time>2024-09-07T08:25:45Z</time>
      </trkpt>
      <trkpt lat="48.01315" lon="-3.72421">
        <ele>175.2</ele>
        <time>2024-09-07T08:25:46Z</time>
      </trkpt>
      <trkpt lat="48.01316" lon="-3.72418">
        <ele>175.2</ele>
        <time>2024-09-07T08:25:47Z</time>
      </trkpt>
      <trkpt lat="48.01318" lon="-3.72414">
        <ele>175.6</ele>
        <time>2024-09-07T08:25:48Z</time>
      </trkpt>
      <trkpt lat="48.0132" lon="-3.7241">
        <ele>175.8</ele>
        <time>2024-09-07T08:25:49Z</time>
      </trkpt>
      <trkpt lat="48.01322" lon="-3.72407">
        <ele>175.8</ele>
        <time>2024-09-07T08:25:50Z</time>
      </trkpt>
      <trkpt lat="48.01325" lon="-3.72402">
        <ele>175.8</ele>
        <time>2024-09-07T08:25:51Z</time>
      </trkpt>
      <trkpt lat="48.01328" lon="-3.72397">
        <ele>175.8</ele>
        <time>2024-09-07T08:25:52Z</time>
      </trkpt>
      <trkpt lat="48.01331" lon="-3.72391">
        <ele>176</ele>
        <time>2024-09-07T08:25:53Z</time>
      </trkpt>
      <trkpt lat="48.01332" lon="-3.72387">
        <ele>176</ele>
        <time>2024-09-07T08:25:54Z</time>
      </trkpt>
      <trkpt lat="48.01334" lon="-3.72382">
        <ele>176.2</ele>
        <time>2024-09-07T08:25:55Z</time>
      </trkpt>
      <trkpt lat="48.01336" lon="-3.72378">
        <ele>176.2</ele>
        <time>2024-09-07T08:25:56Z</time>
      </trkpt>
      <trkpt lat="48.01339" lon="-3.72375">
        <ele>176.2</ele>
        <time>2024-09-07T08:25:57Z</time>
      </trkpt>
      <trkpt lat="48.01342" lon="-3.7237">
        <ele>176.6</ele>
        <time>2024-09-07T08:25:58Z</time>
      </trkpt>
      <trkpt lat="48.01344" lon="-3.72366">
        <ele>176.6</ele>
        <time>2024-09-07T08:25:59Z</time>
      </trkpt>
      <trkpt lat="48.01347" lon="-3.72361">
        <ele>176.6</ele>
        <time>2024-09-07T08:26:00Z</time>
      </trkpt>
      <trkpt lat="48.01349" lon="-3.72356">
        <ele>176.6</ele>
        <time>2024-09-07T08:26:01Z</time>
      </trkpt>
      <trkpt lat="48.01351" lon="-3.72351">
        <ele>176.6</ele>
        <time>2024-09-07T08:26:02Z</time>
      </trkpt>
      <trkpt lat="48.01352" lon="-3.72346">
        <ele>176.8</ele>
        <time>2024-09-07T08:26:03Z</time>
      </trkpt>
      <trkpt lat="48.01354" lon="-3.72342">
        <ele>176.8</ele>
        <time>2024-09-07T08:26:04Z</time>
      </trkpt>
      <trkpt lat="48.01356" lon="-3.72338">
        <ele>176.8</ele>
        <time>2024-09-07T08:26:05Z</time>
      </trkpt>
      <trkpt lat="48.01358" lon="-3.72334">
        <ele>177.2</ele>
        <time>2024-09-07T08:26:06Z</time>
      </trkpt>
      <trkpt lat="48.01361" lon="-3.72328">
        <ele>177.2</ele>
        <time>2024-09-07T08:26:07Z</time>
      </trkpt>
      <trkpt lat="48.01364" lon="-3.72323">
        <ele>177.4</ele>
        <time>2024-09-07T08:26:08Z</time>
      </trkpt>
      <trkpt lat="48.01366" lon="-3.72319">
        <ele>177.4</ele>
        <time>2024-09-07T08:26:09Z</time>
      </trkpt>
      <trkpt lat="48.01368" lon="-3.72314">
        <ele>177.4</ele>
        <time>2024-09-07T08:26:10Z</time>
      </trkpt>
      <trkpt lat="48.0137" lon="-3.7231">
        <ele>177.8</ele>
        <time>2024-09-07T08:26:11Z</time>
      </trkpt>
      <trkpt lat="48.01371" lon="-3.72305">
        <ele>178</ele>
        <time>2024-09-07T08:26:12Z</time>
      </trkpt>
      <trkpt lat="48.01374" lon="-3.72301">
        <ele>178</ele>
        <time>2024-09-07T08:26:13Z</time>
      </trkpt>
      <trkpt lat="48.01378" lon="-3.72294">
        <ele>178</ele>
        <time>2024-09-07T08:26:14Z</time>
      </trkpt>
      <trkpt lat="48.01382" lon="-3.72288">
        <ele>178</ele>
        <time>2024-09-07T08:26:15Z</time>
      </trkpt>
      <trkpt lat="48.01385" lon="-3.72282">
        <ele>178</ele>
        <time>2024-09-07T08:26:16Z</time>
      </trkpt>
      <trkpt lat="48.01388" lon="-3.72278">
        <ele>178.4</ele>
        <time>2024-09-07T08:26:17Z</time>
      </trkpt>
      <trkpt lat="48.01391" lon="-3.72273">
        <ele>178.4</ele>
        <time>2024-09-07T08:26:18Z</time>
      </trkpt>
      <trkpt lat="48.01395" lon="-3.72268">
        <ele>178.4</ele>
        <time>2024-09-07T08:26:19Z</time>
      </trkpt>
      <trkpt lat="48.01398" lon="-3.72264">
        <ele>178.4</ele>
        <time>2024-09-07T08:26:20Z</time>
      </trkpt>
      <trkpt lat="48.01402" lon="-3.72259">
        <ele>178.6</ele>
        <time>2024-09-07T08:26:21Z</time>
      </trkpt>
      <trkpt lat="48.01405" lon="-3.72255">
        <ele>178.6</ele>
        <time>2024-09-07T08:26:22Z</time>
      </trkpt>
      <trkpt lat="48.01408" lon="-3.72251">
        <ele>178.6</ele>
        <time>2024-09-07T08:26:23Z</time>
      </trkpt>
      <trkpt lat="48.01412" lon="-3.72246">
        <ele>178.6</ele>
        <time>2024-09-07T08:26:24Z</time>
      </trkpt>
      <trkpt lat="48.01415" lon="-3.72241">
        <ele>179</ele>
        <time>2024-09-07T08:26:25Z</time>
      </trkpt>
      <trkpt lat="48.01419" lon="-3.72236">
        <ele>179</ele>
        <time>2024-09-07T08:26:26Z</time>
      </trkpt>
      <trkpt lat="48.01423" lon="-3.72231">
        <ele>179</ele>
        <time>2024-09-07T08:26:27Z</time>
      </trkpt>
      <trkpt lat="48.01427" lon="-3.72227">
        <ele>179</ele>
        <time>2024-09-07T08:26:28Z</time>
      </trkpt>
      <trkpt lat="48.01431" lon="-3.72223">
        <ele>179.2</ele>
        <time>2024-09-07T08:26:29Z</time>
      </trkpt>
      <trkpt lat="48.01434" lon="-3.72219">
        <ele>179.2</ele>
        <time>2024-09-07T08:26:30Z</time>
      </trkpt>
      <trkpt lat="48.01437" lon="-3.72216">
        <ele>179.2</ele>
        <time>2024-09-07T08:26:31Z</time>
      </trkpt>
      <trkpt lat="48.0144" lon="-3.72212">
        <ele>179.2</ele>
        <time>2024-09-07T08:26:32Z</time>
      </trkpt>
      <trkpt lat="48.01443" lon="-3.72209">
        <ele>179.2</ele>
        <time>2024-09-07T08:26:33Z</time>
      </trkpt>
      <trkpt lat="48.01447" lon="-3.72205">
        <ele>179.4</ele>
        <time>2024-09-07T08:26:34Z</time>
      </trkpt>
      <trkpt lat="48.0145" lon="-3.72203">
        <ele>179.4</ele>
        <time>2024-09-07T08:26:35Z</time>
      </trkpt>
      <trkpt lat="48.01453" lon="-3.722">
        <ele>179.4</ele>
        <time>2024-09-07T08:26:36Z</time>
      </trkpt>
      <trkpt lat="48.01456" lon="-3.72197">
        <ele>179.4</ele>
        <time>2024-09-07T08:26:37Z</time>
      </trkpt>
      <trkpt lat="48.01459" lon="-3.72194">
        <ele>179.8</ele>
        <time>2024-09-07T08:26:38Z</time>
      </trkpt>
      <trkpt lat="48.01462" lon="-3.72191">
        <ele>179.8</ele>
        <time>2024-09-07T08:26:39Z</time>
      </trkpt>
      <trkpt lat="48.01465" lon="-3.72187">
        <ele>180</ele>
        <time>2024-09-07T08:26:40Z</time>
      </trkpt>
      <trkpt lat="48.01468" lon="-3.72184">
        <ele>180</ele>
        <time>2024-09-07T08:26:41Z</time>
      </trkpt>
      <trkpt lat="48.0147" lon="-3.72181">
        <ele>180</ele>
        <time>2024-09-07T08:26:42Z</time>
      </trkpt>
      <trkpt lat="48.01473" lon="-3.72179">
        <ele>180</ele>
        <time>2024-09-07T08:26:43Z</time>
      </trkpt>
      <trkpt lat="48.01476" lon="-3.72176">
        <ele>180</ele>
        <time>2024-09-07T08:26:44Z</time>
      </trkpt>
      <trkpt lat="48.01479" lon="-3.72173">
        <ele>180.4</ele>
        <time>2024-09-07T08:26:45Z</time>
      </trkpt>
      <trkpt lat="48.01482" lon="-3.72171">
        <ele>180.4</ele>
        <time>2024-09-07T08:26:46Z</time>
      </trkpt>
      <trkpt lat="48.01485" lon="-3.72168">
        <ele>180.4</ele>
        <time>2024-09-07T08:26:47Z</time>
      </trkpt>
      <trkpt lat="48.01488" lon="-3.72166">
        <ele>180.6</ele>
        <time>2024-09-07T08:26:48Z</time>
      </trkpt>
      <trkpt lat="48.01491" lon="-3.72164">
        <ele>180.6</ele>
        <time>2024-09-07T08:26:49Z</time>
      </trkpt>
      <trkpt lat="48.01494" lon="-3.72162">
        <ele>180.6</ele>
        <time>2024-09-07T08:26:50Z</time>
      </trkpt>
      <trkpt lat="48.01497" lon="-3.7216">
        <ele>180.6</ele>
        <time>2024-09-07T08:26:51Z</time>
      </trkpt>
      <trkpt lat="48.01499" lon="-3.72159">
        <ele>181</ele>
        <time>2024-09-07T08:26:52Z</time>
      </trkpt>
      <trkpt lat="48.01501" lon="-3.72158">
        <ele>181</ele>
        <time>2024-09-07T08:26:53Z</time>
      </trkpt>
      <trkpt lat="48.01502" lon="-3.72157">
        <ele>181</ele>
        <time>2024-09-07T08:26:54Z</time>
      </trkpt>
      <trkpt lat="48.01504" lon="-3.72156">
        <ele>181.2</ele>
        <time>2024-09-07T08:26:55Z</time>
      </trkpt>
      <trkpt lat="48.01505" lon="-3.72154">
        <ele>181.2</ele>
        <time>2024-09-07T08:26:56Z</time>
      </trkpt>
      <trkpt lat="48.01507" lon="-3.72152">
        <ele>181.2</ele>
        <time>2024-09-07T08:26:57Z</time>
      </trkpt>
      <trkpt lat="48.01509" lon="-3.72151">
        <ele>181.6</ele>
        <time>2024-09-07T08:26:58Z</time>
      </trkpt>
      <trkpt lat="48.0151" lon="-3.7215">
        <ele>181.6</ele>
        <time>2024-09-07T08:26:59Z</time>
      </trkpt>
      <trkpt lat="48.01511" lon="-3.7215">
        <ele>181.6</ele>
        <time>2024-09-07T08:27:00Z</time>
      </trkpt>
      <trkpt lat="48.01511" lon="-3.7215">
        <ele>181.6</ele>
        <time>2024-09-07T08:27:01Z</time>
      </trkpt>
      <trkpt lat="48.01511" lon="-3.7215">
        <ele>181.8</ele>
        <time>2024-09-07T08:27:02Z</time>
      </trkpt>
      <trkpt lat="48.01512" lon="-3.72149">
        <ele>181.8</ele>
        <time>2024-09-07T08:27:03Z</time>
      </trkpt>
      <trkpt lat="48.01513" lon="-3.72149">
        <ele>181.8</ele>
        <time>2024-09-07T08:27:04Z</time>
      </trkpt>
      <trkpt lat="48.01514" lon="-3.72149">
        <ele>182</ele>
        <time>2024-09-07T08:27:05Z</time>
      </trkpt>
      <trkpt lat="48.01514" lon="-3.72149">
        <ele>182</ele>
        <time>2024-09-07T08:27:06Z</time>
      </trkpt>
      <trkpt lat="48.01524" lon="-3.72143">
        <ele>182.6</ele>
        <time>2024-09-07T08:27:12Z</time>
      </trkpt>
      <trkpt lat="48.01526" lon="-3.72142">
        <ele>182.6</ele>
        <time>2024-09-07T08:27:13Z</time>
      </trkpt>
      <trkpt lat="48.01529" lon="-3.7214">
        <ele>182.6</ele>
        <time>2024-09-07T08:27:14Z</time>
      </trkpt>
      <trkpt lat="48.01531" lon="-3.72139">
        <ele>182.6</ele>
        <time>2024-09-07T08:27:15Z</time>
      </trkpt>
      <trkpt lat="48.01534" lon="-3.72138">
        <ele>182.6</ele>
        <time>2024-09-07T08:27:16Z</time>
      </trkpt>
      <trkpt lat="48.01538" lon="-3.72137">
        <ele>182.6</ele>
        <time>2024-09-07T08:27:17Z</time>
      </trkpt>
      <trkpt lat="48.01541" lon="-3.72136">
        <ele>182.6</ele>
        <time>2024-09-07T08:27:18Z</time>
      </trkpt>
      <trkpt lat="48.01544" lon="-3.72133">
        <ele>183</ele>
        <time>2024-09-07T08:27:19Z</time>
      </trkpt>
      <trkpt lat="48.01547" lon="-3.72132">
        <ele>183</ele>
        <time>2024-09-07T08:27:20Z</time>
      </trkpt>
      <trkpt lat="48.0155" lon="-3.7213">
        <ele>183</ele>
        <time>2024-09-07T08:27:21Z</time>
      </trkpt>
      <trkpt lat="48.01553" lon="-3.7213">
        <ele>183</ele>
        <time>2024-09-07T08:27:22Z</time>
      </trkpt>
      <trkpt lat="48.01557" lon="-3.72128">
        <ele>183</ele>
        <time>2024-09-07T08:27:23Z</time>
      </trkpt>
      <trkpt lat="48.01562" lon="-3.72126">
        <ele>183</ele>
        <time>2024-09-07T08:27:24Z</time>
      </trkpt>
      <trkpt lat="48.01565" lon="-3.72124">
        <ele>183.2</ele>
        <time>2024-09-07T08:27:25Z</time>
      </trkpt>
      <trkpt lat="48.01568" lon="-3.72123">
        <ele>183.2</ele>
        <time>2024-09-07T08:27:26Z</time>
      </trkpt>
      <trkpt lat="48.01572" lon="-3.72122">
        <ele>183.2</ele>
        <time>2024-09-07T08:27:27Z</time>
      </trkpt>
      <trkpt lat="48.01577" lon="-3.72121">
        <ele>183.2</ele>
        <time>2024-09-07T08:27:28Z</time>
      </trkpt>
      <trkpt lat="48.01581" lon="-3.7212">
        <ele>183.2</ele>
        <time>2024-09-07T08:27:29Z</time>
      </trkpt>
      <trkpt lat="48.01585" lon="-3.72118">
        <ele>183.2</ele>
        <time>2024-09-07T08:27:30Z</time>
      </trkpt>
      <trkpt lat="48.01589" lon="-3.72118">
        <ele>183.2</ele>
        <time>2024-09-07T08:27:31Z</time>
      </trkpt>
      <trkpt lat="48.01593" lon="-3.72118">
        <ele>183.2</ele>
        <time>2024-09-07T08:27:32Z</time>
      </trkpt>
      <trkpt lat="48.01597" lon="-3.72117">
        <ele>183.2</ele>
        <time>2024-09-07T08:27:33Z</time>
      </trkpt>
      <trkpt lat="48.01601" lon="-3.72115">
        <ele>183.2</ele>
        <time>2024-09-07T08:27:34Z</time>
      </trkpt>
      <trkpt lat="48.01606" lon="-3.72114">
        <ele>183.2</ele>
        <time>2024-09-07T08:27:35Z</time>
      </trkpt>
      <trkpt lat="48.01611" lon="-3.72113">
        <ele>183.2</ele>
        <time>2024-09-07T08:27:36Z</time>
      </trkpt>
      <trkpt lat="48.01615" lon="-3.72113">
        <ele>183.2</ele>
        <time>2024-09-07T08:27:37Z</time>
      </trkpt>
      <trkpt lat="48.01619" lon="-3.72113">
        <ele>183.2</ele>
        <time>2024-09-07T08:27:38Z</time>
      </trkpt>
      <trkpt lat="48.01622" lon="-3.72113">
        <ele>183.2</ele>
        <time>2024-09-07T08:27:39Z</time>
      </trkpt>
      <trkpt lat="48.01626" lon="-3.72113">
        <ele>183.2</ele>
        <time>2024-09-07T08:27:40Z</time>
      </trkpt>
      <trkpt lat="48.01631" lon="-3.72114">
        <ele>183.2</ele>
        <time>2024-09-07T08:27:41Z</time>
      </trkpt>
      <trkpt lat="48.01635" lon="-3.72113">
        <ele>183.2</ele>
        <time>2024-09-07T08:27:42Z</time>
      </trkpt>
      <trkpt lat="48.01641" lon="-3.72113">
        <ele>183.2</ele>
        <time>2024-09-07T08:27:43Z</time>
      </trkpt>
      <trkpt lat="48.01646" lon="-3.72112">
        <ele>183.2</ele>
        <time>2024-09-07T08:27:44Z</time>
      </trkpt>
      <trkpt lat="48.01651" lon="-3.72111">
        <ele>183.2</ele>
        <time>2024-09-07T08:27:45Z</time>
      </trkpt>
      <trkpt lat="48.01654" lon="-3.72111">
        <ele>183.2</ele>
        <time>2024-09-07T08:27:46Z</time>
      </trkpt>
      <trkpt lat="48.01657" lon="-3.72111">
        <ele>183.2</ele>
        <time>2024-09-07T08:27:47Z</time>
      </trkpt>
      <trkpt lat="48.01663" lon="-3.7211">
        <ele>183.2</ele>
        <time>2024-09-07T08:27:48Z</time>
      </trkpt>
      <trkpt lat="48.01669" lon="-3.72111">
        <ele>183.2</ele>
        <time>2024-09-07T08:27:49Z</time>
      </trkpt>
      <trkpt lat="48.01674" lon="-3.72111">
        <ele>183.2</ele>
        <time>2024-09-07T08:27:50Z</time>
      </trkpt>
      <trkpt lat="48.01679" lon="-3.72112">
        <ele>183.2</ele>
        <time>2024-09-07T08:27:51Z</time>
      </trkpt>
      <trkpt lat="48.01686" lon="-3.72114">
        <ele>183.2</ele>
        <time>2024-09-07T08:27:52Z</time>
      </trkpt>
      <trkpt lat="48.01692" lon="-3.72113">
        <ele>183.2</ele>
        <time>2024-09-07T08:27:53Z</time>
      </trkpt>
      <trkpt lat="48.01699" lon="-3.72112">
        <ele>183.2</ele>
        <time>2024-09-07T08:27:54Z</time>
      </trkpt>
      <trkpt lat="48.01704" lon="-3.72111">
        <ele>183.2</ele>
        <time>2024-09-07T08:27:55Z</time>
      </trkpt>
      <trkpt lat="48.01707" lon="-3.72111">
        <ele>183.2</ele>
        <time>2024-09-07T08:27:56Z</time>
      </trkpt>
      <trkpt lat="48.01712" lon="-3.72111">
        <ele>183.2</ele>
        <time>2024-09-07T08:27:57Z</time>
      </trkpt>
      <trkpt lat="48.01716" lon="-3.72111">
        <ele>183.2</ele>
        <time>2024-09-07T08:27:58Z</time>
      </trkpt>
      <trkpt lat="48.01722" lon="-3.72111">
        <ele>183.2</ele>
        <time>2024-09-07T08:27:59Z</time>
      </trkpt>
      <trkpt lat="48.01727" lon="-3.72111">
        <ele>183.2</ele>
        <time>2024-09-07T08:28:00Z</time>
      </trkpt>
      <trkpt lat="48.01732" lon="-3.72111">
        <ele>183.2</ele>
        <time>2024-09-07T08:28:01Z</time>
      </trkpt>
      <trkpt lat="48.01737" lon="-3.72111">
        <ele>183.2</ele>
        <time>2024-09-07T08:28:02Z</time>
      </trkpt>
      <trkpt lat="48.01742" lon="-3.72111">
        <ele>183.2</ele>
        <time>2024-09-07T08:28:03Z</time>
      </trkpt>
      <trkpt lat="48.01746" lon="-3.72111">
        <ele>183.2</ele>
        <time>2024-09-07T08:28:04Z</time>
      </trkpt>
      <trkpt lat="48.01751" lon="-3.72111">
        <ele>183</ele>
        <time>2024-09-07T08:28:05Z</time>
      </trkpt>
      <trkpt lat="48.01756" lon="-3.7211">
        <ele>183</ele>
        <time>2024-09-07T08:28:06Z</time>
      </trkpt>
      <trkpt lat="48.0176" lon="-3.7211">
        <ele>183</ele>
        <time>2024-09-07T08:28:07Z</time>
      </trkpt>
      <trkpt lat="48.01766" lon="-3.72108">
        <ele>183</ele>
        <time>2024-09-07T08:28:08Z</time>
      </trkpt>
      <trkpt lat="48.01772" lon="-3.72108">
        <ele>182.6</ele>
        <time>2024-09-07T08:28:09Z</time>
      </trkpt>
      <trkpt lat="48.01778" lon="-3.72107">
        <ele>182.6</ele>
        <time>2024-09-07T08:28:10Z</time>
      </trkpt>
      <trkpt lat="48.01785" lon="-3.72106">
        <ele>182.6</ele>
        <time>2024-09-07T08:28:11Z</time>
      </trkpt>
      <trkpt lat="48.01792" lon="-3.72105">
        <ele>182.6</ele>
        <time>2024-09-07T08:28:12Z</time>
      </trkpt>
      <trkpt lat="48.01798" lon="-3.72105">
        <ele>182.4</ele>
        <time>2024-09-07T08:28:13Z</time>
      </trkpt>
      <trkpt lat="48.01804" lon="-3.72105">
        <ele>182.4</ele>
        <time>2024-09-07T08:28:14Z</time>
      </trkpt>
      <trkpt lat="48.01811" lon="-3.72106">
        <ele>182</ele>
        <time>2024-09-07T08:28:15Z</time>
      </trkpt>
      <trkpt lat="48.01817" lon="-3.72106">
        <ele>182</ele>
        <time>2024-09-07T08:28:16Z</time>
      </trkpt>
      <trkpt lat="48.01823" lon="-3.72105">
        <ele>181.8</ele>
        <time>2024-09-07T08:28:17Z</time>
      </trkpt>
      <trkpt lat="48.01828" lon="-3.72105">
        <ele>181.8</ele>
        <time>2024-09-07T08:28:18Z</time>
      </trkpt>
      <trkpt lat="48.01833" lon="-3.72105">
        <ele>181.8</ele>
        <time>2024-09-07T08:28:19Z</time>
      </trkpt>
      <trkpt lat="48.0184" lon="-3.72105">
        <ele>181.6</ele>
        <time>2024-09-07T08:28:20Z</time>
      </trkpt>
      <trkpt lat="48.01847" lon="-3.72105">
        <ele>181.6</ele>
        <time>2024-09-07T08:28:21Z</time>
      </trkpt>
      <trkpt lat="48.01854" lon="-3.72105">
        <ele>181.2</ele>
        <time>2024-09-07T08:28:22Z</time>
      </trkpt>
      <trkpt lat="48.01863" lon="-3.72107">
        <ele>181.2</ele>
        <time>2024-09-07T08:28:23Z</time>
      </trkpt>
      <trkpt lat="48.01871" lon="-3.72107">
        <ele>181.2</ele>
        <time>2024-09-07T08:28:24Z</time>
      </trkpt>
      <trkpt lat="48.01878" lon="-3.72106">
        <ele>181.2</ele>
        <time>2024-09-07T08:28:25Z</time>
      </trkpt>
      <trkpt lat="48.01885" lon="-3.72106">
        <ele>181</ele>
        <time>2024-09-07T08:28:26Z</time>
      </trkpt>
      <trkpt lat="48.01893" lon="-3.72105">
        <ele>180.6</ele>
        <time>2024-09-07T08:28:27Z</time>
      </trkpt>
      <trkpt lat="48.01901" lon="-3.72104">
        <ele>180.6</ele>
        <time>2024-09-07T08:28:28Z</time>
      </trkpt>
      <trkpt lat="48.01908" lon="-3.72102">
        <ele>180.6</ele>
        <time>2024-09-07T08:28:29Z</time>
      </trkpt>
      <trkpt lat="48.01915" lon="-3.721">
        <ele>180.4</ele>
        <time>2024-09-07T08:28:30Z</time>
      </trkpt>
      <trkpt lat="48.01921" lon="-3.72097">
        <ele>180.4</ele>
        <time>2024-09-07T08:28:31Z</time>
      </trkpt>
      <trkpt lat="48.01928" lon="-3.72095">
        <ele>180.4</ele>
        <time>2024-09-07T08:28:32Z</time>
      </trkpt>
      <trkpt lat="48.01933" lon="-3.72093">
        <ele>180.2</ele>
        <time>2024-09-07T08:28:33Z</time>
      </trkpt>
      <trkpt lat="48.0194" lon="-3.7209">
        <ele>180</ele>
        <time>2024-09-07T08:28:34Z</time>
      </trkpt>
      <trkpt lat="48.01944" lon="-3.72086">
        <ele>179.8</ele>
        <time>2024-09-07T08:28:35Z</time>
      </trkpt>
      <trkpt lat="48.01949" lon="-3.72083">
        <ele>179.8</ele>
        <time>2024-09-07T08:28:36Z</time>
      </trkpt>
      <trkpt lat="48.01953" lon="-3.7208">
        <ele>179.8</ele>
        <time>2024-09-07T08:28:37Z</time>
      </trkpt>
      <trkpt lat="48.01957" lon="-3.72079">
        <ele>179.6</ele>
        <time>2024-09-07T08:28:38Z</time>
      </trkpt>
      <trkpt lat="48.01961" lon="-3.72078">
        <ele>179.6</ele>
        <time>2024-09-07T08:28:39Z</time>
      </trkpt>
      <trkpt lat="48.01964" lon="-3.72077">
        <ele>179.4</ele>
        <time>2024-09-07T08:28:40Z</time>
      </trkpt>
      <trkpt lat="48.01967" lon="-3.72075">
        <ele>179.4</ele>
        <time>2024-09-07T08:28:41Z</time>
      </trkpt>
      <trkpt lat="48.01971" lon="-3.72073">
        <ele>179.2</ele>
        <time>2024-09-07T08:28:42Z</time>
      </trkpt>
      <trkpt lat="48.01975" lon="-3.7207">
        <ele>179</ele>
        <time>2024-09-07T08:28:43Z</time>
      </trkpt>
      <trkpt lat="48.01977" lon="-3.72067">
        <ele>179</ele>
        <time>2024-09-07T08:28:44Z</time>
      </trkpt>
      <trkpt lat="48.0198" lon="-3.72066">
        <ele>178.8</ele>
        <time>2024-09-07T08:28:45Z</time>
      </trkpt>
      <trkpt lat="48.01982" lon="-3.72064">
        <ele>178.8</ele>
        <time>2024-09-07T08:28:46Z</time>
      </trkpt>
      <trkpt lat="48.01984" lon="-3.72062">
        <ele>178.6</ele>
        <time>2024-09-07T08:28:47Z</time>
      </trkpt>
      <trkpt lat="48.01985" lon="-3.7206">
        <ele>178.6</ele>
        <time>2024-09-07T08:28:48Z</time>
      </trkpt>
      <trkpt lat="48.01986" lon="-3.72059">
        <ele>178.6</ele>
        <time>2024-09-07T08:28:49Z</time>
      </trkpt>
      <trkpt lat="48.01988" lon="-3.72058">
        <ele>178.6</ele>
        <time>2024-09-07T08:28:50Z</time>
      </trkpt>
      <trkpt lat="48.01989" lon="-3.72057">
        <ele>178.6</ele>
        <time>2024-09-07T08:28:51Z</time>
      </trkpt>
      <trkpt lat="48.01991" lon="-3.72055">
        <ele>178.6</ele>
        <time>2024-09-07T08:28:52Z</time>
      </trkpt>
      <trkpt lat="48.01993" lon="-3.72052">
        <ele>178.4</ele>
        <time>2024-09-07T08:28:53Z</time>
      </trkpt>
      <trkpt lat="48.01995" lon="-3.7205">
        <ele>178.4</ele>
        <time>2024-09-07T08:28:54Z</time>
      </trkpt>
      <trkpt lat="48.01998" lon="-3.72048">
        <ele>178.4</ele>
        <time>2024-09-07T08:28:55Z</time>
      </trkpt>
      <trkpt lat="48.02001" lon="-3.72046">
        <ele>178.4</ele>
        <time>2024-09-07T08:28:56Z</time>
      </trkpt>
      <trkpt lat="48.02004" lon="-3.72044">
        <ele>178.4</ele>
        <time>2024-09-07T08:28:57Z</time>
      </trkpt>
      <trkpt lat="48.02006" lon="-3.72041">
        <ele>178.4</ele>
        <time>2024-09-07T08:28:58Z</time>
      </trkpt>
      <trkpt lat="48.02009" lon="-3.72037">
        <ele>178.4</ele>
        <time>2024-09-07T08:28:59Z</time>
      </trkpt>
      <trkpt lat="48.02011" lon="-3.72034">
        <ele>178.4</ele>
        <time>2024-09-07T08:29:00Z</time>
      </trkpt>
      <trkpt lat="48.02013" lon="-3.72031">
        <ele>178.4</ele>
        <time>2024-09-07T08:29:01Z</time>
      </trkpt>
      <trkpt lat="48.02015" lon="-3.72028">
        <ele>178.4</ele>
        <time>2024-09-07T08:29:02Z</time>
      </trkpt>
      <trkpt lat="48.02017" lon="-3.72026">
        <ele>178.4</ele>
        <time>2024-09-07T08:29:03Z</time>
      </trkpt>
      <trkpt lat="48.02019" lon="-3.72023">
        <ele>178.4</ele>
        <time>2024-09-07T08:29:04Z</time>
      </trkpt>
      <trkpt lat="48.0202" lon="-3.72021">
        <ele>178.4</ele>
        <time>2024-09-07T08:29:05Z</time>
      </trkpt>
      <trkpt lat="48.02022" lon="-3.72018">
        <ele>178.4</ele>
        <time>2024-09-07T08:29:06Z</time>
      </trkpt>
      <trkpt lat="48.02023" lon="-3.72016">
        <ele>178.4</ele>
        <time>2024-09-07T08:29:07Z</time>
      </trkpt>
      <trkpt lat="48.02025" lon="-3.72015">
        <ele>178.4</ele>
        <time>2024-09-07T08:29:08Z</time>
      </trkpt>
      <trkpt lat="48.02027" lon="-3.72013">
        <ele>178.4</ele>
        <time>2024-09-07T08:29:09Z</time>
      </trkpt>
      <trkpt lat="48.02028" lon="-3.72011">
        <ele>178.4</ele>
        <time>2024-09-07T08:29:10Z</time>
      </trkpt>
      <trkpt lat="48.02029" lon="-3.72009">
        <ele>178.4</ele>
        <time>2024-09-07T08:29:11Z</time>
      </trkpt>
      <trkpt lat="48.02031" lon="-3.72007">
        <ele>178.4</ele>
        <time>2024-09-07T08:29:12Z</time>
      </trkpt>
      <trkpt lat="48.02031" lon="-3.72004">
        <ele>178.4</ele>
        <time>2024-09-07T08:29:13Z</time>
      </trkpt>
      <trkpt lat="48.02032" lon="-3.72001">
        <ele>178.4</ele>
        <time>2024-09-07T08:29:14Z</time>
      </trkpt>
      <trkpt lat="48.02033" lon="-3.71997">
        <ele>178.4</ele>
        <time>2024-09-07T08:29:15Z</time>
      </trkpt>
      <trkpt lat="48.02033" lon="-3.71994">
        <ele>178.4</ele>
        <time>2024-09-07T08:29:16Z</time>
      </trkpt>
      <trkpt lat="48.02035" lon="-3.71991">
        <ele>178.4</ele>
        <time>2024-09-07T08:29:17Z</time>
      </trkpt>
      <trkpt lat="48.02037" lon="-3.71988">
        <ele>178.4</ele>
        <time>2024-09-07T08:29:18Z</time>
      </trkpt>
      <trkpt lat="48.02039" lon="-3.71986">
        <ele>178.4</ele>
        <time>2024-09-07T08:29:19Z</time>
      </trkpt>
      <trkpt lat="48.02042" lon="-3.71983">
        <ele>178.4</ele>
        <time>2024-09-07T08:29:20Z</time>
      </trkpt>
      <trkpt lat="48.02045" lon="-3.71981">
        <ele>178.4</ele>
        <time>2024-09-07T08:29:21Z</time>
      </trkpt>
      <trkpt lat="48.02048" lon="-3.71977">
        <ele>178.4</ele>
        <time>2024-09-07T08:29:22Z</time>
      </trkpt>
      <trkpt lat="48.0205" lon="-3.71973">
        <ele>178.4</ele>
        <time>2024-09-07T08:29:23Z</time>
      </trkpt>
      <trkpt lat="48.02053" lon="-3.71969">
        <ele>178.4</ele>
        <time>2024-09-07T08:29:24Z</time>
      </trkpt>
      <trkpt lat="48.02055" lon="-3.71965">
        <ele>178.4</ele>
        <time>2024-09-07T08:29:25Z</time>
      </trkpt>
      <trkpt lat="48.02057" lon="-3.7196">
        <ele>178.4</ele>
        <time>2024-09-07T08:29:26Z</time>
      </trkpt>
      <trkpt lat="48.02059" lon="-3.71954">
        <ele>178.4</ele>
        <time>2024-09-07T08:29:27Z</time>
      </trkpt>
      <trkpt lat="48.02062" lon="-3.71949">
        <ele>178.4</ele>
        <time>2024-09-07T08:29:28Z</time>
      </trkpt>
      <trkpt lat="48.02064" lon="-3.71944">
        <ele>178.4</ele>
        <time>2024-09-07T08:29:29Z</time>
      </trkpt>
      <trkpt lat="48.02067" lon="-3.71939">
        <ele>178.4</ele>
        <time>2024-09-07T08:29:30Z</time>
      </trkpt>
      <trkpt lat="48.02069" lon="-3.71933">
        <ele>178.4</ele>
        <time>2024-09-07T08:29:31Z</time>
      </trkpt>
      <trkpt lat="48.02072" lon="-3.71928">
        <ele>178.4</ele>
        <time>2024-09-07T08:29:32Z</time>
      </trkpt>
      <trkpt lat="48.02074" lon="-3.71922">
        <ele>178.2</ele>
        <time>2024-09-07T08:29:33Z</time>
      </trkpt>
      <trkpt lat="48.02076" lon="-3.71916">
        <ele>178.2</ele>
        <time>2024-09-07T08:29:34Z</time>
      </trkpt>
      <trkpt lat="48.02078" lon="-3.7191">
        <ele>178.2</ele>
        <time>2024-09-07T08:29:35Z</time>
      </trkpt>
      <trkpt lat="48.0208" lon="-3.71904">
        <ele>178</ele>
        <time>2024-09-07T08:29:36Z</time>
      </trkpt>
      <trkpt lat="48.02083" lon="-3.71897">
        <ele>178</ele>
        <time>2024-09-07T08:29:37Z</time>
      </trkpt>
      <trkpt lat="48.02086" lon="-3.71891">
        <ele>178</ele>
        <time>2024-09-07T08:29:38Z</time>
      </trkpt>
      <trkpt lat="48.02088" lon="-3.71885">
        <ele>178</ele>
        <time>2024-09-07T08:29:39Z</time>
      </trkpt>
      <trkpt lat="48.0209" lon="-3.71879">
        <ele>177.8</ele>
        <time>2024-09-07T08:29:40Z</time>
      </trkpt>
      <trkpt lat="48.02093" lon="-3.71873">
        <ele>177.8</ele>
        <time>2024-09-07T08:29:41Z</time>
      </trkpt>
      <trkpt lat="48.02095" lon="-3.71868">
        <ele>177.8</ele>
        <time>2024-09-07T08:29:42Z</time>
      </trkpt>
      <trkpt lat="48.02098" lon="-3.71863">
        <ele>177.8</ele>
        <time>2024-09-07T08:29:43Z</time>
      </trkpt>
      <trkpt lat="48.02101" lon="-3.71856">
        <ele>177.6</ele>
        <time>2024-09-07T08:29:44Z</time>
      </trkpt>
      <trkpt lat="48.02103" lon="-3.71851">
        <ele>177.6</ele>
        <time>2024-09-07T08:29:45Z</time>
      </trkpt>
      <trkpt lat="48.02106" lon="-3.71845">
        <ele>177.6</ele>
        <time>2024-09-07T08:29:46Z</time>
      </trkpt>
      <trkpt lat="48.02108" lon="-3.71838">
        <ele>177.6</ele>
        <time>2024-09-07T08:29:47Z</time>
      </trkpt>
      <trkpt lat="48.02111" lon="-3.71831">
        <ele>177.6</ele>
        <time>2024-09-07T08:29:48Z</time>
      </trkpt>
      <trkpt lat="48.02115" lon="-3.71823">
        <ele>177.6</ele>
        <time>2024-09-07T08:29:49Z</time>
      </trkpt>
      <trkpt lat="48.02117" lon="-3.71817">
        <ele>177.6</ele>
        <time>2024-09-07T08:29:50Z</time>
      </trkpt>
      <trkpt lat="48.0212" lon="-3.71811">
        <ele>177.6</ele>
        <time>2024-09-07T08:29:51Z</time>
      </trkpt>
      <trkpt lat="48.02124" lon="-3.71803">
        <ele>177.4</ele>
        <time>2024-09-07T08:29:52Z</time>
      </trkpt>
      <trkpt lat="48.02128" lon="-3.71795">
        <ele>177.4</ele>
        <time>2024-09-07T08:29:53Z</time>
      </trkpt>
      <trkpt lat="48.02131" lon="-3.71789">
        <ele>177.2</ele>
        <time>2024-09-07T08:29:54Z</time>
      </trkpt>
      <trkpt lat="48.02133" lon="-3.71783">
        <ele>177.2</ele>
        <time>2024-09-07T08:29:55Z</time>
      </trkpt>
      <trkpt lat="48.02136" lon="-3.71777">
        <ele>177</ele>
        <time>2024-09-07T08:29:56Z</time>
      </trkpt>
      <trkpt lat="48.02139" lon="-3.7177">
        <ele>177</ele>
        <time>2024-09-07T08:29:57Z</time>
      </trkpt>
      <trkpt lat="48.02142" lon="-3.71762">
        <ele>177</ele>
        <time>2024-09-07T08:29:58Z</time>
      </trkpt>
      <trkpt lat="48.02146" lon="-3.71754">
        <ele>176.8</ele>
        <time>2024-09-07T08:29:59Z</time>
      </trkpt>
      <trkpt lat="48.02149" lon="-3.71748">
        <ele>176.8</ele>
        <time>2024-09-07T08:30:00Z</time>
      </trkpt>
      <trkpt lat="48.02151" lon="-3.7174">
        <ele>176.8</ele>
        <time>2024-09-07T08:30:01Z</time>
      </trkpt>
      <trkpt lat="48.02154" lon="-3.71731">
        <ele>176.8</ele>
        <time>2024-09-07T08:30:02Z</time>
      </trkpt>
      <trkpt lat="48.02156" lon="-3.71725">
        <ele>176.8</ele>
        <time>2024-09-07T08:30:03Z</time>
      </trkpt>
      <trkpt lat="48.02157" lon="-3.71719">
        <ele>176.8</ele>
        <time>2024-09-07T08:30:04Z</time>
      </trkpt>
      <trkpt lat="48.0216" lon="-3.71713">
        <ele>176.6</ele>
        <time>2024-09-07T08:30:05Z</time>
      </trkpt>
      <trkpt lat="48.02162" lon="-3.71707">
        <ele>176.6</ele>
        <time>2024-09-07T08:30:06Z</time>
      </trkpt>
      <trkpt lat="48.02165" lon="-3.71699">
        <ele>176.6</ele>
        <time>2024-09-07T08:30:07Z</time>
      </trkpt>
      <trkpt lat="48.02169" lon="-3.71691">
        <ele>176.6</ele>
        <time>2024-09-07T08:30:08Z</time>
      </trkpt>
      <trkpt lat="48.02171" lon="-3.71684">
        <ele>176.6</ele>
        <time>2024-09-07T08:30:09Z</time>
      </trkpt>
      <trkpt lat="48.02175" lon="-3.71676">
        <ele>176.4</ele>
        <time>2024-09-07T08:30:10Z</time>
      </trkpt>
      <trkpt lat="48.02178" lon="-3.71667">
        <ele>176.4</ele>
        <time>2024-09-07T08:30:11Z</time>
      </trkpt>
      <trkpt lat="48.02182" lon="-3.7166">
        <ele>176.2</ele>
        <time>2024-09-07T08:30:12Z</time>
      </trkpt>
      <trkpt lat="48.02184" lon="-3.71654">
        <ele>176.2</ele>
        <time>2024-09-07T08:30:13Z</time>
      </trkpt>
      <trkpt lat="48.02188" lon="-3.71646">
        <ele>176.2</ele>
        <time>2024-09-07T08:30:14Z</time>
      </trkpt>
      <trkpt lat="48.02191" lon="-3.71638">
        <ele>176</ele>
        <time>2024-09-07T08:30:15Z</time>
      </trkpt>
      <trkpt lat="48.02195" lon="-3.7163">
        <ele>176</ele>
        <time>2024-09-07T08:30:16Z</time>
      </trkpt>
      <trkpt lat="48.02203" lon="-3.7162">
        <ele>176</ele>
        <time>2024-09-07T08:30:17Z</time>
      </trkpt>
      <trkpt lat="48.02206" lon="-3.71612">
        <ele>175.8</ele>
        <time>2024-09-07T08:30:18Z</time>
      </trkpt>
      <trkpt lat="48.02209" lon="-3.71605">
        <ele>175.8</ele>
        <time>2024-09-07T08:30:19Z</time>
      </trkpt>
      <trkpt lat="48.02211" lon="-3.71597">
        <ele>175.6</ele>
        <time>2024-09-07T08:30:20Z</time>
      </trkpt>
      <trkpt lat="48.02214" lon="-3.71589">
        <ele>175.6</ele>
        <time>2024-09-07T08:30:21Z</time>
      </trkpt>
      <trkpt lat="48.02217" lon="-3.71581">
        <ele>175.6</ele>
        <time>2024-09-07T08:30:22Z</time>
      </trkpt>
      <trkpt lat="48.02221" lon="-3.71572">
        <ele>175.4</ele>
        <time>2024-09-07T08:30:23Z</time>
      </trkpt>
      <trkpt lat="48.02224" lon="-3.71564">
        <ele>175.2</ele>
        <time>2024-09-07T08:30:24Z</time>
      </trkpt>
      <trkpt lat="48.02229" lon="-3.71554">
        <ele>175.2</ele>
        <time>2024-09-07T08:30:25Z</time>
      </trkpt>
      <trkpt lat="48.02232" lon="-3.71546">
        <ele>175.2</ele>
        <time>2024-09-07T08:30:26Z</time>
      </trkpt>
      <trkpt lat="48.02237" lon="-3.71537">
        <ele>175</ele>
        <time>2024-09-07T08:30:27Z</time>
      </trkpt>
      <trkpt lat="48.02241" lon="-3.71529">
        <ele>174.8</ele>
        <time>2024-09-07T08:30:28Z</time>
      </trkpt>
      <trkpt lat="48.02245" lon="-3.71521">
        <ele>174.8</ele>
        <time>2024-09-07T08:30:29Z</time>
      </trkpt>
      <trkpt lat="48.02249" lon="-3.71512">
        <ele>174.6</ele>
        <time>2024-09-07T08:30:30Z</time>
      </trkpt>
      <trkpt lat="48.02252" lon="-3.71504">
        <ele>174.6</ele>
        <time>2024-09-07T08:30:31Z</time>
      </trkpt>
      <trkpt lat="48.02254" lon="-3.71496">
        <ele>174.4</ele>
        <time>2024-09-07T08:30:32Z</time>
      </trkpt>
      <trkpt lat="48.02257" lon="-3.71488">
        <ele>174.4</ele>
        <time>2024-09-07T08:30:33Z</time>
      </trkpt>
      <trkpt lat="48.0226" lon="-3.71481">
        <ele>174.2</ele>
        <time>2024-09-07T08:30:34Z</time>
      </trkpt>
      <trkpt lat="48.02262" lon="-3.71473">
        <ele>174.2</ele>
        <time>2024-09-07T08:30:35Z</time>
      </trkpt>
      <trkpt lat="48.02265" lon="-3.71466">
        <ele>174</ele>
        <time>2024-09-07T08:30:36Z</time>
      </trkpt>
      <trkpt lat="48.02268" lon="-3.71459">
        <ele>174</ele>
        <time>2024-09-07T08:30:37Z</time>
      </trkpt>
      <trkpt lat="48.0227" lon="-3.71451">
        <ele>173.8</ele>
        <time>2024-09-07T08:30:38Z</time>
      </trkpt>
      <trkpt lat="48.02272" lon="-3.71444">
        <ele>173.8</ele>
        <time>2024-09-07T08:30:39Z</time>
      </trkpt>
      <trkpt lat="48.02275" lon="-3.71437">
        <ele>173.6</ele>
        <time>2024-09-07T08:30:40Z</time>
      </trkpt>
      <trkpt lat="48.02277" lon="-3.7143">
        <ele>173.4</ele>
        <time>2024-09-07T08:30:41Z</time>
      </trkpt>
      <trkpt lat="48.02281" lon="-3.71423">
        <ele>173.4</ele>
        <time>2024-09-07T08:30:42Z</time>
      </trkpt>
      <trkpt lat="48.02284" lon="-3.71416">
        <ele>173.2</ele>
        <time>2024-09-07T08:30:43Z</time>
      </trkpt>
      <trkpt lat="48.02287" lon="-3.71408">
        <ele>173.2</ele>
        <time>2024-09-07T08:30:44Z</time>
      </trkpt>
      <trkpt lat="48.0229" lon="-3.714">
        <ele>173.2</ele>
        <time>2024-09-07T08:30:45Z</time>
      </trkpt>
      <trkpt lat="48.02292" lon="-3.71393">
        <ele>173</ele>
        <time>2024-09-07T08:30:46Z</time>
      </trkpt>
      <trkpt lat="48.02295" lon="-3.71384">
        <ele>172.8</ele>
        <time>2024-09-07T08:30:47Z</time>
      </trkpt>
      <trkpt lat="48.02299" lon="-3.71376">
        <ele>172.8</ele>
        <time>2024-09-07T08:30:48Z</time>
      </trkpt>
      <trkpt lat="48.02302" lon="-3.71368">
        <ele>172.8</ele>
        <time>2024-09-07T08:30:49Z</time>
      </trkpt>
      <trkpt lat="48.02305" lon="-3.7136">
        <ele>172.6</ele>
        <time>2024-09-07T08:30:50Z</time>
      </trkpt>
      <trkpt lat="48.02308" lon="-3.71353">
        <ele>172.6</ele>
        <time>2024-09-07T08:30:51Z</time>
      </trkpt>
      <trkpt lat="48.02312" lon="-3.71347">
        <ele>172.4</ele>
        <time>2024-09-07T08:30:52Z</time>
      </trkpt>
      <trkpt lat="48.02315" lon="-3.7134">
        <ele>172.4</ele>
        <time>2024-09-07T08:30:53Z</time>
      </trkpt>
      <trkpt lat="48.02319" lon="-3.71334">
        <ele>172.4</ele>
        <time>2024-09-07T08:30:54Z</time>
      </trkpt>
      <trkpt lat="48.02323" lon="-3.71325">
        <ele>172.2</ele>
        <time>2024-09-07T08:30:55Z</time>
      </trkpt>
      <trkpt lat="48.02326" lon="-3.71317">
        <ele>172.2</ele>
        <time>2024-09-07T08:30:56Z</time>
      </trkpt>
      <trkpt lat="48.0233" lon="-3.7131">
        <ele>172</ele>
        <time>2024-09-07T08:30:57Z</time>
      </trkpt>
      <trkpt lat="48.02334" lon="-3.71302">
        <ele>172</ele>
        <time>2024-09-07T08:30:58Z</time>
      </trkpt>
      <trkpt lat="48.02336" lon="-3.71295">
        <ele>172</ele>
        <time>2024-09-07T08:30:59Z</time>
      </trkpt>
      <trkpt lat="48.02339" lon="-3.71289">
        <ele>172</ele>
        <time>2024-09-07T08:31:00Z</time>
      </trkpt>
      <trkpt lat="48.02341" lon="-3.71282">
        <ele>172</ele>
        <time>2024-09-07T08:31:01Z</time>
      </trkpt>
      <trkpt lat="48.02345" lon="-3.71275">
        <ele>172</ele>
        <time>2024-09-07T08:31:02Z</time>
      </trkpt>
      <trkpt lat="48.02348" lon="-3.71267">
        <ele>171.8</ele>
        <time>2024-09-07T08:31:03Z</time>
      </trkpt>
      <trkpt lat="48.02352" lon="-3.71259">
        <ele>171.8</ele>
        <time>2024-09-07T08:31:04Z</time>
      </trkpt>
      <trkpt lat="48.02355" lon="-3.7125">
        <ele>171.8</ele>
        <time>2024-09-07T08:31:05Z</time>
      </trkpt>
      <trkpt lat="48.02359" lon="-3.71243">
        <ele>171.8</ele>
        <time>2024-09-07T08:31:06Z</time>
      </trkpt>
      <trkpt lat="48.02362" lon="-3.71238">
        <ele>171.8</ele>
        <time>2024-09-07T08:31:07Z</time>
      </trkpt>
      <trkpt lat="48.02366" lon="-3.71232">
        <ele>171.8</ele>
        <time>2024-09-07T08:31:08Z</time>
      </trkpt>
      <trkpt lat="48.02369" lon="-3.71225">
        <ele>171.8</ele>
        <time>2024-09-07T08:31:09Z</time>
      </trkpt>
      <trkpt lat="48.02372" lon="-3.7122">
        <ele>171.8</ele>
        <time>2024-09-07T08:31:10Z</time>
      </trkpt>
      <trkpt lat="48.02375" lon="-3.71214">
        <ele>171.8</ele>
        <time>2024-09-07T08:31:11Z</time>
      </trkpt>
      <trkpt lat="48.02378" lon="-3.71207">
        <ele>171.8</ele>
        <time>2024-09-07T08:31:12Z</time>
      </trkpt>
      <trkpt lat="48.02381" lon="-3.712">
        <ele>171.8</ele>
        <time>2024-09-07T08:31:13Z</time>
      </trkpt>
      <trkpt lat="48.02383" lon="-3.71194">
        <ele>171.8</ele>
        <time>2024-09-07T08:31:14Z</time>
      </trkpt>
      <trkpt lat="48.02385" lon="-3.71187">
        <ele>171.8</ele>
        <time>2024-09-07T08:31:15Z</time>
      </trkpt>
      <trkpt lat="48.02388" lon="-3.71181">
        <ele>171.8</ele>
        <time>2024-09-07T08:31:16Z</time>
      </trkpt>
      <trkpt lat="48.0239" lon="-3.71174">
        <ele>172</ele>
        <time>2024-09-07T08:31:17Z</time>
      </trkpt>
      <trkpt lat="48.02393" lon="-3.71167">
        <ele>172</ele>
        <time>2024-09-07T08:31:18Z</time>
      </trkpt>
      <trkpt lat="48.02395" lon="-3.7116">
        <ele>172.2</ele>
        <time>2024-09-07T08:31:19Z</time>
      </trkpt>
      <trkpt lat="48.02397" lon="-3.71153">
        <ele>172.2</ele>
        <time>2024-09-07T08:31:20Z</time>
      </trkpt>
      <trkpt lat="48.02399" lon="-3.71147">
        <ele>172.2</ele>
        <time>2024-09-07T08:31:21Z</time>
      </trkpt>
      <trkpt lat="48.02401" lon="-3.71141">
        <ele>172.2</ele>
        <time>2024-09-07T08:31:22Z</time>
      </trkpt>
      <trkpt lat="48.02403" lon="-3.71135">
        <ele>172.2</ele>
        <time>2024-09-07T08:31:23Z</time>
      </trkpt>
      <trkpt lat="48.02406" lon="-3.7113">
        <ele>172.2</ele>
        <time>2024-09-07T08:31:24Z</time>
      </trkpt>
      <trkpt lat="48.02407" lon="-3.71124">
        <ele>172.4</ele>
        <time>2024-09-07T08:31:25Z</time>
      </trkpt>
      <trkpt lat="48.0241" lon="-3.71118">
        <ele>172.4</ele>
        <time>2024-09-07T08:31:26Z</time>
      </trkpt>
      <trkpt lat="48.02412" lon="-3.71111">
        <ele>172.4</ele>
        <time>2024-09-07T08:31:27Z</time>
      </trkpt>
      <trkpt lat="48.02415" lon="-3.71104">
        <ele>172.4</ele>
        <time>2024-09-07T08:31:28Z</time>
      </trkpt>
      <trkpt lat="48.02417" lon="-3.71098">
        <ele>172.4</ele>
        <time>2024-09-07T08:31:29Z</time>
      </trkpt>
      <trkpt lat="48.02419" lon="-3.71092">
        <ele>172.4</ele>
        <time>2024-09-07T08:31:30Z</time>
      </trkpt>
      <trkpt lat="48.02421" lon="-3.71087">
        <ele>172.4</ele>
        <time>2024-09-07T08:31:31Z</time>
      </trkpt>
      <trkpt lat="48.02424" lon="-3.71081">
        <ele>172.4</ele>
        <time>2024-09-07T08:31:32Z</time>
      </trkpt>
      <trkpt lat="48.02426" lon="-3.71075">
        <ele>172.2</ele>
        <time>2024-09-07T08:31:33Z</time>
      </trkpt>
      <trkpt lat="48.0243" lon="-3.71068">
        <ele>172.2</ele>
        <time>2024-09-07T08:31:34Z</time>
      </trkpt>
      <trkpt lat="48.02433" lon="-3.71059">
        <ele>172.2</ele>
        <time>2024-09-07T08:31:35Z</time>
      </trkpt>
      <trkpt lat="48.02436" lon="-3.71052">
        <ele>172.2</ele>
        <time>2024-09-07T08:31:36Z</time>
      </trkpt>
      <trkpt lat="48.0244" lon="-3.71044">
        <ele>172.2</ele>
        <time>2024-09-07T08:31:37Z</time>
      </trkpt>
      <trkpt lat="48.02444" lon="-3.71037">
        <ele>172.2</ele>
        <time>2024-09-07T08:31:38Z</time>
      </trkpt>
      <trkpt lat="48.02448" lon="-3.71029">
        <ele>172.2</ele>
        <time>2024-09-07T08:31:39Z</time>
      </trkpt>
      <trkpt lat="48.02452" lon="-3.7102">
        <ele>172.2</ele>
        <time>2024-09-07T08:31:40Z</time>
      </trkpt>
      <trkpt lat="48.02455" lon="-3.71013">
        <ele>172.2</ele>
        <time>2024-09-07T08:31:41Z</time>
      </trkpt>
      <trkpt lat="48.0246" lon="-3.71005">
        <ele>172.4</ele>
        <time>2024-09-07T08:31:42Z</time>
      </trkpt>
      <trkpt lat="48.02464" lon="-3.70997">
        <ele>172.4</ele>
        <time>2024-09-07T08:31:43Z</time>
      </trkpt>
      <trkpt lat="48.02468" lon="-3.7099">
        <ele>172.4</ele>
        <time>2024-09-07T08:31:44Z</time>
      </trkpt>
      <trkpt lat="48.02471" lon="-3.70983">
        <ele>172.4</ele>
        <time>2024-09-07T08:31:45Z</time>
      </trkpt>
      <trkpt lat="48.02473" lon="-3.70977">
        <ele>172.4</ele>
        <time>2024-09-07T08:31:46Z</time>
      </trkpt>
      <trkpt lat="48.02476" lon="-3.7097">
        <ele>172.4</ele>
        <time>2024-09-07T08:31:47Z</time>
      </trkpt>
      <trkpt lat="48.0248" lon="-3.70963">
        <ele>172.4</ele>
        <time>2024-09-07T08:31:48Z</time>
      </trkpt>
      <trkpt lat="48.02483" lon="-3.70956">
        <ele>172.4</ele>
        <time>2024-09-07T08:31:49Z</time>
      </trkpt>
      <trkpt lat="48.02486" lon="-3.70948">
        <ele>172.4</ele>
        <time>2024-09-07T08:31:50Z</time>
      </trkpt>
      <trkpt lat="48.02489" lon="-3.70941">
        <ele>172.4</ele>
        <time>2024-09-07T08:31:51Z</time>
      </trkpt>
      <trkpt lat="48.02492" lon="-3.70933">
        <ele>172.4</ele>
        <time>2024-09-07T08:31:52Z</time>
      </trkpt>
      <trkpt lat="48.02495" lon="-3.70925">
        <ele>172.4</ele>
        <time>2024-09-07T08:31:53Z</time>
      </trkpt>
      <trkpt lat="48.02498" lon="-3.70918">
        <ele>172.4</ele>
        <time>2024-09-07T08:31:54Z</time>
      </trkpt>
      <trkpt lat="48.02501" lon="-3.7091">
        <ele>172.4</ele>
        <time>2024-09-07T08:31:55Z</time>
      </trkpt>
      <trkpt lat="48.02503" lon="-3.70902">
        <ele>172.4</ele>
        <time>2024-09-07T08:31:56Z</time>
      </trkpt>
      <trkpt lat="48.02505" lon="-3.70894">
        <ele>172.4</ele>
        <time>2024-09-07T08:31:57Z</time>
      </trkpt>
      <trkpt lat="48.02507" lon="-3.70886">
        <ele>172.6</ele>
        <time>2024-09-07T08:31:58Z</time>
      </trkpt>
      <trkpt lat="48.0251" lon="-3.70878">
        <ele>172.6</ele>
        <time>2024-09-07T08:31:59Z</time>
      </trkpt>
      <trkpt lat="48.02512" lon="-3.70871">
        <ele>172.6</ele>
        <time>2024-09-07T08:32:00Z</time>
      </trkpt>
      <trkpt lat="48.02514" lon="-3.70863">
        <ele>172.6</ele>
        <time>2024-09-07T08:32:01Z</time>
      </trkpt>
      <trkpt lat="48.02515" lon="-3.70854">
        <ele>172.6</ele>
        <time>2024-09-07T08:32:02Z</time>
      </trkpt>
      <trkpt lat="48.02517" lon="-3.70846">
        <ele>172.6</ele>
        <time>2024-09-07T08:32:03Z</time>
      </trkpt>
      <trkpt lat="48.02518" lon="-3.70837">
        <ele>172.6</ele>
        <time>2024-09-07T08:32:04Z</time>
      </trkpt>
      <trkpt lat="48.02519" lon="-3.70828">
        <ele>172.6</ele>
        <time>2024-09-07T08:32:05Z</time>
      </trkpt>
      <trkpt lat="48.02521" lon="-3.70819">
        <ele>172.6</ele>
        <time>2024-09-07T08:32:06Z</time>
      </trkpt>
      <trkpt lat="48.02522" lon="-3.7081">
        <ele>172.6</ele>
        <time>2024-09-07T08:32:07Z</time>
      </trkpt>
      <trkpt lat="48.02523" lon="-3.70801">
        <ele>172.6</ele>
        <time>2024-09-07T08:32:08Z</time>
      </trkpt>
      <trkpt lat="48.02523" lon="-3.70792">
        <ele>172.6</ele>
        <time>2024-09-07T08:32:09Z</time>
      </trkpt>
      <trkpt lat="48.02524" lon="-3.70783">
        <ele>172.6</ele>
        <time>2024-09-07T08:32:10Z</time>
      </trkpt>
      <trkpt lat="48.02524" lon="-3.70774">
        <ele>172.6</ele>
        <time>2024-09-07T08:32:11Z</time>
      </trkpt>
      <trkpt lat="48.02524" lon="-3.70766">
        <ele>172.6</ele>
        <time>2024-09-07T08:32:12Z</time>
      </trkpt>
      <trkpt lat="48.02524" lon="-3.70757">
        <ele>172.6</ele>
        <time>2024-09-07T08:32:13Z</time>
      </trkpt>
      <trkpt lat="48.02523" lon="-3.70749">
        <ele>172.6</ele>
        <time>2024-09-07T08:32:14Z</time>
      </trkpt>
      <trkpt lat="48.02522" lon="-3.70741">
        <ele>172.6</ele>
        <time>2024-09-07T08:32:15Z</time>
      </trkpt>
      <trkpt lat="48.02521" lon="-3.70735">
        <ele>172.6</ele>
        <time>2024-09-07T08:32:16Z</time>
      </trkpt>
      <trkpt lat="48.02519" lon="-3.70725">
        <ele>172.6</ele>
        <time>2024-09-07T08:32:17Z</time>
      </trkpt>
      <trkpt lat="48.02518" lon="-3.70717">
        <ele>172.6</ele>
        <time>2024-09-07T08:32:18Z</time>
      </trkpt>
      <trkpt lat="48.02517" lon="-3.70709">
        <ele>172.6</ele>
        <time>2024-09-07T08:32:19Z</time>
      </trkpt>
      <trkpt lat="48.02516" lon="-3.70701">
        <ele>172.6</ele>
        <time>2024-09-07T08:32:20Z</time>
      </trkpt>
      <trkpt lat="48.02514" lon="-3.70692">
        <ele>172.6</ele>
        <time>2024-09-07T08:32:21Z</time>
      </trkpt>
      <trkpt lat="48.02513" lon="-3.70684">
        <ele>172.6</ele>
        <time>2024-09-07T08:32:22Z</time>
      </trkpt>
      <trkpt lat="48.02512" lon="-3.70675">
        <ele>172.6</ele>
        <time>2024-09-07T08:32:23Z</time>
      </trkpt>
      <trkpt lat="48.02511" lon="-3.70666">
        <ele>172.6</ele>
        <time>2024-09-07T08:32:24Z</time>
      </trkpt>
      <trkpt lat="48.0251" lon="-3.70658">
        <ele>172.6</ele>
        <time>2024-09-07T08:32:25Z</time>
      </trkpt>
      <trkpt lat="48.02509" lon="-3.70649">
        <ele>172.6</ele>
        <time>2024-09-07T08:32:26Z</time>
      </trkpt>
      <trkpt lat="48.02507" lon="-3.70642">
        <ele>172.6</ele>
        <time>2024-09-07T08:32:27Z</time>
      </trkpt>
      <trkpt lat="48.02506" lon="-3.70634">
        <ele>172.6</ele>
        <time>2024-09-07T08:32:28Z</time>
      </trkpt>
      <trkpt lat="48.02504" lon="-3.70626">
        <ele>172.6</ele>
        <time>2024-09-07T08:32:29Z</time>
      </trkpt>
      <trkpt lat="48.02503" lon="-3.70618">
        <ele>172.6</ele>
        <time>2024-09-07T08:32:30Z</time>
      </trkpt>
      <trkpt lat="48.02501" lon="-3.70611">
        <ele>172.6</ele>
        <time>2024-09-07T08:32:31Z</time>
      </trkpt>
      <trkpt lat="48.02498" lon="-3.70603">
        <ele>172.6</ele>
        <time>2024-09-07T08:32:32Z</time>
      </trkpt>
      <trkpt lat="48.02497" lon="-3.70596">
        <ele>172.6</ele>
        <time>2024-09-07T08:32:33Z</time>
      </trkpt>
      <trkpt lat="48.02495" lon="-3.70589">
        <ele>172.6</ele>
        <time>2024-09-07T08:32:34Z</time>
      </trkpt>
      <trkpt lat="48.02493" lon="-3.70583">
        <ele>172.6</ele>
        <time>2024-09-07T08:32:35Z</time>
      </trkpt>
      <trkpt lat="48.02492" lon="-3.70575">
        <ele>172.6</ele>
        <time>2024-09-07T08:32:36Z</time>
      </trkpt>
      <trkpt lat="48.0249" lon="-3.70569">
        <ele>172.6</ele>
        <time>2024-09-07T08:32:37Z</time>
      </trkpt>
      <trkpt lat="48.02489" lon="-3.70562">
        <ele>172.6</ele>
        <time>2024-09-07T08:32:38Z</time>
      </trkpt>
      <trkpt lat="48.02489" lon="-3.70555">
        <ele>172.6</ele>
        <time>2024-09-07T08:32:39Z</time>
      </trkpt>
      <trkpt lat="48.02488" lon="-3.70548">
        <ele>172.6</ele>
        <time>2024-09-07T08:32:40Z</time>
      </trkpt>
      <trkpt lat="48.02488" lon="-3.70541">
        <ele>172.6</ele>
        <time>2024-09-07T08:32:41Z</time>
      </trkpt>
      <trkpt lat="48.02487" lon="-3.70535">
        <ele>172.6</ele>
        <time>2024-09-07T08:32:42Z</time>
      </trkpt>
      <trkpt lat="48.02487" lon="-3.70529">
        <ele>172.6</ele>
        <time>2024-09-07T08:32:43Z</time>
      </trkpt>
      <trkpt lat="48.02486" lon="-3.70524">
        <ele>172.6</ele>
        <time>2024-09-07T08:32:44Z</time>
      </trkpt>
      <trkpt lat="48.02485" lon="-3.70519">
        <ele>172.6</ele>
        <time>2024-09-07T08:32:45Z</time>
      </trkpt>
      <trkpt lat="48.02484" lon="-3.70513">
        <ele>172.6</ele>
        <time>2024-09-07T08:32:46Z</time>
      </trkpt>
      <trkpt lat="48.02483" lon="-3.70509">
        <ele>172.6</ele>
        <time>2024-09-07T08:32:47Z</time>
      </trkpt>
      <trkpt lat="48.02483" lon="-3.70504">
        <ele>172.6</ele>
        <time>2024-09-07T08:32:48Z</time>
      </trkpt>
      <trkpt lat="48.02483" lon="-3.70499">
        <ele>172.6</ele>
        <time>2024-09-07T08:32:49Z</time>
      </trkpt>
      <trkpt lat="48.02483" lon="-3.70495">
        <ele>172.6</ele>
        <time>2024-09-07T08:32:50Z</time>
      </trkpt>
      <trkpt lat="48.02483" lon="-3.70491">
        <ele>172.6</ele>
        <time>2024-09-07T08:32:51Z</time>
      </trkpt>
      <trkpt lat="48.02483" lon="-3.70486">
        <ele>172.6</ele>
        <time>2024-09-07T08:32:52Z</time>
      </trkpt>
      <trkpt lat="48.02483" lon="-3.70482">
        <ele>172.6</ele>
        <time>2024-09-07T08:32:53Z</time>
      </trkpt>
      <trkpt lat="48.02485" lon="-3.70479">
        <ele>172.6</ele>
        <time>2024-09-07T08:32:54Z</time>
      </trkpt>
      <trkpt lat="48.02489" lon="-3.70475">
        <ele>172.6</ele>
        <time>2024-09-07T08:32:55Z</time>
      </trkpt>
      <trkpt lat="48.02492" lon="-3.70473">
        <ele>172.6</ele>
        <time>2024-09-07T08:32:56Z</time>
      </trkpt>
      <trkpt lat="48.02495" lon="-3.70471">
        <ele>172.6</ele>
        <time>2024-09-07T08:32:57Z</time>
      </trkpt>
      <trkpt lat="48.025" lon="-3.70468">
        <ele>172.6</ele>
        <time>2024-09-07T08:32:58Z</time>
      </trkpt>
      <trkpt lat="48.02503" lon="-3.70466">
        <ele>172.6</ele>
        <time>2024-09-07T08:32:59Z</time>
      </trkpt>
      <trkpt lat="48.02507" lon="-3.70464">
        <ele>172.8</ele>
        <time>2024-09-07T08:33:00Z</time>
      </trkpt>
      <trkpt lat="48.02511" lon="-3.70461">
        <ele>172.8</ele>
        <time>2024-09-07T08:33:01Z</time>
      </trkpt>
      <trkpt lat="48.02515" lon="-3.70459">
        <ele>172.8</ele>
        <time>2024-09-07T08:33:02Z</time>
      </trkpt>
      <trkpt lat="48.02518" lon="-3.70457">
        <ele>172.8</ele>
        <time>2024-09-07T08:33:03Z</time>
      </trkpt>
      <trkpt lat="48.02522" lon="-3.70454">
        <ele>172.8</ele>
        <time>2024-09-07T08:33:04Z</time>
      </trkpt>
      <trkpt lat="48.02525" lon="-3.70451">
        <ele>172.8</ele>
        <time>2024-09-07T08:33:05Z</time>
      </trkpt>
      <trkpt lat="48.02527" lon="-3.70449">
        <ele>172.8</ele>
        <time>2024-09-07T08:33:06Z</time>
      </trkpt>
      <trkpt lat="48.0253" lon="-3.70445">
        <ele>173</ele>
        <time>2024-09-07T08:33:07Z</time>
      </trkpt>
      <trkpt lat="48.02533" lon="-3.70441">
        <ele>173</ele>
        <time>2024-09-07T08:33:08Z</time>
      </trkpt>
      <trkpt lat="48.02535" lon="-3.70438">
        <ele>173.2</ele>
        <time>2024-09-07T08:33:09Z</time>
      </trkpt>
      <trkpt lat="48.02538" lon="-3.70435">
        <ele>173.2</ele>
        <time>2024-09-07T08:33:10Z</time>
      </trkpt>
      <trkpt lat="48.02541" lon="-3.70431">
        <ele>173.4</ele>
        <time>2024-09-07T08:33:11Z</time>
      </trkpt>
      <trkpt lat="48.02543" lon="-3.70427">
        <ele>173.6</ele>
        <time>2024-09-07T08:33:12Z</time>
      </trkpt>
      <trkpt lat="48.02545" lon="-3.70424">
        <ele>173.6</ele>
        <time>2024-09-07T08:33:13Z</time>
      </trkpt>
      <trkpt lat="48.02548" lon="-3.7042">
        <ele>173.8</ele>
        <time>2024-09-07T08:33:14Z</time>
      </trkpt>
      <trkpt lat="48.0255" lon="-3.70418">
        <ele>173.8</ele>
        <time>2024-09-07T08:33:15Z</time>
      </trkpt>
      <trkpt lat="48.02552" lon="-3.70415">
        <ele>174</ele>
        <time>2024-09-07T08:33:16Z</time>
      </trkpt>
      <trkpt lat="48.02554" lon="-3.70412">
        <ele>174</ele>
        <time>2024-09-07T08:33:17Z</time>
      </trkpt>
      <trkpt lat="48.02556" lon="-3.70408">
        <ele>174</ele>
        <time>2024-09-07T08:33:18Z</time>
      </trkpt>
      <trkpt lat="48.02555" lon="-3.70406">
        <ele>174.2</ele>
        <time>2024-09-07T08:33:19Z</time>
      </trkpt>
      <trkpt lat="48.02555" lon="-3.70403">
        <ele>174.2</ele>
        <time>2024-09-07T08:33:20Z</time>
      </trkpt>
      <trkpt lat="48.02555" lon="-3.70402">
        <ele>174.2</ele>
        <time>2024-09-07T08:33:21Z</time>
      </trkpt>
      <trkpt lat="48.02556" lon="-3.70401">
        <ele>174.4</ele>
        <time>2024-09-07T08:33:22Z</time>
      </trkpt>
      <trkpt lat="48.02557" lon="-3.704">
        <ele>174.4</ele>
        <time>2024-09-07T08:33:23Z</time>
      </trkpt>
      <trkpt lat="48.02558" lon="-3.70398">
        <ele>174.6</ele>
        <time>2024-09-07T08:33:24Z</time>
      </trkpt>
      <trkpt lat="48.02559" lon="-3.70398">
        <ele>174.8</ele>
        <time>2024-09-07T08:33:25Z</time>
      </trkpt>
      <trkpt lat="48.0256" lon="-3.70397">
        <ele>174.8</ele>
        <time>2024-09-07T08:33:26Z</time>
      </trkpt>
      <trkpt lat="48.02574" lon="-3.70381">
        <ele>176.4</ele>
        <time>2024-09-07T08:34:12Z</time>
      </trkpt>
      <trkpt lat="48.02576" lon="-3.7038">
        <ele>176.4</ele>
        <time>2024-09-07T08:34:13Z</time>
      </trkpt>
      <trkpt lat="48.02577" lon="-3.70378">
        <ele>176.4</ele>
        <time>2024-09-07T08:34:14Z</time>
      </trkpt>
      <trkpt lat="48.02578" lon="-3.70375">
        <ele>176.2</ele>
        <time>2024-09-07T08:34:15Z</time>
      </trkpt>
      <trkpt lat="48.0258" lon="-3.70373">
        <ele>176.4</ele>
        <time>2024-09-07T08:34:16Z</time>
      </trkpt>
      <trkpt lat="48.02582" lon="-3.7037">
        <ele>176.6</ele>
        <time>2024-09-07T08:34:17Z</time>
      </trkpt>
      <trkpt lat="48.02584" lon="-3.70367">
        <ele>176.6</ele>
        <time>2024-09-07T08:34:18Z</time>
      </trkpt>
      <trkpt lat="48.02586" lon="-3.70364">
        <ele>176.6</ele>
        <time>2024-09-07T08:34:19Z</time>
      </trkpt>
      <trkpt lat="48.02587" lon="-3.70361">
        <ele>176.6</ele>
        <time>2024-09-07T08:34:20Z</time>
      </trkpt>
      <trkpt lat="48.02589" lon="-3.70357">
        <ele>176.6</ele>
        <time>2024-09-07T08:34:21Z</time>
      </trkpt>
      <trkpt lat="48.0259" lon="-3.70353">
        <ele>176.6</ele>
        <time>2024-09-07T08:34:22Z</time>
      </trkpt>
      <trkpt lat="48.02592" lon="-3.70349">
        <ele>176.6</ele>
        <time>2024-09-07T08:34:23Z</time>
      </trkpt>
      <trkpt lat="48.02594" lon="-3.70346">
        <ele>176.8</ele>
        <time>2024-09-07T08:34:24Z</time>
      </trkpt>
      <trkpt lat="48.02596" lon="-3.70342">
        <ele>176.8</ele>
        <time>2024-09-07T08:34:25Z</time>
      </trkpt>
      <trkpt lat="48.02599" lon="-3.70338">
        <ele>176.8</ele>
        <time>2024-09-07T08:34:26Z</time>
      </trkpt>
      <trkpt lat="48.02601" lon="-3.70334">
        <ele>177</ele>
        <time>2024-09-07T08:34:27Z</time>
      </trkpt>
      <trkpt lat="48.02603" lon="-3.7033">
        <ele>177</ele>
        <time>2024-09-07T08:34:28Z</time>
      </trkpt>
      <trkpt lat="48.02605" lon="-3.70326">
        <ele>177</ele>
        <time>2024-09-07T08:34:29Z</time>
      </trkpt>
      <trkpt lat="48.02607" lon="-3.70323">
        <ele>177</ele>
        <time>2024-09-07T08:34:30Z</time>
      </trkpt>
      <trkpt lat="48.02609" lon="-3.70319">
        <ele>177.2</ele>
        <time>2024-09-07T08:34:31Z</time>
      </trkpt>
      <trkpt lat="48.02611" lon="-3.70314">
        <ele>177.4</ele>
        <time>2024-09-07T08:34:32Z</time>
      </trkpt>
      <trkpt lat="48.02613" lon="-3.7031">
        <ele>177.4</ele>
        <time>2024-09-07T08:34:33Z</time>
      </trkpt>
      <trkpt lat="48.02614" lon="-3.70306">
        <ele>177.4</ele>
        <time>2024-09-07T08:34:34Z</time>
      </trkpt>
      <trkpt lat="48.02616" lon="-3.70302">
        <ele>177.6</ele>
        <time>2024-09-07T08:34:35Z</time>
      </trkpt>
      <trkpt lat="48.02618" lon="-3.70297">
        <ele>177.6</ele>
        <time>2024-09-07T08:34:36Z</time>
      </trkpt>
      <trkpt lat="48.0262" lon="-3.70293">
        <ele>177.8</ele>
        <time>2024-09-07T08:34:37Z</time>
      </trkpt>
      <trkpt lat="48.02621" lon="-3.70288">
        <ele>178</ele>
        <time>2024-09-07T08:34:38Z</time>
      </trkpt>
      <trkpt lat="48.02623" lon="-3.70284">
        <ele>178</ele>
        <time>2024-09-07T08:34:39Z</time>
      </trkpt>
      <trkpt lat="48.02624" lon="-3.70279">
        <ele>178</ele>
        <time>2024-09-07T08:34:40Z</time>
      </trkpt>
      <trkpt lat="48.02625" lon="-3.70275">
        <ele>178.2</ele>
        <time>2024-09-07T08:34:41Z</time>
      </trkpt>
      <trkpt lat="48.02626" lon="-3.7027">
        <ele>178.2</ele>
        <time>2024-09-07T08:34:42Z</time>
      </trkpt>
      <trkpt lat="48.02627" lon="-3.70266">
        <ele>178.4</ele>
        <time>2024-09-07T08:34:43Z</time>
      </trkpt>
      <trkpt lat="48.02628" lon="-3.70262">
        <ele>178.4</ele>
        <time>2024-09-07T08:34:44Z</time>
      </trkpt>
      <trkpt lat="48.0263" lon="-3.70257">
        <ele>178.4</ele>
        <time>2024-09-07T08:34:45Z</time>
      </trkpt>
      <trkpt lat="48.02632" lon="-3.70253">
        <ele>178.4</ele>
        <time>2024-09-07T08:34:46Z</time>
      </trkpt>
      <trkpt lat="48.02634" lon="-3.7025">
        <ele>178.4</ele>
        <time>2024-09-07T08:34:47Z</time>
      </trkpt>
      <trkpt lat="48.02637" lon="-3.70249">
        <ele>178.4</ele>
        <time>2024-09-07T08:34:48Z</time>
      </trkpt>
      <trkpt lat="48.02639" lon="-3.70249">
        <ele>178.6</ele>
        <time>2024-09-07T08:34:49Z</time>
      </trkpt>
      <trkpt lat="48.02642" lon="-3.70249">
        <ele>178.6</ele>
        <time>2024-09-07T08:34:50Z</time>
      </trkpt>
      <trkpt lat="48.02645" lon="-3.70249">
        <ele>178.6</ele>
        <time>2024-09-07T08:34:51Z</time>
      </trkpt>
      <trkpt lat="48.02648" lon="-3.70249">
        <ele>178.6</ele>
        <time>2024-09-07T08:34:52Z</time>
      </trkpt>
      <trkpt lat="48.0265" lon="-3.70249">
        <ele>178.6</ele>
        <time>2024-09-07T08:34:53Z</time>
      </trkpt>
      <trkpt lat="48.02653" lon="-3.7025">
        <ele>178.8</ele>
        <time>2024-09-07T08:34:54Z</time>
      </trkpt>
      <trkpt lat="48.02656" lon="-3.70251">
        <ele>178.8</ele>
        <time>2024-09-07T08:34:55Z</time>
      </trkpt>
      <trkpt lat="48.02659" lon="-3.70252">
        <ele>178.8</ele>
        <time>2024-09-07T08:34:56Z</time>
      </trkpt>
      <trkpt lat="48.02662" lon="-3.70253">
        <ele>179</ele>
        <time>2024-09-07T08:34:57Z</time>
      </trkpt>
      <trkpt lat="48.02664" lon="-3.70254">
        <ele>179</ele>
        <time>2024-09-07T08:34:58Z</time>
      </trkpt>
      <trkpt lat="48.02667" lon="-3.70255">
        <ele>179</ele>
        <time>2024-09-07T08:34:59Z</time>
      </trkpt>
      <trkpt lat="48.0267" lon="-3.70256">
        <ele>179</ele>
        <time>2024-09-07T08:35:00Z</time>
      </trkpt>
      <trkpt lat="48.02673" lon="-3.70256">
        <ele>179</ele>
        <time>2024-09-07T08:35:01Z</time>
      </trkpt>
      <trkpt lat="48.02675" lon="-3.70257">
        <ele>179</ele>
        <time>2024-09-07T08:35:02Z</time>
      </trkpt>
      <trkpt lat="48.02677" lon="-3.70257">
        <ele>179</ele>
        <time>2024-09-07T08:35:03Z</time>
      </trkpt>
      <trkpt lat="48.02679" lon="-3.70256">
        <ele>179</ele>
        <time>2024-09-07T08:35:04Z</time>
      </trkpt>
      <trkpt lat="48.02682" lon="-3.70255">
        <ele>179</ele>
        <time>2024-09-07T08:35:05Z</time>
      </trkpt>
      <trkpt lat="48.02685" lon="-3.70254">
        <ele>179</ele>
        <time>2024-09-07T08:35:06Z</time>
      </trkpt>
      <trkpt lat="48.02687" lon="-3.70251">
        <ele>179</ele>
        <time>2024-09-07T08:35:07Z</time>
      </trkpt>
      <trkpt lat="48.02688" lon="-3.70249">
        <ele>179</ele>
        <time>2024-09-07T08:35:08Z</time>
      </trkpt>
      <trkpt lat="48.02689" lon="-3.70244">
        <ele>179</ele>
        <time>2024-09-07T08:35:09Z</time>
      </trkpt>
      <trkpt lat="48.02689" lon="-3.7024">
        <ele>179</ele>
        <time>2024-09-07T08:35:10Z</time>
      </trkpt>
      <trkpt lat="48.02689" lon="-3.70237">
        <ele>179</ele>
        <time>2024-09-07T08:35:11Z</time>
      </trkpt>
      <trkpt lat="48.0269" lon="-3.70233">
        <ele>179</ele>
        <time>2024-09-07T08:35:12Z</time>
      </trkpt>
      <trkpt lat="48.02691" lon="-3.70229">
        <ele>179</ele>
        <time>2024-09-07T08:35:13Z</time>
      </trkpt>
      <trkpt lat="48.02692" lon="-3.70225">
        <ele>179</ele>
        <time>2024-09-07T08:35:14Z</time>
      </trkpt>
      <trkpt lat="48.02693" lon="-3.7022">
        <ele>179</ele>
        <time>2024-09-07T08:35:15Z</time>
      </trkpt>
      <trkpt lat="48.02694" lon="-3.70215">
        <ele>178.8</ele>
        <time>2024-09-07T08:35:16Z</time>
      </trkpt>
      <trkpt lat="48.02695" lon="-3.7021">
        <ele>178.8</ele>
        <time>2024-09-07T08:35:17Z</time>
      </trkpt>
      <trkpt lat="48.02696" lon="-3.70205">
        <ele>178.8</ele>
        <time>2024-09-07T08:35:18Z</time>
      </trkpt>
      <trkpt lat="48.02697" lon="-3.702">
        <ele>178.4</ele>
        <time>2024-09-07T08:35:19Z</time>
      </trkpt>
      <trkpt lat="48.02698" lon="-3.70195">
        <ele>178.4</ele>
        <time>2024-09-07T08:35:20Z</time>
      </trkpt>
      <trkpt lat="48.02699" lon="-3.7019">
        <ele>178.4</ele>
        <time>2024-09-07T08:35:21Z</time>
      </trkpt>
      <trkpt lat="48.027" lon="-3.70186">
        <ele>178.4</ele>
        <time>2024-09-07T08:35:22Z</time>
      </trkpt>
      <trkpt lat="48.027" lon="-3.70182">
        <ele>178.4</ele>
        <time>2024-09-07T08:35:23Z</time>
      </trkpt>
      <trkpt lat="48.02701" lon="-3.70178">
        <ele>178.2</ele>
        <time>2024-09-07T08:35:24Z</time>
      </trkpt>
      <trkpt lat="48.02702" lon="-3.70174">
        <ele>178.2</ele>
        <time>2024-09-07T08:35:25Z</time>
      </trkpt>
      <trkpt lat="48.02704" lon="-3.7017">
        <ele>178</ele>
        <time>2024-09-07T08:35:26Z</time>
      </trkpt>
      <trkpt lat="48.02705" lon="-3.70166">
        <ele>178</ele>
        <time>2024-09-07T08:35:27Z</time>
      </trkpt>
      <trkpt lat="48.02705" lon="-3.70163">
        <ele>177.8</ele>
        <time>2024-09-07T08:35:28Z</time>
      </trkpt>
      <trkpt lat="48.02706" lon="-3.7016">
        <ele>177.8</ele>
        <time>2024-09-07T08:35:29Z</time>
      </trkpt>
      <trkpt lat="48.02708" lon="-3.70158">
        <ele>177.8</ele>
        <time>2024-09-07T08:35:30Z</time>
      </trkpt>
      <trkpt lat="48.02709" lon="-3.70156">
        <ele>177.6</ele>
        <time>2024-09-07T08:35:31Z</time>
      </trkpt>
      <trkpt lat="48.0271" lon="-3.70154">
        <ele>177.6</ele>
        <time>2024-09-07T08:35:32Z</time>
      </trkpt>
      <trkpt lat="48.02711" lon="-3.70151">
        <ele>177.6</ele>
        <time>2024-09-07T08:35:33Z</time>
      </trkpt>
      <trkpt lat="48.02711" lon="-3.7015">
        <ele>177.4</ele>
        <time>2024-09-07T08:35:34Z</time>
      </trkpt>
      <trkpt lat="48.02711" lon="-3.7015">
        <ele>177.4</ele>
        <time>2024-09-07T08:35:35Z</time>
      </trkpt>
      <trkpt lat="48.02711" lon="-3.7015">
        <ele>177.6</ele>
        <time>2024-09-07T08:35:36Z</time>
      </trkpt>
      <trkpt lat="48.02711" lon="-3.7015">
        <ele>177.4</ele>
        <time>2024-09-07T08:35:37Z</time>
      </trkpt>
      <trkpt lat="48.02713" lon="-3.70141">
        <ele>176.4</ele>
        <time>2024-09-07T09:02:48Z</time>
      </trkpt>
      <trkpt lat="48.02712" lon="-3.70142">
        <ele>176.4</ele>
        <time>2024-09-07T09:02:49Z</time>
      </trkpt>
      <trkpt lat="48.0271" lon="-3.70144">
        <ele>176.4</ele>
        <time>2024-09-07T09:02:50Z</time>
      </trkpt>
      <trkpt lat="48.02709" lon="-3.70146">
        <ele>176.4</ele>
        <time>2024-09-07T09:02:51Z</time>
      </trkpt>
      <trkpt lat="48.02708" lon="-3.7015">
        <ele>176.4</ele>
        <time>2024-09-07T09:02:52Z</time>
      </trkpt>
      <trkpt lat="48.02708" lon="-3.70155">
        <ele>176.4</ele>
        <time>2024-09-07T09:02:53Z</time>
      </trkpt>
      <trkpt lat="48.02707" lon="-3.7016">
        <ele>176.4</ele>
        <time>2024-09-07T09:02:54Z</time>
      </trkpt>
      <trkpt lat="48.02707" lon="-3.70165">
        <ele>176.4</ele>
        <time>2024-09-07T09:02:55Z</time>
      </trkpt>
      <trkpt lat="48.02706" lon="-3.70171">
        <ele>176.4</ele>
        <time>2024-09-07T09:02:56Z</time>
      </trkpt>
      <trkpt lat="48.02706" lon="-3.70176">
        <ele>176.4</ele>
        <time>2024-09-07T09:02:57Z</time>
      </trkpt>
      <trkpt lat="48.02705" lon="-3.70181">
        <ele>176.4</ele>
        <time>2024-09-07T09:02:58Z</time>
      </trkpt>
      <trkpt lat="48.02704" lon="-3.70186">
        <ele>176.4</ele>
        <time>2024-09-07T09:02:59Z</time>
      </trkpt>
      <trkpt lat="48.02703" lon="-3.7019">
        <ele>176.4</ele>
        <time>2024-09-07T09:03:00Z</time>
      </trkpt>
      <trkpt lat="48.02702" lon="-3.70194">
        <ele>176.4</ele>
        <time>2024-09-07T09:03:01Z</time>
      </trkpt>
      <trkpt lat="48.02701" lon="-3.70198">
        <ele>176.6</ele>
        <time>2024-09-07T09:03:02Z</time>
      </trkpt>
      <trkpt lat="48.027" lon="-3.70202">
        <ele>176.6</ele>
        <time>2024-09-07T09:03:03Z</time>
      </trkpt>
      <trkpt lat="48.02698" lon="-3.70207">
        <ele>176.8</ele>
        <time>2024-09-07T09:03:04Z</time>
      </trkpt>
      <trkpt lat="48.02697" lon="-3.70211">
        <ele>176.8</ele>
        <time>2024-09-07T09:03:05Z</time>
      </trkpt>
      <trkpt lat="48.02697" lon="-3.70216">
        <ele>176.8</ele>
        <time>2024-09-07T09:03:06Z</time>
      </trkpt>
      <trkpt lat="48.02696" lon="-3.7022">
        <ele>177</ele>
        <time>2024-09-07T09:03:07Z</time>
      </trkpt>
      <trkpt lat="48.02695" lon="-3.70225">
        <ele>177.2</ele>
        <time>2024-09-07T09:03:08Z</time>
      </trkpt>
      <trkpt lat="48.02694" lon="-3.70229">
        <ele>177.4</ele>
        <time>2024-09-07T09:03:09Z</time>
      </trkpt>
      <trkpt lat="48.02693" lon="-3.70233">
        <ele>177.4</ele>
        <time>2024-09-07T09:03:10Z</time>
      </trkpt>
      <trkpt lat="48.02692" lon="-3.70238">
        <ele>177.4</ele>
        <time>2024-09-07T09:03:11Z</time>
      </trkpt>
      <trkpt lat="48.02691" lon="-3.70242">
        <ele>177.4</ele>
        <time>2024-09-07T09:03:12Z</time>
      </trkpt>
      <trkpt lat="48.02691" lon="-3.70247">
        <ele>177.6</ele>
        <time>2024-09-07T09:03:13Z</time>
      </trkpt>
      <trkpt lat="48.0269" lon="-3.70251">
        <ele>177.6</ele>
        <time>2024-09-07T09:03:14Z</time>
      </trkpt>
      <trkpt lat="48.0269" lon="-3.70255">
        <ele>177.8</ele>
        <time>2024-09-07T09:03:15Z</time>
      </trkpt>
      <trkpt lat="48.02688" lon="-3.70258">
        <ele>177.8</ele>
        <time>2024-09-07T09:03:16Z</time>
      </trkpt>
      <trkpt lat="48.02687" lon="-3.7026">
        <ele>178</ele>
        <time>2024-09-07T09:03:17Z</time>
      </trkpt>
      <trkpt lat="48.02684" lon="-3.7026">
        <ele>178</ele>
        <time>2024-09-07T09:03:18Z</time>
      </trkpt>
      <trkpt lat="48.02682" lon="-3.70259">
        <ele>178.2</ele>
        <time>2024-09-07T09:03:19Z</time>
      </trkpt>
      <trkpt lat="48.0268" lon="-3.70258">
        <ele>178.2</ele>
        <time>2024-09-07T09:03:20Z</time>
      </trkpt>
      <trkpt lat="48.02678" lon="-3.70257">
        <ele>178.2</ele>
        <time>2024-09-07T09:03:21Z</time>
      </trkpt>
      <trkpt lat="48.02675" lon="-3.70256">
        <ele>178.4</ele>
        <time>2024-09-07T09:03:22Z</time>
      </trkpt>
      <trkpt lat="48.02672" lon="-3.70256">
        <ele>178.4</ele>
        <time>2024-09-07T09:03:23Z</time>
      </trkpt>
      <trkpt lat="48.02669" lon="-3.70256">
        <ele>178.6</ele>
        <time>2024-09-07T09:03:24Z</time>
      </trkpt>
      <trkpt lat="48.02667" lon="-3.70256">
        <ele>178.6</ele>
        <time>2024-09-07T09:03:25Z</time>
      </trkpt>
      <trkpt lat="48.02664" lon="-3.70256">
        <ele>178.6</ele>
        <time>2024-09-07T09:03:26Z</time>
      </trkpt>
      <trkpt lat="48.02661" lon="-3.70256">
        <ele>178.6</ele>
        <time>2024-09-07T09:03:27Z</time>
      </trkpt>
      <trkpt lat="48.02659" lon="-3.70256">
        <ele>178.8</ele>
        <time>2024-09-07T09:03:28Z</time>
      </trkpt>
      <trkpt lat="48.02656" lon="-3.70255">
        <ele>178.8</ele>
        <time>2024-09-07T09:03:29Z</time>
      </trkpt>
      <trkpt lat="48.02654" lon="-3.70255">
        <ele>178.8</ele>
        <time>2024-09-07T09:03:30Z</time>
      </trkpt>
      <trkpt lat="48.02651" lon="-3.70255">
        <ele>178.8</ele>
        <time>2024-09-07T09:03:31Z</time>
      </trkpt>
      <trkpt lat="48.02648" lon="-3.70254">
        <ele>178.8</ele>
        <time>2024-09-07T09:03:32Z</time>
      </trkpt>
      <trkpt lat="48.02646" lon="-3.70254">
        <ele>179</ele>
        <time>2024-09-07T09:03:33Z</time>
      </trkpt>
      <trkpt lat="48.02643" lon="-3.70253">
        <ele>179</ele>
        <time>2024-09-07T09:03:34Z</time>
      </trkpt>
      <trkpt lat="48.0264" lon="-3.70253">
        <ele>179</ele>
        <time>2024-09-07T09:03:35Z</time>
      </trkpt>
      <trkpt lat="48.02637" lon="-3.70253">
        <ele>179</ele>
        <time>2024-09-07T09:03:36Z</time>
      </trkpt>
      <trkpt lat="48.02634" lon="-3.70255">
        <ele>179</ele>
        <time>2024-09-07T09:03:37Z</time>
      </trkpt>
      <trkpt lat="48.02632" lon="-3.70258">
        <ele>179</ele>
        <time>2024-09-07T09:03:38Z</time>
      </trkpt>
      <trkpt lat="48.0263" lon="-3.70262">
        <ele>179</ele>
        <time>2024-09-07T09:03:39Z</time>
      </trkpt>
      <trkpt lat="48.02629" lon="-3.70267">
        <ele>179</ele>
        <time>2024-09-07T09:03:40Z</time>
      </trkpt>
      <trkpt lat="48.02627" lon="-3.70273">
        <ele>179</ele>
        <time>2024-09-07T09:03:41Z</time>
      </trkpt>
      <trkpt lat="48.02625" lon="-3.70279">
        <ele>179</ele>
        <time>2024-09-07T09:03:42Z</time>
      </trkpt>
      <trkpt lat="48.02623" lon="-3.70285">
        <ele>179</ele>
        <time>2024-09-07T09:03:43Z</time>
      </trkpt>
      <trkpt lat="48.02621" lon="-3.70292">
        <ele>179</ele>
        <time>2024-09-07T09:03:44Z</time>
      </trkpt>
      <trkpt lat="48.02619" lon="-3.70299">
        <ele>179</ele>
        <time>2024-09-07T09:03:45Z</time>
      </trkpt>
      <trkpt lat="48.02616" lon="-3.70306">
        <ele>179</ele>
        <time>2024-09-07T09:03:46Z</time>
      </trkpt>
      <trkpt lat="48.02614" lon="-3.70312">
        <ele>179</ele>
        <time>2024-09-07T09:03:47Z</time>
      </trkpt>
      <trkpt lat="48.02611" lon="-3.70319">
        <ele>179</ele>
        <time>2024-09-07T09:03:48Z</time>
      </trkpt>
      <trkpt lat="48.02607" lon="-3.70325">
        <ele>179</ele>
        <time>2024-09-07T09:03:49Z</time>
      </trkpt>
      <trkpt lat="48.02604" lon="-3.70331">
        <ele>179</ele>
        <time>2024-09-07T09:03:50Z</time>
      </trkpt>
      <trkpt lat="48.02601" lon="-3.70337">
        <ele>178.8</ele>
        <time>2024-09-07T09:03:51Z</time>
      </trkpt>
      <trkpt lat="48.02597" lon="-3.70344">
        <ele>178.8</ele>
        <time>2024-09-07T09:03:52Z</time>
      </trkpt>
      <trkpt lat="48.02594" lon="-3.70351">
        <ele>178.8</ele>
        <time>2024-09-07T09:03:53Z</time>
      </trkpt>
      <trkpt lat="48.0259" lon="-3.70359">
        <ele>178.6</ele>
        <time>2024-09-07T09:03:54Z</time>
      </trkpt>
      <trkpt lat="48.02587" lon="-3.70366">
        <ele>178.6</ele>
        <time>2024-09-07T09:03:55Z</time>
      </trkpt>
      <trkpt lat="48.02583" lon="-3.70373">
        <ele>178.4</ele>
        <time>2024-09-07T09:03:56Z</time>
      </trkpt>
      <trkpt lat="48.02579" lon="-3.7038">
        <ele>178.2</ele>
        <time>2024-09-07T09:03:57Z</time>
      </trkpt>
      <trkpt lat="48.02575" lon="-3.70386">
        <ele>178.2</ele>
        <time>2024-09-07T09:03:58Z</time>
      </trkpt>
      <trkpt lat="48.02571" lon="-3.70392">
        <ele>178</ele>
        <time>2024-09-07T09:03:59Z</time>
      </trkpt>
      <trkpt lat="48.02566" lon="-3.70398">
        <ele>178</ele>
        <time>2024-09-07T09:04:00Z</time>
      </trkpt>
      <trkpt lat="48.02562" lon="-3.70404">
        <ele>177.8</ele>
        <time>2024-09-07T09:04:01Z</time>
      </trkpt>
      <trkpt lat="48.02557" lon="-3.7041">
        <ele>177.8</ele>
        <time>2024-09-07T09:04:02Z</time>
      </trkpt>
      <trkpt lat="48.02553" lon="-3.70416">
        <ele>177.8</ele>
        <time>2024-09-07T09:04:03Z</time>
      </trkpt>
      <trkpt lat="48.02548" lon="-3.70422">
        <ele>177.8</ele>
        <time>2024-09-07T09:04:04Z</time>
      </trkpt>
      <trkpt lat="48.02544" lon="-3.70428">
        <ele>177.6</ele>
        <time>2024-09-07T09:04:05Z</time>
      </trkpt>
      <trkpt lat="48.02539" lon="-3.70435">
        <ele>177.4</ele>
        <time>2024-09-07T09:04:06Z</time>
      </trkpt>
      <trkpt lat="48.02534" lon="-3.70442">
        <ele>177</ele>
        <time>2024-09-07T09:04:07Z</time>
      </trkpt>
      <trkpt lat="48.02529" lon="-3.70449">
        <ele>176.8</ele>
        <time>2024-09-07T09:04:08Z</time>
      </trkpt>
      <trkpt lat="48.02524" lon="-3.70455">
        <ele>176.6</ele>
        <time>2024-09-07T09:04:09Z</time>
      </trkpt>
      <trkpt lat="48.02519" lon="-3.70462">
        <ele>176.2</ele>
        <time>2024-09-07T09:04:10Z</time>
      </trkpt>
      <trkpt lat="48.02515" lon="-3.70468">
        <ele>176</ele>
        <time>2024-09-07T09:04:11Z</time>
      </trkpt>
      <trkpt lat="48.02511" lon="-3.70475">
        <ele>175.8</ele>
        <time>2024-09-07T09:04:12Z</time>
      </trkpt>
      <trkpt lat="48.02507" lon="-3.7048">
        <ele>175.8</ele>
        <time>2024-09-07T09:04:13Z</time>
      </trkpt>
      <trkpt lat="48.02503" lon="-3.70483">
        <ele>175.6</ele>
        <time>2024-09-07T09:04:14Z</time>
      </trkpt>
      <trkpt lat="48.02498" lon="-3.70485">
        <ele>175.4</ele>
        <time>2024-09-07T09:04:15Z</time>
      </trkpt>
      <trkpt lat="48.02493" lon="-3.70485">
        <ele>175.4</ele>
        <time>2024-09-07T09:04:16Z</time>
      </trkpt>
      <trkpt lat="48.02489" lon="-3.70484">
        <ele>175</ele>
        <time>2024-09-07T09:04:17Z</time>
      </trkpt>
      <trkpt lat="48.02486" lon="-3.70482">
        <ele>174.8</ele>
        <time>2024-09-07T09:04:18Z</time>
      </trkpt>
      <trkpt lat="48.02484" lon="-3.7048">
        <ele>174.6</ele>
        <time>2024-09-07T09:04:19Z</time>
      </trkpt>
      <trkpt lat="48.02482" lon="-3.70476">
        <ele>174.4</ele>
        <time>2024-09-07T09:04:20Z</time>
      </trkpt>
      <trkpt lat="48.02482" lon="-3.70473">
        <ele>174.2</ele>
        <time>2024-09-07T09:04:21Z</time>
      </trkpt>
      <trkpt lat="48.02481" lon="-3.70469">
        <ele>174.2</ele>
        <time>2024-09-07T09:04:22Z</time>
      </trkpt>
      <trkpt lat="48.02481" lon="-3.70464">
        <ele>174</ele>
        <time>2024-09-07T09:04:23Z</time>
      </trkpt>
      <trkpt lat="48.02481" lon="-3.7046">
        <ele>174</ele>
        <time>2024-09-07T09:04:24Z</time>
      </trkpt>
      <trkpt lat="48.0248" lon="-3.70454">
        <ele>173.8</ele>
        <time>2024-09-07T09:04:25Z</time>
      </trkpt>
      <trkpt lat="48.0248" lon="-3.70447">
        <ele>173.6</ele>
        <time>2024-09-07T09:04:26Z</time>
      </trkpt>
      <trkpt lat="48.02479" lon="-3.7044">
        <ele>173.4</ele>
        <time>2024-09-07T09:04:27Z</time>
      </trkpt>
      <trkpt lat="48.02479" lon="-3.70432">
        <ele>173.4</ele>
        <time>2024-09-07T09:04:28Z</time>
      </trkpt>
      <trkpt lat="48.02479" lon="-3.70423">
        <ele>173.4</ele>
        <time>2024-09-07T09:04:29Z</time>
      </trkpt>
      <trkpt lat="48.02479" lon="-3.70415">
        <ele>173.4</ele>
        <time>2024-09-07T09:04:30Z</time>
      </trkpt>
      <trkpt lat="48.02479" lon="-3.70407">
        <ele>173.4</ele>
        <time>2024-09-07T09:04:31Z</time>
      </trkpt>
      <trkpt lat="48.02478" lon="-3.70399">
        <ele>173.4</ele>
        <time>2024-09-07T09:04:32Z</time>
      </trkpt>
      <trkpt lat="48.02477" lon="-3.70391">
        <ele>173.4</ele>
        <time>2024-09-07T09:04:33Z</time>
      </trkpt>
      <trkpt lat="48.02477" lon="-3.70384">
        <ele>173.4</ele>
        <time>2024-09-07T09:04:34Z</time>
      </trkpt>
      <trkpt lat="48.02476" lon="-3.70376">
        <ele>173.2</ele>
        <time>2024-09-07T09:04:35Z</time>
      </trkpt>
      <trkpt lat="48.02475" lon="-3.70369">
        <ele>173.2</ele>
        <time>2024-09-07T09:04:36Z</time>
      </trkpt>
      <trkpt lat="48.02474" lon="-3.70361">
        <ele>173.2</ele>
        <time>2024-09-07T09:04:37Z</time>
      </trkpt>
      <trkpt lat="48.02473" lon="-3.70354">
        <ele>173.2</ele>
        <time>2024-09-07T09:04:38Z</time>
      </trkpt>
      <trkpt lat="48.02472" lon="-3.70347">
        <ele>173.2</ele>
        <time>2024-09-07T09:04:39Z</time>
      </trkpt>
      <trkpt lat="48.02471" lon="-3.7034">
        <ele>173.2</ele>
        <time>2024-09-07T09:04:40Z</time>
      </trkpt>
      <trkpt lat="48.0247" lon="-3.70332">
        <ele>173.2</ele>
        <time>2024-09-07T09:04:41Z</time>
      </trkpt>
      <trkpt lat="48.0247" lon="-3.70325">
        <ele>173.2</ele>
        <time>2024-09-07T09:04:42Z</time>
      </trkpt>
      <trkpt lat="48.02469" lon="-3.70317">
        <ele>173.2</ele>
        <time>2024-09-07T09:04:43Z</time>
      </trkpt>
      <trkpt lat="48.02469" lon="-3.7031">
        <ele>173.2</ele>
        <time>2024-09-07T09:04:44Z</time>
      </trkpt>
      <trkpt lat="48.02468" lon="-3.70302">
        <ele>173.2</ele>
        <time>2024-09-07T09:04:45Z</time>
      </trkpt>
      <trkpt lat="48.02468" lon="-3.70293">
        <ele>173.2</ele>
        <time>2024-09-07T09:04:46Z</time>
      </trkpt>
      <trkpt lat="48.02468" lon="-3.70284">
        <ele>173.2</ele>
        <time>2024-09-07T09:04:47Z</time>
      </trkpt>
      <trkpt lat="48.02466" lon="-3.70275">
        <ele>173.2</ele>
        <time>2024-09-07T09:04:48Z</time>
      </trkpt>
      <trkpt lat="48.02466" lon="-3.70266">
        <ele>173.2</ele>
        <time>2024-09-07T09:04:49Z</time>
      </trkpt>
      <trkpt lat="48.02465" lon="-3.70257">
        <ele>173.2</ele>
        <time>2024-09-07T09:04:50Z</time>
      </trkpt>
      <trkpt lat="48.02465" lon="-3.70248">
        <ele>173.2</ele>
        <time>2024-09-07T09:04:51Z</time>
      </trkpt>
      <trkpt lat="48.02464" lon="-3.70241">
        <ele>173</ele>
        <time>2024-09-07T09:04:52Z</time>
      </trkpt>
      <trkpt lat="48.02463" lon="-3.70232">
        <ele>173</ele>
        <time>2024-09-07T09:04:53Z</time>
      </trkpt>
      <trkpt lat="48.02463" lon="-3.70222">
        <ele>173</ele>
        <time>2024-09-07T09:04:54Z</time>
      </trkpt>
      <trkpt lat="48.02462" lon="-3.70213">
        <ele>173</ele>
        <time>2024-09-07T09:04:55Z</time>
      </trkpt>
      <trkpt lat="48.02463" lon="-3.70204">
        <ele>173</ele>
        <time>2024-09-07T09:04:56Z</time>
      </trkpt>
      <trkpt lat="48.02463" lon="-3.70196">
        <ele>173</ele>
        <time>2024-09-07T09:04:57Z</time>
      </trkpt>
      <trkpt lat="48.02463" lon="-3.70188">
        <ele>173</ele>
        <time>2024-09-07T09:04:58Z</time>
      </trkpt>
      <trkpt lat="48.02464" lon="-3.7018">
        <ele>173</ele>
        <time>2024-09-07T09:04:59Z</time>
      </trkpt>
      <trkpt lat="48.02464" lon="-3.70172">
        <ele>173</ele>
        <time>2024-09-07T09:05:00Z</time>
      </trkpt>
      <trkpt lat="48.02465" lon="-3.70164">
        <ele>173</ele>
        <time>2024-09-07T09:05:01Z</time>
      </trkpt>
      <trkpt lat="48.02467" lon="-3.70156">
        <ele>173</ele>
        <time>2024-09-07T09:05:02Z</time>
      </trkpt>
      <trkpt lat="48.02468" lon="-3.70149">
        <ele>173</ele>
        <time>2024-09-07T09:05:03Z</time>
      </trkpt>
      <trkpt lat="48.02469" lon="-3.70143">
        <ele>172.8</ele>
        <time>2024-09-07T09:05:04Z</time>
      </trkpt>
      <trkpt lat="48.02471" lon="-3.70136">
        <ele>172.8</ele>
        <time>2024-09-07T09:05:05Z</time>
      </trkpt>
      <trkpt lat="48.02472" lon="-3.70129">
        <ele>172.8</ele>
        <time>2024-09-07T09:05:06Z</time>
      </trkpt>
      <trkpt lat="48.02473" lon="-3.70123">
        <ele>172.8</ele>
        <time>2024-09-07T09:05:07Z</time>
      </trkpt>
      <trkpt lat="48.02474" lon="-3.70118">
        <ele>172.6</ele>
        <time>2024-09-07T09:05:08Z</time>
      </trkpt>
      <trkpt lat="48.02478" lon="-3.70108">
        <ele>172.4</ele>
        <time>2024-09-07T09:05:09Z</time>
      </trkpt>
      <trkpt lat="48.02481" lon="-3.70099">
        <ele>172.4</ele>
        <time>2024-09-07T09:05:10Z</time>
      </trkpt>
      <trkpt lat="48.02484" lon="-3.70089">
        <ele>172.4</ele>
        <time>2024-09-07T09:05:11Z</time>
      </trkpt>
      <trkpt lat="48.02485" lon="-3.7008">
        <ele>172.2</ele>
        <time>2024-09-07T09:05:12Z</time>
      </trkpt>
      <trkpt lat="48.02488" lon="-3.70071">
        <ele>172.2</ele>
        <time>2024-09-07T09:05:13Z</time>
      </trkpt>
      <trkpt lat="48.02491" lon="-3.70063">
        <ele>172.2</ele>
        <time>2024-09-07T09:05:14Z</time>
      </trkpt>
      <trkpt lat="48.02494" lon="-3.70053">
        <ele>172.2</ele>
        <time>2024-09-07T09:05:15Z</time>
      </trkpt>
      <trkpt lat="48.02497" lon="-3.70044">
        <ele>172</ele>
        <time>2024-09-07T09:05:16Z</time>
      </trkpt>
      <trkpt lat="48.025" lon="-3.70035">
        <ele>171.8</ele>
        <time>2024-09-07T09:05:17Z</time>
      </trkpt>
      <trkpt lat="48.02503" lon="-3.70027">
        <ele>171.8</ele>
        <time>2024-09-07T09:05:18Z</time>
      </trkpt>
      <trkpt lat="48.02505" lon="-3.70019">
        <ele>171.6</ele>
        <time>2024-09-07T09:05:19Z</time>
      </trkpt>
      <trkpt lat="48.02508" lon="-3.7001">
        <ele>171.4</ele>
        <time>2024-09-07T09:05:20Z</time>
      </trkpt>
      <trkpt lat="48.02511" lon="-3.70002">
        <ele>171.2</ele>
        <time>2024-09-07T09:05:21Z</time>
      </trkpt>
      <trkpt lat="48.02513" lon="-3.69993">
        <ele>171.2</ele>
        <time>2024-09-07T09:05:22Z</time>
      </trkpt>
      <trkpt lat="48.02516" lon="-3.69985">
        <ele>171</ele>
        <time>2024-09-07T09:05:23Z</time>
      </trkpt>
      <trkpt lat="48.02519" lon="-3.69977">
        <ele>170.8</ele>
        <time>2024-09-07T09:05:24Z</time>
      </trkpt>
      <trkpt lat="48.02522" lon="-3.69968">
        <ele>170.8</ele>
        <time>2024-09-07T09:05:25Z</time>
      </trkpt>
      <trkpt lat="48.02525" lon="-3.6996">
        <ele>170.8</ele>
        <time>2024-09-07T09:05:26Z</time>
      </trkpt>
      <trkpt lat="48.02528" lon="-3.69951">
        <ele>170.6</ele>
        <time>2024-09-07T09:05:27Z</time>
      </trkpt>
      <trkpt lat="48.0253" lon="-3.69944">
        <ele>170.4</ele>
        <time>2024-09-07T09:05:28Z</time>
      </trkpt>
      <trkpt lat="48.02533" lon="-3.69936">
        <ele>170.2</ele>
        <time>2024-09-07T09:05:29Z</time>
      </trkpt>
      <trkpt lat="48.02536" lon="-3.69928">
        <ele>170.2</ele>
        <time>2024-09-07T09:05:30Z</time>
      </trkpt>
      <trkpt lat="48.02539" lon="-3.6992">
        <ele>170</ele>
        <time>2024-09-07T09:05:31Z</time>
      </trkpt>
      <trkpt lat="48.02542" lon="-3.69912">
        <ele>169.8</ele>
        <time>2024-09-07T09:05:32Z</time>
      </trkpt>
      <trkpt lat="48.02544" lon="-3.69903">
        <ele>169.6</ele>
        <time>2024-09-07T09:05:33Z</time>
      </trkpt>
      <trkpt lat="48.02547" lon="-3.69895">
        <ele>169.4</ele>
        <time>2024-09-07T09:05:34Z</time>
      </trkpt>
      <trkpt lat="48.0255" lon="-3.69887">
        <ele>169.4</ele>
        <time>2024-09-07T09:05:35Z</time>
      </trkpt>
      <trkpt lat="48.02553" lon="-3.69879">
        <ele>169.2</ele>
        <time>2024-09-07T09:05:36Z</time>
      </trkpt>
      <trkpt lat="48.02555" lon="-3.69871">
        <ele>169</ele>
        <time>2024-09-07T09:05:37Z</time>
      </trkpt>
      <trkpt lat="48.02558" lon="-3.69864">
        <ele>168.8</ele>
        <time>2024-09-07T09:05:38Z</time>
      </trkpt>
      <trkpt lat="48.0256" lon="-3.69857">
        <ele>168.6</ele>
        <time>2024-09-07T09:05:39Z</time>
      </trkpt>
      <trkpt lat="48.02562" lon="-3.69848">
        <ele>168.6</ele>
        <time>2024-09-07T09:05:40Z</time>
      </trkpt>
      <trkpt lat="48.02564" lon="-3.6984">
        <ele>168.4</ele>
        <time>2024-09-07T09:05:41Z</time>
      </trkpt>
      <trkpt lat="48.02567" lon="-3.69831">
        <ele>168.2</ele>
        <time>2024-09-07T09:05:42Z</time>
      </trkpt>
      <trkpt lat="48.02571" lon="-3.69823">
        <ele>168.2</ele>
        <time>2024-09-07T09:05:43Z</time>
      </trkpt>
      <trkpt lat="48.02575" lon="-3.69814">
        <ele>168</ele>
        <time>2024-09-07T09:05:44Z</time>
      </trkpt>
      <trkpt lat="48.02578" lon="-3.69806">
        <ele>168</ele>
        <time>2024-09-07T09:05:45Z</time>
      </trkpt>
      <trkpt lat="48.02581" lon="-3.69797">
        <ele>168</ele>
        <time>2024-09-07T09:05:46Z</time>
      </trkpt>
      <trkpt lat="48.02584" lon="-3.69789">
        <ele>167.8</ele>
        <time>2024-09-07T09:05:47Z</time>
      </trkpt>
      <trkpt lat="48.02586" lon="-3.6978">
        <ele>167.8</ele>
        <time>2024-09-07T09:05:48Z</time>
      </trkpt>
      <trkpt lat="48.02589" lon="-3.69772">
        <ele>167.6</ele>
        <time>2024-09-07T09:05:49Z</time>
      </trkpt>
      <trkpt lat="48.02591" lon="-3.69763">
        <ele>167.4</ele>
        <time>2024-09-07T09:05:50Z</time>
      </trkpt>
      <trkpt lat="48.02594" lon="-3.69755">
        <ele>167.2</ele>
        <time>2024-09-07T09:05:51Z</time>
      </trkpt>
      <trkpt lat="48.02595" lon="-3.69746">
        <ele>166.8</ele>
        <time>2024-09-07T09:05:52Z</time>
      </trkpt>
      <trkpt lat="48.02598" lon="-3.69738">
        <ele>166.8</ele>
        <time>2024-09-07T09:05:53Z</time>
      </trkpt>
      <trkpt lat="48.02599" lon="-3.69729">
        <ele>166.4</ele>
        <time>2024-09-07T09:05:54Z</time>
      </trkpt>
      <trkpt lat="48.02602" lon="-3.69721">
        <ele>166.4</ele>
        <time>2024-09-07T09:05:55Z</time>
      </trkpt>
      <trkpt lat="48.02604" lon="-3.69712">
        <ele>166.2</ele>
        <time>2024-09-07T09:05:56Z</time>
      </trkpt>
      <trkpt lat="48.02607" lon="-3.69705">
        <ele>166.2</ele>
        <time>2024-09-07T09:05:57Z</time>
      </trkpt>
      <trkpt lat="48.02609" lon="-3.69697">
        <ele>166</ele>
        <time>2024-09-07T09:05:58Z</time>
      </trkpt>
      <trkpt lat="48.02611" lon="-3.6969">
        <ele>165.8</ele>
        <time>2024-09-07T09:05:59Z</time>
      </trkpt>
      <trkpt lat="48.02613" lon="-3.69683">
        <ele>165.8</ele>
        <time>2024-09-07T09:06:00Z</time>
      </trkpt>
      <trkpt lat="48.02615" lon="-3.69677">
        <ele>165.8</ele>
        <time>2024-09-07T09:06:01Z</time>
      </trkpt>
      <trkpt lat="48.02617" lon="-3.6967">
        <ele>165.6</ele>
        <time>2024-09-07T09:06:02Z</time>
      </trkpt>
      <trkpt lat="48.02619" lon="-3.69663">
        <ele>165.6</ele>
        <time>2024-09-07T09:06:03Z</time>
      </trkpt>
      <trkpt lat="48.02621" lon="-3.69658">
        <ele>165.4</ele>
        <time>2024-09-07T09:06:04Z</time>
      </trkpt>
      <trkpt lat="48.02623" lon="-3.69652">
        <ele>165.4</ele>
        <time>2024-09-07T09:06:05Z</time>
      </trkpt>
      <trkpt lat="48.02625" lon="-3.69647">
        <ele>165.4</ele>
        <time>2024-09-07T09:06:06Z</time>
      </trkpt>
      <trkpt lat="48.02626" lon="-3.69643">
        <ele>165.2</ele>
        <time>2024-09-07T09:06:07Z</time>
      </trkpt>
      <trkpt lat="48.02627" lon="-3.69638">
        <ele>165</ele>
        <time>2024-09-07T09:06:08Z</time>
      </trkpt>
      <trkpt lat="48.02628" lon="-3.69634">
        <ele>164.8</ele>
        <time>2024-09-07T09:06:09Z</time>
      </trkpt>
      <trkpt lat="48.02629" lon="-3.69631">
        <ele>164.6</ele>
        <time>2024-09-07T09:06:10Z</time>
      </trkpt>
      <trkpt lat="48.0263" lon="-3.69627">
        <ele>164.6</ele>
        <time>2024-09-07T09:06:11Z</time>
      </trkpt>
      <trkpt lat="48.02631" lon="-3.69625">
        <ele>164.4</ele>
        <time>2024-09-07T09:06:12Z</time>
      </trkpt>
      <trkpt lat="48.02632" lon="-3.69622">
        <ele>164.2</ele>
        <time>2024-09-07T09:06:13Z</time>
      </trkpt>
      <trkpt lat="48.02633" lon="-3.69619">
        <ele>164.2</ele>
        <time>2024-09-07T09:06:14Z</time>
      </trkpt>
      <trkpt lat="48.02634" lon="-3.69616">
        <ele>164.2</ele>
        <time>2024-09-07T09:06:15Z</time>
      </trkpt>
      <trkpt lat="48.02636" lon="-3.69613">
        <ele>164</ele>
        <time>2024-09-07T09:06:16Z</time>
      </trkpt>
      <trkpt lat="48.02638" lon="-3.69609">
        <ele>163.8</ele>
        <time>2024-09-07T09:06:17Z</time>
      </trkpt>
      <trkpt lat="48.0264" lon="-3.69605">
        <ele>163.6</ele>
        <time>2024-09-07T09:06:18Z</time>
      </trkpt>
      <trkpt lat="48.02641" lon="-3.69601">
        <ele>163.6</ele>
        <time>2024-09-07T09:06:19Z</time>
      </trkpt>
      <trkpt lat="48.02642" lon="-3.69595">
        <ele>163.4</ele>
        <time>2024-09-07T09:06:20Z</time>
      </trkpt>
      <trkpt lat="48.02644" lon="-3.6959">
        <ele>163.4</ele>
        <time>2024-09-07T09:06:21Z</time>
      </trkpt>
      <trkpt lat="48.02645" lon="-3.69585">
        <ele>163.4</ele>
        <time>2024-09-07T09:06:22Z</time>
      </trkpt>
      <trkpt lat="48.02647" lon="-3.69579">
        <ele>163.4</ele>
        <time>2024-09-07T09:06:23Z</time>
      </trkpt>
      <trkpt lat="48.02649" lon="-3.69573">
        <ele>163.2</ele>
        <time>2024-09-07T09:06:24Z</time>
      </trkpt>
      <trkpt lat="48.02651" lon="-3.69568">
        <ele>163.2</ele>
        <time>2024-09-07T09:06:25Z</time>
      </trkpt>
      <trkpt lat="48.02653" lon="-3.69561">
        <ele>163.2</ele>
        <time>2024-09-07T09:06:26Z</time>
      </trkpt>
      <trkpt lat="48.02656" lon="-3.69555">
        <ele>163</ele>
        <time>2024-09-07T09:06:27Z</time>
      </trkpt>
      <trkpt lat="48.02658" lon="-3.69549">
        <ele>163</ele>
        <time>2024-09-07T09:06:28Z</time>
      </trkpt>
      <trkpt lat="48.02661" lon="-3.69543">
        <ele>163</ele>
        <time>2024-09-07T09:06:29Z</time>
      </trkpt>
      <trkpt lat="48.02663" lon="-3.69536">
        <ele>162.8</ele>
        <time>2024-09-07T09:06:30Z</time>
      </trkpt>
      <trkpt lat="48.02666" lon="-3.69529">
        <ele>162.8</ele>
        <time>2024-09-07T09:06:31Z</time>
      </trkpt>
      <trkpt lat="48.02668" lon="-3.69521">
        <ele>162.6</ele>
        <time>2024-09-07T09:06:32Z</time>
      </trkpt>
      <trkpt lat="48.0267" lon="-3.69514">
        <ele>162.6</ele>
        <time>2024-09-07T09:06:33Z</time>
      </trkpt>
      <trkpt lat="48.02672" lon="-3.69507">
        <ele>162.6</ele>
        <time>2024-09-07T09:06:34Z</time>
      </trkpt>
      <trkpt lat="48.02674" lon="-3.69501">
        <ele>162.4</ele>
        <time>2024-09-07T09:06:35Z</time>
      </trkpt>
      <trkpt lat="48.02677" lon="-3.69495">
        <ele>162.4</ele>
        <time>2024-09-07T09:06:36Z</time>
      </trkpt>
      <trkpt lat="48.02678" lon="-3.69489">
        <ele>162.4</ele>
        <time>2024-09-07T09:06:37Z</time>
      </trkpt>
      <trkpt lat="48.0268" lon="-3.69483">
        <ele>162.2</ele>
        <time>2024-09-07T09:06:38Z</time>
      </trkpt>
      <trkpt lat="48.02681" lon="-3.69477">
        <ele>162.2</ele>
        <time>2024-09-07T09:06:39Z</time>
      </trkpt>
      <trkpt lat="48.02682" lon="-3.69471">
        <ele>162</ele>
        <time>2024-09-07T09:06:40Z</time>
      </trkpt>
      <trkpt lat="48.02684" lon="-3.69464">
        <ele>162</ele>
        <time>2024-09-07T09:06:41Z</time>
      </trkpt>
      <trkpt lat="48.02685" lon="-3.69459">
        <ele>161.8</ele>
        <time>2024-09-07T09:06:42Z</time>
      </trkpt>
      <trkpt lat="48.02686" lon="-3.69454">
        <ele>161.8</ele>
        <time>2024-09-07T09:06:43Z</time>
      </trkpt>
      <trkpt lat="48.02688" lon="-3.69449">
        <ele>161.8</ele>
        <time>2024-09-07T09:06:44Z</time>
      </trkpt>
      <trkpt lat="48.02689" lon="-3.69444">
        <ele>161.8</ele>
        <time>2024-09-07T09:06:45Z</time>
      </trkpt>
      <trkpt lat="48.02691" lon="-3.69439">
        <ele>161.6</ele>
        <time>2024-09-07T09:06:46Z</time>
      </trkpt>
      <trkpt lat="48.02693" lon="-3.69433">
        <ele>161.6</ele>
        <time>2024-09-07T09:06:47Z</time>
      </trkpt>
      <trkpt lat="48.02694" lon="-3.69427">
        <ele>161.6</ele>
        <time>2024-09-07T09:06:48Z</time>
      </trkpt>
      <trkpt lat="48.02697" lon="-3.6942">
        <ele>161.6</ele>
        <time>2024-09-07T09:06:49Z</time>
      </trkpt>
      <trkpt lat="48.02699" lon="-3.69412">
        <ele>161.4</ele>
        <time>2024-09-07T09:06:50Z</time>
      </trkpt>
      <trkpt lat="48.02702" lon="-3.69404">
        <ele>161.2</ele>
        <time>2024-09-07T09:06:51Z</time>
      </trkpt>
      <trkpt lat="48.02704" lon="-3.69397">
        <ele>161</ele>
        <time>2024-09-07T09:06:52Z</time>
      </trkpt>
      <trkpt lat="48.02706" lon="-3.6939">
        <ele>161</ele>
        <time>2024-09-07T09:06:53Z</time>
      </trkpt>
      <trkpt lat="48.0271" lon="-3.69382">
        <ele>160.8</ele>
        <time>2024-09-07T09:06:54Z</time>
      </trkpt>
      <trkpt lat="48.02713" lon="-3.69374">
        <ele>160.8</ele>
        <time>2024-09-07T09:06:55Z</time>
      </trkpt>
      <trkpt lat="48.02715" lon="-3.69366">
        <ele>160.6</ele>
        <time>2024-09-07T09:06:56Z</time>
      </trkpt>
      <trkpt lat="48.02718" lon="-3.69358">
        <ele>160.4</ele>
        <time>2024-09-07T09:06:57Z</time>
      </trkpt>
      <trkpt lat="48.02721" lon="-3.69351">
        <ele>160.4</ele>
        <time>2024-09-07T09:06:58Z</time>
      </trkpt>
      <trkpt lat="48.02723" lon="-3.69343">
        <ele>160.2</ele>
        <time>2024-09-07T09:06:59Z</time>
      </trkpt>
      <trkpt lat="48.02726" lon="-3.69335">
        <ele>160</ele>
        <time>2024-09-07T09:07:00Z</time>
      </trkpt>
      <trkpt lat="48.02729" lon="-3.69328">
        <ele>160</ele>
        <time>2024-09-07T09:07:01Z</time>
      </trkpt>
      <trkpt lat="48.02731" lon="-3.69321">
        <ele>159.8</ele>
        <time>2024-09-07T09:07:02Z</time>
      </trkpt>
      <trkpt lat="48.02734" lon="-3.69312">
        <ele>159.6</ele>
        <time>2024-09-07T09:07:03Z</time>
      </trkpt>
      <trkpt lat="48.02737" lon="-3.69304">
        <ele>159.4</ele>
        <time>2024-09-07T09:07:04Z</time>
      </trkpt>
      <trkpt lat="48.0274" lon="-3.69295">
        <ele>159.2</ele>
        <time>2024-09-07T09:07:05Z</time>
      </trkpt>
      <trkpt lat="48.02746" lon="-3.69285">
        <ele>159.2</ele>
        <time>2024-09-07T09:07:06Z</time>
      </trkpt>
      <trkpt lat="48.02749" lon="-3.69275">
        <ele>159.2</ele>
        <time>2024-09-07T09:07:07Z</time>
      </trkpt>
      <trkpt lat="48.02751" lon="-3.69266">
        <ele>159</ele>
        <time>2024-09-07T09:07:08Z</time>
      </trkpt>
      <trkpt lat="48.02753" lon="-3.69255">
        <ele>159</ele>
        <time>2024-09-07T09:07:09Z</time>
      </trkpt>
      <trkpt lat="48.02756" lon="-3.69243">
        <ele>158.8</ele>
        <time>2024-09-07T09:07:10Z</time>
      </trkpt>
      <trkpt lat="48.02759" lon="-3.69231">
        <ele>158.8</ele>
        <time>2024-09-07T09:07:11Z</time>
      </trkpt>
      <trkpt lat="48.02762" lon="-3.6922">
        <ele>158.4</ele>
        <time>2024-09-07T09:07:12Z</time>
      </trkpt>
      <trkpt lat="48.02765" lon="-3.6921">
        <ele>158.4</ele>
        <time>2024-09-07T09:07:13Z</time>
      </trkpt>
      <trkpt lat="48.02768" lon="-3.69201">
        <ele>158.4</ele>
        <time>2024-09-07T09:07:14Z</time>
      </trkpt>
      <trkpt lat="48.02771" lon="-3.69193">
        <ele>158.2</ele>
        <time>2024-09-07T09:07:15Z</time>
      </trkpt>
      <trkpt lat="48.02774" lon="-3.69185">
        <ele>158</ele>
        <time>2024-09-07T09:07:16Z</time>
      </trkpt>
      <trkpt lat="48.02781" lon="-3.69175">
        <ele>158</ele>
        <time>2024-09-07T09:07:17Z</time>
      </trkpt>
      <trkpt lat="48.02788" lon="-3.69163">
        <ele>157.8</ele>
        <time>2024-09-07T09:07:18Z</time>
      </trkpt>
      <trkpt lat="48.02791" lon="-3.69154">
        <ele>157.6</ele>
        <time>2024-09-07T09:07:19Z</time>
      </trkpt>
      <trkpt lat="48.02795" lon="-3.69146">
        <ele>157.6</ele>
        <time>2024-09-07T09:07:20Z</time>
      </trkpt>
      <trkpt lat="48.02799" lon="-3.69138">
        <ele>157.2</ele>
        <time>2024-09-07T09:07:21Z</time>
      </trkpt>
      <trkpt lat="48.02802" lon="-3.69131">
        <ele>157.2</ele>
        <time>2024-09-07T09:07:22Z</time>
      </trkpt>
      <trkpt lat="48.02805" lon="-3.69124">
        <ele>157</ele>
        <time>2024-09-07T09:07:23Z</time>
      </trkpt>
      <trkpt lat="48.0281" lon="-3.69116">
        <ele>156.8</ele>
        <time>2024-09-07T09:07:24Z</time>
      </trkpt>
      <trkpt lat="48.02814" lon="-3.6911">
        <ele>156.8</ele>
        <time>2024-09-07T09:07:25Z</time>
      </trkpt>
      <trkpt lat="48.02819" lon="-3.69102">
        <ele>156.6</ele>
        <time>2024-09-07T09:07:26Z</time>
      </trkpt>
      <trkpt lat="48.02823" lon="-3.69095">
        <ele>156.6</ele>
        <time>2024-09-07T09:07:27Z</time>
      </trkpt>
      <trkpt lat="48.02829" lon="-3.69087">
        <ele>156.4</ele>
        <time>2024-09-07T09:07:28Z</time>
      </trkpt>
      <trkpt lat="48.02833" lon="-3.69081">
        <ele>156.2</ele>
        <time>2024-09-07T09:07:29Z</time>
      </trkpt>
      <trkpt lat="48.02838" lon="-3.69073">
        <ele>156</ele>
        <time>2024-09-07T09:07:30Z</time>
      </trkpt>
      <trkpt lat="48.02842" lon="-3.69068">
        <ele>155.8</ele>
        <time>2024-09-07T09:07:31Z</time>
      </trkpt>
      <trkpt lat="48.02846" lon="-3.69064">
        <ele>155.6</ele>
        <time>2024-09-07T09:07:32Z</time>
      </trkpt>
      <trkpt lat="48.02851" lon="-3.69059">
        <ele>155.4</ele>
        <time>2024-09-07T09:07:33Z</time>
      </trkpt>
      <trkpt lat="48.02857" lon="-3.69051">
        <ele>155.2</ele>
        <time>2024-09-07T09:07:34Z</time>
      </trkpt>
      <trkpt lat="48.02863" lon="-3.69045">
        <ele>155.2</ele>
        <time>2024-09-07T09:07:35Z</time>
      </trkpt>
      <trkpt lat="48.02868" lon="-3.69037">
        <ele>155</ele>
        <time>2024-09-07T09:07:36Z</time>
      </trkpt>
      <trkpt lat="48.02873" lon="-3.6903">
        <ele>155</ele>
        <time>2024-09-07T09:07:37Z</time>
      </trkpt>
      <trkpt lat="48.02878" lon="-3.69022">
        <ele>154.8</ele>
        <time>2024-09-07T09:07:38Z</time>
      </trkpt>
      <trkpt lat="48.02884" lon="-3.69015">
        <ele>154.8</ele>
        <time>2024-09-07T09:07:39Z</time>
      </trkpt>
      <trkpt lat="48.02891" lon="-3.69008">
        <ele>154.6</ele>
        <time>2024-09-07T09:07:40Z</time>
      </trkpt>
      <trkpt lat="48.02896" lon="-3.69001">
        <ele>154.4</ele>
        <time>2024-09-07T09:07:41Z</time>
      </trkpt>
      <trkpt lat="48.02901" lon="-3.68994">
        <ele>154.2</ele>
        <time>2024-09-07T09:07:42Z</time>
      </trkpt>
      <trkpt lat="48.02905" lon="-3.68988">
        <ele>154</ele>
        <time>2024-09-07T09:07:43Z</time>
      </trkpt>
      <trkpt lat="48.0291" lon="-3.6898">
        <ele>153.8</ele>
        <time>2024-09-07T09:07:44Z</time>
      </trkpt>
      <trkpt lat="48.02916" lon="-3.68973">
        <ele>153.4</ele>
        <time>2024-09-07T09:07:45Z</time>
      </trkpt>
      <trkpt lat="48.02921" lon="-3.68967">
        <ele>153.2</ele>
        <time>2024-09-07T09:07:46Z</time>
      </trkpt>
      <trkpt lat="48.02926" lon="-3.6896">
        <ele>153.2</ele>
        <time>2024-09-07T09:07:47Z</time>
      </trkpt>
      <trkpt lat="48.02931" lon="-3.68953">
        <ele>153</ele>
        <time>2024-09-07T09:07:48Z</time>
      </trkpt>
      <trkpt lat="48.02937" lon="-3.68945">
        <ele>152.8</ele>
        <time>2024-09-07T09:07:49Z</time>
      </trkpt>
      <trkpt lat="48.02943" lon="-3.68939">
        <ele>152.6</ele>
        <time>2024-09-07T09:07:50Z</time>
      </trkpt>
      <trkpt lat="48.02948" lon="-3.68932">
        <ele>152.4</ele>
        <time>2024-09-07T09:07:51Z</time>
      </trkpt>
      <trkpt lat="48.02954" lon="-3.68925">
        <ele>152.2</ele>
        <time>2024-09-07T09:07:52Z</time>
      </trkpt>
      <trkpt lat="48.02959" lon="-3.68919">
        <ele>152.2</ele>
        <time>2024-09-07T09:07:53Z</time>
      </trkpt>
      <trkpt lat="48.02964" lon="-3.68912">
        <ele>152</ele>
        <time>2024-09-07T09:07:54Z</time>
      </trkpt>
      <trkpt lat="48.02968" lon="-3.68905">
        <ele>151.8</ele>
        <time>2024-09-07T09:07:55Z</time>
      </trkpt>
      <trkpt lat="48.02973" lon="-3.68899">
        <ele>151.6</ele>
        <time>2024-09-07T09:07:56Z</time>
      </trkpt>
      <trkpt lat="48.02977" lon="-3.68893">
        <ele>151.6</ele>
        <time>2024-09-07T09:07:57Z</time>
      </trkpt>
      <trkpt lat="48.02981" lon="-3.68887">
        <ele>151.4</ele>
        <time>2024-09-07T09:07:58Z</time>
      </trkpt>
      <trkpt lat="48.02986" lon="-3.68881">
        <ele>151.4</ele>
        <time>2024-09-07T09:07:59Z</time>
      </trkpt>
      <trkpt lat="48.0299" lon="-3.68875">
        <ele>151.4</ele>
        <time>2024-09-07T09:08:00Z</time>
      </trkpt>
      <trkpt lat="48.02995" lon="-3.68869">
        <ele>151.2</ele>
        <time>2024-09-07T09:08:01Z</time>
      </trkpt>
      <trkpt lat="48.03" lon="-3.68863">
        <ele>151.2</ele>
        <time>2024-09-07T09:08:02Z</time>
      </trkpt>
      <trkpt lat="48.03004" lon="-3.68857">
        <ele>151.2</ele>
        <time>2024-09-07T09:08:03Z</time>
      </trkpt>
      <trkpt lat="48.03009" lon="-3.68851">
        <ele>151</ele>
        <time>2024-09-07T09:08:04Z</time>
      </trkpt>
      <trkpt lat="48.03013" lon="-3.68845">
        <ele>151</ele>
        <time>2024-09-07T09:08:05Z</time>
      </trkpt>
      <trkpt lat="48.03019" lon="-3.68839">
        <ele>150.8</ele>
        <time>2024-09-07T09:08:06Z</time>
      </trkpt>
      <trkpt lat="48.03023" lon="-3.68832">
        <ele>150.8</ele>
        <time>2024-09-07T09:08:07Z</time>
      </trkpt>
      <trkpt lat="48.03027" lon="-3.68826">
        <ele>150.8</ele>
        <time>2024-09-07T09:08:08Z</time>
      </trkpt>
      <trkpt lat="48.03032" lon="-3.6882">
        <ele>150.6</ele>
        <time>2024-09-07T09:08:09Z</time>
      </trkpt>
      <trkpt lat="48.03036" lon="-3.68814">
        <ele>150.4</ele>
        <time>2024-09-07T09:08:10Z</time>
      </trkpt>
      <trkpt lat="48.0304" lon="-3.68808">
        <ele>150.4</ele>
        <time>2024-09-07T09:08:11Z</time>
      </trkpt>
      <trkpt lat="48.03044" lon="-3.68802">
        <ele>150.2</ele>
        <time>2024-09-07T09:08:12Z</time>
      </trkpt>
      <trkpt lat="48.03048" lon="-3.68795">
        <ele>150.2</ele>
        <time>2024-09-07T09:08:13Z</time>
      </trkpt>
      <trkpt lat="48.03052" lon="-3.68789">
        <ele>150.2</ele>
        <time>2024-09-07T09:08:14Z</time>
      </trkpt>
      <trkpt lat="48.03057" lon="-3.68784">
        <ele>150</ele>
        <time>2024-09-07T09:08:15Z</time>
      </trkpt>
      <trkpt lat="48.0306" lon="-3.68779">
        <ele>150</ele>
        <time>2024-09-07T09:08:16Z</time>
      </trkpt>
      <trkpt lat="48.03065" lon="-3.68774">
        <ele>150</ele>
        <time>2024-09-07T09:08:17Z</time>
      </trkpt>
      <trkpt lat="48.03069" lon="-3.68768">
        <ele>150</ele>
        <time>2024-09-07T09:08:18Z</time>
      </trkpt>
      <trkpt lat="48.03072" lon="-3.68763">
        <ele>150</ele>
        <time>2024-09-07T09:08:19Z</time>
      </trkpt>
      <trkpt lat="48.03076" lon="-3.68758">
        <ele>150</ele>
        <time>2024-09-07T09:08:20Z</time>
      </trkpt>
      <trkpt lat="48.03082" lon="-3.68752">
        <ele>150</ele>
        <time>2024-09-07T09:08:21Z</time>
      </trkpt>
      <trkpt lat="48.03086" lon="-3.68747">
        <ele>150</ele>
        <time>2024-09-07T09:08:22Z</time>
      </trkpt>
      <trkpt lat="48.03089" lon="-3.68743">
        <ele>150</ele>
        <time>2024-09-07T09:08:23Z</time>
      </trkpt>
      <trkpt lat="48.03093" lon="-3.68738">
        <ele>150</ele>
        <time>2024-09-07T09:08:24Z</time>
      </trkpt>
      <trkpt lat="48.03096" lon="-3.68733">
        <ele>150</ele>
        <time>2024-09-07T09:08:25Z</time>
      </trkpt>
      <trkpt lat="48.03099" lon="-3.68729">
        <ele>150.2</ele>
        <time>2024-09-07T09:08:26Z</time>
      </trkpt>
      <trkpt lat="48.03102" lon="-3.68724">
        <ele>150.2</ele>
        <time>2024-09-07T09:08:27Z</time>
      </trkpt>
      <trkpt lat="48.03105" lon="-3.6872">
        <ele>150.2</ele>
        <time>2024-09-07T09:08:28Z</time>
      </trkpt>
      <trkpt lat="48.03107" lon="-3.68716">
        <ele>150.2</ele>
        <time>2024-09-07T09:08:29Z</time>
      </trkpt>
      <trkpt lat="48.0311" lon="-3.68713">
        <ele>150.2</ele>
        <time>2024-09-07T09:08:30Z</time>
      </trkpt>
      <trkpt lat="48.03112" lon="-3.6871">
        <ele>150.2</ele>
        <time>2024-09-07T09:08:31Z</time>
      </trkpt>
      <trkpt lat="48.03115" lon="-3.68706">
        <ele>150.4</ele>
        <time>2024-09-07T09:08:32Z</time>
      </trkpt>
      <trkpt lat="48.03118" lon="-3.68703">
        <ele>150.4</ele>
        <time>2024-09-07T09:08:33Z</time>
      </trkpt>
      <trkpt lat="48.03121" lon="-3.68699">
        <ele>150.6</ele>
        <time>2024-09-07T09:08:34Z</time>
      </trkpt>
      <trkpt lat="48.03124" lon="-3.68695">
        <ele>150.6</ele>
        <time>2024-09-07T09:08:35Z</time>
      </trkpt>
      <trkpt lat="48.03126" lon="-3.68692">
        <ele>150.8</ele>
        <time>2024-09-07T09:08:36Z</time>
      </trkpt>
      <trkpt lat="48.03129" lon="-3.68689">
        <ele>151</ele>
        <time>2024-09-07T09:08:37Z</time>
      </trkpt>
      <trkpt lat="48.03131" lon="-3.68685">
        <ele>151.4</ele>
        <time>2024-09-07T09:08:38Z</time>
      </trkpt>
      <trkpt lat="48.03134" lon="-3.68682">
        <ele>151.4</ele>
        <time>2024-09-07T09:08:39Z</time>
      </trkpt>
      <trkpt lat="48.03137" lon="-3.68678">
        <ele>151.6</ele>
        <time>2024-09-07T09:08:40Z</time>
      </trkpt>
      <trkpt lat="48.0314" lon="-3.68674">
        <ele>151.6</ele>
        <time>2024-09-07T09:08:41Z</time>
      </trkpt>
      <trkpt lat="48.03143" lon="-3.6867">
        <ele>151.6</ele>
        <time>2024-09-07T09:08:42Z</time>
      </trkpt>
      <trkpt lat="48.03145" lon="-3.68668">
        <ele>151.6</ele>
        <time>2024-09-07T09:08:43Z</time>
      </trkpt>
      <trkpt lat="48.03147" lon="-3.68665">
        <ele>151.8</ele>
        <time>2024-09-07T09:08:44Z</time>
      </trkpt>
      <trkpt lat="48.0315" lon="-3.68662">
        <ele>151.8</ele>
        <time>2024-09-07T09:08:45Z</time>
      </trkpt>
      <trkpt lat="48.03152" lon="-3.68659">
        <ele>151.8</ele>
        <time>2024-09-07T09:08:46Z</time>
      </trkpt>
      <trkpt lat="48.03154" lon="-3.68656">
        <ele>151.8</ele>
        <time>2024-09-07T09:08:47Z</time>
      </trkpt>
      <trkpt lat="48.03156" lon="-3.68653">
        <ele>151.8</ele>
        <time>2024-09-07T09:08:48Z</time>
      </trkpt>
      <trkpt lat="48.03158" lon="-3.6865">
        <ele>151.8</ele>
        <time>2024-09-07T09:08:49Z</time>
      </trkpt>
      <trkpt lat="48.0316" lon="-3.68647">
        <ele>151.8</ele>
        <time>2024-09-07T09:08:50Z</time>
      </trkpt>
      <trkpt lat="48.03162" lon="-3.68644">
        <ele>151.8</ele>
        <time>2024-09-07T09:08:51Z</time>
      </trkpt>
      <trkpt lat="48.03165" lon="-3.68641">
        <ele>151.8</ele>
        <time>2024-09-07T09:08:52Z</time>
      </trkpt>
      <trkpt lat="48.03168" lon="-3.68637">
        <ele>152</ele>
        <time>2024-09-07T09:08:53Z</time>
      </trkpt>
      <trkpt lat="48.03171" lon="-3.68634">
        <ele>152</ele>
        <time>2024-09-07T09:08:54Z</time>
      </trkpt>
      <trkpt lat="48.03174" lon="-3.68631">
        <ele>152</ele>
        <time>2024-09-07T09:08:55Z</time>
      </trkpt>
      <trkpt lat="48.03176" lon="-3.68628">
        <ele>152.2</ele>
        <time>2024-09-07T09:08:56Z</time>
      </trkpt>
      <trkpt lat="48.03178" lon="-3.68624">
        <ele>152.2</ele>
        <time>2024-09-07T09:08:57Z</time>
      </trkpt>
      <trkpt lat="48.03181" lon="-3.6862">
        <ele>152.4</ele>
        <time>2024-09-07T09:08:58Z</time>
      </trkpt>
      <trkpt lat="48.03186" lon="-3.68615">
        <ele>152.4</ele>
        <time>2024-09-07T09:08:59Z</time>
      </trkpt>
      <trkpt lat="48.03189" lon="-3.68611">
        <ele>152.4</ele>
        <time>2024-09-07T09:09:00Z</time>
      </trkpt>
      <trkpt lat="48.03193" lon="-3.68606">
        <ele>152.4</ele>
        <time>2024-09-07T09:09:01Z</time>
      </trkpt>
      <trkpt lat="48.03196" lon="-3.68602">
        <ele>152.4</ele>
        <time>2024-09-07T09:09:02Z</time>
      </trkpt>
      <trkpt lat="48.03198" lon="-3.68599">
        <ele>152.6</ele>
        <time>2024-09-07T09:09:03Z</time>
      </trkpt>
      <trkpt lat="48.03199" lon="-3.68597">
        <ele>152.6</ele>
        <time>2024-09-07T09:09:04Z</time>
      </trkpt>
      <trkpt lat="48.03202" lon="-3.68594">
        <ele>152.8</ele>
        <time>2024-09-07T09:09:05Z</time>
      </trkpt>
      <trkpt lat="48.03204" lon="-3.6859">
        <ele>152.8</ele>
        <time>2024-09-07T09:09:06Z</time>
      </trkpt>
      <trkpt lat="48.03207" lon="-3.68586">
        <ele>152.8</ele>
        <time>2024-09-07T09:09:07Z</time>
      </trkpt>
      <trkpt lat="48.0321" lon="-3.68581">
        <ele>152.8</ele>
        <time>2024-09-07T09:09:08Z</time>
      </trkpt>
      <trkpt lat="48.03213" lon="-3.68577">
        <ele>153</ele>
        <time>2024-09-07T09:09:09Z</time>
      </trkpt>
      <trkpt lat="48.03216" lon="-3.68573">
        <ele>153</ele>
        <time>2024-09-07T09:09:10Z</time>
      </trkpt>
      <trkpt lat="48.0322" lon="-3.68569">
        <ele>153.2</ele>
        <time>2024-09-07T09:09:11Z</time>
      </trkpt>
      <trkpt lat="48.03224" lon="-3.68564">
        <ele>153.4</ele>
        <time>2024-09-07T09:09:12Z</time>
      </trkpt>
      <trkpt lat="48.03228" lon="-3.68559">
        <ele>153.6</ele>
        <time>2024-09-07T09:09:13Z</time>
      </trkpt>
      <trkpt lat="48.03232" lon="-3.68554">
        <ele>153.8</ele>
        <time>2024-09-07T09:09:14Z</time>
      </trkpt>
      <trkpt lat="48.03236" lon="-3.6855">
        <ele>154</ele>
        <time>2024-09-07T09:09:15Z</time>
      </trkpt>
      <trkpt lat="48.03241" lon="-3.68545">
        <ele>154</ele>
        <time>2024-09-07T09:09:16Z</time>
      </trkpt>
      <trkpt lat="48.03244" lon="-3.68542">
        <ele>154.2</ele>
        <time>2024-09-07T09:09:17Z</time>
      </trkpt>
      <trkpt lat="48.03247" lon="-3.68538">
        <ele>154.2</ele>
        <time>2024-09-07T09:09:18Z</time>
      </trkpt>
      <trkpt lat="48.0325" lon="-3.68534">
        <ele>154.4</ele>
        <time>2024-09-07T09:09:19Z</time>
      </trkpt>
      <trkpt lat="48.03253" lon="-3.6853">
        <ele>154.6</ele>
        <time>2024-09-07T09:09:20Z</time>
      </trkpt>
      <trkpt lat="48.03255" lon="-3.68526">
        <ele>154.6</ele>
        <time>2024-09-07T09:09:21Z</time>
      </trkpt>
      <trkpt lat="48.03257" lon="-3.68522">
        <ele>154.8</ele>
        <time>2024-09-07T09:09:22Z</time>
      </trkpt>
      <trkpt lat="48.03262" lon="-3.68517">
        <ele>154.8</ele>
        <time>2024-09-07T09:09:23Z</time>
      </trkpt>
      <trkpt lat="48.03265" lon="-3.68513">
        <ele>154.8</ele>
        <time>2024-09-07T09:09:24Z</time>
      </trkpt>
      <trkpt lat="48.03267" lon="-3.6851">
        <ele>154.8</ele>
        <time>2024-09-07T09:09:25Z</time>
      </trkpt>
      <trkpt lat="48.0327" lon="-3.68505">
        <ele>154.8</ele>
        <time>2024-09-07T09:09:26Z</time>
      </trkpt>
      <trkpt lat="48.03273" lon="-3.68501">
        <ele>155</ele>
        <time>2024-09-07T09:09:27Z</time>
      </trkpt>
      <trkpt lat="48.03277" lon="-3.68496">
        <ele>155</ele>
        <time>2024-09-07T09:09:28Z</time>
      </trkpt>
      <trkpt lat="48.03281" lon="-3.68491">
        <ele>155</ele>
        <time>2024-09-07T09:09:29Z</time>
      </trkpt>
      <trkpt lat="48.03283" lon="-3.68487">
        <ele>155</ele>
        <time>2024-09-07T09:09:30Z</time>
      </trkpt>
      <trkpt lat="48.03286" lon="-3.68485">
        <ele>155.2</ele>
        <time>2024-09-07T09:09:31Z</time>
      </trkpt>
      <trkpt lat="48.03288" lon="-3.68482">
        <ele>155.2</ele>
        <time>2024-09-07T09:09:32Z</time>
      </trkpt>
      <trkpt lat="48.0329" lon="-3.68479">
        <ele>155.2</ele>
        <time>2024-09-07T09:09:33Z</time>
      </trkpt>
      <trkpt lat="48.03292" lon="-3.68476">
        <ele>155.2</ele>
        <time>2024-09-07T09:09:34Z</time>
      </trkpt>
      <trkpt lat="48.03295" lon="-3.68473">
        <ele>155.2</ele>
        <time>2024-09-07T09:09:35Z</time>
      </trkpt>
      <trkpt lat="48.03298" lon="-3.6847">
        <ele>155.2</ele>
        <time>2024-09-07T09:09:36Z</time>
      </trkpt>
      <trkpt lat="48.03301" lon="-3.68466">
        <ele>155.4</ele>
        <time>2024-09-07T09:09:37Z</time>
      </trkpt>
      <trkpt lat="48.03304" lon="-3.68464">
        <ele>155.4</ele>
        <time>2024-09-07T09:09:38Z</time>
      </trkpt>
      <trkpt lat="48.03307" lon="-3.68461">
        <ele>155.4</ele>
        <time>2024-09-07T09:09:39Z</time>
      </trkpt>
      <trkpt lat="48.0331" lon="-3.68458">
        <ele>155.4</ele>
        <time>2024-09-07T09:09:40Z</time>
      </trkpt>
      <trkpt lat="48.03313" lon="-3.68454">
        <ele>155.4</ele>
        <time>2024-09-07T09:09:41Z</time>
      </trkpt>
      <trkpt lat="48.03315" lon="-3.68451">
        <ele>155.6</ele>
        <time>2024-09-07T09:09:42Z</time>
      </trkpt>
      <trkpt lat="48.03318" lon="-3.68447">
        <ele>155.6</ele>
        <time>2024-09-07T09:09:43Z</time>
      </trkpt>
      <trkpt lat="48.03322" lon="-3.68442">
        <ele>155.6</ele>
        <time>2024-09-07T09:09:44Z</time>
      </trkpt>
      <trkpt lat="48.03324" lon="-3.68438">
        <ele>155.6</ele>
        <time>2024-09-07T09:09:45Z</time>
      </trkpt>
      <trkpt lat="48.03328" lon="-3.68433">
        <ele>155.6</ele>
        <time>2024-09-07T09:09:46Z</time>
      </trkpt>
      <trkpt lat="48.03331" lon="-3.68428">
        <ele>155.6</ele>
        <time>2024-09-07T09:09:47Z</time>
      </trkpt>
      <trkpt lat="48.03335" lon="-3.68421">
        <ele>155.6</ele>
        <time>2024-09-07T09:09:48Z</time>
      </trkpt>
      <trkpt lat="48.03339" lon="-3.68416">
        <ele>155.6</ele>
        <time>2024-09-07T09:09:49Z</time>
      </trkpt>
      <trkpt lat="48.03342" lon="-3.68412">
        <ele>155.6</ele>
        <time>2024-09-07T09:09:50Z</time>
      </trkpt>
      <trkpt lat="48.03346" lon="-3.68407">
        <ele>155.6</ele>
        <time>2024-09-07T09:09:51Z</time>
      </trkpt>
      <trkpt lat="48.0335" lon="-3.68402">
        <ele>155.6</ele>
        <time>2024-09-07T09:09:52Z</time>
      </trkpt>
      <trkpt lat="48.03354" lon="-3.68396">
        <ele>155.6</ele>
        <time>2024-09-07T09:09:53Z</time>
      </trkpt>
      <trkpt lat="48.03358" lon="-3.6839">
        <ele>155.6</ele>
        <time>2024-09-07T09:09:54Z</time>
      </trkpt>
      <trkpt lat="48.03363" lon="-3.68383">
        <ele>155.6</ele>
        <time>2024-09-07T09:09:55Z</time>
      </trkpt>
      <trkpt lat="48.03367" lon="-3.68377">
        <ele>155.6</ele>
        <time>2024-09-07T09:09:56Z</time>
      </trkpt>
      <trkpt lat="48.03374" lon="-3.68371">
        <ele>155.8</ele>
        <time>2024-09-07T09:09:57Z</time>
      </trkpt>
      <trkpt lat="48.03381" lon="-3.68363">
        <ele>155.8</ele>
        <time>2024-09-07T09:09:58Z</time>
      </trkpt>
      <trkpt lat="48.03384" lon="-3.68359">
        <ele>155.8</ele>
        <time>2024-09-07T09:09:59Z</time>
      </trkpt>
      <trkpt lat="48.03387" lon="-3.68354">
        <ele>155.8</ele>
        <time>2024-09-07T09:10:00Z</time>
      </trkpt>
      <trkpt lat="48.03392" lon="-3.68349">
        <ele>155.8</ele>
        <time>2024-09-07T09:10:01Z</time>
      </trkpt>
      <trkpt lat="48.03396" lon="-3.68343">
        <ele>155.8</ele>
        <time>2024-09-07T09:10:02Z</time>
      </trkpt>
      <trkpt lat="48.03399" lon="-3.68339">
        <ele>155.8</ele>
        <time>2024-09-07T09:10:03Z</time>
      </trkpt>
      <trkpt lat="48.03403" lon="-3.68334">
        <ele>155.8</ele>
        <time>2024-09-07T09:10:04Z</time>
      </trkpt>
      <trkpt lat="48.03406" lon="-3.68329">
        <ele>155.8</ele>
        <time>2024-09-07T09:10:05Z</time>
      </trkpt>
      <trkpt lat="48.03408" lon="-3.68324">
        <ele>155.8</ele>
        <time>2024-09-07T09:10:06Z</time>
      </trkpt>
      <trkpt lat="48.03412" lon="-3.68319">
        <ele>155.8</ele>
        <time>2024-09-07T09:10:07Z</time>
      </trkpt>
      <trkpt lat="48.03415" lon="-3.68314">
        <ele>155.8</ele>
        <time>2024-09-07T09:10:08Z</time>
      </trkpt>
      <trkpt lat="48.03419" lon="-3.6831">
        <ele>155.8</ele>
        <time>2024-09-07T09:10:09Z</time>
      </trkpt>
      <trkpt lat="48.03422" lon="-3.68306">
        <ele>155.8</ele>
        <time>2024-09-07T09:10:10Z</time>
      </trkpt>
      <trkpt lat="48.03425" lon="-3.68302">
        <ele>155.8</ele>
        <time>2024-09-07T09:10:11Z</time>
      </trkpt>
      <trkpt lat="48.03429" lon="-3.68298">
        <ele>155.8</ele>
        <time>2024-09-07T09:10:12Z</time>
      </trkpt>
      <trkpt lat="48.03433" lon="-3.68293">
        <ele>155.8</ele>
        <time>2024-09-07T09:10:13Z</time>
      </trkpt>
      <trkpt lat="48.03437" lon="-3.68289">
        <ele>155.8</ele>
        <time>2024-09-07T09:10:14Z</time>
      </trkpt>
      <trkpt lat="48.0344" lon="-3.68285">
        <ele>155.8</ele>
        <time>2024-09-07T09:10:15Z</time>
      </trkpt>
      <trkpt lat="48.03444" lon="-3.68281">
        <ele>155.8</ele>
        <time>2024-09-07T09:10:16Z</time>
      </trkpt>
      <trkpt lat="48.03448" lon="-3.68276">
        <ele>155.8</ele>
        <time>2024-09-07T09:10:17Z</time>
      </trkpt>
      <trkpt lat="48.03452" lon="-3.6827">
        <ele>155.8</ele>
        <time>2024-09-07T09:10:18Z</time>
      </trkpt>
      <trkpt lat="48.03457" lon="-3.68264">
        <ele>155.8</ele>
        <time>2024-09-07T09:10:19Z</time>
      </trkpt>
      <trkpt lat="48.03461" lon="-3.68258">
        <ele>155.8</ele>
        <time>2024-09-07T09:10:20Z</time>
      </trkpt>
      <trkpt lat="48.03465" lon="-3.68253">
        <ele>155.8</ele>
        <time>2024-09-07T09:10:21Z</time>
      </trkpt>
      <trkpt lat="48.03468" lon="-3.68248">
        <ele>155.8</ele>
        <time>2024-09-07T09:10:22Z</time>
      </trkpt>
      <trkpt lat="48.03472" lon="-3.68243">
        <ele>155.8</ele>
        <time>2024-09-07T09:10:23Z</time>
      </trkpt>
      <trkpt lat="48.03476" lon="-3.68238">
        <ele>155.8</ele>
        <time>2024-09-07T09:10:24Z</time>
      </trkpt>
      <trkpt lat="48.03479" lon="-3.68233">
        <ele>155.8</ele>
        <time>2024-09-07T09:10:25Z</time>
      </trkpt>
      <trkpt lat="48.03483" lon="-3.68228">
        <ele>155.8</ele>
        <time>2024-09-07T09:10:26Z</time>
      </trkpt>
      <trkpt lat="48.03487" lon="-3.68223">
        <ele>155.8</ele>
        <time>2024-09-07T09:10:27Z</time>
      </trkpt>
      <trkpt lat="48.0349" lon="-3.68218">
        <ele>155.8</ele>
        <time>2024-09-07T09:10:28Z</time>
      </trkpt>
      <trkpt lat="48.03494" lon="-3.68213">
        <ele>155.8</ele>
        <time>2024-09-07T09:10:29Z</time>
      </trkpt>
      <trkpt lat="48.03497" lon="-3.68209">
        <ele>155.8</ele>
        <time>2024-09-07T09:10:30Z</time>
      </trkpt>
      <trkpt lat="48.035" lon="-3.68205">
        <ele>155.8</ele>
        <time>2024-09-07T09:10:31Z</time>
      </trkpt>
      <trkpt lat="48.03504" lon="-3.682">
        <ele>155.8</ele>
        <time>2024-09-07T09:10:32Z</time>
      </trkpt>
      <trkpt lat="48.03507" lon="-3.68195">
        <ele>155.8</ele>
        <time>2024-09-07T09:10:33Z</time>
      </trkpt>
      <trkpt lat="48.0351" lon="-3.6819">
        <ele>155.8</ele>
        <time>2024-09-07T09:10:34Z</time>
      </trkpt>
      <trkpt lat="48.03514" lon="-3.68186">
        <ele>155.8</ele>
        <time>2024-09-07T09:10:35Z</time>
      </trkpt>
      <trkpt lat="48.03517" lon="-3.68181">
        <ele>155.8</ele>
        <time>2024-09-07T09:10:36Z</time>
      </trkpt>
      <trkpt lat="48.03521" lon="-3.68177">
        <ele>155.8</ele>
        <time>2024-09-07T09:10:37Z</time>
      </trkpt>
      <trkpt lat="48.03525" lon="-3.68172">
        <ele>155.8</ele>
        <time>2024-09-07T09:10:38Z</time>
      </trkpt>
      <trkpt lat="48.03528" lon="-3.68168">
        <ele>155.8</ele>
        <time>2024-09-07T09:10:39Z</time>
      </trkpt>
      <trkpt lat="48.03531" lon="-3.68164">
        <ele>155.8</ele>
        <time>2024-09-07T09:10:40Z</time>
      </trkpt>
      <trkpt lat="48.03534" lon="-3.6816">
        <ele>156</ele>
        <time>2024-09-07T09:10:41Z</time>
      </trkpt>
      <trkpt lat="48.03535" lon="-3.68156">
        <ele>156</ele>
        <time>2024-09-07T09:10:42Z</time>
      </trkpt>
      <trkpt lat="48.03537" lon="-3.68154">
        <ele>156</ele>
        <time>2024-09-07T09:10:43Z</time>
      </trkpt>
      <trkpt lat="48.03539" lon="-3.68152">
        <ele>156</ele>
        <time>2024-09-07T09:10:44Z</time>
      </trkpt>
      <trkpt lat="48.0354" lon="-3.68151">
        <ele>156</ele>
        <time>2024-09-07T09:10:45Z</time>
      </trkpt>
      <trkpt lat="48.03542" lon="-3.6815">
        <ele>156</ele>
        <time>2024-09-07T09:10:46Z</time>
      </trkpt>
      <trkpt lat="48.03542" lon="-3.68148">
        <ele>156.2</ele>
        <time>2024-09-07T09:10:47Z</time>
      </trkpt>
      <trkpt lat="48.03542" lon="-3.68146">
        <ele>156.2</ele>
        <time>2024-09-07T09:10:48Z</time>
      </trkpt>
      <trkpt lat="48.03542" lon="-3.68145">
        <ele>156.2</ele>
        <time>2024-09-07T09:10:49Z</time>
      </trkpt>
      <trkpt lat="48.03543" lon="-3.68144">
        <ele>156.4</ele>
        <time>2024-09-07T09:10:50Z</time>
      </trkpt>
      <trkpt lat="48.03543" lon="-3.68133">
        <ele>156.4</ele>
        <time>2024-09-07T09:11:03Z</time>
      </trkpt>
      <trkpt lat="48.03545" lon="-3.6813">
        <ele>156.4</ele>
        <time>2024-09-07T09:11:04Z</time>
      </trkpt>
      <trkpt lat="48.03547" lon="-3.68128">
        <ele>156.4</ele>
        <time>2024-09-07T09:11:05Z</time>
      </trkpt>
      <trkpt lat="48.03549" lon="-3.68126">
        <ele>156.4</ele>
        <time>2024-09-07T09:11:06Z</time>
      </trkpt>
      <trkpt lat="48.03552" lon="-3.68125">
        <ele>156.4</ele>
        <time>2024-09-07T09:11:07Z</time>
      </trkpt>
      <trkpt lat="48.03554" lon="-3.68124">
        <ele>156.4</ele>
        <time>2024-09-07T09:11:08Z</time>
      </trkpt>
      <trkpt lat="48.03557" lon="-3.68123">
        <ele>156.4</ele>
        <time>2024-09-07T09:11:09Z</time>
      </trkpt>
      <trkpt lat="48.0356" lon="-3.68122">
        <ele>156.4</ele>
        <time>2024-09-07T09:11:10Z</time>
      </trkpt>
      <trkpt lat="48.03563" lon="-3.68121">
        <ele>156.4</ele>
        <time>2024-09-07T09:11:11Z</time>
      </trkpt>
      <trkpt lat="48.03566" lon="-3.68119">
        <ele>156.4</ele>
        <time>2024-09-07T09:11:12Z</time>
      </trkpt>
      <trkpt lat="48.03569" lon="-3.68117">
        <ele>156.4</ele>
        <time>2024-09-07T09:11:13Z</time>
      </trkpt>
      <trkpt lat="48.03571" lon="-3.68113">
        <ele>156.4</ele>
        <time>2024-09-07T09:11:14Z</time>
      </trkpt>
      <trkpt lat="48.03574" lon="-3.6811">
        <ele>156.4</ele>
        <time>2024-09-07T09:11:15Z</time>
      </trkpt>
      <trkpt lat="48.03576" lon="-3.68106">
        <ele>156.4</ele>
        <time>2024-09-07T09:11:16Z</time>
      </trkpt>
      <trkpt lat="48.03579" lon="-3.68101">
        <ele>156.6</ele>
        <time>2024-09-07T09:11:17Z</time>
      </trkpt>
      <trkpt lat="48.03582" lon="-3.68097">
        <ele>156.6</ele>
        <time>2024-09-07T09:11:18Z</time>
      </trkpt>
      <trkpt lat="48.03585" lon="-3.68094">
        <ele>156.6</ele>
        <time>2024-09-07T09:11:19Z</time>
      </trkpt>
      <trkpt lat="48.03588" lon="-3.6809">
        <ele>156.6</ele>
        <time>2024-09-07T09:11:20Z</time>
      </trkpt>
      <trkpt lat="48.03591" lon="-3.68086">
        <ele>156.8</ele>
        <time>2024-09-07T09:11:21Z</time>
      </trkpt>
      <trkpt lat="48.03594" lon="-3.68082">
        <ele>156.8</ele>
        <time>2024-09-07T09:11:22Z</time>
      </trkpt>
      <trkpt lat="48.03596" lon="-3.68079">
        <ele>156.8</ele>
        <time>2024-09-07T09:11:23Z</time>
      </trkpt>
      <trkpt lat="48.03599" lon="-3.68075">
        <ele>156.8</ele>
        <time>2024-09-07T09:11:24Z</time>
      </trkpt>
      <trkpt lat="48.03602" lon="-3.68071">
        <ele>156.8</ele>
        <time>2024-09-07T09:11:25Z</time>
      </trkpt>
      <trkpt lat="48.03605" lon="-3.68066">
        <ele>156.8</ele>
        <time>2024-09-07T09:11:26Z</time>
      </trkpt>
      <trkpt lat="48.03608" lon="-3.68062">
        <ele>157</ele>
        <time>2024-09-07T09:11:27Z</time>
      </trkpt>
      <trkpt lat="48.03611" lon="-3.68057">
        <ele>157</ele>
        <time>2024-09-07T09:11:28Z</time>
      </trkpt>
      <trkpt lat="48.03614" lon="-3.68053">
        <ele>157</ele>
        <time>2024-09-07T09:11:29Z</time>
      </trkpt>
      <trkpt lat="48.03617" lon="-3.68049">
        <ele>157.2</ele>
        <time>2024-09-07T09:11:30Z</time>
      </trkpt>
      <trkpt lat="48.0362" lon="-3.68044">
        <ele>157.2</ele>
        <time>2024-09-07T09:11:31Z</time>
      </trkpt>
      <trkpt lat="48.03623" lon="-3.6804">
        <ele>157.2</ele>
        <time>2024-09-07T09:11:32Z</time>
      </trkpt>
      <trkpt lat="48.03625" lon="-3.68037">
        <ele>157.2</ele>
        <time>2024-09-07T09:11:33Z</time>
      </trkpt>
      <trkpt lat="48.03627" lon="-3.68033">
        <ele>157.4</ele>
        <time>2024-09-07T09:11:34Z</time>
      </trkpt>
      <trkpt lat="48.03629" lon="-3.68031">
        <ele>157.4</ele>
        <time>2024-09-07T09:11:35Z</time>
      </trkpt>
      <trkpt lat="48.03631" lon="-3.68027">
        <ele>157.4</ele>
        <time>2024-09-07T09:11:36Z</time>
      </trkpt>
      <trkpt lat="48.03634" lon="-3.68023">
        <ele>157.4</ele>
        <time>2024-09-07T09:11:37Z</time>
      </trkpt>
      <trkpt lat="48.03637" lon="-3.68019">
        <ele>157.4</ele>
        <time>2024-09-07T09:11:38Z</time>
      </trkpt>
      <trkpt lat="48.03641" lon="-3.68015">
        <ele>157.6</ele>
        <time>2024-09-07T09:11:39Z</time>
      </trkpt>
      <trkpt lat="48.03644" lon="-3.6801">
        <ele>157.6</ele>
        <time>2024-09-07T09:11:40Z</time>
      </trkpt>
      <trkpt lat="48.03648" lon="-3.68004">
        <ele>157.8</ele>
        <time>2024-09-07T09:11:41Z</time>
      </trkpt>
      <trkpt lat="48.03651" lon="-3.67999">
        <ele>157.8</ele>
        <time>2024-09-07T09:11:42Z</time>
      </trkpt>
      <trkpt lat="48.03654" lon="-3.67994">
        <ele>158</ele>
        <time>2024-09-07T09:11:43Z</time>
      </trkpt>
      <trkpt lat="48.03657" lon="-3.6799">
        <ele>158.2</ele>
        <time>2024-09-07T09:11:44Z</time>
      </trkpt>
      <trkpt lat="48.0366" lon="-3.67985">
        <ele>158.4</ele>
        <time>2024-09-07T09:11:45Z</time>
      </trkpt>
      <trkpt lat="48.03663" lon="-3.6798">
        <ele>158.4</ele>
        <time>2024-09-07T09:11:46Z</time>
      </trkpt>
      <trkpt lat="48.03667" lon="-3.67976">
        <ele>158.4</ele>
        <time>2024-09-07T09:11:47Z</time>
      </trkpt>
      <trkpt lat="48.0367" lon="-3.67971">
        <ele>158.6</ele>
        <time>2024-09-07T09:11:48Z</time>
      </trkpt>
      <trkpt lat="48.03674" lon="-3.67965">
        <ele>158.6</ele>
        <time>2024-09-07T09:11:49Z</time>
      </trkpt>
      <trkpt lat="48.03676" lon="-3.67961">
        <ele>158.8</ele>
        <time>2024-09-07T09:11:50Z</time>
      </trkpt>
      <trkpt lat="48.0368" lon="-3.67955">
        <ele>158.8</ele>
        <time>2024-09-07T09:11:51Z</time>
      </trkpt>
      <trkpt lat="48.03684" lon="-3.6795">
        <ele>158.8</ele>
        <time>2024-09-07T09:11:52Z</time>
      </trkpt>
      <trkpt lat="48.03687" lon="-3.67944">
        <ele>159</ele>
        <time>2024-09-07T09:11:53Z</time>
      </trkpt>
      <trkpt lat="48.0369" lon="-3.6794">
        <ele>159</ele>
        <time>2024-09-07T09:11:54Z</time>
      </trkpt>
      <trkpt lat="48.03693" lon="-3.67937">
        <ele>159</ele>
        <time>2024-09-07T09:11:55Z</time>
      </trkpt>
      <trkpt lat="48.03697" lon="-3.67932">
        <ele>159.2</ele>
        <time>2024-09-07T09:11:56Z</time>
      </trkpt>
      <trkpt lat="48.03702" lon="-3.67926">
        <ele>159.2</ele>
        <time>2024-09-07T09:11:57Z</time>
      </trkpt>
      <trkpt lat="48.03706" lon="-3.67921">
        <ele>159.2</ele>
        <time>2024-09-07T09:11:58Z</time>
      </trkpt>
      <trkpt lat="48.03709" lon="-3.67916">
        <ele>159.2</ele>
        <time>2024-09-07T09:11:59Z</time>
      </trkpt>
      <trkpt lat="48.03711" lon="-3.67913">
        <ele>159.2</ele>
        <time>2024-09-07T09:12:00Z</time>
      </trkpt>
      <trkpt lat="48.03714" lon="-3.67908">
        <ele>159.4</ele>
        <time>2024-09-07T09:12:01Z</time>
      </trkpt>
      <trkpt lat="48.03717" lon="-3.67903">
        <ele>159.4</ele>
        <time>2024-09-07T09:12:02Z</time>
      </trkpt>
      <trkpt lat="48.0372" lon="-3.67899">
        <ele>159.6</ele>
        <time>2024-09-07T09:12:03Z</time>
      </trkpt>
      <trkpt lat="48.03723" lon="-3.67894">
        <ele>159.6</ele>
        <time>2024-09-07T09:12:04Z</time>
      </trkpt>
      <trkpt lat="48.03727" lon="-3.6789">
        <ele>159.8</ele>
        <time>2024-09-07T09:12:05Z</time>
      </trkpt>
      <trkpt lat="48.0373" lon="-3.67885">
        <ele>159.8</ele>
        <time>2024-09-07T09:12:06Z</time>
      </trkpt>
      <trkpt lat="48.03734" lon="-3.67881">
        <ele>160</ele>
        <time>2024-09-07T09:12:07Z</time>
      </trkpt>
      <trkpt lat="48.03737" lon="-3.67875">
        <ele>160</ele>
        <time>2024-09-07T09:12:08Z</time>
      </trkpt>
      <trkpt lat="48.03741" lon="-3.6787">
        <ele>160</ele>
        <time>2024-09-07T09:12:09Z</time>
      </trkpt>
      <trkpt lat="48.03745" lon="-3.67865">
        <ele>160.2</ele>
        <time>2024-09-07T09:12:10Z</time>
      </trkpt>
      <trkpt lat="48.03748" lon="-3.67859">
        <ele>160.2</ele>
        <time>2024-09-07T09:12:11Z</time>
      </trkpt>
      <trkpt lat="48.03752" lon="-3.67854">
        <ele>160.2</ele>
        <time>2024-09-07T09:12:12Z</time>
      </trkpt>
      <trkpt lat="48.03756" lon="-3.67848">
        <ele>160.4</ele>
        <time>2024-09-07T09:12:13Z</time>
      </trkpt>
      <trkpt lat="48.03759" lon="-3.67842">
        <ele>160.4</ele>
        <time>2024-09-07T09:12:14Z</time>
      </trkpt>
      <trkpt lat="48.03763" lon="-3.67836">
        <ele>160.4</ele>
        <time>2024-09-07T09:12:15Z</time>
      </trkpt>
      <trkpt lat="48.03766" lon="-3.67831">
        <ele>160.4</ele>
        <time>2024-09-07T09:12:16Z</time>
      </trkpt>
      <trkpt lat="48.0377" lon="-3.67825">
        <ele>160.4</ele>
        <time>2024-09-07T09:12:17Z</time>
      </trkpt>
      <trkpt lat="48.03773" lon="-3.6782">
        <ele>160.4</ele>
        <time>2024-09-07T09:12:18Z</time>
      </trkpt>
      <trkpt lat="48.03777" lon="-3.67814">
        <ele>160.4</ele>
        <time>2024-09-07T09:12:19Z</time>
      </trkpt>
      <trkpt lat="48.03781" lon="-3.67809">
        <ele>160.4</ele>
        <time>2024-09-07T09:12:20Z</time>
      </trkpt>
      <trkpt lat="48.03784" lon="-3.67803">
        <ele>160.4</ele>
        <time>2024-09-07T09:12:21Z</time>
      </trkpt>
      <trkpt lat="48.03788" lon="-3.67798">
        <ele>160.4</ele>
        <time>2024-09-07T09:12:22Z</time>
      </trkpt>
      <trkpt lat="48.03792" lon="-3.67793">
        <ele>160.4</ele>
        <time>2024-09-07T09:12:23Z</time>
      </trkpt>
      <trkpt lat="48.03796" lon="-3.67788">
        <ele>160.4</ele>
        <time>2024-09-07T09:12:24Z</time>
      </trkpt>
      <trkpt lat="48.03799" lon="-3.67782">
        <ele>160.4</ele>
        <time>2024-09-07T09:12:25Z</time>
      </trkpt>
      <trkpt lat="48.03803" lon="-3.67777">
        <ele>160.4</ele>
        <time>2024-09-07T09:12:26Z</time>
      </trkpt>
      <trkpt lat="48.03807" lon="-3.67772">
        <ele>160.4</ele>
        <time>2024-09-07T09:12:27Z</time>
      </trkpt>
      <trkpt lat="48.0381" lon="-3.67767">
        <ele>160.4</ele>
        <time>2024-09-07T09:12:28Z</time>
      </trkpt>
      <trkpt lat="48.03814" lon="-3.67761">
        <ele>160.4</ele>
        <time>2024-09-07T09:12:29Z</time>
      </trkpt>
      <trkpt lat="48.03818" lon="-3.67755">
        <ele>160.4</ele>
        <time>2024-09-07T09:12:30Z</time>
      </trkpt>
      <trkpt lat="48.03822" lon="-3.67749">
        <ele>160.4</ele>
        <time>2024-09-07T09:12:31Z</time>
      </trkpt>
      <trkpt lat="48.03827" lon="-3.67743">
        <ele>160.4</ele>
        <time>2024-09-07T09:12:32Z</time>
      </trkpt>
      <trkpt lat="48.03831" lon="-3.67737">
        <ele>160.4</ele>
        <time>2024-09-07T09:12:33Z</time>
      </trkpt>
      <trkpt lat="48.03835" lon="-3.67731">
        <ele>160.4</ele>
        <time>2024-09-07T09:12:34Z</time>
      </trkpt>
      <trkpt lat="48.03839" lon="-3.67725">
        <ele>160.2</ele>
        <time>2024-09-07T09:12:35Z</time>
      </trkpt>
      <trkpt lat="48.03843" lon="-3.67719">
        <ele>160.2</ele>
        <time>2024-09-07T09:12:36Z</time>
      </trkpt>
      <trkpt lat="48.03847" lon="-3.67713">
        <ele>160.2</ele>
        <time>2024-09-07T09:12:37Z</time>
      </trkpt>
      <trkpt lat="48.03851" lon="-3.67708">
        <ele>160</ele>
        <time>2024-09-07T09:12:38Z</time>
      </trkpt>
      <trkpt lat="48.03855" lon="-3.67701">
        <ele>160</ele>
        <time>2024-09-07T09:12:39Z</time>
      </trkpt>
      <trkpt lat="48.03859" lon="-3.67695">
        <ele>159.8</ele>
        <time>2024-09-07T09:12:40Z</time>
      </trkpt>
      <trkpt lat="48.03863" lon="-3.67689">
        <ele>159.8</ele>
        <time>2024-09-07T09:12:41Z</time>
      </trkpt>
      <trkpt lat="48.03867" lon="-3.67683">
        <ele>159.8</ele>
        <time>2024-09-07T09:12:42Z</time>
      </trkpt>
      <trkpt lat="48.03871" lon="-3.67676">
        <ele>159.8</ele>
        <time>2024-09-07T09:12:43Z</time>
      </trkpt>
      <trkpt lat="48.03875" lon="-3.6767">
        <ele>159.6</ele>
        <time>2024-09-07T09:12:44Z</time>
      </trkpt>
      <trkpt lat="48.0388" lon="-3.67664">
        <ele>159.6</ele>
        <time>2024-09-07T09:12:45Z</time>
      </trkpt>
      <trkpt lat="48.03884" lon="-3.67658">
        <ele>159.6</ele>
        <time>2024-09-07T09:12:46Z</time>
      </trkpt>
      <trkpt lat="48.03888" lon="-3.67652">
        <ele>159.6</ele>
        <time>2024-09-07T09:12:47Z</time>
      </trkpt>
      <trkpt lat="48.03893" lon="-3.67645">
        <ele>159.4</ele>
        <time>2024-09-07T09:12:48Z</time>
      </trkpt>
      <trkpt lat="48.03897" lon="-3.67639">
        <ele>159.4</ele>
        <time>2024-09-07T09:12:49Z</time>
      </trkpt>
      <trkpt lat="48.03901" lon="-3.67633">
        <ele>159.4</ele>
        <time>2024-09-07T09:12:50Z</time>
      </trkpt>
      <trkpt lat="48.03905" lon="-3.67628">
        <ele>159.4</ele>
        <time>2024-09-07T09:12:51Z</time>
      </trkpt>
      <trkpt lat="48.0391" lon="-3.67622">
        <ele>159.4</ele>
        <time>2024-09-07T09:12:52Z</time>
      </trkpt>
      <trkpt lat="48.03914" lon="-3.67616">
        <ele>159.2</ele>
        <time>2024-09-07T09:12:53Z</time>
      </trkpt>
      <trkpt lat="48.03918" lon="-3.6761">
        <ele>159.2</ele>
        <time>2024-09-07T09:12:54Z</time>
      </trkpt>
      <trkpt lat="48.03923" lon="-3.67604">
        <ele>159.2</ele>
        <time>2024-09-07T09:12:55Z</time>
      </trkpt>
      <trkpt lat="48.03927" lon="-3.67598">
        <ele>159.2</ele>
        <time>2024-09-07T09:12:56Z</time>
      </trkpt>
      <trkpt lat="48.0393" lon="-3.67592">
        <ele>159.2</ele>
        <time>2024-09-07T09:12:57Z</time>
      </trkpt>
      <trkpt lat="48.03934" lon="-3.67586">
        <ele>159</ele>
        <time>2024-09-07T09:12:58Z</time>
      </trkpt>
      <trkpt lat="48.03939" lon="-3.6758">
        <ele>159</ele>
        <time>2024-09-07T09:12:59Z</time>
      </trkpt>
      <trkpt lat="48.03944" lon="-3.67573">
        <ele>158.8</ele>
        <time>2024-09-07T09:13:00Z</time>
      </trkpt>
      <trkpt lat="48.03949" lon="-3.67567">
        <ele>158.6</ele>
        <time>2024-09-07T09:13:01Z</time>
      </trkpt>
      <trkpt lat="48.03953" lon="-3.67561">
        <ele>158.4</ele>
        <time>2024-09-07T09:13:02Z</time>
      </trkpt>
      <trkpt lat="48.03958" lon="-3.67555">
        <ele>158.4</ele>
        <time>2024-09-07T09:13:03Z</time>
      </trkpt>
      <trkpt lat="48.03962" lon="-3.67549">
        <ele>158.4</ele>
        <time>2024-09-07T09:13:04Z</time>
      </trkpt>
      <trkpt lat="48.03967" lon="-3.67542">
        <ele>158.4</ele>
        <time>2024-09-07T09:13:05Z</time>
      </trkpt>
      <trkpt lat="48.03971" lon="-3.67537">
        <ele>158.2</ele>
        <time>2024-09-07T09:13:06Z</time>
      </trkpt>
      <trkpt lat="48.03975" lon="-3.67531">
        <ele>158.2</ele>
        <time>2024-09-07T09:13:07Z</time>
      </trkpt>
      <trkpt lat="48.03979" lon="-3.67525">
        <ele>158.2</ele>
        <time>2024-09-07T09:13:08Z</time>
      </trkpt>
      <trkpt lat="48.03983" lon="-3.6752">
        <ele>158.2</ele>
        <time>2024-09-07T09:13:09Z</time>
      </trkpt>
      <trkpt lat="48.03986" lon="-3.67514">
        <ele>158</ele>
        <time>2024-09-07T09:13:10Z</time>
      </trkpt>
      <trkpt lat="48.0399" lon="-3.67508">
        <ele>158</ele>
        <time>2024-09-07T09:13:11Z</time>
      </trkpt>
      <trkpt lat="48.03994" lon="-3.67502">
        <ele>157.8</ele>
        <time>2024-09-07T09:13:12Z</time>
      </trkpt>
      <trkpt lat="48.03998" lon="-3.67495">
        <ele>157.8</ele>
        <time>2024-09-07T09:13:13Z</time>
      </trkpt>
      <trkpt lat="48.04003" lon="-3.67488">
        <ele>157.6</ele>
        <time>2024-09-07T09:13:14Z</time>
      </trkpt>
      <trkpt lat="48.04007" lon="-3.67483">
        <ele>157.6</ele>
        <time>2024-09-07T09:13:15Z</time>
      </trkpt>
      <trkpt lat="48.04012" lon="-3.67476">
        <ele>157.4</ele>
        <time>2024-09-07T09:13:16Z</time>
      </trkpt>
      <trkpt lat="48.04016" lon="-3.6747">
        <ele>157.4</ele>
        <time>2024-09-07T09:13:17Z</time>
      </trkpt>
      <trkpt lat="48.04019" lon="-3.67464">
        <ele>157.2</ele>
        <time>2024-09-07T09:13:18Z</time>
      </trkpt>
      <trkpt lat="48.04024" lon="-3.67457">
        <ele>157.2</ele>
        <time>2024-09-07T09:13:19Z</time>
      </trkpt>
      <trkpt lat="48.04029" lon="-3.6745">
        <ele>157</ele>
        <time>2024-09-07T09:13:20Z</time>
      </trkpt>
      <trkpt lat="48.04033" lon="-3.67444">
        <ele>157</ele>
        <time>2024-09-07T09:13:21Z</time>
      </trkpt>
      <trkpt lat="48.04037" lon="-3.67437">
        <ele>157</ele>
        <time>2024-09-07T09:13:22Z</time>
      </trkpt>
      <trkpt lat="48.04042" lon="-3.67431">
        <ele>156.8</ele>
        <time>2024-09-07T09:13:23Z</time>
      </trkpt>
      <trkpt lat="48.04046" lon="-3.67426">
        <ele>156.8</ele>
        <time>2024-09-07T09:13:24Z</time>
      </trkpt>
      <trkpt lat="48.04052" lon="-3.67418">
        <ele>156.6</ele>
        <time>2024-09-07T09:13:25Z</time>
      </trkpt>
      <trkpt lat="48.04057" lon="-3.67411">
        <ele>156.6</ele>
        <time>2024-09-07T09:13:26Z</time>
      </trkpt>
      <trkpt lat="48.04062" lon="-3.67403">
        <ele>156.4</ele>
        <time>2024-09-07T09:13:27Z</time>
      </trkpt>
      <trkpt lat="48.04066" lon="-3.67396">
        <ele>156.4</ele>
        <time>2024-09-07T09:13:28Z</time>
      </trkpt>
      <trkpt lat="48.0407" lon="-3.67389">
        <ele>156.2</ele>
        <time>2024-09-07T09:13:29Z</time>
      </trkpt>
      <trkpt lat="48.04076" lon="-3.6738">
        <ele>156.2</ele>
        <time>2024-09-07T09:13:30Z</time>
      </trkpt>
      <trkpt lat="48.0408" lon="-3.67374">
        <ele>156.2</ele>
        <time>2024-09-07T09:13:31Z</time>
      </trkpt>
      <trkpt lat="48.04084" lon="-3.67367">
        <ele>156</ele>
        <time>2024-09-07T09:13:32Z</time>
      </trkpt>
      <trkpt lat="48.04088" lon="-3.6736">
        <ele>155.8</ele>
        <time>2024-09-07T09:13:33Z</time>
      </trkpt>
      <trkpt lat="48.04092" lon="-3.67354">
        <ele>155.8</ele>
        <time>2024-09-07T09:13:34Z</time>
      </trkpt>
      <trkpt lat="48.04097" lon="-3.67348">
        <ele>155.8</ele>
        <time>2024-09-07T09:13:35Z</time>
      </trkpt>
      <trkpt lat="48.04101" lon="-3.67342">
        <ele>155.6</ele>
        <time>2024-09-07T09:13:36Z</time>
      </trkpt>
      <trkpt lat="48.04106" lon="-3.67335">
        <ele>155.6</ele>
        <time>2024-09-07T09:13:37Z</time>
      </trkpt>
      <trkpt lat="48.0411" lon="-3.67329">
        <ele>155.4</ele>
        <time>2024-09-07T09:13:38Z</time>
      </trkpt>
      <trkpt lat="48.04115" lon="-3.67322">
        <ele>155.4</ele>
        <time>2024-09-07T09:13:39Z</time>
      </trkpt>
      <trkpt lat="48.0412" lon="-3.67317">
        <ele>155.4</ele>
        <time>2024-09-07T09:13:40Z</time>
      </trkpt>
      <trkpt lat="48.04125" lon="-3.6731">
        <ele>155.2</ele>
        <time>2024-09-07T09:13:41Z</time>
      </trkpt>
      <trkpt lat="48.04129" lon="-3.67303">
        <ele>155.2</ele>
        <time>2024-09-07T09:13:42Z</time>
      </trkpt>
      <trkpt lat="48.04134" lon="-3.67297">
        <ele>155</ele>
        <time>2024-09-07T09:13:43Z</time>
      </trkpt>
      <trkpt lat="48.04139" lon="-3.67291">
        <ele>155</ele>
        <time>2024-09-07T09:13:44Z</time>
      </trkpt>
      <trkpt lat="48.04144" lon="-3.67284">
        <ele>155</ele>
        <time>2024-09-07T09:13:45Z</time>
      </trkpt>
      <trkpt lat="48.04149" lon="-3.67278">
        <ele>154.8</ele>
        <time>2024-09-07T09:13:46Z</time>
      </trkpt>
      <trkpt lat="48.04153" lon="-3.67271">
        <ele>155</ele>
        <time>2024-09-07T09:13:47Z</time>
      </trkpt>
      <trkpt lat="48.04158" lon="-3.67265">
        <ele>155</ele>
        <time>2024-09-07T09:13:48Z</time>
      </trkpt>
      <trkpt lat="48.04162" lon="-3.67259">
        <ele>154.6</ele>
        <time>2024-09-07T09:13:49Z</time>
      </trkpt>
      <trkpt lat="48.04167" lon="-3.67252">
        <ele>154.6</ele>
        <time>2024-09-07T09:13:50Z</time>
      </trkpt>
      <trkpt lat="48.04172" lon="-3.67245">
        <ele>154.6</ele>
        <time>2024-09-07T09:13:51Z</time>
      </trkpt>
      <trkpt lat="48.04177" lon="-3.67239">
        <ele>154.6</ele>
        <time>2024-09-07T09:13:52Z</time>
      </trkpt>
      <trkpt lat="48.04182" lon="-3.67231">
        <ele>154.6</ele>
        <time>2024-09-07T09:13:53Z</time>
      </trkpt>
      <trkpt lat="48.04187" lon="-3.67223">
        <ele>154.4</ele>
        <time>2024-09-07T09:13:54Z</time>
      </trkpt>
      <trkpt lat="48.04192" lon="-3.67216">
        <ele>154.4</ele>
        <time>2024-09-07T09:13:55Z</time>
      </trkpt>
      <trkpt lat="48.04197" lon="-3.67209">
        <ele>154.2</ele>
        <time>2024-09-07T09:13:56Z</time>
      </trkpt>
      <trkpt lat="48.04202" lon="-3.67201">
        <ele>154</ele>
        <time>2024-09-07T09:13:57Z</time>
      </trkpt>
      <trkpt lat="48.04205" lon="-3.67196">
        <ele>154</ele>
        <time>2024-09-07T09:13:58Z</time>
      </trkpt>
      <trkpt lat="48.0421" lon="-3.67189">
        <ele>153.8</ele>
        <time>2024-09-07T09:13:59Z</time>
      </trkpt>
      <trkpt lat="48.04215" lon="-3.67182">
        <ele>153.8</ele>
        <time>2024-09-07T09:14:00Z</time>
      </trkpt>
      <trkpt lat="48.04219" lon="-3.67175">
        <ele>153.8</ele>
        <time>2024-09-07T09:14:01Z</time>
      </trkpt>
      <trkpt lat="48.04224" lon="-3.67167">
        <ele>153.6</ele>
        <time>2024-09-07T09:14:02Z</time>
      </trkpt>
      <trkpt lat="48.04228" lon="-3.6716">
        <ele>153.6</ele>
        <time>2024-09-07T09:14:03Z</time>
      </trkpt>
      <trkpt lat="48.04233" lon="-3.67153">
        <ele>153.6</ele>
        <time>2024-09-07T09:14:04Z</time>
      </trkpt>
      <trkpt lat="48.04237" lon="-3.67146">
        <ele>153.4</ele>
        <time>2024-09-07T09:14:05Z</time>
      </trkpt>
      <trkpt lat="48.04242" lon="-3.6714">
        <ele>153.4</ele>
        <time>2024-09-07T09:14:06Z</time>
      </trkpt>
      <trkpt lat="48.04246" lon="-3.67133">
        <ele>153.2</ele>
        <time>2024-09-07T09:14:07Z</time>
      </trkpt>
      <trkpt lat="48.04251" lon="-3.67127">
        <ele>153</ele>
        <time>2024-09-07T09:14:08Z</time>
      </trkpt>
      <trkpt lat="48.04256" lon="-3.6712">
        <ele>153</ele>
        <time>2024-09-07T09:14:09Z</time>
      </trkpt>
      <trkpt lat="48.0426" lon="-3.67114">
        <ele>152.8</ele>
        <time>2024-09-07T09:14:10Z</time>
      </trkpt>
      <trkpt lat="48.04264" lon="-3.67108">
        <ele>152.6</ele>
        <time>2024-09-07T09:14:11Z</time>
      </trkpt>
      <trkpt lat="48.04269" lon="-3.67101">
        <ele>152.4</ele>
        <time>2024-09-07T09:14:12Z</time>
      </trkpt>
      <trkpt lat="48.04274" lon="-3.67095">
        <ele>152.4</ele>
        <time>2024-09-07T09:14:13Z</time>
      </trkpt>
      <trkpt lat="48.04279" lon="-3.67088">
        <ele>152.2</ele>
        <time>2024-09-07T09:14:14Z</time>
      </trkpt>
      <trkpt lat="48.04284" lon="-3.67082">
        <ele>152</ele>
        <time>2024-09-07T09:14:15Z</time>
      </trkpt>
      <trkpt lat="48.04288" lon="-3.67075">
        <ele>152</ele>
        <time>2024-09-07T09:14:16Z</time>
      </trkpt>
      <trkpt lat="48.04292" lon="-3.6707">
        <ele>151.8</ele>
        <time>2024-09-07T09:14:17Z</time>
      </trkpt>
      <trkpt lat="48.04296" lon="-3.67063">
        <ele>151.8</ele>
        <time>2024-09-07T09:14:18Z</time>
      </trkpt>
      <trkpt lat="48.043" lon="-3.67057">
        <ele>151.6</ele>
        <time>2024-09-07T09:14:19Z</time>
      </trkpt>
      <trkpt lat="48.04304" lon="-3.67051">
        <ele>151.6</ele>
        <time>2024-09-07T09:14:20Z</time>
      </trkpt>
      <trkpt lat="48.04308" lon="-3.67045">
        <ele>151.4</ele>
        <time>2024-09-07T09:14:21Z</time>
      </trkpt>
      <trkpt lat="48.04313" lon="-3.67039">
        <ele>151.4</ele>
        <time>2024-09-07T09:14:22Z</time>
      </trkpt>
      <trkpt lat="48.04316" lon="-3.67034">
        <ele>151.4</ele>
        <time>2024-09-07T09:14:23Z</time>
      </trkpt>
      <trkpt lat="48.0432" lon="-3.67029">
        <ele>151.4</ele>
        <time>2024-09-07T09:14:24Z</time>
      </trkpt>
      <trkpt lat="48.04324" lon="-3.67023">
        <ele>151.4</ele>
        <time>2024-09-07T09:14:25Z</time>
      </trkpt>
      <trkpt lat="48.04329" lon="-3.67018">
        <ele>151.4</ele>
        <time>2024-09-07T09:14:26Z</time>
      </trkpt>
      <trkpt lat="48.04333" lon="-3.67012">
        <ele>151.4</ele>
        <time>2024-09-07T09:14:27Z</time>
      </trkpt>
      <trkpt lat="48.04337" lon="-3.67005">
        <ele>151.4</ele>
        <time>2024-09-07T09:14:28Z</time>
      </trkpt>
      <trkpt lat="48.04341" lon="-3.66998">
        <ele>151.4</ele>
        <time>2024-09-07T09:14:29Z</time>
      </trkpt>
      <trkpt lat="48.04345" lon="-3.66992">
        <ele>151.4</ele>
        <time>2024-09-07T09:14:30Z</time>
      </trkpt>
      <trkpt lat="48.0435" lon="-3.66985">
        <ele>151.4</ele>
        <time>2024-09-07T09:14:31Z</time>
      </trkpt>
      <trkpt lat="48.04354" lon="-3.66979">
        <ele>151.4</ele>
        <time>2024-09-07T09:14:32Z</time>
      </trkpt>
      <trkpt lat="48.04359" lon="-3.66972">
        <ele>151.4</ele>
        <time>2024-09-07T09:14:33Z</time>
      </trkpt>
      <trkpt lat="48.04363" lon="-3.66966">
        <ele>151.4</ele>
        <time>2024-09-07T09:14:34Z</time>
      </trkpt>
      <trkpt lat="48.04367" lon="-3.6696">
        <ele>151.4</ele>
        <time>2024-09-07T09:14:35Z</time>
      </trkpt>
      <trkpt lat="48.04371" lon="-3.66954">
        <ele>151.4</ele>
        <time>2024-09-07T09:14:36Z</time>
      </trkpt>
      <trkpt lat="48.04376" lon="-3.66948">
        <ele>151.6</ele>
        <time>2024-09-07T09:14:37Z</time>
      </trkpt>
      <trkpt lat="48.0438" lon="-3.66942">
        <ele>151.6</ele>
        <time>2024-09-07T09:14:38Z</time>
      </trkpt>
      <trkpt lat="48.04385" lon="-3.66936">
        <ele>151.6</ele>
        <time>2024-09-07T09:14:39Z</time>
      </trkpt>
      <trkpt lat="48.04389" lon="-3.6693">
        <ele>151.6</ele>
        <time>2024-09-07T09:14:40Z</time>
      </trkpt>
      <trkpt lat="48.04394" lon="-3.66924">
        <ele>151.6</ele>
        <time>2024-09-07T09:14:41Z</time>
      </trkpt>
      <trkpt lat="48.04398" lon="-3.66918">
        <ele>151.8</ele>
        <time>2024-09-07T09:14:42Z</time>
      </trkpt>
      <trkpt lat="48.04402" lon="-3.66912">
        <ele>151.8</ele>
        <time>2024-09-07T09:14:43Z</time>
      </trkpt>
      <trkpt lat="48.04407" lon="-3.66905">
        <ele>151.8</ele>
        <time>2024-09-07T09:14:44Z</time>
      </trkpt>
      <trkpt lat="48.04411" lon="-3.66899">
        <ele>151.8</ele>
        <time>2024-09-07T09:14:45Z</time>
      </trkpt>
      <trkpt lat="48.04416" lon="-3.66892">
        <ele>151.8</ele>
        <time>2024-09-07T09:14:46Z</time>
      </trkpt>
      <trkpt lat="48.0442" lon="-3.66886">
        <ele>151.8</ele>
        <time>2024-09-07T09:14:47Z</time>
      </trkpt>
      <trkpt lat="48.04424" lon="-3.66879">
        <ele>151.8</ele>
        <time>2024-09-07T09:14:48Z</time>
      </trkpt>
      <trkpt lat="48.04429" lon="-3.66873">
        <ele>151.8</ele>
        <time>2024-09-07T09:14:49Z</time>
      </trkpt>
      <trkpt lat="48.04433" lon="-3.66867">
        <ele>151.8</ele>
        <time>2024-09-07T09:14:50Z</time>
      </trkpt>
      <trkpt lat="48.04437" lon="-3.66861">
        <ele>151.8</ele>
        <time>2024-09-07T09:14:51Z</time>
      </trkpt>
      <trkpt lat="48.04441" lon="-3.66855">
        <ele>151.8</ele>
        <time>2024-09-07T09:14:52Z</time>
      </trkpt>
      <trkpt lat="48.04446" lon="-3.66849">
        <ele>151.8</ele>
        <time>2024-09-07T09:14:53Z</time>
      </trkpt>
      <trkpt lat="48.0445" lon="-3.66843">
        <ele>151.8</ele>
        <time>2024-09-07T09:14:54Z</time>
      </trkpt>
      <trkpt lat="48.04454" lon="-3.66837">
        <ele>151.8</ele>
        <time>2024-09-07T09:14:55Z</time>
      </trkpt>
      <trkpt lat="48.04458" lon="-3.66831">
        <ele>151.8</ele>
        <time>2024-09-07T09:14:56Z</time>
      </trkpt>
      <trkpt lat="48.04462" lon="-3.66824">
        <ele>152</ele>
        <time>2024-09-07T09:14:57Z</time>
      </trkpt>
      <trkpt lat="48.04467" lon="-3.66818">
        <ele>152</ele>
        <time>2024-09-07T09:14:58Z</time>
      </trkpt>
      <trkpt lat="48.04471" lon="-3.66812">
        <ele>152</ele>
        <time>2024-09-07T09:14:59Z</time>
      </trkpt>
      <trkpt lat="48.04475" lon="-3.66806">
        <ele>152</ele>
        <time>2024-09-07T09:15:00Z</time>
      </trkpt>
      <trkpt lat="48.04479" lon="-3.66799">
        <ele>152.2</ele>
        <time>2024-09-07T09:15:01Z</time>
      </trkpt>
      <trkpt lat="48.04484" lon="-3.66793">
        <ele>152.2</ele>
        <time>2024-09-07T09:15:02Z</time>
      </trkpt>
      <trkpt lat="48.04488" lon="-3.66786">
        <ele>152.2</ele>
        <time>2024-09-07T09:15:03Z</time>
      </trkpt>
      <trkpt lat="48.04492" lon="-3.6678">
        <ele>152.2</ele>
        <time>2024-09-07T09:15:04Z</time>
      </trkpt>
      <trkpt lat="48.04496" lon="-3.66773">
        <ele>152.2</ele>
        <time>2024-09-07T09:15:05Z</time>
      </trkpt>
      <trkpt lat="48.04501" lon="-3.66768">
        <ele>152.2</ele>
        <time>2024-09-07T09:15:06Z</time>
      </trkpt>
      <trkpt lat="48.04505" lon="-3.66761">
        <ele>152.2</ele>
        <time>2024-09-07T09:15:07Z</time>
      </trkpt>
      <trkpt lat="48.04509" lon="-3.66755">
        <ele>152.2</ele>
        <time>2024-09-07T09:15:08Z</time>
      </trkpt>
      <trkpt lat="48.04513" lon="-3.66749">
        <ele>152.2</ele>
        <time>2024-09-07T09:15:09Z</time>
      </trkpt>
      <trkpt lat="48.04517" lon="-3.66743">
        <ele>152.4</ele>
        <time>2024-09-07T09:15:10Z</time>
      </trkpt>
      <trkpt lat="48.04522" lon="-3.66737">
        <ele>152.4</ele>
        <time>2024-09-07T09:15:11Z</time>
      </trkpt>
      <trkpt lat="48.04525" lon="-3.66731">
        <ele>152.4</ele>
        <time>2024-09-07T09:15:12Z</time>
      </trkpt>
      <trkpt lat="48.04529" lon="-3.66725">
        <ele>152.6</ele>
        <time>2024-09-07T09:15:13Z</time>
      </trkpt>
      <trkpt lat="48.04534" lon="-3.66719">
        <ele>152.6</ele>
        <time>2024-09-07T09:15:14Z</time>
      </trkpt>
      <trkpt lat="48.04537" lon="-3.66713">
        <ele>152.6</ele>
        <time>2024-09-07T09:15:15Z</time>
      </trkpt>
      <trkpt lat="48.04542" lon="-3.66707">
        <ele>152.6</ele>
        <time>2024-09-07T09:15:16Z</time>
      </trkpt>
      <trkpt lat="48.04546" lon="-3.667">
        <ele>152.6</ele>
        <time>2024-09-07T09:15:17Z</time>
      </trkpt>
      <trkpt lat="48.0455" lon="-3.66694">
        <ele>152.6</ele>
        <time>2024-09-07T09:15:18Z</time>
      </trkpt>
      <trkpt lat="48.04555" lon="-3.66688">
        <ele>152.6</ele>
        <time>2024-09-07T09:15:19Z</time>
      </trkpt>
      <trkpt lat="48.04559" lon="-3.66683">
        <ele>152.8</ele>
        <time>2024-09-07T09:15:20Z</time>
      </trkpt>
      <trkpt lat="48.04563" lon="-3.66676">
        <ele>152.8</ele>
        <time>2024-09-07T09:15:21Z</time>
      </trkpt>
      <trkpt lat="48.04567" lon="-3.6667">
        <ele>152.8</ele>
        <time>2024-09-07T09:15:22Z</time>
      </trkpt>
      <trkpt lat="48.04571" lon="-3.66663">
        <ele>152.8</ele>
        <time>2024-09-07T09:15:23Z</time>
      </trkpt>
      <trkpt lat="48.04574" lon="-3.66657">
        <ele>152.8</ele>
        <time>2024-09-07T09:15:24Z</time>
      </trkpt>
      <trkpt lat="48.04578" lon="-3.66652">
        <ele>153</ele>
        <time>2024-09-07T09:15:25Z</time>
      </trkpt>
      <trkpt lat="48.04582" lon="-3.66646">
        <ele>153</ele>
        <time>2024-09-07T09:15:26Z</time>
      </trkpt>
      <trkpt lat="48.04587" lon="-3.66641">
        <ele>153</ele>
        <time>2024-09-07T09:15:27Z</time>
      </trkpt>
      <trkpt lat="48.04591" lon="-3.66635">
        <ele>153</ele>
        <time>2024-09-07T09:15:28Z</time>
      </trkpt>
      <trkpt lat="48.04595" lon="-3.6663">
        <ele>153</ele>
        <time>2024-09-07T09:15:29Z</time>
      </trkpt>
      <trkpt lat="48.04599" lon="-3.66624">
        <ele>153</ele>
        <time>2024-09-07T09:15:30Z</time>
      </trkpt>
      <trkpt lat="48.04604" lon="-3.66618">
        <ele>153</ele>
        <time>2024-09-07T09:15:31Z</time>
      </trkpt>
      <trkpt lat="48.04608" lon="-3.66612">
        <ele>153.2</ele>
        <time>2024-09-07T09:15:32Z</time>
      </trkpt>
      <trkpt lat="48.04611" lon="-3.66607">
        <ele>153.2</ele>
        <time>2024-09-07T09:15:33Z</time>
      </trkpt>
      <trkpt lat="48.04615" lon="-3.66602">
        <ele>153.2</ele>
        <time>2024-09-07T09:15:34Z</time>
      </trkpt>
      <trkpt lat="48.04618" lon="-3.66596">
        <ele>153.2</ele>
        <time>2024-09-07T09:15:35Z</time>
      </trkpt>
      <trkpt lat="48.04622" lon="-3.66591">
        <ele>153.4</ele>
        <time>2024-09-07T09:15:36Z</time>
      </trkpt>
      <trkpt lat="48.04625" lon="-3.66586">
        <ele>153.4</ele>
        <time>2024-09-07T09:15:37Z</time>
      </trkpt>
      <trkpt lat="48.04629" lon="-3.6658">
        <ele>153.4</ele>
        <time>2024-09-07T09:15:38Z</time>
      </trkpt>
      <trkpt lat="48.04632" lon="-3.66575">
        <ele>153.4</ele>
        <time>2024-09-07T09:15:39Z</time>
      </trkpt>
      <trkpt lat="48.04636" lon="-3.6657">
        <ele>153.6</ele>
        <time>2024-09-07T09:15:40Z</time>
      </trkpt>
      <trkpt lat="48.0464" lon="-3.66565">
        <ele>153.6</ele>
        <time>2024-09-07T09:15:41Z</time>
      </trkpt>
      <trkpt lat="48.04643" lon="-3.66559">
        <ele>153.6</ele>
        <time>2024-09-07T09:15:42Z</time>
      </trkpt>
      <trkpt lat="48.04647" lon="-3.66554">
        <ele>153.8</ele>
        <time>2024-09-07T09:15:43Z</time>
      </trkpt>
      <trkpt lat="48.04651" lon="-3.66548">
        <ele>153.8</ele>
        <time>2024-09-07T09:15:44Z</time>
      </trkpt>
      <trkpt lat="48.04654" lon="-3.66543">
        <ele>153.8</ele>
        <time>2024-09-07T09:15:45Z</time>
      </trkpt>
      <trkpt lat="48.04657" lon="-3.66538">
        <ele>154</ele>
        <time>2024-09-07T09:15:46Z</time>
      </trkpt>
      <trkpt lat="48.04661" lon="-3.66533">
        <ele>154</ele>
        <time>2024-09-07T09:15:47Z</time>
      </trkpt>
      <trkpt lat="48.04665" lon="-3.66527">
        <ele>154</ele>
        <time>2024-09-07T09:15:48Z</time>
      </trkpt>
      <trkpt lat="48.04669" lon="-3.66521">
        <ele>154</ele>
        <time>2024-09-07T09:15:49Z</time>
      </trkpt>
      <trkpt lat="48.04673" lon="-3.66516">
        <ele>154.2</ele>
        <time>2024-09-07T09:15:50Z</time>
      </trkpt>
      <trkpt lat="48.04677" lon="-3.6651">
        <ele>154.2</ele>
        <time>2024-09-07T09:15:51Z</time>
      </trkpt>
      <trkpt lat="48.04681" lon="-3.66504">
        <ele>154.2</ele>
        <time>2024-09-07T09:15:52Z</time>
      </trkpt>
      <trkpt lat="48.04684" lon="-3.66499">
        <ele>154.4</ele>
        <time>2024-09-07T09:15:53Z</time>
      </trkpt>
      <trkpt lat="48.04688" lon="-3.66494">
        <ele>154.4</ele>
        <time>2024-09-07T09:15:54Z</time>
      </trkpt>
      <trkpt lat="48.04691" lon="-3.66488">
        <ele>154.6</ele>
        <time>2024-09-07T09:15:55Z</time>
      </trkpt>
      <trkpt lat="48.04695" lon="-3.66483">
        <ele>154.8</ele>
        <time>2024-09-07T09:15:56Z</time>
      </trkpt>
      <trkpt lat="48.04699" lon="-3.66477">
        <ele>154.8</ele>
        <time>2024-09-07T09:15:57Z</time>
      </trkpt>
      <trkpt lat="48.04703" lon="-3.66472">
        <ele>154.8</ele>
        <time>2024-09-07T09:15:58Z</time>
      </trkpt>
      <trkpt lat="48.04707" lon="-3.66466">
        <ele>155</ele>
        <time>2024-09-07T09:15:59Z</time>
      </trkpt>
      <trkpt lat="48.04711" lon="-3.66461">
        <ele>155</ele>
        <time>2024-09-07T09:16:00Z</time>
      </trkpt>
      <trkpt lat="48.04715" lon="-3.66455">
        <ele>155.2</ele>
        <time>2024-09-07T09:16:01Z</time>
      </trkpt>
      <trkpt lat="48.04718" lon="-3.66449">
        <ele>155.4</ele>
        <time>2024-09-07T09:16:02Z</time>
      </trkpt>
      <trkpt lat="48.04722" lon="-3.66444">
        <ele>155.4</ele>
        <time>2024-09-07T09:16:03Z</time>
      </trkpt>
      <trkpt lat="48.04726" lon="-3.66439">
        <ele>155.6</ele>
        <time>2024-09-07T09:16:04Z</time>
      </trkpt>
      <trkpt lat="48.0473" lon="-3.66433">
        <ele>155.6</ele>
        <time>2024-09-07T09:16:05Z</time>
      </trkpt>
      <trkpt lat="48.04734" lon="-3.66428">
        <ele>155.8</ele>
        <time>2024-09-07T09:16:06Z</time>
      </trkpt>
      <trkpt lat="48.04737" lon="-3.66423">
        <ele>155.8</ele>
        <time>2024-09-07T09:16:07Z</time>
      </trkpt>
      <trkpt lat="48.04741" lon="-3.66417">
        <ele>155.8</ele>
        <time>2024-09-07T09:16:08Z</time>
      </trkpt>
      <trkpt lat="48.04745" lon="-3.66412">
        <ele>156</ele>
        <time>2024-09-07T09:16:09Z</time>
      </trkpt>
      <trkpt lat="48.04749" lon="-3.66407">
        <ele>156.2</ele>
        <time>2024-09-07T09:16:10Z</time>
      </trkpt>
      <trkpt lat="48.04753" lon="-3.66401">
        <ele>156.2</ele>
        <time>2024-09-07T09:16:11Z</time>
      </trkpt>
      <trkpt lat="48.04757" lon="-3.66396">
        <ele>156.4</ele>
        <time>2024-09-07T09:16:12Z</time>
      </trkpt>
      <trkpt lat="48.0476" lon="-3.66391">
        <ele>156.4</ele>
        <time>2024-09-07T09:16:13Z</time>
      </trkpt>
      <trkpt lat="48.04764" lon="-3.66385">
        <ele>156.4</ele>
        <time>2024-09-07T09:16:14Z</time>
      </trkpt>
      <trkpt lat="48.04767" lon="-3.66379">
        <ele>156.6</ele>
        <time>2024-09-07T09:16:15Z</time>
      </trkpt>
      <trkpt lat="48.04772" lon="-3.66374">
        <ele>156.6</ele>
        <time>2024-09-07T09:16:16Z</time>
      </trkpt>
      <trkpt lat="48.04776" lon="-3.66368">
        <ele>156.8</ele>
        <time>2024-09-07T09:16:17Z</time>
      </trkpt>
      <trkpt lat="48.0478" lon="-3.66363">
        <ele>156.8</ele>
        <time>2024-09-07T09:16:18Z</time>
      </trkpt>
      <trkpt lat="48.04784" lon="-3.66358">
        <ele>157</ele>
        <time>2024-09-07T09:16:19Z</time>
      </trkpt>
      <trkpt lat="48.04788" lon="-3.66352">
        <ele>157.2</ele>
        <time>2024-09-07T09:16:20Z</time>
      </trkpt>
      <trkpt lat="48.04792" lon="-3.66347">
        <ele>157.2</ele>
        <time>2024-09-07T09:16:21Z</time>
      </trkpt>
      <trkpt lat="48.04796" lon="-3.66341">
        <ele>157.6</ele>
        <time>2024-09-07T09:16:22Z</time>
      </trkpt>
      <trkpt lat="48.048" lon="-3.66336">
        <ele>157.8</ele>
        <time>2024-09-07T09:16:23Z</time>
      </trkpt>
      <trkpt lat="48.04804" lon="-3.6633">
        <ele>157.8</ele>
        <time>2024-09-07T09:16:24Z</time>
      </trkpt>
      <trkpt lat="48.04808" lon="-3.66325">
        <ele>157.8</ele>
        <time>2024-09-07T09:16:25Z</time>
      </trkpt>
      <trkpt lat="48.04812" lon="-3.66319">
        <ele>158</ele>
        <time>2024-09-07T09:16:26Z</time>
      </trkpt>
      <trkpt lat="48.04815" lon="-3.66314">
        <ele>158</ele>
        <time>2024-09-07T09:16:27Z</time>
      </trkpt>
      <trkpt lat="48.04819" lon="-3.66308">
        <ele>158.2</ele>
        <time>2024-09-07T09:16:28Z</time>
      </trkpt>
      <trkpt lat="48.04822" lon="-3.66303">
        <ele>158.2</ele>
        <time>2024-09-07T09:16:29Z</time>
      </trkpt>
      <trkpt lat="48.04826" lon="-3.66297">
        <ele>158.2</ele>
        <time>2024-09-07T09:16:30Z</time>
      </trkpt>
      <trkpt lat="48.0483" lon="-3.66291">
        <ele>158.4</ele>
        <time>2024-09-07T09:16:31Z</time>
      </trkpt>
      <trkpt lat="48.04834" lon="-3.66286">
        <ele>158.6</ele>
        <time>2024-09-07T09:16:32Z</time>
      </trkpt>
      <trkpt lat="48.04838" lon="-3.6628">
        <ele>158.6</ele>
        <time>2024-09-07T09:16:33Z</time>
      </trkpt>
      <trkpt lat="48.04842" lon="-3.66275">
        <ele>158.6</ele>
        <time>2024-09-07T09:16:34Z</time>
      </trkpt>
      <trkpt lat="48.04846" lon="-3.66269">
        <ele>158.6</ele>
        <time>2024-09-07T09:16:35Z</time>
      </trkpt>
      <trkpt lat="48.0485" lon="-3.66263">
        <ele>158.6</ele>
        <time>2024-09-07T09:16:36Z</time>
      </trkpt>
      <trkpt lat="48.04854" lon="-3.66257">
        <ele>158.8</ele>
        <time>2024-09-07T09:16:37Z</time>
      </trkpt>
      <trkpt lat="48.04858" lon="-3.66251">
        <ele>158.8</ele>
        <time>2024-09-07T09:16:38Z</time>
      </trkpt>
      <trkpt lat="48.04862" lon="-3.66245">
        <ele>158.8</ele>
        <time>2024-09-07T09:16:39Z</time>
      </trkpt>
      <trkpt lat="48.04866" lon="-3.66239">
        <ele>158.8</ele>
        <time>2024-09-07T09:16:40Z</time>
      </trkpt>
      <trkpt lat="48.0487" lon="-3.66233">
        <ele>158.8</ele>
        <time>2024-09-07T09:16:41Z</time>
      </trkpt>
      <trkpt lat="48.04875" lon="-3.66228">
        <ele>158.8</ele>
        <time>2024-09-07T09:16:42Z</time>
      </trkpt>
      <trkpt lat="48.04879" lon="-3.66222">
        <ele>158.8</ele>
        <time>2024-09-07T09:16:43Z</time>
      </trkpt>
      <trkpt lat="48.04884" lon="-3.66216">
        <ele>158.8</ele>
        <time>2024-09-07T09:16:44Z</time>
      </trkpt>
      <trkpt lat="48.04888" lon="-3.6621">
        <ele>158.8</ele>
        <time>2024-09-07T09:16:45Z</time>
      </trkpt>
      <trkpt lat="48.04892" lon="-3.66204">
        <ele>158.8</ele>
        <time>2024-09-07T09:16:46Z</time>
      </trkpt>
      <trkpt lat="48.04896" lon="-3.66198">
        <ele>158.8</ele>
        <time>2024-09-07T09:16:47Z</time>
      </trkpt>
      <trkpt lat="48.049" lon="-3.66192">
        <ele>158.8</ele>
        <time>2024-09-07T09:16:48Z</time>
      </trkpt>
      <trkpt lat="48.04904" lon="-3.66186">
        <ele>158.8</ele>
        <time>2024-09-07T09:16:49Z</time>
      </trkpt>
      <trkpt lat="48.04908" lon="-3.6618">
        <ele>158.8</ele>
        <time>2024-09-07T09:16:50Z</time>
      </trkpt>
      <trkpt lat="48.04912" lon="-3.66175">
        <ele>158.8</ele>
        <time>2024-09-07T09:16:51Z</time>
      </trkpt>
      <trkpt lat="48.04916" lon="-3.66169">
        <ele>158.8</ele>
        <time>2024-09-07T09:16:52Z</time>
      </trkpt>
      <trkpt lat="48.0492" lon="-3.66163">
        <ele>158.8</ele>
        <time>2024-09-07T09:16:53Z</time>
      </trkpt>
      <trkpt lat="48.04924" lon="-3.66157">
        <ele>158.8</ele>
        <time>2024-09-07T09:16:54Z</time>
      </trkpt>
      <trkpt lat="48.04929" lon="-3.66151">
        <ele>158.8</ele>
        <time>2024-09-07T09:16:55Z</time>
      </trkpt>
      <trkpt lat="48.04932" lon="-3.66145">
        <ele>158.8</ele>
        <time>2024-09-07T09:16:56Z</time>
      </trkpt>
      <trkpt lat="48.04936" lon="-3.66139">
        <ele>158.8</ele>
        <time>2024-09-07T09:16:57Z</time>
      </trkpt>
      <trkpt lat="48.0494" lon="-3.66134">
        <ele>158.8</ele>
        <time>2024-09-07T09:16:58Z</time>
      </trkpt>
      <trkpt lat="48.04944" lon="-3.66128">
        <ele>159</ele>
        <time>2024-09-07T09:16:59Z</time>
      </trkpt>
      <trkpt lat="48.04948" lon="-3.66122">
        <ele>159</ele>
        <time>2024-09-07T09:17:00Z</time>
      </trkpt>
      <trkpt lat="48.04952" lon="-3.66116">
        <ele>159</ele>
        <time>2024-09-07T09:17:01Z</time>
      </trkpt>
      <trkpt lat="48.04956" lon="-3.6611">
        <ele>159</ele>
        <time>2024-09-07T09:17:02Z</time>
      </trkpt>
      <trkpt lat="48.0496" lon="-3.66104">
        <ele>159</ele>
        <time>2024-09-07T09:17:03Z</time>
      </trkpt>
      <trkpt lat="48.04964" lon="-3.66098">
        <ele>159.2</ele>
        <time>2024-09-07T09:17:04Z</time>
      </trkpt>
      <trkpt lat="48.04968" lon="-3.66092">
        <ele>159.2</ele>
        <time>2024-09-07T09:17:05Z</time>
      </trkpt>
      <trkpt lat="48.04972" lon="-3.66086">
        <ele>159.4</ele>
        <time>2024-09-07T09:17:06Z</time>
      </trkpt>
      <trkpt lat="48.04976" lon="-3.6608">
        <ele>159.4</ele>
        <time>2024-09-07T09:17:07Z</time>
      </trkpt>
      <trkpt lat="48.0498" lon="-3.66075">
        <ele>159.6</ele>
        <time>2024-09-07T09:17:08Z</time>
      </trkpt>
      <trkpt lat="48.04984" lon="-3.66068">
        <ele>159.6</ele>
        <time>2024-09-07T09:17:09Z</time>
      </trkpt>
      <trkpt lat="48.04988" lon="-3.66063">
        <ele>159.6</ele>
        <time>2024-09-07T09:17:10Z</time>
      </trkpt>
      <trkpt lat="48.04992" lon="-3.66056">
        <ele>159.6</ele>
        <time>2024-09-07T09:17:11Z</time>
      </trkpt>
      <trkpt lat="48.04996" lon="-3.6605">
        <ele>159.8</ele>
        <time>2024-09-07T09:17:12Z</time>
      </trkpt>
      <trkpt lat="48.05" lon="-3.66044">
        <ele>159.8</ele>
        <time>2024-09-07T09:17:13Z</time>
      </trkpt>
      <trkpt lat="48.05005" lon="-3.66038">
        <ele>160</ele>
        <time>2024-09-07T09:17:14Z</time>
      </trkpt>
      <trkpt lat="48.05009" lon="-3.66032">
        <ele>160</ele>
        <time>2024-09-07T09:17:15Z</time>
      </trkpt>
      <trkpt lat="48.05013" lon="-3.66026">
        <ele>160</ele>
        <time>2024-09-07T09:17:16Z</time>
      </trkpt>
      <trkpt lat="48.05018" lon="-3.6602">
        <ele>160</ele>
        <time>2024-09-07T09:17:17Z</time>
      </trkpt>
      <trkpt lat="48.05022" lon="-3.66014">
        <ele>160</ele>
        <time>2024-09-07T09:17:18Z</time>
      </trkpt>
      <trkpt lat="48.05026" lon="-3.66008">
        <ele>160</ele>
        <time>2024-09-07T09:17:19Z</time>
      </trkpt>
      <trkpt lat="48.0503" lon="-3.66002">
        <ele>160</ele>
        <time>2024-09-07T09:17:20Z</time>
      </trkpt>
      <trkpt lat="48.05035" lon="-3.65995">
        <ele>160.2</ele>
        <time>2024-09-07T09:17:21Z</time>
      </trkpt>
      <trkpt lat="48.05039" lon="-3.65989">
        <ele>160.2</ele>
        <time>2024-09-07T09:17:22Z</time>
      </trkpt>
      <trkpt lat="48.05043" lon="-3.65984">
        <ele>160.2</ele>
        <time>2024-09-07T09:17:23Z</time>
      </trkpt>
      <trkpt lat="48.05047" lon="-3.65978">
        <ele>160.2</ele>
        <time>2024-09-07T09:17:24Z</time>
      </trkpt>
      <trkpt lat="48.05051" lon="-3.65972">
        <ele>160.2</ele>
        <time>2024-09-07T09:17:25Z</time>
      </trkpt>
      <trkpt lat="48.05055" lon="-3.65966">
        <ele>160.4</ele>
        <time>2024-09-07T09:17:26Z</time>
      </trkpt>
      <trkpt lat="48.05059" lon="-3.6596">
        <ele>160.4</ele>
        <time>2024-09-07T09:17:27Z</time>
      </trkpt>
      <trkpt lat="48.05063" lon="-3.65954">
        <ele>160.4</ele>
        <time>2024-09-07T09:17:28Z</time>
      </trkpt>
      <trkpt lat="48.05067" lon="-3.65949">
        <ele>160.4</ele>
        <time>2024-09-07T09:17:29Z</time>
      </trkpt>
      <trkpt lat="48.05071" lon="-3.65943">
        <ele>160.4</ele>
        <time>2024-09-07T09:17:30Z</time>
      </trkpt>
      <trkpt lat="48.05075" lon="-3.65937">
        <ele>160.4</ele>
        <time>2024-09-07T09:17:31Z</time>
      </trkpt>
      <trkpt lat="48.05079" lon="-3.65931">
        <ele>160.4</ele>
        <time>2024-09-07T09:17:32Z</time>
      </trkpt>
      <trkpt lat="48.05083" lon="-3.65926">
        <ele>160.4</ele>
        <time>2024-09-07T09:17:33Z</time>
      </trkpt>
      <trkpt lat="48.05087" lon="-3.65919">
        <ele>160.4</ele>
        <time>2024-09-07T09:17:34Z</time>
      </trkpt>
      <trkpt lat="48.05091" lon="-3.65914">
        <ele>160.4</ele>
        <time>2024-09-07T09:17:35Z</time>
      </trkpt>
      <trkpt lat="48.05095" lon="-3.65907">
        <ele>160.4</ele>
        <time>2024-09-07T09:17:36Z</time>
      </trkpt>
      <trkpt lat="48.05099" lon="-3.65902">
        <ele>160.6</ele>
        <time>2024-09-07T09:17:37Z</time>
      </trkpt>
      <trkpt lat="48.05103" lon="-3.65896">
        <ele>160.6</ele>
        <time>2024-09-07T09:17:38Z</time>
      </trkpt>
      <trkpt lat="48.05107" lon="-3.6589">
        <ele>160.6</ele>
        <time>2024-09-07T09:17:39Z</time>
      </trkpt>
      <trkpt lat="48.0511" lon="-3.65885">
        <ele>160.6</ele>
        <time>2024-09-07T09:17:40Z</time>
      </trkpt>
      <trkpt lat="48.05114" lon="-3.65879">
        <ele>160.6</ele>
        <time>2024-09-07T09:17:41Z</time>
      </trkpt>
      <trkpt lat="48.05117" lon="-3.65874">
        <ele>160.6</ele>
        <time>2024-09-07T09:17:42Z</time>
      </trkpt>
      <trkpt lat="48.05121" lon="-3.65869">
        <ele>160.8</ele>
        <time>2024-09-07T09:17:43Z</time>
      </trkpt>
      <trkpt lat="48.05124" lon="-3.65864">
        <ele>160.8</ele>
        <time>2024-09-07T09:17:44Z</time>
      </trkpt>
      <trkpt lat="48.05127" lon="-3.65859">
        <ele>161</ele>
        <time>2024-09-07T09:17:45Z</time>
      </trkpt>
      <trkpt lat="48.05131" lon="-3.65854">
        <ele>161</ele>
        <time>2024-09-07T09:17:46Z</time>
      </trkpt>
      <trkpt lat="48.05134" lon="-3.65849">
        <ele>161</ele>
        <time>2024-09-07T09:17:47Z</time>
      </trkpt>
      <trkpt lat="48.05138" lon="-3.65844">
        <ele>161</ele>
        <time>2024-09-07T09:17:48Z</time>
      </trkpt>
      <trkpt lat="48.05141" lon="-3.65839">
        <ele>161</ele>
        <time>2024-09-07T09:17:49Z</time>
      </trkpt>
      <trkpt lat="48.05145" lon="-3.65834">
        <ele>161</ele>
        <time>2024-09-07T09:17:50Z</time>
      </trkpt>
      <trkpt lat="48.05148" lon="-3.65829">
        <ele>161</ele>
        <time>2024-09-07T09:17:51Z</time>
      </trkpt>
      <trkpt lat="48.05152" lon="-3.65824">
        <ele>161.2</ele>
        <time>2024-09-07T09:17:52Z</time>
      </trkpt>
      <trkpt lat="48.05155" lon="-3.65819">
        <ele>161.2</ele>
        <time>2024-09-07T09:17:53Z</time>
      </trkpt>
      <trkpt lat="48.05158" lon="-3.65814">
        <ele>161.4</ele>
        <time>2024-09-07T09:17:54Z</time>
      </trkpt>
      <trkpt lat="48.05162" lon="-3.6581">
        <ele>161.4</ele>
        <time>2024-09-07T09:17:55Z</time>
      </trkpt>
      <trkpt lat="48.05165" lon="-3.65805">
        <ele>161.6</ele>
        <time>2024-09-07T09:17:56Z</time>
      </trkpt>
      <trkpt lat="48.05168" lon="-3.658">
        <ele>161.6</ele>
        <time>2024-09-07T09:17:57Z</time>
      </trkpt>
      <trkpt lat="48.05172" lon="-3.65795">
        <ele>161.6</ele>
        <time>2024-09-07T09:17:58Z</time>
      </trkpt>
      <trkpt lat="48.05176" lon="-3.6579">
        <ele>161.8</ele>
        <time>2024-09-07T09:17:59Z</time>
      </trkpt>
      <trkpt lat="48.05179" lon="-3.65785">
        <ele>162</ele>
        <time>2024-09-07T09:18:00Z</time>
      </trkpt>
      <trkpt lat="48.05183" lon="-3.6578">
        <ele>162.2</ele>
        <time>2024-09-07T09:18:01Z</time>
      </trkpt>
      <trkpt lat="48.05187" lon="-3.65775">
        <ele>162.4</ele>
        <time>2024-09-07T09:18:02Z</time>
      </trkpt>
      <trkpt lat="48.05191" lon="-3.6577">
        <ele>162.4</ele>
        <time>2024-09-07T09:18:03Z</time>
      </trkpt>
      <trkpt lat="48.05194" lon="-3.65766">
        <ele>162.4</ele>
        <time>2024-09-07T09:18:04Z</time>
      </trkpt>
      <trkpt lat="48.05197" lon="-3.65761">
        <ele>162.8</ele>
        <time>2024-09-07T09:18:05Z</time>
      </trkpt>
      <trkpt lat="48.052" lon="-3.65756">
        <ele>162.8</ele>
        <time>2024-09-07T09:18:06Z</time>
      </trkpt>
      <trkpt lat="48.05204" lon="-3.65751">
        <ele>163</ele>
        <time>2024-09-07T09:18:07Z</time>
      </trkpt>
      <trkpt lat="48.05207" lon="-3.65746">
        <ele>163.2</ele>
        <time>2024-09-07T09:18:08Z</time>
      </trkpt>
      <trkpt lat="48.05211" lon="-3.65741">
        <ele>163.2</ele>
        <time>2024-09-07T09:18:09Z</time>
      </trkpt>
      <trkpt lat="48.05215" lon="-3.65734">
        <ele>163.4</ele>
        <time>2024-09-07T09:18:10Z</time>
      </trkpt>
      <trkpt lat="48.05219" lon="-3.65728">
        <ele>163.4</ele>
        <time>2024-09-07T09:18:11Z</time>
      </trkpt>
      <trkpt lat="48.05224" lon="-3.65721">
        <ele>163.4</ele>
        <time>2024-09-07T09:18:12Z</time>
      </trkpt>
      <trkpt lat="48.0523" lon="-3.65713">
        <ele>163.6</ele>
        <time>2024-09-07T09:18:13Z</time>
      </trkpt>
      <trkpt lat="48.05235" lon="-3.65708">
        <ele>163.8</ele>
        <time>2024-09-07T09:18:14Z</time>
      </trkpt>
      <trkpt lat="48.05238" lon="-3.65702">
        <ele>164</ele>
        <time>2024-09-07T09:18:15Z</time>
      </trkpt>
      <trkpt lat="48.05241" lon="-3.65698">
        <ele>164.2</ele>
        <time>2024-09-07T09:18:16Z</time>
      </trkpt>
      <trkpt lat="48.05245" lon="-3.65694">
        <ele>164.4</ele>
        <time>2024-09-07T09:18:17Z</time>
      </trkpt>
      <trkpt lat="48.05249" lon="-3.65689">
        <ele>164.4</ele>
        <time>2024-09-07T09:18:18Z</time>
      </trkpt>
      <trkpt lat="48.05253" lon="-3.65684">
        <ele>164.6</ele>
        <time>2024-09-07T09:18:19Z</time>
      </trkpt>
      <trkpt lat="48.05256" lon="-3.65679">
        <ele>164.6</ele>
        <time>2024-09-07T09:18:20Z</time>
      </trkpt>
      <trkpt lat="48.0526" lon="-3.65674">
        <ele>164.6</ele>
        <time>2024-09-07T09:18:21Z</time>
      </trkpt>
      <trkpt lat="48.05262" lon="-3.6567">
        <ele>164.8</ele>
        <time>2024-09-07T09:18:22Z</time>
      </trkpt>
      <trkpt lat="48.05264" lon="-3.65666">
        <ele>165.2</ele>
        <time>2024-09-07T09:18:23Z</time>
      </trkpt>
      <trkpt lat="48.05265" lon="-3.65663">
        <ele>165.2</ele>
        <time>2024-09-07T09:18:24Z</time>
      </trkpt>
      <trkpt lat="48.05266" lon="-3.65661">
        <ele>165.4</ele>
        <time>2024-09-07T09:18:25Z</time>
      </trkpt>
      <trkpt lat="48.05269" lon="-3.65659">
        <ele>165.6</ele>
        <time>2024-09-07T09:18:26Z</time>
      </trkpt>
      <trkpt lat="48.05272" lon="-3.65655">
        <ele>165.8</ele>
        <time>2024-09-07T09:18:27Z</time>
      </trkpt>
      <trkpt lat="48.05276" lon="-3.6565">
        <ele>165.8</ele>
        <time>2024-09-07T09:18:28Z</time>
      </trkpt>
      <trkpt lat="48.05279" lon="-3.65647">
        <ele>166</ele>
        <time>2024-09-07T09:18:29Z</time>
      </trkpt>
      <trkpt lat="48.05281" lon="-3.65642">
        <ele>166.2</ele>
        <time>2024-09-07T09:18:30Z</time>
      </trkpt>
      <trkpt lat="48.05281" lon="-3.65641">
        <ele>166.4</ele>
        <time>2024-09-07T09:18:31Z</time>
      </trkpt>
      <trkpt lat="48.05281" lon="-3.6564">
        <ele>166.6</ele>
        <time>2024-09-07T09:18:32Z</time>
      </trkpt>
      <trkpt lat="48.05282" lon="-3.65638">
        <ele>166.8</ele>
        <time>2024-09-07T09:18:33Z</time>
      </trkpt>
      <trkpt lat="48.05283" lon="-3.65636">
        <ele>167</ele>
        <time>2024-09-07T09:18:34Z</time>
      </trkpt>
      <trkpt lat="48.05284" lon="-3.65635">
        <ele>167.2</ele>
        <time>2024-09-07T09:18:35Z</time>
      </trkpt>
      <trkpt lat="48.05284" lon="-3.65634">
        <ele>167.2</ele>
        <time>2024-09-07T09:18:36Z</time>
      </trkpt>
      <trkpt lat="48.05285" lon="-3.65632">
        <ele>167.2</ele>
        <time>2024-09-07T09:18:37Z</time>
      </trkpt>
      <trkpt lat="48.05286" lon="-3.6563">
        <ele>167.4</ele>
        <time>2024-09-07T09:18:38Z</time>
      </trkpt>
      <trkpt lat="48.05288" lon="-3.65629">
        <ele>167.4</ele>
        <time>2024-09-07T09:18:39Z</time>
      </trkpt>
      <trkpt lat="48.05289" lon="-3.65628">
        <ele>167.4</ele>
        <time>2024-09-07T09:18:40Z</time>
      </trkpt>
      <trkpt lat="48.05291" lon="-3.65627">
        <ele>167.6</ele>
        <time>2024-09-07T09:18:41Z</time>
      </trkpt>
      <trkpt lat="48.05293" lon="-3.65626">
        <ele>167.6</ele>
        <time>2024-09-07T09:18:42Z</time>
      </trkpt>
      <trkpt lat="48.05294" lon="-3.65625">
        <ele>167.6</ele>
        <time>2024-09-07T09:18:43Z</time>
      </trkpt>
      <trkpt lat="48.05295" lon="-3.65622">
        <ele>167.6</ele>
        <time>2024-09-07T09:18:44Z</time>
      </trkpt>
      <trkpt lat="48.05295" lon="-3.6562">
        <ele>167.6</ele>
        <time>2024-09-07T09:18:45Z</time>
      </trkpt>
      <trkpt lat="48.05295" lon="-3.65619">
        <ele>167.6</ele>
        <time>2024-09-07T09:18:46Z</time>
      </trkpt>
      <trkpt lat="48.05295" lon="-3.65619">
        <ele>167.6</ele>
        <time>2024-09-07T09:18:47Z</time>
      </trkpt>
      <trkpt lat="48.05299" lon="-3.65616">
        <ele>167.4</ele>
        <time>2024-09-07T09:19:36Z</time>
      </trkpt>
      <trkpt lat="48.05301" lon="-3.65614">
        <ele>167.4</ele>
        <time>2024-09-07T09:19:37Z</time>
      </trkpt>
      <trkpt lat="48.05302" lon="-3.65611">
        <ele>167.4</ele>
        <time>2024-09-07T09:19:38Z</time>
      </trkpt>
      <trkpt lat="48.05304" lon="-3.65608">
        <ele>167.4</ele>
        <time>2024-09-07T09:19:39Z</time>
      </trkpt>
      <trkpt lat="48.05305" lon="-3.65605">
        <ele>167.4</ele>
        <time>2024-09-07T09:19:40Z</time>
      </trkpt>
      <trkpt lat="48.05307" lon="-3.65601">
        <ele>167.4</ele>
        <time>2024-09-07T09:19:41Z</time>
      </trkpt>
      <trkpt lat="48.0531" lon="-3.65598">
        <ele>167.4</ele>
        <time>2024-09-07T09:19:42Z</time>
      </trkpt>
      <trkpt lat="48.05313" lon="-3.65593">
        <ele>167.4</ele>
        <time>2024-09-07T09:19:43Z</time>
      </trkpt>
      <trkpt lat="48.05316" lon="-3.65589">
        <ele>167.4</ele>
        <time>2024-09-07T09:19:44Z</time>
      </trkpt>
      <trkpt lat="48.0532" lon="-3.65584">
        <ele>167.4</ele>
        <time>2024-09-07T09:19:45Z</time>
      </trkpt>
      <trkpt lat="48.05323" lon="-3.65578">
        <ele>167.4</ele>
        <time>2024-09-07T09:19:46Z</time>
      </trkpt>
      <trkpt lat="48.05326" lon="-3.65573">
        <ele>167.4</ele>
        <time>2024-09-07T09:19:47Z</time>
      </trkpt>
      <trkpt lat="48.0533" lon="-3.65568">
        <ele>167.4</ele>
        <time>2024-09-07T09:19:48Z</time>
      </trkpt>
      <trkpt lat="48.05333" lon="-3.65563">
        <ele>167.4</ele>
        <time>2024-09-07T09:19:49Z</time>
      </trkpt>
      <trkpt lat="48.05337" lon="-3.65558">
        <ele>167.6</ele>
        <time>2024-09-07T09:19:50Z</time>
      </trkpt>
      <trkpt lat="48.05341" lon="-3.65553">
        <ele>167.6</ele>
        <time>2024-09-07T09:19:51Z</time>
      </trkpt>
      <trkpt lat="48.05344" lon="-3.65548">
        <ele>167.8</ele>
        <time>2024-09-07T09:19:52Z</time>
      </trkpt>
      <trkpt lat="48.05348" lon="-3.65543">
        <ele>167.8</ele>
        <time>2024-09-07T09:19:53Z</time>
      </trkpt>
      <trkpt lat="48.05351" lon="-3.65539">
        <ele>167.8</ele>
        <time>2024-09-07T09:19:54Z</time>
      </trkpt>
      <trkpt lat="48.05355" lon="-3.65534">
        <ele>168</ele>
        <time>2024-09-07T09:19:55Z</time>
      </trkpt>
      <trkpt lat="48.05359" lon="-3.65529">
        <ele>168</ele>
        <time>2024-09-07T09:19:56Z</time>
      </trkpt>
      <trkpt lat="48.05362" lon="-3.65524">
        <ele>168.2</ele>
        <time>2024-09-07T09:19:57Z</time>
      </trkpt>
      <trkpt lat="48.05366" lon="-3.65519">
        <ele>168.2</ele>
        <time>2024-09-07T09:19:58Z</time>
      </trkpt>
      <trkpt lat="48.0537" lon="-3.65514">
        <ele>168.2</ele>
        <time>2024-09-07T09:19:59Z</time>
      </trkpt>
      <trkpt lat="48.05374" lon="-3.65508">
        <ele>168.4</ele>
        <time>2024-09-07T09:20:00Z</time>
      </trkpt>
      <trkpt lat="48.05378" lon="-3.65503">
        <ele>168.6</ele>
        <time>2024-09-07T09:20:01Z</time>
      </trkpt>
      <trkpt lat="48.05382" lon="-3.65498">
        <ele>168.6</ele>
        <time>2024-09-07T09:20:02Z</time>
      </trkpt>
      <trkpt lat="48.05385" lon="-3.65494">
        <ele>168.6</ele>
        <time>2024-09-07T09:20:03Z</time>
      </trkpt>
      <trkpt lat="48.05387" lon="-3.65489">
        <ele>168.8</ele>
        <time>2024-09-07T09:20:04Z</time>
      </trkpt>
      <trkpt lat="48.05391" lon="-3.65485">
        <ele>168.8</ele>
        <time>2024-09-07T09:20:05Z</time>
      </trkpt>
      <trkpt lat="48.05394" lon="-3.6548">
        <ele>169</ele>
        <time>2024-09-07T09:20:06Z</time>
      </trkpt>
      <trkpt lat="48.05396" lon="-3.65476">
        <ele>169</ele>
        <time>2024-09-07T09:20:07Z</time>
      </trkpt>
      <trkpt lat="48.05399" lon="-3.65471">
        <ele>169</ele>
        <time>2024-09-07T09:20:08Z</time>
      </trkpt>
      <trkpt lat="48.05403" lon="-3.65466">
        <ele>169.2</ele>
        <time>2024-09-07T09:20:09Z</time>
      </trkpt>
      <trkpt lat="48.05407" lon="-3.65462">
        <ele>169.2</ele>
        <time>2024-09-07T09:20:10Z</time>
      </trkpt>
      <trkpt lat="48.05411" lon="-3.65457">
        <ele>169.4</ele>
        <time>2024-09-07T09:20:11Z</time>
      </trkpt>
      <trkpt lat="48.05414" lon="-3.65453">
        <ele>169.4</ele>
        <time>2024-09-07T09:20:12Z</time>
      </trkpt>
      <trkpt lat="48.05418" lon="-3.65448">
        <ele>169.6</ele>
        <time>2024-09-07T09:20:13Z</time>
      </trkpt>
      <trkpt lat="48.05422" lon="-3.65443">
        <ele>169.6</ele>
        <time>2024-09-07T09:20:14Z</time>
      </trkpt>
      <trkpt lat="48.05426" lon="-3.6544">
        <ele>169.6</ele>
        <time>2024-09-07T09:20:15Z</time>
      </trkpt>
      <trkpt lat="48.05429" lon="-3.65436">
        <ele>169.8</ele>
        <time>2024-09-07T09:20:16Z</time>
      </trkpt>
      <trkpt lat="48.05433" lon="-3.65433">
        <ele>169.8</ele>
        <time>2024-09-07T09:20:17Z</time>
      </trkpt>
      <trkpt lat="48.05437" lon="-3.65429">
        <ele>170</ele>
        <time>2024-09-07T09:20:18Z</time>
      </trkpt>
      <trkpt lat="48.05441" lon="-3.65425">
        <ele>170</ele>
        <time>2024-09-07T09:20:19Z</time>
      </trkpt>
      <trkpt lat="48.05444" lon="-3.65422">
        <ele>170</ele>
        <time>2024-09-07T09:20:20Z</time>
      </trkpt>
      <trkpt lat="48.05447" lon="-3.6542">
        <ele>170.2</ele>
        <time>2024-09-07T09:20:21Z</time>
      </trkpt>
      <trkpt lat="48.05452" lon="-3.65417">
        <ele>170.2</ele>
        <time>2024-09-07T09:20:22Z</time>
      </trkpt>
      <trkpt lat="48.05456" lon="-3.65414">
        <ele>170.2</ele>
        <time>2024-09-07T09:20:23Z</time>
      </trkpt>
      <trkpt lat="48.05461" lon="-3.65412">
        <ele>170.2</ele>
        <time>2024-09-07T09:20:24Z</time>
      </trkpt>
      <trkpt lat="48.05466" lon="-3.6541">
        <ele>170.2</ele>
        <time>2024-09-07T09:20:25Z</time>
      </trkpt>
      <trkpt lat="48.05471" lon="-3.65407">
        <ele>170.4</ele>
        <time>2024-09-07T09:20:26Z</time>
      </trkpt>
      <trkpt lat="48.05475" lon="-3.65405">
        <ele>170.4</ele>
        <time>2024-09-07T09:20:27Z</time>
      </trkpt>
      <trkpt lat="48.0548" lon="-3.65402">
        <ele>170.4</ele>
        <time>2024-09-07T09:20:28Z</time>
      </trkpt>
      <trkpt lat="48.05484" lon="-3.654">
        <ele>170.4</ele>
        <time>2024-09-07T09:20:29Z</time>
      </trkpt>
      <trkpt lat="48.05489" lon="-3.65398">
        <ele>170.4</ele>
        <time>2024-09-07T09:20:30Z</time>
      </trkpt>
      <trkpt lat="48.05494" lon="-3.65396">
        <ele>170.4</ele>
        <time>2024-09-07T09:20:31Z</time>
      </trkpt>
      <trkpt lat="48.05498" lon="-3.65394">
        <ele>170.6</ele>
        <time>2024-09-07T09:20:32Z</time>
      </trkpt>
      <trkpt lat="48.05503" lon="-3.65393">
        <ele>170.6</ele>
        <time>2024-09-07T09:20:33Z</time>
      </trkpt>
      <trkpt lat="48.05507" lon="-3.65391">
        <ele>170.6</ele>
        <time>2024-09-07T09:20:34Z</time>
      </trkpt>
      <trkpt lat="48.05512" lon="-3.65389">
        <ele>170.6</ele>
        <time>2024-09-07T09:20:35Z</time>
      </trkpt>
      <trkpt lat="48.05516" lon="-3.65388">
        <ele>170.6</ele>
        <time>2024-09-07T09:20:36Z</time>
      </trkpt>
      <trkpt lat="48.05521" lon="-3.65387">
        <ele>170.6</ele>
        <time>2024-09-07T09:20:37Z</time>
      </trkpt>
      <trkpt lat="48.05524" lon="-3.65386">
        <ele>170.8</ele>
        <time>2024-09-07T09:20:38Z</time>
      </trkpt>
      <trkpt lat="48.05528" lon="-3.65386">
        <ele>170.8</ele>
        <time>2024-09-07T09:20:39Z</time>
      </trkpt>
      <trkpt lat="48.05532" lon="-3.65385">
        <ele>170.8</ele>
        <time>2024-09-07T09:20:40Z</time>
      </trkpt>
      <trkpt lat="48.05535" lon="-3.65385">
        <ele>170.8</ele>
        <time>2024-09-07T09:20:41Z</time>
      </trkpt>
      <trkpt lat="48.05539" lon="-3.65384">
        <ele>170.8</ele>
        <time>2024-09-07T09:20:42Z</time>
      </trkpt>
      <trkpt lat="48.05542" lon="-3.65383">
        <ele>170.8</ele>
        <time>2024-09-07T09:20:43Z</time>
      </trkpt>
      <trkpt lat="48.05546" lon="-3.65382">
        <ele>170.8</ele>
        <time>2024-09-07T09:20:44Z</time>
      </trkpt>
      <trkpt lat="48.05549" lon="-3.6538">
        <ele>171</ele>
        <time>2024-09-07T09:20:45Z</time>
      </trkpt>
      <trkpt lat="48.05551" lon="-3.65379">
        <ele>171</ele>
        <time>2024-09-07T09:20:46Z</time>
      </trkpt>
      <trkpt lat="48.05554" lon="-3.65378">
        <ele>171</ele>
        <time>2024-09-07T09:20:47Z</time>
      </trkpt>
      <trkpt lat="48.05556" lon="-3.65378">
        <ele>171</ele>
        <time>2024-09-07T09:20:48Z</time>
      </trkpt>
      <trkpt lat="48.05559" lon="-3.6538">
        <ele>171</ele>
        <time>2024-09-07T09:20:49Z</time>
      </trkpt>
      <trkpt lat="48.05561" lon="-3.65383">
        <ele>171</ele>
        <time>2024-09-07T09:20:50Z</time>
      </trkpt>
      <trkpt lat="48.05562" lon="-3.65388">
        <ele>171</ele>
        <time>2024-09-07T09:20:51Z</time>
      </trkpt>
      <trkpt lat="48.05564" lon="-3.65393">
        <ele>171</ele>
        <time>2024-09-07T09:20:52Z</time>
      </trkpt>
      <trkpt lat="48.05567" lon="-3.65397">
        <ele>171</ele>
        <time>2024-09-07T09:20:53Z</time>
      </trkpt>
      <trkpt lat="48.05571" lon="-3.654">
        <ele>171</ele>
        <time>2024-09-07T09:20:54Z</time>
      </trkpt>
      <trkpt lat="48.05576" lon="-3.65403">
        <ele>171</ele>
        <time>2024-09-07T09:20:55Z</time>
      </trkpt>
      <trkpt lat="48.05581" lon="-3.65404">
        <ele>171</ele>
        <time>2024-09-07T09:20:56Z</time>
      </trkpt>
      <trkpt lat="48.05586" lon="-3.65404">
        <ele>171</ele>
        <time>2024-09-07T09:20:57Z</time>
      </trkpt>
      <trkpt lat="48.05591" lon="-3.65405">
        <ele>171</ele>
        <time>2024-09-07T09:20:58Z</time>
      </trkpt>
      <trkpt lat="48.05596" lon="-3.65407">
        <ele>171</ele>
        <time>2024-09-07T09:20:59Z</time>
      </trkpt>
      <trkpt lat="48.05601" lon="-3.65408">
        <ele>171</ele>
        <time>2024-09-07T09:21:00Z</time>
      </trkpt>
      <trkpt lat="48.05606" lon="-3.6541">
        <ele>171</ele>
        <time>2024-09-07T09:21:01Z</time>
      </trkpt>
      <trkpt lat="48.05611" lon="-3.65411">
        <ele>171</ele>
        <time>2024-09-07T09:21:02Z</time>
      </trkpt>
      <trkpt lat="48.05616" lon="-3.65412">
        <ele>170.8</ele>
        <time>2024-09-07T09:21:03Z</time>
      </trkpt>
      <trkpt lat="48.0562" lon="-3.65413">
        <ele>170.8</ele>
        <time>2024-09-07T09:21:04Z</time>
      </trkpt>
      <trkpt lat="48.05625" lon="-3.65415">
        <ele>170.8</ele>
        <time>2024-09-07T09:21:05Z</time>
      </trkpt>
      <trkpt lat="48.05629" lon="-3.65416">
        <ele>170.6</ele>
        <time>2024-09-07T09:21:06Z</time>
      </trkpt>
      <trkpt lat="48.05634" lon="-3.65417">
        <ele>170.6</ele>
        <time>2024-09-07T09:21:07Z</time>
      </trkpt>
      <trkpt lat="48.05638" lon="-3.65419">
        <ele>170.4</ele>
        <time>2024-09-07T09:21:08Z</time>
      </trkpt>
      <trkpt lat="48.05642" lon="-3.6542">
        <ele>170.4</ele>
        <time>2024-09-07T09:21:09Z</time>
      </trkpt>
      <trkpt lat="48.05646" lon="-3.65421">
        <ele>170.2</ele>
        <time>2024-09-07T09:21:10Z</time>
      </trkpt>
      <trkpt lat="48.0565" lon="-3.65423">
        <ele>170.2</ele>
        <time>2024-09-07T09:21:11Z</time>
      </trkpt>
      <trkpt lat="48.05654" lon="-3.65424">
        <ele>170.2</ele>
        <time>2024-09-07T09:21:12Z</time>
      </trkpt>
      <trkpt lat="48.05658" lon="-3.65426">
        <ele>170</ele>
        <time>2024-09-07T09:21:13Z</time>
      </trkpt>
      <trkpt lat="48.05662" lon="-3.65427">
        <ele>170</ele>
        <time>2024-09-07T09:21:14Z</time>
      </trkpt>
      <trkpt lat="48.05666" lon="-3.65428">
        <ele>170</ele>
        <time>2024-09-07T09:21:15Z</time>
      </trkpt>
      <trkpt lat="48.0567" lon="-3.65429">
        <ele>169.8</ele>
        <time>2024-09-07T09:21:16Z</time>
      </trkpt>
      <trkpt lat="48.05673" lon="-3.65431">
        <ele>169.8</ele>
        <time>2024-09-07T09:21:17Z</time>
      </trkpt>
      <trkpt lat="48.05676" lon="-3.65432">
        <ele>169.8</ele>
        <time>2024-09-07T09:21:18Z</time>
      </trkpt>
      <trkpt lat="48.05679" lon="-3.65433">
        <ele>169.6</ele>
        <time>2024-09-07T09:21:19Z</time>
      </trkpt>
      <trkpt lat="48.05683" lon="-3.65434">
        <ele>169.6</ele>
        <time>2024-09-07T09:21:20Z</time>
      </trkpt>
      <trkpt lat="48.05686" lon="-3.65435">
        <ele>169.6</ele>
        <time>2024-09-07T09:21:21Z</time>
      </trkpt>
      <trkpt lat="48.0569" lon="-3.65435">
        <ele>169.6</ele>
        <time>2024-09-07T09:21:22Z</time>
      </trkpt>
      <trkpt lat="48.05694" lon="-3.65436">
        <ele>169.6</ele>
        <time>2024-09-07T09:21:23Z</time>
      </trkpt>
      <trkpt lat="48.05697" lon="-3.65437">
        <ele>169.4</ele>
        <time>2024-09-07T09:21:24Z</time>
      </trkpt>
      <trkpt lat="48.05701" lon="-3.65439">
        <ele>169.4</ele>
        <time>2024-09-07T09:21:25Z</time>
      </trkpt>
      <trkpt lat="48.05705" lon="-3.65441">
        <ele>169.4</ele>
        <time>2024-09-07T09:21:26Z</time>
      </trkpt>
      <trkpt lat="48.05709" lon="-3.65442">
        <ele>169.4</ele>
        <time>2024-09-07T09:21:27Z</time>
      </trkpt>
      <trkpt lat="48.05713" lon="-3.65443">
        <ele>169.4</ele>
        <time>2024-09-07T09:21:28Z</time>
      </trkpt>
      <trkpt lat="48.05717" lon="-3.65445">
        <ele>169.4</ele>
        <time>2024-09-07T09:21:29Z</time>
      </trkpt>
      <trkpt lat="48.05722" lon="-3.65446">
        <ele>169.4</ele>
        <time>2024-09-07T09:21:30Z</time>
      </trkpt>
      <trkpt lat="48.05726" lon="-3.65448">
        <ele>169.4</ele>
        <time>2024-09-07T09:21:31Z</time>
      </trkpt>
      <trkpt lat="48.0573" lon="-3.65449">
        <ele>169.4</ele>
        <time>2024-09-07T09:21:32Z</time>
      </trkpt>
      <trkpt lat="48.05734" lon="-3.65451">
        <ele>169.4</ele>
        <time>2024-09-07T09:21:33Z</time>
      </trkpt>
      <trkpt lat="48.05738" lon="-3.65452">
        <ele>169.4</ele>
        <time>2024-09-07T09:21:34Z</time>
      </trkpt>
      <trkpt lat="48.05742" lon="-3.65454">
        <ele>169.4</ele>
        <time>2024-09-07T09:21:35Z</time>
      </trkpt>
      <trkpt lat="48.05746" lon="-3.65456">
        <ele>169.4</ele>
        <time>2024-09-07T09:21:36Z</time>
      </trkpt>
      <trkpt lat="48.0575" lon="-3.65457">
        <ele>169.4</ele>
        <time>2024-09-07T09:21:37Z</time>
      </trkpt>
      <trkpt lat="48.05754" lon="-3.65459">
        <ele>169.6</ele>
        <time>2024-09-07T09:21:38Z</time>
      </trkpt>
      <trkpt lat="48.05759" lon="-3.6546">
        <ele>169.6</ele>
        <time>2024-09-07T09:21:39Z</time>
      </trkpt>
      <trkpt lat="48.05763" lon="-3.65462">
        <ele>169.6</ele>
        <time>2024-09-07T09:21:40Z</time>
      </trkpt>
      <trkpt lat="48.05767" lon="-3.65465">
        <ele>169.6</ele>
        <time>2024-09-07T09:21:41Z</time>
      </trkpt>
      <trkpt lat="48.05771" lon="-3.65468">
        <ele>169.6</ele>
        <time>2024-09-07T09:21:42Z</time>
      </trkpt>
      <trkpt lat="48.05774" lon="-3.6547">
        <ele>169.6</ele>
        <time>2024-09-07T09:21:43Z</time>
      </trkpt>
      <trkpt lat="48.05778" lon="-3.65472">
        <ele>169.6</ele>
        <time>2024-09-07T09:21:44Z</time>
      </trkpt>
      <trkpt lat="48.05781" lon="-3.65473">
        <ele>169.6</ele>
        <time>2024-09-07T09:21:45Z</time>
      </trkpt>
      <trkpt lat="48.05784" lon="-3.65473">
        <ele>169.8</ele>
        <time>2024-09-07T09:21:46Z</time>
      </trkpt>
      <trkpt lat="48.05787" lon="-3.65472">
        <ele>169.8</ele>
        <time>2024-09-07T09:21:47Z</time>
      </trkpt>
      <trkpt lat="48.0579" lon="-3.65472">
        <ele>169.8</ele>
        <time>2024-09-07T09:21:48Z</time>
      </trkpt>
      <trkpt lat="48.05793" lon="-3.65474">
        <ele>170</ele>
        <time>2024-09-07T09:21:49Z</time>
      </trkpt>
      <trkpt lat="48.05795" lon="-3.65476">
        <ele>170</ele>
        <time>2024-09-07T09:21:50Z</time>
      </trkpt>
      <trkpt lat="48.05797" lon="-3.65478">
        <ele>170.2</ele>
        <time>2024-09-07T09:21:51Z</time>
      </trkpt>
      <trkpt lat="48.05799" lon="-3.65481">
        <ele>170.2</ele>
        <time>2024-09-07T09:21:52Z</time>
      </trkpt>
      <trkpt lat="48.05801" lon="-3.65483">
        <ele>170.4</ele>
        <time>2024-09-07T09:21:53Z</time>
      </trkpt>
      <trkpt lat="48.05804" lon="-3.65484">
        <ele>170.4</ele>
        <time>2024-09-07T09:21:54Z</time>
      </trkpt>
      <trkpt lat="48.05807" lon="-3.65486">
        <ele>170.4</ele>
        <time>2024-09-07T09:21:55Z</time>
      </trkpt>
      <trkpt lat="48.05809" lon="-3.65489">
        <ele>170.6</ele>
        <time>2024-09-07T09:21:56Z</time>
      </trkpt>
      <trkpt lat="48.05812" lon="-3.65492">
        <ele>170.8</ele>
        <time>2024-09-07T09:21:57Z</time>
      </trkpt>
      <trkpt lat="48.05815" lon="-3.65496">
        <ele>170.8</ele>
        <time>2024-09-07T09:21:58Z</time>
      </trkpt>
      <trkpt lat="48.05819" lon="-3.655">
        <ele>170.8</ele>
        <time>2024-09-07T09:21:59Z</time>
      </trkpt>
      <trkpt lat="48.05822" lon="-3.65504">
        <ele>170.8</ele>
        <time>2024-09-07T09:22:00Z</time>
      </trkpt>
      <trkpt lat="48.05826" lon="-3.65508">
        <ele>171</ele>
        <time>2024-09-07T09:22:01Z</time>
      </trkpt>
      <trkpt lat="48.05831" lon="-3.65512">
        <ele>171</ele>
        <time>2024-09-07T09:22:02Z</time>
      </trkpt>
      <trkpt lat="48.05835" lon="-3.65515">
        <ele>171</ele>
        <time>2024-09-07T09:22:03Z</time>
      </trkpt>
      <trkpt lat="48.05839" lon="-3.65519">
        <ele>171</ele>
        <time>2024-09-07T09:22:04Z</time>
      </trkpt>
      <trkpt lat="48.05844" lon="-3.65523">
        <ele>171</ele>
        <time>2024-09-07T09:22:05Z</time>
      </trkpt>
      <trkpt lat="48.05849" lon="-3.65527">
        <ele>171</ele>
        <time>2024-09-07T09:22:06Z</time>
      </trkpt>
      <trkpt lat="48.05854" lon="-3.65531">
        <ele>171.2</ele>
        <time>2024-09-07T09:22:07Z</time>
      </trkpt>
      <trkpt lat="48.05859" lon="-3.65535">
        <ele>171.2</ele>
        <time>2024-09-07T09:22:08Z</time>
      </trkpt>
      <trkpt lat="48.05864" lon="-3.65539">
        <ele>171.2</ele>
        <time>2024-09-07T09:22:09Z</time>
      </trkpt>
      <trkpt lat="48.05869" lon="-3.65543">
        <ele>171.2</ele>
        <time>2024-09-07T09:22:10Z</time>
      </trkpt>
      <trkpt lat="48.05873" lon="-3.65547">
        <ele>171.4</ele>
        <time>2024-09-07T09:22:11Z</time>
      </trkpt>
      <trkpt lat="48.05876" lon="-3.65551">
        <ele>171.4</ele>
        <time>2024-09-07T09:22:12Z</time>
      </trkpt>
      <trkpt lat="48.0588" lon="-3.65555">
        <ele>171.4</ele>
        <time>2024-09-07T09:22:13Z</time>
      </trkpt>
      <trkpt lat="48.05883" lon="-3.65558">
        <ele>171.4</ele>
        <time>2024-09-07T09:22:14Z</time>
      </trkpt>
      <trkpt lat="48.05887" lon="-3.65562">
        <ele>171.4</ele>
        <time>2024-09-07T09:22:15Z</time>
      </trkpt>
      <trkpt lat="48.05892" lon="-3.65566">
        <ele>171.4</ele>
        <time>2024-09-07T09:22:16Z</time>
      </trkpt>
      <trkpt lat="48.05896" lon="-3.65571">
        <ele>171.4</ele>
        <time>2024-09-07T09:22:17Z</time>
      </trkpt>
      <trkpt lat="48.059" lon="-3.65575">
        <ele>171.4</ele>
        <time>2024-09-07T09:22:18Z</time>
      </trkpt>
      <trkpt lat="48.05903" lon="-3.65579">
        <ele>171.6</ele>
        <time>2024-09-07T09:22:19Z</time>
      </trkpt>
      <trkpt lat="48.05907" lon="-3.65582">
        <ele>171.6</ele>
        <time>2024-09-07T09:22:20Z</time>
      </trkpt>
      <trkpt lat="48.05912" lon="-3.65586">
        <ele>171.6</ele>
        <time>2024-09-07T09:22:21Z</time>
      </trkpt>
      <trkpt lat="48.05917" lon="-3.65589">
        <ele>171.6</ele>
        <time>2024-09-07T09:22:22Z</time>
      </trkpt>
      <trkpt lat="48.05921" lon="-3.65593">
        <ele>171.6</ele>
        <time>2024-09-07T09:22:23Z</time>
      </trkpt>
      <trkpt lat="48.05926" lon="-3.65596">
        <ele>171.6</ele>
        <time>2024-09-07T09:22:24Z</time>
      </trkpt>
      <trkpt lat="48.0593" lon="-3.65599">
        <ele>171.8</ele>
        <time>2024-09-07T09:22:25Z</time>
      </trkpt>
      <trkpt lat="48.05935" lon="-3.65602">
        <ele>171.8</ele>
        <time>2024-09-07T09:22:26Z</time>
      </trkpt>
      <trkpt lat="48.0594" lon="-3.65605">
        <ele>172</ele>
        <time>2024-09-07T09:22:27Z</time>
      </trkpt>
      <trkpt lat="48.05944" lon="-3.65608">
        <ele>172</ele>
        <time>2024-09-07T09:22:28Z</time>
      </trkpt>
      <trkpt lat="48.05948" lon="-3.6561">
        <ele>172</ele>
        <time>2024-09-07T09:22:29Z</time>
      </trkpt>
      <trkpt lat="48.05953" lon="-3.65612">
        <ele>172.2</ele>
        <time>2024-09-07T09:22:30Z</time>
      </trkpt>
      <trkpt lat="48.05958" lon="-3.65614">
        <ele>172.2</ele>
        <time>2024-09-07T09:22:31Z</time>
      </trkpt>
      <trkpt lat="48.05962" lon="-3.65617">
        <ele>172.2</ele>
        <time>2024-09-07T09:22:32Z</time>
      </trkpt>
      <trkpt lat="48.05967" lon="-3.6562">
        <ele>172.2</ele>
        <time>2024-09-07T09:22:33Z</time>
      </trkpt>
      <trkpt lat="48.05971" lon="-3.65622">
        <ele>172.4</ele>
        <time>2024-09-07T09:22:34Z</time>
      </trkpt>
      <trkpt lat="48.05975" lon="-3.65624">
        <ele>172.4</ele>
        <time>2024-09-07T09:22:35Z</time>
      </trkpt>
      <trkpt lat="48.05978" lon="-3.65626">
        <ele>172.4</ele>
        <time>2024-09-07T09:22:36Z</time>
      </trkpt>
      <trkpt lat="48.05982" lon="-3.65628">
        <ele>172.4</ele>
        <time>2024-09-07T09:22:37Z</time>
      </trkpt>
      <trkpt lat="48.05985" lon="-3.6563">
        <ele>172.4</ele>
        <time>2024-09-07T09:22:38Z</time>
      </trkpt>
      <trkpt lat="48.05988" lon="-3.65631">
        <ele>172.4</ele>
        <time>2024-09-07T09:22:39Z</time>
      </trkpt>
      <trkpt lat="48.0599" lon="-3.65633">
        <ele>172.4</ele>
        <time>2024-09-07T09:22:40Z</time>
      </trkpt>
      <trkpt lat="48.05991" lon="-3.65633">
        <ele>172.4</ele>
        <time>2024-09-07T09:22:41Z</time>
      </trkpt>
      <trkpt lat="48.05994" lon="-3.65634">
        <ele>172.6</ele>
        <time>2024-09-07T09:22:42Z</time>
      </trkpt>
      <trkpt lat="48.05996" lon="-3.65636">
        <ele>172.6</ele>
        <time>2024-09-07T09:22:43Z</time>
      </trkpt>
      <trkpt lat="48.05999" lon="-3.65639">
        <ele>172.6</ele>
        <time>2024-09-07T09:22:44Z</time>
      </trkpt>
      <trkpt lat="48.06002" lon="-3.65641">
        <ele>172.6</ele>
        <time>2024-09-07T09:22:45Z</time>
      </trkpt>
      <trkpt lat="48.06005" lon="-3.65643">
        <ele>172.6</ele>
        <time>2024-09-07T09:22:46Z</time>
      </trkpt>
      <trkpt lat="48.06008" lon="-3.65644">
        <ele>172.6</ele>
        <time>2024-09-07T09:22:47Z</time>
      </trkpt>
      <trkpt lat="48.06011" lon="-3.65646">
        <ele>172.6</ele>
        <time>2024-09-07T09:22:48Z</time>
      </trkpt>
      <trkpt lat="48.06014" lon="-3.65647">
        <ele>172.8</ele>
        <time>2024-09-07T09:22:49Z</time>
      </trkpt>
      <trkpt lat="48.06018" lon="-3.65648">
        <ele>172.8</ele>
        <time>2024-09-07T09:22:50Z</time>
      </trkpt>
      <trkpt lat="48.06022" lon="-3.6565">
        <ele>172.8</ele>
        <time>2024-09-07T09:22:51Z</time>
      </trkpt>
      <trkpt lat="48.06025" lon="-3.65651">
        <ele>173</ele>
        <time>2024-09-07T09:22:52Z</time>
      </trkpt>
      <trkpt lat="48.06027" lon="-3.65653">
        <ele>173</ele>
        <time>2024-09-07T09:22:53Z</time>
      </trkpt>
      <trkpt lat="48.06029" lon="-3.65655">
        <ele>173.2</ele>
        <time>2024-09-07T09:22:54Z</time>
      </trkpt>
      <trkpt lat="48.06031" lon="-3.65657">
        <ele>173.2</ele>
        <time>2024-09-07T09:22:55Z</time>
      </trkpt>
      <trkpt lat="48.06033" lon="-3.65658">
        <ele>173.2</ele>
        <time>2024-09-07T09:22:56Z</time>
      </trkpt>
      <trkpt lat="48.06036" lon="-3.65658">
        <ele>173.2</ele>
        <time>2024-09-07T09:22:57Z</time>
      </trkpt>
      <trkpt lat="48.0604" lon="-3.65659">
        <ele>173.2</ele>
        <time>2024-09-07T09:22:58Z</time>
      </trkpt>
      <trkpt lat="48.06044" lon="-3.65661">
        <ele>173.2</ele>
        <time>2024-09-07T09:22:59Z</time>
      </trkpt>
      <trkpt lat="48.06049" lon="-3.65663">
        <ele>173.2</ele>
        <time>2024-09-07T09:23:00Z</time>
      </trkpt>
      <trkpt lat="48.06053" lon="-3.65665">
        <ele>173.2</ele>
        <time>2024-09-07T09:23:01Z</time>
      </trkpt>
      <trkpt lat="48.06058" lon="-3.65667">
        <ele>173.2</ele>
        <time>2024-09-07T09:23:02Z</time>
      </trkpt>
      <trkpt lat="48.06062" lon="-3.6567">
        <ele>173.2</ele>
        <time>2024-09-07T09:23:03Z</time>
      </trkpt>
      <trkpt lat="48.06067" lon="-3.65672">
        <ele>173.2</ele>
        <time>2024-09-07T09:23:04Z</time>
      </trkpt>
      <trkpt lat="48.06072" lon="-3.65673">
        <ele>173.2</ele>
        <time>2024-09-07T09:23:05Z</time>
      </trkpt>
      <trkpt lat="48.06077" lon="-3.65674">
        <ele>173.2</ele>
        <time>2024-09-07T09:23:06Z</time>
      </trkpt>
      <trkpt lat="48.06082" lon="-3.65676">
        <ele>173.2</ele>
        <time>2024-09-07T09:23:07Z</time>
      </trkpt>
      <trkpt lat="48.06088" lon="-3.65678">
        <ele>173.2</ele>
        <time>2024-09-07T09:23:08Z</time>
      </trkpt>
      <trkpt lat="48.06093" lon="-3.65681">
        <ele>173.2</ele>
        <time>2024-09-07T09:23:09Z</time>
      </trkpt>
      <trkpt lat="48.06098" lon="-3.65683">
        <ele>173.4</ele>
        <time>2024-09-07T09:23:10Z</time>
      </trkpt>
      <trkpt lat="48.06102" lon="-3.65686">
        <ele>173.4</ele>
        <time>2024-09-07T09:23:11Z</time>
      </trkpt>
      <trkpt lat="48.06108" lon="-3.65689">
        <ele>173.4</ele>
        <time>2024-09-07T09:23:12Z</time>
      </trkpt>
      <trkpt lat="48.06112" lon="-3.6569">
        <ele>173.4</ele>
        <time>2024-09-07T09:23:13Z</time>
      </trkpt>
      <trkpt lat="48.06116" lon="-3.65692">
        <ele>173.4</ele>
        <time>2024-09-07T09:23:14Z</time>
      </trkpt>
      <trkpt lat="48.06121" lon="-3.65695">
        <ele>173.4</ele>
        <time>2024-09-07T09:23:15Z</time>
      </trkpt>
      <trkpt lat="48.06126" lon="-3.65697">
        <ele>173.4</ele>
        <time>2024-09-07T09:23:16Z</time>
      </trkpt>
      <trkpt lat="48.06129" lon="-3.65699">
        <ele>173.4</ele>
        <time>2024-09-07T09:23:17Z</time>
      </trkpt>
      <trkpt lat="48.06133" lon="-3.65703">
        <ele>173.6</ele>
        <time>2024-09-07T09:23:18Z</time>
      </trkpt>
      <trkpt lat="48.06136" lon="-3.65704">
        <ele>173.6</ele>
        <time>2024-09-07T09:23:19Z</time>
      </trkpt>
      <trkpt lat="48.06141" lon="-3.65706">
        <ele>173.6</ele>
        <time>2024-09-07T09:23:20Z</time>
      </trkpt>
      <trkpt lat="48.06144" lon="-3.65709">
        <ele>173.6</ele>
        <time>2024-09-07T09:23:21Z</time>
      </trkpt>
      <trkpt lat="48.06148" lon="-3.65711">
        <ele>173.8</ele>
        <time>2024-09-07T09:23:22Z</time>
      </trkpt>
      <trkpt lat="48.06151" lon="-3.65713">
        <ele>173.8</ele>
        <time>2024-09-07T09:23:23Z</time>
      </trkpt>
      <trkpt lat="48.06155" lon="-3.65714">
        <ele>174</ele>
        <time>2024-09-07T09:23:24Z</time>
      </trkpt>
      <trkpt lat="48.06159" lon="-3.65716">
        <ele>174</ele>
        <time>2024-09-07T09:23:25Z</time>
      </trkpt>
      <trkpt lat="48.06162" lon="-3.65717">
        <ele>174</ele>
        <time>2024-09-07T09:23:26Z</time>
      </trkpt>
      <trkpt lat="48.06166" lon="-3.65719">
        <ele>174</ele>
        <time>2024-09-07T09:23:27Z</time>
      </trkpt>
      <trkpt lat="48.06171" lon="-3.6572">
        <ele>174.2</ele>
        <time>2024-09-07T09:23:28Z</time>
      </trkpt>
      <trkpt lat="48.06175" lon="-3.65721">
        <ele>174.2</ele>
        <time>2024-09-07T09:23:29Z</time>
      </trkpt>
      <trkpt lat="48.06179" lon="-3.65724">
        <ele>174.2</ele>
        <time>2024-09-07T09:23:30Z</time>
      </trkpt>
      <trkpt lat="48.06183" lon="-3.65726">
        <ele>174.4</ele>
        <time>2024-09-07T09:23:31Z</time>
      </trkpt>
      <trkpt lat="48.06188" lon="-3.65728">
        <ele>174.4</ele>
        <time>2024-09-07T09:23:32Z</time>
      </trkpt>
      <trkpt lat="48.06192" lon="-3.65731">
        <ele>174.4</ele>
        <time>2024-09-07T09:23:33Z</time>
      </trkpt>
      <trkpt lat="48.06197" lon="-3.65732">
        <ele>174.4</ele>
        <time>2024-09-07T09:23:34Z</time>
      </trkpt>
      <trkpt lat="48.06201" lon="-3.65734">
        <ele>174.4</ele>
        <time>2024-09-07T09:23:35Z</time>
      </trkpt>
      <trkpt lat="48.06204" lon="-3.65736">
        <ele>174.6</ele>
        <time>2024-09-07T09:23:36Z</time>
      </trkpt>
      <trkpt lat="48.06208" lon="-3.65738">
        <ele>174.6</ele>
        <time>2024-09-07T09:23:37Z</time>
      </trkpt>
      <trkpt lat="48.06211" lon="-3.6574">
        <ele>174.6</ele>
        <time>2024-09-07T09:23:38Z</time>
      </trkpt>
      <trkpt lat="48.06215" lon="-3.65742">
        <ele>174.6</ele>
        <time>2024-09-07T09:23:39Z</time>
      </trkpt>
      <trkpt lat="48.06219" lon="-3.65744">
        <ele>174.6</ele>
        <time>2024-09-07T09:23:40Z</time>
      </trkpt>
      <trkpt lat="48.06223" lon="-3.65746">
        <ele>174.8</ele>
        <time>2024-09-07T09:23:41Z</time>
      </trkpt>
      <trkpt lat="48.06227" lon="-3.65748">
        <ele>174.8</ele>
        <time>2024-09-07T09:23:42Z</time>
      </trkpt>
      <trkpt lat="48.06231" lon="-3.65749">
        <ele>174.8</ele>
        <time>2024-09-07T09:23:43Z</time>
      </trkpt>
      <trkpt lat="48.06234" lon="-3.65751">
        <ele>174.8</ele>
        <time>2024-09-07T09:23:44Z</time>
      </trkpt>
      <trkpt lat="48.06238" lon="-3.65753">
        <ele>174.8</ele>
        <time>2024-09-07T09:23:45Z</time>
      </trkpt>
      <trkpt lat="48.06242" lon="-3.65755">
        <ele>174.8</ele>
        <time>2024-09-07T09:23:46Z</time>
      </trkpt>
      <trkpt lat="48.06245" lon="-3.65756">
        <ele>175</ele>
        <time>2024-09-07T09:23:47Z</time>
      </trkpt>
      <trkpt lat="48.06248" lon="-3.65758">
        <ele>175</ele>
        <time>2024-09-07T09:23:48Z</time>
      </trkpt>
      <trkpt lat="48.06251" lon="-3.65759">
        <ele>175</ele>
        <time>2024-09-07T09:23:49Z</time>
      </trkpt>
      <trkpt lat="48.06254" lon="-3.65761">
        <ele>175</ele>
        <time>2024-09-07T09:23:50Z</time>
      </trkpt>
      <trkpt lat="48.06256" lon="-3.65762">
        <ele>175</ele>
        <time>2024-09-07T09:23:51Z</time>
      </trkpt>
      <trkpt lat="48.06258" lon="-3.65763">
        <ele>175.2</ele>
        <time>2024-09-07T09:23:52Z</time>
      </trkpt>
      <trkpt lat="48.06259" lon="-3.65764">
        <ele>175.2</ele>
        <time>2024-09-07T09:23:53Z</time>
      </trkpt>
      <trkpt lat="48.06261" lon="-3.65766">
        <ele>175.2</ele>
        <time>2024-09-07T09:23:54Z</time>
      </trkpt>
      <trkpt lat="48.06262" lon="-3.65768">
        <ele>175.2</ele>
        <time>2024-09-07T09:23:55Z</time>
      </trkpt>
      <trkpt lat="48.06263" lon="-3.65769">
        <ele>175.4</ele>
        <time>2024-09-07T09:23:56Z</time>
      </trkpt>
      <trkpt lat="48.06264" lon="-3.6577">
        <ele>175.4</ele>
        <time>2024-09-07T09:23:57Z</time>
      </trkpt>
      <trkpt lat="48.06265" lon="-3.65771">
        <ele>175.4</ele>
        <time>2024-09-07T09:23:58Z</time>
      </trkpt>
      <trkpt lat="48.06288" lon="-3.65764">
        <ele>175.8</ele>
        <time>2024-09-07T09:24:15Z</time>
      </trkpt>
      <trkpt lat="48.06289" lon="-3.65762">
        <ele>175.8</ele>
        <time>2024-09-07T09:24:16Z</time>
      </trkpt>
      <trkpt lat="48.06291" lon="-3.6576">
        <ele>175.8</ele>
        <time>2024-09-07T09:24:17Z</time>
      </trkpt>
      <trkpt lat="48.06292" lon="-3.65759">
        <ele>175.8</ele>
        <time>2024-09-07T09:24:18Z</time>
      </trkpt>
      <trkpt lat="48.06294" lon="-3.65759">
        <ele>175.8</ele>
        <time>2024-09-07T09:24:19Z</time>
      </trkpt>
      <trkpt lat="48.06295" lon="-3.65759">
        <ele>176</ele>
        <time>2024-09-07T09:24:20Z</time>
      </trkpt>
      <trkpt lat="48.06297" lon="-3.65759">
        <ele>176</ele>
        <time>2024-09-07T09:24:21Z</time>
      </trkpt>
      <trkpt lat="48.06298" lon="-3.65759">
        <ele>176</ele>
        <time>2024-09-07T09:24:22Z</time>
      </trkpt>
      <trkpt lat="48.06299" lon="-3.6576">
        <ele>176</ele>
        <time>2024-09-07T09:24:23Z</time>
      </trkpt>
      <trkpt lat="48.06299" lon="-3.6576">
        <ele>176</ele>
        <time>2024-09-07T09:24:24Z</time>
      </trkpt>
      <trkpt lat="48.0631" lon="-3.65765">
        <ele>176</ele>
        <time>2024-09-07T09:24:36Z</time>
      </trkpt>
      <trkpt lat="48.06311" lon="-3.65766">
        <ele>176</ele>
        <time>2024-09-07T09:24:37Z</time>
      </trkpt>
      <trkpt lat="48.06313" lon="-3.65768">
        <ele>176</ele>
        <time>2024-09-07T09:24:38Z</time>
      </trkpt>
      <trkpt lat="48.06316" lon="-3.6577">
        <ele>176</ele>
        <time>2024-09-07T09:24:39Z</time>
      </trkpt>
      <trkpt lat="48.06319" lon="-3.65771">
        <ele>176</ele>
        <time>2024-09-07T09:24:40Z</time>
      </trkpt>
      <trkpt lat="48.06323" lon="-3.65772">
        <ele>176</ele>
        <time>2024-09-07T09:24:41Z</time>
      </trkpt>
      <trkpt lat="48.06326" lon="-3.65774">
        <ele>176</ele>
        <time>2024-09-07T09:24:42Z</time>
      </trkpt>
      <trkpt lat="48.0633" lon="-3.65776">
        <ele>176</ele>
        <time>2024-09-07T09:24:43Z</time>
      </trkpt>
      <trkpt lat="48.06334" lon="-3.65779">
        <ele>176</ele>
        <time>2024-09-07T09:24:44Z</time>
      </trkpt>
      <trkpt lat="48.06338" lon="-3.65783">
        <ele>176</ele>
        <time>2024-09-07T09:24:45Z</time>
      </trkpt>
      <trkpt lat="48.06341" lon="-3.65788">
        <ele>176</ele>
        <time>2024-09-07T09:24:46Z</time>
      </trkpt>
      <trkpt lat="48.06343" lon="-3.65793">
        <ele>176</ele>
        <time>2024-09-07T09:24:47Z</time>
      </trkpt>
      <trkpt lat="48.06347" lon="-3.65797">
        <ele>176</ele>
        <time>2024-09-07T09:24:48Z</time>
      </trkpt>
      <trkpt lat="48.0635" lon="-3.65802">
        <ele>176</ele>
        <time>2024-09-07T09:24:49Z</time>
      </trkpt>
      <trkpt lat="48.06354" lon="-3.65806">
        <ele>176.2</ele>
        <time>2024-09-07T09:24:50Z</time>
      </trkpt>
      <trkpt lat="48.06359" lon="-3.65809">
        <ele>176.2</ele>
        <time>2024-09-07T09:24:51Z</time>
      </trkpt>
      <trkpt lat="48.06365" lon="-3.65812">
        <ele>176.2</ele>
        <time>2024-09-07T09:24:52Z</time>
      </trkpt>
      <trkpt lat="48.0637" lon="-3.65814">
        <ele>176.2</ele>
        <time>2024-09-07T09:24:53Z</time>
      </trkpt>
      <trkpt lat="48.06376" lon="-3.65817">
        <ele>176.2</ele>
        <time>2024-09-07T09:24:54Z</time>
      </trkpt>
      <trkpt lat="48.06382" lon="-3.6582">
        <ele>176.2</ele>
        <time>2024-09-07T09:24:55Z</time>
      </trkpt>
      <trkpt lat="48.06387" lon="-3.65822">
        <ele>176.4</ele>
        <time>2024-09-07T09:24:56Z</time>
      </trkpt>
      <trkpt lat="48.06393" lon="-3.65825">
        <ele>176.4</ele>
        <time>2024-09-07T09:24:57Z</time>
      </trkpt>
      <trkpt lat="48.06398" lon="-3.65827">
        <ele>176.4</ele>
        <time>2024-09-07T09:24:58Z</time>
      </trkpt>
      <trkpt lat="48.06403" lon="-3.65829">
        <ele>176.4</ele>
        <time>2024-09-07T09:24:59Z</time>
      </trkpt>
      <trkpt lat="48.06408" lon="-3.65832">
        <ele>176.6</ele>
        <time>2024-09-07T09:25:00Z</time>
      </trkpt>
      <trkpt lat="48.06413" lon="-3.65834">
        <ele>176.6</ele>
        <time>2024-09-07T09:25:01Z</time>
      </trkpt>
      <trkpt lat="48.06419" lon="-3.65837">
        <ele>176.6</ele>
        <time>2024-09-07T09:25:02Z</time>
      </trkpt>
      <trkpt lat="48.06424" lon="-3.6584">
        <ele>176.8</ele>
        <time>2024-09-07T09:25:03Z</time>
      </trkpt>
      <trkpt lat="48.0643" lon="-3.65842">
        <ele>176.8</ele>
        <time>2024-09-07T09:25:04Z</time>
      </trkpt>
      <trkpt lat="48.06435" lon="-3.65845">
        <ele>176.8</ele>
        <time>2024-09-07T09:25:05Z</time>
      </trkpt>
      <trkpt lat="48.06441" lon="-3.65847">
        <ele>176.8</ele>
        <time>2024-09-07T09:25:06Z</time>
      </trkpt>
      <trkpt lat="48.06446" lon="-3.6585">
        <ele>177</ele>
        <time>2024-09-07T09:25:07Z</time>
      </trkpt>
      <trkpt lat="48.06452" lon="-3.65852">
        <ele>177</ele>
        <time>2024-09-07T09:25:08Z</time>
      </trkpt>
      <trkpt lat="48.06457" lon="-3.65855">
        <ele>177</ele>
        <time>2024-09-07T09:25:09Z</time>
      </trkpt>
      <trkpt lat="48.06462" lon="-3.65857">
        <ele>177.2</ele>
        <time>2024-09-07T09:25:10Z</time>
      </trkpt>
      <trkpt lat="48.06468" lon="-3.6586">
        <ele>177.2</ele>
        <time>2024-09-07T09:25:11Z</time>
      </trkpt>
      <trkpt lat="48.06473" lon="-3.65863">
        <ele>177.2</ele>
        <time>2024-09-07T09:25:12Z</time>
      </trkpt>
      <trkpt lat="48.06478" lon="-3.65865">
        <ele>177.2</ele>
        <time>2024-09-07T09:25:13Z</time>
      </trkpt>
      <trkpt lat="48.06483" lon="-3.65867">
        <ele>177.2</ele>
        <time>2024-09-07T09:25:14Z</time>
      </trkpt>
      <trkpt lat="48.06489" lon="-3.6587">
        <ele>177.4</ele>
        <time>2024-09-07T09:25:15Z</time>
      </trkpt>
      <trkpt lat="48.06494" lon="-3.65872">
        <ele>177.4</ele>
        <time>2024-09-07T09:25:16Z</time>
      </trkpt>
      <trkpt lat="48.06498" lon="-3.65874">
        <ele>177.4</ele>
        <time>2024-09-07T09:25:17Z</time>
      </trkpt>
      <trkpt lat="48.06503" lon="-3.65877">
        <ele>177.6</ele>
        <time>2024-09-07T09:25:18Z</time>
      </trkpt>
      <trkpt lat="48.06508" lon="-3.6588">
        <ele>177.6</ele>
        <time>2024-09-07T09:25:19Z</time>
      </trkpt>
      <trkpt lat="48.06512" lon="-3.65882">
        <ele>177.6</ele>
        <time>2024-09-07T09:25:20Z</time>
      </trkpt>
      <trkpt lat="48.06517" lon="-3.65884">
        <ele>177.8</ele>
        <time>2024-09-07T09:25:21Z</time>
      </trkpt>
      <trkpt lat="48.06521" lon="-3.65885">
        <ele>177.8</ele>
        <time>2024-09-07T09:25:22Z</time>
      </trkpt>
      <trkpt lat="48.06526" lon="-3.65887">
        <ele>177.8</ele>
        <time>2024-09-07T09:25:23Z</time>
      </trkpt>
      <trkpt lat="48.06531" lon="-3.6589">
        <ele>177.8</ele>
        <time>2024-09-07T09:25:24Z</time>
      </trkpt>
      <trkpt lat="48.06535" lon="-3.65892">
        <ele>177.8</ele>
        <time>2024-09-07T09:25:25Z</time>
      </trkpt>
      <trkpt lat="48.06539" lon="-3.65895">
        <ele>178</ele>
        <time>2024-09-07T09:25:26Z</time>
      </trkpt>
      <trkpt lat="48.06543" lon="-3.65897">
        <ele>178</ele>
        <time>2024-09-07T09:25:27Z</time>
      </trkpt>
      <trkpt lat="48.06547" lon="-3.65899">
        <ele>178</ele>
        <time>2024-09-07T09:25:28Z</time>
      </trkpt>
      <trkpt lat="48.06551" lon="-3.65901">
        <ele>178.2</ele>
        <time>2024-09-07T09:25:29Z</time>
      </trkpt>
      <trkpt lat="48.06555" lon="-3.65902">
        <ele>178.2</ele>
        <time>2024-09-07T09:25:30Z</time>
      </trkpt>
      <trkpt lat="48.06559" lon="-3.65904">
        <ele>178.2</ele>
        <time>2024-09-07T09:25:31Z</time>
      </trkpt>
      <trkpt lat="48.06563" lon="-3.65907">
        <ele>178.2</ele>
        <time>2024-09-07T09:25:32Z</time>
      </trkpt>
      <trkpt lat="48.06568" lon="-3.65909">
        <ele>178.2</ele>
        <time>2024-09-07T09:25:33Z</time>
      </trkpt>
      <trkpt lat="48.06573" lon="-3.65912">
        <ele>178.2</ele>
        <time>2024-09-07T09:25:34Z</time>
      </trkpt>
      <trkpt lat="48.06577" lon="-3.65914">
        <ele>178.2</ele>
        <time>2024-09-07T09:25:35Z</time>
      </trkpt>
      <trkpt lat="48.06582" lon="-3.65916">
        <ele>178.4</ele>
        <time>2024-09-07T09:25:36Z</time>
      </trkpt>
      <trkpt lat="48.06587" lon="-3.65918">
        <ele>178.4</ele>
        <time>2024-09-07T09:25:37Z</time>
      </trkpt>
      <trkpt lat="48.06592" lon="-3.6592">
        <ele>178.4</ele>
        <time>2024-09-07T09:25:38Z</time>
      </trkpt>
      <trkpt lat="48.06597" lon="-3.65922">
        <ele>178.4</ele>
        <time>2024-09-07T09:25:39Z</time>
      </trkpt>
      <trkpt lat="48.06602" lon="-3.65924">
        <ele>178.4</ele>
        <time>2024-09-07T09:25:40Z</time>
      </trkpt>
      <trkpt lat="48.06607" lon="-3.65927">
        <ele>178.4</ele>
        <time>2024-09-07T09:25:41Z</time>
      </trkpt>
      <trkpt lat="48.06612" lon="-3.65929">
        <ele>178.4</ele>
        <time>2024-09-07T09:25:42Z</time>
      </trkpt>
      <trkpt lat="48.06617" lon="-3.65932">
        <ele>178.4</ele>
        <time>2024-09-07T09:25:43Z</time>
      </trkpt>
      <trkpt lat="48.06622" lon="-3.65934">
        <ele>178.6</ele>
        <time>2024-09-07T09:25:44Z</time>
      </trkpt>
      <trkpt lat="48.06627" lon="-3.65936">
        <ele>178.6</ele>
        <time>2024-09-07T09:25:45Z</time>
      </trkpt>
      <trkpt lat="48.06632" lon="-3.65937">
        <ele>178.6</ele>
        <time>2024-09-07T09:25:46Z</time>
      </trkpt>
      <trkpt lat="48.06637" lon="-3.65939">
        <ele>178.6</ele>
        <time>2024-09-07T09:25:47Z</time>
      </trkpt>
      <trkpt lat="48.06642" lon="-3.65941">
        <ele>178.6</ele>
        <time>2024-09-07T09:25:48Z</time>
      </trkpt>
      <trkpt lat="48.06647" lon="-3.65943">
        <ele>178.6</ele>
        <time>2024-09-07T09:25:49Z</time>
      </trkpt>
      <trkpt lat="48.06652" lon="-3.65945">
        <ele>178.8</ele>
        <time>2024-09-07T09:25:50Z</time>
      </trkpt>
      <trkpt lat="48.06657" lon="-3.65947">
        <ele>178.8</ele>
        <time>2024-09-07T09:25:51Z</time>
      </trkpt>
      <trkpt lat="48.06661" lon="-3.65948">
        <ele>178.8</ele>
        <time>2024-09-07T09:25:52Z</time>
      </trkpt>
      <trkpt lat="48.06666" lon="-3.65948">
        <ele>178.8</ele>
        <time>2024-09-07T09:25:53Z</time>
      </trkpt>
      <trkpt lat="48.06672" lon="-3.65949">
        <ele>178.8</ele>
        <time>2024-09-07T09:25:54Z</time>
      </trkpt>
      <trkpt lat="48.06677" lon="-3.65949">
        <ele>178.8</ele>
        <time>2024-09-07T09:25:55Z</time>
      </trkpt>
      <trkpt lat="48.06682" lon="-3.6595">
        <ele>178.8</ele>
        <time>2024-09-07T09:25:56Z</time>
      </trkpt>
      <trkpt lat="48.06687" lon="-3.65951">
        <ele>178.8</ele>
        <time>2024-09-07T09:25:57Z</time>
      </trkpt>
      <trkpt lat="48.06692" lon="-3.65952">
        <ele>178.8</ele>
        <time>2024-09-07T09:25:58Z</time>
      </trkpt>
      <trkpt lat="48.06697" lon="-3.65953">
        <ele>178.8</ele>
        <time>2024-09-07T09:25:59Z</time>
      </trkpt>
      <trkpt lat="48.06702" lon="-3.65953">
        <ele>178.8</ele>
        <time>2024-09-07T09:26:00Z</time>
      </trkpt>
      <trkpt lat="48.06707" lon="-3.65953">
        <ele>178.8</ele>
        <time>2024-09-07T09:26:01Z</time>
      </trkpt>
      <trkpt lat="48.06712" lon="-3.65953">
        <ele>178.8</ele>
        <time>2024-09-07T09:26:02Z</time>
      </trkpt>
      <trkpt lat="48.06718" lon="-3.65953">
        <ele>178.8</ele>
        <time>2024-09-07T09:26:03Z</time>
      </trkpt>
      <trkpt lat="48.06723" lon="-3.65953">
        <ele>178.8</ele>
        <time>2024-09-07T09:26:04Z</time>
      </trkpt>
      <trkpt lat="48.06726" lon="-3.65953">
        <ele>178.8</ele>
        <time>2024-09-07T09:26:05Z</time>
      </trkpt>
      <trkpt lat="48.06731" lon="-3.65954">
        <ele>178.8</ele>
        <time>2024-09-07T09:26:06Z</time>
      </trkpt>
      <trkpt lat="48.06735" lon="-3.65955">
        <ele>178.8</ele>
        <time>2024-09-07T09:26:07Z</time>
      </trkpt>
      <trkpt lat="48.06739" lon="-3.65955">
        <ele>178.8</ele>
        <time>2024-09-07T09:26:08Z</time>
      </trkpt>
      <trkpt lat="48.06744" lon="-3.65954">
        <ele>179</ele>
        <time>2024-09-07T09:26:09Z</time>
      </trkpt>
      <trkpt lat="48.06749" lon="-3.65953">
        <ele>179</ele>
        <time>2024-09-07T09:26:10Z</time>
      </trkpt>
      <trkpt lat="48.06754" lon="-3.65952">
        <ele>179</ele>
        <time>2024-09-07T09:26:11Z</time>
      </trkpt>
      <trkpt lat="48.06758" lon="-3.65951">
        <ele>179</ele>
        <time>2024-09-07T09:26:12Z</time>
      </trkpt>
      <trkpt lat="48.06764" lon="-3.65949">
        <ele>179</ele>
        <time>2024-09-07T09:26:13Z</time>
      </trkpt>
      <trkpt lat="48.06768" lon="-3.65948">
        <ele>179</ele>
        <time>2024-09-07T09:26:14Z</time>
      </trkpt>
      <trkpt lat="48.06773" lon="-3.65947">
        <ele>179</ele>
        <time>2024-09-07T09:26:15Z</time>
      </trkpt>
      <trkpt lat="48.06778" lon="-3.65945">
        <ele>179</ele>
        <time>2024-09-07T09:26:16Z</time>
      </trkpt>
      <trkpt lat="48.06783" lon="-3.65944">
        <ele>179</ele>
        <time>2024-09-07T09:26:17Z</time>
      </trkpt>
      <trkpt lat="48.06788" lon="-3.65942">
        <ele>178.8</ele>
        <time>2024-09-07T09:26:18Z</time>
      </trkpt>
      <trkpt lat="48.06794" lon="-3.65941">
        <ele>178.8</ele>
        <time>2024-09-07T09:26:19Z</time>
      </trkpt>
      <trkpt lat="48.06799" lon="-3.65939">
        <ele>179</ele>
        <time>2024-09-07T09:26:20Z</time>
      </trkpt>
      <trkpt lat="48.06804" lon="-3.65938">
        <ele>179</ele>
        <time>2024-09-07T09:26:21Z</time>
      </trkpt>
      <trkpt lat="48.06809" lon="-3.65937">
        <ele>179</ele>
        <time>2024-09-07T09:26:22Z</time>
      </trkpt>
      <trkpt lat="48.06813" lon="-3.65935">
        <ele>179</ele>
        <time>2024-09-07T09:26:23Z</time>
      </trkpt>
      <trkpt lat="48.06819" lon="-3.65934">
        <ele>179</ele>
        <time>2024-09-07T09:26:24Z</time>
      </trkpt>
      <trkpt lat="48.06824" lon="-3.65932">
        <ele>179</ele>
        <time>2024-09-07T09:26:25Z</time>
      </trkpt>
      <trkpt lat="48.0683" lon="-3.6593">
        <ele>179</ele>
        <time>2024-09-07T09:26:26Z</time>
      </trkpt>
      <trkpt lat="48.06835" lon="-3.65928">
        <ele>179</ele>
        <time>2024-09-07T09:26:27Z</time>
      </trkpt>
      <trkpt lat="48.06841" lon="-3.65926">
        <ele>179</ele>
        <time>2024-09-07T09:26:28Z</time>
      </trkpt>
      <trkpt lat="48.06847" lon="-3.65924">
        <ele>179</ele>
        <time>2024-09-07T09:26:29Z</time>
      </trkpt>
      <trkpt lat="48.06852" lon="-3.65922">
        <ele>179</ele>
        <time>2024-09-07T09:26:30Z</time>
      </trkpt>
      <trkpt lat="48.06856" lon="-3.65921">
        <ele>179.2</ele>
        <time>2024-09-07T09:26:31Z</time>
      </trkpt>
      <trkpt lat="48.06861" lon="-3.6592">
        <ele>179.2</ele>
        <time>2024-09-07T09:26:32Z</time>
      </trkpt>
      <trkpt lat="48.06866" lon="-3.65918">
        <ele>179.2</ele>
        <time>2024-09-07T09:26:33Z</time>
      </trkpt>
      <trkpt lat="48.0687" lon="-3.65917">
        <ele>179.2</ele>
        <time>2024-09-07T09:26:34Z</time>
      </trkpt>
      <trkpt lat="48.06874" lon="-3.65917">
        <ele>179.2</ele>
        <time>2024-09-07T09:26:35Z</time>
      </trkpt>
      <trkpt lat="48.06878" lon="-3.65916">
        <ele>179.2</ele>
        <time>2024-09-07T09:26:36Z</time>
      </trkpt>
      <trkpt lat="48.06884" lon="-3.65914">
        <ele>179.2</ele>
        <time>2024-09-07T09:26:37Z</time>
      </trkpt>
      <trkpt lat="48.06889" lon="-3.65912">
        <ele>179.2</ele>
        <time>2024-09-07T09:26:38Z</time>
      </trkpt>
      <trkpt lat="48.06894" lon="-3.65911">
        <ele>179.2</ele>
        <time>2024-09-07T09:26:39Z</time>
      </trkpt>
      <trkpt lat="48.06899" lon="-3.65909">
        <ele>179.4</ele>
        <time>2024-09-07T09:26:40Z</time>
      </trkpt>
      <trkpt lat="48.06905" lon="-3.65907">
        <ele>179.4</ele>
        <time>2024-09-07T09:26:41Z</time>
      </trkpt>
      <trkpt lat="48.06909" lon="-3.65906">
        <ele>179.4</ele>
        <time>2024-09-07T09:26:42Z</time>
      </trkpt>
      <trkpt lat="48.06914" lon="-3.65905">
        <ele>179.4</ele>
        <time>2024-09-07T09:26:43Z</time>
      </trkpt>
      <trkpt lat="48.06919" lon="-3.65904">
        <ele>179.4</ele>
        <time>2024-09-07T09:26:44Z</time>
      </trkpt>
      <trkpt lat="48.06924" lon="-3.65903">
        <ele>179.4</ele>
        <time>2024-09-07T09:26:45Z</time>
      </trkpt>
      <trkpt lat="48.0693" lon="-3.65903">
        <ele>179.4</ele>
        <time>2024-09-07T09:26:46Z</time>
      </trkpt>
      <trkpt lat="48.06935" lon="-3.65903">
        <ele>179.6</ele>
        <time>2024-09-07T09:26:47Z</time>
      </trkpt>
      <trkpt lat="48.0694" lon="-3.65903">
        <ele>179.6</ele>
        <time>2024-09-07T09:26:48Z</time>
      </trkpt>
      <trkpt lat="48.06946" lon="-3.65903">
        <ele>179.6</ele>
        <time>2024-09-07T09:26:49Z</time>
      </trkpt>
      <trkpt lat="48.0695" lon="-3.65904">
        <ele>179.6</ele>
        <time>2024-09-07T09:26:50Z</time>
      </trkpt>
      <trkpt lat="48.06956" lon="-3.65903">
        <ele>179.8</ele>
        <time>2024-09-07T09:26:51Z</time>
      </trkpt>
      <trkpt lat="48.06961" lon="-3.65903">
        <ele>179.8</ele>
        <time>2024-09-07T09:26:52Z</time>
      </trkpt>
      <trkpt lat="48.06967" lon="-3.65903">
        <ele>179.8</ele>
        <time>2024-09-07T09:26:53Z</time>
      </trkpt>
      <trkpt lat="48.06973" lon="-3.65903">
        <ele>179.8</ele>
        <time>2024-09-07T09:26:54Z</time>
      </trkpt>
      <trkpt lat="48.0698" lon="-3.65903">
        <ele>179.8</ele>
        <time>2024-09-07T09:26:55Z</time>
      </trkpt>
      <trkpt lat="48.06984" lon="-3.65907">
        <ele>179.8</ele>
        <time>2024-09-07T09:26:56Z</time>
      </trkpt>
      <trkpt lat="48.06989" lon="-3.6591">
        <ele>179.8</ele>
        <time>2024-09-07T09:26:57Z</time>
      </trkpt>
      <trkpt lat="48.06994" lon="-3.65911">
        <ele>180</ele>
        <time>2024-09-07T09:26:58Z</time>
      </trkpt>
      <trkpt lat="48.06999" lon="-3.65913">
        <ele>179.8</ele>
        <time>2024-09-07T09:26:59Z</time>
      </trkpt>
      <trkpt lat="48.07004" lon="-3.65916">
        <ele>180</ele>
        <time>2024-09-07T09:27:00Z</time>
      </trkpt>
      <trkpt lat="48.07008" lon="-3.65918">
        <ele>180</ele>
        <time>2024-09-07T09:27:01Z</time>
      </trkpt>
      <trkpt lat="48.07013" lon="-3.6592">
        <ele>180</ele>
        <time>2024-09-07T09:27:02Z</time>
      </trkpt>
      <trkpt lat="48.07018" lon="-3.65921">
        <ele>180</ele>
        <time>2024-09-07T09:27:03Z</time>
      </trkpt>
      <trkpt lat="48.07023" lon="-3.65923">
        <ele>179.8</ele>
        <time>2024-09-07T09:27:04Z</time>
      </trkpt>
      <trkpt lat="48.07027" lon="-3.65925">
        <ele>179.8</ele>
        <time>2024-09-07T09:27:05Z</time>
      </trkpt>
      <trkpt lat="48.07031" lon="-3.65928">
        <ele>179.8</ele>
        <time>2024-09-07T09:27:06Z</time>
      </trkpt>
      <trkpt lat="48.07035" lon="-3.65931">
        <ele>179.8</ele>
        <time>2024-09-07T09:27:07Z</time>
      </trkpt>
      <trkpt lat="48.0704" lon="-3.65935">
        <ele>179.8</ele>
        <time>2024-09-07T09:27:08Z</time>
      </trkpt>
      <trkpt lat="48.07044" lon="-3.65937">
        <ele>179.8</ele>
        <time>2024-09-07T09:27:09Z</time>
      </trkpt>
      <trkpt lat="48.07048" lon="-3.6594">
        <ele>179.8</ele>
        <time>2024-09-07T09:27:10Z</time>
      </trkpt>
      <trkpt lat="48.07052" lon="-3.65943">
        <ele>179.8</ele>
        <time>2024-09-07T09:27:11Z</time>
      </trkpt>
      <trkpt lat="48.07057" lon="-3.65948">
        <ele>179.8</ele>
        <time>2024-09-07T09:27:12Z</time>
      </trkpt>
      <trkpt lat="48.07062" lon="-3.65952">
        <ele>179.8</ele>
        <time>2024-09-07T09:27:13Z</time>
      </trkpt>
      <trkpt lat="48.07066" lon="-3.65956">
        <ele>179.8</ele>
        <time>2024-09-07T09:27:14Z</time>
      </trkpt>
      <trkpt lat="48.0707" lon="-3.65962">
        <ele>179.8</ele>
        <time>2024-09-07T09:27:15Z</time>
      </trkpt>
      <trkpt lat="48.07074" lon="-3.6597">
        <ele>179.8</ele>
        <time>2024-09-07T09:27:16Z</time>
      </trkpt>
      <trkpt lat="48.07079" lon="-3.65975">
        <ele>179.8</ele>
        <time>2024-09-07T09:27:17Z</time>
      </trkpt>
      <trkpt lat="48.07084" lon="-3.65981">
        <ele>179.8</ele>
        <time>2024-09-07T09:27:18Z</time>
      </trkpt>
      <trkpt lat="48.07089" lon="-3.65987">
        <ele>179.6</ele>
        <time>2024-09-07T09:27:19Z</time>
      </trkpt>
      <trkpt lat="48.07093" lon="-3.65993">
        <ele>179.4</ele>
        <time>2024-09-07T09:27:20Z</time>
      </trkpt>
      <trkpt lat="48.07098" lon="-3.65998">
        <ele>179.4</ele>
        <time>2024-09-07T09:27:21Z</time>
      </trkpt>
      <trkpt lat="48.07103" lon="-3.66005">
        <ele>179.4</ele>
        <time>2024-09-07T09:27:22Z</time>
      </trkpt>
      <trkpt lat="48.07107" lon="-3.66012">
        <ele>179.4</ele>
        <time>2024-09-07T09:27:23Z</time>
      </trkpt>
      <trkpt lat="48.07111" lon="-3.66017">
        <ele>179.2</ele>
        <time>2024-09-07T09:27:24Z</time>
      </trkpt>
      <trkpt lat="48.07115" lon="-3.66022">
        <ele>179.2</ele>
        <time>2024-09-07T09:27:25Z</time>
      </trkpt>
      <trkpt lat="48.07119" lon="-3.66028">
        <ele>179</ele>
        <time>2024-09-07T09:27:26Z</time>
      </trkpt>
      <trkpt lat="48.07124" lon="-3.66034">
        <ele>178.8</ele>
        <time>2024-09-07T09:27:27Z</time>
      </trkpt>
      <trkpt lat="48.07128" lon="-3.66041">
        <ele>178.8</ele>
        <time>2024-09-07T09:27:28Z</time>
      </trkpt>
      <trkpt lat="48.07132" lon="-3.66049">
        <ele>178.8</ele>
        <time>2024-09-07T09:27:29Z</time>
      </trkpt>
      <trkpt lat="48.07136" lon="-3.66056">
        <ele>178.6</ele>
        <time>2024-09-07T09:27:30Z</time>
      </trkpt>
      <trkpt lat="48.07139" lon="-3.66063">
        <ele>178.6</ele>
        <time>2024-09-07T09:27:31Z</time>
      </trkpt>
      <trkpt lat="48.07142" lon="-3.66069">
        <ele>178.6</ele>
        <time>2024-09-07T09:27:32Z</time>
      </trkpt>
      <trkpt lat="48.07145" lon="-3.66075">
        <ele>178.6</ele>
        <time>2024-09-07T09:27:33Z</time>
      </trkpt>
      <trkpt lat="48.07149" lon="-3.66083">
        <ele>178.4</ele>
        <time>2024-09-07T09:27:34Z</time>
      </trkpt>
      <trkpt lat="48.07151" lon="-3.66088">
        <ele>178.2</ele>
        <time>2024-09-07T09:27:35Z</time>
      </trkpt>
      <trkpt lat="48.07153" lon="-3.66095">
        <ele>178</ele>
        <time>2024-09-07T09:27:36Z</time>
      </trkpt>
      <trkpt lat="48.07155" lon="-3.66102">
        <ele>178</ele>
        <time>2024-09-07T09:27:37Z</time>
      </trkpt>
      <trkpt lat="48.07157" lon="-3.66108">
        <ele>177.8</ele>
        <time>2024-09-07T09:27:38Z</time>
      </trkpt>
      <trkpt lat="48.07161" lon="-3.66114">
        <ele>177.6</ele>
        <time>2024-09-07T09:27:39Z</time>
      </trkpt>
      <trkpt lat="48.07164" lon="-3.66121">
        <ele>177.4</ele>
        <time>2024-09-07T09:27:40Z</time>
      </trkpt>
      <trkpt lat="48.07167" lon="-3.66127">
        <ele>177.2</ele>
        <time>2024-09-07T09:27:41Z</time>
      </trkpt>
      <trkpt lat="48.0717" lon="-3.66132">
        <ele>177.2</ele>
        <time>2024-09-07T09:27:42Z</time>
      </trkpt>
      <trkpt lat="48.07173" lon="-3.66139">
        <ele>177</ele>
        <time>2024-09-07T09:27:43Z</time>
      </trkpt>
      <trkpt lat="48.07176" lon="-3.66143">
        <ele>177</ele>
        <time>2024-09-07T09:27:44Z</time>
      </trkpt>
      <trkpt lat="48.07179" lon="-3.6615">
        <ele>177</ele>
        <time>2024-09-07T09:27:45Z</time>
      </trkpt>
      <trkpt lat="48.07182" lon="-3.66156">
        <ele>177</ele>
        <time>2024-09-07T09:27:46Z</time>
      </trkpt>
      <trkpt lat="48.07184" lon="-3.6616">
        <ele>176.8</ele>
        <time>2024-09-07T09:27:47Z</time>
      </trkpt>
      <trkpt lat="48.07187" lon="-3.66164">
        <ele>176.6</ele>
        <time>2024-09-07T09:27:48Z</time>
      </trkpt>
      <trkpt lat="48.07189" lon="-3.66168">
        <ele>176.6</ele>
        <time>2024-09-07T09:27:49Z</time>
      </trkpt>
      <trkpt lat="48.07192" lon="-3.66171">
        <ele>176.6</ele>
        <time>2024-09-07T09:27:50Z</time>
      </trkpt>
      <trkpt lat="48.07194" lon="-3.66174">
        <ele>176.4</ele>
        <time>2024-09-07T09:27:51Z</time>
      </trkpt>
      <trkpt lat="48.07195" lon="-3.66177">
        <ele>176.2</ele>
        <time>2024-09-07T09:27:52Z</time>
      </trkpt>
      <trkpt lat="48.07196" lon="-3.66179">
        <ele>176</ele>
        <time>2024-09-07T09:27:53Z</time>
      </trkpt>
      <trkpt lat="48.07198" lon="-3.6618">
        <ele>176</ele>
        <time>2024-09-07T09:27:54Z</time>
      </trkpt>
      <trkpt lat="48.07199" lon="-3.66181">
        <ele>175.8</ele>
        <time>2024-09-07T09:27:55Z</time>
      </trkpt>
      <trkpt lat="48.07201" lon="-3.66182">
        <ele>175.8</ele>
        <time>2024-09-07T09:27:56Z</time>
      </trkpt>
      <trkpt lat="48.07204" lon="-3.66183">
        <ele>175.6</ele>
        <time>2024-09-07T09:27:57Z</time>
      </trkpt>
      <trkpt lat="48.07206" lon="-3.66184">
        <ele>175.4</ele>
        <time>2024-09-07T09:27:58Z</time>
      </trkpt>
      <trkpt lat="48.07211" lon="-3.66189">
        <ele>174.8</ele>
        <time>2024-09-07T09:27:59Z</time>
      </trkpt>
      <trkpt lat="48.07215" lon="-3.66193">
        <ele>174.8</ele>
        <time>2024-09-07T09:28:00Z</time>
      </trkpt>
      <trkpt lat="48.0722" lon="-3.66199">
        <ele>174.6</ele>
        <time>2024-09-07T09:28:01Z</time>
      </trkpt>
      <trkpt lat="48.07225" lon="-3.66205">
        <ele>174.4</ele>
        <time>2024-09-07T09:28:02Z</time>
      </trkpt>
      <trkpt lat="48.0723" lon="-3.6621">
        <ele>174.4</ele>
        <time>2024-09-07T09:28:03Z</time>
      </trkpt>
      <trkpt lat="48.07236" lon="-3.66214">
        <ele>174.2</ele>
        <time>2024-09-07T09:28:04Z</time>
      </trkpt>
      <trkpt lat="48.07241" lon="-3.66218">
        <ele>174.2</ele>
        <time>2024-09-07T09:28:05Z</time>
      </trkpt>
      <trkpt lat="48.07245" lon="-3.66222">
        <ele>174.2</ele>
        <time>2024-09-07T09:28:06Z</time>
      </trkpt>
      <trkpt lat="48.07249" lon="-3.66224">
        <ele>174.2</ele>
        <time>2024-09-07T09:28:07Z</time>
      </trkpt>
      <trkpt lat="48.07252" lon="-3.66226">
        <ele>174.2</ele>
        <time>2024-09-07T09:28:08Z</time>
      </trkpt>
      <trkpt lat="48.07255" lon="-3.66229">
        <ele>174.2</ele>
        <time>2024-09-07T09:28:09Z</time>
      </trkpt>
      <trkpt lat="48.07259" lon="-3.66232">
        <ele>174.2</ele>
        <time>2024-09-07T09:28:10Z</time>
      </trkpt>
      <trkpt lat="48.07264" lon="-3.66234">
        <ele>174</ele>
        <time>2024-09-07T09:28:11Z</time>
      </trkpt>
      <trkpt lat="48.07269" lon="-3.66236">
        <ele>173.8</ele>
        <time>2024-09-07T09:28:12Z</time>
      </trkpt>
      <trkpt lat="48.07273" lon="-3.6624">
        <ele>173.8</ele>
        <time>2024-09-07T09:28:13Z</time>
      </trkpt>
      <trkpt lat="48.07276" lon="-3.66242">
        <ele>173.8</ele>
        <time>2024-09-07T09:28:14Z</time>
      </trkpt>
      <trkpt lat="48.07279" lon="-3.66244">
        <ele>173.8</ele>
        <time>2024-09-07T09:28:15Z</time>
      </trkpt>
      <trkpt lat="48.07283" lon="-3.66246">
        <ele>173.6</ele>
        <time>2024-09-07T09:28:16Z</time>
      </trkpt>
      <trkpt lat="48.07288" lon="-3.66249">
        <ele>173.4</ele>
        <time>2024-09-07T09:28:17Z</time>
      </trkpt>
      <trkpt lat="48.07291" lon="-3.66252">
        <ele>173.4</ele>
        <time>2024-09-07T09:28:18Z</time>
      </trkpt>
      <trkpt lat="48.07295" lon="-3.66254">
        <ele>173.4</ele>
        <time>2024-09-07T09:28:19Z</time>
      </trkpt>
      <trkpt lat="48.07299" lon="-3.66256">
        <ele>173.2</ele>
        <time>2024-09-07T09:28:20Z</time>
      </trkpt>
      <trkpt lat="48.07302" lon="-3.66259">
        <ele>173.2</ele>
        <time>2024-09-07T09:28:21Z</time>
      </trkpt>
      <trkpt lat="48.07306" lon="-3.66261">
        <ele>173.2</ele>
        <time>2024-09-07T09:28:22Z</time>
      </trkpt>
      <trkpt lat="48.07309" lon="-3.66263">
        <ele>173</ele>
        <time>2024-09-07T09:28:23Z</time>
      </trkpt>
      <trkpt lat="48.07312" lon="-3.66265">
        <ele>173</ele>
        <time>2024-09-07T09:28:24Z</time>
      </trkpt>
      <trkpt lat="48.07315" lon="-3.66267">
        <ele>172.8</ele>
        <time>2024-09-07T09:28:25Z</time>
      </trkpt>
      <trkpt lat="48.07318" lon="-3.66269">
        <ele>172.6</ele>
        <time>2024-09-07T09:28:26Z</time>
      </trkpt>
      <trkpt lat="48.07322" lon="-3.66271">
        <ele>172.4</ele>
        <time>2024-09-07T09:28:27Z</time>
      </trkpt>
      <trkpt lat="48.07327" lon="-3.66274">
        <ele>172.4</ele>
        <time>2024-09-07T09:28:28Z</time>
      </trkpt>
      <trkpt lat="48.07331" lon="-3.66276">
        <ele>172.4</ele>
        <time>2024-09-07T09:28:29Z</time>
      </trkpt>
      <trkpt lat="48.07336" lon="-3.66279">
        <ele>172.2</ele>
        <time>2024-09-07T09:28:30Z</time>
      </trkpt>
      <trkpt lat="48.0734" lon="-3.66282">
        <ele>172.2</ele>
        <time>2024-09-07T09:28:31Z</time>
      </trkpt>
      <trkpt lat="48.07346" lon="-3.66286">
        <ele>172</ele>
        <time>2024-09-07T09:28:32Z</time>
      </trkpt>
      <trkpt lat="48.07351" lon="-3.6629">
        <ele>172</ele>
        <time>2024-09-07T09:28:33Z</time>
      </trkpt>
      <trkpt lat="48.07356" lon="-3.66292">
        <ele>172</ele>
        <time>2024-09-07T09:28:34Z</time>
      </trkpt>
      <trkpt lat="48.07361" lon="-3.66296">
        <ele>172</ele>
        <time>2024-09-07T09:28:35Z</time>
      </trkpt>
      <trkpt lat="48.07365" lon="-3.66298">
        <ele>171.8</ele>
        <time>2024-09-07T09:28:36Z</time>
      </trkpt>
      <trkpt lat="48.0737" lon="-3.663">
        <ele>171.8</ele>
        <time>2024-09-07T09:28:37Z</time>
      </trkpt>
      <trkpt lat="48.07375" lon="-3.66303">
        <ele>171.6</ele>
        <time>2024-09-07T09:28:38Z</time>
      </trkpt>
      <trkpt lat="48.0738" lon="-3.66306">
        <ele>171.6</ele>
        <time>2024-09-07T09:28:39Z</time>
      </trkpt>
      <trkpt lat="48.07384" lon="-3.66309">
        <ele>171.4</ele>
        <time>2024-09-07T09:28:40Z</time>
      </trkpt>
      <trkpt lat="48.0739" lon="-3.66312">
        <ele>171.2</ele>
        <time>2024-09-07T09:28:41Z</time>
      </trkpt>
      <trkpt lat="48.07395" lon="-3.66314">
        <ele>171</ele>
        <time>2024-09-07T09:28:42Z</time>
      </trkpt>
      <trkpt lat="48.07401" lon="-3.66316">
        <ele>170.6</ele>
        <time>2024-09-07T09:28:43Z</time>
      </trkpt>
      <trkpt lat="48.07407" lon="-3.6632">
        <ele>170.4</ele>
        <time>2024-09-07T09:28:44Z</time>
      </trkpt>
      <trkpt lat="48.07413" lon="-3.66326">
        <ele>170.2</ele>
        <time>2024-09-07T09:28:45Z</time>
      </trkpt>
      <trkpt lat="48.07419" lon="-3.66329">
        <ele>170.2</ele>
        <time>2024-09-07T09:28:46Z</time>
      </trkpt>
      <trkpt lat="48.07425" lon="-3.66332">
        <ele>170</ele>
        <time>2024-09-07T09:28:47Z</time>
      </trkpt>
      <trkpt lat="48.0743" lon="-3.66333">
        <ele>170</ele>
        <time>2024-09-07T09:28:48Z</time>
      </trkpt>
      <trkpt lat="48.07435" lon="-3.66334">
        <ele>170</ele>
        <time>2024-09-07T09:28:49Z</time>
      </trkpt>
      <trkpt lat="48.07441" lon="-3.66335">
        <ele>170</ele>
        <time>2024-09-07T09:28:50Z</time>
      </trkpt>
      <trkpt lat="48.07447" lon="-3.66335">
        <ele>169.8</ele>
        <time>2024-09-07T09:28:51Z</time>
      </trkpt>
      <trkpt lat="48.07453" lon="-3.66336">
        <ele>169.8</ele>
        <time>2024-09-07T09:28:52Z</time>
      </trkpt>
      <trkpt lat="48.07459" lon="-3.66336">
        <ele>169.8</ele>
        <time>2024-09-07T09:28:53Z</time>
      </trkpt>
      <trkpt lat="48.07465" lon="-3.66335">
        <ele>169.6</ele>
        <time>2024-09-07T09:28:54Z</time>
      </trkpt>
      <trkpt lat="48.07471" lon="-3.66335">
        <ele>169.4</ele>
        <time>2024-09-07T09:28:55Z</time>
      </trkpt>
      <trkpt lat="48.07477" lon="-3.66337">
        <ele>169.2</ele>
        <time>2024-09-07T09:28:56Z</time>
      </trkpt>
      <trkpt lat="48.07481" lon="-3.66337">
        <ele>169</ele>
        <time>2024-09-07T09:28:57Z</time>
      </trkpt>
      <trkpt lat="48.07486" lon="-3.66337">
        <ele>169</ele>
        <time>2024-09-07T09:28:58Z</time>
      </trkpt>
      <trkpt lat="48.07491" lon="-3.66335">
        <ele>168.8</ele>
        <time>2024-09-07T09:28:59Z</time>
      </trkpt>
      <trkpt lat="48.07498" lon="-3.66333">
        <ele>168.8</ele>
        <time>2024-09-07T09:29:00Z</time>
      </trkpt>
      <trkpt lat="48.07504" lon="-3.66332">
        <ele>168.6</ele>
        <time>2024-09-07T09:29:01Z</time>
      </trkpt>
      <trkpt lat="48.0751" lon="-3.6633">
        <ele>168.4</ele>
        <time>2024-09-07T09:29:02Z</time>
      </trkpt>
      <trkpt lat="48.07515" lon="-3.66327">
        <ele>168.4</ele>
        <time>2024-09-07T09:29:03Z</time>
      </trkpt>
      <trkpt lat="48.07521" lon="-3.66324">
        <ele>168.2</ele>
        <time>2024-09-07T09:29:04Z</time>
      </trkpt>
      <trkpt lat="48.07526" lon="-3.66321">
        <ele>168.2</ele>
        <time>2024-09-07T09:29:05Z</time>
      </trkpt>
      <trkpt lat="48.07531" lon="-3.66318">
        <ele>168</ele>
        <time>2024-09-07T09:29:06Z</time>
      </trkpt>
      <trkpt lat="48.07536" lon="-3.66315">
        <ele>168</ele>
        <time>2024-09-07T09:29:07Z</time>
      </trkpt>
      <trkpt lat="48.07542" lon="-3.66312">
        <ele>167.8</ele>
        <time>2024-09-07T09:29:08Z</time>
      </trkpt>
      <trkpt lat="48.07547" lon="-3.66308">
        <ele>167.8</ele>
        <time>2024-09-07T09:29:09Z</time>
      </trkpt>
      <trkpt lat="48.07551" lon="-3.66305">
        <ele>167.8</ele>
        <time>2024-09-07T09:29:10Z</time>
      </trkpt>
      <trkpt lat="48.07556" lon="-3.66301">
        <ele>167.4</ele>
        <time>2024-09-07T09:29:11Z</time>
      </trkpt>
      <trkpt lat="48.07561" lon="-3.66298">
        <ele>167.2</ele>
        <time>2024-09-07T09:29:12Z</time>
      </trkpt>
      <trkpt lat="48.07565" lon="-3.66294">
        <ele>167</ele>
        <time>2024-09-07T09:29:13Z</time>
      </trkpt>
      <trkpt lat="48.0757" lon="-3.6629">
        <ele>166.8</ele>
        <time>2024-09-07T09:29:14Z</time>
      </trkpt>
      <trkpt lat="48.07574" lon="-3.66286">
        <ele>166.8</ele>
        <time>2024-09-07T09:29:15Z</time>
      </trkpt>
      <trkpt lat="48.07578" lon="-3.66283">
        <ele>166.8</ele>
        <time>2024-09-07T09:29:16Z</time>
      </trkpt>
      <trkpt lat="48.07582" lon="-3.66279">
        <ele>166.6</ele>
        <time>2024-09-07T09:29:17Z</time>
      </trkpt>
      <trkpt lat="48.07587" lon="-3.66275">
        <ele>166.6</ele>
        <time>2024-09-07T09:29:18Z</time>
      </trkpt>
      <trkpt lat="48.07591" lon="-3.66271">
        <ele>166.4</ele>
        <time>2024-09-07T09:29:19Z</time>
      </trkpt>
      <trkpt lat="48.07597" lon="-3.66266">
        <ele>166.2</ele>
        <time>2024-09-07T09:29:20Z</time>
      </trkpt>
      <trkpt lat="48.07602" lon="-3.66262">
        <ele>166.2</ele>
        <time>2024-09-07T09:29:21Z</time>
      </trkpt>
      <trkpt lat="48.07607" lon="-3.66259">
        <ele>166</ele>
        <time>2024-09-07T09:29:22Z</time>
      </trkpt>
      <trkpt lat="48.07612" lon="-3.66255">
        <ele>166</ele>
        <time>2024-09-07T09:29:23Z</time>
      </trkpt>
      <trkpt lat="48.07617" lon="-3.66251">
        <ele>165.8</ele>
        <time>2024-09-07T09:29:24Z</time>
      </trkpt>
      <trkpt lat="48.07622" lon="-3.66246">
        <ele>165.8</ele>
        <time>2024-09-07T09:29:25Z</time>
      </trkpt>
      <trkpt lat="48.07627" lon="-3.66242">
        <ele>165.6</ele>
        <time>2024-09-07T09:29:26Z</time>
      </trkpt>
      <trkpt lat="48.07632" lon="-3.66237">
        <ele>165.6</ele>
        <time>2024-09-07T09:29:27Z</time>
      </trkpt>
      <trkpt lat="48.07637" lon="-3.66231">
        <ele>165.4</ele>
        <time>2024-09-07T09:29:28Z</time>
      </trkpt>
      <trkpt lat="48.07642" lon="-3.66225">
        <ele>165.4</ele>
        <time>2024-09-07T09:29:29Z</time>
      </trkpt>
      <trkpt lat="48.07646" lon="-3.6622">
        <ele>165.2</ele>
        <time>2024-09-07T09:29:30Z</time>
      </trkpt>
      <trkpt lat="48.0765" lon="-3.66215">
        <ele>165</ele>
        <time>2024-09-07T09:29:31Z</time>
      </trkpt>
      <trkpt lat="48.07655" lon="-3.6621">
        <ele>164.8</ele>
        <time>2024-09-07T09:29:32Z</time>
      </trkpt>
      <trkpt lat="48.07658" lon="-3.66205">
        <ele>164.8</ele>
        <time>2024-09-07T09:29:33Z</time>
      </trkpt>
      <trkpt lat="48.07663" lon="-3.66199">
        <ele>164.4</ele>
        <time>2024-09-07T09:29:34Z</time>
      </trkpt>
      <trkpt lat="48.07666" lon="-3.66193">
        <ele>164.2</ele>
        <time>2024-09-07T09:29:35Z</time>
      </trkpt>
      <trkpt lat="48.0767" lon="-3.66187">
        <ele>164.2</ele>
        <time>2024-09-07T09:29:36Z</time>
      </trkpt>
      <trkpt lat="48.07675" lon="-3.66179">
        <ele>164.2</ele>
        <time>2024-09-07T09:29:37Z</time>
      </trkpt>
      <trkpt lat="48.0768" lon="-3.6617">
        <ele>163.8</ele>
        <time>2024-09-07T09:29:38Z</time>
      </trkpt>
      <trkpt lat="48.07684" lon="-3.66162">
        <ele>163.6</ele>
        <time>2024-09-07T09:29:39Z</time>
      </trkpt>
      <trkpt lat="48.07688" lon="-3.66154">
        <ele>163.4</ele>
        <time>2024-09-07T09:29:40Z</time>
      </trkpt>
      <trkpt lat="48.07692" lon="-3.66146">
        <ele>163.2</ele>
        <time>2024-09-07T09:29:41Z</time>
      </trkpt>
      <trkpt lat="48.07696" lon="-3.66138">
        <ele>163.2</ele>
        <time>2024-09-07T09:29:42Z</time>
      </trkpt>
      <trkpt lat="48.077" lon="-3.66129">
        <ele>163</ele>
        <time>2024-09-07T09:29:43Z</time>
      </trkpt>
      <trkpt lat="48.07704" lon="-3.66121">
        <ele>163</ele>
        <time>2024-09-07T09:29:44Z</time>
      </trkpt>
      <trkpt lat="48.07707" lon="-3.66114">
        <ele>162.8</ele>
        <time>2024-09-07T09:29:45Z</time>
      </trkpt>
      <trkpt lat="48.07711" lon="-3.66106">
        <ele>162.8</ele>
        <time>2024-09-07T09:29:46Z</time>
      </trkpt>
      <trkpt lat="48.07713" lon="-3.66099">
        <ele>162.6</ele>
        <time>2024-09-07T09:29:47Z</time>
      </trkpt>
      <trkpt lat="48.07715" lon="-3.66091">
        <ele>162.6</ele>
        <time>2024-09-07T09:29:48Z</time>
      </trkpt>
      <trkpt lat="48.07719" lon="-3.66082">
        <ele>162.4</ele>
        <time>2024-09-07T09:29:49Z</time>
      </trkpt>
      <trkpt lat="48.07722" lon="-3.66075">
        <ele>162.4</ele>
        <time>2024-09-07T09:29:50Z</time>
      </trkpt>
      <trkpt lat="48.07725" lon="-3.66068">
        <ele>162.2</ele>
        <time>2024-09-07T09:29:51Z</time>
      </trkpt>
      <trkpt lat="48.07729" lon="-3.66061">
        <ele>162</ele>
        <time>2024-09-07T09:29:52Z</time>
      </trkpt>
      <trkpt lat="48.07732" lon="-3.66053">
        <ele>161.8</ele>
        <time>2024-09-07T09:29:53Z</time>
      </trkpt>
      <trkpt lat="48.07736" lon="-3.66044">
        <ele>161.6</ele>
        <time>2024-09-07T09:29:54Z</time>
      </trkpt>
      <trkpt lat="48.0774" lon="-3.66034">
        <ele>161.6</ele>
        <time>2024-09-07T09:29:55Z</time>
      </trkpt>
      <trkpt lat="48.07744" lon="-3.66025">
        <ele>161.4</ele>
        <time>2024-09-07T09:29:56Z</time>
      </trkpt>
      <trkpt lat="48.0775" lon="-3.66016">
        <ele>161.2</ele>
        <time>2024-09-07T09:29:57Z</time>
      </trkpt>
      <trkpt lat="48.07754" lon="-3.66007">
        <ele>161</ele>
        <time>2024-09-07T09:29:58Z</time>
      </trkpt>
      <trkpt lat="48.07758" lon="-3.65998">
        <ele>160.8</ele>
        <time>2024-09-07T09:29:59Z</time>
      </trkpt>
      <trkpt lat="48.07763" lon="-3.6599">
        <ele>160.6</ele>
        <time>2024-09-07T09:30:00Z</time>
      </trkpt>
      <trkpt lat="48.07764" lon="-3.65984">
        <ele>160.6</ele>
        <time>2024-09-07T09:30:01Z</time>
      </trkpt>
      <trkpt lat="48.07765" lon="-3.65978">
        <ele>160.4</ele>
        <time>2024-09-07T09:30:02Z</time>
      </trkpt>
      <trkpt lat="48.07766" lon="-3.65972">
        <ele>160.4</ele>
        <time>2024-09-07T09:30:03Z</time>
      </trkpt>
      <trkpt lat="48.07768" lon="-3.65967">
        <ele>160.4</ele>
        <time>2024-09-07T09:30:04Z</time>
      </trkpt>
      <trkpt lat="48.07771" lon="-3.65962">
        <ele>160.2</ele>
        <time>2024-09-07T09:30:05Z</time>
      </trkpt>
      <trkpt lat="48.07775" lon="-3.65957">
        <ele>160</ele>
        <time>2024-09-07T09:30:06Z</time>
      </trkpt>
      <trkpt lat="48.07778" lon="-3.65951">
        <ele>159.8</ele>
        <time>2024-09-07T09:30:07Z</time>
      </trkpt>
      <trkpt lat="48.07782" lon="-3.65946">
        <ele>159.8</ele>
        <time>2024-09-07T09:30:08Z</time>
      </trkpt>
      <trkpt lat="48.07785" lon="-3.65939">
        <ele>159.8</ele>
        <time>2024-09-07T09:30:09Z</time>
      </trkpt>
      <trkpt lat="48.07788" lon="-3.65934">
        <ele>159.8</ele>
        <time>2024-09-07T09:30:10Z</time>
      </trkpt>
      <trkpt lat="48.07792" lon="-3.65928">
        <ele>159.6</ele>
        <time>2024-09-07T09:30:11Z</time>
      </trkpt>
      <trkpt lat="48.07796" lon="-3.65922">
        <ele>159.4</ele>
        <time>2024-09-07T09:30:12Z</time>
      </trkpt>
      <trkpt lat="48.078" lon="-3.65916">
        <ele>159.4</ele>
        <time>2024-09-07T09:30:13Z</time>
      </trkpt>
      <trkpt lat="48.07805" lon="-3.65909">
        <ele>159.2</ele>
        <time>2024-09-07T09:30:14Z</time>
      </trkpt>
      <trkpt lat="48.07809" lon="-3.65903">
        <ele>159</ele>
        <time>2024-09-07T09:30:15Z</time>
      </trkpt>
      <trkpt lat="48.07814" lon="-3.65897">
        <ele>158.8</ele>
        <time>2024-09-07T09:30:16Z</time>
      </trkpt>
      <trkpt lat="48.07819" lon="-3.6589">
        <ele>158.6</ele>
        <time>2024-09-07T09:30:17Z</time>
      </trkpt>
      <trkpt lat="48.07824" lon="-3.65883">
        <ele>158.6</ele>
        <time>2024-09-07T09:30:18Z</time>
      </trkpt>
      <trkpt lat="48.07828" lon="-3.65877">
        <ele>158.2</ele>
        <time>2024-09-07T09:30:19Z</time>
      </trkpt>
      <trkpt lat="48.07833" lon="-3.65871">
        <ele>158</ele>
        <time>2024-09-07T09:30:20Z</time>
      </trkpt>
      <trkpt lat="48.07837" lon="-3.65865">
        <ele>157.8</ele>
        <time>2024-09-07T09:30:21Z</time>
      </trkpt>
      <trkpt lat="48.07841" lon="-3.6586">
        <ele>157.8</ele>
        <time>2024-09-07T09:30:22Z</time>
      </trkpt>
      <trkpt lat="48.07845" lon="-3.65854">
        <ele>157.6</ele>
        <time>2024-09-07T09:30:23Z</time>
      </trkpt>
      <trkpt lat="48.0785" lon="-3.65849">
        <ele>157.4</ele>
        <time>2024-09-07T09:30:24Z</time>
      </trkpt>
      <trkpt lat="48.07854" lon="-3.65844">
        <ele>157.2</ele>
        <time>2024-09-07T09:30:25Z</time>
      </trkpt>
      <trkpt lat="48.07859" lon="-3.65838">
        <ele>157</ele>
        <time>2024-09-07T09:30:26Z</time>
      </trkpt>
      <trkpt lat="48.07863" lon="-3.65833">
        <ele>156.8</ele>
        <time>2024-09-07T09:30:27Z</time>
      </trkpt>
      <trkpt lat="48.07867" lon="-3.65827">
        <ele>156.8</ele>
        <time>2024-09-07T09:30:28Z</time>
      </trkpt>
      <trkpt lat="48.07872" lon="-3.65822">
        <ele>156.8</ele>
        <time>2024-09-07T09:30:29Z</time>
      </trkpt>
      <trkpt lat="48.07876" lon="-3.65816">
        <ele>156.4</ele>
        <time>2024-09-07T09:30:30Z</time>
      </trkpt>
      <trkpt lat="48.0788" lon="-3.65811">
        <ele>156.2</ele>
        <time>2024-09-07T09:30:31Z</time>
      </trkpt>
      <trkpt lat="48.07885" lon="-3.65806">
        <ele>156.2</ele>
        <time>2024-09-07T09:30:32Z</time>
      </trkpt>
      <trkpt lat="48.07888" lon="-3.65802">
        <ele>156</ele>
        <time>2024-09-07T09:30:33Z</time>
      </trkpt>
      <trkpt lat="48.07893" lon="-3.65796">
        <ele>155.8</ele>
        <time>2024-09-07T09:30:34Z</time>
      </trkpt>
      <trkpt lat="48.07898" lon="-3.65791">
        <ele>155.8</ele>
        <time>2024-09-07T09:30:35Z</time>
      </trkpt>
      <trkpt lat="48.07903" lon="-3.65785">
        <ele>155.6</ele>
        <time>2024-09-07T09:30:36Z</time>
      </trkpt>
      <trkpt lat="48.07908" lon="-3.65778">
        <ele>155.6</ele>
        <time>2024-09-07T09:30:37Z</time>
      </trkpt>
      <trkpt lat="48.07913" lon="-3.65771">
        <ele>155.4</ele>
        <time>2024-09-07T09:30:38Z</time>
      </trkpt>
      <trkpt lat="48.07918" lon="-3.65765">
        <ele>155.4</ele>
        <time>2024-09-07T09:30:39Z</time>
      </trkpt>
      <trkpt lat="48.07923" lon="-3.65758">
        <ele>155</ele>
        <time>2024-09-07T09:30:40Z</time>
      </trkpt>
      <trkpt lat="48.07927" lon="-3.65752">
        <ele>154.6</ele>
        <time>2024-09-07T09:30:41Z</time>
      </trkpt>
      <trkpt lat="48.07932" lon="-3.65746">
        <ele>154.6</ele>
        <time>2024-09-07T09:30:42Z</time>
      </trkpt>
      <trkpt lat="48.07936" lon="-3.6574">
        <ele>154.4</ele>
        <time>2024-09-07T09:30:43Z</time>
      </trkpt>
      <trkpt lat="48.0794" lon="-3.65734">
        <ele>154.2</ele>
        <time>2024-09-07T09:30:44Z</time>
      </trkpt>
      <trkpt lat="48.07945" lon="-3.65727">
        <ele>154.2</ele>
        <time>2024-09-07T09:30:45Z</time>
      </trkpt>
      <trkpt lat="48.07949" lon="-3.65722">
        <ele>153.8</ele>
        <time>2024-09-07T09:30:46Z</time>
      </trkpt>
      <trkpt lat="48.07953" lon="-3.65716">
        <ele>153.8</ele>
        <time>2024-09-07T09:30:47Z</time>
      </trkpt>
      <trkpt lat="48.07957" lon="-3.6571">
        <ele>153.6</ele>
        <time>2024-09-07T09:30:48Z</time>
      </trkpt>
      <trkpt lat="48.07962" lon="-3.65703">
        <ele>153.6</ele>
        <time>2024-09-07T09:30:49Z</time>
      </trkpt>
      <trkpt lat="48.07966" lon="-3.65697">
        <ele>153.6</ele>
        <time>2024-09-07T09:30:50Z</time>
      </trkpt>
      <trkpt lat="48.0797" lon="-3.65692">
        <ele>153.4</ele>
        <time>2024-09-07T09:30:51Z</time>
      </trkpt>
      <trkpt lat="48.07975" lon="-3.65685">
        <ele>153.4</ele>
        <time>2024-09-07T09:30:52Z</time>
      </trkpt>
      <trkpt lat="48.0798" lon="-3.65679">
        <ele>153</ele>
        <time>2024-09-07T09:30:53Z</time>
      </trkpt>
      <trkpt lat="48.07985" lon="-3.65673">
        <ele>152.6</ele>
        <time>2024-09-07T09:30:54Z</time>
      </trkpt>
      <trkpt lat="48.07989" lon="-3.65666">
        <ele>152.6</ele>
        <time>2024-09-07T09:30:55Z</time>
      </trkpt>
      <trkpt lat="48.07993" lon="-3.65659">
        <ele>152.2</ele>
        <time>2024-09-07T09:30:56Z</time>
      </trkpt>
      <trkpt lat="48.07997" lon="-3.65653">
        <ele>152.2</ele>
        <time>2024-09-07T09:30:57Z</time>
      </trkpt>
      <trkpt lat="48.08001" lon="-3.65647">
        <ele>152</ele>
        <time>2024-09-07T09:30:58Z</time>
      </trkpt>
      <trkpt lat="48.08006" lon="-3.65641">
        <ele>152</ele>
        <time>2024-09-07T09:30:59Z</time>
      </trkpt>
      <trkpt lat="48.0801" lon="-3.65635">
        <ele>151.8</ele>
        <time>2024-09-07T09:31:00Z</time>
      </trkpt>
      <trkpt lat="48.08015" lon="-3.65629">
        <ele>151.8</ele>
        <time>2024-09-07T09:31:01Z</time>
      </trkpt>
      <trkpt lat="48.08019" lon="-3.65625">
        <ele>151.6</ele>
        <time>2024-09-07T09:31:02Z</time>
      </trkpt>
      <trkpt lat="48.08025" lon="-3.6562">
        <ele>151.6</ele>
        <time>2024-09-07T09:31:03Z</time>
      </trkpt>
      <trkpt lat="48.08029" lon="-3.65616">
        <ele>151.6</ele>
        <time>2024-09-07T09:31:04Z</time>
      </trkpt>
      <trkpt lat="48.08032" lon="-3.65613">
        <ele>151.4</ele>
        <time>2024-09-07T09:31:05Z</time>
      </trkpt>
      <trkpt lat="48.08036" lon="-3.6561">
        <ele>151.4</ele>
        <time>2024-09-07T09:31:06Z</time>
      </trkpt>
      <trkpt lat="48.08041" lon="-3.65607">
        <ele>151.2</ele>
        <time>2024-09-07T09:31:07Z</time>
      </trkpt>
      <trkpt lat="48.08045" lon="-3.65603">
        <ele>151.2</ele>
        <time>2024-09-07T09:31:08Z</time>
      </trkpt>
      <trkpt lat="48.0805" lon="-3.656">
        <ele>150.8</ele>
        <time>2024-09-07T09:31:09Z</time>
      </trkpt>
      <trkpt lat="48.08055" lon="-3.65596">
        <ele>150.6</ele>
        <time>2024-09-07T09:31:10Z</time>
      </trkpt>
      <trkpt lat="48.08059" lon="-3.65593">
        <ele>150.6</ele>
        <time>2024-09-07T09:31:11Z</time>
      </trkpt>
      <trkpt lat="48.08064" lon="-3.6559">
        <ele>150.4</ele>
        <time>2024-09-07T09:31:12Z</time>
      </trkpt>
      <trkpt lat="48.08068" lon="-3.65587">
        <ele>150.4</ele>
        <time>2024-09-07T09:31:13Z</time>
      </trkpt>
      <trkpt lat="48.08073" lon="-3.65583">
        <ele>150.2</ele>
        <time>2024-09-07T09:31:14Z</time>
      </trkpt>
      <trkpt lat="48.08078" lon="-3.65579">
        <ele>150.2</ele>
        <time>2024-09-07T09:31:15Z</time>
      </trkpt>
      <trkpt lat="48.08084" lon="-3.65575">
        <ele>150</ele>
        <time>2024-09-07T09:31:16Z</time>
      </trkpt>
      <trkpt lat="48.08089" lon="-3.65571">
        <ele>149.8</ele>
        <time>2024-09-07T09:31:17Z</time>
      </trkpt>
      <trkpt lat="48.08095" lon="-3.65568">
        <ele>149.8</ele>
        <time>2024-09-07T09:31:18Z</time>
      </trkpt>
      <trkpt lat="48.081" lon="-3.65565">
        <ele>149.6</ele>
        <time>2024-09-07T09:31:19Z</time>
      </trkpt>
      <trkpt lat="48.08105" lon="-3.65562">
        <ele>149.6</ele>
        <time>2024-09-07T09:31:20Z</time>
      </trkpt>
      <trkpt lat="48.08111" lon="-3.65559">
        <ele>149.4</ele>
        <time>2024-09-07T09:31:21Z</time>
      </trkpt>
      <trkpt lat="48.08117" lon="-3.65555">
        <ele>149.4</ele>
        <time>2024-09-07T09:31:22Z</time>
      </trkpt>
      <trkpt lat="48.08123" lon="-3.65551">
        <ele>149.2</ele>
        <time>2024-09-07T09:31:23Z</time>
      </trkpt>
      <trkpt lat="48.08129" lon="-3.65548">
        <ele>149</ele>
        <time>2024-09-07T09:31:24Z</time>
      </trkpt>
      <trkpt lat="48.08136" lon="-3.65544">
        <ele>149</ele>
        <time>2024-09-07T09:31:25Z</time>
      </trkpt>
      <trkpt lat="48.08142" lon="-3.6554">
        <ele>148.8</ele>
        <time>2024-09-07T09:31:26Z</time>
      </trkpt>
      <trkpt lat="48.0815" lon="-3.65536">
        <ele>148.8</ele>
        <time>2024-09-07T09:31:27Z</time>
      </trkpt>
      <trkpt lat="48.08156" lon="-3.65532">
        <ele>148.8</ele>
        <time>2024-09-07T09:31:28Z</time>
      </trkpt>
      <trkpt lat="48.08164" lon="-3.65528">
        <ele>148.6</ele>
        <time>2024-09-07T09:31:29Z</time>
      </trkpt>
      <trkpt lat="48.08169" lon="-3.65525">
        <ele>148.6</ele>
        <time>2024-09-07T09:31:30Z</time>
      </trkpt>
      <trkpt lat="48.08175" lon="-3.6552">
        <ele>148.4</ele>
        <time>2024-09-07T09:31:31Z</time>
      </trkpt>
      <trkpt lat="48.08182" lon="-3.65516">
        <ele>148.2</ele>
        <time>2024-09-07T09:31:32Z</time>
      </trkpt>
      <trkpt lat="48.08188" lon="-3.65512">
        <ele>148.2</ele>
        <time>2024-09-07T09:31:33Z</time>
      </trkpt>
      <trkpt lat="48.08193" lon="-3.65509">
        <ele>148</ele>
        <time>2024-09-07T09:31:34Z</time>
      </trkpt>
      <trkpt lat="48.08198" lon="-3.65506">
        <ele>148</ele>
        <time>2024-09-07T09:31:35Z</time>
      </trkpt>
      <trkpt lat="48.08203" lon="-3.65502">
        <ele>147.6</ele>
        <time>2024-09-07T09:31:36Z</time>
      </trkpt>
      <trkpt lat="48.08208" lon="-3.65498">
        <ele>147.4</ele>
        <time>2024-09-07T09:31:37Z</time>
      </trkpt>
      <trkpt lat="48.08214" lon="-3.65492">
        <ele>147.2</ele>
        <time>2024-09-07T09:31:38Z</time>
      </trkpt>
      <trkpt lat="48.08221" lon="-3.65486">
        <ele>147</ele>
        <time>2024-09-07T09:31:39Z</time>
      </trkpt>
      <trkpt lat="48.08226" lon="-3.6548">
        <ele>147</ele>
        <time>2024-09-07T09:31:40Z</time>
      </trkpt>
      <trkpt lat="48.08231" lon="-3.65474">
        <ele>146.8</ele>
        <time>2024-09-07T09:31:41Z</time>
      </trkpt>
      <trkpt lat="48.08236" lon="-3.65469">
        <ele>146.8</ele>
        <time>2024-09-07T09:31:42Z</time>
      </trkpt>
      <trkpt lat="48.08242" lon="-3.65463">
        <ele>146.6</ele>
        <time>2024-09-07T09:31:43Z</time>
      </trkpt>
      <trkpt lat="48.08248" lon="-3.65457">
        <ele>146.6</ele>
        <time>2024-09-07T09:31:44Z</time>
      </trkpt>
      <trkpt lat="48.08252" lon="-3.65452">
        <ele>146.4</ele>
        <time>2024-09-07T09:31:45Z</time>
      </trkpt>
      <trkpt lat="48.08257" lon="-3.65446">
        <ele>146.2</ele>
        <time>2024-09-07T09:31:46Z</time>
      </trkpt>
      <trkpt lat="48.08262" lon="-3.65442">
        <ele>146.2</ele>
        <time>2024-09-07T09:31:47Z</time>
      </trkpt>
      <trkpt lat="48.08267" lon="-3.65436">
        <ele>146.2</ele>
        <time>2024-09-07T09:31:48Z</time>
      </trkpt>
      <trkpt lat="48.08272" lon="-3.65432">
        <ele>146</ele>
        <time>2024-09-07T09:31:49Z</time>
      </trkpt>
      <trkpt lat="48.08277" lon="-3.65427">
        <ele>145.8</ele>
        <time>2024-09-07T09:31:50Z</time>
      </trkpt>
      <trkpt lat="48.08282" lon="-3.65422">
        <ele>145.6</ele>
        <time>2024-09-07T09:31:51Z</time>
      </trkpt>
      <trkpt lat="48.08287" lon="-3.65416">
        <ele>145.6</ele>
        <time>2024-09-07T09:31:52Z</time>
      </trkpt>
      <trkpt lat="48.08292" lon="-3.65411">
        <ele>145.4</ele>
        <time>2024-09-07T09:31:53Z</time>
      </trkpt>
      <trkpt lat="48.08296" lon="-3.65406">
        <ele>145.4</ele>
        <time>2024-09-07T09:31:54Z</time>
      </trkpt>
      <trkpt lat="48.083" lon="-3.65401">
        <ele>145</ele>
        <time>2024-09-07T09:31:55Z</time>
      </trkpt>
      <trkpt lat="48.08305" lon="-3.65396">
        <ele>144.8</ele>
        <time>2024-09-07T09:31:56Z</time>
      </trkpt>
      <trkpt lat="48.08309" lon="-3.6539">
        <ele>144.8</ele>
        <time>2024-09-07T09:31:57Z</time>
      </trkpt>
      <trkpt lat="48.08313" lon="-3.65385">
        <ele>144.6</ele>
        <time>2024-09-07T09:31:58Z</time>
      </trkpt>
      <trkpt lat="48.08318" lon="-3.6538">
        <ele>144.4</ele>
        <time>2024-09-07T09:31:59Z</time>
      </trkpt>
      <trkpt lat="48.08323" lon="-3.65374">
        <ele>144.2</ele>
        <time>2024-09-07T09:32:00Z</time>
      </trkpt>
      <trkpt lat="48.08328" lon="-3.65369">
        <ele>144.2</ele>
        <time>2024-09-07T09:32:01Z</time>
      </trkpt>
      <trkpt lat="48.08333" lon="-3.65363">
        <ele>144</ele>
        <time>2024-09-07T09:32:02Z</time>
      </trkpt>
      <trkpt lat="48.08338" lon="-3.65359">
        <ele>144</ele>
        <time>2024-09-07T09:32:03Z</time>
      </trkpt>
      <trkpt lat="48.08343" lon="-3.65355">
        <ele>143.8</ele>
        <time>2024-09-07T09:32:04Z</time>
      </trkpt>
      <trkpt lat="48.08347" lon="-3.65351">
        <ele>143.8</ele>
        <time>2024-09-07T09:32:05Z</time>
      </trkpt>
      <trkpt lat="48.08351" lon="-3.65346">
        <ele>143.6</ele>
        <time>2024-09-07T09:32:06Z</time>
      </trkpt>
      <trkpt lat="48.08356" lon="-3.6534">
        <ele>143.6</ele>
        <time>2024-09-07T09:32:07Z</time>
      </trkpt>
      <trkpt lat="48.0836" lon="-3.65335">
        <ele>143.4</ele>
        <time>2024-09-07T09:32:08Z</time>
      </trkpt>
      <trkpt lat="48.08364" lon="-3.6533">
        <ele>143.4</ele>
        <time>2024-09-07T09:32:09Z</time>
      </trkpt>
      <trkpt lat="48.08368" lon="-3.65325">
        <ele>143.2</ele>
        <time>2024-09-07T09:32:10Z</time>
      </trkpt>
      <trkpt lat="48.08371" lon="-3.65321">
        <ele>143</ele>
        <time>2024-09-07T09:32:11Z</time>
      </trkpt>
      <trkpt lat="48.08373" lon="-3.65317">
        <ele>143</ele>
        <time>2024-09-07T09:32:12Z</time>
      </trkpt>
      <trkpt lat="48.08375" lon="-3.65314">
        <ele>142.8</ele>
        <time>2024-09-07T09:32:13Z</time>
      </trkpt>
      <trkpt lat="48.08377" lon="-3.65312">
        <ele>142.6</ele>
        <time>2024-09-07T09:32:14Z</time>
      </trkpt>
      <trkpt lat="48.08379" lon="-3.65309">
        <ele>142.6</ele>
        <time>2024-09-07T09:32:15Z</time>
      </trkpt>
      <trkpt lat="48.08382" lon="-3.65304">
        <ele>142.4</ele>
        <time>2024-09-07T09:32:16Z</time>
      </trkpt>
      <trkpt lat="48.08385" lon="-3.653">
        <ele>142.2</ele>
        <time>2024-09-07T09:32:17Z</time>
      </trkpt>
      <trkpt lat="48.08387" lon="-3.65295">
        <ele>142.2</ele>
        <time>2024-09-07T09:32:18Z</time>
      </trkpt>
      <trkpt lat="48.08389" lon="-3.6529">
        <ele>142</ele>
        <time>2024-09-07T09:32:19Z</time>
      </trkpt>
      <trkpt lat="48.08392" lon="-3.65284">
        <ele>142</ele>
        <time>2024-09-07T09:32:20Z</time>
      </trkpt>
      <trkpt lat="48.08396" lon="-3.65277">
        <ele>141.8</ele>
        <time>2024-09-07T09:32:21Z</time>
      </trkpt>
      <trkpt lat="48.084" lon="-3.65269">
        <ele>141.8</ele>
        <time>2024-09-07T09:32:22Z</time>
      </trkpt>
      <trkpt lat="48.08404" lon="-3.6526">
        <ele>141.8</ele>
        <time>2024-09-07T09:32:23Z</time>
      </trkpt>
      <trkpt lat="48.08407" lon="-3.65251">
        <ele>141.6</ele>
        <time>2024-09-07T09:32:24Z</time>
      </trkpt>
      <trkpt lat="48.08409" lon="-3.65243">
        <ele>141.6</ele>
        <time>2024-09-07T09:32:25Z</time>
      </trkpt>
      <trkpt lat="48.08411" lon="-3.65234">
        <ele>141.6</ele>
        <time>2024-09-07T09:32:26Z</time>
      </trkpt>
      <trkpt lat="48.08413" lon="-3.65225">
        <ele>141.6</ele>
        <time>2024-09-07T09:32:27Z</time>
      </trkpt>
      <trkpt lat="48.08415" lon="-3.65215">
        <ele>141.6</ele>
        <time>2024-09-07T09:32:28Z</time>
      </trkpt>
      <trkpt lat="48.08417" lon="-3.65206">
        <ele>141.6</ele>
        <time>2024-09-07T09:32:29Z</time>
      </trkpt>
      <trkpt lat="48.08418" lon="-3.65197">
        <ele>141.6</ele>
        <time>2024-09-07T09:32:30Z</time>
      </trkpt>
      <trkpt lat="48.0842" lon="-3.65186">
        <ele>141.4</ele>
        <time>2024-09-07T09:32:31Z</time>
      </trkpt>
      <trkpt lat="48.08421" lon="-3.65175">
        <ele>141.4</ele>
        <time>2024-09-07T09:32:32Z</time>
      </trkpt>
      <trkpt lat="48.08421" lon="-3.65165">
        <ele>141.2</ele>
        <time>2024-09-07T09:32:33Z</time>
      </trkpt>
      <trkpt lat="48.08421" lon="-3.65155">
        <ele>141.4</ele>
        <time>2024-09-07T09:32:34Z</time>
      </trkpt>
      <trkpt lat="48.08421" lon="-3.65145">
        <ele>141.4</ele>
        <time>2024-09-07T09:32:35Z</time>
      </trkpt>
      <trkpt lat="48.08422" lon="-3.65134">
        <ele>141.2</ele>
        <time>2024-09-07T09:32:36Z</time>
      </trkpt>
      <trkpt lat="48.08423" lon="-3.65122">
        <ele>141.2</ele>
        <time>2024-09-07T09:32:37Z</time>
      </trkpt>
      <trkpt lat="48.08424" lon="-3.65112">
        <ele>141.2</ele>
        <time>2024-09-07T09:32:38Z</time>
      </trkpt>
      <trkpt lat="48.08425" lon="-3.65103">
        <ele>141.2</ele>
        <time>2024-09-07T09:32:39Z</time>
      </trkpt>
      <trkpt lat="48.08425" lon="-3.65093">
        <ele>141.2</ele>
        <time>2024-09-07T09:32:40Z</time>
      </trkpt>
      <trkpt lat="48.08427" lon="-3.65082">
        <ele>141</ele>
        <time>2024-09-07T09:32:41Z</time>
      </trkpt>
      <trkpt lat="48.08428" lon="-3.65071">
        <ele>141</ele>
        <time>2024-09-07T09:32:42Z</time>
      </trkpt>
      <trkpt lat="48.08429" lon="-3.6506">
        <ele>141</ele>
        <time>2024-09-07T09:32:43Z</time>
      </trkpt>
      <trkpt lat="48.08429" lon="-3.65051">
        <ele>140.8</ele>
        <time>2024-09-07T09:32:44Z</time>
      </trkpt>
      <trkpt lat="48.0843" lon="-3.65042">
        <ele>140.6</ele>
        <time>2024-09-07T09:32:45Z</time>
      </trkpt>
      <trkpt lat="48.08431" lon="-3.65033">
        <ele>140.6</ele>
        <time>2024-09-07T09:32:46Z</time>
      </trkpt>
      <trkpt lat="48.08432" lon="-3.65024">
        <ele>140.6</ele>
        <time>2024-09-07T09:32:47Z</time>
      </trkpt>
      <trkpt lat="48.08433" lon="-3.65015">
        <ele>140.4</ele>
        <time>2024-09-07T09:32:48Z</time>
      </trkpt>
      <trkpt lat="48.08435" lon="-3.65007">
        <ele>140.4</ele>
        <time>2024-09-07T09:32:49Z</time>
      </trkpt>
      <trkpt lat="48.08435" lon="-3.64999">
        <ele>140.4</ele>
        <time>2024-09-07T09:32:50Z</time>
      </trkpt>
      <trkpt lat="48.08437" lon="-3.64991">
        <ele>140.2</ele>
        <time>2024-09-07T09:32:51Z</time>
      </trkpt>
      <trkpt lat="48.08439" lon="-3.64982">
        <ele>140</ele>
        <time>2024-09-07T09:32:52Z</time>
      </trkpt>
      <trkpt lat="48.0844" lon="-3.64974">
        <ele>140</ele>
        <time>2024-09-07T09:32:53Z</time>
      </trkpt>
      <trkpt lat="48.08443" lon="-3.64965">
        <ele>139.8</ele>
        <time>2024-09-07T09:32:54Z</time>
      </trkpt>
      <trkpt lat="48.08444" lon="-3.64957">
        <ele>139.6</ele>
        <time>2024-09-07T09:32:55Z</time>
      </trkpt>
      <trkpt lat="48.08447" lon="-3.64948">
        <ele>139.4</ele>
        <time>2024-09-07T09:32:56Z</time>
      </trkpt>
      <trkpt lat="48.08449" lon="-3.6494">
        <ele>139.4</ele>
        <time>2024-09-07T09:32:57Z</time>
      </trkpt>
      <trkpt lat="48.08452" lon="-3.64932">
        <ele>139.2</ele>
        <time>2024-09-07T09:32:58Z</time>
      </trkpt>
      <trkpt lat="48.08455" lon="-3.64924">
        <ele>139</ele>
        <time>2024-09-07T09:32:59Z</time>
      </trkpt>
      <trkpt lat="48.08459" lon="-3.64915">
        <ele>138.8</ele>
        <time>2024-09-07T09:33:00Z</time>
      </trkpt>
      <trkpt lat="48.08463" lon="-3.64906">
        <ele>138.8</ele>
        <time>2024-09-07T09:33:01Z</time>
      </trkpt>
      <trkpt lat="48.08466" lon="-3.64898">
        <ele>138.6</ele>
        <time>2024-09-07T09:33:02Z</time>
      </trkpt>
      <trkpt lat="48.08469" lon="-3.6489">
        <ele>138.6</ele>
        <time>2024-09-07T09:33:03Z</time>
      </trkpt>
      <trkpt lat="48.08474" lon="-3.64882">
        <ele>138.4</ele>
        <time>2024-09-07T09:33:04Z</time>
      </trkpt>
      <trkpt lat="48.08477" lon="-3.64875">
        <ele>138.2</ele>
        <time>2024-09-07T09:33:05Z</time>
      </trkpt>
      <trkpt lat="48.08481" lon="-3.64869">
        <ele>138</ele>
        <time>2024-09-07T09:33:06Z</time>
      </trkpt>
      <trkpt lat="48.08484" lon="-3.64862">
        <ele>137.8</ele>
        <time>2024-09-07T09:33:07Z</time>
      </trkpt>
      <trkpt lat="48.08488" lon="-3.64851">
        <ele>137.6</ele>
        <time>2024-09-07T09:33:08Z</time>
      </trkpt>
      <trkpt lat="48.08492" lon="-3.64841">
        <ele>137.4</ele>
        <time>2024-09-07T09:33:09Z</time>
      </trkpt>
      <trkpt lat="48.08495" lon="-3.64833">
        <ele>137.4</ele>
        <time>2024-09-07T09:33:10Z</time>
      </trkpt>
      <trkpt lat="48.08499" lon="-3.64825">
        <ele>137.2</ele>
        <time>2024-09-07T09:33:11Z</time>
      </trkpt>
      <trkpt lat="48.08503" lon="-3.64818">
        <ele>137</ele>
        <time>2024-09-07T09:33:12Z</time>
      </trkpt>
      <trkpt lat="48.08506" lon="-3.6481">
        <ele>136.8</ele>
        <time>2024-09-07T09:33:13Z</time>
      </trkpt>
      <trkpt lat="48.0851" lon="-3.64804">
        <ele>136.6</ele>
        <time>2024-09-07T09:33:14Z</time>
      </trkpt>
      <trkpt lat="48.08513" lon="-3.64797">
        <ele>136.6</ele>
        <time>2024-09-07T09:33:15Z</time>
      </trkpt>
      <trkpt lat="48.08517" lon="-3.64788">
        <ele>136.2</ele>
        <time>2024-09-07T09:33:16Z</time>
      </trkpt>
      <trkpt lat="48.0852" lon="-3.64779">
        <ele>136.2</ele>
        <time>2024-09-07T09:33:17Z</time>
      </trkpt>
      <trkpt lat="48.08524" lon="-3.64771">
        <ele>136</ele>
        <time>2024-09-07T09:33:18Z</time>
      </trkpt>
      <trkpt lat="48.08527" lon="-3.64763">
        <ele>135.8</ele>
        <time>2024-09-07T09:33:19Z</time>
      </trkpt>
      <trkpt lat="48.0853" lon="-3.64756">
        <ele>135.6</ele>
        <time>2024-09-07T09:33:20Z</time>
      </trkpt>
      <trkpt lat="48.08533" lon="-3.64746">
        <ele>135.4</ele>
        <time>2024-09-07T09:33:21Z</time>
      </trkpt>
      <trkpt lat="48.08537" lon="-3.64734">
        <ele>135.2</ele>
        <time>2024-09-07T09:33:22Z</time>
      </trkpt>
      <trkpt lat="48.0854" lon="-3.64726">
        <ele>135</ele>
        <time>2024-09-07T09:33:23Z</time>
      </trkpt>
      <trkpt lat="48.08543" lon="-3.64719">
        <ele>134.8</ele>
        <time>2024-09-07T09:33:24Z</time>
      </trkpt>
      <trkpt lat="48.08547" lon="-3.64713">
        <ele>134.8</ele>
        <time>2024-09-07T09:33:25Z</time>
      </trkpt>
      <trkpt lat="48.08552" lon="-3.64706">
        <ele>134.6</ele>
        <time>2024-09-07T09:33:26Z</time>
      </trkpt>
      <trkpt lat="48.08556" lon="-3.64698">
        <ele>134.6</ele>
        <time>2024-09-07T09:33:27Z</time>
      </trkpt>
      <trkpt lat="48.08559" lon="-3.6469">
        <ele>134.4</ele>
        <time>2024-09-07T09:33:28Z</time>
      </trkpt>
      <trkpt lat="48.08561" lon="-3.6468">
        <ele>134.2</ele>
        <time>2024-09-07T09:33:29Z</time>
      </trkpt>
      <trkpt lat="48.08564" lon="-3.64672">
        <ele>134</ele>
        <time>2024-09-07T09:33:30Z</time>
      </trkpt>
      <trkpt lat="48.08568" lon="-3.64664">
        <ele>133.8</ele>
        <time>2024-09-07T09:33:31Z</time>
      </trkpt>
      <trkpt lat="48.08571" lon="-3.64658">
        <ele>133.8</ele>
        <time>2024-09-07T09:33:32Z</time>
      </trkpt>
      <trkpt lat="48.08574" lon="-3.64652">
        <ele>133.6</ele>
        <time>2024-09-07T09:33:33Z</time>
      </trkpt>
      <trkpt lat="48.08578" lon="-3.64645">
        <ele>133.2</ele>
        <time>2024-09-07T09:33:34Z</time>
      </trkpt>
      <trkpt lat="48.08579" lon="-3.64638">
        <ele>133.2</ele>
        <time>2024-09-07T09:33:35Z</time>
      </trkpt>
      <trkpt lat="48.08582" lon="-3.64631">
        <ele>133</ele>
        <time>2024-09-07T09:33:36Z</time>
      </trkpt>
      <trkpt lat="48.08585" lon="-3.64622">
        <ele>133</ele>
        <time>2024-09-07T09:33:37Z</time>
      </trkpt>
      <trkpt lat="48.08588" lon="-3.64614">
        <ele>132.8</ele>
        <time>2024-09-07T09:33:38Z</time>
      </trkpt>
      <trkpt lat="48.08592" lon="-3.64606">
        <ele>132.6</ele>
        <time>2024-09-07T09:33:39Z</time>
      </trkpt>
      <trkpt lat="48.08596" lon="-3.64598">
        <ele>132.4</ele>
        <time>2024-09-07T09:33:40Z</time>
      </trkpt>
      <trkpt lat="48.086" lon="-3.64589">
        <ele>132.4</ele>
        <time>2024-09-07T09:33:41Z</time>
      </trkpt>
      <trkpt lat="48.08604" lon="-3.64581">
        <ele>132.2</ele>
        <time>2024-09-07T09:33:42Z</time>
      </trkpt>
      <trkpt lat="48.08607" lon="-3.64574">
        <ele>132.2</ele>
        <time>2024-09-07T09:33:43Z</time>
      </trkpt>
      <trkpt lat="48.08611" lon="-3.64567">
        <ele>132</ele>
        <time>2024-09-07T09:33:44Z</time>
      </trkpt>
      <trkpt lat="48.08614" lon="-3.6456">
        <ele>132</ele>
        <time>2024-09-07T09:33:45Z</time>
      </trkpt>
      <trkpt lat="48.08617" lon="-3.64552">
        <ele>131.8</ele>
        <time>2024-09-07T09:33:46Z</time>
      </trkpt>
      <trkpt lat="48.0862" lon="-3.64543">
        <ele>131.8</ele>
        <time>2024-09-07T09:33:47Z</time>
      </trkpt>
      <trkpt lat="48.08623" lon="-3.64535">
        <ele>131.8</ele>
        <time>2024-09-07T09:33:48Z</time>
      </trkpt>
      <trkpt lat="48.08627" lon="-3.64527">
        <ele>131.6</ele>
        <time>2024-09-07T09:33:49Z</time>
      </trkpt>
      <trkpt lat="48.08631" lon="-3.64519">
        <ele>131.4</ele>
        <time>2024-09-07T09:33:50Z</time>
      </trkpt>
      <trkpt lat="48.08635" lon="-3.64511">
        <ele>131.4</ele>
        <time>2024-09-07T09:33:51Z</time>
      </trkpt>
      <trkpt lat="48.08639" lon="-3.64501">
        <ele>131.2</ele>
        <time>2024-09-07T09:33:52Z</time>
      </trkpt>
      <trkpt lat="48.08642" lon="-3.64492">
        <ele>131.2</ele>
        <time>2024-09-07T09:33:53Z</time>
      </trkpt>
      <trkpt lat="48.08646" lon="-3.64482">
        <ele>131</ele>
        <time>2024-09-07T09:33:54Z</time>
      </trkpt>
      <trkpt lat="48.08649" lon="-3.64474">
        <ele>130.8</ele>
        <time>2024-09-07T09:33:55Z</time>
      </trkpt>
      <trkpt lat="48.08652" lon="-3.64466">
        <ele>130.6</ele>
        <time>2024-09-07T09:33:56Z</time>
      </trkpt>
      <trkpt lat="48.08655" lon="-3.64458">
        <ele>130.4</ele>
        <time>2024-09-07T09:33:57Z</time>
      </trkpt>
      <trkpt lat="48.08659" lon="-3.64449">
        <ele>130.2</ele>
        <time>2024-09-07T09:33:58Z</time>
      </trkpt>
      <trkpt lat="48.08662" lon="-3.64441">
        <ele>130</ele>
        <time>2024-09-07T09:33:59Z</time>
      </trkpt>
      <trkpt lat="48.08666" lon="-3.64431">
        <ele>129.8</ele>
        <time>2024-09-07T09:34:00Z</time>
      </trkpt>
      <trkpt lat="48.08667" lon="-3.64422">
        <ele>129.4</ele>
        <time>2024-09-07T09:34:01Z</time>
      </trkpt>
      <trkpt lat="48.08667" lon="-3.64414">
        <ele>129.4</ele>
        <time>2024-09-07T09:34:02Z</time>
      </trkpt>
      <trkpt lat="48.08669" lon="-3.64404">
        <ele>129.2</ele>
        <time>2024-09-07T09:34:03Z</time>
      </trkpt>
      <trkpt lat="48.0867" lon="-3.64397">
        <ele>129</ele>
        <time>2024-09-07T09:34:04Z</time>
      </trkpt>
      <trkpt lat="48.08672" lon="-3.64388">
        <ele>129</ele>
        <time>2024-09-07T09:34:05Z</time>
      </trkpt>
      <trkpt lat="48.08673" lon="-3.6438">
        <ele>128.6</ele>
        <time>2024-09-07T09:34:06Z</time>
      </trkpt>
      <trkpt lat="48.08674" lon="-3.64372">
        <ele>128.6</ele>
        <time>2024-09-07T09:34:07Z</time>
      </trkpt>
      <trkpt lat="48.08675" lon="-3.64363">
        <ele>128.4</ele>
        <time>2024-09-07T09:34:08Z</time>
      </trkpt>
      <trkpt lat="48.08678" lon="-3.64354">
        <ele>128.2</ele>
        <time>2024-09-07T09:34:09Z</time>
      </trkpt>
      <trkpt lat="48.0868" lon="-3.64346">
        <ele>128.2</ele>
        <time>2024-09-07T09:34:10Z</time>
      </trkpt>
      <trkpt lat="48.08682" lon="-3.64337">
        <ele>128.2</ele>
        <time>2024-09-07T09:34:11Z</time>
      </trkpt>
      <trkpt lat="48.08685" lon="-3.6433">
        <ele>128</ele>
        <time>2024-09-07T09:34:12Z</time>
      </trkpt>
      <trkpt lat="48.08686" lon="-3.64322">
        <ele>127.8</ele>
        <time>2024-09-07T09:34:13Z</time>
      </trkpt>
      <trkpt lat="48.08689" lon="-3.64314">
        <ele>127.6</ele>
        <time>2024-09-07T09:34:14Z</time>
      </trkpt>
      <trkpt lat="48.08691" lon="-3.64306">
        <ele>127.6</ele>
        <time>2024-09-07T09:34:15Z</time>
      </trkpt>
      <trkpt lat="48.08693" lon="-3.64298">
        <ele>127.4</ele>
        <time>2024-09-07T09:34:16Z</time>
      </trkpt>
      <trkpt lat="48.08695" lon="-3.64289">
        <ele>127.4</ele>
        <time>2024-09-07T09:34:17Z</time>
      </trkpt>
      <trkpt lat="48.08697" lon="-3.64281">
        <ele>127.2</ele>
        <time>2024-09-07T09:34:18Z</time>
      </trkpt>
      <trkpt lat="48.08699" lon="-3.64274">
        <ele>127.2</ele>
        <time>2024-09-07T09:34:19Z</time>
      </trkpt>
      <trkpt lat="48.08701" lon="-3.64266">
        <ele>127</ele>
        <time>2024-09-07T09:34:20Z</time>
      </trkpt>
      <trkpt lat="48.08703" lon="-3.64257">
        <ele>126.8</ele>
        <time>2024-09-07T09:34:21Z</time>
      </trkpt>
      <trkpt lat="48.08705" lon="-3.64249">
        <ele>126.8</ele>
        <time>2024-09-07T09:34:22Z</time>
      </trkpt>
      <trkpt lat="48.08707" lon="-3.6424">
        <ele>126.6</ele>
        <time>2024-09-07T09:34:23Z</time>
      </trkpt>
      <trkpt lat="48.0871" lon="-3.64231">
        <ele>126.6</ele>
        <time>2024-09-07T09:34:24Z</time>
      </trkpt>
      <trkpt lat="48.08712" lon="-3.64223">
        <ele>126.4</ele>
        <time>2024-09-07T09:34:25Z</time>
      </trkpt>
      <trkpt lat="48.08714" lon="-3.64215">
        <ele>126.4</ele>
        <time>2024-09-07T09:34:26Z</time>
      </trkpt>
      <trkpt lat="48.08716" lon="-3.64206">
        <ele>126.2</ele>
        <time>2024-09-07T09:34:27Z</time>
      </trkpt>
      <trkpt lat="48.08719" lon="-3.64196">
        <ele>126.2</ele>
        <time>2024-09-07T09:34:28Z</time>
      </trkpt>
      <trkpt lat="48.08722" lon="-3.64186">
        <ele>126</ele>
        <time>2024-09-07T09:34:29Z</time>
      </trkpt>
      <trkpt lat="48.08725" lon="-3.64177">
        <ele>125.8</ele>
        <time>2024-09-07T09:34:30Z</time>
      </trkpt>
      <trkpt lat="48.08727" lon="-3.64168">
        <ele>125.6</ele>
        <time>2024-09-07T09:34:31Z</time>
      </trkpt>
      <trkpt lat="48.08729" lon="-3.6416">
        <ele>125.4</ele>
        <time>2024-09-07T09:34:32Z</time>
      </trkpt>
      <trkpt lat="48.08731" lon="-3.64152">
        <ele>125.2</ele>
        <time>2024-09-07T09:34:33Z</time>
      </trkpt>
      <trkpt lat="48.08733" lon="-3.64144">
        <ele>125</ele>
        <time>2024-09-07T09:34:34Z</time>
      </trkpt>
      <trkpt lat="48.08735" lon="-3.64137">
        <ele>125</ele>
        <time>2024-09-07T09:34:35Z</time>
      </trkpt>
      <trkpt lat="48.08737" lon="-3.64129">
        <ele>124.8</ele>
        <time>2024-09-07T09:34:36Z</time>
      </trkpt>
      <trkpt lat="48.08739" lon="-3.64123">
        <ele>124.8</ele>
        <time>2024-09-07T09:34:37Z</time>
      </trkpt>
      <trkpt lat="48.08741" lon="-3.64116">
        <ele>124.4</ele>
        <time>2024-09-07T09:34:38Z</time>
      </trkpt>
      <trkpt lat="48.08743" lon="-3.64109">
        <ele>124.4</ele>
        <time>2024-09-07T09:34:39Z</time>
      </trkpt>
      <trkpt lat="48.08745" lon="-3.64102">
        <ele>124.2</ele>
        <time>2024-09-07T09:34:40Z</time>
      </trkpt>
      <trkpt lat="48.08748" lon="-3.64093">
        <ele>124</ele>
        <time>2024-09-07T09:34:41Z</time>
      </trkpt>
      <trkpt lat="48.0875" lon="-3.64085">
        <ele>124</ele>
        <time>2024-09-07T09:34:42Z</time>
      </trkpt>
      <trkpt lat="48.08753" lon="-3.64077">
        <ele>123.8</ele>
        <time>2024-09-07T09:34:43Z</time>
      </trkpt>
      <trkpt lat="48.08755" lon="-3.64069">
        <ele>123.6</ele>
        <time>2024-09-07T09:34:44Z</time>
      </trkpt>
      <trkpt lat="48.08757" lon="-3.64061">
        <ele>123.6</ele>
        <time>2024-09-07T09:34:45Z</time>
      </trkpt>
      <trkpt lat="48.08759" lon="-3.64054">
        <ele>123.6</ele>
        <time>2024-09-07T09:34:46Z</time>
      </trkpt>
      <trkpt lat="48.08762" lon="-3.64047">
        <ele>123.4</ele>
        <time>2024-09-07T09:34:47Z</time>
      </trkpt>
      <trkpt lat="48.08764" lon="-3.64039">
        <ele>123.4</ele>
        <time>2024-09-07T09:34:48Z</time>
      </trkpt>
      <trkpt lat="48.08765" lon="-3.64031">
        <ele>123.2</ele>
        <time>2024-09-07T09:34:49Z</time>
      </trkpt>
      <trkpt lat="48.08767" lon="-3.64022">
        <ele>123</ele>
        <time>2024-09-07T09:34:50Z</time>
      </trkpt>
      <trkpt lat="48.08769" lon="-3.64011">
        <ele>123</ele>
        <time>2024-09-07T09:34:51Z</time>
      </trkpt>
      <trkpt lat="48.08772" lon="-3.64005">
        <ele>122.8</ele>
        <time>2024-09-07T09:34:52Z</time>
      </trkpt>
      <trkpt lat="48.08775" lon="-3.63998">
        <ele>122.8</ele>
        <time>2024-09-07T09:34:53Z</time>
      </trkpt>
      <trkpt lat="48.08779" lon="-3.6399">
        <ele>122.6</ele>
        <time>2024-09-07T09:34:54Z</time>
      </trkpt>
      <trkpt lat="48.08782" lon="-3.63983">
        <ele>122.6</ele>
        <time>2024-09-07T09:34:55Z</time>
      </trkpt>
      <trkpt lat="48.08785" lon="-3.63977">
        <ele>122.4</ele>
        <time>2024-09-07T09:34:56Z</time>
      </trkpt>
      <trkpt lat="48.08788" lon="-3.63971">
        <ele>122.2</ele>
        <time>2024-09-07T09:34:57Z</time>
      </trkpt>
      <trkpt lat="48.08791" lon="-3.63965">
        <ele>122</ele>
        <time>2024-09-07T09:34:58Z</time>
      </trkpt>
      <trkpt lat="48.08794" lon="-3.63959">
        <ele>122</ele>
        <time>2024-09-07T09:34:59Z</time>
      </trkpt>
      <trkpt lat="48.08798" lon="-3.63952">
        <ele>122</ele>
        <time>2024-09-07T09:35:00Z</time>
      </trkpt>
      <trkpt lat="48.08802" lon="-3.63945">
        <ele>122</ele>
        <time>2024-09-07T09:35:01Z</time>
      </trkpt>
      <trkpt lat="48.08807" lon="-3.63939">
        <ele>121.6</ele>
        <time>2024-09-07T09:35:02Z</time>
      </trkpt>
      <trkpt lat="48.08812" lon="-3.63933">
        <ele>121.4</ele>
        <time>2024-09-07T09:35:03Z</time>
      </trkpt>
      <trkpt lat="48.08816" lon="-3.63927">
        <ele>121.2</ele>
        <time>2024-09-07T09:35:04Z</time>
      </trkpt>
      <trkpt lat="48.0882" lon="-3.63922">
        <ele>121</ele>
        <time>2024-09-07T09:35:05Z</time>
      </trkpt>
      <trkpt lat="48.08825" lon="-3.63917">
        <ele>120.8</ele>
        <time>2024-09-07T09:35:06Z</time>
      </trkpt>
      <trkpt lat="48.0883" lon="-3.63912">
        <ele>120.8</ele>
        <time>2024-09-07T09:35:07Z</time>
      </trkpt>
      <trkpt lat="48.08835" lon="-3.63907">
        <ele>120.8</ele>
        <time>2024-09-07T09:35:08Z</time>
      </trkpt>
      <trkpt lat="48.0884" lon="-3.63901">
        <ele>120.6</ele>
        <time>2024-09-07T09:35:09Z</time>
      </trkpt>
      <trkpt lat="48.08845" lon="-3.63896">
        <ele>120.6</ele>
        <time>2024-09-07T09:35:10Z</time>
      </trkpt>
      <trkpt lat="48.08849" lon="-3.63892">
        <ele>120.4</ele>
        <time>2024-09-07T09:35:11Z</time>
      </trkpt>
      <trkpt lat="48.08855" lon="-3.63887">
        <ele>120.2</ele>
        <time>2024-09-07T09:35:12Z</time>
      </trkpt>
      <trkpt lat="48.0886" lon="-3.63881">
        <ele>120</ele>
        <time>2024-09-07T09:35:13Z</time>
      </trkpt>
      <trkpt lat="48.08866" lon="-3.63876">
        <ele>119.8</ele>
        <time>2024-09-07T09:35:14Z</time>
      </trkpt>
      <trkpt lat="48.08872" lon="-3.63872">
        <ele>119.8</ele>
        <time>2024-09-07T09:35:15Z</time>
      </trkpt>
      <trkpt lat="48.08878" lon="-3.63868">
        <ele>119.6</ele>
        <time>2024-09-07T09:35:16Z</time>
      </trkpt>
      <trkpt lat="48.08883" lon="-3.63864">
        <ele>119.4</ele>
        <time>2024-09-07T09:35:17Z</time>
      </trkpt>
      <trkpt lat="48.08889" lon="-3.6386">
        <ele>119.2</ele>
        <time>2024-09-07T09:35:18Z</time>
      </trkpt>
      <trkpt lat="48.08897" lon="-3.63854">
        <ele>119.2</ele>
        <time>2024-09-07T09:35:19Z</time>
      </trkpt>
      <trkpt lat="48.08905" lon="-3.63851">
        <ele>119.2</ele>
        <time>2024-09-07T09:35:20Z</time>
      </trkpt>
      <trkpt lat="48.08911" lon="-3.63847">
        <ele>118.8</ele>
        <time>2024-09-07T09:35:21Z</time>
      </trkpt>
      <trkpt lat="48.08917" lon="-3.63842">
        <ele>118.6</ele>
        <time>2024-09-07T09:35:22Z</time>
      </trkpt>
      <trkpt lat="48.08923" lon="-3.63839">
        <ele>118.2</ele>
        <time>2024-09-07T09:35:23Z</time>
      </trkpt>
      <trkpt lat="48.08929" lon="-3.63836">
        <ele>118.2</ele>
        <time>2024-09-07T09:35:24Z</time>
      </trkpt>
      <trkpt lat="48.08935" lon="-3.63833">
        <ele>118</ele>
        <time>2024-09-07T09:35:25Z</time>
      </trkpt>
      <trkpt lat="48.08941" lon="-3.6383">
        <ele>117.8</ele>
        <time>2024-09-07T09:35:26Z</time>
      </trkpt>
      <trkpt lat="48.08948" lon="-3.63827">
        <ele>117.6</ele>
        <time>2024-09-07T09:35:27Z</time>
      </trkpt>
      <trkpt lat="48.08954" lon="-3.63823">
        <ele>117.6</ele>
        <time>2024-09-07T09:35:28Z</time>
      </trkpt>
      <trkpt lat="48.08962" lon="-3.63819">
        <ele>117.4</ele>
        <time>2024-09-07T09:35:29Z</time>
      </trkpt>
      <trkpt lat="48.08968" lon="-3.63817">
        <ele>117.4</ele>
        <time>2024-09-07T09:35:30Z</time>
      </trkpt>
      <trkpt lat="48.08975" lon="-3.63813">
        <ele>117</ele>
        <time>2024-09-07T09:35:31Z</time>
      </trkpt>
      <trkpt lat="48.08981" lon="-3.63811">
        <ele>116.8</ele>
        <time>2024-09-07T09:35:32Z</time>
      </trkpt>
      <trkpt lat="48.08986" lon="-3.63809">
        <ele>116.8</ele>
        <time>2024-09-07T09:35:33Z</time>
      </trkpt>
      <trkpt lat="48.08992" lon="-3.63806">
        <ele>116.2</ele>
        <time>2024-09-07T09:35:34Z</time>
      </trkpt>
      <trkpt lat="48.08998" lon="-3.63804">
        <ele>116.2</ele>
        <time>2024-09-07T09:35:35Z</time>
      </trkpt>
      <trkpt lat="48.09004" lon="-3.63801">
        <ele>116</ele>
        <time>2024-09-07T09:35:36Z</time>
      </trkpt>
      <trkpt lat="48.09011" lon="-3.63797">
        <ele>115.6</ele>
        <time>2024-09-07T09:35:37Z</time>
      </trkpt>
      <trkpt lat="48.09018" lon="-3.63794">
        <ele>115.2</ele>
        <time>2024-09-07T09:35:38Z</time>
      </trkpt>
      <trkpt lat="48.09024" lon="-3.6379">
        <ele>115</ele>
        <time>2024-09-07T09:35:39Z</time>
      </trkpt>
      <trkpt lat="48.0903" lon="-3.63787">
        <ele>114.8</ele>
        <time>2024-09-07T09:35:40Z</time>
      </trkpt>
      <trkpt lat="48.09036" lon="-3.63783">
        <ele>114.8</ele>
        <time>2024-09-07T09:35:41Z</time>
      </trkpt>
      <trkpt lat="48.09041" lon="-3.63781">
        <ele>114.6</ele>
        <time>2024-09-07T09:35:42Z</time>
      </trkpt>
      <trkpt lat="48.09046" lon="-3.6378">
        <ele>114.4</ele>
        <time>2024-09-07T09:35:43Z</time>
      </trkpt>
      <trkpt lat="48.09051" lon="-3.63777">
        <ele>114.4</ele>
        <time>2024-09-07T09:35:44Z</time>
      </trkpt>
      <trkpt lat="48.09057" lon="-3.63774">
        <ele>114</ele>
        <time>2024-09-07T09:35:45Z</time>
      </trkpt>
      <trkpt lat="48.09063" lon="-3.63771">
        <ele>113.8</ele>
        <time>2024-09-07T09:35:46Z</time>
      </trkpt>
      <trkpt lat="48.09068" lon="-3.63768">
        <ele>113.6</ele>
        <time>2024-09-07T09:35:47Z</time>
      </trkpt>
      <trkpt lat="48.09074" lon="-3.63765">
        <ele>113.6</ele>
        <time>2024-09-07T09:35:48Z</time>
      </trkpt>
      <trkpt lat="48.09079" lon="-3.63762">
        <ele>113.4</ele>
        <time>2024-09-07T09:35:49Z</time>
      </trkpt>
      <trkpt lat="48.09086" lon="-3.63758">
        <ele>113.4</ele>
        <time>2024-09-07T09:35:50Z</time>
      </trkpt>
      <trkpt lat="48.09092" lon="-3.63754">
        <ele>113.2</ele>
        <time>2024-09-07T09:35:51Z</time>
      </trkpt>
      <trkpt lat="48.09098" lon="-3.63751">
        <ele>113.2</ele>
        <time>2024-09-07T09:35:52Z</time>
      </trkpt>
      <trkpt lat="48.09103" lon="-3.63747">
        <ele>113</ele>
        <time>2024-09-07T09:35:53Z</time>
      </trkpt>
      <trkpt lat="48.0911" lon="-3.63743">
        <ele>113</ele>
        <time>2024-09-07T09:35:54Z</time>
      </trkpt>
      <trkpt lat="48.09116" lon="-3.63739">
        <ele>113</ele>
        <time>2024-09-07T09:35:55Z</time>
      </trkpt>
      <trkpt lat="48.09121" lon="-3.63737">
        <ele>112.6</ele>
        <time>2024-09-07T09:35:56Z</time>
      </trkpt>
      <trkpt lat="48.09127" lon="-3.63732">
        <ele>112.6</ele>
        <time>2024-09-07T09:35:57Z</time>
      </trkpt>
      <trkpt lat="48.09132" lon="-3.63728">
        <ele>112.4</ele>
        <time>2024-09-07T09:35:58Z</time>
      </trkpt>
      <trkpt lat="48.09138" lon="-3.63723">
        <ele>112.2</ele>
        <time>2024-09-07T09:35:59Z</time>
      </trkpt>
      <trkpt lat="48.09143" lon="-3.63719">
        <ele>112.2</ele>
        <time>2024-09-07T09:36:00Z</time>
      </trkpt>
      <trkpt lat="48.0915" lon="-3.63714">
        <ele>112</ele>
        <time>2024-09-07T09:36:01Z</time>
      </trkpt>
      <trkpt lat="48.09156" lon="-3.6371">
        <ele>111.8</ele>
        <time>2024-09-07T09:36:02Z</time>
      </trkpt>
      <trkpt lat="48.09162" lon="-3.63704">
        <ele>111.8</ele>
        <time>2024-09-07T09:36:03Z</time>
      </trkpt>
      <trkpt lat="48.09168" lon="-3.63699">
        <ele>111.8</ele>
        <time>2024-09-07T09:36:04Z</time>
      </trkpt>
      <trkpt lat="48.09173" lon="-3.63694">
        <ele>111.6</ele>
        <time>2024-09-07T09:36:05Z</time>
      </trkpt>
      <trkpt lat="48.09178" lon="-3.63689">
        <ele>111.4</ele>
        <time>2024-09-07T09:36:06Z</time>
      </trkpt>
      <trkpt lat="48.09184" lon="-3.63684">
        <ele>111.2</ele>
        <time>2024-09-07T09:36:07Z</time>
      </trkpt>
      <trkpt lat="48.0919" lon="-3.6368">
        <ele>111.2</ele>
        <time>2024-09-07T09:36:08Z</time>
      </trkpt>
      <trkpt lat="48.09196" lon="-3.63676">
        <ele>110.8</ele>
        <time>2024-09-07T09:36:09Z</time>
      </trkpt>
      <trkpt lat="48.09202" lon="-3.63672">
        <ele>110.8</ele>
        <time>2024-09-07T09:36:10Z</time>
      </trkpt>
      <trkpt lat="48.09208" lon="-3.63667">
        <ele>110.6</ele>
        <time>2024-09-07T09:36:11Z</time>
      </trkpt>
      <trkpt lat="48.09215" lon="-3.6366">
        <ele>110.6</ele>
        <time>2024-09-07T09:36:12Z</time>
      </trkpt>
      <trkpt lat="48.09221" lon="-3.63655">
        <ele>110.4</ele>
        <time>2024-09-07T09:36:13Z</time>
      </trkpt>
      <trkpt lat="48.09226" lon="-3.63651">
        <ele>110.2</ele>
        <time>2024-09-07T09:36:14Z</time>
      </trkpt>
      <trkpt lat="48.09232" lon="-3.63647">
        <ele>110</ele>
        <time>2024-09-07T09:36:15Z</time>
      </trkpt>
      <trkpt lat="48.09237" lon="-3.63643">
        <ele>109.8</ele>
        <time>2024-09-07T09:36:16Z</time>
      </trkpt>
      <trkpt lat="48.09242" lon="-3.63639">
        <ele>109.8</ele>
        <time>2024-09-07T09:36:17Z</time>
      </trkpt>
      <trkpt lat="48.09246" lon="-3.63635">
        <ele>109.6</ele>
        <time>2024-09-07T09:36:18Z</time>
      </trkpt>
      <trkpt lat="48.0925" lon="-3.63631">
        <ele>109.4</ele>
        <time>2024-09-07T09:36:19Z</time>
      </trkpt>
      <trkpt lat="48.09254" lon="-3.63627">
        <ele>109.4</ele>
        <time>2024-09-07T09:36:20Z</time>
      </trkpt>
      <trkpt lat="48.09259" lon="-3.63622">
        <ele>109.2</ele>
        <time>2024-09-07T09:36:21Z</time>
      </trkpt>
      <trkpt lat="48.09264" lon="-3.63618">
        <ele>109</ele>
        <time>2024-09-07T09:36:22Z</time>
      </trkpt>
      <trkpt lat="48.09269" lon="-3.63613">
        <ele>109</ele>
        <time>2024-09-07T09:36:23Z</time>
      </trkpt>
      <trkpt lat="48.09273" lon="-3.63609">
        <ele>108.8</ele>
        <time>2024-09-07T09:36:24Z</time>
      </trkpt>
      <trkpt lat="48.09277" lon="-3.63606">
        <ele>108.6</ele>
        <time>2024-09-07T09:36:25Z</time>
      </trkpt>
      <trkpt lat="48.09281" lon="-3.63603">
        <ele>108.6</ele>
        <time>2024-09-07T09:36:26Z</time>
      </trkpt>
      <trkpt lat="48.09284" lon="-3.63601">
        <ele>108.6</ele>
        <time>2024-09-07T09:36:27Z</time>
      </trkpt>
      <trkpt lat="48.09288" lon="-3.63598">
        <ele>108.4</ele>
        <time>2024-09-07T09:36:28Z</time>
      </trkpt>
      <trkpt lat="48.09291" lon="-3.63595">
        <ele>108.2</ele>
        <time>2024-09-07T09:36:29Z</time>
      </trkpt>
      <trkpt lat="48.09296" lon="-3.63592">
        <ele>108</ele>
        <time>2024-09-07T09:36:30Z</time>
      </trkpt>
      <trkpt lat="48.093" lon="-3.63588">
        <ele>108</ele>
        <time>2024-09-07T09:36:31Z</time>
      </trkpt>
      <trkpt lat="48.09304" lon="-3.63585">
        <ele>107.8</ele>
        <time>2024-09-07T09:36:32Z</time>
      </trkpt>
      <trkpt lat="48.09308" lon="-3.63581">
        <ele>107.8</ele>
        <time>2024-09-07T09:36:33Z</time>
      </trkpt>
      <trkpt lat="48.09312" lon="-3.63578">
        <ele>107.6</ele>
        <time>2024-09-07T09:36:34Z</time>
      </trkpt>
      <trkpt lat="48.09316" lon="-3.63574">
        <ele>107.6</ele>
        <time>2024-09-07T09:36:35Z</time>
      </trkpt>
      <trkpt lat="48.09321" lon="-3.63571">
        <ele>107.4</ele>
        <time>2024-09-07T09:36:36Z</time>
      </trkpt>
      <trkpt lat="48.09325" lon="-3.63567">
        <ele>107.4</ele>
        <time>2024-09-07T09:36:37Z</time>
      </trkpt>
      <trkpt lat="48.0933" lon="-3.63563">
        <ele>107.4</ele>
        <time>2024-09-07T09:36:38Z</time>
      </trkpt>
      <trkpt lat="48.09335" lon="-3.6356">
        <ele>107.2</ele>
        <time>2024-09-07T09:36:39Z</time>
      </trkpt>
      <trkpt lat="48.0934" lon="-3.63557">
        <ele>107</ele>
        <time>2024-09-07T09:36:40Z</time>
      </trkpt>
      <trkpt lat="48.09345" lon="-3.63554">
        <ele>106.8</ele>
        <time>2024-09-07T09:36:41Z</time>
      </trkpt>
      <trkpt lat="48.09349" lon="-3.63551">
        <ele>106.8</ele>
        <time>2024-09-07T09:36:42Z</time>
      </trkpt>
      <trkpt lat="48.09354" lon="-3.63548">
        <ele>106.6</ele>
        <time>2024-09-07T09:36:43Z</time>
      </trkpt>
      <trkpt lat="48.09358" lon="-3.63546">
        <ele>106.6</ele>
        <time>2024-09-07T09:36:44Z</time>
      </trkpt>
      <trkpt lat="48.09362" lon="-3.63544">
        <ele>106.4</ele>
        <time>2024-09-07T09:36:45Z</time>
      </trkpt>
      <trkpt lat="48.09366" lon="-3.63542">
        <ele>106.4</ele>
        <time>2024-09-07T09:36:46Z</time>
      </trkpt>
      <trkpt lat="48.09369" lon="-3.63541">
        <ele>106.2</ele>
        <time>2024-09-07T09:36:47Z</time>
      </trkpt>
      <trkpt lat="48.09372" lon="-3.63539">
        <ele>106</ele>
        <time>2024-09-07T09:36:48Z</time>
      </trkpt>
      <trkpt lat="48.09374" lon="-3.63538">
        <ele>106</ele>
        <time>2024-09-07T09:36:49Z</time>
      </trkpt>
      <trkpt lat="48.09376" lon="-3.63535">
        <ele>105.8</ele>
        <time>2024-09-07T09:36:50Z</time>
      </trkpt>
      <trkpt lat="48.09379" lon="-3.63533">
        <ele>105.8</ele>
        <time>2024-09-07T09:36:51Z</time>
      </trkpt>
      <trkpt lat="48.09381" lon="-3.63531">
        <ele>105.8</ele>
        <time>2024-09-07T09:36:52Z</time>
      </trkpt>
      <trkpt lat="48.09384" lon="-3.63531">
        <ele>105.6</ele>
        <time>2024-09-07T09:36:53Z</time>
      </trkpt>
      <trkpt lat="48.09386" lon="-3.6353">
        <ele>105.2</ele>
        <time>2024-09-07T09:36:54Z</time>
      </trkpt>
      <trkpt lat="48.09389" lon="-3.63529">
        <ele>105.2</ele>
        <time>2024-09-07T09:36:55Z</time>
      </trkpt>
      <trkpt lat="48.09392" lon="-3.63528">
        <ele>105.2</ele>
        <time>2024-09-07T09:36:56Z</time>
      </trkpt>
      <trkpt lat="48.09396" lon="-3.63526">
        <ele>105</ele>
        <time>2024-09-07T09:36:57Z</time>
      </trkpt>
      <trkpt lat="48.09398" lon="-3.63525">
        <ele>105</ele>
        <time>2024-09-07T09:36:58Z</time>
      </trkpt>
      <trkpt lat="48.09402" lon="-3.63525">
        <ele>104.8</ele>
        <time>2024-09-07T09:36:59Z</time>
      </trkpt>
      <trkpt lat="48.09404" lon="-3.63526">
        <ele>104.8</ele>
        <time>2024-09-07T09:37:00Z</time>
      </trkpt>
      <trkpt lat="48.09405" lon="-3.63527">
        <ele>104.8</ele>
        <time>2024-09-07T09:37:01Z</time>
      </trkpt>
      <trkpt lat="48.09407" lon="-3.63527">
        <ele>104.8</ele>
        <time>2024-09-07T09:37:02Z</time>
      </trkpt>
      <trkpt lat="48.09409" lon="-3.63526">
        <ele>104.8</ele>
        <time>2024-09-07T09:37:03Z</time>
      </trkpt>
      <trkpt lat="48.09412" lon="-3.63525">
        <ele>104.6</ele>
        <time>2024-09-07T09:37:04Z</time>
      </trkpt>
      <trkpt lat="48.09415" lon="-3.63524">
        <ele>104.6</ele>
        <time>2024-09-07T09:37:05Z</time>
      </trkpt>
      <trkpt lat="48.09417" lon="-3.63523">
        <ele>104.6</ele>
        <time>2024-09-07T09:37:06Z</time>
      </trkpt>
      <trkpt lat="48.09419" lon="-3.63522">
        <ele>104.6</ele>
        <time>2024-09-07T09:37:07Z</time>
      </trkpt>
      <trkpt lat="48.0942" lon="-3.6352">
        <ele>104.6</ele>
        <time>2024-09-07T09:37:08Z</time>
      </trkpt>
      <trkpt lat="48.09423" lon="-3.6352">
        <ele>104.6</ele>
        <time>2024-09-07T09:37:09Z</time>
      </trkpt>
      <trkpt lat="48.09426" lon="-3.63518">
        <ele>104.4</ele>
        <time>2024-09-07T09:37:10Z</time>
      </trkpt>
      <trkpt lat="48.09431" lon="-3.63517">
        <ele>104.4</ele>
        <time>2024-09-07T09:37:11Z</time>
      </trkpt>
      <trkpt lat="48.09436" lon="-3.63515">
        <ele>104.2</ele>
        <time>2024-09-07T09:37:12Z</time>
      </trkpt>
      <trkpt lat="48.09441" lon="-3.63513">
        <ele>104.2</ele>
        <time>2024-09-07T09:37:13Z</time>
      </trkpt>
      <trkpt lat="48.09446" lon="-3.63511">
        <ele>104</ele>
        <time>2024-09-07T09:37:14Z</time>
      </trkpt>
      <trkpt lat="48.09452" lon="-3.63508">
        <ele>104</ele>
        <time>2024-09-07T09:37:15Z</time>
      </trkpt>
      <trkpt lat="48.09458" lon="-3.63506">
        <ele>104</ele>
        <time>2024-09-07T09:37:16Z</time>
      </trkpt>
      <trkpt lat="48.09464" lon="-3.63504">
        <ele>103.8</ele>
        <time>2024-09-07T09:37:17Z</time>
      </trkpt>
      <trkpt lat="48.09471" lon="-3.63502">
        <ele>103.8</ele>
        <time>2024-09-07T09:37:18Z</time>
      </trkpt>
      <trkpt lat="48.09477" lon="-3.635">
        <ele>103.6</ele>
        <time>2024-09-07T09:37:19Z</time>
      </trkpt>
      <trkpt lat="48.09483" lon="-3.63498">
        <ele>103.6</ele>
        <time>2024-09-07T09:37:20Z</time>
      </trkpt>
      <trkpt lat="48.0949" lon="-3.63496">
        <ele>103.6</ele>
        <time>2024-09-07T09:37:21Z</time>
      </trkpt>
      <trkpt lat="48.09496" lon="-3.63494">
        <ele>103.6</ele>
        <time>2024-09-07T09:37:22Z</time>
      </trkpt>
      <trkpt lat="48.09503" lon="-3.63493">
        <ele>103.4</ele>
        <time>2024-09-07T09:37:23Z</time>
      </trkpt>
      <trkpt lat="48.09509" lon="-3.63491">
        <ele>103.4</ele>
        <time>2024-09-07T09:37:24Z</time>
      </trkpt>
      <trkpt lat="48.09517" lon="-3.63489">
        <ele>103.2</ele>
        <time>2024-09-07T09:37:25Z</time>
      </trkpt>
      <trkpt lat="48.09523" lon="-3.63487">
        <ele>103.2</ele>
        <time>2024-09-07T09:37:26Z</time>
      </trkpt>
      <trkpt lat="48.0953" lon="-3.63485">
        <ele>102.8</ele>
        <time>2024-09-07T09:37:27Z</time>
      </trkpt>
      <trkpt lat="48.09536" lon="-3.63482">
        <ele>102.6</ele>
        <time>2024-09-07T09:37:28Z</time>
      </trkpt>
      <trkpt lat="48.09543" lon="-3.6348">
        <ele>102.4</ele>
        <time>2024-09-07T09:37:29Z</time>
      </trkpt>
      <trkpt lat="48.09549" lon="-3.63477">
        <ele>102.4</ele>
        <time>2024-09-07T09:37:30Z</time>
      </trkpt>
      <trkpt lat="48.09554" lon="-3.63475">
        <ele>102.2</ele>
        <time>2024-09-07T09:37:31Z</time>
      </trkpt>
      <trkpt lat="48.09559" lon="-3.63473">
        <ele>102</ele>
        <time>2024-09-07T09:37:32Z</time>
      </trkpt>
      <trkpt lat="48.09563" lon="-3.63471">
        <ele>102</ele>
        <time>2024-09-07T09:37:33Z</time>
      </trkpt>
      <trkpt lat="48.09568" lon="-3.6347">
        <ele>101.8</ele>
        <time>2024-09-07T09:37:34Z</time>
      </trkpt>
      <trkpt lat="48.09572" lon="-3.63468">
        <ele>101.8</ele>
        <time>2024-09-07T09:37:35Z</time>
      </trkpt>
      <trkpt lat="48.09576" lon="-3.63467">
        <ele>101.6</ele>
        <time>2024-09-07T09:37:36Z</time>
      </trkpt>
      <trkpt lat="48.09581" lon="-3.63466">
        <ele>101.4</ele>
        <time>2024-09-07T09:37:37Z</time>
      </trkpt>
      <trkpt lat="48.09585" lon="-3.63464">
        <ele>101.2</ele>
        <time>2024-09-07T09:37:38Z</time>
      </trkpt>
      <trkpt lat="48.0959" lon="-3.63463">
        <ele>101.2</ele>
        <time>2024-09-07T09:37:39Z</time>
      </trkpt>
      <trkpt lat="48.09595" lon="-3.63461">
        <ele>101</ele>
        <time>2024-09-07T09:37:40Z</time>
      </trkpt>
      <trkpt lat="48.09599" lon="-3.63459">
        <ele>101</ele>
        <time>2024-09-07T09:37:41Z</time>
      </trkpt>
      <trkpt lat="48.09604" lon="-3.63458">
        <ele>100.8</ele>
        <time>2024-09-07T09:37:42Z</time>
      </trkpt>
      <trkpt lat="48.09608" lon="-3.63456">
        <ele>100.8</ele>
        <time>2024-09-07T09:37:43Z</time>
      </trkpt>
      <trkpt lat="48.09613" lon="-3.63454">
        <ele>100.6</ele>
        <time>2024-09-07T09:37:44Z</time>
      </trkpt>
      <trkpt lat="48.09618" lon="-3.63452">
        <ele>100.4</ele>
        <time>2024-09-07T09:37:45Z</time>
      </trkpt>
      <trkpt lat="48.09623" lon="-3.6345">
        <ele>100.4</ele>
        <time>2024-09-07T09:37:46Z</time>
      </trkpt>
      <trkpt lat="48.09627" lon="-3.63448">
        <ele>100.2</ele>
        <time>2024-09-07T09:37:47Z</time>
      </trkpt>
      <trkpt lat="48.09632" lon="-3.63447">
        <ele>100</ele>
        <time>2024-09-07T09:37:48Z</time>
      </trkpt>
      <trkpt lat="48.09637" lon="-3.63445">
        <ele>100</ele>
        <time>2024-09-07T09:37:49Z</time>
      </trkpt>
      <trkpt lat="48.09642" lon="-3.63443">
        <ele>100</ele>
        <time>2024-09-07T09:37:50Z</time>
      </trkpt>
      <trkpt lat="48.09647" lon="-3.63441">
        <ele>99.8</ele>
        <time>2024-09-07T09:37:51Z</time>
      </trkpt>
      <trkpt lat="48.09652" lon="-3.63439">
        <ele>99.6</ele>
        <time>2024-09-07T09:37:52Z</time>
      </trkpt>
      <trkpt lat="48.09656" lon="-3.63437">
        <ele>99.6</ele>
        <time>2024-09-07T09:37:53Z</time>
      </trkpt>
      <trkpt lat="48.09661" lon="-3.63436">
        <ele>99.4</ele>
        <time>2024-09-07T09:37:54Z</time>
      </trkpt>
      <trkpt lat="48.09665" lon="-3.63435">
        <ele>99.2</ele>
        <time>2024-09-07T09:37:55Z</time>
      </trkpt>
      <trkpt lat="48.09669" lon="-3.63434">
        <ele>99.2</ele>
        <time>2024-09-07T09:37:56Z</time>
      </trkpt>
      <trkpt lat="48.09672" lon="-3.63432">
        <ele>99.2</ele>
        <time>2024-09-07T09:37:57Z</time>
      </trkpt>
      <trkpt lat="48.09675" lon="-3.6343">
        <ele>99</ele>
        <time>2024-09-07T09:37:58Z</time>
      </trkpt>
      <trkpt lat="48.09678" lon="-3.63429">
        <ele>99</ele>
        <time>2024-09-07T09:37:59Z</time>
      </trkpt>
      <trkpt lat="48.0968" lon="-3.63428">
        <ele>99</ele>
        <time>2024-09-07T09:38:00Z</time>
      </trkpt>
      <trkpt lat="48.09682" lon="-3.63427">
        <ele>98.8</ele>
        <time>2024-09-07T09:38:01Z</time>
      </trkpt>
      <trkpt lat="48.09684" lon="-3.63426">
        <ele>98.6</ele>
        <time>2024-09-07T09:38:02Z</time>
      </trkpt>
      <trkpt lat="48.09686" lon="-3.63425">
        <ele>98.6</ele>
        <time>2024-09-07T09:38:03Z</time>
      </trkpt>
      <trkpt lat="48.09688" lon="-3.63425">
        <ele>98.4</ele>
        <time>2024-09-07T09:38:04Z</time>
      </trkpt>
      <trkpt lat="48.0969" lon="-3.63425">
        <ele>98.4</ele>
        <time>2024-09-07T09:38:05Z</time>
      </trkpt>
      <trkpt lat="48.09692" lon="-3.63425">
        <ele>98.2</ele>
        <time>2024-09-07T09:38:06Z</time>
      </trkpt>
      <trkpt lat="48.09694" lon="-3.63424">
        <ele>98.2</ele>
        <time>2024-09-07T09:38:07Z</time>
      </trkpt>
      <trkpt lat="48.09696" lon="-3.63421">
        <ele>98</ele>
        <time>2024-09-07T09:38:08Z</time>
      </trkpt>
      <trkpt lat="48.09698" lon="-3.63419">
        <ele>97.8</ele>
        <time>2024-09-07T09:38:09Z</time>
      </trkpt>
      <trkpt lat="48.09701" lon="-3.63415">
        <ele>97.8</ele>
        <time>2024-09-07T09:38:10Z</time>
      </trkpt>
      <trkpt lat="48.09703" lon="-3.63413">
        <ele>97.6</ele>
        <time>2024-09-07T09:38:11Z</time>
      </trkpt>
      <trkpt lat="48.09705" lon="-3.63411">
        <ele>97.6</ele>
        <time>2024-09-07T09:38:12Z</time>
      </trkpt>
      <trkpt lat="48.09708" lon="-3.63409">
        <ele>97.6</ele>
        <time>2024-09-07T09:38:13Z</time>
      </trkpt>
      <trkpt lat="48.09712" lon="-3.63406">
        <ele>97.6</ele>
        <time>2024-09-07T09:38:14Z</time>
      </trkpt>
      <trkpt lat="48.09715" lon="-3.63404">
        <ele>97.6</ele>
        <time>2024-09-07T09:38:15Z</time>
      </trkpt>
      <trkpt lat="48.09718" lon="-3.63402">
        <ele>97.6</ele>
        <time>2024-09-07T09:38:16Z</time>
      </trkpt>
      <trkpt lat="48.0972" lon="-3.63401">
        <ele>97.6</ele>
        <time>2024-09-07T09:38:17Z</time>
      </trkpt>
      <trkpt lat="48.09722" lon="-3.634">
        <ele>97.6</ele>
        <time>2024-09-07T09:38:18Z</time>
      </trkpt>
      <trkpt lat="48.09725" lon="-3.63398">
        <ele>97.6</ele>
        <time>2024-09-07T09:38:19Z</time>
      </trkpt>
      <trkpt lat="48.09728" lon="-3.63395">
        <ele>97.4</ele>
        <time>2024-09-07T09:38:20Z</time>
      </trkpt>
      <trkpt lat="48.09731" lon="-3.63391">
        <ele>97.4</ele>
        <time>2024-09-07T09:38:21Z</time>
      </trkpt>
      <trkpt lat="48.09735" lon="-3.63388">
        <ele>97.4</ele>
        <time>2024-09-07T09:38:22Z</time>
      </trkpt>
      <trkpt lat="48.09739" lon="-3.63384">
        <ele>97.4</ele>
        <time>2024-09-07T09:38:23Z</time>
      </trkpt>
      <trkpt lat="48.09744" lon="-3.63379">
        <ele>97.4</ele>
        <time>2024-09-07T09:38:24Z</time>
      </trkpt>
      <trkpt lat="48.09749" lon="-3.63373">
        <ele>97.2</ele>
        <time>2024-09-07T09:38:25Z</time>
      </trkpt>
      <trkpt lat="48.09755" lon="-3.63368">
        <ele>97.2</ele>
        <time>2024-09-07T09:38:26Z</time>
      </trkpt>
      <trkpt lat="48.09759" lon="-3.63362">
        <ele>97</ele>
        <time>2024-09-07T09:38:27Z</time>
      </trkpt>
      <trkpt lat="48.09763" lon="-3.63357">
        <ele>96.8</ele>
        <time>2024-09-07T09:38:28Z</time>
      </trkpt>
      <trkpt lat="48.09768" lon="-3.63351">
        <ele>96.6</ele>
        <time>2024-09-07T09:38:29Z</time>
      </trkpt>
      <trkpt lat="48.09772" lon="-3.63346">
        <ele>96.6</ele>
        <time>2024-09-07T09:38:30Z</time>
      </trkpt>
      <trkpt lat="48.09776" lon="-3.63342">
        <ele>96.4</ele>
        <time>2024-09-07T09:38:31Z</time>
      </trkpt>
      <trkpt lat="48.0978" lon="-3.63337">
        <ele>96.2</ele>
        <time>2024-09-07T09:38:32Z</time>
      </trkpt>
      <trkpt lat="48.09784" lon="-3.63332">
        <ele>96</ele>
        <time>2024-09-07T09:38:33Z</time>
      </trkpt>
      <trkpt lat="48.09788" lon="-3.63327">
        <ele>95.8</ele>
        <time>2024-09-07T09:38:34Z</time>
      </trkpt>
      <trkpt lat="48.09792" lon="-3.63322">
        <ele>95.8</ele>
        <time>2024-09-07T09:38:35Z</time>
      </trkpt>
      <trkpt lat="48.09796" lon="-3.63317">
        <ele>95.8</ele>
        <time>2024-09-07T09:38:36Z</time>
      </trkpt>
      <trkpt lat="48.09801" lon="-3.63312">
        <ele>95.6</ele>
        <time>2024-09-07T09:38:37Z</time>
      </trkpt>
      <trkpt lat="48.09805" lon="-3.63307">
        <ele>95.4</ele>
        <time>2024-09-07T09:38:38Z</time>
      </trkpt>
      <trkpt lat="48.09808" lon="-3.63303">
        <ele>95.4</ele>
        <time>2024-09-07T09:38:39Z</time>
      </trkpt>
      <trkpt lat="48.09811" lon="-3.63299">
        <ele>95.2</ele>
        <time>2024-09-07T09:38:40Z</time>
      </trkpt>
      <trkpt lat="48.09814" lon="-3.63295">
        <ele>95</ele>
        <time>2024-09-07T09:38:41Z</time>
      </trkpt>
      <trkpt lat="48.09817" lon="-3.63291">
        <ele>95</ele>
        <time>2024-09-07T09:38:42Z</time>
      </trkpt>
      <trkpt lat="48.0982" lon="-3.63287">
        <ele>94.8</ele>
        <time>2024-09-07T09:38:43Z</time>
      </trkpt>
      <trkpt lat="48.09822" lon="-3.63284">
        <ele>94.8</ele>
        <time>2024-09-07T09:38:44Z</time>
      </trkpt>
      <trkpt lat="48.09826" lon="-3.6328">
        <ele>94.8</ele>
        <time>2024-09-07T09:38:45Z</time>
      </trkpt>
      <trkpt lat="48.0983" lon="-3.63276">
        <ele>94.6</ele>
        <time>2024-09-07T09:38:46Z</time>
      </trkpt>
      <trkpt lat="48.09833" lon="-3.63272">
        <ele>94.6</ele>
        <time>2024-09-07T09:38:47Z</time>
      </trkpt>
      <trkpt lat="48.09836" lon="-3.63269">
        <ele>94.4</ele>
        <time>2024-09-07T09:38:48Z</time>
      </trkpt>
      <trkpt lat="48.09838" lon="-3.63266">
        <ele>94.2</ele>
        <time>2024-09-07T09:38:49Z</time>
      </trkpt>
      <trkpt lat="48.0984" lon="-3.63264">
        <ele>94.2</ele>
        <time>2024-09-07T09:38:50Z</time>
      </trkpt>
      <trkpt lat="48.09842" lon="-3.63262">
        <ele>94.2</ele>
        <time>2024-09-07T09:38:51Z</time>
      </trkpt>
      <trkpt lat="48.09843" lon="-3.6326">
        <ele>94</ele>
        <time>2024-09-07T09:38:52Z</time>
      </trkpt>
      <trkpt lat="48.09844" lon="-3.63258">
        <ele>94</ele>
        <time>2024-09-07T09:38:53Z</time>
      </trkpt>
      <trkpt lat="48.09848" lon="-3.63255">
        <ele>93.8</ele>
        <time>2024-09-07T09:38:54Z</time>
      </trkpt>
      <trkpt lat="48.09848" lon="-3.63253">
        <ele>93.6</ele>
        <time>2024-09-07T09:38:55Z</time>
      </trkpt>
      <trkpt lat="48.09848" lon="-3.63251">
        <ele>93.4</ele>
        <time>2024-09-07T09:38:56Z</time>
      </trkpt>
      <trkpt lat="48.0985" lon="-3.63248">
        <ele>93.4</ele>
        <time>2024-09-07T09:38:57Z</time>
      </trkpt>
      <trkpt lat="48.09852" lon="-3.63246">
        <ele>93.4</ele>
        <time>2024-09-07T09:38:58Z</time>
      </trkpt>
      <trkpt lat="48.09854" lon="-3.63243">
        <ele>93.2</ele>
        <time>2024-09-07T09:38:59Z</time>
      </trkpt>
      <trkpt lat="48.09858" lon="-3.63239">
        <ele>93.2</ele>
        <time>2024-09-07T09:39:00Z</time>
      </trkpt>
      <trkpt lat="48.09862" lon="-3.63235">
        <ele>93.2</ele>
        <time>2024-09-07T09:39:01Z</time>
      </trkpt>
      <trkpt lat="48.09866" lon="-3.6323">
        <ele>93.2</ele>
        <time>2024-09-07T09:39:02Z</time>
      </trkpt>
      <trkpt lat="48.0987" lon="-3.63225">
        <ele>93.2</ele>
        <time>2024-09-07T09:39:03Z</time>
      </trkpt>
      <trkpt lat="48.09874" lon="-3.63221">
        <ele>93.2</ele>
        <time>2024-09-07T09:39:04Z</time>
      </trkpt>
      <trkpt lat="48.09879" lon="-3.63216">
        <ele>93.2</ele>
        <time>2024-09-07T09:39:05Z</time>
      </trkpt>
      <trkpt lat="48.09883" lon="-3.6321">
        <ele>93</ele>
        <time>2024-09-07T09:39:06Z</time>
      </trkpt>
      <trkpt lat="48.09887" lon="-3.63205">
        <ele>93</ele>
        <time>2024-09-07T09:39:07Z</time>
      </trkpt>
      <trkpt lat="48.09891" lon="-3.632">
        <ele>93</ele>
        <time>2024-09-07T09:39:08Z</time>
      </trkpt>
      <trkpt lat="48.09895" lon="-3.63195">
        <ele>93</ele>
        <time>2024-09-07T09:39:09Z</time>
      </trkpt>
      <trkpt lat="48.099" lon="-3.6319">
        <ele>93</ele>
        <time>2024-09-07T09:39:10Z</time>
      </trkpt>
      <trkpt lat="48.09904" lon="-3.63185">
        <ele>93</ele>
        <time>2024-09-07T09:39:11Z</time>
      </trkpt>
      <trkpt lat="48.09909" lon="-3.6318">
        <ele>93</ele>
        <time>2024-09-07T09:39:12Z</time>
      </trkpt>
      <trkpt lat="48.09913" lon="-3.63175">
        <ele>93</ele>
        <time>2024-09-07T09:39:13Z</time>
      </trkpt>
      <trkpt lat="48.09917" lon="-3.6317">
        <ele>93</ele>
        <time>2024-09-07T09:39:14Z</time>
      </trkpt>
      <trkpt lat="48.09921" lon="-3.63165">
        <ele>93</ele>
        <time>2024-09-07T09:39:15Z</time>
      </trkpt>
      <trkpt lat="48.09925" lon="-3.6316">
        <ele>93</ele>
        <time>2024-09-07T09:39:16Z</time>
      </trkpt>
      <trkpt lat="48.09929" lon="-3.63155">
        <ele>93</ele>
        <time>2024-09-07T09:39:17Z</time>
      </trkpt>
      <trkpt lat="48.09932" lon="-3.63151">
        <ele>93</ele>
        <time>2024-09-07T09:39:18Z</time>
      </trkpt>
      <trkpt lat="48.09936" lon="-3.63146">
        <ele>93</ele>
        <time>2024-09-07T09:39:19Z</time>
      </trkpt>
      <trkpt lat="48.0994" lon="-3.63141">
        <ele>93</ele>
        <time>2024-09-07T09:39:20Z</time>
      </trkpt>
      <trkpt lat="48.09943" lon="-3.63136">
        <ele>93</ele>
        <time>2024-09-07T09:39:21Z</time>
      </trkpt>
      <trkpt lat="48.09947" lon="-3.63131">
        <ele>93</ele>
        <time>2024-09-07T09:39:22Z</time>
      </trkpt>
      <trkpt lat="48.09951" lon="-3.63127">
        <ele>93</ele>
        <time>2024-09-07T09:39:23Z</time>
      </trkpt>
      <trkpt lat="48.09955" lon="-3.63122">
        <ele>93</ele>
        <time>2024-09-07T09:39:24Z</time>
      </trkpt>
      <trkpt lat="48.0996" lon="-3.63117">
        <ele>93</ele>
        <time>2024-09-07T09:39:25Z</time>
      </trkpt>
      <trkpt lat="48.09964" lon="-3.63112">
        <ele>93</ele>
        <time>2024-09-07T09:39:26Z</time>
      </trkpt>
      <trkpt lat="48.09969" lon="-3.63107">
        <ele>93</ele>
        <time>2024-09-07T09:39:27Z</time>
      </trkpt>
      <trkpt lat="48.09973" lon="-3.63102">
        <ele>93</ele>
        <time>2024-09-07T09:39:28Z</time>
      </trkpt>
      <trkpt lat="48.09978" lon="-3.63098">
        <ele>93</ele>
        <time>2024-09-07T09:39:29Z</time>
      </trkpt>
      <trkpt lat="48.09983" lon="-3.63094">
        <ele>93</ele>
        <time>2024-09-07T09:39:30Z</time>
      </trkpt>
      <trkpt lat="48.09987" lon="-3.63089">
        <ele>93</ele>
        <time>2024-09-07T09:39:31Z</time>
      </trkpt>
      <trkpt lat="48.09992" lon="-3.63084">
        <ele>93</ele>
        <time>2024-09-07T09:39:32Z</time>
      </trkpt>
      <trkpt lat="48.09996" lon="-3.63079">
        <ele>93</ele>
        <time>2024-09-07T09:39:33Z</time>
      </trkpt>
      <trkpt lat="48.10001" lon="-3.63074">
        <ele>93</ele>
        <time>2024-09-07T09:39:34Z</time>
      </trkpt>
      <trkpt lat="48.10005" lon="-3.63069">
        <ele>93</ele>
        <time>2024-09-07T09:39:35Z</time>
      </trkpt>
      <trkpt lat="48.10009" lon="-3.63065">
        <ele>93</ele>
        <time>2024-09-07T09:39:36Z</time>
      </trkpt>
      <trkpt lat="48.10013" lon="-3.6306">
        <ele>93</ele>
        <time>2024-09-07T09:39:37Z</time>
      </trkpt>
      <trkpt lat="48.10017" lon="-3.63056">
        <ele>93</ele>
        <time>2024-09-07T09:39:38Z</time>
      </trkpt>
      <trkpt lat="48.10021" lon="-3.63051">
        <ele>93</ele>
        <time>2024-09-07T09:39:39Z</time>
      </trkpt>
      <trkpt lat="48.10025" lon="-3.63047">
        <ele>93</ele>
        <time>2024-09-07T09:39:40Z</time>
      </trkpt>
      <trkpt lat="48.10029" lon="-3.63043">
        <ele>93</ele>
        <time>2024-09-07T09:39:41Z</time>
      </trkpt>
      <trkpt lat="48.10033" lon="-3.63039">
        <ele>93</ele>
        <time>2024-09-07T09:39:42Z</time>
      </trkpt>
      <trkpt lat="48.10037" lon="-3.63034">
        <ele>93</ele>
        <time>2024-09-07T09:39:43Z</time>
      </trkpt>
      <trkpt lat="48.10041" lon="-3.6303">
        <ele>93</ele>
        <time>2024-09-07T09:39:44Z</time>
      </trkpt>
      <trkpt lat="48.10045" lon="-3.63025">
        <ele>93</ele>
        <time>2024-09-07T09:39:45Z</time>
      </trkpt>
      <trkpt lat="48.1005" lon="-3.63021">
        <ele>93</ele>
        <time>2024-09-07T09:39:46Z</time>
      </trkpt>
      <trkpt lat="48.10054" lon="-3.63017">
        <ele>93</ele>
        <time>2024-09-07T09:39:47Z</time>
      </trkpt>
      <trkpt lat="48.10059" lon="-3.63012">
        <ele>93</ele>
        <time>2024-09-07T09:39:48Z</time>
      </trkpt>
      <trkpt lat="48.10063" lon="-3.63007">
        <ele>93</ele>
        <time>2024-09-07T09:39:49Z</time>
      </trkpt>
      <trkpt lat="48.10067" lon="-3.63003">
        <ele>93</ele>
        <time>2024-09-07T09:39:50Z</time>
      </trkpt>
      <trkpt lat="48.10071" lon="-3.62998">
        <ele>93</ele>
        <time>2024-09-07T09:39:51Z</time>
      </trkpt>
      <trkpt lat="48.10075" lon="-3.62993">
        <ele>93</ele>
        <time>2024-09-07T09:39:52Z</time>
      </trkpt>
      <trkpt lat="48.10079" lon="-3.62989">
        <ele>93</ele>
        <time>2024-09-07T09:39:53Z</time>
      </trkpt>
      <trkpt lat="48.10083" lon="-3.62984">
        <ele>93</ele>
        <time>2024-09-07T09:39:54Z</time>
      </trkpt>
      <trkpt lat="48.10087" lon="-3.62979">
        <ele>93</ele>
        <time>2024-09-07T09:39:55Z</time>
      </trkpt>
      <trkpt lat="48.10092" lon="-3.62974">
        <ele>93</ele>
        <time>2024-09-07T09:39:56Z</time>
      </trkpt>
      <trkpt lat="48.10096" lon="-3.62969">
        <ele>93</ele>
        <time>2024-09-07T09:39:57Z</time>
      </trkpt>
      <trkpt lat="48.10101" lon="-3.62965">
        <ele>93</ele>
        <time>2024-09-07T09:39:58Z</time>
      </trkpt>
      <trkpt lat="48.10106" lon="-3.62961">
        <ele>93</ele>
        <time>2024-09-07T09:39:59Z</time>
      </trkpt>
      <trkpt lat="48.10111" lon="-3.62957">
        <ele>93</ele>
        <time>2024-09-07T09:40:00Z</time>
      </trkpt>
      <trkpt lat="48.10115" lon="-3.62953">
        <ele>93.2</ele>
        <time>2024-09-07T09:40:01Z</time>
      </trkpt>
      <trkpt lat="48.1012" lon="-3.6295">
        <ele>93.2</ele>
        <time>2024-09-07T09:40:02Z</time>
      </trkpt>
      <trkpt lat="48.10125" lon="-3.62946">
        <ele>93.2</ele>
        <time>2024-09-07T09:40:03Z</time>
      </trkpt>
      <trkpt lat="48.10131" lon="-3.62943">
        <ele>93.2</ele>
        <time>2024-09-07T09:40:04Z</time>
      </trkpt>
      <trkpt lat="48.10136" lon="-3.6294">
        <ele>93.2</ele>
        <time>2024-09-07T09:40:05Z</time>
      </trkpt>
      <trkpt lat="48.10141" lon="-3.62937">
        <ele>93.2</ele>
        <time>2024-09-07T09:40:06Z</time>
      </trkpt>
      <trkpt lat="48.10146" lon="-3.62934">
        <ele>93.2</ele>
        <time>2024-09-07T09:40:07Z</time>
      </trkpt>
      <trkpt lat="48.10151" lon="-3.62932">
        <ele>93.2</ele>
        <time>2024-09-07T09:40:08Z</time>
      </trkpt>
      <trkpt lat="48.10155" lon="-3.62929">
        <ele>93.2</ele>
        <time>2024-09-07T09:40:09Z</time>
      </trkpt>
      <trkpt lat="48.10159" lon="-3.62926">
        <ele>93.2</ele>
        <time>2024-09-07T09:40:10Z</time>
      </trkpt>
      <trkpt lat="48.10163" lon="-3.62924">
        <ele>93.2</ele>
        <time>2024-09-07T09:40:11Z</time>
      </trkpt>
      <trkpt lat="48.10167" lon="-3.62922">
        <ele>93.2</ele>
        <time>2024-09-07T09:40:12Z</time>
      </trkpt>
      <trkpt lat="48.1017" lon="-3.62921">
        <ele>93.2</ele>
        <time>2024-09-07T09:40:13Z</time>
      </trkpt>
      <trkpt lat="48.10172" lon="-3.6292">
        <ele>93.2</ele>
        <time>2024-09-07T09:40:14Z</time>
      </trkpt>
      <trkpt lat="48.10174" lon="-3.62919">
        <ele>93.2</ele>
        <time>2024-09-07T09:40:15Z</time>
      </trkpt>
      <trkpt lat="48.10176" lon="-3.62918">
        <ele>93.2</ele>
        <time>2024-09-07T09:40:16Z</time>
      </trkpt>
      <trkpt lat="48.10178" lon="-3.62917">
        <ele>93.2</ele>
        <time>2024-09-07T09:40:17Z</time>
      </trkpt>
      <trkpt lat="48.1018" lon="-3.62916">
        <ele>93</ele>
        <time>2024-09-07T09:40:18Z</time>
      </trkpt>
      <trkpt lat="48.10182" lon="-3.62916">
        <ele>93</ele>
        <time>2024-09-07T09:40:19Z</time>
      </trkpt>
      <trkpt lat="48.10184" lon="-3.62915">
        <ele>93.2</ele>
        <time>2024-09-07T09:40:20Z</time>
      </trkpt>
      <trkpt lat="48.10186" lon="-3.62915">
        <ele>93.2</ele>
        <time>2024-09-07T09:40:21Z</time>
      </trkpt>
      <trkpt lat="48.10189" lon="-3.62915">
        <ele>93.2</ele>
        <time>2024-09-07T09:40:22Z</time>
      </trkpt>
      <trkpt lat="48.10191" lon="-3.62913">
        <ele>93.2</ele>
        <time>2024-09-07T09:40:23Z</time>
      </trkpt>
      <trkpt lat="48.10193" lon="-3.62912">
        <ele>93.2</ele>
        <time>2024-09-07T09:40:24Z</time>
      </trkpt>
      <trkpt lat="48.10195" lon="-3.6291">
        <ele>93.2</ele>
        <time>2024-09-07T09:40:25Z</time>
      </trkpt>
      <trkpt lat="48.10197" lon="-3.62908">
        <ele>93.2</ele>
        <time>2024-09-07T09:40:26Z</time>
      </trkpt>
      <trkpt lat="48.10201" lon="-3.62907">
        <ele>93.4</ele>
        <time>2024-09-07T09:40:27Z</time>
      </trkpt>
      <trkpt lat="48.10205" lon="-3.62905">
        <ele>93.4</ele>
        <time>2024-09-07T09:40:28Z</time>
      </trkpt>
      <trkpt lat="48.10209" lon="-3.62904">
        <ele>93.4</ele>
        <time>2024-09-07T09:40:29Z</time>
      </trkpt>
      <trkpt lat="48.10213" lon="-3.62903">
        <ele>93.4</ele>
        <time>2024-09-07T09:40:30Z</time>
      </trkpt>
      <trkpt lat="48.10218" lon="-3.62902">
        <ele>93.4</ele>
        <time>2024-09-07T09:40:31Z</time>
      </trkpt>
      <trkpt lat="48.10221" lon="-3.62901">
        <ele>93.4</ele>
        <time>2024-09-07T09:40:32Z</time>
      </trkpt>
      <trkpt lat="48.10225" lon="-3.629">
        <ele>93.4</ele>
        <time>2024-09-07T09:40:33Z</time>
      </trkpt>
      <trkpt lat="48.10229" lon="-3.629">
        <ele>93.6</ele>
        <time>2024-09-07T09:40:34Z</time>
      </trkpt>
      <trkpt lat="48.10233" lon="-3.62899">
        <ele>93.6</ele>
        <time>2024-09-07T09:40:35Z</time>
      </trkpt>
      <trkpt lat="48.10237" lon="-3.62899">
        <ele>93.6</ele>
        <time>2024-09-07T09:40:36Z</time>
      </trkpt>
      <trkpt lat="48.10241" lon="-3.62898">
        <ele>93.8</ele>
        <time>2024-09-07T09:40:37Z</time>
      </trkpt>
      <trkpt lat="48.10245" lon="-3.62898">
        <ele>93.8</ele>
        <time>2024-09-07T09:40:38Z</time>
      </trkpt>
      <trkpt lat="48.10248" lon="-3.62897">
        <ele>93.8</ele>
        <time>2024-09-07T09:40:39Z</time>
      </trkpt>
      <trkpt lat="48.10252" lon="-3.62895">
        <ele>94</ele>
        <time>2024-09-07T09:40:40Z</time>
      </trkpt>
      <trkpt lat="48.10256" lon="-3.62894">
        <ele>94</ele>
        <time>2024-09-07T09:40:41Z</time>
      </trkpt>
      <trkpt lat="48.10261" lon="-3.62897">
        <ele>94</ele>
        <time>2024-09-07T09:40:42Z</time>
      </trkpt>
      <trkpt lat="48.10266" lon="-3.62897">
        <ele>94.2</ele>
        <time>2024-09-07T09:40:43Z</time>
      </trkpt>
      <trkpt lat="48.1027" lon="-3.62896">
        <ele>94.2</ele>
        <time>2024-09-07T09:40:44Z</time>
      </trkpt>
      <trkpt lat="48.10273" lon="-3.62895">
        <ele>94.2</ele>
        <time>2024-09-07T09:40:45Z</time>
      </trkpt>
      <trkpt lat="48.10277" lon="-3.62892">
        <ele>94.2</ele>
        <time>2024-09-07T09:40:46Z</time>
      </trkpt>
      <trkpt lat="48.10281" lon="-3.62891">
        <ele>94.2</ele>
        <time>2024-09-07T09:40:47Z</time>
      </trkpt>
      <trkpt lat="48.10285" lon="-3.62891">
        <ele>94.2</ele>
        <time>2024-09-07T09:40:48Z</time>
      </trkpt>
      <trkpt lat="48.10289" lon="-3.62891">
        <ele>94.4</ele>
        <time>2024-09-07T09:40:49Z</time>
      </trkpt>
      <trkpt lat="48.10294" lon="-3.62891">
        <ele>94.4</ele>
        <time>2024-09-07T09:40:50Z</time>
      </trkpt>
      <trkpt lat="48.10299" lon="-3.62891">
        <ele>94.4</ele>
        <time>2024-09-07T09:40:51Z</time>
      </trkpt>
      <trkpt lat="48.10305" lon="-3.62891">
        <ele>94.4</ele>
        <time>2024-09-07T09:40:52Z</time>
      </trkpt>
      <trkpt lat="48.1031" lon="-3.62892">
        <ele>94.4</ele>
        <time>2024-09-07T09:40:53Z</time>
      </trkpt>
      <trkpt lat="48.10315" lon="-3.62894">
        <ele>94.4</ele>
        <time>2024-09-07T09:40:54Z</time>
      </trkpt>
      <trkpt lat="48.10321" lon="-3.62895">
        <ele>94.4</ele>
        <time>2024-09-07T09:40:55Z</time>
      </trkpt>
      <trkpt lat="48.10327" lon="-3.62895">
        <ele>94.4</ele>
        <time>2024-09-07T09:40:56Z</time>
      </trkpt>
      <trkpt lat="48.10333" lon="-3.62895">
        <ele>94.4</ele>
        <time>2024-09-07T09:40:57Z</time>
      </trkpt>
      <trkpt lat="48.10338" lon="-3.62896">
        <ele>94.8</ele>
        <time>2024-09-07T09:40:58Z</time>
      </trkpt>
      <trkpt lat="48.10344" lon="-3.62897">
        <ele>94.6</ele>
        <time>2024-09-07T09:40:59Z</time>
      </trkpt>
      <trkpt lat="48.10349" lon="-3.62896">
        <ele>94.6</ele>
        <time>2024-09-07T09:41:00Z</time>
      </trkpt>
      <trkpt lat="48.10354" lon="-3.62897">
        <ele>94.8</ele>
        <time>2024-09-07T09:41:01Z</time>
      </trkpt>
      <trkpt lat="48.10358" lon="-3.62897">
        <ele>94.8</ele>
        <time>2024-09-07T09:41:02Z</time>
      </trkpt>
      <trkpt lat="48.10363" lon="-3.62896">
        <ele>94.8</ele>
        <time>2024-09-07T09:41:03Z</time>
      </trkpt>
      <trkpt lat="48.10368" lon="-3.62897">
        <ele>94.8</ele>
        <time>2024-09-07T09:41:04Z</time>
      </trkpt>
      <trkpt lat="48.10373" lon="-3.62898">
        <ele>95</ele>
        <time>2024-09-07T09:41:05Z</time>
      </trkpt>
      <trkpt lat="48.10378" lon="-3.62898">
        <ele>95</ele>
        <time>2024-09-07T09:41:06Z</time>
      </trkpt>
      <trkpt lat="48.10382" lon="-3.629">
        <ele>95</ele>
        <time>2024-09-07T09:41:07Z</time>
      </trkpt>
      <trkpt lat="48.10387" lon="-3.629">
        <ele>95</ele>
        <time>2024-09-07T09:41:08Z</time>
      </trkpt>
      <trkpt lat="48.10391" lon="-3.62901">
        <ele>95</ele>
        <time>2024-09-07T09:41:09Z</time>
      </trkpt>
      <trkpt lat="48.10396" lon="-3.62903">
        <ele>95</ele>
        <time>2024-09-07T09:41:10Z</time>
      </trkpt>
      <trkpt lat="48.104" lon="-3.62904">
        <ele>95.2</ele>
        <time>2024-09-07T09:41:11Z</time>
      </trkpt>
      <trkpt lat="48.10404" lon="-3.62906">
        <ele>95.2</ele>
        <time>2024-09-07T09:41:12Z</time>
      </trkpt>
      <trkpt lat="48.10409" lon="-3.62907">
        <ele>95.2</ele>
        <time>2024-09-07T09:41:13Z</time>
      </trkpt>
      <trkpt lat="48.10413" lon="-3.62909">
        <ele>95.2</ele>
        <time>2024-09-07T09:41:14Z</time>
      </trkpt>
      <trkpt lat="48.10417" lon="-3.62911">
        <ele>95.2</ele>
        <time>2024-09-07T09:41:15Z</time>
      </trkpt>
      <trkpt lat="48.10422" lon="-3.62912">
        <ele>95.2</ele>
        <time>2024-09-07T09:41:16Z</time>
      </trkpt>
      <trkpt lat="48.10427" lon="-3.62914">
        <ele>95.2</ele>
        <time>2024-09-07T09:41:17Z</time>
      </trkpt>
      <trkpt lat="48.10431" lon="-3.62916">
        <ele>95.2</ele>
        <time>2024-09-07T09:41:18Z</time>
      </trkpt>
      <trkpt lat="48.10435" lon="-3.62919">
        <ele>95.2</ele>
        <time>2024-09-07T09:41:19Z</time>
      </trkpt>
      <trkpt lat="48.10439" lon="-3.62921">
        <ele>95.2</ele>
        <time>2024-09-07T09:41:20Z</time>
      </trkpt>
      <trkpt lat="48.10444" lon="-3.62922">
        <ele>95.2</ele>
        <time>2024-09-07T09:41:21Z</time>
      </trkpt>
      <trkpt lat="48.10448" lon="-3.62924">
        <ele>95.4</ele>
        <time>2024-09-07T09:41:22Z</time>
      </trkpt>
      <trkpt lat="48.10452" lon="-3.62926">
        <ele>95.4</ele>
        <time>2024-09-07T09:41:23Z</time>
      </trkpt>
      <trkpt lat="48.10456" lon="-3.62927">
        <ele>95.4</ele>
        <time>2024-09-07T09:41:24Z</time>
      </trkpt>
      <trkpt lat="48.10459" lon="-3.62928">
        <ele>95.4</ele>
        <time>2024-09-07T09:41:25Z</time>
      </trkpt>
      <trkpt lat="48.10463" lon="-3.62929">
        <ele>95.4</ele>
        <time>2024-09-07T09:41:26Z</time>
      </trkpt>
      <trkpt lat="48.10466" lon="-3.6293">
        <ele>95.4</ele>
        <time>2024-09-07T09:41:27Z</time>
      </trkpt>
      <trkpt lat="48.10469" lon="-3.62932">
        <ele>95.4</ele>
        <time>2024-09-07T09:41:28Z</time>
      </trkpt>
      <trkpt lat="48.10471" lon="-3.62932">
        <ele>95.4</ele>
        <time>2024-09-07T09:41:29Z</time>
      </trkpt>
      <trkpt lat="48.10473" lon="-3.62932">
        <ele>95.4</ele>
        <time>2024-09-07T09:41:30Z</time>
      </trkpt>
      <trkpt lat="48.10475" lon="-3.62933">
        <ele>95.4</ele>
        <time>2024-09-07T09:41:31Z</time>
      </trkpt>
      <trkpt lat="48.10476" lon="-3.62933">
        <ele>95.4</ele>
        <time>2024-09-07T09:41:32Z</time>
      </trkpt>
      <trkpt lat="48.10478" lon="-3.62933">
        <ele>95.4</ele>
        <time>2024-09-07T09:41:33Z</time>
      </trkpt>
      <trkpt lat="48.1048" lon="-3.62933">
        <ele>95.4</ele>
        <time>2024-09-07T09:41:34Z</time>
      </trkpt>
      <trkpt lat="48.10482" lon="-3.62933">
        <ele>95.6</ele>
        <time>2024-09-07T09:41:35Z</time>
      </trkpt>
      <trkpt lat="48.10484" lon="-3.62933">
        <ele>95.6</ele>
        <time>2024-09-07T09:41:36Z</time>
      </trkpt>
      <trkpt lat="48.10486" lon="-3.62934">
        <ele>95.6</ele>
        <time>2024-09-07T09:41:37Z</time>
      </trkpt>
      <trkpt lat="48.10488" lon="-3.62935">
        <ele>95.6</ele>
        <time>2024-09-07T09:41:38Z</time>
      </trkpt>
      <trkpt lat="48.10489" lon="-3.62936">
        <ele>95.6</ele>
        <time>2024-09-07T09:41:39Z</time>
      </trkpt>
      <trkpt lat="48.10491" lon="-3.62937">
        <ele>95.6</ele>
        <time>2024-09-07T09:41:40Z</time>
      </trkpt>
      <trkpt lat="48.10493" lon="-3.62938">
        <ele>95.6</ele>
        <time>2024-09-07T09:41:41Z</time>
      </trkpt>
      <trkpt lat="48.10495" lon="-3.62938">
        <ele>95.6</ele>
        <time>2024-09-07T09:41:42Z</time>
      </trkpt>
      <trkpt lat="48.10497" lon="-3.62938">
        <ele>95.6</ele>
        <time>2024-09-07T09:41:43Z</time>
      </trkpt>
      <trkpt lat="48.10499" lon="-3.62939">
        <ele>95.6</ele>
        <time>2024-09-07T09:41:44Z</time>
      </trkpt>
      <trkpt lat="48.105" lon="-3.62939">
        <ele>95.6</ele>
        <time>2024-09-07T09:41:45Z</time>
      </trkpt>
      <trkpt lat="48.10502" lon="-3.62939">
        <ele>95.8</ele>
        <time>2024-09-07T09:41:46Z</time>
      </trkpt>
      <trkpt lat="48.10504" lon="-3.62939">
        <ele>95.8</ele>
        <time>2024-09-07T09:41:47Z</time>
      </trkpt>
      <trkpt lat="48.10505" lon="-3.62939">
        <ele>95.8</ele>
        <time>2024-09-07T09:41:48Z</time>
      </trkpt>
      <trkpt lat="48.10506" lon="-3.6294">
        <ele>95.8</ele>
        <time>2024-09-07T09:41:49Z</time>
      </trkpt>
      <trkpt lat="48.10508" lon="-3.6294">
        <ele>95.8</ele>
        <time>2024-09-07T09:41:50Z</time>
      </trkpt>
      <trkpt lat="48.10509" lon="-3.62941">
        <ele>95.8</ele>
        <time>2024-09-07T09:41:51Z</time>
      </trkpt>
      <trkpt lat="48.1051" lon="-3.62942">
        <ele>95.8</ele>
        <time>2024-09-07T09:41:52Z</time>
      </trkpt>
      <trkpt lat="48.10511" lon="-3.62942">
        <ele>95.8</ele>
        <time>2024-09-07T09:41:53Z</time>
      </trkpt>
      <trkpt lat="48.10512" lon="-3.62943">
        <ele>95.8</ele>
        <time>2024-09-07T09:41:54Z</time>
      </trkpt>
      <trkpt lat="48.10514" lon="-3.62943">
        <ele>95.8</ele>
        <time>2024-09-07T09:41:55Z</time>
      </trkpt>
      <trkpt lat="48.10515" lon="-3.62944">
        <ele>95.8</ele>
        <time>2024-09-07T09:41:56Z</time>
      </trkpt>
      <trkpt lat="48.10517" lon="-3.62944">
        <ele>95.8</ele>
        <time>2024-09-07T09:41:57Z</time>
      </trkpt>
      <trkpt lat="48.1052" lon="-3.62945">
        <ele>95.8</ele>
        <time>2024-09-07T09:41:58Z</time>
      </trkpt>
      <trkpt lat="48.10522" lon="-3.62947">
        <ele>95.8</ele>
        <time>2024-09-07T09:41:59Z</time>
      </trkpt>
      <trkpt lat="48.10526" lon="-3.62949">
        <ele>95.8</ele>
        <time>2024-09-07T09:42:00Z</time>
      </trkpt>
      <trkpt lat="48.10531" lon="-3.62951">
        <ele>95.8</ele>
        <time>2024-09-07T09:42:01Z</time>
      </trkpt>
      <trkpt lat="48.10536" lon="-3.62953">
        <ele>95.8</ele>
        <time>2024-09-07T09:42:02Z</time>
      </trkpt>
      <trkpt lat="48.10541" lon="-3.62955">
        <ele>95.8</ele>
        <time>2024-09-07T09:42:03Z</time>
      </trkpt>
      <trkpt lat="48.10547" lon="-3.62957">
        <ele>95.8</ele>
        <time>2024-09-07T09:42:04Z</time>
      </trkpt>
      <trkpt lat="48.10553" lon="-3.6296">
        <ele>95.8</ele>
        <time>2024-09-07T09:42:05Z</time>
      </trkpt>
      <trkpt lat="48.10558" lon="-3.62962">
        <ele>95.8</ele>
        <time>2024-09-07T09:42:06Z</time>
      </trkpt>
      <trkpt lat="48.10564" lon="-3.62964">
        <ele>95.8</ele>
        <time>2024-09-07T09:42:07Z</time>
      </trkpt>
      <trkpt lat="48.1057" lon="-3.62966">
        <ele>95.8</ele>
        <time>2024-09-07T09:42:08Z</time>
      </trkpt>
      <trkpt lat="48.10576" lon="-3.62968">
        <ele>95.8</ele>
        <time>2024-09-07T09:42:09Z</time>
      </trkpt>
      <trkpt lat="48.10581" lon="-3.6297">
        <ele>95.8</ele>
        <time>2024-09-07T09:42:10Z</time>
      </trkpt>
      <trkpt lat="48.10587" lon="-3.62971">
        <ele>96</ele>
        <time>2024-09-07T09:42:11Z</time>
      </trkpt>
      <trkpt lat="48.10593" lon="-3.62973">
        <ele>96</ele>
        <time>2024-09-07T09:42:12Z</time>
      </trkpt>
      <trkpt lat="48.10599" lon="-3.62974">
        <ele>96</ele>
        <time>2024-09-07T09:42:13Z</time>
      </trkpt>
      <trkpt lat="48.10604" lon="-3.62976">
        <ele>96</ele>
        <time>2024-09-07T09:42:14Z</time>
      </trkpt>
      <trkpt lat="48.1061" lon="-3.62978">
        <ele>96</ele>
        <time>2024-09-07T09:42:15Z</time>
      </trkpt>
      <trkpt lat="48.10616" lon="-3.62979">
        <ele>96</ele>
        <time>2024-09-07T09:42:16Z</time>
      </trkpt>
      <trkpt lat="48.10621" lon="-3.6298">
        <ele>96.2</ele>
        <time>2024-09-07T09:42:17Z</time>
      </trkpt>
      <trkpt lat="48.10626" lon="-3.62981">
        <ele>96.2</ele>
        <time>2024-09-07T09:42:18Z</time>
      </trkpt>
      <trkpt lat="48.10632" lon="-3.62983">
        <ele>96.2</ele>
        <time>2024-09-07T09:42:19Z</time>
      </trkpt>
      <trkpt lat="48.10637" lon="-3.62984">
        <ele>96.2</ele>
        <time>2024-09-07T09:42:20Z</time>
      </trkpt>
      <trkpt lat="48.10642" lon="-3.62985">
        <ele>96.2</ele>
        <time>2024-09-07T09:42:21Z</time>
      </trkpt>
      <trkpt lat="48.10647" lon="-3.62986">
        <ele>96.2</ele>
        <time>2024-09-07T09:42:22Z</time>
      </trkpt>
      <trkpt lat="48.10653" lon="-3.62987">
        <ele>96.2</ele>
        <time>2024-09-07T09:42:23Z</time>
      </trkpt>
      <trkpt lat="48.10657" lon="-3.62987">
        <ele>96.2</ele>
        <time>2024-09-07T09:42:24Z</time>
      </trkpt>
      <trkpt lat="48.10662" lon="-3.62988">
        <ele>96.2</ele>
        <time>2024-09-07T09:42:25Z</time>
      </trkpt>
      <trkpt lat="48.10667" lon="-3.62988">
        <ele>96.2</ele>
        <time>2024-09-07T09:42:26Z</time>
      </trkpt>
      <trkpt lat="48.10673" lon="-3.62989">
        <ele>96.2</ele>
        <time>2024-09-07T09:42:27Z</time>
      </trkpt>
      <trkpt lat="48.10678" lon="-3.62989">
        <ele>96.2</ele>
        <time>2024-09-07T09:42:28Z</time>
      </trkpt>
      <trkpt lat="48.10683" lon="-3.6299">
        <ele>96.2</ele>
        <time>2024-09-07T09:42:29Z</time>
      </trkpt>
      <trkpt lat="48.10688" lon="-3.62989">
        <ele>96.2</ele>
        <time>2024-09-07T09:42:30Z</time>
      </trkpt>
      <trkpt lat="48.10693" lon="-3.6299">
        <ele>96.4</ele>
        <time>2024-09-07T09:42:31Z</time>
      </trkpt>
      <trkpt lat="48.10697" lon="-3.6299">
        <ele>96.4</ele>
        <time>2024-09-07T09:42:32Z</time>
      </trkpt>
      <trkpt lat="48.10702" lon="-3.6299">
        <ele>96.4</ele>
        <time>2024-09-07T09:42:33Z</time>
      </trkpt>
      <trkpt lat="48.10707" lon="-3.6299">
        <ele>96.4</ele>
        <time>2024-09-07T09:42:34Z</time>
      </trkpt>
      <trkpt lat="48.10713" lon="-3.6299">
        <ele>96.4</ele>
        <time>2024-09-07T09:42:35Z</time>
      </trkpt>
      <trkpt lat="48.10718" lon="-3.62989">
        <ele>96.6</ele>
        <time>2024-09-07T09:42:36Z</time>
      </trkpt>
      <trkpt lat="48.10723" lon="-3.62988">
        <ele>96.4</ele>
        <time>2024-09-07T09:42:37Z</time>
      </trkpt>
      <trkpt lat="48.10728" lon="-3.62988">
        <ele>96.6</ele>
        <time>2024-09-07T09:42:38Z</time>
      </trkpt>
      <trkpt lat="48.10733" lon="-3.62988">
        <ele>96.6</ele>
        <time>2024-09-07T09:42:39Z</time>
      </trkpt>
      <trkpt lat="48.10738" lon="-3.62988">
        <ele>96.6</ele>
        <time>2024-09-07T09:42:40Z</time>
      </trkpt>
      <trkpt lat="48.10743" lon="-3.62987">
        <ele>96.4</ele>
        <time>2024-09-07T09:42:41Z</time>
      </trkpt>
      <trkpt lat="48.10748" lon="-3.62986">
        <ele>96.6</ele>
        <time>2024-09-07T09:42:42Z</time>
      </trkpt>
      <trkpt lat="48.10754" lon="-3.62985">
        <ele>96.6</ele>
        <time>2024-09-07T09:42:43Z</time>
      </trkpt>
      <trkpt lat="48.1076" lon="-3.62984">
        <ele>96.6</ele>
        <time>2024-09-07T09:42:44Z</time>
      </trkpt>
      <trkpt lat="48.10765" lon="-3.62984">
        <ele>96.4</ele>
        <time>2024-09-07T09:42:45Z</time>
      </trkpt>
      <trkpt lat="48.1077" lon="-3.62983">
        <ele>96.4</ele>
        <time>2024-09-07T09:42:46Z</time>
      </trkpt>
      <trkpt lat="48.10776" lon="-3.62983">
        <ele>96.4</ele>
        <time>2024-09-07T09:42:47Z</time>
      </trkpt>
      <trkpt lat="48.10781" lon="-3.62983">
        <ele>96.6</ele>
        <time>2024-09-07T09:42:48Z</time>
      </trkpt>
      <trkpt lat="48.10787" lon="-3.62982">
        <ele>96.6</ele>
        <time>2024-09-07T09:42:49Z</time>
      </trkpt>
      <trkpt lat="48.10793" lon="-3.62982">
        <ele>96.6</ele>
        <time>2024-09-07T09:42:50Z</time>
      </trkpt>
      <trkpt lat="48.10798" lon="-3.62981">
        <ele>96.6</ele>
        <time>2024-09-07T09:42:51Z</time>
      </trkpt>
      <trkpt lat="48.10803" lon="-3.6298">
        <ele>96.6</ele>
        <time>2024-09-07T09:42:52Z</time>
      </trkpt>
      <trkpt lat="48.10809" lon="-3.6298">
        <ele>96.6</ele>
        <time>2024-09-07T09:42:53Z</time>
      </trkpt>
      <trkpt lat="48.10813" lon="-3.62979">
        <ele>96.6</ele>
        <time>2024-09-07T09:42:54Z</time>
      </trkpt>
      <trkpt lat="48.10818" lon="-3.62978">
        <ele>96.6</ele>
        <time>2024-09-07T09:42:55Z</time>
      </trkpt>
      <trkpt lat="48.10824" lon="-3.62978">
        <ele>96.6</ele>
        <time>2024-09-07T09:42:56Z</time>
      </trkpt>
      <trkpt lat="48.10829" lon="-3.62977">
        <ele>96.6</ele>
        <time>2024-09-07T09:42:57Z</time>
      </trkpt>
      <trkpt lat="48.10835" lon="-3.62976">
        <ele>96.8</ele>
        <time>2024-09-07T09:42:58Z</time>
      </trkpt>
      <trkpt lat="48.10841" lon="-3.62975">
        <ele>96.8</ele>
        <time>2024-09-07T09:42:59Z</time>
      </trkpt>
      <trkpt lat="48.10846" lon="-3.62975">
        <ele>96.8</ele>
        <time>2024-09-07T09:43:00Z</time>
      </trkpt>
      <trkpt lat="48.10851" lon="-3.62974">
        <ele>96.8</ele>
        <time>2024-09-07T09:43:01Z</time>
      </trkpt>
      <trkpt lat="48.10857" lon="-3.62975">
        <ele>96.8</ele>
        <time>2024-09-07T09:43:02Z</time>
      </trkpt>
      <trkpt lat="48.10863" lon="-3.62974">
        <ele>96.8</ele>
        <time>2024-09-07T09:43:03Z</time>
      </trkpt>
      <trkpt lat="48.10868" lon="-3.62974">
        <ele>96.8</ele>
        <time>2024-09-07T09:43:04Z</time>
      </trkpt>
      <trkpt lat="48.10873" lon="-3.62974">
        <ele>96.8</ele>
        <time>2024-09-07T09:43:05Z</time>
      </trkpt>
      <trkpt lat="48.10878" lon="-3.62974">
        <ele>96.8</ele>
        <time>2024-09-07T09:43:06Z</time>
      </trkpt>
      <trkpt lat="48.10883" lon="-3.62974">
        <ele>96.8</ele>
        <time>2024-09-07T09:43:07Z</time>
      </trkpt>
      <trkpt lat="48.10888" lon="-3.62973">
        <ele>96.8</ele>
        <time>2024-09-07T09:43:08Z</time>
      </trkpt>
      <trkpt lat="48.10893" lon="-3.62973">
        <ele>96.8</ele>
        <time>2024-09-07T09:43:09Z</time>
      </trkpt>
      <trkpt lat="48.10898" lon="-3.62972">
        <ele>96.8</ele>
        <time>2024-09-07T09:43:10Z</time>
      </trkpt>
      <trkpt lat="48.10904" lon="-3.62972">
        <ele>96.8</ele>
        <time>2024-09-07T09:43:11Z</time>
      </trkpt>
      <trkpt lat="48.10909" lon="-3.62971">
        <ele>96.8</ele>
        <time>2024-09-07T09:43:12Z</time>
      </trkpt>
      <trkpt lat="48.10914" lon="-3.62971">
        <ele>96.8</ele>
        <time>2024-09-07T09:43:13Z</time>
      </trkpt>
      <trkpt lat="48.1092" lon="-3.6297">
        <ele>96.8</ele>
        <time>2024-09-07T09:43:14Z</time>
      </trkpt>
      <trkpt lat="48.10925" lon="-3.6297">
        <ele>96.8</ele>
        <time>2024-09-07T09:43:15Z</time>
      </trkpt>
      <trkpt lat="48.1093" lon="-3.6297">
        <ele>96.8</ele>
        <time>2024-09-07T09:43:16Z</time>
      </trkpt>
      <trkpt lat="48.10936" lon="-3.62969">
        <ele>96.8</ele>
        <time>2024-09-07T09:43:17Z</time>
      </trkpt>
      <trkpt lat="48.10941" lon="-3.62969">
        <ele>96.8</ele>
        <time>2024-09-07T09:43:18Z</time>
      </trkpt>
      <trkpt lat="48.10946" lon="-3.62969">
        <ele>97</ele>
        <time>2024-09-07T09:43:19Z</time>
      </trkpt>
      <trkpt lat="48.10952" lon="-3.62969">
        <ele>97</ele>
        <time>2024-09-07T09:43:20Z</time>
      </trkpt>
      <trkpt lat="48.10957" lon="-3.62968">
        <ele>97</ele>
        <time>2024-09-07T09:43:21Z</time>
      </trkpt>
      <trkpt lat="48.10962" lon="-3.62968">
        <ele>97</ele>
        <time>2024-09-07T09:43:22Z</time>
      </trkpt>
      <trkpt lat="48.10967" lon="-3.62968">
        <ele>97.2</ele>
        <time>2024-09-07T09:43:23Z</time>
      </trkpt>
      <trkpt lat="48.10971" lon="-3.62968">
        <ele>97.2</ele>
        <time>2024-09-07T09:43:24Z</time>
      </trkpt>
      <trkpt lat="48.10976" lon="-3.62967">
        <ele>97.2</ele>
        <time>2024-09-07T09:43:25Z</time>
      </trkpt>
      <trkpt lat="48.10981" lon="-3.62967">
        <ele>97.2</ele>
        <time>2024-09-07T09:43:26Z</time>
      </trkpt>
      <trkpt lat="48.10986" lon="-3.62966">
        <ele>97.2</ele>
        <time>2024-09-07T09:43:27Z</time>
      </trkpt>
      <trkpt lat="48.10991" lon="-3.62965">
        <ele>97.2</ele>
        <time>2024-09-07T09:43:28Z</time>
      </trkpt>
      <trkpt lat="48.10996" lon="-3.62965">
        <ele>97.2</ele>
        <time>2024-09-07T09:43:29Z</time>
      </trkpt>
      <trkpt lat="48.11001" lon="-3.62964">
        <ele>97.2</ele>
        <time>2024-09-07T09:43:30Z</time>
      </trkpt>
      <trkpt lat="48.11007" lon="-3.62964">
        <ele>97.4</ele>
        <time>2024-09-07T09:43:31Z</time>
      </trkpt>
      <trkpt lat="48.11012" lon="-3.62964">
        <ele>97.4</ele>
        <time>2024-09-07T09:43:32Z</time>
      </trkpt>
      <trkpt lat="48.11017" lon="-3.62964">
        <ele>97.4</ele>
        <time>2024-09-07T09:43:33Z</time>
      </trkpt>
      <trkpt lat="48.11022" lon="-3.62964">
        <ele>97.4</ele>
        <time>2024-09-07T09:43:34Z</time>
      </trkpt>
      <trkpt lat="48.11028" lon="-3.62963">
        <ele>97.4</ele>
        <time>2024-09-07T09:43:35Z</time>
      </trkpt>
      <trkpt lat="48.11033" lon="-3.62963">
        <ele>97.4</ele>
        <time>2024-09-07T09:43:36Z</time>
      </trkpt>
      <trkpt lat="48.11039" lon="-3.62963">
        <ele>97.4</ele>
        <time>2024-09-07T09:43:37Z</time>
      </trkpt>
      <trkpt lat="48.11044" lon="-3.62962">
        <ele>97.4</ele>
        <time>2024-09-07T09:43:38Z</time>
      </trkpt>
      <trkpt lat="48.11049" lon="-3.62961">
        <ele>97.4</ele>
        <time>2024-09-07T09:43:39Z</time>
      </trkpt>
      <trkpt lat="48.11055" lon="-3.6296">
        <ele>97.4</ele>
        <time>2024-09-07T09:43:40Z</time>
      </trkpt>
      <trkpt lat="48.11061" lon="-3.62959">
        <ele>97.4</ele>
        <time>2024-09-07T09:43:41Z</time>
      </trkpt>
      <trkpt lat="48.11066" lon="-3.62958">
        <ele>97.4</ele>
        <time>2024-09-07T09:43:42Z</time>
      </trkpt>
      <trkpt lat="48.11072" lon="-3.62957">
        <ele>97.4</ele>
        <time>2024-09-07T09:43:43Z</time>
      </trkpt>
      <trkpt lat="48.11078" lon="-3.62956">
        <ele>97.6</ele>
        <time>2024-09-07T09:43:44Z</time>
      </trkpt>
      <trkpt lat="48.11083" lon="-3.62955">
        <ele>97.6</ele>
        <time>2024-09-07T09:43:45Z</time>
      </trkpt>
      <trkpt lat="48.11089" lon="-3.62953">
        <ele>97.6</ele>
        <time>2024-09-07T09:43:46Z</time>
      </trkpt>
      <trkpt lat="48.11095" lon="-3.62951">
        <ele>97.6</ele>
        <time>2024-09-07T09:43:47Z</time>
      </trkpt>
      <trkpt lat="48.111" lon="-3.6295">
        <ele>97.6</ele>
        <time>2024-09-07T09:43:48Z</time>
      </trkpt>
      <trkpt lat="48.11106" lon="-3.62948">
        <ele>97.6</ele>
        <time>2024-09-07T09:43:49Z</time>
      </trkpt>
      <trkpt lat="48.11111" lon="-3.62947">
        <ele>97.6</ele>
        <time>2024-09-07T09:43:50Z</time>
      </trkpt>
      <trkpt lat="48.11116" lon="-3.62945">
        <ele>97.6</ele>
        <time>2024-09-07T09:43:51Z</time>
      </trkpt>
      <trkpt lat="48.11122" lon="-3.62943">
        <ele>97.8</ele>
        <time>2024-09-07T09:43:52Z</time>
      </trkpt>
      <trkpt lat="48.11128" lon="-3.62941">
        <ele>97.8</ele>
        <time>2024-09-07T09:43:53Z</time>
      </trkpt>
      <trkpt lat="48.11133" lon="-3.62939">
        <ele>97.8</ele>
        <time>2024-09-07T09:43:54Z</time>
      </trkpt>
      <trkpt lat="48.11139" lon="-3.62937">
        <ele>97.8</ele>
        <time>2024-09-07T09:43:55Z</time>
      </trkpt>
      <trkpt lat="48.11145" lon="-3.62935">
        <ele>97.8</ele>
        <time>2024-09-07T09:43:56Z</time>
      </trkpt>
      <trkpt lat="48.1115" lon="-3.62933">
        <ele>97.8</ele>
        <time>2024-09-07T09:43:57Z</time>
      </trkpt>
      <trkpt lat="48.11155" lon="-3.62931">
        <ele>97.8</ele>
        <time>2024-09-07T09:43:58Z</time>
      </trkpt>
      <trkpt lat="48.1116" lon="-3.6293">
        <ele>97.8</ele>
        <time>2024-09-07T09:43:59Z</time>
      </trkpt>
      <trkpt lat="48.11165" lon="-3.62928">
        <ele>97.8</ele>
        <time>2024-09-07T09:44:00Z</time>
      </trkpt>
      <trkpt lat="48.11171" lon="-3.62926">
        <ele>97.8</ele>
        <time>2024-09-07T09:44:01Z</time>
      </trkpt>
      <trkpt lat="48.11176" lon="-3.62924">
        <ele>98</ele>
        <time>2024-09-07T09:44:02Z</time>
      </trkpt>
      <trkpt lat="48.11182" lon="-3.62922">
        <ele>98</ele>
        <time>2024-09-07T09:44:03Z</time>
      </trkpt>
      <trkpt lat="48.11187" lon="-3.6292">
        <ele>98</ele>
        <time>2024-09-07T09:44:04Z</time>
      </trkpt>
      <trkpt lat="48.11193" lon="-3.62918">
        <ele>98</ele>
        <time>2024-09-07T09:44:05Z</time>
      </trkpt>
      <trkpt lat="48.11198" lon="-3.62916">
        <ele>98.2</ele>
        <time>2024-09-07T09:44:06Z</time>
      </trkpt>
      <trkpt lat="48.11204" lon="-3.62914">
        <ele>98.2</ele>
        <time>2024-09-07T09:44:07Z</time>
      </trkpt>
      <trkpt lat="48.11209" lon="-3.62912">
        <ele>98.2</ele>
        <time>2024-09-07T09:44:08Z</time>
      </trkpt>
      <trkpt lat="48.11214" lon="-3.6291">
        <ele>98.2</ele>
        <time>2024-09-07T09:44:09Z</time>
      </trkpt>
      <trkpt lat="48.1122" lon="-3.62908">
        <ele>98.2</ele>
        <time>2024-09-07T09:44:10Z</time>
      </trkpt>
      <trkpt lat="48.11225" lon="-3.62907">
        <ele>98.2</ele>
        <time>2024-09-07T09:44:11Z</time>
      </trkpt>
      <trkpt lat="48.1123" lon="-3.62905">
        <ele>98.2</ele>
        <time>2024-09-07T09:44:12Z</time>
      </trkpt>
      <trkpt lat="48.11234" lon="-3.62903">
        <ele>98.2</ele>
        <time>2024-09-07T09:44:13Z</time>
      </trkpt>
      <trkpt lat="48.11239" lon="-3.62901">
        <ele>98.2</ele>
        <time>2024-09-07T09:44:14Z</time>
      </trkpt>
      <trkpt lat="48.11244" lon="-3.62899">
        <ele>98.2</ele>
        <time>2024-09-07T09:44:15Z</time>
      </trkpt>
      <trkpt lat="48.11248" lon="-3.62898">
        <ele>98.2</ele>
        <time>2024-09-07T09:44:16Z</time>
      </trkpt>
      <trkpt lat="48.11253" lon="-3.62896">
        <ele>98.2</ele>
        <time>2024-09-07T09:44:17Z</time>
      </trkpt>
      <trkpt lat="48.11257" lon="-3.62895">
        <ele>98.2</ele>
        <time>2024-09-07T09:44:18Z</time>
      </trkpt>
      <trkpt lat="48.11261" lon="-3.62893">
        <ele>98.2</ele>
        <time>2024-09-07T09:44:19Z</time>
      </trkpt>
      <trkpt lat="48.11265" lon="-3.62891">
        <ele>98.4</ele>
        <time>2024-09-07T09:44:20Z</time>
      </trkpt>
      <trkpt lat="48.1127" lon="-3.6289">
        <ele>98.4</ele>
        <time>2024-09-07T09:44:21Z</time>
      </trkpt>
      <trkpt lat="48.11275" lon="-3.62888">
        <ele>98.4</ele>
        <time>2024-09-07T09:44:22Z</time>
      </trkpt>
      <trkpt lat="48.1128" lon="-3.62886">
        <ele>98.4</ele>
        <time>2024-09-07T09:44:23Z</time>
      </trkpt>
      <trkpt lat="48.11285" lon="-3.62884">
        <ele>98.4</ele>
        <time>2024-09-07T09:44:24Z</time>
      </trkpt>
      <trkpt lat="48.11291" lon="-3.62882">
        <ele>98.4</ele>
        <time>2024-09-07T09:44:25Z</time>
      </trkpt>
      <trkpt lat="48.11296" lon="-3.6288">
        <ele>98.6</ele>
        <time>2024-09-07T09:44:26Z</time>
      </trkpt>
      <trkpt lat="48.11302" lon="-3.62877">
        <ele>98.6</ele>
        <time>2024-09-07T09:44:27Z</time>
      </trkpt>
      <trkpt lat="48.11307" lon="-3.62875">
        <ele>98.6</ele>
        <time>2024-09-07T09:44:28Z</time>
      </trkpt>
      <trkpt lat="48.11312" lon="-3.62873">
        <ele>98.6</ele>
        <time>2024-09-07T09:44:29Z</time>
      </trkpt>
      <trkpt lat="48.11318" lon="-3.62871">
        <ele>98.6</ele>
        <time>2024-09-07T09:44:30Z</time>
      </trkpt>
      <trkpt lat="48.11323" lon="-3.62869">
        <ele>98.6</ele>
        <time>2024-09-07T09:44:31Z</time>
      </trkpt>
      <trkpt lat="48.11329" lon="-3.62867">
        <ele>98.6</ele>
        <time>2024-09-07T09:44:32Z</time>
      </trkpt>
      <trkpt lat="48.11335" lon="-3.62865">
        <ele>98.6</ele>
        <time>2024-09-07T09:44:33Z</time>
      </trkpt>
      <trkpt lat="48.11341" lon="-3.62863">
        <ele>98.6</ele>
        <time>2024-09-07T09:44:34Z</time>
      </trkpt>
      <trkpt lat="48.11346" lon="-3.62862">
        <ele>98.6</ele>
        <time>2024-09-07T09:44:35Z</time>
      </trkpt>
      <trkpt lat="48.11352" lon="-3.6286">
        <ele>98.6</ele>
        <time>2024-09-07T09:44:36Z</time>
      </trkpt>
      <trkpt lat="48.11357" lon="-3.62858">
        <ele>98.6</ele>
        <time>2024-09-07T09:44:37Z</time>
      </trkpt>
      <trkpt lat="48.11362" lon="-3.62857">
        <ele>98.6</ele>
        <time>2024-09-07T09:44:38Z</time>
      </trkpt>
      <trkpt lat="48.11366" lon="-3.62855">
        <ele>98.6</ele>
        <time>2024-09-07T09:44:39Z</time>
      </trkpt>
      <trkpt lat="48.11371" lon="-3.62854">
        <ele>98.6</ele>
        <time>2024-09-07T09:44:40Z</time>
      </trkpt>
      <trkpt lat="48.11375" lon="-3.62853">
        <ele>98.6</ele>
        <time>2024-09-07T09:44:41Z</time>
      </trkpt>
      <trkpt lat="48.11379" lon="-3.62851">
        <ele>98.6</ele>
        <time>2024-09-07T09:44:42Z</time>
      </trkpt>
      <trkpt lat="48.11385" lon="-3.62848">
        <ele>98.6</ele>
        <time>2024-09-07T09:44:43Z</time>
      </trkpt>
      <trkpt lat="48.1139" lon="-3.62847">
        <ele>98.6</ele>
        <time>2024-09-07T09:44:44Z</time>
      </trkpt>
      <trkpt lat="48.11395" lon="-3.62846">
        <ele>98.6</ele>
        <time>2024-09-07T09:44:45Z</time>
      </trkpt>
      <trkpt lat="48.11402" lon="-3.62844">
        <ele>98.6</ele>
        <time>2024-09-07T09:44:46Z</time>
      </trkpt>
      <trkpt lat="48.11407" lon="-3.62842">
        <ele>98.6</ele>
        <time>2024-09-07T09:44:47Z</time>
      </trkpt>
      <trkpt lat="48.11413" lon="-3.6284">
        <ele>98.6</ele>
        <time>2024-09-07T09:44:48Z</time>
      </trkpt>
      <trkpt lat="48.11419" lon="-3.62838">
        <ele>98.6</ele>
        <time>2024-09-07T09:44:49Z</time>
      </trkpt>
      <trkpt lat="48.11425" lon="-3.62836">
        <ele>98.6</ele>
        <time>2024-09-07T09:44:50Z</time>
      </trkpt>
      <trkpt lat="48.1143" lon="-3.62834">
        <ele>98.6</ele>
        <time>2024-09-07T09:44:51Z</time>
      </trkpt>
      <trkpt lat="48.11436" lon="-3.62832">
        <ele>98.6</ele>
        <time>2024-09-07T09:44:52Z</time>
      </trkpt>
      <trkpt lat="48.11442" lon="-3.62829">
        <ele>98.6</ele>
        <time>2024-09-07T09:44:53Z</time>
      </trkpt>
      <trkpt lat="48.11448" lon="-3.62827">
        <ele>98.6</ele>
        <time>2024-09-07T09:44:54Z</time>
      </trkpt>
      <trkpt lat="48.11454" lon="-3.62825">
        <ele>98.6</ele>
        <time>2024-09-07T09:44:55Z</time>
      </trkpt>
      <trkpt lat="48.1146" lon="-3.62822">
        <ele>98.6</ele>
        <time>2024-09-07T09:44:56Z</time>
      </trkpt>
      <trkpt lat="48.11466" lon="-3.62819">
        <ele>98.6</ele>
        <time>2024-09-07T09:44:57Z</time>
      </trkpt>
      <trkpt lat="48.11472" lon="-3.62816">
        <ele>98.6</ele>
        <time>2024-09-07T09:44:58Z</time>
      </trkpt>
      <trkpt lat="48.11477" lon="-3.62814">
        <ele>98.6</ele>
        <time>2024-09-07T09:44:59Z</time>
      </trkpt>
      <trkpt lat="48.11483" lon="-3.62811">
        <ele>98.6</ele>
        <time>2024-09-07T09:45:00Z</time>
      </trkpt>
      <trkpt lat="48.11488" lon="-3.62809">
        <ele>98.6</ele>
        <time>2024-09-07T09:45:01Z</time>
      </trkpt>
      <trkpt lat="48.11494" lon="-3.62807">
        <ele>98.8</ele>
        <time>2024-09-07T09:45:02Z</time>
      </trkpt>
      <trkpt lat="48.115" lon="-3.62805">
        <ele>98.8</ele>
        <time>2024-09-07T09:45:03Z</time>
      </trkpt>
      <trkpt lat="48.11505" lon="-3.62802">
        <ele>98.8</ele>
        <time>2024-09-07T09:45:04Z</time>
      </trkpt>
      <trkpt lat="48.11511" lon="-3.628">
        <ele>98.8</ele>
        <time>2024-09-07T09:45:05Z</time>
      </trkpt>
      <trkpt lat="48.11517" lon="-3.62799">
        <ele>98.8</ele>
        <time>2024-09-07T09:45:06Z</time>
      </trkpt>
      <trkpt lat="48.11523" lon="-3.62797">
        <ele>98.8</ele>
        <time>2024-09-07T09:45:07Z</time>
      </trkpt>
      <trkpt lat="48.11528" lon="-3.62795">
        <ele>98.8</ele>
        <time>2024-09-07T09:45:08Z</time>
      </trkpt>
      <trkpt lat="48.11534" lon="-3.62792">
        <ele>98.8</ele>
        <time>2024-09-07T09:45:09Z</time>
      </trkpt>
      <trkpt lat="48.1154" lon="-3.6279">
        <ele>98.8</ele>
        <time>2024-09-07T09:45:10Z</time>
      </trkpt>
      <trkpt lat="48.11547" lon="-3.62788">
        <ele>98.8</ele>
        <time>2024-09-07T09:45:11Z</time>
      </trkpt>
      <trkpt lat="48.11554" lon="-3.62784">
        <ele>98.8</ele>
        <time>2024-09-07T09:45:12Z</time>
      </trkpt>
      <trkpt lat="48.1156" lon="-3.62782">
        <ele>98.8</ele>
        <time>2024-09-07T09:45:13Z</time>
      </trkpt>
      <trkpt lat="48.11566" lon="-3.6278">
        <ele>98.8</ele>
        <time>2024-09-07T09:45:14Z</time>
      </trkpt>
      <trkpt lat="48.11571" lon="-3.62778">
        <ele>98.8</ele>
        <time>2024-09-07T09:45:15Z</time>
      </trkpt>
      <trkpt lat="48.11576" lon="-3.62776">
        <ele>98.8</ele>
        <time>2024-09-07T09:45:16Z</time>
      </trkpt>
      <trkpt lat="48.11581" lon="-3.62774">
        <ele>98.8</ele>
        <time>2024-09-07T09:45:17Z</time>
      </trkpt>
      <trkpt lat="48.11587" lon="-3.62773">
        <ele>98.8</ele>
        <time>2024-09-07T09:45:18Z</time>
      </trkpt>
      <trkpt lat="48.11592" lon="-3.62771">
        <ele>98.8</ele>
        <time>2024-09-07T09:45:19Z</time>
      </trkpt>
      <trkpt lat="48.11597" lon="-3.62769">
        <ele>98.8</ele>
        <time>2024-09-07T09:45:20Z</time>
      </trkpt>
      <trkpt lat="48.11602" lon="-3.62768">
        <ele>98.8</ele>
        <time>2024-09-07T09:45:21Z</time>
      </trkpt>
      <trkpt lat="48.11607" lon="-3.62766">
        <ele>98.8</ele>
        <time>2024-09-07T09:45:22Z</time>
      </trkpt>
      <trkpt lat="48.11612" lon="-3.62764">
        <ele>98.8</ele>
        <time>2024-09-07T09:45:23Z</time>
      </trkpt>
      <trkpt lat="48.11616" lon="-3.62762">
        <ele>98.8</ele>
        <time>2024-09-07T09:45:24Z</time>
      </trkpt>
      <trkpt lat="48.11622" lon="-3.62759">
        <ele>98.8</ele>
        <time>2024-09-07T09:45:25Z</time>
      </trkpt>
      <trkpt lat="48.11627" lon="-3.62757">
        <ele>98.8</ele>
        <time>2024-09-07T09:45:26Z</time>
      </trkpt>
      <trkpt lat="48.11633" lon="-3.62756">
        <ele>98.8</ele>
        <time>2024-09-07T09:45:27Z</time>
      </trkpt>
      <trkpt lat="48.11639" lon="-3.62754">
        <ele>98.8</ele>
        <time>2024-09-07T09:45:28Z</time>
      </trkpt>
      <trkpt lat="48.11644" lon="-3.62752">
        <ele>98.8</ele>
        <time>2024-09-07T09:45:29Z</time>
      </trkpt>
      <trkpt lat="48.11649" lon="-3.62751">
        <ele>98.8</ele>
        <time>2024-09-07T09:45:30Z</time>
      </trkpt>
      <trkpt lat="48.11653" lon="-3.62749">
        <ele>98.8</ele>
        <time>2024-09-07T09:45:31Z</time>
      </trkpt>
      <trkpt lat="48.11658" lon="-3.62748">
        <ele>98.8</ele>
        <time>2024-09-07T09:45:32Z</time>
      </trkpt>
      <trkpt lat="48.11663" lon="-3.62747">
        <ele>98.8</ele>
        <time>2024-09-07T09:45:33Z</time>
      </trkpt>
      <trkpt lat="48.11669" lon="-3.62746">
        <ele>98.8</ele>
        <time>2024-09-07T09:45:34Z</time>
      </trkpt>
      <trkpt lat="48.11673" lon="-3.62746">
        <ele>99</ele>
        <time>2024-09-07T09:45:35Z</time>
      </trkpt>
      <trkpt lat="48.11679" lon="-3.62745">
        <ele>99</ele>
        <time>2024-09-07T09:45:36Z</time>
      </trkpt>
      <trkpt lat="48.11684" lon="-3.62744">
        <ele>99</ele>
        <time>2024-09-07T09:45:37Z</time>
      </trkpt>
      <trkpt lat="48.1169" lon="-3.62744">
        <ele>99</ele>
        <time>2024-09-07T09:45:38Z</time>
      </trkpt>
      <trkpt lat="48.11696" lon="-3.62743">
        <ele>99</ele>
        <time>2024-09-07T09:45:39Z</time>
      </trkpt>
      <trkpt lat="48.11701" lon="-3.62742">
        <ele>99</ele>
        <time>2024-09-07T09:45:40Z</time>
      </trkpt>
      <trkpt lat="48.11707" lon="-3.62741">
        <ele>99</ele>
        <time>2024-09-07T09:45:41Z</time>
      </trkpt>
      <trkpt lat="48.11712" lon="-3.62741">
        <ele>99</ele>
        <time>2024-09-07T09:45:42Z</time>
      </trkpt>
      <trkpt lat="48.11717" lon="-3.6274">
        <ele>99</ele>
        <time>2024-09-07T09:45:43Z</time>
      </trkpt>
      <trkpt lat="48.11722" lon="-3.6274">
        <ele>99.2</ele>
        <time>2024-09-07T09:45:44Z</time>
      </trkpt>
      <trkpt lat="48.11727" lon="-3.6274">
        <ele>99.2</ele>
        <time>2024-09-07T09:45:45Z</time>
      </trkpt>
      <trkpt lat="48.11732" lon="-3.6274">
        <ele>99.2</ele>
        <time>2024-09-07T09:45:46Z</time>
      </trkpt>
      <trkpt lat="48.11738" lon="-3.62739">
        <ele>99.2</ele>
        <time>2024-09-07T09:45:47Z</time>
      </trkpt>
      <trkpt lat="48.11743" lon="-3.6274">
        <ele>99.2</ele>
        <time>2024-09-07T09:45:48Z</time>
      </trkpt>
      <trkpt lat="48.11749" lon="-3.6274">
        <ele>99.2</ele>
        <time>2024-09-07T09:45:49Z</time>
      </trkpt>
      <trkpt lat="48.11754" lon="-3.62741">
        <ele>99.2</ele>
        <time>2024-09-07T09:45:50Z</time>
      </trkpt>
      <trkpt lat="48.11759" lon="-3.62742">
        <ele>99.2</ele>
        <time>2024-09-07T09:45:51Z</time>
      </trkpt>
      <trkpt lat="48.11764" lon="-3.62742">
        <ele>99.2</ele>
        <time>2024-09-07T09:45:52Z</time>
      </trkpt>
      <trkpt lat="48.1177" lon="-3.62743">
        <ele>99.2</ele>
        <time>2024-09-07T09:45:53Z</time>
      </trkpt>
      <trkpt lat="48.11775" lon="-3.62744">
        <ele>99</ele>
        <time>2024-09-07T09:45:54Z</time>
      </trkpt>
      <trkpt lat="48.11781" lon="-3.62744">
        <ele>99</ele>
        <time>2024-09-07T09:45:55Z</time>
      </trkpt>
      <trkpt lat="48.11786" lon="-3.62744">
        <ele>99</ele>
        <time>2024-09-07T09:45:56Z</time>
      </trkpt>
      <trkpt lat="48.11792" lon="-3.62744">
        <ele>99</ele>
        <time>2024-09-07T09:45:57Z</time>
      </trkpt>
      <trkpt lat="48.11799" lon="-3.62744">
        <ele>99</ele>
        <time>2024-09-07T09:45:58Z</time>
      </trkpt>
      <trkpt lat="48.11805" lon="-3.62744">
        <ele>99</ele>
        <time>2024-09-07T09:45:59Z</time>
      </trkpt>
      <trkpt lat="48.11812" lon="-3.62745">
        <ele>99</ele>
        <time>2024-09-07T09:46:00Z</time>
      </trkpt>
      <trkpt lat="48.11818" lon="-3.62747">
        <ele>99</ele>
        <time>2024-09-07T09:46:01Z</time>
      </trkpt>
      <trkpt lat="48.11824" lon="-3.62749">
        <ele>99</ele>
        <time>2024-09-07T09:46:02Z</time>
      </trkpt>
      <trkpt lat="48.1183" lon="-3.62751">
        <ele>99</ele>
        <time>2024-09-07T09:46:03Z</time>
      </trkpt>
      <trkpt lat="48.11836" lon="-3.62752">
        <ele>99</ele>
        <time>2024-09-07T09:46:04Z</time>
      </trkpt>
      <trkpt lat="48.11842" lon="-3.62753">
        <ele>99</ele>
        <time>2024-09-07T09:46:05Z</time>
      </trkpt>
      <trkpt lat="48.11847" lon="-3.62755">
        <ele>99</ele>
        <time>2024-09-07T09:46:06Z</time>
      </trkpt>
      <trkpt lat="48.11852" lon="-3.62756">
        <ele>99</ele>
        <time>2024-09-07T09:46:07Z</time>
      </trkpt>
      <trkpt lat="48.11857" lon="-3.62757">
        <ele>99</ele>
        <time>2024-09-07T09:46:08Z</time>
      </trkpt>
      <trkpt lat="48.11862" lon="-3.62758">
        <ele>99</ele>
        <time>2024-09-07T09:46:09Z</time>
      </trkpt>
      <trkpt lat="48.11867" lon="-3.62759">
        <ele>99</ele>
        <time>2024-09-07T09:46:10Z</time>
      </trkpt>
      <trkpt lat="48.11872" lon="-3.62761">
        <ele>99.2</ele>
        <time>2024-09-07T09:46:11Z</time>
      </trkpt>
      <trkpt lat="48.11877" lon="-3.62763">
        <ele>99.2</ele>
        <time>2024-09-07T09:46:12Z</time>
      </trkpt>
      <trkpt lat="48.11881" lon="-3.62765">
        <ele>99.2</ele>
        <time>2024-09-07T09:46:13Z</time>
      </trkpt>
      <trkpt lat="48.11886" lon="-3.62766">
        <ele>99.2</ele>
        <time>2024-09-07T09:46:14Z</time>
      </trkpt>
      <trkpt lat="48.11891" lon="-3.62767">
        <ele>99.2</ele>
        <time>2024-09-07T09:46:15Z</time>
      </trkpt>
      <trkpt lat="48.11897" lon="-3.62768">
        <ele>99.4</ele>
        <time>2024-09-07T09:46:16Z</time>
      </trkpt>
      <trkpt lat="48.11902" lon="-3.62769">
        <ele>99.4</ele>
        <time>2024-09-07T09:46:17Z</time>
      </trkpt>
      <trkpt lat="48.11907" lon="-3.62771">
        <ele>99.4</ele>
        <time>2024-09-07T09:46:18Z</time>
      </trkpt>
      <trkpt lat="48.11912" lon="-3.62773">
        <ele>99.4</ele>
        <time>2024-09-07T09:46:19Z</time>
      </trkpt>
      <trkpt lat="48.11918" lon="-3.62774">
        <ele>99.6</ele>
        <time>2024-09-07T09:46:20Z</time>
      </trkpt>
      <trkpt lat="48.11923" lon="-3.62776">
        <ele>99.6</ele>
        <time>2024-09-07T09:46:21Z</time>
      </trkpt>
      <trkpt lat="48.11928" lon="-3.62777">
        <ele>99.8</ele>
        <time>2024-09-07T09:46:22Z</time>
      </trkpt>
      <trkpt lat="48.11933" lon="-3.62779">
        <ele>99.8</ele>
        <time>2024-09-07T09:46:23Z</time>
      </trkpt>
      <trkpt lat="48.11937" lon="-3.62781">
        <ele>99.8</ele>
        <time>2024-09-07T09:46:24Z</time>
      </trkpt>
      <trkpt lat="48.11942" lon="-3.62782">
        <ele>99.8</ele>
        <time>2024-09-07T09:46:25Z</time>
      </trkpt>
      <trkpt lat="48.11946" lon="-3.62784">
        <ele>100</ele>
        <time>2024-09-07T09:46:26Z</time>
      </trkpt>
      <trkpt lat="48.11952" lon="-3.62786">
        <ele>100</ele>
        <time>2024-09-07T09:46:27Z</time>
      </trkpt>
      <trkpt lat="48.11957" lon="-3.62786">
        <ele>100</ele>
        <time>2024-09-07T09:46:28Z</time>
      </trkpt>
      <trkpt lat="48.11963" lon="-3.62788">
        <ele>100.2</ele>
        <time>2024-09-07T09:46:29Z</time>
      </trkpt>
      <trkpt lat="48.11969" lon="-3.6279">
        <ele>100.2</ele>
        <time>2024-09-07T09:46:30Z</time>
      </trkpt>
      <trkpt lat="48.11974" lon="-3.62791">
        <ele>100.2</ele>
        <time>2024-09-07T09:46:31Z</time>
      </trkpt>
      <trkpt lat="48.1198" lon="-3.62792">
        <ele>100.4</ele>
        <time>2024-09-07T09:46:32Z</time>
      </trkpt>
      <trkpt lat="48.11985" lon="-3.62793">
        <ele>100.4</ele>
        <time>2024-09-07T09:46:33Z</time>
      </trkpt>
      <trkpt lat="48.1199" lon="-3.62794">
        <ele>100.6</ele>
        <time>2024-09-07T09:46:34Z</time>
      </trkpt>
      <trkpt lat="48.11996" lon="-3.62792">
        <ele>100.6</ele>
        <time>2024-09-07T09:46:35Z</time>
      </trkpt>
      <trkpt lat="48.12001" lon="-3.62792">
        <ele>100.6</ele>
        <time>2024-09-07T09:46:36Z</time>
      </trkpt>
      <trkpt lat="48.12007" lon="-3.62791">
        <ele>100.6</ele>
        <time>2024-09-07T09:46:37Z</time>
      </trkpt>
      <trkpt lat="48.12012" lon="-3.62791">
        <ele>100.8</ele>
        <time>2024-09-07T09:46:38Z</time>
      </trkpt>
      <trkpt lat="48.12017" lon="-3.62791">
        <ele>100.8</ele>
        <time>2024-09-07T09:46:39Z</time>
      </trkpt>
      <trkpt lat="48.12023" lon="-3.6279">
        <ele>100.8</ele>
        <time>2024-09-07T09:46:40Z</time>
      </trkpt>
      <trkpt lat="48.12029" lon="-3.6279">
        <ele>100.8</ele>
        <time>2024-09-07T09:46:41Z</time>
      </trkpt>
      <trkpt lat="48.12035" lon="-3.62791">
        <ele>101</ele>
        <time>2024-09-07T09:46:42Z</time>
      </trkpt>
      <trkpt lat="48.12039" lon="-3.62791">
        <ele>101</ele>
        <time>2024-09-07T09:46:43Z</time>
      </trkpt>
      <trkpt lat="48.12044" lon="-3.62791">
        <ele>101</ele>
        <time>2024-09-07T09:46:44Z</time>
      </trkpt>
      <trkpt lat="48.12047" lon="-3.6279">
        <ele>101.2</ele>
        <time>2024-09-07T09:46:45Z</time>
      </trkpt>
      <trkpt lat="48.12051" lon="-3.6279">
        <ele>101.4</ele>
        <time>2024-09-07T09:46:46Z</time>
      </trkpt>
      <trkpt lat="48.12055" lon="-3.62788">
        <ele>101.4</ele>
        <time>2024-09-07T09:46:47Z</time>
      </trkpt>
      <trkpt lat="48.12059" lon="-3.62786">
        <ele>101.4</ele>
        <time>2024-09-07T09:46:48Z</time>
      </trkpt>
      <trkpt lat="48.12062" lon="-3.62786">
        <ele>101.4</ele>
        <time>2024-09-07T09:46:49Z</time>
      </trkpt>
      <trkpt lat="48.12066" lon="-3.62786">
        <ele>101.6</ele>
        <time>2024-09-07T09:46:50Z</time>
      </trkpt>
      <trkpt lat="48.1207" lon="-3.62786">
        <ele>101.6</ele>
        <time>2024-09-07T09:46:51Z</time>
      </trkpt>
      <trkpt lat="48.12074" lon="-3.62787">
        <ele>101.8</ele>
        <time>2024-09-07T09:46:52Z</time>
      </trkpt>
      <trkpt lat="48.12079" lon="-3.62788">
        <ele>101.8</ele>
        <time>2024-09-07T09:46:53Z</time>
      </trkpt>
      <trkpt lat="48.12083" lon="-3.6279">
        <ele>102</ele>
        <time>2024-09-07T09:46:54Z</time>
      </trkpt>
      <trkpt lat="48.12087" lon="-3.62792">
        <ele>102</ele>
        <time>2024-09-07T09:46:55Z</time>
      </trkpt>
      <trkpt lat="48.12091" lon="-3.62794">
        <ele>102</ele>
        <time>2024-09-07T09:46:56Z</time>
      </trkpt>
      <trkpt lat="48.12095" lon="-3.62796">
        <ele>102</ele>
        <time>2024-09-07T09:46:57Z</time>
      </trkpt>
      <trkpt lat="48.12097" lon="-3.62799">
        <ele>102</ele>
        <time>2024-09-07T09:46:58Z</time>
      </trkpt>
      <trkpt lat="48.12099" lon="-3.628">
        <ele>102</ele>
        <time>2024-09-07T09:46:59Z</time>
      </trkpt>
      <trkpt lat="48.12102" lon="-3.62801">
        <ele>102</ele>
        <time>2024-09-07T09:47:00Z</time>
      </trkpt>
      <trkpt lat="48.12105" lon="-3.62802">
        <ele>102</ele>
        <time>2024-09-07T09:47:01Z</time>
      </trkpt>
      <trkpt lat="48.12107" lon="-3.62801">
        <ele>102</ele>
        <time>2024-09-07T09:47:02Z</time>
      </trkpt>
      <trkpt lat="48.12109" lon="-3.62799">
        <ele>102</ele>
        <time>2024-09-07T09:47:03Z</time>
      </trkpt>
      <trkpt lat="48.12111" lon="-3.62796">
        <ele>102</ele>
        <time>2024-09-07T09:47:04Z</time>
      </trkpt>
      <trkpt lat="48.12112" lon="-3.62794">
        <ele>102</ele>
        <time>2024-09-07T09:47:05Z</time>
      </trkpt>
      <trkpt lat="48.12114" lon="-3.6279">
        <ele>102</ele>
        <time>2024-09-07T09:47:06Z</time>
      </trkpt>
      <trkpt lat="48.12115" lon="-3.62788">
        <ele>102</ele>
        <time>2024-09-07T09:47:07Z</time>
      </trkpt>
      <trkpt lat="48.12116" lon="-3.62785">
        <ele>102</ele>
        <time>2024-09-07T09:47:08Z</time>
      </trkpt>
      <trkpt lat="48.12116" lon="-3.62782">
        <ele>102</ele>
        <time>2024-09-07T09:47:09Z</time>
      </trkpt>
      <trkpt lat="48.12117" lon="-3.62779">
        <ele>102</ele>
        <time>2024-09-07T09:47:10Z</time>
      </trkpt>
      <trkpt lat="48.12118" lon="-3.62776">
        <ele>102</ele>
        <time>2024-09-07T09:47:11Z</time>
      </trkpt>
      <trkpt lat="48.1212" lon="-3.62773">
        <ele>102</ele>
        <time>2024-09-07T09:47:12Z</time>
      </trkpt>
      <trkpt lat="48.12121" lon="-3.62771">
        <ele>102</ele>
        <time>2024-09-07T09:47:13Z</time>
      </trkpt>
      <trkpt lat="48.12122" lon="-3.62768">
        <ele>102</ele>
        <time>2024-09-07T09:47:14Z</time>
      </trkpt>
      <trkpt lat="48.12122" lon="-3.62765">
        <ele>102</ele>
        <time>2024-09-07T09:47:15Z</time>
      </trkpt>
      <trkpt lat="48.12123" lon="-3.62763">
        <ele>102.2</ele>
        <time>2024-09-07T09:47:16Z</time>
      </trkpt>
      <trkpt lat="48.12125" lon="-3.62761">
        <ele>102.4</ele>
        <time>2024-09-07T09:47:17Z</time>
      </trkpt>
      <trkpt lat="48.12126" lon="-3.62759">
        <ele>102.4</ele>
        <time>2024-09-07T09:47:18Z</time>
      </trkpt>
      <trkpt lat="48.12127" lon="-3.62757">
        <ele>102.4</ele>
        <time>2024-09-07T09:47:19Z</time>
      </trkpt>
      <trkpt lat="48.12129" lon="-3.62755">
        <ele>102.4</ele>
        <time>2024-09-07T09:47:20Z</time>
      </trkpt>
      <trkpt lat="48.1213" lon="-3.62754">
        <ele>102.6</ele>
        <time>2024-09-07T09:47:21Z</time>
      </trkpt>
      <trkpt lat="48.12131" lon="-3.62753">
        <ele>102.6</ele>
        <time>2024-09-07T09:47:22Z</time>
      </trkpt>
      <trkpt lat="48.12131" lon="-3.62753">
        <ele>102.6</ele>
        <time>2024-09-07T09:47:23Z</time>
      </trkpt>
      <trkpt lat="48.12137" lon="-3.6275">
        <ele>103.4</ele>
        <time>2024-09-07T09:47:32Z</time>
      </trkpt>
      <trkpt lat="48.12138" lon="-3.62748">
        <ele>103.6</ele>
        <time>2024-09-07T09:47:33Z</time>
      </trkpt>
      <trkpt lat="48.1214" lon="-3.62747">
        <ele>103.6</ele>
        <time>2024-09-07T09:47:34Z</time>
      </trkpt>
      <trkpt lat="48.12143" lon="-3.62746">
        <ele>103.6</ele>
        <time>2024-09-07T09:47:35Z</time>
      </trkpt>
      <trkpt lat="48.12145" lon="-3.62744">
        <ele>103.6</ele>
        <time>2024-09-07T09:47:36Z</time>
      </trkpt>
      <trkpt lat="48.12147" lon="-3.62742">
        <ele>103.6</ele>
        <time>2024-09-07T09:47:37Z</time>
      </trkpt>
      <trkpt lat="48.1215" lon="-3.62741">
        <ele>103.6</ele>
        <time>2024-09-07T09:47:38Z</time>
      </trkpt>
      <trkpt lat="48.12153" lon="-3.62739">
        <ele>103.6</ele>
        <time>2024-09-07T09:47:39Z</time>
      </trkpt>
      <trkpt lat="48.12155" lon="-3.62738">
        <ele>103.6</ele>
        <time>2024-09-07T09:47:40Z</time>
      </trkpt>
      <trkpt lat="48.12157" lon="-3.62735">
        <ele>103.4</ele>
        <time>2024-09-07T09:47:41Z</time>
      </trkpt>
      <trkpt lat="48.12159" lon="-3.62732">
        <ele>103.4</ele>
        <time>2024-09-07T09:47:42Z</time>
      </trkpt>
      <trkpt lat="48.12162" lon="-3.62728">
        <ele>103.4</ele>
        <time>2024-09-07T09:47:43Z</time>
      </trkpt>
      <trkpt lat="48.12164" lon="-3.62725">
        <ele>103.4</ele>
        <time>2024-09-07T09:47:44Z</time>
      </trkpt>
      <trkpt lat="48.12167" lon="-3.62721">
        <ele>103.4</ele>
        <time>2024-09-07T09:47:45Z</time>
      </trkpt>
      <trkpt lat="48.12171" lon="-3.62717">
        <ele>103.4</ele>
        <time>2024-09-07T09:47:46Z</time>
      </trkpt>
      <trkpt lat="48.12174" lon="-3.62714">
        <ele>103.4</ele>
        <time>2024-09-07T09:47:47Z</time>
      </trkpt>
      <trkpt lat="48.12178" lon="-3.6271">
        <ele>103.4</ele>
        <time>2024-09-07T09:47:48Z</time>
      </trkpt>
      <trkpt lat="48.12181" lon="-3.62706">
        <ele>103.4</ele>
        <time>2024-09-07T09:47:49Z</time>
      </trkpt>
      <trkpt lat="48.12185" lon="-3.62701">
        <ele>103.4</ele>
        <time>2024-09-07T09:47:50Z</time>
      </trkpt>
      <trkpt lat="48.12189" lon="-3.62697">
        <ele>103.4</ele>
        <time>2024-09-07T09:47:51Z</time>
      </trkpt>
      <trkpt lat="48.12193" lon="-3.62692">
        <ele>103.4</ele>
        <time>2024-09-07T09:47:52Z</time>
      </trkpt>
      <trkpt lat="48.12197" lon="-3.62686">
        <ele>103.4</ele>
        <time>2024-09-07T09:47:53Z</time>
      </trkpt>
      <trkpt lat="48.12201" lon="-3.62681">
        <ele>103.4</ele>
        <time>2024-09-07T09:47:54Z</time>
      </trkpt>
      <trkpt lat="48.12205" lon="-3.62676">
        <ele>103.4</ele>
        <time>2024-09-07T09:47:55Z</time>
      </trkpt>
      <trkpt lat="48.12208" lon="-3.62672">
        <ele>103.4</ele>
        <time>2024-09-07T09:47:56Z</time>
      </trkpt>
      <trkpt lat="48.12211" lon="-3.62667">
        <ele>103.4</ele>
        <time>2024-09-07T09:47:57Z</time>
      </trkpt>
      <trkpt lat="48.12214" lon="-3.62663">
        <ele>103.4</ele>
        <time>2024-09-07T09:47:58Z</time>
      </trkpt>
      <trkpt lat="48.12218" lon="-3.62659">
        <ele>103.4</ele>
        <time>2024-09-07T09:47:59Z</time>
      </trkpt>
      <trkpt lat="48.12221" lon="-3.62653">
        <ele>103.6</ele>
        <time>2024-09-07T09:48:00Z</time>
      </trkpt>
      <trkpt lat="48.12226" lon="-3.62647">
        <ele>103.6</ele>
        <time>2024-09-07T09:48:01Z</time>
      </trkpt>
      <trkpt lat="48.1223" lon="-3.62642">
        <ele>103.6</ele>
        <time>2024-09-07T09:48:02Z</time>
      </trkpt>
      <trkpt lat="48.12235" lon="-3.62636">
        <ele>103.6</ele>
        <time>2024-09-07T09:48:03Z</time>
      </trkpt>
      <trkpt lat="48.12239" lon="-3.62631">
        <ele>103.6</ele>
        <time>2024-09-07T09:48:04Z</time>
      </trkpt>
      <trkpt lat="48.12243" lon="-3.62626">
        <ele>103.8</ele>
        <time>2024-09-07T09:48:05Z</time>
      </trkpt>
      <trkpt lat="48.12247" lon="-3.62622">
        <ele>103.8</ele>
        <time>2024-09-07T09:48:06Z</time>
      </trkpt>
      <trkpt lat="48.12251" lon="-3.62616">
        <ele>103.8</ele>
        <time>2024-09-07T09:48:07Z</time>
      </trkpt>
      <trkpt lat="48.12256" lon="-3.62611">
        <ele>104</ele>
        <time>2024-09-07T09:48:08Z</time>
      </trkpt>
      <trkpt lat="48.12261" lon="-3.62605">
        <ele>104</ele>
        <time>2024-09-07T09:48:09Z</time>
      </trkpt>
      <trkpt lat="48.12266" lon="-3.626">
        <ele>104.2</ele>
        <time>2024-09-07T09:48:10Z</time>
      </trkpt>
      <trkpt lat="48.12271" lon="-3.62594">
        <ele>104.2</ele>
        <time>2024-09-07T09:48:11Z</time>
      </trkpt>
      <trkpt lat="48.12276" lon="-3.62589">
        <ele>104.4</ele>
        <time>2024-09-07T09:48:12Z</time>
      </trkpt>
      <trkpt lat="48.12281" lon="-3.62583">
        <ele>104.4</ele>
        <time>2024-09-07T09:48:13Z</time>
      </trkpt>
      <trkpt lat="48.12285" lon="-3.62579">
        <ele>104.4</ele>
        <time>2024-09-07T09:48:14Z</time>
      </trkpt>
      <trkpt lat="48.12289" lon="-3.62574">
        <ele>104.6</ele>
        <time>2024-09-07T09:48:15Z</time>
      </trkpt>
      <trkpt lat="48.12292" lon="-3.62569">
        <ele>104.6</ele>
        <time>2024-09-07T09:48:16Z</time>
      </trkpt>
      <trkpt lat="48.12297" lon="-3.62564">
        <ele>104.6</ele>
        <time>2024-09-07T09:48:17Z</time>
      </trkpt>
      <trkpt lat="48.12301" lon="-3.62559">
        <ele>104.8</ele>
        <time>2024-09-07T09:48:18Z</time>
      </trkpt>
      <trkpt lat="48.12306" lon="-3.62553">
        <ele>104.8</ele>
        <time>2024-09-07T09:48:19Z</time>
      </trkpt>
      <trkpt lat="48.1231" lon="-3.62548">
        <ele>104.8</ele>
        <time>2024-09-07T09:48:20Z</time>
      </trkpt>
      <trkpt lat="48.12314" lon="-3.62542">
        <ele>104.8</ele>
        <time>2024-09-07T09:48:21Z</time>
      </trkpt>
      <trkpt lat="48.12318" lon="-3.62536">
        <ele>104.8</ele>
        <time>2024-09-07T09:48:22Z</time>
      </trkpt>
      <trkpt lat="48.12322" lon="-3.6253">
        <ele>104.8</ele>
        <time>2024-09-07T09:48:23Z</time>
      </trkpt>
      <trkpt lat="48.12326" lon="-3.62525">
        <ele>104.8</ele>
        <time>2024-09-07T09:48:24Z</time>
      </trkpt>
      <trkpt lat="48.12331" lon="-3.62519">
        <ele>104.8</ele>
        <time>2024-09-07T09:48:25Z</time>
      </trkpt>
      <trkpt lat="48.12336" lon="-3.62513">
        <ele>104.8</ele>
        <time>2024-09-07T09:48:26Z</time>
      </trkpt>
      <trkpt lat="48.1234" lon="-3.62508">
        <ele>104.8</ele>
        <time>2024-09-07T09:48:27Z</time>
      </trkpt>
      <trkpt lat="48.12343" lon="-3.62504">
        <ele>104.8</ele>
        <time>2024-09-07T09:48:28Z</time>
      </trkpt>
      <trkpt lat="48.12348" lon="-3.62498">
        <ele>104.8</ele>
        <time>2024-09-07T09:48:29Z</time>
      </trkpt>
      <trkpt lat="48.12353" lon="-3.62492">
        <ele>104.8</ele>
        <time>2024-09-07T09:48:30Z</time>
      </trkpt>
      <trkpt lat="48.12357" lon="-3.62486">
        <ele>104.8</ele>
        <time>2024-09-07T09:48:31Z</time>
      </trkpt>
      <trkpt lat="48.12361" lon="-3.62481">
        <ele>104.8</ele>
        <time>2024-09-07T09:48:32Z</time>
      </trkpt>
      <trkpt lat="48.12365" lon="-3.62476">
        <ele>104.8</ele>
        <time>2024-09-07T09:48:33Z</time>
      </trkpt>
      <trkpt lat="48.12369" lon="-3.6247">
        <ele>104.8</ele>
        <time>2024-09-07T09:48:34Z</time>
      </trkpt>
      <trkpt lat="48.12374" lon="-3.62465">
        <ele>104.8</ele>
        <time>2024-09-07T09:48:35Z</time>
      </trkpt>
      <trkpt lat="48.12379" lon="-3.6246">
        <ele>104.8</ele>
        <time>2024-09-07T09:48:36Z</time>
      </trkpt>
      <trkpt lat="48.12383" lon="-3.62455">
        <ele>104.8</ele>
        <time>2024-09-07T09:48:37Z</time>
      </trkpt>
      <trkpt lat="48.12386" lon="-3.6245">
        <ele>104.8</ele>
        <time>2024-09-07T09:48:38Z</time>
      </trkpt>
      <trkpt lat="48.1239" lon="-3.62445">
        <ele>104.8</ele>
        <time>2024-09-07T09:48:39Z</time>
      </trkpt>
      <trkpt lat="48.12394" lon="-3.62439">
        <ele>104.8</ele>
        <time>2024-09-07T09:48:40Z</time>
      </trkpt>
      <trkpt lat="48.12398" lon="-3.62434">
        <ele>104.8</ele>
        <time>2024-09-07T09:48:41Z</time>
      </trkpt>
      <trkpt lat="48.12402" lon="-3.62429">
        <ele>104.8</ele>
        <time>2024-09-07T09:48:42Z</time>
      </trkpt>
      <trkpt lat="48.12406" lon="-3.62424">
        <ele>104.8</ele>
        <time>2024-09-07T09:48:43Z</time>
      </trkpt>
      <trkpt lat="48.1241" lon="-3.62419">
        <ele>104.8</ele>
        <time>2024-09-07T09:48:44Z</time>
      </trkpt>
      <trkpt lat="48.12415" lon="-3.62413">
        <ele>104.8</ele>
        <time>2024-09-07T09:48:45Z</time>
      </trkpt>
      <trkpt lat="48.12419" lon="-3.62408">
        <ele>104.8</ele>
        <time>2024-09-07T09:48:46Z</time>
      </trkpt>
      <trkpt lat="48.12423" lon="-3.62402">
        <ele>104.8</ele>
        <time>2024-09-07T09:48:47Z</time>
      </trkpt>
      <trkpt lat="48.12427" lon="-3.62397">
        <ele>104.8</ele>
        <time>2024-09-07T09:48:48Z</time>
      </trkpt>
      <trkpt lat="48.12431" lon="-3.62392">
        <ele>104.8</ele>
        <time>2024-09-07T09:48:49Z</time>
      </trkpt>
      <trkpt lat="48.12435" lon="-3.62387">
        <ele>104.8</ele>
        <time>2024-09-07T09:48:50Z</time>
      </trkpt>
      <trkpt lat="48.12439" lon="-3.62383">
        <ele>104.8</ele>
        <time>2024-09-07T09:48:51Z</time>
      </trkpt>
      <trkpt lat="48.12442" lon="-3.62378">
        <ele>104.8</ele>
        <time>2024-09-07T09:48:52Z</time>
      </trkpt>
      <trkpt lat="48.12446" lon="-3.62374">
        <ele>104.8</ele>
        <time>2024-09-07T09:48:53Z</time>
      </trkpt>
      <trkpt lat="48.1245" lon="-3.62369">
        <ele>104.8</ele>
        <time>2024-09-07T09:48:54Z</time>
      </trkpt>
      <trkpt lat="48.12453" lon="-3.62364">
        <ele>104.8</ele>
        <time>2024-09-07T09:48:55Z</time>
      </trkpt>
      <trkpt lat="48.12457" lon="-3.62359">
        <ele>105</ele>
        <time>2024-09-07T09:48:56Z</time>
      </trkpt>
      <trkpt lat="48.12461" lon="-3.62355">
        <ele>105</ele>
        <time>2024-09-07T09:48:57Z</time>
      </trkpt>
      <trkpt lat="48.12465" lon="-3.6235">
        <ele>105.2</ele>
        <time>2024-09-07T09:48:58Z</time>
      </trkpt>
      <trkpt lat="48.12469" lon="-3.62345">
        <ele>105.2</ele>
        <time>2024-09-07T09:48:59Z</time>
      </trkpt>
      <trkpt lat="48.12473" lon="-3.62339">
        <ele>105.4</ele>
        <time>2024-09-07T09:49:00Z</time>
      </trkpt>
      <trkpt lat="48.12477" lon="-3.62335">
        <ele>105.6</ele>
        <time>2024-09-07T09:49:01Z</time>
      </trkpt>
      <trkpt lat="48.12481" lon="-3.6233">
        <ele>105.6</ele>
        <time>2024-09-07T09:49:02Z</time>
      </trkpt>
      <trkpt lat="48.12485" lon="-3.62325">
        <ele>105.8</ele>
        <time>2024-09-07T09:49:03Z</time>
      </trkpt>
      <trkpt lat="48.12488" lon="-3.6232">
        <ele>105.8</ele>
        <time>2024-09-07T09:49:04Z</time>
      </trkpt>
      <trkpt lat="48.12492" lon="-3.62315">
        <ele>105.8</ele>
        <time>2024-09-07T09:49:05Z</time>
      </trkpt>
      <trkpt lat="48.12496" lon="-3.6231">
        <ele>106</ele>
        <time>2024-09-07T09:49:06Z</time>
      </trkpt>
      <trkpt lat="48.12499" lon="-3.62304">
        <ele>106</ele>
        <time>2024-09-07T09:49:07Z</time>
      </trkpt>
      <trkpt lat="48.12502" lon="-3.62299">
        <ele>106.2</ele>
        <time>2024-09-07T09:49:08Z</time>
      </trkpt>
      <trkpt lat="48.12505" lon="-3.62293">
        <ele>106.4</ele>
        <time>2024-09-07T09:49:09Z</time>
      </trkpt>
      <trkpt lat="48.12508" lon="-3.62288">
        <ele>106.4</ele>
        <time>2024-09-07T09:49:10Z</time>
      </trkpt>
      <trkpt lat="48.12511" lon="-3.62283">
        <ele>106.6</ele>
        <time>2024-09-07T09:49:11Z</time>
      </trkpt>
      <trkpt lat="48.12513" lon="-3.62278">
        <ele>106.6</ele>
        <time>2024-09-07T09:49:12Z</time>
      </trkpt>
      <trkpt lat="48.12516" lon="-3.62273">
        <ele>106.8</ele>
        <time>2024-09-07T09:49:13Z</time>
      </trkpt>
      <trkpt lat="48.12518" lon="-3.62268">
        <ele>107</ele>
        <time>2024-09-07T09:49:14Z</time>
      </trkpt>
      <trkpt lat="48.12521" lon="-3.62263">
        <ele>107</ele>
        <time>2024-09-07T09:49:15Z</time>
      </trkpt>
      <trkpt lat="48.12523" lon="-3.62258">
        <ele>107.2</ele>
        <time>2024-09-07T09:49:16Z</time>
      </trkpt>
      <trkpt lat="48.12525" lon="-3.62253">
        <ele>107.2</ele>
        <time>2024-09-07T09:49:17Z</time>
      </trkpt>
      <trkpt lat="48.12527" lon="-3.62249">
        <ele>107.2</ele>
        <time>2024-09-07T09:49:18Z</time>
      </trkpt>
      <trkpt lat="48.1253" lon="-3.62244">
        <ele>107.4</ele>
        <time>2024-09-07T09:49:19Z</time>
      </trkpt>
      <trkpt lat="48.12532" lon="-3.62239">
        <ele>107.6</ele>
        <time>2024-09-07T09:49:20Z</time>
      </trkpt>
      <trkpt lat="48.12534" lon="-3.62234">
        <ele>107.6</ele>
        <time>2024-09-07T09:49:21Z</time>
      </trkpt>
      <trkpt lat="48.12536" lon="-3.62229">
        <ele>107.8</ele>
        <time>2024-09-07T09:49:22Z</time>
      </trkpt>
      <trkpt lat="48.12538" lon="-3.62224">
        <ele>107.8</ele>
        <time>2024-09-07T09:49:23Z</time>
      </trkpt>
      <trkpt lat="48.12541" lon="-3.62218">
        <ele>107.8</ele>
        <time>2024-09-07T09:49:24Z</time>
      </trkpt>
      <trkpt lat="48.12543" lon="-3.62213">
        <ele>108</ele>
        <time>2024-09-07T09:49:25Z</time>
      </trkpt>
      <trkpt lat="48.12546" lon="-3.62208">
        <ele>108.2</ele>
        <time>2024-09-07T09:49:26Z</time>
      </trkpt>
      <trkpt lat="48.12549" lon="-3.62202">
        <ele>108.2</ele>
        <time>2024-09-07T09:49:27Z</time>
      </trkpt>
      <trkpt lat="48.1255" lon="-3.62197">
        <ele>108.4</ele>
        <time>2024-09-07T09:49:28Z</time>
      </trkpt>
      <trkpt lat="48.12553" lon="-3.62192">
        <ele>108.4</ele>
        <time>2024-09-07T09:49:29Z</time>
      </trkpt>
      <trkpt lat="48.12555" lon="-3.62187">
        <ele>108.6</ele>
        <time>2024-09-07T09:49:30Z</time>
      </trkpt>
      <trkpt lat="48.12557" lon="-3.62182">
        <ele>108.8</ele>
        <time>2024-09-07T09:49:31Z</time>
      </trkpt>
      <trkpt lat="48.12559" lon="-3.62178">
        <ele>108.8</ele>
        <time>2024-09-07T09:49:32Z</time>
      </trkpt>
      <trkpt lat="48.12561" lon="-3.62173">
        <ele>109</ele>
        <time>2024-09-07T09:49:33Z</time>
      </trkpt>
      <trkpt lat="48.12562" lon="-3.62167">
        <ele>109</ele>
        <time>2024-09-07T09:49:34Z</time>
      </trkpt>
      <trkpt lat="48.12565" lon="-3.62161">
        <ele>109.2</ele>
        <time>2024-09-07T09:49:35Z</time>
      </trkpt>
      <trkpt lat="48.12567" lon="-3.62155">
        <ele>109.4</ele>
        <time>2024-09-07T09:49:36Z</time>
      </trkpt>
      <trkpt lat="48.1257" lon="-3.62149">
        <ele>109.4</ele>
        <time>2024-09-07T09:49:37Z</time>
      </trkpt>
      <trkpt lat="48.12573" lon="-3.62142">
        <ele>109.6</ele>
        <time>2024-09-07T09:49:38Z</time>
      </trkpt>
      <trkpt lat="48.12576" lon="-3.62137">
        <ele>109.6</ele>
        <time>2024-09-07T09:49:39Z</time>
      </trkpt>
      <trkpt lat="48.12578" lon="-3.62131">
        <ele>109.8</ele>
        <time>2024-09-07T09:49:40Z</time>
      </trkpt>
      <trkpt lat="48.12581" lon="-3.62126">
        <ele>109.8</ele>
        <time>2024-09-07T09:49:41Z</time>
      </trkpt>
      <trkpt lat="48.12583" lon="-3.6212">
        <ele>109.8</ele>
        <time>2024-09-07T09:49:42Z</time>
      </trkpt>
      <trkpt lat="48.12586" lon="-3.62114">
        <ele>109.8</ele>
        <time>2024-09-07T09:49:43Z</time>
      </trkpt>
      <trkpt lat="48.12588" lon="-3.62108">
        <ele>110</ele>
        <time>2024-09-07T09:49:44Z</time>
      </trkpt>
      <trkpt lat="48.12591" lon="-3.62102">
        <ele>110</ele>
        <time>2024-09-07T09:49:45Z</time>
      </trkpt>
      <trkpt lat="48.12593" lon="-3.62096">
        <ele>110.2</ele>
        <time>2024-09-07T09:49:46Z</time>
      </trkpt>
      <trkpt lat="48.12596" lon="-3.6209">
        <ele>110.2</ele>
        <time>2024-09-07T09:49:47Z</time>
      </trkpt>
      <trkpt lat="48.12598" lon="-3.62084">
        <ele>110.2</ele>
        <time>2024-09-07T09:49:48Z</time>
      </trkpt>
      <trkpt lat="48.12601" lon="-3.62078">
        <ele>110.4</ele>
        <time>2024-09-07T09:49:49Z</time>
      </trkpt>
      <trkpt lat="48.12604" lon="-3.62072">
        <ele>110.4</ele>
        <time>2024-09-07T09:49:50Z</time>
      </trkpt>
      <trkpt lat="48.12607" lon="-3.62066">
        <ele>110.8</ele>
        <time>2024-09-07T09:49:51Z</time>
      </trkpt>
      <trkpt lat="48.12609" lon="-3.6206">
        <ele>110.8</ele>
        <time>2024-09-07T09:49:52Z</time>
      </trkpt>
      <trkpt lat="48.12612" lon="-3.62054">
        <ele>110.8</ele>
        <time>2024-09-07T09:49:53Z</time>
      </trkpt>
      <trkpt lat="48.12614" lon="-3.62048">
        <ele>111</ele>
        <time>2024-09-07T09:49:54Z</time>
      </trkpt>
      <trkpt lat="48.12617" lon="-3.62043">
        <ele>111.2</ele>
        <time>2024-09-07T09:49:55Z</time>
      </trkpt>
      <trkpt lat="48.12619" lon="-3.62038">
        <ele>111.4</ele>
        <time>2024-09-07T09:49:56Z</time>
      </trkpt>
      <trkpt lat="48.12622" lon="-3.62033">
        <ele>111.6</ele>
        <time>2024-09-07T09:49:57Z</time>
      </trkpt>
      <trkpt lat="48.12624" lon="-3.62027">
        <ele>111.8</ele>
        <time>2024-09-07T09:49:58Z</time>
      </trkpt>
      <trkpt lat="48.12626" lon="-3.62022">
        <ele>111.8</ele>
        <time>2024-09-07T09:49:59Z</time>
      </trkpt>
      <trkpt lat="48.12628" lon="-3.62017">
        <ele>112</ele>
        <time>2024-09-07T09:50:00Z</time>
      </trkpt>
      <trkpt lat="48.12631" lon="-3.62012">
        <ele>112</ele>
        <time>2024-09-07T09:50:01Z</time>
      </trkpt>
      <trkpt lat="48.12634" lon="-3.62007">
        <ele>112</ele>
        <time>2024-09-07T09:50:02Z</time>
      </trkpt>
      <trkpt lat="48.12636" lon="-3.62002">
        <ele>112</ele>
        <time>2024-09-07T09:50:03Z</time>
      </trkpt>
      <trkpt lat="48.12639" lon="-3.61997">
        <ele>112</ele>
        <time>2024-09-07T09:50:04Z</time>
      </trkpt>
      <trkpt lat="48.12641" lon="-3.61992">
        <ele>112</ele>
        <time>2024-09-07T09:50:05Z</time>
      </trkpt>
      <trkpt lat="48.12643" lon="-3.61987">
        <ele>112.2</ele>
        <time>2024-09-07T09:50:06Z</time>
      </trkpt>
      <trkpt lat="48.12645" lon="-3.61981">
        <ele>112.2</ele>
        <time>2024-09-07T09:50:07Z</time>
      </trkpt>
      <trkpt lat="48.12648" lon="-3.61975">
        <ele>112.4</ele>
        <time>2024-09-07T09:50:08Z</time>
      </trkpt>
      <trkpt lat="48.1265" lon="-3.6197">
        <ele>112.4</ele>
        <time>2024-09-07T09:50:09Z</time>
      </trkpt>
      <trkpt lat="48.12652" lon="-3.61965">
        <ele>112.6</ele>
        <time>2024-09-07T09:50:10Z</time>
      </trkpt>
      <trkpt lat="48.12655" lon="-3.6196">
        <ele>112.6</ele>
        <time>2024-09-07T09:50:11Z</time>
      </trkpt>
      <trkpt lat="48.12658" lon="-3.61954">
        <ele>112.6</ele>
        <time>2024-09-07T09:50:12Z</time>
      </trkpt>
      <trkpt lat="48.1266" lon="-3.61948">
        <ele>112.6</ele>
        <time>2024-09-07T09:50:13Z</time>
      </trkpt>
      <trkpt lat="48.12662" lon="-3.61943">
        <ele>112.8</ele>
        <time>2024-09-07T09:50:14Z</time>
      </trkpt>
      <trkpt lat="48.12664" lon="-3.61937">
        <ele>112.8</ele>
        <time>2024-09-07T09:50:15Z</time>
      </trkpt>
      <trkpt lat="48.12667" lon="-3.61933">
        <ele>113</ele>
        <time>2024-09-07T09:50:16Z</time>
      </trkpt>
      <trkpt lat="48.12669" lon="-3.61928">
        <ele>113</ele>
        <time>2024-09-07T09:50:17Z</time>
      </trkpt>
      <trkpt lat="48.12671" lon="-3.61923">
        <ele>113</ele>
        <time>2024-09-07T09:50:18Z</time>
      </trkpt>
      <trkpt lat="48.12674" lon="-3.61917">
        <ele>113.2</ele>
        <time>2024-09-07T09:50:19Z</time>
      </trkpt>
      <trkpt lat="48.12675" lon="-3.61912">
        <ele>113.2</ele>
        <time>2024-09-07T09:50:20Z</time>
      </trkpt>
      <trkpt lat="48.12678" lon="-3.61906">
        <ele>113.4</ele>
        <time>2024-09-07T09:50:21Z</time>
      </trkpt>
      <trkpt lat="48.1268" lon="-3.619">
        <ele>113.4</ele>
        <time>2024-09-07T09:50:22Z</time>
      </trkpt>
      <trkpt lat="48.12683" lon="-3.61895">
        <ele>113.4</ele>
        <time>2024-09-07T09:50:23Z</time>
      </trkpt>
      <trkpt lat="48.12685" lon="-3.61889">
        <ele>113.4</ele>
        <time>2024-09-07T09:50:24Z</time>
      </trkpt>
      <trkpt lat="48.12687" lon="-3.61883">
        <ele>113.6</ele>
        <time>2024-09-07T09:50:25Z</time>
      </trkpt>
      <trkpt lat="48.1269" lon="-3.61877">
        <ele>113.6</ele>
        <time>2024-09-07T09:50:26Z</time>
      </trkpt>
      <trkpt lat="48.12692" lon="-3.61871">
        <ele>113.6</ele>
        <time>2024-09-07T09:50:27Z</time>
      </trkpt>
      <trkpt lat="48.12695" lon="-3.61865">
        <ele>113.6</ele>
        <time>2024-09-07T09:50:28Z</time>
      </trkpt>
      <trkpt lat="48.12698" lon="-3.61857">
        <ele>113.6</ele>
        <time>2024-09-07T09:50:29Z</time>
      </trkpt>
      <trkpt lat="48.127" lon="-3.61851">
        <ele>113.8</ele>
        <time>2024-09-07T09:50:30Z</time>
      </trkpt>
      <trkpt lat="48.12703" lon="-3.61845">
        <ele>113.8</ele>
        <time>2024-09-07T09:50:31Z</time>
      </trkpt>
      <trkpt lat="48.12705" lon="-3.61839">
        <ele>114</ele>
        <time>2024-09-07T09:50:32Z</time>
      </trkpt>
      <trkpt lat="48.12708" lon="-3.61832">
        <ele>114</ele>
        <time>2024-09-07T09:50:33Z</time>
      </trkpt>
      <trkpt lat="48.12711" lon="-3.61826">
        <ele>114.2</ele>
        <time>2024-09-07T09:50:34Z</time>
      </trkpt>
      <trkpt lat="48.12714" lon="-3.6182">
        <ele>114.2</ele>
        <time>2024-09-07T09:50:35Z</time>
      </trkpt>
      <trkpt lat="48.12716" lon="-3.61815">
        <ele>114.2</ele>
        <time>2024-09-07T09:50:36Z</time>
      </trkpt>
      <trkpt lat="48.12719" lon="-3.61808">
        <ele>114.4</ele>
        <time>2024-09-07T09:50:37Z</time>
      </trkpt>
      <trkpt lat="48.12721" lon="-3.61801">
        <ele>114.4</ele>
        <time>2024-09-07T09:50:38Z</time>
      </trkpt>
      <trkpt lat="48.12724" lon="-3.61795">
        <ele>114.6</ele>
        <time>2024-09-07T09:50:39Z</time>
      </trkpt>
      <trkpt lat="48.12727" lon="-3.61789">
        <ele>114.6</ele>
        <time>2024-09-07T09:50:40Z</time>
      </trkpt>
      <trkpt lat="48.12729" lon="-3.61783">
        <ele>114.6</ele>
        <time>2024-09-07T09:50:41Z</time>
      </trkpt>
      <trkpt lat="48.12732" lon="-3.61777">
        <ele>114.8</ele>
        <time>2024-09-07T09:50:42Z</time>
      </trkpt>
      <trkpt lat="48.12735" lon="-3.61772">
        <ele>114.8</ele>
        <time>2024-09-07T09:50:43Z</time>
      </trkpt>
      <trkpt lat="48.12737" lon="-3.61767">
        <ele>114.8</ele>
        <time>2024-09-07T09:50:44Z</time>
      </trkpt>
      <trkpt lat="48.1274" lon="-3.61762">
        <ele>115</ele>
        <time>2024-09-07T09:50:45Z</time>
      </trkpt>
      <trkpt lat="48.12743" lon="-3.61758">
        <ele>115</ele>
        <time>2024-09-07T09:50:46Z</time>
      </trkpt>
      <trkpt lat="48.12745" lon="-3.61753">
        <ele>115</ele>
        <time>2024-09-07T09:50:47Z</time>
      </trkpt>
      <trkpt lat="48.12748" lon="-3.61749">
        <ele>115.2</ele>
        <time>2024-09-07T09:50:48Z</time>
      </trkpt>
      <trkpt lat="48.1275" lon="-3.61745">
        <ele>115.2</ele>
        <time>2024-09-07T09:50:49Z</time>
      </trkpt>
      <trkpt lat="48.12753" lon="-3.61741">
        <ele>115</ele>
        <time>2024-09-07T09:50:50Z</time>
      </trkpt>
      <trkpt lat="48.12755" lon="-3.61737">
        <ele>115.2</ele>
        <time>2024-09-07T09:50:51Z</time>
      </trkpt>
      <trkpt lat="48.12759" lon="-3.61734">
        <ele>115.4</ele>
        <time>2024-09-07T09:50:52Z</time>
      </trkpt>
      <trkpt lat="48.12762" lon="-3.61731">
        <ele>115.2</ele>
        <time>2024-09-07T09:50:53Z</time>
      </trkpt>
      <trkpt lat="48.12765" lon="-3.61729">
        <ele>115.2</ele>
        <time>2024-09-07T09:50:54Z</time>
      </trkpt>
      <trkpt lat="48.12768" lon="-3.61728">
        <ele>115.4</ele>
        <time>2024-09-07T09:50:55Z</time>
      </trkpt>
      <trkpt lat="48.12771" lon="-3.61728">
        <ele>115.4</ele>
        <time>2024-09-07T09:50:56Z</time>
      </trkpt>
      <trkpt lat="48.12773" lon="-3.61727">
        <ele>115.4</ele>
        <time>2024-09-07T09:50:57Z</time>
      </trkpt>
      <trkpt lat="48.12775" lon="-3.61726">
        <ele>115.4</ele>
        <time>2024-09-07T09:50:58Z</time>
      </trkpt>
      <trkpt lat="48.12777" lon="-3.61726">
        <ele>115.6</ele>
        <time>2024-09-07T09:50:59Z</time>
      </trkpt>
      <trkpt lat="48.12779" lon="-3.61725">
        <ele>115.6</ele>
        <time>2024-09-07T09:51:00Z</time>
      </trkpt>
      <trkpt lat="48.12781" lon="-3.61724">
        <ele>115.6</ele>
        <time>2024-09-07T09:51:01Z</time>
      </trkpt>
      <trkpt lat="48.12782" lon="-3.61724">
        <ele>115.8</ele>
        <time>2024-09-07T09:51:02Z</time>
      </trkpt>
      <trkpt lat="48.12783" lon="-3.61722">
        <ele>116</ele>
        <time>2024-09-07T09:51:03Z</time>
      </trkpt>
      <trkpt lat="48.12785" lon="-3.61721">
        <ele>116</ele>
        <time>2024-09-07T09:51:04Z</time>
      </trkpt>
      <trkpt lat="48.12787" lon="-3.61719">
        <ele>116.2</ele>
        <time>2024-09-07T09:51:05Z</time>
      </trkpt>
      <trkpt lat="48.12788" lon="-3.61717">
        <ele>116.2</ele>
        <time>2024-09-07T09:51:06Z</time>
      </trkpt>
      <trkpt lat="48.1279" lon="-3.61715">
        <ele>116.4</ele>
        <time>2024-09-07T09:51:07Z</time>
      </trkpt>
      <trkpt lat="48.12793" lon="-3.61715">
        <ele>116.4</ele>
        <time>2024-09-07T09:51:08Z</time>
      </trkpt>
      <trkpt lat="48.12795" lon="-3.61714">
        <ele>116.6</ele>
        <time>2024-09-07T09:51:09Z</time>
      </trkpt>
      <trkpt lat="48.12797" lon="-3.61712">
        <ele>116.6</ele>
        <time>2024-09-07T09:51:10Z</time>
      </trkpt>
      <trkpt lat="48.128" lon="-3.61709">
        <ele>116.6</ele>
        <time>2024-09-07T09:51:11Z</time>
      </trkpt>
      <trkpt lat="48.12801" lon="-3.61705">
        <ele>116.6</ele>
        <time>2024-09-07T09:51:12Z</time>
      </trkpt>
      <trkpt lat="48.12802" lon="-3.61701">
        <ele>116.6</ele>
        <time>2024-09-07T09:51:13Z</time>
      </trkpt>
      <trkpt lat="48.12802" lon="-3.61697">
        <ele>116.8</ele>
        <time>2024-09-07T09:51:14Z</time>
      </trkpt>
      <trkpt lat="48.12803" lon="-3.61693">
        <ele>116.8</ele>
        <time>2024-09-07T09:51:15Z</time>
      </trkpt>
      <trkpt lat="48.12804" lon="-3.6169">
        <ele>116.8</ele>
        <time>2024-09-07T09:51:16Z</time>
      </trkpt>
      <trkpt lat="48.12806" lon="-3.61687">
        <ele>116.8</ele>
        <time>2024-09-07T09:51:17Z</time>
      </trkpt>
      <trkpt lat="48.12806" lon="-3.61683">
        <ele>116.8</ele>
        <time>2024-09-07T09:51:18Z</time>
      </trkpt>
      <trkpt lat="48.12808" lon="-3.61679">
        <ele>116.8</ele>
        <time>2024-09-07T09:51:19Z</time>
      </trkpt>
      <trkpt lat="48.1281" lon="-3.61674">
        <ele>116.8</ele>
        <time>2024-09-07T09:51:20Z</time>
      </trkpt>
      <trkpt lat="48.12814" lon="-3.61669">
        <ele>116.8</ele>
        <time>2024-09-07T09:51:21Z</time>
      </trkpt>
      <trkpt lat="48.12817" lon="-3.61666">
        <ele>116.8</ele>
        <time>2024-09-07T09:51:22Z</time>
      </trkpt>
      <trkpt lat="48.1282" lon="-3.61662">
        <ele>116.8</ele>
        <time>2024-09-07T09:51:23Z</time>
      </trkpt>
      <trkpt lat="48.12824" lon="-3.61658">
        <ele>116.8</ele>
        <time>2024-09-07T09:51:24Z</time>
      </trkpt>
      <trkpt lat="48.12828" lon="-3.61653">
        <ele>116.8</ele>
        <time>2024-09-07T09:51:25Z</time>
      </trkpt>
      <trkpt lat="48.12832" lon="-3.61648">
        <ele>116.8</ele>
        <time>2024-09-07T09:51:26Z</time>
      </trkpt>
      <trkpt lat="48.12837" lon="-3.61642">
        <ele>116.8</ele>
        <time>2024-09-07T09:51:27Z</time>
      </trkpt>
      <trkpt lat="48.12841" lon="-3.61637">
        <ele>116.8</ele>
        <time>2024-09-07T09:51:28Z</time>
      </trkpt>
      <trkpt lat="48.12845" lon="-3.61632">
        <ele>116.8</ele>
        <time>2024-09-07T09:51:29Z</time>
      </trkpt>
      <trkpt lat="48.12849" lon="-3.61626">
        <ele>116.6</ele>
        <time>2024-09-07T09:51:30Z</time>
      </trkpt>
      <trkpt lat="48.12853" lon="-3.6162">
        <ele>116.6</ele>
        <time>2024-09-07T09:51:31Z</time>
      </trkpt>
      <trkpt lat="48.12856" lon="-3.61614">
        <ele>116.6</ele>
        <time>2024-09-07T09:51:32Z</time>
      </trkpt>
      <trkpt lat="48.12859" lon="-3.61609">
        <ele>116.6</ele>
        <time>2024-09-07T09:51:33Z</time>
      </trkpt>
      <trkpt lat="48.12863" lon="-3.61602">
        <ele>116.6</ele>
        <time>2024-09-07T09:51:34Z</time>
      </trkpt>
      <trkpt lat="48.12867" lon="-3.61596">
        <ele>116.6</ele>
        <time>2024-09-07T09:51:35Z</time>
      </trkpt>
      <trkpt lat="48.1287" lon="-3.6159">
        <ele>116.6</ele>
        <time>2024-09-07T09:51:36Z</time>
      </trkpt>
      <trkpt lat="48.12872" lon="-3.61584">
        <ele>116.8</ele>
        <time>2024-09-07T09:51:37Z</time>
      </trkpt>
      <trkpt lat="48.12875" lon="-3.61577">
        <ele>116.8</ele>
        <time>2024-09-07T09:51:38Z</time>
      </trkpt>
      <trkpt lat="48.12877" lon="-3.61571">
        <ele>116.8</ele>
        <time>2024-09-07T09:51:39Z</time>
      </trkpt>
      <trkpt lat="48.1288" lon="-3.61564">
        <ele>117</ele>
        <time>2024-09-07T09:51:40Z</time>
      </trkpt>
      <trkpt lat="48.12883" lon="-3.61557">
        <ele>117</ele>
        <time>2024-09-07T09:51:41Z</time>
      </trkpt>
      <trkpt lat="48.12885" lon="-3.6155">
        <ele>117</ele>
        <time>2024-09-07T09:51:42Z</time>
      </trkpt>
      <trkpt lat="48.12887" lon="-3.61544">
        <ele>117.2</ele>
        <time>2024-09-07T09:51:43Z</time>
      </trkpt>
      <trkpt lat="48.1289" lon="-3.61537">
        <ele>117.2</ele>
        <time>2024-09-07T09:51:44Z</time>
      </trkpt>
      <trkpt lat="48.12892" lon="-3.61532">
        <ele>117.2</ele>
        <time>2024-09-07T09:51:45Z</time>
      </trkpt>
      <trkpt lat="48.12894" lon="-3.61526">
        <ele>117.4</ele>
        <time>2024-09-07T09:51:46Z</time>
      </trkpt>
      <trkpt lat="48.12896" lon="-3.6152">
        <ele>117.6</ele>
        <time>2024-09-07T09:51:47Z</time>
      </trkpt>
      <trkpt lat="48.12898" lon="-3.61513">
        <ele>117.6</ele>
        <time>2024-09-07T09:51:48Z</time>
      </trkpt>
      <trkpt lat="48.12899" lon="-3.61507">
        <ele>117.6</ele>
        <time>2024-09-07T09:51:49Z</time>
      </trkpt>
      <trkpt lat="48.12901" lon="-3.615">
        <ele>117.8</ele>
        <time>2024-09-07T09:51:50Z</time>
      </trkpt>
      <trkpt lat="48.12903" lon="-3.61494">
        <ele>117.8</ele>
        <time>2024-09-07T09:51:51Z</time>
      </trkpt>
      <trkpt lat="48.12905" lon="-3.61488">
        <ele>117.8</ele>
        <time>2024-09-07T09:51:52Z</time>
      </trkpt>
      <trkpt lat="48.12907" lon="-3.61481">
        <ele>117.8</ele>
        <time>2024-09-07T09:51:53Z</time>
      </trkpt>
      <trkpt lat="48.1291" lon="-3.61475">
        <ele>117.6</ele>
        <time>2024-09-07T09:51:54Z</time>
      </trkpt>
      <trkpt lat="48.12912" lon="-3.61469">
        <ele>117.8</ele>
        <time>2024-09-07T09:51:55Z</time>
      </trkpt>
      <trkpt lat="48.12915" lon="-3.61462">
        <ele>117.8</ele>
        <time>2024-09-07T09:51:56Z</time>
      </trkpt>
      <trkpt lat="48.12916" lon="-3.61457">
        <ele>118</ele>
        <time>2024-09-07T09:51:57Z</time>
      </trkpt>
      <trkpt lat="48.12918" lon="-3.61451">
        <ele>117.8</ele>
        <time>2024-09-07T09:51:58Z</time>
      </trkpt>
      <trkpt lat="48.1292" lon="-3.61445">
        <ele>117.8</ele>
        <time>2024-09-07T09:51:59Z</time>
      </trkpt>
      <trkpt lat="48.12922" lon="-3.61438">
        <ele>118</ele>
        <time>2024-09-07T09:52:00Z</time>
      </trkpt>
      <trkpt lat="48.12923" lon="-3.61432">
        <ele>118</ele>
        <time>2024-09-07T09:52:01Z</time>
      </trkpt>
      <trkpt lat="48.12925" lon="-3.61425">
        <ele>118</ele>
        <time>2024-09-07T09:52:02Z</time>
      </trkpt>
      <trkpt lat="48.12927" lon="-3.61419">
        <ele>118</ele>
        <time>2024-09-07T09:52:03Z</time>
      </trkpt>
      <trkpt lat="48.12929" lon="-3.61412">
        <ele>118.2</ele>
        <time>2024-09-07T09:52:04Z</time>
      </trkpt>
      <trkpt lat="48.1293" lon="-3.61405">
        <ele>118.2</ele>
        <time>2024-09-07T09:52:05Z</time>
      </trkpt>
      <trkpt lat="48.12932" lon="-3.61398">
        <ele>118.2</ele>
        <time>2024-09-07T09:52:06Z</time>
      </trkpt>
      <trkpt lat="48.12934" lon="-3.61392">
        <ele>118.4</ele>
        <time>2024-09-07T09:52:07Z</time>
      </trkpt>
      <trkpt lat="48.12935" lon="-3.61385">
        <ele>118.4</ele>
        <time>2024-09-07T09:52:08Z</time>
      </trkpt>
      <trkpt lat="48.12938" lon="-3.61377">
        <ele>118.4</ele>
        <time>2024-09-07T09:52:09Z</time>
      </trkpt>
      <trkpt lat="48.1294" lon="-3.61372">
        <ele>118.4</ele>
        <time>2024-09-07T09:52:10Z</time>
      </trkpt>
      <trkpt lat="48.12941" lon="-3.61365">
        <ele>118.6</ele>
        <time>2024-09-07T09:52:11Z</time>
      </trkpt>
      <trkpt lat="48.12942" lon="-3.61359">
        <ele>118.6</ele>
        <time>2024-09-07T09:52:12Z</time>
      </trkpt>
      <trkpt lat="48.12944" lon="-3.61353">
        <ele>118.6</ele>
        <time>2024-09-07T09:52:13Z</time>
      </trkpt>
      <trkpt lat="48.12944" lon="-3.61346">
        <ele>118.6</ele>
        <time>2024-09-07T09:52:14Z</time>
      </trkpt>
      <trkpt lat="48.12946" lon="-3.6134">
        <ele>118.6</ele>
        <time>2024-09-07T09:52:15Z</time>
      </trkpt>
      <trkpt lat="48.12948" lon="-3.61335">
        <ele>118.8</ele>
        <time>2024-09-07T09:52:16Z</time>
      </trkpt>
      <trkpt lat="48.12952" lon="-3.61329">
        <ele>118.8</ele>
        <time>2024-09-07T09:52:17Z</time>
      </trkpt>
      <trkpt lat="48.12955" lon="-3.61322">
        <ele>119</ele>
        <time>2024-09-07T09:52:18Z</time>
      </trkpt>
      <trkpt lat="48.12958" lon="-3.61315">
        <ele>119</ele>
        <time>2024-09-07T09:52:19Z</time>
      </trkpt>
      <trkpt lat="48.1296" lon="-3.61308">
        <ele>119</ele>
        <time>2024-09-07T09:52:20Z</time>
      </trkpt>
      <trkpt lat="48.12961" lon="-3.61303">
        <ele>119</ele>
        <time>2024-09-07T09:52:21Z</time>
      </trkpt>
      <trkpt lat="48.12963" lon="-3.61298">
        <ele>119</ele>
        <time>2024-09-07T09:52:22Z</time>
      </trkpt>
      <trkpt lat="48.12965" lon="-3.61292">
        <ele>119.2</ele>
        <time>2024-09-07T09:52:23Z</time>
      </trkpt>
      <trkpt lat="48.12969" lon="-3.61286">
        <ele>119.2</ele>
        <time>2024-09-07T09:52:24Z</time>
      </trkpt>
      <trkpt lat="48.1297" lon="-3.61279">
        <ele>119.2</ele>
        <time>2024-09-07T09:52:25Z</time>
      </trkpt>
      <trkpt lat="48.12973" lon="-3.61274">
        <ele>119.2</ele>
        <time>2024-09-07T09:52:26Z</time>
      </trkpt>
      <trkpt lat="48.12975" lon="-3.61268">
        <ele>119.4</ele>
        <time>2024-09-07T09:52:27Z</time>
      </trkpt>
      <trkpt lat="48.12977" lon="-3.61263">
        <ele>119.4</ele>
        <time>2024-09-07T09:52:28Z</time>
      </trkpt>
      <trkpt lat="48.1298" lon="-3.61257">
        <ele>119.4</ele>
        <time>2024-09-07T09:52:29Z</time>
      </trkpt>
      <trkpt lat="48.12982" lon="-3.61252">
        <ele>119.6</ele>
        <time>2024-09-07T09:52:30Z</time>
      </trkpt>
      <trkpt lat="48.12985" lon="-3.61247">
        <ele>119.6</ele>
        <time>2024-09-07T09:52:31Z</time>
      </trkpt>
      <trkpt lat="48.12988" lon="-3.61242">
        <ele>119.6</ele>
        <time>2024-09-07T09:52:32Z</time>
      </trkpt>
      <trkpt lat="48.1299" lon="-3.61237">
        <ele>119.6</ele>
        <time>2024-09-07T09:52:33Z</time>
      </trkpt>
      <trkpt lat="48.12993" lon="-3.61232">
        <ele>119.6</ele>
        <time>2024-09-07T09:52:34Z</time>
      </trkpt>
      <trkpt lat="48.12996" lon="-3.61227">
        <ele>119.8</ele>
        <time>2024-09-07T09:52:35Z</time>
      </trkpt>
      <trkpt lat="48.12999" lon="-3.61222">
        <ele>119.8</ele>
        <time>2024-09-07T09:52:36Z</time>
      </trkpt>
      <trkpt lat="48.13002" lon="-3.61218">
        <ele>119.8</ele>
        <time>2024-09-07T09:52:37Z</time>
      </trkpt>
      <trkpt lat="48.13005" lon="-3.61214">
        <ele>119.8</ele>
        <time>2024-09-07T09:52:38Z</time>
      </trkpt>
      <trkpt lat="48.13008" lon="-3.6121">
        <ele>120</ele>
        <time>2024-09-07T09:52:39Z</time>
      </trkpt>
      <trkpt lat="48.1301" lon="-3.61207">
        <ele>120</ele>
        <time>2024-09-07T09:52:40Z</time>
      </trkpt>
      <trkpt lat="48.13013" lon="-3.61202">
        <ele>120</ele>
        <time>2024-09-07T09:52:41Z</time>
      </trkpt>
      <trkpt lat="48.13017" lon="-3.61199">
        <ele>120</ele>
        <time>2024-09-07T09:52:42Z</time>
      </trkpt>
      <trkpt lat="48.1302" lon="-3.61196">
        <ele>120.2</ele>
        <time>2024-09-07T09:52:43Z</time>
      </trkpt>
      <trkpt lat="48.13024" lon="-3.61192">
        <ele>120.2</ele>
        <time>2024-09-07T09:52:44Z</time>
      </trkpt>
      <trkpt lat="48.13028" lon="-3.61187">
        <ele>120.4</ele>
        <time>2024-09-07T09:52:45Z</time>
      </trkpt>
      <trkpt lat="48.13033" lon="-3.61182">
        <ele>120.4</ele>
        <time>2024-09-07T09:52:46Z</time>
      </trkpt>
      <trkpt lat="48.13038" lon="-3.61177">
        <ele>120.4</ele>
        <time>2024-09-07T09:52:47Z</time>
      </trkpt>
      <trkpt lat="48.13043" lon="-3.61171">
        <ele>120.4</ele>
        <time>2024-09-07T09:52:48Z</time>
      </trkpt>
      <trkpt lat="48.13048" lon="-3.61166">
        <ele>120.6</ele>
        <time>2024-09-07T09:52:49Z</time>
      </trkpt>
      <trkpt lat="48.13052" lon="-3.61162">
        <ele>120.6</ele>
        <time>2024-09-07T09:52:50Z</time>
      </trkpt>
      <trkpt lat="48.13056" lon="-3.61158">
        <ele>120.6</ele>
        <time>2024-09-07T09:52:51Z</time>
      </trkpt>
      <trkpt lat="48.1306" lon="-3.61153">
        <ele>120.8</ele>
        <time>2024-09-07T09:52:52Z</time>
      </trkpt>
      <trkpt lat="48.13063" lon="-3.6115">
        <ele>120.8</ele>
        <time>2024-09-07T09:52:53Z</time>
      </trkpt>
      <trkpt lat="48.13065" lon="-3.61147">
        <ele>120.8</ele>
        <time>2024-09-07T09:52:54Z</time>
      </trkpt>
      <trkpt lat="48.13069" lon="-3.61144">
        <ele>121</ele>
        <time>2024-09-07T09:52:55Z</time>
      </trkpt>
      <trkpt lat="48.13074" lon="-3.61141">
        <ele>121</ele>
        <time>2024-09-07T09:52:56Z</time>
      </trkpt>
      <trkpt lat="48.13078" lon="-3.61138">
        <ele>121</ele>
        <time>2024-09-07T09:52:57Z</time>
      </trkpt>
      <trkpt lat="48.13081" lon="-3.61135">
        <ele>121.2</ele>
        <time>2024-09-07T09:52:58Z</time>
      </trkpt>
      <trkpt lat="48.13085" lon="-3.61133">
        <ele>121.2</ele>
        <time>2024-09-07T09:52:59Z</time>
      </trkpt>
      <trkpt lat="48.13089" lon="-3.6113">
        <ele>121.4</ele>
        <time>2024-09-07T09:53:00Z</time>
      </trkpt>
      <trkpt lat="48.13094" lon="-3.61128">
        <ele>121.4</ele>
        <time>2024-09-07T09:53:01Z</time>
      </trkpt>
      <trkpt lat="48.13098" lon="-3.61125">
        <ele>121.4</ele>
        <time>2024-09-07T09:53:02Z</time>
      </trkpt>
      <trkpt lat="48.13102" lon="-3.61123">
        <ele>121.6</ele>
        <time>2024-09-07T09:53:03Z</time>
      </trkpt>
      <trkpt lat="48.13105" lon="-3.61121">
        <ele>121.6</ele>
        <time>2024-09-07T09:53:04Z</time>
      </trkpt>
      <trkpt lat="48.1311" lon="-3.61119">
        <ele>121.6</ele>
        <time>2024-09-07T09:53:05Z</time>
      </trkpt>
      <trkpt lat="48.13115" lon="-3.61116">
        <ele>121.6</ele>
        <time>2024-09-07T09:53:06Z</time>
      </trkpt>
      <trkpt lat="48.13119" lon="-3.61114">
        <ele>121.8</ele>
        <time>2024-09-07T09:53:07Z</time>
      </trkpt>
      <trkpt lat="48.13123" lon="-3.61112">
        <ele>122</ele>
        <time>2024-09-07T09:53:08Z</time>
      </trkpt>
      <trkpt lat="48.13127" lon="-3.6111">
        <ele>122</ele>
        <time>2024-09-07T09:53:09Z</time>
      </trkpt>
      <trkpt lat="48.13131" lon="-3.61108">
        <ele>122.2</ele>
        <time>2024-09-07T09:53:10Z</time>
      </trkpt>
      <trkpt lat="48.13134" lon="-3.61106">
        <ele>122.2</ele>
        <time>2024-09-07T09:53:11Z</time>
      </trkpt>
      <trkpt lat="48.13138" lon="-3.61103">
        <ele>122.2</ele>
        <time>2024-09-07T09:53:12Z</time>
      </trkpt>
      <trkpt lat="48.13142" lon="-3.61101">
        <ele>122.4</ele>
        <time>2024-09-07T09:53:13Z</time>
      </trkpt>
      <trkpt lat="48.13147" lon="-3.611">
        <ele>122.4</ele>
        <time>2024-09-07T09:53:14Z</time>
      </trkpt>
      <trkpt lat="48.13151" lon="-3.61098">
        <ele>122.4</ele>
        <time>2024-09-07T09:53:15Z</time>
      </trkpt>
      <trkpt lat="48.13156" lon="-3.61096">
        <ele>122.2</ele>
        <time>2024-09-07T09:53:16Z</time>
      </trkpt>
      <trkpt lat="48.13161" lon="-3.61093">
        <ele>122.2</ele>
        <time>2024-09-07T09:53:17Z</time>
      </trkpt>
      <trkpt lat="48.13165" lon="-3.61091">
        <ele>122.4</ele>
        <time>2024-09-07T09:53:18Z</time>
      </trkpt>
      <trkpt lat="48.1317" lon="-3.61089">
        <ele>122.6</ele>
        <time>2024-09-07T09:53:19Z</time>
      </trkpt>
      <trkpt lat="48.13175" lon="-3.61087">
        <ele>122.6</ele>
        <time>2024-09-07T09:53:20Z</time>
      </trkpt>
      <trkpt lat="48.1318" lon="-3.61085">
        <ele>122.6</ele>
        <time>2024-09-07T09:53:21Z</time>
      </trkpt>
      <trkpt lat="48.13184" lon="-3.61083">
        <ele>122.4</ele>
        <time>2024-09-07T09:53:22Z</time>
      </trkpt>
      <trkpt lat="48.13188" lon="-3.61081">
        <ele>122.4</ele>
        <time>2024-09-07T09:53:23Z</time>
      </trkpt>
      <trkpt lat="48.13194" lon="-3.61079">
        <ele>122.8</ele>
        <time>2024-09-07T09:53:24Z</time>
      </trkpt>
      <trkpt lat="48.13199" lon="-3.61077">
        <ele>122.8</ele>
        <time>2024-09-07T09:53:25Z</time>
      </trkpt>
      <trkpt lat="48.13204" lon="-3.61075">
        <ele>122.8</ele>
        <time>2024-09-07T09:53:26Z</time>
      </trkpt>
      <trkpt lat="48.13208" lon="-3.61073">
        <ele>122.8</ele>
        <time>2024-09-07T09:53:27Z</time>
      </trkpt>
      <trkpt lat="48.13213" lon="-3.6107">
        <ele>122.8</ele>
        <time>2024-09-07T09:53:28Z</time>
      </trkpt>
      <trkpt lat="48.13217" lon="-3.61068">
        <ele>123</ele>
        <time>2024-09-07T09:53:29Z</time>
      </trkpt>
      <trkpt lat="48.13221" lon="-3.61065">
        <ele>123</ele>
        <time>2024-09-07T09:53:30Z</time>
      </trkpt>
      <trkpt lat="48.13226" lon="-3.61063">
        <ele>123</ele>
        <time>2024-09-07T09:53:31Z</time>
      </trkpt>
      <trkpt lat="48.13231" lon="-3.6106">
        <ele>123</ele>
        <time>2024-09-07T09:53:32Z</time>
      </trkpt>
      <trkpt lat="48.13237" lon="-3.61057">
        <ele>123</ele>
        <time>2024-09-07T09:53:33Z</time>
      </trkpt>
      <trkpt lat="48.13242" lon="-3.61053">
        <ele>123</ele>
        <time>2024-09-07T09:53:34Z</time>
      </trkpt>
      <trkpt lat="48.13247" lon="-3.6105">
        <ele>123.4</ele>
        <time>2024-09-07T09:53:35Z</time>
      </trkpt>
      <trkpt lat="48.13252" lon="-3.61047">
        <ele>123.6</ele>
        <time>2024-09-07T09:53:36Z</time>
      </trkpt>
      <trkpt lat="48.13256" lon="-3.61044">
        <ele>123.6</ele>
        <time>2024-09-07T09:53:37Z</time>
      </trkpt>
      <trkpt lat="48.1326" lon="-3.61041">
        <ele>123.6</ele>
        <time>2024-09-07T09:53:38Z</time>
      </trkpt>
      <trkpt lat="48.13264" lon="-3.61037">
        <ele>123.6</ele>
        <time>2024-09-07T09:53:39Z</time>
      </trkpt>
      <trkpt lat="48.13268" lon="-3.61033">
        <ele>123.6</ele>
        <time>2024-09-07T09:53:40Z</time>
      </trkpt>
      <trkpt lat="48.13274" lon="-3.61028">
        <ele>123.6</ele>
        <time>2024-09-07T09:53:41Z</time>
      </trkpt>
      <trkpt lat="48.1328" lon="-3.61023">
        <ele>124</ele>
        <time>2024-09-07T09:53:42Z</time>
      </trkpt>
      <trkpt lat="48.13285" lon="-3.61019">
        <ele>124.2</ele>
        <time>2024-09-07T09:53:43Z</time>
      </trkpt>
      <trkpt lat="48.13289" lon="-3.61016">
        <ele>124.2</ele>
        <time>2024-09-07T09:53:44Z</time>
      </trkpt>
      <trkpt lat="48.13293" lon="-3.61013">
        <ele>124.2</ele>
        <time>2024-09-07T09:53:45Z</time>
      </trkpt>
      <trkpt lat="48.13296" lon="-3.6101">
        <ele>124.2</ele>
        <time>2024-09-07T09:53:46Z</time>
      </trkpt>
      <trkpt lat="48.13298" lon="-3.61006">
        <ele>124.4</ele>
        <time>2024-09-07T09:53:47Z</time>
      </trkpt>
      <trkpt lat="48.13301" lon="-3.61001">
        <ele>124.4</ele>
        <time>2024-09-07T09:53:48Z</time>
      </trkpt>
      <trkpt lat="48.13305" lon="-3.60998">
        <ele>124.6</ele>
        <time>2024-09-07T09:53:49Z</time>
      </trkpt>
      <trkpt lat="48.13307" lon="-3.60994">
        <ele>124.6</ele>
        <time>2024-09-07T09:53:50Z</time>
      </trkpt>
      <trkpt lat="48.1331" lon="-3.60991">
        <ele>124.4</ele>
        <time>2024-09-07T09:53:51Z</time>
      </trkpt>
      <trkpt lat="48.13313" lon="-3.60987">
        <ele>124.6</ele>
        <time>2024-09-07T09:53:52Z</time>
      </trkpt>
      <trkpt lat="48.13316" lon="-3.60983">
        <ele>124.8</ele>
        <time>2024-09-07T09:53:53Z</time>
      </trkpt>
      <trkpt lat="48.13319" lon="-3.60978">
        <ele>124.6</ele>
        <time>2024-09-07T09:53:54Z</time>
      </trkpt>
      <trkpt lat="48.13322" lon="-3.60974">
        <ele>124.6</ele>
        <time>2024-09-07T09:53:55Z</time>
      </trkpt>
      <trkpt lat="48.13326" lon="-3.6097">
        <ele>124.6</ele>
        <time>2024-09-07T09:53:56Z</time>
      </trkpt>
      <trkpt lat="48.13329" lon="-3.60966">
        <ele>124.8</ele>
        <time>2024-09-07T09:53:57Z</time>
      </trkpt>
      <trkpt lat="48.13332" lon="-3.60961">
        <ele>124.8</ele>
        <time>2024-09-07T09:53:58Z</time>
      </trkpt>
      <trkpt lat="48.13334" lon="-3.60957">
        <ele>124.8</ele>
        <time>2024-09-07T09:53:59Z</time>
      </trkpt>
      <trkpt lat="48.13336" lon="-3.60953">
        <ele>125</ele>
        <time>2024-09-07T09:54:00Z</time>
      </trkpt>
      <trkpt lat="48.13339" lon="-3.6095">
        <ele>125</ele>
        <time>2024-09-07T09:54:01Z</time>
      </trkpt>
      <trkpt lat="48.13341" lon="-3.60947">
        <ele>125</ele>
        <time>2024-09-07T09:54:02Z</time>
      </trkpt>
      <trkpt lat="48.13343" lon="-3.60944">
        <ele>125</ele>
        <time>2024-09-07T09:54:03Z</time>
      </trkpt>
      <trkpt lat="48.13344" lon="-3.60942">
        <ele>125</ele>
        <time>2024-09-07T09:54:04Z</time>
      </trkpt>
      <trkpt lat="48.13345" lon="-3.60939">
        <ele>125</ele>
        <time>2024-09-07T09:54:05Z</time>
      </trkpt>
      <trkpt lat="48.13346" lon="-3.60936">
        <ele>125</ele>
        <time>2024-09-07T09:54:06Z</time>
      </trkpt>
      <trkpt lat="48.13347" lon="-3.60932">
        <ele>125.2</ele>
        <time>2024-09-07T09:54:07Z</time>
      </trkpt>
      <trkpt lat="48.13348" lon="-3.60929">
        <ele>125.2</ele>
        <time>2024-09-07T09:54:08Z</time>
      </trkpt>
      <trkpt lat="48.1335" lon="-3.60927">
        <ele>125.2</ele>
        <time>2024-09-07T09:54:09Z</time>
      </trkpt>
      <trkpt lat="48.13353" lon="-3.60923">
        <ele>125.2</ele>
        <time>2024-09-07T09:54:10Z</time>
      </trkpt>
      <trkpt lat="48.13355" lon="-3.6092">
        <ele>125.2</ele>
        <time>2024-09-07T09:54:11Z</time>
      </trkpt>
      <trkpt lat="48.13357" lon="-3.60915">
        <ele>125.4</ele>
        <time>2024-09-07T09:54:12Z</time>
      </trkpt>
      <trkpt lat="48.1336" lon="-3.60911">
        <ele>125.4</ele>
        <time>2024-09-07T09:54:13Z</time>
      </trkpt>
      <trkpt lat="48.13362" lon="-3.60907">
        <ele>125.4</ele>
        <time>2024-09-07T09:54:14Z</time>
      </trkpt>
      <trkpt lat="48.13364" lon="-3.60903">
        <ele>125.6</ele>
        <time>2024-09-07T09:54:15Z</time>
      </trkpt>
      <trkpt lat="48.13366" lon="-3.609">
        <ele>125.6</ele>
        <time>2024-09-07T09:54:16Z</time>
      </trkpt>
      <trkpt lat="48.13368" lon="-3.60896">
        <ele>125.6</ele>
        <time>2024-09-07T09:54:17Z</time>
      </trkpt>
      <trkpt lat="48.1337" lon="-3.60892">
        <ele>125.6</ele>
        <time>2024-09-07T09:54:18Z</time>
      </trkpt>
      <trkpt lat="48.13371" lon="-3.60889">
        <ele>125.8</ele>
        <time>2024-09-07T09:54:19Z</time>
      </trkpt>
      <trkpt lat="48.13372" lon="-3.60886">
        <ele>125.8</ele>
        <time>2024-09-07T09:54:20Z</time>
      </trkpt>
      <trkpt lat="48.13373" lon="-3.60884">
        <ele>125.8</ele>
        <time>2024-09-07T09:54:21Z</time>
      </trkpt>
      <trkpt lat="48.13373" lon="-3.60882">
        <ele>125.8</ele>
        <time>2024-09-07T09:54:22Z</time>
      </trkpt>
      <trkpt lat="48.13374" lon="-3.60879">
        <ele>125.8</ele>
        <time>2024-09-07T09:54:23Z</time>
      </trkpt>
      <trkpt lat="48.13375" lon="-3.60877">
        <ele>125.8</ele>
        <time>2024-09-07T09:54:24Z</time>
      </trkpt>
      <trkpt lat="48.13376" lon="-3.60874">
        <ele>125.8</ele>
        <time>2024-09-07T09:54:25Z</time>
      </trkpt>
      <trkpt lat="48.13378" lon="-3.60871">
        <ele>125.8</ele>
        <time>2024-09-07T09:54:26Z</time>
      </trkpt>
      <trkpt lat="48.13381" lon="-3.60868">
        <ele>126</ele>
        <time>2024-09-07T09:54:27Z</time>
      </trkpt>
      <trkpt lat="48.13383" lon="-3.60866">
        <ele>126</ele>
        <time>2024-09-07T09:54:28Z</time>
      </trkpt>
      <trkpt lat="48.13385" lon="-3.60863">
        <ele>126</ele>
        <time>2024-09-07T09:54:29Z</time>
      </trkpt>
      <trkpt lat="48.13387" lon="-3.60859">
        <ele>126</ele>
        <time>2024-09-07T09:54:30Z</time>
      </trkpt>
      <trkpt lat="48.13389" lon="-3.60856">
        <ele>126</ele>
        <time>2024-09-07T09:54:31Z</time>
      </trkpt>
      <trkpt lat="48.13391" lon="-3.60852">
        <ele>126</ele>
        <time>2024-09-07T09:54:32Z</time>
      </trkpt>
      <trkpt lat="48.13393" lon="-3.60847">
        <ele>126.2</ele>
        <time>2024-09-07T09:54:33Z</time>
      </trkpt>
      <trkpt lat="48.13395" lon="-3.60843">
        <ele>126.2</ele>
        <time>2024-09-07T09:54:34Z</time>
      </trkpt>
      <trkpt lat="48.13397" lon="-3.60839">
        <ele>126.2</ele>
        <time>2024-09-07T09:54:35Z</time>
      </trkpt>
      <trkpt lat="48.13399" lon="-3.60835">
        <ele>126.2</ele>
        <time>2024-09-07T09:54:36Z</time>
      </trkpt>
      <trkpt lat="48.13401" lon="-3.60831">
        <ele>126.4</ele>
        <time>2024-09-07T09:54:37Z</time>
      </trkpt>
      <trkpt lat="48.13403" lon="-3.60828">
        <ele>126.4</ele>
        <time>2024-09-07T09:54:38Z</time>
      </trkpt>
      <trkpt lat="48.13405" lon="-3.60825">
        <ele>126.4</ele>
        <time>2024-09-07T09:54:39Z</time>
      </trkpt>
      <trkpt lat="48.13407" lon="-3.60822">
        <ele>126.4</ele>
        <time>2024-09-07T09:54:40Z</time>
      </trkpt>
      <trkpt lat="48.13408" lon="-3.60819">
        <ele>126.4</ele>
        <time>2024-09-07T09:54:41Z</time>
      </trkpt>
      <trkpt lat="48.1341" lon="-3.60815">
        <ele>126.4</ele>
        <time>2024-09-07T09:54:42Z</time>
      </trkpt>
      <trkpt lat="48.13411" lon="-3.60812">
        <ele>126.6</ele>
        <time>2024-09-07T09:54:43Z</time>
      </trkpt>
      <trkpt lat="48.13413" lon="-3.60809">
        <ele>126.6</ele>
        <time>2024-09-07T09:54:44Z</time>
      </trkpt>
      <trkpt lat="48.13415" lon="-3.60806">
        <ele>126.6</ele>
        <time>2024-09-07T09:54:45Z</time>
      </trkpt>
      <trkpt lat="48.13416" lon="-3.60802">
        <ele>126.6</ele>
        <time>2024-09-07T09:54:46Z</time>
      </trkpt>
      <trkpt lat="48.13418" lon="-3.60799">
        <ele>126.6</ele>
        <time>2024-09-07T09:54:47Z</time>
      </trkpt>
      <trkpt lat="48.1342" lon="-3.60795">
        <ele>126.6</ele>
        <time>2024-09-07T09:54:48Z</time>
      </trkpt>
      <trkpt lat="48.13422" lon="-3.60791">
        <ele>126.8</ele>
        <time>2024-09-07T09:54:49Z</time>
      </trkpt>
      <trkpt lat="48.13424" lon="-3.60787">
        <ele>126.8</ele>
        <time>2024-09-07T09:54:50Z</time>
      </trkpt>
      <trkpt lat="48.13426" lon="-3.60784">
        <ele>126.8</ele>
        <time>2024-09-07T09:54:51Z</time>
      </trkpt>
      <trkpt lat="48.13428" lon="-3.6078">
        <ele>126.8</ele>
        <time>2024-09-07T09:54:52Z</time>
      </trkpt>
      <trkpt lat="48.13431" lon="-3.60776">
        <ele>126.8</ele>
        <time>2024-09-07T09:54:53Z</time>
      </trkpt>
      <trkpt lat="48.13433" lon="-3.60773">
        <ele>126.8</ele>
        <time>2024-09-07T09:54:54Z</time>
      </trkpt>
      <trkpt lat="48.13434" lon="-3.6077">
        <ele>126.8</ele>
        <time>2024-09-07T09:54:55Z</time>
      </trkpt>
      <trkpt lat="48.13436" lon="-3.60767">
        <ele>126.8</ele>
        <time>2024-09-07T09:54:56Z</time>
      </trkpt>
      <trkpt lat="48.13437" lon="-3.60765">
        <ele>127</ele>
        <time>2024-09-07T09:54:57Z</time>
      </trkpt>
      <trkpt lat="48.13438" lon="-3.60762">
        <ele>127</ele>
        <time>2024-09-07T09:54:58Z</time>
      </trkpt>
      <trkpt lat="48.1344" lon="-3.6076">
        <ele>127</ele>
        <time>2024-09-07T09:54:59Z</time>
      </trkpt>
      <trkpt lat="48.13441" lon="-3.60757">
        <ele>127</ele>
        <time>2024-09-07T09:55:00Z</time>
      </trkpt>
      <trkpt lat="48.13443" lon="-3.60754">
        <ele>127.2</ele>
        <time>2024-09-07T09:55:01Z</time>
      </trkpt>
      <trkpt lat="48.13445" lon="-3.60751">
        <ele>127.2</ele>
        <time>2024-09-07T09:55:02Z</time>
      </trkpt>
      <trkpt lat="48.13447" lon="-3.60748">
        <ele>127.2</ele>
        <time>2024-09-07T09:55:03Z</time>
      </trkpt>
      <trkpt lat="48.13449" lon="-3.60745">
        <ele>127.4</ele>
        <time>2024-09-07T09:55:04Z</time>
      </trkpt>
      <trkpt lat="48.13451" lon="-3.60742">
        <ele>127.4</ele>
        <time>2024-09-07T09:55:05Z</time>
      </trkpt>
      <trkpt lat="48.13453" lon="-3.60739">
        <ele>127.2</ele>
        <time>2024-09-07T09:55:06Z</time>
      </trkpt>
      <trkpt lat="48.13455" lon="-3.60737">
        <ele>127.4</ele>
        <time>2024-09-07T09:55:07Z</time>
      </trkpt>
      <trkpt lat="48.13457" lon="-3.60734">
        <ele>127.4</ele>
        <time>2024-09-07T09:55:08Z</time>
      </trkpt>
      <trkpt lat="48.13459" lon="-3.60731">
        <ele>127.6</ele>
        <time>2024-09-07T09:55:09Z</time>
      </trkpt>
      <trkpt lat="48.13462" lon="-3.60727">
        <ele>127.4</ele>
        <time>2024-09-07T09:55:10Z</time>
      </trkpt>
      <trkpt lat="48.13464" lon="-3.60724">
        <ele>127.4</ele>
        <time>2024-09-07T09:55:11Z</time>
      </trkpt>
      <trkpt lat="48.13467" lon="-3.60722">
        <ele>127.4</ele>
        <time>2024-09-07T09:55:12Z</time>
      </trkpt>
      <trkpt lat="48.13469" lon="-3.60719">
        <ele>127.6</ele>
        <time>2024-09-07T09:55:13Z</time>
      </trkpt>
      <trkpt lat="48.13472" lon="-3.60717">
        <ele>127.6</ele>
        <time>2024-09-07T09:55:14Z</time>
      </trkpt>
      <trkpt lat="48.13475" lon="-3.60715">
        <ele>127.6</ele>
        <time>2024-09-07T09:55:15Z</time>
      </trkpt>
      <trkpt lat="48.13477" lon="-3.60712">
        <ele>127.6</ele>
        <time>2024-09-07T09:55:16Z</time>
      </trkpt>
      <trkpt lat="48.1348" lon="-3.6071">
        <ele>127.8</ele>
        <time>2024-09-07T09:55:17Z</time>
      </trkpt>
      <trkpt lat="48.13483" lon="-3.60708">
        <ele>127.8</ele>
        <time>2024-09-07T09:55:18Z</time>
      </trkpt>
      <trkpt lat="48.13486" lon="-3.60706">
        <ele>127.8</ele>
        <time>2024-09-07T09:55:19Z</time>
      </trkpt>
      <trkpt lat="48.13489" lon="-3.60704">
        <ele>127.8</ele>
        <time>2024-09-07T09:55:20Z</time>
      </trkpt>
      <trkpt lat="48.13493" lon="-3.60701">
        <ele>127.8</ele>
        <time>2024-09-07T09:55:21Z</time>
      </trkpt>
      <trkpt lat="48.13496" lon="-3.60698">
        <ele>127.8</ele>
        <time>2024-09-07T09:55:22Z</time>
      </trkpt>
      <trkpt lat="48.135" lon="-3.60696">
        <ele>128</ele>
        <time>2024-09-07T09:55:23Z</time>
      </trkpt>
      <trkpt lat="48.13503" lon="-3.60694">
        <ele>128</ele>
        <time>2024-09-07T09:55:24Z</time>
      </trkpt>
      <trkpt lat="48.13506" lon="-3.60691">
        <ele>128</ele>
        <time>2024-09-07T09:55:25Z</time>
      </trkpt>
      <trkpt lat="48.13509" lon="-3.60689">
        <ele>128</ele>
        <time>2024-09-07T09:55:26Z</time>
      </trkpt>
      <trkpt lat="48.13512" lon="-3.60686">
        <ele>128.2</ele>
        <time>2024-09-07T09:55:27Z</time>
      </trkpt>
      <trkpt lat="48.13515" lon="-3.60684">
        <ele>128.2</ele>
        <time>2024-09-07T09:55:28Z</time>
      </trkpt>
      <trkpt lat="48.13518" lon="-3.60682">
        <ele>128.2</ele>
        <time>2024-09-07T09:55:29Z</time>
      </trkpt>
      <trkpt lat="48.13522" lon="-3.60681">
        <ele>128.4</ele>
        <time>2024-09-07T09:55:30Z</time>
      </trkpt>
      <trkpt lat="48.13525" lon="-3.60678">
        <ele>128.4</ele>
        <time>2024-09-07T09:55:31Z</time>
      </trkpt>
      <trkpt lat="48.13528" lon="-3.60675">
        <ele>128.4</ele>
        <time>2024-09-07T09:55:32Z</time>
      </trkpt>
      <trkpt lat="48.13531" lon="-3.60673">
        <ele>128.4</ele>
        <time>2024-09-07T09:55:33Z</time>
      </trkpt>
      <trkpt lat="48.13535" lon="-3.60671">
        <ele>128.6</ele>
        <time>2024-09-07T09:55:34Z</time>
      </trkpt>
      <trkpt lat="48.13538" lon="-3.60669">
        <ele>128.6</ele>
        <time>2024-09-07T09:55:35Z</time>
      </trkpt>
      <trkpt lat="48.13541" lon="-3.60667">
        <ele>128.6</ele>
        <time>2024-09-07T09:55:36Z</time>
      </trkpt>
      <trkpt lat="48.13544" lon="-3.60665">
        <ele>128.6</ele>
        <time>2024-09-07T09:55:37Z</time>
      </trkpt>
      <trkpt lat="48.13548" lon="-3.60662">
        <ele>128.6</ele>
        <time>2024-09-07T09:55:38Z</time>
      </trkpt>
      <trkpt lat="48.13551" lon="-3.6066">
        <ele>128.6</ele>
        <time>2024-09-07T09:55:39Z</time>
      </trkpt>
      <trkpt lat="48.13554" lon="-3.60658">
        <ele>128.6</ele>
        <time>2024-09-07T09:55:40Z</time>
      </trkpt>
      <trkpt lat="48.13557" lon="-3.60656">
        <ele>128.6</ele>
        <time>2024-09-07T09:55:41Z</time>
      </trkpt>
      <trkpt lat="48.1356" lon="-3.60654">
        <ele>128.8</ele>
        <time>2024-09-07T09:55:42Z</time>
      </trkpt>
      <trkpt lat="48.13563" lon="-3.60652">
        <ele>128.8</ele>
        <time>2024-09-07T09:55:43Z</time>
      </trkpt>
      <trkpt lat="48.13566" lon="-3.6065">
        <ele>128.8</ele>
        <time>2024-09-07T09:55:44Z</time>
      </trkpt>
      <trkpt lat="48.1357" lon="-3.60648">
        <ele>128.8</ele>
        <time>2024-09-07T09:55:45Z</time>
      </trkpt>
      <trkpt lat="48.13573" lon="-3.60647">
        <ele>128.8</ele>
        <time>2024-09-07T09:55:46Z</time>
      </trkpt>
      <trkpt lat="48.13576" lon="-3.60646">
        <ele>129</ele>
        <time>2024-09-07T09:55:47Z</time>
      </trkpt>
      <trkpt lat="48.13579" lon="-3.60644">
        <ele>129</ele>
        <time>2024-09-07T09:55:48Z</time>
      </trkpt>
      <trkpt lat="48.13582" lon="-3.60642">
        <ele>129</ele>
        <time>2024-09-07T09:55:49Z</time>
      </trkpt>
      <trkpt lat="48.13585" lon="-3.60641">
        <ele>129</ele>
        <time>2024-09-07T09:55:50Z</time>
      </trkpt>
      <trkpt lat="48.13588" lon="-3.60639">
        <ele>129.2</ele>
        <time>2024-09-07T09:55:51Z</time>
      </trkpt>
      <trkpt lat="48.13592" lon="-3.60637">
        <ele>129.2</ele>
        <time>2024-09-07T09:55:52Z</time>
      </trkpt>
      <trkpt lat="48.13595" lon="-3.60635">
        <ele>129.2</ele>
        <time>2024-09-07T09:55:53Z</time>
      </trkpt>
      <trkpt lat="48.13599" lon="-3.60633">
        <ele>129.2</ele>
        <time>2024-09-07T09:55:54Z</time>
      </trkpt>
      <trkpt lat="48.13603" lon="-3.6063">
        <ele>129.2</ele>
        <time>2024-09-07T09:55:55Z</time>
      </trkpt>
      <trkpt lat="48.13607" lon="-3.60627">
        <ele>129.2</ele>
        <time>2024-09-07T09:55:56Z</time>
      </trkpt>
      <trkpt lat="48.13611" lon="-3.60624">
        <ele>129.4</ele>
        <time>2024-09-07T09:55:57Z</time>
      </trkpt>
      <trkpt lat="48.13613" lon="-3.60621">
        <ele>129.4</ele>
        <time>2024-09-07T09:55:58Z</time>
      </trkpt>
      <trkpt lat="48.13616" lon="-3.60619">
        <ele>129.4</ele>
        <time>2024-09-07T09:55:59Z</time>
      </trkpt>
      <trkpt lat="48.1362" lon="-3.60616">
        <ele>129.4</ele>
        <time>2024-09-07T09:56:00Z</time>
      </trkpt>
      <trkpt lat="48.13623" lon="-3.60614">
        <ele>129.4</ele>
        <time>2024-09-07T09:56:01Z</time>
      </trkpt>
      <trkpt lat="48.13627" lon="-3.60611">
        <ele>129.4</ele>
        <time>2024-09-07T09:56:02Z</time>
      </trkpt>
      <trkpt lat="48.13631" lon="-3.60606">
        <ele>129.6</ele>
        <time>2024-09-07T09:56:03Z</time>
      </trkpt>
      <trkpt lat="48.13635" lon="-3.60602">
        <ele>129.4</ele>
        <time>2024-09-07T09:56:04Z</time>
      </trkpt>
      <trkpt lat="48.13638" lon="-3.60599">
        <ele>129.4</ele>
        <time>2024-09-07T09:56:05Z</time>
      </trkpt>
      <trkpt lat="48.1364" lon="-3.60596">
        <ele>129.4</ele>
        <time>2024-09-07T09:56:06Z</time>
      </trkpt>
      <trkpt lat="48.13643" lon="-3.60593">
        <ele>129.4</ele>
        <time>2024-09-07T09:56:07Z</time>
      </trkpt>
      <trkpt lat="48.13644" lon="-3.60591">
        <ele>129.4</ele>
        <time>2024-09-07T09:56:08Z</time>
      </trkpt>
      <trkpt lat="48.13647" lon="-3.60588">
        <ele>129.6</ele>
        <time>2024-09-07T09:56:09Z</time>
      </trkpt>
      <trkpt lat="48.1365" lon="-3.60585">
        <ele>129.4</ele>
        <time>2024-09-07T09:56:10Z</time>
      </trkpt>
      <trkpt lat="48.13652" lon="-3.60583">
        <ele>129.4</ele>
        <time>2024-09-07T09:56:11Z</time>
      </trkpt>
      <trkpt lat="48.13655" lon="-3.60581">
        <ele>129.6</ele>
        <time>2024-09-07T09:56:12Z</time>
      </trkpt>
      <trkpt lat="48.13657" lon="-3.60579">
        <ele>129.6</ele>
        <time>2024-09-07T09:56:13Z</time>
      </trkpt>
      <trkpt lat="48.1366" lon="-3.60576">
        <ele>129.6</ele>
        <time>2024-09-07T09:56:14Z</time>
      </trkpt>
      <trkpt lat="48.13663" lon="-3.60572">
        <ele>129.6</ele>
        <time>2024-09-07T09:56:15Z</time>
      </trkpt>
      <trkpt lat="48.13666" lon="-3.60569">
        <ele>129.6</ele>
        <time>2024-09-07T09:56:16Z</time>
      </trkpt>
      <trkpt lat="48.13669" lon="-3.60565">
        <ele>129.6</ele>
        <time>2024-09-07T09:56:17Z</time>
      </trkpt>
      <trkpt lat="48.13673" lon="-3.60561">
        <ele>129.6</ele>
        <time>2024-09-07T09:56:18Z</time>
      </trkpt>
      <trkpt lat="48.13676" lon="-3.60558">
        <ele>129.6</ele>
        <time>2024-09-07T09:56:19Z</time>
      </trkpt>
      <trkpt lat="48.13679" lon="-3.60554">
        <ele>129.6</ele>
        <time>2024-09-07T09:56:20Z</time>
      </trkpt>
      <trkpt lat="48.13682" lon="-3.60551">
        <ele>129.6</ele>
        <time>2024-09-07T09:56:21Z</time>
      </trkpt>
      <trkpt lat="48.13686" lon="-3.60547">
        <ele>129.6</ele>
        <time>2024-09-07T09:56:22Z</time>
      </trkpt>
      <trkpt lat="48.13689" lon="-3.60544">
        <ele>129.6</ele>
        <time>2024-09-07T09:56:23Z</time>
      </trkpt>
      <trkpt lat="48.13692" lon="-3.6054">
        <ele>129.6</ele>
        <time>2024-09-07T09:56:24Z</time>
      </trkpt>
      <trkpt lat="48.13696" lon="-3.60536">
        <ele>129.6</ele>
        <time>2024-09-07T09:56:25Z</time>
      </trkpt>
      <trkpt lat="48.13699" lon="-3.60533">
        <ele>129.6</ele>
        <time>2024-09-07T09:56:26Z</time>
      </trkpt>
      <trkpt lat="48.13702" lon="-3.60529">
        <ele>129.6</ele>
        <time>2024-09-07T09:56:27Z</time>
      </trkpt>
      <trkpt lat="48.13706" lon="-3.60526">
        <ele>129.6</ele>
        <time>2024-09-07T09:56:28Z</time>
      </trkpt>
      <trkpt lat="48.13709" lon="-3.60523">
        <ele>129.6</ele>
        <time>2024-09-07T09:56:29Z</time>
      </trkpt>
      <trkpt lat="48.13713" lon="-3.60519">
        <ele>129.6</ele>
        <time>2024-09-07T09:56:30Z</time>
      </trkpt>
      <trkpt lat="48.13716" lon="-3.60515">
        <ele>129.6</ele>
        <time>2024-09-07T09:56:31Z</time>
      </trkpt>
      <trkpt lat="48.13719" lon="-3.60512">
        <ele>129.6</ele>
        <time>2024-09-07T09:56:32Z</time>
      </trkpt>
      <trkpt lat="48.13723" lon="-3.60508">
        <ele>129.6</ele>
        <time>2024-09-07T09:56:33Z</time>
      </trkpt>
      <trkpt lat="48.13726" lon="-3.60505">
        <ele>129.6</ele>
        <time>2024-09-07T09:56:34Z</time>
      </trkpt>
      <trkpt lat="48.13729" lon="-3.60501">
        <ele>129.6</ele>
        <time>2024-09-07T09:56:35Z</time>
      </trkpt>
      <trkpt lat="48.13733" lon="-3.60497">
        <ele>129.6</ele>
        <time>2024-09-07T09:56:36Z</time>
      </trkpt>
      <trkpt lat="48.13736" lon="-3.60492">
        <ele>129.6</ele>
        <time>2024-09-07T09:56:37Z</time>
      </trkpt>
      <trkpt lat="48.1374" lon="-3.60489">
        <ele>129.6</ele>
        <time>2024-09-07T09:56:38Z</time>
      </trkpt>
      <trkpt lat="48.13743" lon="-3.60485">
        <ele>129.6</ele>
        <time>2024-09-07T09:56:39Z</time>
      </trkpt>
      <trkpt lat="48.13747" lon="-3.60481">
        <ele>129.6</ele>
        <time>2024-09-07T09:56:40Z</time>
      </trkpt>
      <trkpt lat="48.1375" lon="-3.60478">
        <ele>129.6</ele>
        <time>2024-09-07T09:56:41Z</time>
      </trkpt>
      <trkpt lat="48.13753" lon="-3.60474">
        <ele>129.6</ele>
        <time>2024-09-07T09:56:42Z</time>
      </trkpt>
      <trkpt lat="48.13757" lon="-3.6047">
        <ele>129.6</ele>
        <time>2024-09-07T09:56:43Z</time>
      </trkpt>
      <trkpt lat="48.1376" lon="-3.60466">
        <ele>129.6</ele>
        <time>2024-09-07T09:56:44Z</time>
      </trkpt>
      <trkpt lat="48.13763" lon="-3.60463">
        <ele>129.6</ele>
        <time>2024-09-07T09:56:45Z</time>
      </trkpt>
      <trkpt lat="48.13765" lon="-3.60459">
        <ele>129.6</ele>
        <time>2024-09-07T09:56:46Z</time>
      </trkpt>
      <trkpt lat="48.13768" lon="-3.60455">
        <ele>129.8</ele>
        <time>2024-09-07T09:56:47Z</time>
      </trkpt>
      <trkpt lat="48.13771" lon="-3.60452">
        <ele>129.8</ele>
        <time>2024-09-07T09:56:48Z</time>
      </trkpt>
      <trkpt lat="48.13775" lon="-3.60448">
        <ele>129.8</ele>
        <time>2024-09-07T09:56:49Z</time>
      </trkpt>
      <trkpt lat="48.13778" lon="-3.60445">
        <ele>129.8</ele>
        <time>2024-09-07T09:56:50Z</time>
      </trkpt>
      <trkpt lat="48.13781" lon="-3.60442">
        <ele>129.8</ele>
        <time>2024-09-07T09:56:51Z</time>
      </trkpt>
      <trkpt lat="48.13784" lon="-3.60439">
        <ele>129.8</ele>
        <time>2024-09-07T09:56:52Z</time>
      </trkpt>
      <trkpt lat="48.13788" lon="-3.60435">
        <ele>130</ele>
        <time>2024-09-07T09:56:53Z</time>
      </trkpt>
      <trkpt lat="48.1379" lon="-3.60433">
        <ele>130</ele>
        <time>2024-09-07T09:56:54Z</time>
      </trkpt>
      <trkpt lat="48.13792" lon="-3.6043">
        <ele>130</ele>
        <time>2024-09-07T09:56:55Z</time>
      </trkpt>
      <trkpt lat="48.13795" lon="-3.60426">
        <ele>130.2</ele>
        <time>2024-09-07T09:56:56Z</time>
      </trkpt>
      <trkpt lat="48.13797" lon="-3.60422">
        <ele>130.2</ele>
        <time>2024-09-07T09:56:57Z</time>
      </trkpt>
      <trkpt lat="48.13799" lon="-3.60419">
        <ele>130.2</ele>
        <time>2024-09-07T09:56:58Z</time>
      </trkpt>
      <trkpt lat="48.13803" lon="-3.60415">
        <ele>130.2</ele>
        <time>2024-09-07T09:56:59Z</time>
      </trkpt>
      <trkpt lat="48.13806" lon="-3.60411">
        <ele>130.2</ele>
        <time>2024-09-07T09:57:00Z</time>
      </trkpt>
      <trkpt lat="48.13809" lon="-3.60407">
        <ele>130.2</ele>
        <time>2024-09-07T09:57:01Z</time>
      </trkpt>
      <trkpt lat="48.13813" lon="-3.60403">
        <ele>130.4</ele>
        <time>2024-09-07T09:57:02Z</time>
      </trkpt>
      <trkpt lat="48.13817" lon="-3.60399">
        <ele>130.4</ele>
        <time>2024-09-07T09:57:03Z</time>
      </trkpt>
      <trkpt lat="48.1382" lon="-3.60396">
        <ele>130.4</ele>
        <time>2024-09-07T09:57:04Z</time>
      </trkpt>
      <trkpt lat="48.13823" lon="-3.60392">
        <ele>130.4</ele>
        <time>2024-09-07T09:57:05Z</time>
      </trkpt>
      <trkpt lat="48.13826" lon="-3.60389">
        <ele>130.6</ele>
        <time>2024-09-07T09:57:06Z</time>
      </trkpt>
      <trkpt lat="48.13829" lon="-3.60386">
        <ele>130.6</ele>
        <time>2024-09-07T09:57:07Z</time>
      </trkpt>
      <trkpt lat="48.13831" lon="-3.60383">
        <ele>130.6</ele>
        <time>2024-09-07T09:57:08Z</time>
      </trkpt>
      <trkpt lat="48.13834" lon="-3.60381">
        <ele>130.6</ele>
        <time>2024-09-07T09:57:09Z</time>
      </trkpt>
      <trkpt lat="48.13837" lon="-3.60378">
        <ele>130.6</ele>
        <time>2024-09-07T09:57:10Z</time>
      </trkpt>
      <trkpt lat="48.1384" lon="-3.60375">
        <ele>130.8</ele>
        <time>2024-09-07T09:57:11Z</time>
      </trkpt>
      <trkpt lat="48.13842" lon="-3.60372">
        <ele>130.8</ele>
        <time>2024-09-07T09:57:12Z</time>
      </trkpt>
      <trkpt lat="48.13845" lon="-3.6037">
        <ele>130.8</ele>
        <time>2024-09-07T09:57:13Z</time>
      </trkpt>
      <trkpt lat="48.13848" lon="-3.60367">
        <ele>130.8</ele>
        <time>2024-09-07T09:57:14Z</time>
      </trkpt>
      <trkpt lat="48.13851" lon="-3.60364">
        <ele>131</ele>
        <time>2024-09-07T09:57:15Z</time>
      </trkpt>
      <trkpt lat="48.13854" lon="-3.60361">
        <ele>131</ele>
        <time>2024-09-07T09:57:16Z</time>
      </trkpt>
      <trkpt lat="48.13857" lon="-3.60358">
        <ele>131.2</ele>
        <time>2024-09-07T09:57:17Z</time>
      </trkpt>
      <trkpt lat="48.1386" lon="-3.60354">
        <ele>131.2</ele>
        <time>2024-09-07T09:57:18Z</time>
      </trkpt>
      <trkpt lat="48.13863" lon="-3.60349">
        <ele>131.2</ele>
        <time>2024-09-07T09:57:19Z</time>
      </trkpt>
      <trkpt lat="48.13866" lon="-3.60345">
        <ele>131.2</ele>
        <time>2024-09-07T09:57:20Z</time>
      </trkpt>
      <trkpt lat="48.13869" lon="-3.60341">
        <ele>131.2</ele>
        <time>2024-09-07T09:57:21Z</time>
      </trkpt>
      <trkpt lat="48.13872" lon="-3.60338">
        <ele>131.2</ele>
        <time>2024-09-07T09:57:22Z</time>
      </trkpt>
      <trkpt lat="48.13876" lon="-3.60334">
        <ele>131.2</ele>
        <time>2024-09-07T09:57:23Z</time>
      </trkpt>
      <trkpt lat="48.13879" lon="-3.60331">
        <ele>131.4</ele>
        <time>2024-09-07T09:57:24Z</time>
      </trkpt>
      <trkpt lat="48.13882" lon="-3.60328">
        <ele>131.4</ele>
        <time>2024-09-07T09:57:25Z</time>
      </trkpt>
      <trkpt lat="48.13886" lon="-3.60324">
        <ele>131.4</ele>
        <time>2024-09-07T09:57:26Z</time>
      </trkpt>
      <trkpt lat="48.13889" lon="-3.6032">
        <ele>131.4</ele>
        <time>2024-09-07T09:57:27Z</time>
      </trkpt>
      <trkpt lat="48.13892" lon="-3.60316">
        <ele>131.4</ele>
        <time>2024-09-07T09:57:28Z</time>
      </trkpt>
      <trkpt lat="48.13896" lon="-3.60313">
        <ele>131.4</ele>
        <time>2024-09-07T09:57:29Z</time>
      </trkpt>
      <trkpt lat="48.13899" lon="-3.6031">
        <ele>131.4</ele>
        <time>2024-09-07T09:57:30Z</time>
      </trkpt>
      <trkpt lat="48.13902" lon="-3.60307">
        <ele>131.6</ele>
        <time>2024-09-07T09:57:31Z</time>
      </trkpt>
      <trkpt lat="48.13905" lon="-3.60304">
        <ele>131.6</ele>
        <time>2024-09-07T09:57:32Z</time>
      </trkpt>
      <trkpt lat="48.13908" lon="-3.60301">
        <ele>131.6</ele>
        <time>2024-09-07T09:57:33Z</time>
      </trkpt>
      <trkpt lat="48.13911" lon="-3.60298">
        <ele>131.6</ele>
        <time>2024-09-07T09:57:34Z</time>
      </trkpt>
      <trkpt lat="48.13914" lon="-3.60295">
        <ele>131.6</ele>
        <time>2024-09-07T09:57:35Z</time>
      </trkpt>
      <trkpt lat="48.13917" lon="-3.60292">
        <ele>131.6</ele>
        <time>2024-09-07T09:57:36Z</time>
      </trkpt>
      <trkpt lat="48.1392" lon="-3.60289">
        <ele>131.6</ele>
        <time>2024-09-07T09:57:37Z</time>
      </trkpt>
      <trkpt lat="48.13924" lon="-3.60286">
        <ele>131.6</ele>
        <time>2024-09-07T09:57:38Z</time>
      </trkpt>
      <trkpt lat="48.13927" lon="-3.60282">
        <ele>131.6</ele>
        <time>2024-09-07T09:57:39Z</time>
      </trkpt>
      <trkpt lat="48.13931" lon="-3.60278">
        <ele>131.6</ele>
        <time>2024-09-07T09:57:40Z</time>
      </trkpt>
      <trkpt lat="48.13935" lon="-3.60275">
        <ele>131.8</ele>
        <time>2024-09-07T09:57:41Z</time>
      </trkpt>
      <trkpt lat="48.13938" lon="-3.60271">
        <ele>131.8</ele>
        <time>2024-09-07T09:57:42Z</time>
      </trkpt>
      <trkpt lat="48.13942" lon="-3.60268">
        <ele>131.8</ele>
        <time>2024-09-07T09:57:43Z</time>
      </trkpt>
      <trkpt lat="48.13946" lon="-3.60265">
        <ele>132</ele>
        <time>2024-09-07T09:57:44Z</time>
      </trkpt>
      <trkpt lat="48.13949" lon="-3.60262">
        <ele>132</ele>
        <time>2024-09-07T09:57:45Z</time>
      </trkpt>
      <trkpt lat="48.13953" lon="-3.60259">
        <ele>132</ele>
        <time>2024-09-07T09:57:46Z</time>
      </trkpt>
      <trkpt lat="48.13956" lon="-3.60257">
        <ele>132.2</ele>
        <time>2024-09-07T09:57:47Z</time>
      </trkpt>
      <trkpt lat="48.13959" lon="-3.60254">
        <ele>132.4</ele>
        <time>2024-09-07T09:57:48Z</time>
      </trkpt>
      <trkpt lat="48.13962" lon="-3.60251">
        <ele>132.4</ele>
        <time>2024-09-07T09:57:49Z</time>
      </trkpt>
      <trkpt lat="48.13965" lon="-3.60249">
        <ele>132.4</ele>
        <time>2024-09-07T09:57:50Z</time>
      </trkpt>
      <trkpt lat="48.13968" lon="-3.60246">
        <ele>132.6</ele>
        <time>2024-09-07T09:57:51Z</time>
      </trkpt>
      <trkpt lat="48.13971" lon="-3.60244">
        <ele>132.6</ele>
        <time>2024-09-07T09:57:52Z</time>
      </trkpt>
      <trkpt lat="48.13975" lon="-3.60241">
        <ele>132.6</ele>
        <time>2024-09-07T09:57:53Z</time>
      </trkpt>
      <trkpt lat="48.13978" lon="-3.6024">
        <ele>132.6</ele>
        <time>2024-09-07T09:57:54Z</time>
      </trkpt>
      <trkpt lat="48.13981" lon="-3.60239">
        <ele>132.8</ele>
        <time>2024-09-07T09:57:55Z</time>
      </trkpt>
      <trkpt lat="48.13984" lon="-3.60237">
        <ele>132.8</ele>
        <time>2024-09-07T09:57:56Z</time>
      </trkpt>
      <trkpt lat="48.13987" lon="-3.60236">
        <ele>132.8</ele>
        <time>2024-09-07T09:57:57Z</time>
      </trkpt>
      <trkpt lat="48.13989" lon="-3.60235">
        <ele>132.8</ele>
        <time>2024-09-07T09:57:58Z</time>
      </trkpt>
      <trkpt lat="48.13992" lon="-3.60234">
        <ele>132.8</ele>
        <time>2024-09-07T09:57:59Z</time>
      </trkpt>
      <trkpt lat="48.13994" lon="-3.60232">
        <ele>132.8</ele>
        <time>2024-09-07T09:58:00Z</time>
      </trkpt>
      <trkpt lat="48.13996" lon="-3.6023">
        <ele>132.8</ele>
        <time>2024-09-07T09:58:01Z</time>
      </trkpt>
      <trkpt lat="48.13998" lon="-3.60228">
        <ele>133</ele>
        <time>2024-09-07T09:58:02Z</time>
      </trkpt>
      <trkpt lat="48.14001" lon="-3.60228">
        <ele>133</ele>
        <time>2024-09-07T09:58:03Z</time>
      </trkpt>
      <trkpt lat="48.14003" lon="-3.60229">
        <ele>133</ele>
        <time>2024-09-07T09:58:04Z</time>
      </trkpt>
      <trkpt lat="48.14006" lon="-3.60229">
        <ele>133</ele>
        <time>2024-09-07T09:58:05Z</time>
      </trkpt>
      <trkpt lat="48.14009" lon="-3.60229">
        <ele>133</ele>
        <time>2024-09-07T09:58:06Z</time>
      </trkpt>
      <trkpt lat="48.14012" lon="-3.60228">
        <ele>133</ele>
        <time>2024-09-07T09:58:07Z</time>
      </trkpt>
      <trkpt lat="48.14014" lon="-3.60226">
        <ele>133.2</ele>
        <time>2024-09-07T09:58:08Z</time>
      </trkpt>
      <trkpt lat="48.14017" lon="-3.60226">
        <ele>133.2</ele>
        <time>2024-09-07T09:58:09Z</time>
      </trkpt>
      <trkpt lat="48.1402" lon="-3.60224">
        <ele>133.2</ele>
        <time>2024-09-07T09:58:10Z</time>
      </trkpt>
      <trkpt lat="48.14022" lon="-3.60222">
        <ele>133.2</ele>
        <time>2024-09-07T09:58:11Z</time>
      </trkpt>
      <trkpt lat="48.14025" lon="-3.60219">
        <ele>133.2</ele>
        <time>2024-09-07T09:58:12Z</time>
      </trkpt>
      <trkpt lat="48.14028" lon="-3.60216">
        <ele>133.2</ele>
        <time>2024-09-07T09:58:13Z</time>
      </trkpt>
      <trkpt lat="48.14031" lon="-3.60213">
        <ele>133.2</ele>
        <time>2024-09-07T09:58:14Z</time>
      </trkpt>
      <trkpt lat="48.14033" lon="-3.60211">
        <ele>133.2</ele>
        <time>2024-09-07T09:58:15Z</time>
      </trkpt>
      <trkpt lat="48.14036" lon="-3.60209">
        <ele>133.2</ele>
        <time>2024-09-07T09:58:16Z</time>
      </trkpt>
      <trkpt lat="48.14039" lon="-3.60207">
        <ele>133.4</ele>
        <time>2024-09-07T09:58:17Z</time>
      </trkpt>
      <trkpt lat="48.14042" lon="-3.60207">
        <ele>133.4</ele>
        <time>2024-09-07T09:58:18Z</time>
      </trkpt>
      <trkpt lat="48.14045" lon="-3.60207">
        <ele>133.4</ele>
        <time>2024-09-07T09:58:19Z</time>
      </trkpt>
      <trkpt lat="48.14048" lon="-3.60208">
        <ele>133.4</ele>
        <time>2024-09-07T09:58:20Z</time>
      </trkpt>
      <trkpt lat="48.14052" lon="-3.60209">
        <ele>133.4</ele>
        <time>2024-09-07T09:58:21Z</time>
      </trkpt>
      <trkpt lat="48.14055" lon="-3.6021">
        <ele>133.4</ele>
        <time>2024-09-07T09:58:22Z</time>
      </trkpt>
      <trkpt lat="48.14057" lon="-3.60211">
        <ele>133.4</ele>
        <time>2024-09-07T09:58:23Z</time>
      </trkpt>
      <trkpt lat="48.1406" lon="-3.60212">
        <ele>133.4</ele>
        <time>2024-09-07T09:58:24Z</time>
      </trkpt>
      <trkpt lat="48.14062" lon="-3.60212">
        <ele>133.4</ele>
        <time>2024-09-07T09:58:25Z</time>
      </trkpt>
      <trkpt lat="48.14065" lon="-3.60212">
        <ele>133.4</ele>
        <time>2024-09-07T09:58:26Z</time>
      </trkpt>
      <trkpt lat="48.14068" lon="-3.60211">
        <ele>133.4</ele>
        <time>2024-09-07T09:58:27Z</time>
      </trkpt>
      <trkpt lat="48.1407" lon="-3.60211">
        <ele>133.4</ele>
        <time>2024-09-07T09:58:28Z</time>
      </trkpt>
      <trkpt lat="48.14073" lon="-3.6021">
        <ele>133.6</ele>
        <time>2024-09-07T09:58:29Z</time>
      </trkpt>
      <trkpt lat="48.14076" lon="-3.60209">
        <ele>133.6</ele>
        <time>2024-09-07T09:58:30Z</time>
      </trkpt>
      <trkpt lat="48.14078" lon="-3.60209">
        <ele>133.6</ele>
        <time>2024-09-07T09:58:31Z</time>
      </trkpt>
      <trkpt lat="48.14078" lon="-3.60209">
        <ele>133.8</ele>
        <time>2024-09-07T09:58:32Z</time>
      </trkpt>
      <trkpt lat="48.14078" lon="-3.60209">
        <ele>133.8</ele>
        <time>2024-09-07T09:58:33Z</time>
      </trkpt>
      <trkpt lat="48.14084" lon="-3.60211">
        <ele>134.6</ele>
        <time>2024-09-07T10:00:16Z</time>
      </trkpt>
      <trkpt lat="48.14085" lon="-3.6021">
        <ele>134.6</ele>
        <time>2024-09-07T10:00:17Z</time>
      </trkpt>
      <trkpt lat="48.14086" lon="-3.6021">
        <ele>134.6</ele>
        <time>2024-09-07T10:00:18Z</time>
      </trkpt>
      <trkpt lat="48.14086" lon="-3.6021">
        <ele>134.6</ele>
        <time>2024-09-07T10:00:19Z</time>
      </trkpt>
      <trkpt lat="48.14091" lon="-3.60203">
        <ele>134.6</ele>
        <time>2024-09-07T10:00:35Z</time>
      </trkpt>
      <trkpt lat="48.14093" lon="-3.60201">
        <ele>134.6</ele>
        <time>2024-09-07T10:00:36Z</time>
      </trkpt>
      <trkpt lat="48.14095" lon="-3.60197">
        <ele>134.6</ele>
        <time>2024-09-07T10:00:37Z</time>
      </trkpt>
      <trkpt lat="48.14097" lon="-3.60194">
        <ele>134.6</ele>
        <time>2024-09-07T10:00:38Z</time>
      </trkpt>
      <trkpt lat="48.14099" lon="-3.60192">
        <ele>134.6</ele>
        <time>2024-09-07T10:00:39Z</time>
      </trkpt>
      <trkpt lat="48.14102" lon="-3.6019">
        <ele>134.6</ele>
        <time>2024-09-07T10:00:40Z</time>
      </trkpt>
      <trkpt lat="48.14105" lon="-3.60189">
        <ele>134.6</ele>
        <time>2024-09-07T10:00:41Z</time>
      </trkpt>
      <trkpt lat="48.14108" lon="-3.60189">
        <ele>134.6</ele>
        <time>2024-09-07T10:00:42Z</time>
      </trkpt>
      <trkpt lat="48.14111" lon="-3.6019">
        <ele>134.6</ele>
        <time>2024-09-07T10:00:43Z</time>
      </trkpt>
      <trkpt lat="48.14114" lon="-3.6019">
        <ele>134.6</ele>
        <time>2024-09-07T10:00:44Z</time>
      </trkpt>
      <trkpt lat="48.14117" lon="-3.6019">
        <ele>134.6</ele>
        <time>2024-09-07T10:00:45Z</time>
      </trkpt>
      <trkpt lat="48.14121" lon="-3.60191">
        <ele>134.6</ele>
        <time>2024-09-07T10:00:46Z</time>
      </trkpt>
      <trkpt lat="48.14124" lon="-3.60191">
        <ele>134.6</ele>
        <time>2024-09-07T10:00:47Z</time>
      </trkpt>
      <trkpt lat="48.14128" lon="-3.60192">
        <ele>134.6</ele>
        <time>2024-09-07T10:00:48Z</time>
      </trkpt>
      <trkpt lat="48.14131" lon="-3.60192">
        <ele>134.6</ele>
        <time>2024-09-07T10:00:49Z</time>
      </trkpt>
      <trkpt lat="48.14134" lon="-3.60192">
        <ele>134.6</ele>
        <time>2024-09-07T10:00:50Z</time>
      </trkpt>
      <trkpt lat="48.14137" lon="-3.60192">
        <ele>134.6</ele>
        <time>2024-09-07T10:00:51Z</time>
      </trkpt>
      <trkpt lat="48.1414" lon="-3.60192">
        <ele>134.6</ele>
        <time>2024-09-07T10:00:52Z</time>
      </trkpt>
      <trkpt lat="48.14143" lon="-3.60192">
        <ele>134.6</ele>
        <time>2024-09-07T10:00:53Z</time>
      </trkpt>
      <trkpt lat="48.14146" lon="-3.60193">
        <ele>134.6</ele>
        <time>2024-09-07T10:00:54Z</time>
      </trkpt>
      <trkpt lat="48.1415" lon="-3.60193">
        <ele>134.6</ele>
        <time>2024-09-07T10:00:55Z</time>
      </trkpt>
      <trkpt lat="48.14153" lon="-3.60194">
        <ele>134.6</ele>
        <time>2024-09-07T10:00:56Z</time>
      </trkpt>
      <trkpt lat="48.14156" lon="-3.60194">
        <ele>134.6</ele>
        <time>2024-09-07T10:00:57Z</time>
      </trkpt>
      <trkpt lat="48.14159" lon="-3.60195">
        <ele>134.6</ele>
        <time>2024-09-07T10:00:58Z</time>
      </trkpt>
      <trkpt lat="48.14162" lon="-3.60195">
        <ele>134.8</ele>
        <time>2024-09-07T10:00:59Z</time>
      </trkpt>
      <trkpt lat="48.14165" lon="-3.60197">
        <ele>134.8</ele>
        <time>2024-09-07T10:01:00Z</time>
      </trkpt>
      <trkpt lat="48.14169" lon="-3.60198">
        <ele>134.8</ele>
        <time>2024-09-07T10:01:01Z</time>
      </trkpt>
      <trkpt lat="48.14172" lon="-3.60199">
        <ele>134.8</ele>
        <time>2024-09-07T10:01:02Z</time>
      </trkpt>
      <trkpt lat="48.14176" lon="-3.60199">
        <ele>135</ele>
        <time>2024-09-07T10:01:03Z</time>
      </trkpt>
      <trkpt lat="48.1418" lon="-3.60199">
        <ele>135</ele>
        <time>2024-09-07T10:01:04Z</time>
      </trkpt>
      <trkpt lat="48.14183" lon="-3.60199">
        <ele>135</ele>
        <time>2024-09-07T10:01:05Z</time>
      </trkpt>
      <trkpt lat="48.14187" lon="-3.602">
        <ele>135</ele>
        <time>2024-09-07T10:01:06Z</time>
      </trkpt>
      <trkpt lat="48.14191" lon="-3.602">
        <ele>135</ele>
        <time>2024-09-07T10:01:07Z</time>
      </trkpt>
      <trkpt lat="48.14195" lon="-3.60201">
        <ele>135</ele>
        <time>2024-09-07T10:01:08Z</time>
      </trkpt>
      <trkpt lat="48.14199" lon="-3.60201">
        <ele>135</ele>
        <time>2024-09-07T10:01:09Z</time>
      </trkpt>
      <trkpt lat="48.14202" lon="-3.60201">
        <ele>135.2</ele>
        <time>2024-09-07T10:01:10Z</time>
      </trkpt>
      <trkpt lat="48.14207" lon="-3.60201">
        <ele>135.2</ele>
        <time>2024-09-07T10:01:11Z</time>
      </trkpt>
      <trkpt lat="48.14211" lon="-3.60201">
        <ele>135.2</ele>
        <time>2024-09-07T10:01:12Z</time>
      </trkpt>
      <trkpt lat="48.14214" lon="-3.60201">
        <ele>135.2</ele>
        <time>2024-09-07T10:01:13Z</time>
      </trkpt>
      <trkpt lat="48.14218" lon="-3.60203">
        <ele>135</ele>
        <time>2024-09-07T10:01:14Z</time>
      </trkpt>
      <trkpt lat="48.14221" lon="-3.60205">
        <ele>135</ele>
        <time>2024-09-07T10:01:15Z</time>
      </trkpt>
      <trkpt lat="48.14225" lon="-3.60207">
        <ele>135</ele>
        <time>2024-09-07T10:01:16Z</time>
      </trkpt>
      <trkpt lat="48.14228" lon="-3.6021">
        <ele>135</ele>
        <time>2024-09-07T10:01:17Z</time>
      </trkpt>
      <trkpt lat="48.14232" lon="-3.60212">
        <ele>135</ele>
        <time>2024-09-07T10:01:18Z</time>
      </trkpt>
      <trkpt lat="48.14236" lon="-3.60214">
        <ele>134.8</ele>
        <time>2024-09-07T10:01:19Z</time>
      </trkpt>
      <trkpt lat="48.14239" lon="-3.60215">
        <ele>134.8</ele>
        <time>2024-09-07T10:01:20Z</time>
      </trkpt>
      <trkpt lat="48.14243" lon="-3.60216">
        <ele>134.8</ele>
        <time>2024-09-07T10:01:21Z</time>
      </trkpt>
      <trkpt lat="48.14247" lon="-3.60217">
        <ele>134.6</ele>
        <time>2024-09-07T10:01:22Z</time>
      </trkpt>
      <trkpt lat="48.1425" lon="-3.60218">
        <ele>134.6</ele>
        <time>2024-09-07T10:01:23Z</time>
      </trkpt>
      <trkpt lat="48.14254" lon="-3.60219">
        <ele>134.6</ele>
        <time>2024-09-07T10:01:24Z</time>
      </trkpt>
      <trkpt lat="48.14257" lon="-3.60219">
        <ele>134.6</ele>
        <time>2024-09-07T10:01:25Z</time>
      </trkpt>
      <trkpt lat="48.14261" lon="-3.6022">
        <ele>134.4</ele>
        <time>2024-09-07T10:01:26Z</time>
      </trkpt>
      <trkpt lat="48.14264" lon="-3.6022">
        <ele>134.4</ele>
        <time>2024-09-07T10:01:27Z</time>
      </trkpt>
      <trkpt lat="48.14267" lon="-3.60221">
        <ele>134.4</ele>
        <time>2024-09-07T10:01:28Z</time>
      </trkpt>
      <trkpt lat="48.14271" lon="-3.60221">
        <ele>134.4</ele>
        <time>2024-09-07T10:01:29Z</time>
      </trkpt>
      <trkpt lat="48.14275" lon="-3.60221">
        <ele>134.4</ele>
        <time>2024-09-07T10:01:30Z</time>
      </trkpt>
      <trkpt lat="48.14278" lon="-3.60221">
        <ele>134.4</ele>
        <time>2024-09-07T10:01:31Z</time>
      </trkpt>
      <trkpt lat="48.14282" lon="-3.60221">
        <ele>134.4</ele>
        <time>2024-09-07T10:01:32Z</time>
      </trkpt>
      <trkpt lat="48.14286" lon="-3.60221">
        <ele>134.4</ele>
        <time>2024-09-07T10:01:33Z</time>
      </trkpt>
      <trkpt lat="48.1429" lon="-3.60221">
        <ele>134.4</ele>
        <time>2024-09-07T10:01:34Z</time>
      </trkpt>
      <trkpt lat="48.14293" lon="-3.60221">
        <ele>134.4</ele>
        <time>2024-09-07T10:01:35Z</time>
      </trkpt>
      <trkpt lat="48.14297" lon="-3.60221">
        <ele>134.4</ele>
        <time>2024-09-07T10:01:36Z</time>
      </trkpt>
      <trkpt lat="48.14301" lon="-3.60221">
        <ele>134.4</ele>
        <time>2024-09-07T10:01:37Z</time>
      </trkpt>
      <trkpt lat="48.14304" lon="-3.60221">
        <ele>134.4</ele>
        <time>2024-09-07T10:01:38Z</time>
      </trkpt>
      <trkpt lat="48.14308" lon="-3.60222">
        <ele>134.4</ele>
        <time>2024-09-07T10:01:39Z</time>
      </trkpt>
      <trkpt lat="48.14312" lon="-3.60222">
        <ele>134.4</ele>
        <time>2024-09-07T10:01:40Z</time>
      </trkpt>
      <trkpt lat="48.14316" lon="-3.60222">
        <ele>134.4</ele>
        <time>2024-09-07T10:01:41Z</time>
      </trkpt>
      <trkpt lat="48.1432" lon="-3.60223">
        <ele>134.4</ele>
        <time>2024-09-07T10:01:42Z</time>
      </trkpt>
      <trkpt lat="48.14323" lon="-3.60223">
        <ele>134.4</ele>
        <time>2024-09-07T10:01:43Z</time>
      </trkpt>
      <trkpt lat="48.14328" lon="-3.60222">
        <ele>134.4</ele>
        <time>2024-09-07T10:01:44Z</time>
      </trkpt>
      <trkpt lat="48.14331" lon="-3.60222">
        <ele>134.4</ele>
        <time>2024-09-07T10:01:45Z</time>
      </trkpt>
      <trkpt lat="48.14335" lon="-3.60222">
        <ele>134.4</ele>
        <time>2024-09-07T10:01:46Z</time>
      </trkpt>
      <trkpt lat="48.14339" lon="-3.60223">
        <ele>134.4</ele>
        <time>2024-09-07T10:01:47Z</time>
      </trkpt>
      <trkpt lat="48.14343" lon="-3.60224">
        <ele>134.4</ele>
        <time>2024-09-07T10:01:48Z</time>
      </trkpt>
      <trkpt lat="48.14347" lon="-3.60226">
        <ele>134.4</ele>
        <time>2024-09-07T10:01:49Z</time>
      </trkpt>
      <trkpt lat="48.14352" lon="-3.60227">
        <ele>134.6</ele>
        <time>2024-09-07T10:01:50Z</time>
      </trkpt>
      <trkpt lat="48.14356" lon="-3.60228">
        <ele>134.6</ele>
        <time>2024-09-07T10:01:51Z</time>
      </trkpt>
      <trkpt lat="48.14361" lon="-3.60229">
        <ele>134.6</ele>
        <time>2024-09-07T10:01:52Z</time>
      </trkpt>
      <trkpt lat="48.14366" lon="-3.60231">
        <ele>134.8</ele>
        <time>2024-09-07T10:01:53Z</time>
      </trkpt>
      <trkpt lat="48.14371" lon="-3.60232">
        <ele>134.8</ele>
        <time>2024-09-07T10:01:54Z</time>
      </trkpt>
      <trkpt lat="48.14376" lon="-3.60234">
        <ele>134.8</ele>
        <time>2024-09-07T10:01:55Z</time>
      </trkpt>
      <trkpt lat="48.14381" lon="-3.60236">
        <ele>134.8</ele>
        <time>2024-09-07T10:01:56Z</time>
      </trkpt>
      <trkpt lat="48.14386" lon="-3.60237">
        <ele>134.8</ele>
        <time>2024-09-07T10:01:57Z</time>
      </trkpt>
      <trkpt lat="48.1439" lon="-3.60239">
        <ele>134.8</ele>
        <time>2024-09-07T10:01:58Z</time>
      </trkpt>
      <trkpt lat="48.14395" lon="-3.60241">
        <ele>134.8</ele>
        <time>2024-09-07T10:01:59Z</time>
      </trkpt>
      <trkpt lat="48.144" lon="-3.60242">
        <ele>134.8</ele>
        <time>2024-09-07T10:02:00Z</time>
      </trkpt>
      <trkpt lat="48.14405" lon="-3.60243">
        <ele>134.8</ele>
        <time>2024-09-07T10:02:01Z</time>
      </trkpt>
      <trkpt lat="48.14411" lon="-3.60243">
        <ele>134.8</ele>
        <time>2024-09-07T10:02:02Z</time>
      </trkpt>
      <trkpt lat="48.14417" lon="-3.60245">
        <ele>134.8</ele>
        <time>2024-09-07T10:02:03Z</time>
      </trkpt>
      <trkpt lat="48.14422" lon="-3.60246">
        <ele>134.8</ele>
        <time>2024-09-07T10:02:04Z</time>
      </trkpt>
      <trkpt lat="48.14428" lon="-3.60246">
        <ele>134.8</ele>
        <time>2024-09-07T10:02:05Z</time>
      </trkpt>
      <trkpt lat="48.14433" lon="-3.60246">
        <ele>134.8</ele>
        <time>2024-09-07T10:02:06Z</time>
      </trkpt>
      <trkpt lat="48.1444" lon="-3.60247">
        <ele>134.8</ele>
        <time>2024-09-07T10:02:07Z</time>
      </trkpt>
      <trkpt lat="48.14446" lon="-3.60248">
        <ele>134.8</ele>
        <time>2024-09-07T10:02:08Z</time>
      </trkpt>
      <trkpt lat="48.14452" lon="-3.60249">
        <ele>134.8</ele>
        <time>2024-09-07T10:02:09Z</time>
      </trkpt>
      <trkpt lat="48.14458" lon="-3.6025">
        <ele>134.8</ele>
        <time>2024-09-07T10:02:10Z</time>
      </trkpt>
      <trkpt lat="48.14463" lon="-3.60251">
        <ele>134.6</ele>
        <time>2024-09-07T10:02:11Z</time>
      </trkpt>
      <trkpt lat="48.14469" lon="-3.60251">
        <ele>134.6</ele>
        <time>2024-09-07T10:02:12Z</time>
      </trkpt>
      <trkpt lat="48.14475" lon="-3.60251">
        <ele>134.4</ele>
        <time>2024-09-07T10:02:13Z</time>
      </trkpt>
      <trkpt lat="48.14483" lon="-3.60251">
        <ele>134.4</ele>
        <time>2024-09-07T10:02:14Z</time>
      </trkpt>
      <trkpt lat="48.1449" lon="-3.60252">
        <ele>134.4</ele>
        <time>2024-09-07T10:02:15Z</time>
      </trkpt>
      <trkpt lat="48.14497" lon="-3.60253">
        <ele>134.2</ele>
        <time>2024-09-07T10:02:16Z</time>
      </trkpt>
      <trkpt lat="48.14504" lon="-3.60254">
        <ele>134.2</ele>
        <time>2024-09-07T10:02:17Z</time>
      </trkpt>
      <trkpt lat="48.1451" lon="-3.60254">
        <ele>134.2</ele>
        <time>2024-09-07T10:02:18Z</time>
      </trkpt>
      <trkpt lat="48.14516" lon="-3.60255">
        <ele>134</ele>
        <time>2024-09-07T10:02:19Z</time>
      </trkpt>
      <trkpt lat="48.14523" lon="-3.60255">
        <ele>134</ele>
        <time>2024-09-07T10:02:20Z</time>
      </trkpt>
      <trkpt lat="48.1453" lon="-3.60256">
        <ele>134</ele>
        <time>2024-09-07T10:02:21Z</time>
      </trkpt>
      <trkpt lat="48.14537" lon="-3.60257">
        <ele>133.8</ele>
        <time>2024-09-07T10:02:22Z</time>
      </trkpt>
      <trkpt lat="48.14542" lon="-3.60257">
        <ele>133.8</ele>
        <time>2024-09-07T10:02:23Z</time>
      </trkpt>
      <trkpt lat="48.14548" lon="-3.60258">
        <ele>133.6</ele>
        <time>2024-09-07T10:02:24Z</time>
      </trkpt>
      <trkpt lat="48.14553" lon="-3.60259">
        <ele>133.6</ele>
        <time>2024-09-07T10:02:25Z</time>
      </trkpt>
      <trkpt lat="48.14559" lon="-3.60259">
        <ele>133.6</ele>
        <time>2024-09-07T10:02:26Z</time>
      </trkpt>
      <trkpt lat="48.14565" lon="-3.60259">
        <ele>133.4</ele>
        <time>2024-09-07T10:02:27Z</time>
      </trkpt>
      <trkpt lat="48.1457" lon="-3.60259">
        <ele>133.4</ele>
        <time>2024-09-07T10:02:28Z</time>
      </trkpt>
      <trkpt lat="48.14575" lon="-3.6026">
        <ele>133.2</ele>
        <time>2024-09-07T10:02:29Z</time>
      </trkpt>
      <trkpt lat="48.1458" lon="-3.60261">
        <ele>133.2</ele>
        <time>2024-09-07T10:02:30Z</time>
      </trkpt>
      <trkpt lat="48.14585" lon="-3.60262">
        <ele>133</ele>
        <time>2024-09-07T10:02:31Z</time>
      </trkpt>
      <trkpt lat="48.1459" lon="-3.60263">
        <ele>133</ele>
        <time>2024-09-07T10:02:32Z</time>
      </trkpt>
      <trkpt lat="48.14594" lon="-3.60263">
        <ele>133</ele>
        <time>2024-09-07T10:02:33Z</time>
      </trkpt>
      <trkpt lat="48.14599" lon="-3.60263">
        <ele>132.8</ele>
        <time>2024-09-07T10:02:34Z</time>
      </trkpt>
      <trkpt lat="48.14602" lon="-3.60262">
        <ele>132.8</ele>
        <time>2024-09-07T10:02:35Z</time>
      </trkpt>
      <trkpt lat="48.14606" lon="-3.60261">
        <ele>132.8</ele>
        <time>2024-09-07T10:02:36Z</time>
      </trkpt>
      <trkpt lat="48.14609" lon="-3.60262">
        <ele>132.6</ele>
        <time>2024-09-07T10:02:37Z</time>
      </trkpt>
      <trkpt lat="48.14613" lon="-3.60264">
        <ele>132.6</ele>
        <time>2024-09-07T10:02:38Z</time>
      </trkpt>
      <trkpt lat="48.14615" lon="-3.60265">
        <ele>132.6</ele>
        <time>2024-09-07T10:02:39Z</time>
      </trkpt>
      <trkpt lat="48.14618" lon="-3.60266">
        <ele>132.6</ele>
        <time>2024-09-07T10:02:40Z</time>
      </trkpt>
      <trkpt lat="48.1462" lon="-3.60266">
        <ele>132.6</ele>
        <time>2024-09-07T10:02:41Z</time>
      </trkpt>
      <trkpt lat="48.14622" lon="-3.60267">
        <ele>132.6</ele>
        <time>2024-09-07T10:02:42Z</time>
      </trkpt>
      <trkpt lat="48.14625" lon="-3.60267">
        <ele>132.4</ele>
        <time>2024-09-07T10:02:43Z</time>
      </trkpt>
      <trkpt lat="48.14629" lon="-3.60267">
        <ele>132.4</ele>
        <time>2024-09-07T10:02:44Z</time>
      </trkpt>
      <trkpt lat="48.14632" lon="-3.60267">
        <ele>132.4</ele>
        <time>2024-09-07T10:02:45Z</time>
      </trkpt>
      <trkpt lat="48.14636" lon="-3.60267">
        <ele>132.4</ele>
        <time>2024-09-07T10:02:46Z</time>
      </trkpt>
      <trkpt lat="48.14639" lon="-3.60268">
        <ele>132.4</ele>
        <time>2024-09-07T10:02:47Z</time>
      </trkpt>
      <trkpt lat="48.14643" lon="-3.60269">
        <ele>132.4</ele>
        <time>2024-09-07T10:02:48Z</time>
      </trkpt>
      <trkpt lat="48.14646" lon="-3.6027">
        <ele>132.4</ele>
        <time>2024-09-07T10:02:49Z</time>
      </trkpt>
      <trkpt lat="48.1465" lon="-3.6027">
        <ele>132.4</ele>
        <time>2024-09-07T10:02:50Z</time>
      </trkpt>
      <trkpt lat="48.14654" lon="-3.60269">
        <ele>132.2</ele>
        <time>2024-09-07T10:02:51Z</time>
      </trkpt>
      <trkpt lat="48.14657" lon="-3.60269">
        <ele>132.2</ele>
        <time>2024-09-07T10:02:52Z</time>
      </trkpt>
      <trkpt lat="48.14662" lon="-3.60268">
        <ele>132.2</ele>
        <time>2024-09-07T10:02:53Z</time>
      </trkpt>
      <trkpt lat="48.14667" lon="-3.60269">
        <ele>132.2</ele>
        <time>2024-09-07T10:02:54Z</time>
      </trkpt>
      <trkpt lat="48.14671" lon="-3.6027">
        <ele>132.2</ele>
        <time>2024-09-07T10:02:55Z</time>
      </trkpt>
      <trkpt lat="48.14676" lon="-3.60271">
        <ele>132</ele>
        <time>2024-09-07T10:02:56Z</time>
      </trkpt>
      <trkpt lat="48.1468" lon="-3.60272">
        <ele>132</ele>
        <time>2024-09-07T10:02:57Z</time>
      </trkpt>
      <trkpt lat="48.14684" lon="-3.60272">
        <ele>132</ele>
        <time>2024-09-07T10:02:58Z</time>
      </trkpt>
      <trkpt lat="48.14688" lon="-3.60272">
        <ele>132</ele>
        <time>2024-09-07T10:02:59Z</time>
      </trkpt>
      <trkpt lat="48.14692" lon="-3.60273">
        <ele>131.8</ele>
        <time>2024-09-07T10:03:00Z</time>
      </trkpt>
      <trkpt lat="48.14696" lon="-3.60274">
        <ele>131.8</ele>
        <time>2024-09-07T10:03:01Z</time>
      </trkpt>
      <trkpt lat="48.14701" lon="-3.60275">
        <ele>131.8</ele>
        <time>2024-09-07T10:03:02Z</time>
      </trkpt>
      <trkpt lat="48.14706" lon="-3.60276">
        <ele>131.6</ele>
        <time>2024-09-07T10:03:03Z</time>
      </trkpt>
      <trkpt lat="48.14711" lon="-3.60276">
        <ele>131.6</ele>
        <time>2024-09-07T10:03:04Z</time>
      </trkpt>
      <trkpt lat="48.14717" lon="-3.60277">
        <ele>131.6</ele>
        <time>2024-09-07T10:03:05Z</time>
      </trkpt>
      <trkpt lat="48.14721" lon="-3.60277">
        <ele>131.6</ele>
        <time>2024-09-07T10:03:06Z</time>
      </trkpt>
      <trkpt lat="48.14724" lon="-3.60277">
        <ele>131.4</ele>
        <time>2024-09-07T10:03:07Z</time>
      </trkpt>
      <trkpt lat="48.14728" lon="-3.60276">
        <ele>131.4</ele>
        <time>2024-09-07T10:03:08Z</time>
      </trkpt>
      <trkpt lat="48.14734" lon="-3.60276">
        <ele>131.4</ele>
        <time>2024-09-07T10:03:09Z</time>
      </trkpt>
      <trkpt lat="48.1474" lon="-3.60277">
        <ele>131.4</ele>
        <time>2024-09-07T10:03:10Z</time>
      </trkpt>
      <trkpt lat="48.14748" lon="-3.60278">
        <ele>131.4</ele>
        <time>2024-09-07T10:03:11Z</time>
      </trkpt>
      <trkpt lat="48.14755" lon="-3.60279">
        <ele>131.2</ele>
        <time>2024-09-07T10:03:12Z</time>
      </trkpt>
      <trkpt lat="48.14761" lon="-3.60281">
        <ele>131.2</ele>
        <time>2024-09-07T10:03:13Z</time>
      </trkpt>
      <trkpt lat="48.14767" lon="-3.60281">
        <ele>131.2</ele>
        <time>2024-09-07T10:03:14Z</time>
      </trkpt>
      <trkpt lat="48.14772" lon="-3.60282">
        <ele>131</ele>
        <time>2024-09-07T10:03:15Z</time>
      </trkpt>
      <trkpt lat="48.14777" lon="-3.60282">
        <ele>131</ele>
        <time>2024-09-07T10:03:16Z</time>
      </trkpt>
      <trkpt lat="48.14783" lon="-3.60283">
        <ele>130.8</ele>
        <time>2024-09-07T10:03:17Z</time>
      </trkpt>
      <trkpt lat="48.1479" lon="-3.60282">
        <ele>130.8</ele>
        <time>2024-09-07T10:03:18Z</time>
      </trkpt>
      <trkpt lat="48.14796" lon="-3.60282">
        <ele>130.8</ele>
        <time>2024-09-07T10:03:19Z</time>
      </trkpt>
      <trkpt lat="48.14802" lon="-3.60281">
        <ele>130.4</ele>
        <time>2024-09-07T10:03:20Z</time>
      </trkpt>
      <trkpt lat="48.1481" lon="-3.60279">
        <ele>130.4</ele>
        <time>2024-09-07T10:03:21Z</time>
      </trkpt>
      <trkpt lat="48.14817" lon="-3.60279">
        <ele>130.4</ele>
        <time>2024-09-07T10:03:22Z</time>
      </trkpt>
      <trkpt lat="48.14824" lon="-3.60279">
        <ele>130.2</ele>
        <time>2024-09-07T10:03:23Z</time>
      </trkpt>
      <trkpt lat="48.14831" lon="-3.60278">
        <ele>130.2</ele>
        <time>2024-09-07T10:03:24Z</time>
      </trkpt>
      <trkpt lat="48.14837" lon="-3.60277">
        <ele>130</ele>
        <time>2024-09-07T10:03:25Z</time>
      </trkpt>
      <trkpt lat="48.14844" lon="-3.60274">
        <ele>130</ele>
        <time>2024-09-07T10:03:26Z</time>
      </trkpt>
      <trkpt lat="48.14851" lon="-3.60271">
        <ele>130</ele>
        <time>2024-09-07T10:03:27Z</time>
      </trkpt>
      <trkpt lat="48.14859" lon="-3.60267">
        <ele>130</ele>
        <time>2024-09-07T10:03:28Z</time>
      </trkpt>
      <trkpt lat="48.14865" lon="-3.60264">
        <ele>130</ele>
        <time>2024-09-07T10:03:29Z</time>
      </trkpt>
      <trkpt lat="48.1487" lon="-3.60262">
        <ele>130</ele>
        <time>2024-09-07T10:03:30Z</time>
      </trkpt>
      <trkpt lat="48.14876" lon="-3.60258">
        <ele>129.8</ele>
        <time>2024-09-07T10:03:31Z</time>
      </trkpt>
      <trkpt lat="48.14883" lon="-3.60252">
        <ele>129.8</ele>
        <time>2024-09-07T10:03:32Z</time>
      </trkpt>
      <trkpt lat="48.1489" lon="-3.60246">
        <ele>129.8</ele>
        <time>2024-09-07T10:03:33Z</time>
      </trkpt>
      <trkpt lat="48.14896" lon="-3.60241">
        <ele>129.8</ele>
        <time>2024-09-07T10:03:34Z</time>
      </trkpt>
      <trkpt lat="48.149" lon="-3.60237">
        <ele>129.8</ele>
        <time>2024-09-07T10:03:35Z</time>
      </trkpt>
      <trkpt lat="48.14904" lon="-3.60233">
        <ele>129.8</ele>
        <time>2024-09-07T10:03:36Z</time>
      </trkpt>
      <trkpt lat="48.14909" lon="-3.6023">
        <ele>129.8</ele>
        <time>2024-09-07T10:03:37Z</time>
      </trkpt>
      <trkpt lat="48.14914" lon="-3.60226">
        <ele>129.8</ele>
        <time>2024-09-07T10:03:38Z</time>
      </trkpt>
      <trkpt lat="48.14919" lon="-3.60221">
        <ele>129.8</ele>
        <time>2024-09-07T10:03:39Z</time>
      </trkpt>
      <trkpt lat="48.14924" lon="-3.60217">
        <ele>129.8</ele>
        <time>2024-09-07T10:03:40Z</time>
      </trkpt>
      <trkpt lat="48.14927" lon="-3.60213">
        <ele>129.8</ele>
        <time>2024-09-07T10:03:41Z</time>
      </trkpt>
      <trkpt lat="48.14931" lon="-3.60209">
        <ele>129.8</ele>
        <time>2024-09-07T10:03:42Z</time>
      </trkpt>
      <trkpt lat="48.14935" lon="-3.60204">
        <ele>129.8</ele>
        <time>2024-09-07T10:03:43Z</time>
      </trkpt>
      <trkpt lat="48.1494" lon="-3.60198">
        <ele>130</ele>
        <time>2024-09-07T10:03:44Z</time>
      </trkpt>
      <trkpt lat="48.14944" lon="-3.60194">
        <ele>130</ele>
        <time>2024-09-07T10:03:45Z</time>
      </trkpt>
      <trkpt lat="48.14948" lon="-3.60188">
        <ele>130.2</ele>
        <time>2024-09-07T10:03:46Z</time>
      </trkpt>
      <trkpt lat="48.14952" lon="-3.60183">
        <ele>130.2</ele>
        <time>2024-09-07T10:03:47Z</time>
      </trkpt>
      <trkpt lat="48.14956" lon="-3.60177">
        <ele>130.4</ele>
        <time>2024-09-07T10:03:48Z</time>
      </trkpt>
      <trkpt lat="48.1496" lon="-3.60171">
        <ele>130.4</ele>
        <time>2024-09-07T10:03:49Z</time>
      </trkpt>
      <trkpt lat="48.14964" lon="-3.60166">
        <ele>130.6</ele>
        <time>2024-09-07T10:03:50Z</time>
      </trkpt>
      <trkpt lat="48.14968" lon="-3.6016">
        <ele>130.6</ele>
        <time>2024-09-07T10:03:51Z</time>
      </trkpt>
      <trkpt lat="48.14972" lon="-3.60155">
        <ele>130.8</ele>
        <time>2024-09-07T10:03:52Z</time>
      </trkpt>
      <trkpt lat="48.14976" lon="-3.60149">
        <ele>130.8</ele>
        <time>2024-09-07T10:03:53Z</time>
      </trkpt>
      <trkpt lat="48.14979" lon="-3.60144">
        <ele>131</ele>
        <time>2024-09-07T10:03:54Z</time>
      </trkpt>
      <trkpt lat="48.14983" lon="-3.60138">
        <ele>131</ele>
        <time>2024-09-07T10:03:55Z</time>
      </trkpt>
      <trkpt lat="48.14987" lon="-3.60133">
        <ele>131.2</ele>
        <time>2024-09-07T10:03:56Z</time>
      </trkpt>
      <trkpt lat="48.14991" lon="-3.60128">
        <ele>131.4</ele>
        <time>2024-09-07T10:03:57Z</time>
      </trkpt>
      <trkpt lat="48.14995" lon="-3.60123">
        <ele>131.4</ele>
        <time>2024-09-07T10:03:58Z</time>
      </trkpt>
      <trkpt lat="48.14999" lon="-3.60117">
        <ele>131.6</ele>
        <time>2024-09-07T10:03:59Z</time>
      </trkpt>
      <trkpt lat="48.15002" lon="-3.60111">
        <ele>131.6</ele>
        <time>2024-09-07T10:04:00Z</time>
      </trkpt>
      <trkpt lat="48.15005" lon="-3.60106">
        <ele>131.8</ele>
        <time>2024-09-07T10:04:01Z</time>
      </trkpt>
      <trkpt lat="48.15009" lon="-3.60102">
        <ele>131.8</ele>
        <time>2024-09-07T10:04:02Z</time>
      </trkpt>
      <trkpt lat="48.15012" lon="-3.60097">
        <ele>131.8</ele>
        <time>2024-09-07T10:04:03Z</time>
      </trkpt>
      <trkpt lat="48.15015" lon="-3.60093">
        <ele>132</ele>
        <time>2024-09-07T10:04:04Z</time>
      </trkpt>
      <trkpt lat="48.15018" lon="-3.60089">
        <ele>132</ele>
        <time>2024-09-07T10:04:05Z</time>
      </trkpt>
      <trkpt lat="48.1502" lon="-3.60085">
        <ele>132.2</ele>
        <time>2024-09-07T10:04:06Z</time>
      </trkpt>
      <trkpt lat="48.15023" lon="-3.60082">
        <ele>132.2</ele>
        <time>2024-09-07T10:04:07Z</time>
      </trkpt>
      <trkpt lat="48.15025" lon="-3.6008">
        <ele>132.4</ele>
        <time>2024-09-07T10:04:08Z</time>
      </trkpt>
      <trkpt lat="48.15027" lon="-3.60078">
        <ele>132.4</ele>
        <time>2024-09-07T10:04:09Z</time>
      </trkpt>
      <trkpt lat="48.15029" lon="-3.60075">
        <ele>132.6</ele>
        <time>2024-09-07T10:04:10Z</time>
      </trkpt>
      <trkpt lat="48.1503" lon="-3.60071">
        <ele>132.8</ele>
        <time>2024-09-07T10:04:11Z</time>
      </trkpt>
      <trkpt lat="48.15031" lon="-3.60067">
        <ele>132.8</ele>
        <time>2024-09-07T10:04:12Z</time>
      </trkpt>
      <trkpt lat="48.15034" lon="-3.60063">
        <ele>133</ele>
        <time>2024-09-07T10:04:13Z</time>
      </trkpt>
      <trkpt lat="48.15037" lon="-3.6006">
        <ele>133</ele>
        <time>2024-09-07T10:04:14Z</time>
      </trkpt>
      <trkpt lat="48.15039" lon="-3.60057">
        <ele>133.2</ele>
        <time>2024-09-07T10:04:15Z</time>
      </trkpt>
      <trkpt lat="48.15042" lon="-3.60053">
        <ele>133.2</ele>
        <time>2024-09-07T10:04:16Z</time>
      </trkpt>
      <trkpt lat="48.15044" lon="-3.60049">
        <ele>133.2</ele>
        <time>2024-09-07T10:04:17Z</time>
      </trkpt>
      <trkpt lat="48.15047" lon="-3.60045">
        <ele>133.2</ele>
        <time>2024-09-07T10:04:18Z</time>
      </trkpt>
      <trkpt lat="48.1505" lon="-3.6004">
        <ele>133.2</ele>
        <time>2024-09-07T10:04:19Z</time>
      </trkpt>
      <trkpt lat="48.15053" lon="-3.60036">
        <ele>133.4</ele>
        <time>2024-09-07T10:04:20Z</time>
      </trkpt>
      <trkpt lat="48.15056" lon="-3.60032">
        <ele>133.4</ele>
        <time>2024-09-07T10:04:21Z</time>
      </trkpt>
      <trkpt lat="48.15059" lon="-3.60028">
        <ele>133.4</ele>
        <time>2024-09-07T10:04:22Z</time>
      </trkpt>
      <trkpt lat="48.15062" lon="-3.60023">
        <ele>133.4</ele>
        <time>2024-09-07T10:04:23Z</time>
      </trkpt>
      <trkpt lat="48.15065" lon="-3.60019">
        <ele>133.4</ele>
        <time>2024-09-07T10:04:24Z</time>
      </trkpt>
      <trkpt lat="48.15068" lon="-3.60015">
        <ele>133.6</ele>
        <time>2024-09-07T10:04:25Z</time>
      </trkpt>
      <trkpt lat="48.15071" lon="-3.60011">
        <ele>133.6</ele>
        <time>2024-09-07T10:04:26Z</time>
      </trkpt>
      <trkpt lat="48.15073" lon="-3.60007">
        <ele>133.6</ele>
        <time>2024-09-07T10:04:27Z</time>
      </trkpt>
      <trkpt lat="48.15075" lon="-3.60005">
        <ele>133.6</ele>
        <time>2024-09-07T10:04:28Z</time>
      </trkpt>
      <trkpt lat="48.15077" lon="-3.60002">
        <ele>133.8</ele>
        <time>2024-09-07T10:04:29Z</time>
      </trkpt>
      <trkpt lat="48.15078" lon="-3.60001">
        <ele>133.8</ele>
        <time>2024-09-07T10:04:30Z</time>
      </trkpt>
      <trkpt lat="48.15079" lon="-3.59999">
        <ele>133.8</ele>
        <time>2024-09-07T10:04:31Z</time>
      </trkpt>
      <trkpt lat="48.15079" lon="-3.59997">
        <ele>133.8</ele>
        <time>2024-09-07T10:04:32Z</time>
      </trkpt>
      <trkpt lat="48.1508" lon="-3.59995">
        <ele>134</ele>
        <time>2024-09-07T10:04:33Z</time>
      </trkpt>
      <trkpt lat="48.15081" lon="-3.59995">
        <ele>134</ele>
        <time>2024-09-07T10:04:34Z</time>
      </trkpt>
      <trkpt lat="48.15081" lon="-3.59995">
        <ele>134.2</ele>
        <time>2024-09-07T10:04:35Z</time>
      </trkpt>
      <trkpt lat="48.15085" lon="-3.59991">
        <ele>134.6</ele>
        <time>2024-09-07T10:04:47Z</time>
      </trkpt>
      <trkpt lat="48.15087" lon="-3.59989">
        <ele>134.8</ele>
        <time>2024-09-07T10:04:48Z</time>
      </trkpt>
      <trkpt lat="48.15089" lon="-3.59986">
        <ele>134.8</ele>
        <time>2024-09-07T10:04:49Z</time>
      </trkpt>
      <trkpt lat="48.15091" lon="-3.59983">
        <ele>134.8</ele>
        <time>2024-09-07T10:04:50Z</time>
      </trkpt>
      <trkpt lat="48.15093" lon="-3.59979">
        <ele>134.8</ele>
        <time>2024-09-07T10:04:51Z</time>
      </trkpt>
      <trkpt lat="48.15096" lon="-3.59976">
        <ele>134.8</ele>
        <time>2024-09-07T10:04:52Z</time>
      </trkpt>
      <trkpt lat="48.15099" lon="-3.59972">
        <ele>134.8</ele>
        <time>2024-09-07T10:04:53Z</time>
      </trkpt>
      <trkpt lat="48.15102" lon="-3.59968">
        <ele>134.8</ele>
        <time>2024-09-07T10:04:54Z</time>
      </trkpt>
      <trkpt lat="48.15105" lon="-3.59963">
        <ele>134.8</ele>
        <time>2024-09-07T10:04:55Z</time>
      </trkpt>
      <trkpt lat="48.15108" lon="-3.59959">
        <ele>134.8</ele>
        <time>2024-09-07T10:04:56Z</time>
      </trkpt>
      <trkpt lat="48.15111" lon="-3.59954">
        <ele>134.8</ele>
        <time>2024-09-07T10:04:57Z</time>
      </trkpt>
      <trkpt lat="48.15114" lon="-3.59948">
        <ele>134.8</ele>
        <time>2024-09-07T10:04:58Z</time>
      </trkpt>
      <trkpt lat="48.15117" lon="-3.59943">
        <ele>134.8</ele>
        <time>2024-09-07T10:04:59Z</time>
      </trkpt>
      <trkpt lat="48.1512" lon="-3.59938">
        <ele>134.8</ele>
        <time>2024-09-07T10:05:00Z</time>
      </trkpt>
      <trkpt lat="48.15124" lon="-3.59933">
        <ele>134.8</ele>
        <time>2024-09-07T10:05:01Z</time>
      </trkpt>
      <trkpt lat="48.15127" lon="-3.59927">
        <ele>134.8</ele>
        <time>2024-09-07T10:05:02Z</time>
      </trkpt>
      <trkpt lat="48.1513" lon="-3.59921">
        <ele>134.8</ele>
        <time>2024-09-07T10:05:03Z</time>
      </trkpt>
      <trkpt lat="48.15132" lon="-3.59915">
        <ele>135</ele>
        <time>2024-09-07T10:05:04Z</time>
      </trkpt>
      <trkpt lat="48.15135" lon="-3.59909">
        <ele>135</ele>
        <time>2024-09-07T10:05:05Z</time>
      </trkpt>
      <trkpt lat="48.15138" lon="-3.59902">
        <ele>135</ele>
        <time>2024-09-07T10:05:06Z</time>
      </trkpt>
      <trkpt lat="48.15141" lon="-3.59896">
        <ele>135.2</ele>
        <time>2024-09-07T10:05:07Z</time>
      </trkpt>
      <trkpt lat="48.15144" lon="-3.5989">
        <ele>135.2</ele>
        <time>2024-09-07T10:05:08Z</time>
      </trkpt>
      <trkpt lat="48.15147" lon="-3.59884">
        <ele>135.2</ele>
        <time>2024-09-07T10:05:09Z</time>
      </trkpt>
      <trkpt lat="48.1515" lon="-3.59877">
        <ele>135.2</ele>
        <time>2024-09-07T10:05:10Z</time>
      </trkpt>
      <trkpt lat="48.15153" lon="-3.5987">
        <ele>135.4</ele>
        <time>2024-09-07T10:05:11Z</time>
      </trkpt>
      <trkpt lat="48.15156" lon="-3.59863">
        <ele>135.4</ele>
        <time>2024-09-07T10:05:12Z</time>
      </trkpt>
      <trkpt lat="48.15159" lon="-3.59856">
        <ele>135.6</ele>
        <time>2024-09-07T10:05:13Z</time>
      </trkpt>
      <trkpt lat="48.15162" lon="-3.59849">
        <ele>135.6</ele>
        <time>2024-09-07T10:05:14Z</time>
      </trkpt>
      <trkpt lat="48.15165" lon="-3.59841">
        <ele>135.4</ele>
        <time>2024-09-07T10:05:15Z</time>
      </trkpt>
      <trkpt lat="48.15168" lon="-3.59834">
        <ele>135.6</ele>
        <time>2024-09-07T10:05:16Z</time>
      </trkpt>
      <trkpt lat="48.15171" lon="-3.59826">
        <ele>135.8</ele>
        <time>2024-09-07T10:05:17Z</time>
      </trkpt>
      <trkpt lat="48.15175" lon="-3.59818">
        <ele>135.6</ele>
        <time>2024-09-07T10:05:18Z</time>
      </trkpt>
      <trkpt lat="48.15178" lon="-3.59811">
        <ele>135.6</ele>
        <time>2024-09-07T10:05:19Z</time>
      </trkpt>
      <trkpt lat="48.1518" lon="-3.59803">
        <ele>135.8</ele>
        <time>2024-09-07T10:05:20Z</time>
      </trkpt>
      <trkpt lat="48.15183" lon="-3.59796">
        <ele>135.8</ele>
        <time>2024-09-07T10:05:21Z</time>
      </trkpt>
      <trkpt lat="48.15186" lon="-3.59788">
        <ele>135.6</ele>
        <time>2024-09-07T10:05:22Z</time>
      </trkpt>
      <trkpt lat="48.15189" lon="-3.59781">
        <ele>135.6</ele>
        <time>2024-09-07T10:05:23Z</time>
      </trkpt>
      <trkpt lat="48.15192" lon="-3.59774">
        <ele>135.8</ele>
        <time>2024-09-07T10:05:24Z</time>
      </trkpt>
      <trkpt lat="48.15195" lon="-3.59767">
        <ele>136</ele>
        <time>2024-09-07T10:05:25Z</time>
      </trkpt>
      <trkpt lat="48.15197" lon="-3.5976">
        <ele>136</ele>
        <time>2024-09-07T10:05:26Z</time>
      </trkpt>
      <trkpt lat="48.152" lon="-3.59753">
        <ele>136.2</ele>
        <time>2024-09-07T10:05:27Z</time>
      </trkpt>
      <trkpt lat="48.15203" lon="-3.59746">
        <ele>136.2</ele>
        <time>2024-09-07T10:05:28Z</time>
      </trkpt>
      <trkpt lat="48.15205" lon="-3.59738">
        <ele>136.2</ele>
        <time>2024-09-07T10:05:29Z</time>
      </trkpt>
      <trkpt lat="48.15208" lon="-3.59731">
        <ele>136.2</ele>
        <time>2024-09-07T10:05:30Z</time>
      </trkpt>
      <trkpt lat="48.15211" lon="-3.59724">
        <ele>136.2</ele>
        <time>2024-09-07T10:05:31Z</time>
      </trkpt>
      <trkpt lat="48.15213" lon="-3.59717">
        <ele>136.2</ele>
        <time>2024-09-07T10:05:32Z</time>
      </trkpt>
      <trkpt lat="48.15216" lon="-3.5971">
        <ele>136.2</ele>
        <time>2024-09-07T10:05:33Z</time>
      </trkpt>
      <trkpt lat="48.15219" lon="-3.59703">
        <ele>136.4</ele>
        <time>2024-09-07T10:05:34Z</time>
      </trkpt>
      <trkpt lat="48.15222" lon="-3.59696">
        <ele>136.4</ele>
        <time>2024-09-07T10:05:35Z</time>
      </trkpt>
      <trkpt lat="48.15224" lon="-3.59688">
        <ele>136.4</ele>
        <time>2024-09-07T10:05:36Z</time>
      </trkpt>
      <trkpt lat="48.15227" lon="-3.5968">
        <ele>136.4</ele>
        <time>2024-09-07T10:05:37Z</time>
      </trkpt>
      <trkpt lat="48.15231" lon="-3.59673">
        <ele>136.4</ele>
        <time>2024-09-07T10:05:38Z</time>
      </trkpt>
      <trkpt lat="48.15233" lon="-3.59665">
        <ele>136.4</ele>
        <time>2024-09-07T10:05:39Z</time>
      </trkpt>
      <trkpt lat="48.15236" lon="-3.59658">
        <ele>136.4</ele>
        <time>2024-09-07T10:05:40Z</time>
      </trkpt>
      <trkpt lat="48.15238" lon="-3.59651">
        <ele>136.4</ele>
        <time>2024-09-07T10:05:41Z</time>
      </trkpt>
      <trkpt lat="48.15241" lon="-3.59644">
        <ele>136.4</ele>
        <time>2024-09-07T10:05:42Z</time>
      </trkpt>
      <trkpt lat="48.15243" lon="-3.59637">
        <ele>136.2</ele>
        <time>2024-09-07T10:05:43Z</time>
      </trkpt>
      <trkpt lat="48.15246" lon="-3.5963">
        <ele>136.2</ele>
        <time>2024-09-07T10:05:44Z</time>
      </trkpt>
      <trkpt lat="48.15248" lon="-3.59623">
        <ele>136.2</ele>
        <time>2024-09-07T10:05:45Z</time>
      </trkpt>
      <trkpt lat="48.15251" lon="-3.59616">
        <ele>136.2</ele>
        <time>2024-09-07T10:05:46Z</time>
      </trkpt>
      <trkpt lat="48.15253" lon="-3.59609">
        <ele>136.2</ele>
        <time>2024-09-07T10:05:47Z</time>
      </trkpt>
      <trkpt lat="48.15256" lon="-3.59602">
        <ele>136.2</ele>
        <time>2024-09-07T10:05:48Z</time>
      </trkpt>
      <trkpt lat="48.15258" lon="-3.59596">
        <ele>136.2</ele>
        <time>2024-09-07T10:05:49Z</time>
      </trkpt>
      <trkpt lat="48.1526" lon="-3.59589">
        <ele>136.2</ele>
        <time>2024-09-07T10:05:50Z</time>
      </trkpt>
      <trkpt lat="48.15262" lon="-3.59584">
        <ele>136.2</ele>
        <time>2024-09-07T10:05:51Z</time>
      </trkpt>
      <trkpt lat="48.15264" lon="-3.59579">
        <ele>136.2</ele>
        <time>2024-09-07T10:05:52Z</time>
      </trkpt>
      <trkpt lat="48.15265" lon="-3.59575">
        <ele>136.2</ele>
        <time>2024-09-07T10:05:53Z</time>
      </trkpt>
      <trkpt lat="48.15266" lon="-3.59571">
        <ele>136.2</ele>
        <time>2024-09-07T10:05:54Z</time>
      </trkpt>
      <trkpt lat="48.15267" lon="-3.59567">
        <ele>136.4</ele>
        <time>2024-09-07T10:05:55Z</time>
      </trkpt>
      <trkpt lat="48.15268" lon="-3.59563">
        <ele>136.4</ele>
        <time>2024-09-07T10:05:56Z</time>
      </trkpt>
      <trkpt lat="48.15269" lon="-3.59559">
        <ele>136.4</ele>
        <time>2024-09-07T10:05:57Z</time>
      </trkpt>
      <trkpt lat="48.15269" lon="-3.59556">
        <ele>136.6</ele>
        <time>2024-09-07T10:05:58Z</time>
      </trkpt>
      <trkpt lat="48.1527" lon="-3.59554">
        <ele>136.6</ele>
        <time>2024-09-07T10:05:59Z</time>
      </trkpt>
      <trkpt lat="48.1527" lon="-3.59551">
        <ele>136.6</ele>
        <time>2024-09-07T10:06:00Z</time>
      </trkpt>
      <trkpt lat="48.15271" lon="-3.59548">
        <ele>136.6</ele>
        <time>2024-09-07T10:06:01Z</time>
      </trkpt>
      <trkpt lat="48.15271" lon="-3.59545">
        <ele>136.8</ele>
        <time>2024-09-07T10:06:02Z</time>
      </trkpt>
      <trkpt lat="48.15272" lon="-3.59542">
        <ele>136.8</ele>
        <time>2024-09-07T10:06:03Z</time>
      </trkpt>
      <trkpt lat="48.15272" lon="-3.59539">
        <ele>136.8</ele>
        <time>2024-09-07T10:06:04Z</time>
      </trkpt>
      <trkpt lat="48.15274" lon="-3.59535">
        <ele>136.8</ele>
        <time>2024-09-07T10:06:05Z</time>
      </trkpt>
      <trkpt lat="48.15276" lon="-3.59531">
        <ele>136.8</ele>
        <time>2024-09-07T10:06:06Z</time>
      </trkpt>
      <trkpt lat="48.15278" lon="-3.59527">
        <ele>136.8</ele>
        <time>2024-09-07T10:06:07Z</time>
      </trkpt>
      <trkpt lat="48.1528" lon="-3.59521">
        <ele>136.8</ele>
        <time>2024-09-07T10:06:08Z</time>
      </trkpt>
      <trkpt lat="48.15283" lon="-3.59515">
        <ele>136.8</ele>
        <time>2024-09-07T10:06:09Z</time>
      </trkpt>
      <trkpt lat="48.15285" lon="-3.59508">
        <ele>136.8</ele>
        <time>2024-09-07T10:06:10Z</time>
      </trkpt>
      <trkpt lat="48.15288" lon="-3.595">
        <ele>136.8</ele>
        <time>2024-09-07T10:06:11Z</time>
      </trkpt>
      <trkpt lat="48.15291" lon="-3.59493">
        <ele>136.8</ele>
        <time>2024-09-07T10:06:12Z</time>
      </trkpt>
      <trkpt lat="48.15293" lon="-3.59485">
        <ele>136.6</ele>
        <time>2024-09-07T10:06:13Z</time>
      </trkpt>
      <trkpt lat="48.15296" lon="-3.59478">
        <ele>136.6</ele>
        <time>2024-09-07T10:06:14Z</time>
      </trkpt>
      <trkpt lat="48.15298" lon="-3.59471">
        <ele>136.6</ele>
        <time>2024-09-07T10:06:15Z</time>
      </trkpt>
      <trkpt lat="48.15301" lon="-3.59465">
        <ele>136.6</ele>
        <time>2024-09-07T10:06:16Z</time>
      </trkpt>
      <trkpt lat="48.15303" lon="-3.59458">
        <ele>136.6</ele>
        <time>2024-09-07T10:06:17Z</time>
      </trkpt>
      <trkpt lat="48.15306" lon="-3.59452">
        <ele>136.6</ele>
        <time>2024-09-07T10:06:18Z</time>
      </trkpt>
      <trkpt lat="48.15308" lon="-3.59446">
        <ele>136.6</ele>
        <time>2024-09-07T10:06:19Z</time>
      </trkpt>
      <trkpt lat="48.15311" lon="-3.5944">
        <ele>136.6</ele>
        <time>2024-09-07T10:06:20Z</time>
      </trkpt>
      <trkpt lat="48.15314" lon="-3.59434">
        <ele>136.6</ele>
        <time>2024-09-07T10:06:21Z</time>
      </trkpt>
      <trkpt lat="48.15317" lon="-3.59429">
        <ele>136.6</ele>
        <time>2024-09-07T10:06:22Z</time>
      </trkpt>
      <trkpt lat="48.1532" lon="-3.59423">
        <ele>136.6</ele>
        <time>2024-09-07T10:06:23Z</time>
      </trkpt>
      <trkpt lat="48.15323" lon="-3.59418">
        <ele>136.6</ele>
        <time>2024-09-07T10:06:24Z</time>
      </trkpt>
      <trkpt lat="48.15327" lon="-3.59413">
        <ele>136.6</ele>
        <time>2024-09-07T10:06:25Z</time>
      </trkpt>
      <trkpt lat="48.1533" lon="-3.59408">
        <ele>136.6</ele>
        <time>2024-09-07T10:06:26Z</time>
      </trkpt>
      <trkpt lat="48.15333" lon="-3.59403">
        <ele>136.6</ele>
        <time>2024-09-07T10:06:27Z</time>
      </trkpt>
      <trkpt lat="48.15337" lon="-3.59399">
        <ele>136.6</ele>
        <time>2024-09-07T10:06:28Z</time>
      </trkpt>
      <trkpt lat="48.1534" lon="-3.59394">
        <ele>136.6</ele>
        <time>2024-09-07T10:06:29Z</time>
      </trkpt>
      <trkpt lat="48.15344" lon="-3.59391">
        <ele>136.6</ele>
        <time>2024-09-07T10:06:30Z</time>
      </trkpt>
      <trkpt lat="48.15347" lon="-3.59387">
        <ele>136.8</ele>
        <time>2024-09-07T10:06:31Z</time>
      </trkpt>
      <trkpt lat="48.15351" lon="-3.59385">
        <ele>137</ele>
        <time>2024-09-07T10:06:32Z</time>
      </trkpt>
      <trkpt lat="48.15355" lon="-3.59382">
        <ele>137</ele>
        <time>2024-09-07T10:06:33Z</time>
      </trkpt>
      <trkpt lat="48.15359" lon="-3.5938">
        <ele>137.2</ele>
        <time>2024-09-07T10:06:34Z</time>
      </trkpt>
      <trkpt lat="48.15363" lon="-3.59378">
        <ele>137.2</ele>
        <time>2024-09-07T10:06:35Z</time>
      </trkpt>
      <trkpt lat="48.15366" lon="-3.59376">
        <ele>137.2</ele>
        <time>2024-09-07T10:06:36Z</time>
      </trkpt>
      <trkpt lat="48.1537" lon="-3.59374">
        <ele>137.4</ele>
        <time>2024-09-07T10:06:37Z</time>
      </trkpt>
      <trkpt lat="48.15373" lon="-3.59372">
        <ele>137.4</ele>
        <time>2024-09-07T10:06:38Z</time>
      </trkpt>
      <trkpt lat="48.15377" lon="-3.59371">
        <ele>137.4</ele>
        <time>2024-09-07T10:06:39Z</time>
      </trkpt>
      <trkpt lat="48.1538" lon="-3.5937">
        <ele>137.4</ele>
        <time>2024-09-07T10:06:40Z</time>
      </trkpt>
      <trkpt lat="48.15383" lon="-3.59368">
        <ele>137.6</ele>
        <time>2024-09-07T10:06:41Z</time>
      </trkpt>
      <trkpt lat="48.15386" lon="-3.59367">
        <ele>137.8</ele>
        <time>2024-09-07T10:06:42Z</time>
      </trkpt>
      <trkpt lat="48.15389" lon="-3.59365">
        <ele>138</ele>
        <time>2024-09-07T10:06:43Z</time>
      </trkpt>
      <trkpt lat="48.15392" lon="-3.59363">
        <ele>138.2</ele>
        <time>2024-09-07T10:06:44Z</time>
      </trkpt>
      <trkpt lat="48.15394" lon="-3.59362">
        <ele>138.2</ele>
        <time>2024-09-07T10:06:45Z</time>
      </trkpt>
      <trkpt lat="48.15397" lon="-3.59361">
        <ele>138.4</ele>
        <time>2024-09-07T10:06:46Z</time>
      </trkpt>
      <trkpt lat="48.15399" lon="-3.59361">
        <ele>138.6</ele>
        <time>2024-09-07T10:06:47Z</time>
      </trkpt>
      <trkpt lat="48.15402" lon="-3.59361">
        <ele>138.8</ele>
        <time>2024-09-07T10:06:48Z</time>
      </trkpt>
      <trkpt lat="48.15405" lon="-3.59361">
        <ele>138.8</ele>
        <time>2024-09-07T10:06:49Z</time>
      </trkpt>
      <trkpt lat="48.15408" lon="-3.59362">
        <ele>139</ele>
        <time>2024-09-07T10:06:50Z</time>
      </trkpt>
      <trkpt lat="48.15412" lon="-3.59364">
        <ele>139.2</ele>
        <time>2024-09-07T10:06:51Z</time>
      </trkpt>
      <trkpt lat="48.15415" lon="-3.59365">
        <ele>139.4</ele>
        <time>2024-09-07T10:06:52Z</time>
      </trkpt>
      <trkpt lat="48.15419" lon="-3.59365">
        <ele>139.8</ele>
        <time>2024-09-07T10:06:53Z</time>
      </trkpt>
      <trkpt lat="48.15422" lon="-3.59365">
        <ele>139.8</ele>
        <time>2024-09-07T10:06:54Z</time>
      </trkpt>
      <trkpt lat="48.15425" lon="-3.59366">
        <ele>140</ele>
        <time>2024-09-07T10:06:55Z</time>
      </trkpt>
      <trkpt lat="48.15428" lon="-3.59367">
        <ele>140.2</ele>
        <time>2024-09-07T10:06:56Z</time>
      </trkpt>
      <trkpt lat="48.15431" lon="-3.59367">
        <ele>140.4</ele>
        <time>2024-09-07T10:06:57Z</time>
      </trkpt>
      <trkpt lat="48.15434" lon="-3.59368">
        <ele>140.6</ele>
        <time>2024-09-07T10:06:58Z</time>
      </trkpt>
      <trkpt lat="48.15438" lon="-3.59368">
        <ele>140.6</ele>
        <time>2024-09-07T10:06:59Z</time>
      </trkpt>
      <trkpt lat="48.15441" lon="-3.59368">
        <ele>140.6</ele>
        <time>2024-09-07T10:07:00Z</time>
      </trkpt>
      <trkpt lat="48.15445" lon="-3.59367">
        <ele>141</ele>
        <time>2024-09-07T10:07:01Z</time>
      </trkpt>
      <trkpt lat="48.15448" lon="-3.59365">
        <ele>140.8</ele>
        <time>2024-09-07T10:07:02Z</time>
      </trkpt>
      <trkpt lat="48.15451" lon="-3.59362">
        <ele>141.2</ele>
        <time>2024-09-07T10:07:03Z</time>
      </trkpt>
      <trkpt lat="48.15453" lon="-3.59356">
        <ele>141.4</ele>
        <time>2024-09-07T10:07:04Z</time>
      </trkpt>
      <trkpt lat="48.15455" lon="-3.5935">
        <ele>141.4</ele>
        <time>2024-09-07T10:07:05Z</time>
      </trkpt>
      <trkpt lat="48.15455" lon="-3.59343">
        <ele>141.6</ele>
        <time>2024-09-07T10:07:06Z</time>
      </trkpt>
      <trkpt lat="48.15456" lon="-3.59337">
        <ele>141.8</ele>
        <time>2024-09-07T10:07:07Z</time>
      </trkpt>
      <trkpt lat="48.15455" lon="-3.5933">
        <ele>142</ele>
        <time>2024-09-07T10:07:08Z</time>
      </trkpt>
      <trkpt lat="48.15455" lon="-3.59323">
        <ele>142</ele>
        <time>2024-09-07T10:07:09Z</time>
      </trkpt>
      <trkpt lat="48.15454" lon="-3.59316">
        <ele>142</ele>
        <time>2024-09-07T10:07:10Z</time>
      </trkpt>
      <trkpt lat="48.15454" lon="-3.59308">
        <ele>142</ele>
        <time>2024-09-07T10:07:11Z</time>
      </trkpt>
      <trkpt lat="48.15453" lon="-3.593">
        <ele>142</ele>
        <time>2024-09-07T10:07:12Z</time>
      </trkpt>
      <trkpt lat="48.15452" lon="-3.59293">
        <ele>142</ele>
        <time>2024-09-07T10:07:13Z</time>
      </trkpt>
      <trkpt lat="48.15451" lon="-3.59285">
        <ele>142</ele>
        <time>2024-09-07T10:07:14Z</time>
      </trkpt>
      <trkpt lat="48.15451" lon="-3.59278">
        <ele>142</ele>
        <time>2024-09-07T10:07:15Z</time>
      </trkpt>
      <trkpt lat="48.15451" lon="-3.59272">
        <ele>142</ele>
        <time>2024-09-07T10:07:16Z</time>
      </trkpt>
      <trkpt lat="48.15452" lon="-3.59267">
        <ele>142</ele>
        <time>2024-09-07T10:07:17Z</time>
      </trkpt>
      <trkpt lat="48.15452" lon="-3.59262">
        <ele>141.6</ele>
        <time>2024-09-07T10:07:18Z</time>
      </trkpt>
      <trkpt lat="48.15453" lon="-3.59258">
        <ele>141.6</ele>
        <time>2024-09-07T10:07:19Z</time>
      </trkpt>
      <trkpt lat="48.15453" lon="-3.59255">
        <ele>141.4</ele>
        <time>2024-09-07T10:07:20Z</time>
      </trkpt>
      <trkpt lat="48.15455" lon="-3.59253">
        <ele>141.2</ele>
        <time>2024-09-07T10:07:21Z</time>
      </trkpt>
      <trkpt lat="48.15457" lon="-3.59251">
        <ele>140.8</ele>
        <time>2024-09-07T10:07:22Z</time>
      </trkpt>
      <trkpt lat="48.15459" lon="-3.59251">
        <ele>140.2</ele>
        <time>2024-09-07T10:07:23Z</time>
      </trkpt>
      <trkpt lat="48.15461" lon="-3.59252">
        <ele>140.2</ele>
        <time>2024-09-07T10:07:24Z</time>
      </trkpt>
      <trkpt lat="48.15462" lon="-3.59254">
        <ele>140.2</ele>
        <time>2024-09-07T10:07:25Z</time>
      </trkpt>
      <trkpt lat="48.15464" lon="-3.59255">
        <ele>140.2</ele>
        <time>2024-09-07T10:07:26Z</time>
      </trkpt>
      <trkpt lat="48.15465" lon="-3.59256">
        <ele>140</ele>
        <time>2024-09-07T10:07:27Z</time>
      </trkpt>
      <trkpt lat="48.15466" lon="-3.59257">
        <ele>140</ele>
        <time>2024-09-07T10:07:28Z</time>
      </trkpt>
      <trkpt lat="48.15467" lon="-3.59259">
        <ele>140</ele>
        <time>2024-09-07T10:07:29Z</time>
      </trkpt>
      <trkpt lat="48.15468" lon="-3.5926">
        <ele>140</ele>
        <time>2024-09-07T10:07:30Z</time>
      </trkpt>
      <trkpt lat="48.15469" lon="-3.59261">
        <ele>140</ele>
        <time>2024-09-07T10:07:31Z</time>
      </trkpt>
      <trkpt lat="48.1547" lon="-3.59263">
        <ele>140</ele>
        <time>2024-09-07T10:07:32Z</time>
      </trkpt>
      <trkpt lat="48.15471" lon="-3.59264">
        <ele>140.2</ele>
        <time>2024-09-07T10:07:33Z</time>
      </trkpt>
      <trkpt lat="48.15472" lon="-3.59265">
        <ele>140.4</ele>
        <time>2024-09-07T10:07:34Z</time>
      </trkpt>
      <trkpt lat="48.15483" lon="-3.59278">
        <ele>140.6</ele>
        <time>2024-09-07T10:07:35Z</time>
      </trkpt>
      <trkpt lat="48.15483" lon="-3.59283">
        <ele>140.8</ele>
        <time>2024-09-07T10:07:36Z</time>
      </trkpt>
      <trkpt lat="48.15483" lon="-3.59288">
        <ele>141</ele>
        <time>2024-09-07T10:07:37Z</time>
      </trkpt>
      <trkpt lat="48.15483" lon="-3.59292">
        <ele>141.2</ele>
        <time>2024-09-07T10:07:38Z</time>
      </trkpt>
      <trkpt lat="48.15483" lon="-3.59298">
        <ele>141.2</ele>
        <time>2024-09-07T10:07:39Z</time>
      </trkpt>
      <trkpt lat="48.15484" lon="-3.59303">
        <ele>141.2</ele>
        <time>2024-09-07T10:07:40Z</time>
      </trkpt>
      <trkpt lat="48.15485" lon="-3.59308">
        <ele>141.4</ele>
        <time>2024-09-07T10:07:41Z</time>
      </trkpt>
      <trkpt lat="48.15486" lon="-3.59312">
        <ele>141.4</ele>
        <time>2024-09-07T10:07:42Z</time>
      </trkpt>
      <trkpt lat="48.15488" lon="-3.59317">
        <ele>141.6</ele>
        <time>2024-09-07T10:07:43Z</time>
      </trkpt>
      <trkpt lat="48.1549" lon="-3.59321">
        <ele>141.8</ele>
        <time>2024-09-07T10:07:44Z</time>
      </trkpt>
      <trkpt lat="48.15492" lon="-3.59325">
        <ele>141.8</ele>
        <time>2024-09-07T10:07:45Z</time>
      </trkpt>
      <trkpt lat="48.15495" lon="-3.59328">
        <ele>142</ele>
        <time>2024-09-07T10:07:46Z</time>
      </trkpt>
      <trkpt lat="48.15499" lon="-3.5933">
        <ele>142.2</ele>
        <time>2024-09-07T10:07:47Z</time>
      </trkpt>
      <trkpt lat="48.15502" lon="-3.59332">
        <ele>142.4</ele>
        <time>2024-09-07T10:07:48Z</time>
      </trkpt>
      <trkpt lat="48.15505" lon="-3.59331">
        <ele>142.8</ele>
        <time>2024-09-07T10:07:49Z</time>
      </trkpt>
      <trkpt lat="48.15508" lon="-3.5933">
        <ele>143</ele>
        <time>2024-09-07T10:07:50Z</time>
      </trkpt>
      <trkpt lat="48.15511" lon="-3.59328">
        <ele>143.2</ele>
        <time>2024-09-07T10:07:51Z</time>
      </trkpt>
      <trkpt lat="48.15514" lon="-3.59326">
        <ele>143.4</ele>
        <time>2024-09-07T10:07:52Z</time>
      </trkpt>
      <trkpt lat="48.15516" lon="-3.59324">
        <ele>143.6</ele>
        <time>2024-09-07T10:07:53Z</time>
      </trkpt>
      <trkpt lat="48.15518" lon="-3.59322">
        <ele>143.8</ele>
        <time>2024-09-07T10:07:54Z</time>
      </trkpt>
      <trkpt lat="48.1552" lon="-3.5932">
        <ele>144</ele>
        <time>2024-09-07T10:07:55Z</time>
      </trkpt>
      <trkpt lat="48.15522" lon="-3.59321">
        <ele>144</ele>
        <time>2024-09-07T10:07:56Z</time>
      </trkpt>
      <trkpt lat="48.15523" lon="-3.59322">
        <ele>144.2</ele>
        <time>2024-09-07T10:07:57Z</time>
      </trkpt>
      <trkpt lat="48.15524" lon="-3.59324">
        <ele>144.2</ele>
        <time>2024-09-07T10:07:58Z</time>
      </trkpt>
      <trkpt lat="48.15525" lon="-3.59325">
        <ele>144.2</ele>
        <time>2024-09-07T10:07:59Z</time>
      </trkpt>
      <trkpt lat="48.15525" lon="-3.59327">
        <ele>144.2</ele>
        <time>2024-09-07T10:08:00Z</time>
      </trkpt>
      <trkpt lat="48.15526" lon="-3.59329">
        <ele>144.2</ele>
        <time>2024-09-07T10:08:01Z</time>
      </trkpt>
      <trkpt lat="48.15527" lon="-3.5933">
        <ele>144.2</ele>
        <time>2024-09-07T10:08:02Z</time>
      </trkpt>
      <trkpt lat="48.15528" lon="-3.59332">
        <ele>144.2</ele>
        <time>2024-09-07T10:08:03Z</time>
      </trkpt>
      <trkpt lat="48.15529" lon="-3.59333">
        <ele>144.2</ele>
        <time>2024-09-07T10:08:04Z</time>
      </trkpt>
      <trkpt lat="48.15529" lon="-3.59335">
        <ele>144.2</ele>
        <time>2024-09-07T10:08:05Z</time>
      </trkpt>
      <trkpt lat="48.1553" lon="-3.59336">
        <ele>144.2</ele>
        <time>2024-09-07T10:08:06Z</time>
      </trkpt>
      <trkpt lat="48.15531" lon="-3.59338">
        <ele>144.2</ele>
        <time>2024-09-07T10:08:07Z</time>
      </trkpt>
      <trkpt lat="48.1554" lon="-3.59357">
        <ele>144.2</ele>
        <time>2024-09-07T10:08:08Z</time>
      </trkpt>
      <trkpt lat="48.1554" lon="-3.5936">
        <ele>144.2</ele>
        <time>2024-09-07T10:08:09Z</time>
      </trkpt>
      <trkpt lat="48.1554" lon="-3.59363">
        <ele>144.4</ele>
        <time>2024-09-07T10:08:10Z</time>
      </trkpt>
      <trkpt lat="48.15541" lon="-3.59366">
        <ele>144.4</ele>
        <time>2024-09-07T10:08:11Z</time>
      </trkpt>
      <trkpt lat="48.15542" lon="-3.5937">
        <ele>144.4</ele>
        <time>2024-09-07T10:08:12Z</time>
      </trkpt>
      <trkpt lat="48.15543" lon="-3.59374">
        <ele>144.6</ele>
        <time>2024-09-07T10:08:13Z</time>
      </trkpt>
      <trkpt lat="48.15546" lon="-3.59376">
        <ele>144.8</ele>
        <time>2024-09-07T10:08:14Z</time>
      </trkpt>
      <trkpt lat="48.15548" lon="-3.59379">
        <ele>145</ele>
        <time>2024-09-07T10:08:15Z</time>
      </trkpt>
      <trkpt lat="48.15552" lon="-3.5938">
        <ele>145</ele>
        <time>2024-09-07T10:08:16Z</time>
      </trkpt>
      <trkpt lat="48.15555" lon="-3.59381">
        <ele>145.2</ele>
        <time>2024-09-07T10:08:17Z</time>
      </trkpt>
      <trkpt lat="48.15559" lon="-3.59381">
        <ele>145.4</ele>
        <time>2024-09-07T10:08:18Z</time>
      </trkpt>
      <trkpt lat="48.15562" lon="-3.59381">
        <ele>145.4</ele>
        <time>2024-09-07T10:08:19Z</time>
      </trkpt>
      <trkpt lat="48.15566" lon="-3.59381">
        <ele>145.6</ele>
        <time>2024-09-07T10:08:20Z</time>
      </trkpt>
      <trkpt lat="48.1557" lon="-3.59381">
        <ele>145.8</ele>
        <time>2024-09-07T10:08:21Z</time>
      </trkpt>
      <trkpt lat="48.15573" lon="-3.59381">
        <ele>146.2</ele>
        <time>2024-09-07T10:08:22Z</time>
      </trkpt>
      <trkpt lat="48.15577" lon="-3.59381">
        <ele>146.4</ele>
        <time>2024-09-07T10:08:23Z</time>
      </trkpt>
      <trkpt lat="48.15581" lon="-3.5938">
        <ele>146.8</ele>
        <time>2024-09-07T10:08:24Z</time>
      </trkpt>
      <trkpt lat="48.15585" lon="-3.59379">
        <ele>147</ele>
        <time>2024-09-07T10:08:25Z</time>
      </trkpt>
      <trkpt lat="48.15589" lon="-3.59379">
        <ele>147.2</ele>
        <time>2024-09-07T10:08:26Z</time>
      </trkpt>
      <trkpt lat="48.15592" lon="-3.59379">
        <ele>147.4</ele>
        <time>2024-09-07T10:08:27Z</time>
      </trkpt>
      <trkpt lat="48.15596" lon="-3.59378">
        <ele>147.6</ele>
        <time>2024-09-07T10:08:28Z</time>
      </trkpt>
      <trkpt lat="48.156" lon="-3.59378">
        <ele>147.8</ele>
        <time>2024-09-07T10:08:29Z</time>
      </trkpt>
      <trkpt lat="48.15604" lon="-3.59377">
        <ele>148</ele>
        <time>2024-09-07T10:08:30Z</time>
      </trkpt>
      <trkpt lat="48.15607" lon="-3.59375">
        <ele>148.2</ele>
        <time>2024-09-07T10:08:31Z</time>
      </trkpt>
      <trkpt lat="48.15611" lon="-3.59373">
        <ele>148.2</ele>
        <time>2024-09-07T10:08:32Z</time>
      </trkpt>
      <trkpt lat="48.15615" lon="-3.59371">
        <ele>148.4</ele>
        <time>2024-09-07T10:08:33Z</time>
      </trkpt>
      <trkpt lat="48.15618" lon="-3.59368">
        <ele>148.4</ele>
        <time>2024-09-07T10:08:34Z</time>
      </trkpt>
      <trkpt lat="48.15622" lon="-3.59366">
        <ele>148.4</ele>
        <time>2024-09-07T10:08:35Z</time>
      </trkpt>
      <trkpt lat="48.15626" lon="-3.59363">
        <ele>148.6</ele>
        <time>2024-09-07T10:08:36Z</time>
      </trkpt>
      <trkpt lat="48.15629" lon="-3.59361">
        <ele>148.8</ele>
        <time>2024-09-07T10:08:37Z</time>
      </trkpt>
      <trkpt lat="48.15632" lon="-3.59358">
        <ele>149</ele>
        <time>2024-09-07T10:08:38Z</time>
      </trkpt>
      <trkpt lat="48.15635" lon="-3.59356">
        <ele>149</ele>
        <time>2024-09-07T10:08:39Z</time>
      </trkpt>
      <trkpt lat="48.15638" lon="-3.59354">
        <ele>149.2</ele>
        <time>2024-09-07T10:08:40Z</time>
      </trkpt>
      <trkpt lat="48.15641" lon="-3.59352">
        <ele>149.4</ele>
        <time>2024-09-07T10:08:41Z</time>
      </trkpt>
      <trkpt lat="48.15644" lon="-3.5935">
        <ele>149.4</ele>
        <time>2024-09-07T10:08:42Z</time>
      </trkpt>
      <trkpt lat="48.15647" lon="-3.59347">
        <ele>149.6</ele>
        <time>2024-09-07T10:08:43Z</time>
      </trkpt>
      <trkpt lat="48.1565" lon="-3.59345">
        <ele>149.8</ele>
        <time>2024-09-07T10:08:44Z</time>
      </trkpt>
      <trkpt lat="48.15654" lon="-3.59343">
        <ele>150</ele>
        <time>2024-09-07T10:08:45Z</time>
      </trkpt>
      <trkpt lat="48.15657" lon="-3.59341">
        <ele>150.2</ele>
        <time>2024-09-07T10:08:46Z</time>
      </trkpt>
      <trkpt lat="48.1566" lon="-3.59339">
        <ele>150.2</ele>
        <time>2024-09-07T10:08:47Z</time>
      </trkpt>
      <trkpt lat="48.15664" lon="-3.59336">
        <ele>150.2</ele>
        <time>2024-09-07T10:08:48Z</time>
      </trkpt>
      <trkpt lat="48.15667" lon="-3.59333">
        <ele>150.4</ele>
        <time>2024-09-07T10:08:49Z</time>
      </trkpt>
      <trkpt lat="48.1567" lon="-3.5933">
        <ele>150.4</ele>
        <time>2024-09-07T10:08:50Z</time>
      </trkpt>
      <trkpt lat="48.15673" lon="-3.59327">
        <ele>150.6</ele>
        <time>2024-09-07T10:08:51Z</time>
      </trkpt>
      <trkpt lat="48.15677" lon="-3.59325">
        <ele>150.6</ele>
        <time>2024-09-07T10:08:52Z</time>
      </trkpt>
      <trkpt lat="48.15681" lon="-3.59322">
        <ele>150.8</ele>
        <time>2024-09-07T10:08:53Z</time>
      </trkpt>
      <trkpt lat="48.15685" lon="-3.59319">
        <ele>150.8</ele>
        <time>2024-09-07T10:08:54Z</time>
      </trkpt>
      <trkpt lat="48.15688" lon="-3.59316">
        <ele>151</ele>
        <time>2024-09-07T10:08:55Z</time>
      </trkpt>
      <trkpt lat="48.15692" lon="-3.59313">
        <ele>151</ele>
        <time>2024-09-07T10:08:56Z</time>
      </trkpt>
      <trkpt lat="48.15696" lon="-3.59311">
        <ele>151.2</ele>
        <time>2024-09-07T10:08:57Z</time>
      </trkpt>
      <trkpt lat="48.15699" lon="-3.59308">
        <ele>151.2</ele>
        <time>2024-09-07T10:08:58Z</time>
      </trkpt>
      <trkpt lat="48.15703" lon="-3.59305">
        <ele>151.2</ele>
        <time>2024-09-07T10:08:59Z</time>
      </trkpt>
      <trkpt lat="48.15706" lon="-3.59302">
        <ele>151.2</ele>
        <time>2024-09-07T10:09:00Z</time>
      </trkpt>
      <trkpt lat="48.1571" lon="-3.59299">
        <ele>151.4</ele>
        <time>2024-09-07T10:09:01Z</time>
      </trkpt>
      <trkpt lat="48.15713" lon="-3.59296">
        <ele>151.4</ele>
        <time>2024-09-07T10:09:02Z</time>
      </trkpt>
      <trkpt lat="48.15716" lon="-3.59293">
        <ele>151.4</ele>
        <time>2024-09-07T10:09:03Z</time>
      </trkpt>
      <trkpt lat="48.15719" lon="-3.59291">
        <ele>151.6</ele>
        <time>2024-09-07T10:09:04Z</time>
      </trkpt>
      <trkpt lat="48.15722" lon="-3.59288">
        <ele>151.6</ele>
        <time>2024-09-07T10:09:05Z</time>
      </trkpt>
      <trkpt lat="48.15725" lon="-3.59285">
        <ele>151.8</ele>
        <time>2024-09-07T10:09:06Z</time>
      </trkpt>
      <trkpt lat="48.15728" lon="-3.59283">
        <ele>152</ele>
        <time>2024-09-07T10:09:07Z</time>
      </trkpt>
      <trkpt lat="48.15732" lon="-3.5928">
        <ele>152</ele>
        <time>2024-09-07T10:09:08Z</time>
      </trkpt>
      <trkpt lat="48.15736" lon="-3.59277">
        <ele>152</ele>
        <time>2024-09-07T10:09:09Z</time>
      </trkpt>
      <trkpt lat="48.15739" lon="-3.59274">
        <ele>152.2</ele>
        <time>2024-09-07T10:09:10Z</time>
      </trkpt>
      <trkpt lat="48.15743" lon="-3.59271">
        <ele>152.4</ele>
        <time>2024-09-07T10:09:11Z</time>
      </trkpt>
      <trkpt lat="48.15746" lon="-3.59268">
        <ele>152.4</ele>
        <time>2024-09-07T10:09:12Z</time>
      </trkpt>
      <trkpt lat="48.15749" lon="-3.59265">
        <ele>152.6</ele>
        <time>2024-09-07T10:09:13Z</time>
      </trkpt>
      <trkpt lat="48.15752" lon="-3.59262">
        <ele>152.6</ele>
        <time>2024-09-07T10:09:14Z</time>
      </trkpt>
      <trkpt lat="48.15756" lon="-3.59258">
        <ele>152.8</ele>
        <time>2024-09-07T10:09:15Z</time>
      </trkpt>
      <trkpt lat="48.15759" lon="-3.59255">
        <ele>152.8</ele>
        <time>2024-09-07T10:09:16Z</time>
      </trkpt>
      <trkpt lat="48.15763" lon="-3.59251">
        <ele>152.8</ele>
        <time>2024-09-07T10:09:17Z</time>
      </trkpt>
      <trkpt lat="48.15767" lon="-3.59247">
        <ele>153</ele>
        <time>2024-09-07T10:09:18Z</time>
      </trkpt>
      <trkpt lat="48.1577" lon="-3.59243">
        <ele>153</ele>
        <time>2024-09-07T10:09:19Z</time>
      </trkpt>
      <trkpt lat="48.15773" lon="-3.5924">
        <ele>153</ele>
        <time>2024-09-07T10:09:20Z</time>
      </trkpt>
      <trkpt lat="48.15777" lon="-3.59236">
        <ele>153</ele>
        <time>2024-09-07T10:09:21Z</time>
      </trkpt>
      <trkpt lat="48.15781" lon="-3.59233">
        <ele>153</ele>
        <time>2024-09-07T10:09:22Z</time>
      </trkpt>
      <trkpt lat="48.15784" lon="-3.59229">
        <ele>153.2</ele>
        <time>2024-09-07T10:09:23Z</time>
      </trkpt>
      <trkpt lat="48.15788" lon="-3.59226">
        <ele>153.2</ele>
        <time>2024-09-07T10:09:24Z</time>
      </trkpt>
      <trkpt lat="48.15792" lon="-3.59222">
        <ele>153.2</ele>
        <time>2024-09-07T10:09:25Z</time>
      </trkpt>
      <trkpt lat="48.15796" lon="-3.59219">
        <ele>153.4</ele>
        <time>2024-09-07T10:09:26Z</time>
      </trkpt>
      <trkpt lat="48.15799" lon="-3.59216">
        <ele>153.4</ele>
        <time>2024-09-07T10:09:27Z</time>
      </trkpt>
      <trkpt lat="48.15802" lon="-3.59212">
        <ele>153.4</ele>
        <time>2024-09-07T10:09:28Z</time>
      </trkpt>
      <trkpt lat="48.15806" lon="-3.59209">
        <ele>153.6</ele>
        <time>2024-09-07T10:09:29Z</time>
      </trkpt>
      <trkpt lat="48.1581" lon="-3.59205">
        <ele>153.6</ele>
        <time>2024-09-07T10:09:30Z</time>
      </trkpt>
      <trkpt lat="48.15813" lon="-3.59201">
        <ele>153.8</ele>
        <time>2024-09-07T10:09:31Z</time>
      </trkpt>
      <trkpt lat="48.15818" lon="-3.59197">
        <ele>154</ele>
        <time>2024-09-07T10:09:32Z</time>
      </trkpt>
      <trkpt lat="48.15821" lon="-3.59193">
        <ele>154</ele>
        <time>2024-09-07T10:09:33Z</time>
      </trkpt>
      <trkpt lat="48.15825" lon="-3.5919">
        <ele>154</ele>
        <time>2024-09-07T10:09:34Z</time>
      </trkpt>
      <trkpt lat="48.15828" lon="-3.59187">
        <ele>154.2</ele>
        <time>2024-09-07T10:09:35Z</time>
      </trkpt>
      <trkpt lat="48.15832" lon="-3.59184">
        <ele>154.6</ele>
        <time>2024-09-07T10:09:36Z</time>
      </trkpt>
      <trkpt lat="48.15835" lon="-3.59181">
        <ele>154.6</ele>
        <time>2024-09-07T10:09:37Z</time>
      </trkpt>
      <trkpt lat="48.15837" lon="-3.59178">
        <ele>154.8</ele>
        <time>2024-09-07T10:09:38Z</time>
      </trkpt>
      <trkpt lat="48.1584" lon="-3.59176">
        <ele>154.8</ele>
        <time>2024-09-07T10:09:39Z</time>
      </trkpt>
      <trkpt lat="48.15843" lon="-3.59173">
        <ele>155</ele>
        <time>2024-09-07T10:09:40Z</time>
      </trkpt>
      <trkpt lat="48.15846" lon="-3.5917">
        <ele>155</ele>
        <time>2024-09-07T10:09:41Z</time>
      </trkpt>
      <trkpt lat="48.1585" lon="-3.59166">
        <ele>155.2</ele>
        <time>2024-09-07T10:09:42Z</time>
      </trkpt>
      <trkpt lat="48.15854" lon="-3.59162">
        <ele>155.4</ele>
        <time>2024-09-07T10:09:43Z</time>
      </trkpt>
      <trkpt lat="48.15858" lon="-3.59158">
        <ele>155.4</ele>
        <time>2024-09-07T10:09:44Z</time>
      </trkpt>
      <trkpt lat="48.15863" lon="-3.59153">
        <ele>155.6</ele>
        <time>2024-09-07T10:09:45Z</time>
      </trkpt>
      <trkpt lat="48.15868" lon="-3.5915">
        <ele>155.6</ele>
        <time>2024-09-07T10:09:46Z</time>
      </trkpt>
      <trkpt lat="48.15872" lon="-3.59146">
        <ele>155.6</ele>
        <time>2024-09-07T10:09:47Z</time>
      </trkpt>
      <trkpt lat="48.15876" lon="-3.59142">
        <ele>155.8</ele>
        <time>2024-09-07T10:09:48Z</time>
      </trkpt>
      <trkpt lat="48.15882" lon="-3.59138">
        <ele>155.8</ele>
        <time>2024-09-07T10:09:49Z</time>
      </trkpt>
      <trkpt lat="48.15885" lon="-3.59134">
        <ele>156</ele>
        <time>2024-09-07T10:09:50Z</time>
      </trkpt>
      <trkpt lat="48.15889" lon="-3.59132">
        <ele>156</ele>
        <time>2024-09-07T10:09:51Z</time>
      </trkpt>
      <trkpt lat="48.15893" lon="-3.59128">
        <ele>156.2</ele>
        <time>2024-09-07T10:09:52Z</time>
      </trkpt>
      <trkpt lat="48.15897" lon="-3.59124">
        <ele>156.2</ele>
        <time>2024-09-07T10:09:53Z</time>
      </trkpt>
      <trkpt lat="48.159" lon="-3.59121">
        <ele>156.4</ele>
        <time>2024-09-07T10:09:54Z</time>
      </trkpt>
      <trkpt lat="48.15903" lon="-3.59118">
        <ele>156.6</ele>
        <time>2024-09-07T10:09:55Z</time>
      </trkpt>
      <trkpt lat="48.15907" lon="-3.59114">
        <ele>156.6</ele>
        <time>2024-09-07T10:09:56Z</time>
      </trkpt>
      <trkpt lat="48.1591" lon="-3.59111">
        <ele>156.8</ele>
        <time>2024-09-07T10:09:57Z</time>
      </trkpt>
      <trkpt lat="48.15913" lon="-3.59107">
        <ele>157.2</ele>
        <time>2024-09-07T10:09:58Z</time>
      </trkpt>
      <trkpt lat="48.15916" lon="-3.59104">
        <ele>157.4</ele>
        <time>2024-09-07T10:09:59Z</time>
      </trkpt>
      <trkpt lat="48.1592" lon="-3.591">
        <ele>157.4</ele>
        <time>2024-09-07T10:10:00Z</time>
      </trkpt>
      <trkpt lat="48.15923" lon="-3.59096">
        <ele>157.4</ele>
        <time>2024-09-07T10:10:01Z</time>
      </trkpt>
      <trkpt lat="48.15927" lon="-3.59091">
        <ele>157.6</ele>
        <time>2024-09-07T10:10:02Z</time>
      </trkpt>
      <trkpt lat="48.1593" lon="-3.59088">
        <ele>157.6</ele>
        <time>2024-09-07T10:10:03Z</time>
      </trkpt>
      <trkpt lat="48.15933" lon="-3.59083">
        <ele>157.8</ele>
        <time>2024-09-07T10:10:04Z</time>
      </trkpt>
      <trkpt lat="48.15937" lon="-3.59078">
        <ele>158</ele>
        <time>2024-09-07T10:10:05Z</time>
      </trkpt>
      <trkpt lat="48.1594" lon="-3.59074">
        <ele>158</ele>
        <time>2024-09-07T10:10:06Z</time>
      </trkpt>
      <trkpt lat="48.15943" lon="-3.59069">
        <ele>158.2</ele>
        <time>2024-09-07T10:10:07Z</time>
      </trkpt>
      <trkpt lat="48.15946" lon="-3.59065">
        <ele>158.2</ele>
        <time>2024-09-07T10:10:08Z</time>
      </trkpt>
      <trkpt lat="48.15948" lon="-3.5906">
        <ele>158.4</ele>
        <time>2024-09-07T10:10:09Z</time>
      </trkpt>
      <trkpt lat="48.1595" lon="-3.59056">
        <ele>158.2</ele>
        <time>2024-09-07T10:10:10Z</time>
      </trkpt>
      <trkpt lat="48.15953" lon="-3.59052">
        <ele>158.2</ele>
        <time>2024-09-07T10:10:11Z</time>
      </trkpt>
      <trkpt lat="48.15956" lon="-3.59047">
        <ele>158.2</ele>
        <time>2024-09-07T10:10:12Z</time>
      </trkpt>
      <trkpt lat="48.15959" lon="-3.59042">
        <ele>158.2</ele>
        <time>2024-09-07T10:10:13Z</time>
      </trkpt>
      <trkpt lat="48.15962" lon="-3.59037">
        <ele>158.4</ele>
        <time>2024-09-07T10:10:14Z</time>
      </trkpt>
      <trkpt lat="48.15965" lon="-3.59032">
        <ele>158.4</ele>
        <time>2024-09-07T10:10:15Z</time>
      </trkpt>
      <trkpt lat="48.15968" lon="-3.59026">
        <ele>158.6</ele>
        <time>2024-09-07T10:10:16Z</time>
      </trkpt>
      <trkpt lat="48.15971" lon="-3.59021">
        <ele>158.6</ele>
        <time>2024-09-07T10:10:17Z</time>
      </trkpt>
      <trkpt lat="48.15974" lon="-3.59016">
        <ele>158.6</ele>
        <time>2024-09-07T10:10:18Z</time>
      </trkpt>
      <trkpt lat="48.15976" lon="-3.59012">
        <ele>158.8</ele>
        <time>2024-09-07T10:10:19Z</time>
      </trkpt>
      <trkpt lat="48.15979" lon="-3.59007">
        <ele>158.8</ele>
        <time>2024-09-07T10:10:20Z</time>
      </trkpt>
      <trkpt lat="48.15982" lon="-3.59002">
        <ele>158.8</ele>
        <time>2024-09-07T10:10:21Z</time>
      </trkpt>
      <trkpt lat="48.15984" lon="-3.58996">
        <ele>158.8</ele>
        <time>2024-09-07T10:10:22Z</time>
      </trkpt>
      <trkpt lat="48.15987" lon="-3.5899">
        <ele>158.8</ele>
        <time>2024-09-07T10:10:23Z</time>
      </trkpt>
      <trkpt lat="48.15989" lon="-3.58983">
        <ele>158.8</ele>
        <time>2024-09-07T10:10:24Z</time>
      </trkpt>
      <trkpt lat="48.15991" lon="-3.58976">
        <ele>158.8</ele>
        <time>2024-09-07T10:10:25Z</time>
      </trkpt>
      <trkpt lat="48.15993" lon="-3.58969">
        <ele>158.8</ele>
        <time>2024-09-07T10:10:26Z</time>
      </trkpt>
      <trkpt lat="48.15996" lon="-3.5896">
        <ele>159</ele>
        <time>2024-09-07T10:10:27Z</time>
      </trkpt>
      <trkpt lat="48.15998" lon="-3.58954">
        <ele>159</ele>
        <time>2024-09-07T10:10:28Z</time>
      </trkpt>
      <trkpt lat="48.16002" lon="-3.58946">
        <ele>159.2</ele>
        <time>2024-09-07T10:10:29Z</time>
      </trkpt>
      <trkpt lat="48.16004" lon="-3.5894">
        <ele>159.2</ele>
        <time>2024-09-07T10:10:30Z</time>
      </trkpt>
      <trkpt lat="48.16005" lon="-3.58933">
        <ele>159.4</ele>
        <time>2024-09-07T10:10:31Z</time>
      </trkpt>
      <trkpt lat="48.16006" lon="-3.58927">
        <ele>159.6</ele>
        <time>2024-09-07T10:10:32Z</time>
      </trkpt>
      <trkpt lat="48.16008" lon="-3.58921">
        <ele>159.6</ele>
        <time>2024-09-07T10:10:33Z</time>
      </trkpt>
      <trkpt lat="48.16009" lon="-3.58915">
        <ele>159.8</ele>
        <time>2024-09-07T10:10:34Z</time>
      </trkpt>
      <trkpt lat="48.1601" lon="-3.58909">
        <ele>159.8</ele>
        <time>2024-09-07T10:10:35Z</time>
      </trkpt>
      <trkpt lat="48.16012" lon="-3.58902">
        <ele>159.8</ele>
        <time>2024-09-07T10:10:36Z</time>
      </trkpt>
      <trkpt lat="48.16013" lon="-3.58895">
        <ele>160</ele>
        <time>2024-09-07T10:10:37Z</time>
      </trkpt>
      <trkpt lat="48.16014" lon="-3.58888">
        <ele>160</ele>
        <time>2024-09-07T10:10:38Z</time>
      </trkpt>
      <trkpt lat="48.16014" lon="-3.58881">
        <ele>160</ele>
        <time>2024-09-07T10:10:39Z</time>
      </trkpt>
      <trkpt lat="48.16016" lon="-3.58875">
        <ele>160</ele>
        <time>2024-09-07T10:10:40Z</time>
      </trkpt>
      <trkpt lat="48.16017" lon="-3.58868">
        <ele>160</ele>
        <time>2024-09-07T10:10:41Z</time>
      </trkpt>
      <trkpt lat="48.16017" lon="-3.58862">
        <ele>160.2</ele>
        <time>2024-09-07T10:10:42Z</time>
      </trkpt>
      <trkpt lat="48.16018" lon="-3.58856">
        <ele>160.2</ele>
        <time>2024-09-07T10:10:43Z</time>
      </trkpt>
      <trkpt lat="48.16019" lon="-3.58849">
        <ele>160.2</ele>
        <time>2024-09-07T10:10:44Z</time>
      </trkpt>
      <trkpt lat="48.1602" lon="-3.58842">
        <ele>160.6</ele>
        <time>2024-09-07T10:10:45Z</time>
      </trkpt>
      <trkpt lat="48.16021" lon="-3.58836">
        <ele>160.6</ele>
        <time>2024-09-07T10:10:46Z</time>
      </trkpt>
      <trkpt lat="48.1602" lon="-3.5883">
        <ele>160.6</ele>
        <time>2024-09-07T10:10:47Z</time>
      </trkpt>
      <trkpt lat="48.1602" lon="-3.58823">
        <ele>160.8</ele>
        <time>2024-09-07T10:10:48Z</time>
      </trkpt>
      <trkpt lat="48.16021" lon="-3.58816">
        <ele>160.8</ele>
        <time>2024-09-07T10:10:49Z</time>
      </trkpt>
      <trkpt lat="48.16021" lon="-3.5881">
        <ele>160.8</ele>
        <time>2024-09-07T10:10:50Z</time>
      </trkpt>
      <trkpt lat="48.16022" lon="-3.58804">
        <ele>161</ele>
        <time>2024-09-07T10:10:51Z</time>
      </trkpt>
      <trkpt lat="48.16023" lon="-3.58797">
        <ele>161.2</ele>
        <time>2024-09-07T10:10:52Z</time>
      </trkpt>
      <trkpt lat="48.16024" lon="-3.58791">
        <ele>161.2</ele>
        <time>2024-09-07T10:10:53Z</time>
      </trkpt>
      <trkpt lat="48.16024" lon="-3.58784">
        <ele>161.2</ele>
        <time>2024-09-07T10:10:54Z</time>
      </trkpt>
      <trkpt lat="48.16024" lon="-3.58777">
        <ele>161.4</ele>
        <time>2024-09-07T10:10:55Z</time>
      </trkpt>
      <trkpt lat="48.16025" lon="-3.58769">
        <ele>161.6</ele>
        <time>2024-09-07T10:10:56Z</time>
      </trkpt>
      <trkpt lat="48.16025" lon="-3.58762">
        <ele>161.8</ele>
        <time>2024-09-07T10:10:57Z</time>
      </trkpt>
      <trkpt lat="48.16026" lon="-3.58755">
        <ele>161.8</ele>
        <time>2024-09-07T10:10:58Z</time>
      </trkpt>
      <trkpt lat="48.16027" lon="-3.58748">
        <ele>162</ele>
        <time>2024-09-07T10:10:59Z</time>
      </trkpt>
      <trkpt lat="48.16028" lon="-3.58742">
        <ele>162.2</ele>
        <time>2024-09-07T10:11:00Z</time>
      </trkpt>
      <trkpt lat="48.16029" lon="-3.58735">
        <ele>162.2</ele>
        <time>2024-09-07T10:11:01Z</time>
      </trkpt>
      <trkpt lat="48.16029" lon="-3.58728">
        <ele>162.2</ele>
        <time>2024-09-07T10:11:02Z</time>
      </trkpt>
      <trkpt lat="48.1603" lon="-3.58722">
        <ele>162.2</ele>
        <time>2024-09-07T10:11:03Z</time>
      </trkpt>
      <trkpt lat="48.16031" lon="-3.58716">
        <ele>162.2</ele>
        <time>2024-09-07T10:11:04Z</time>
      </trkpt>
      <trkpt lat="48.16032" lon="-3.5871">
        <ele>162.4</ele>
        <time>2024-09-07T10:11:05Z</time>
      </trkpt>
      <trkpt lat="48.16032" lon="-3.58705">
        <ele>162.4</ele>
        <time>2024-09-07T10:11:06Z</time>
      </trkpt>
      <trkpt lat="48.16033" lon="-3.58699">
        <ele>162.4</ele>
        <time>2024-09-07T10:11:07Z</time>
      </trkpt>
      <trkpt lat="48.16033" lon="-3.58693">
        <ele>162.6</ele>
        <time>2024-09-07T10:11:08Z</time>
      </trkpt>
      <trkpt lat="48.16033" lon="-3.58687">
        <ele>162.6</ele>
        <time>2024-09-07T10:11:09Z</time>
      </trkpt>
      <trkpt lat="48.16033" lon="-3.5868">
        <ele>162.6</ele>
        <time>2024-09-07T10:11:10Z</time>
      </trkpt>
      <trkpt lat="48.16034" lon="-3.58673">
        <ele>162.8</ele>
        <time>2024-09-07T10:11:11Z</time>
      </trkpt>
      <trkpt lat="48.16035" lon="-3.58667">
        <ele>162.8</ele>
        <time>2024-09-07T10:11:12Z</time>
      </trkpt>
      <trkpt lat="48.16035" lon="-3.5866">
        <ele>163</ele>
        <time>2024-09-07T10:11:13Z</time>
      </trkpt>
      <trkpt lat="48.16036" lon="-3.58654">
        <ele>163.2</ele>
        <time>2024-09-07T10:11:14Z</time>
      </trkpt>
      <trkpt lat="48.16037" lon="-3.58648">
        <ele>163.4</ele>
        <time>2024-09-07T10:11:15Z</time>
      </trkpt>
      <trkpt lat="48.16037" lon="-3.58641">
        <ele>163.4</ele>
        <time>2024-09-07T10:11:16Z</time>
      </trkpt>
      <trkpt lat="48.16038" lon="-3.58635">
        <ele>163.4</ele>
        <time>2024-09-07T10:11:17Z</time>
      </trkpt>
      <trkpt lat="48.16039" lon="-3.58628">
        <ele>163.6</ele>
        <time>2024-09-07T10:11:18Z</time>
      </trkpt>
      <trkpt lat="48.1604" lon="-3.58621">
        <ele>163.6</ele>
        <time>2024-09-07T10:11:19Z</time>
      </trkpt>
      <trkpt lat="48.16041" lon="-3.58614">
        <ele>163.8</ele>
        <time>2024-09-07T10:11:20Z</time>
      </trkpt>
      <trkpt lat="48.16042" lon="-3.58608">
        <ele>163.8</ele>
        <time>2024-09-07T10:11:21Z</time>
      </trkpt>
      <trkpt lat="48.16043" lon="-3.586">
        <ele>164</ele>
        <time>2024-09-07T10:11:22Z</time>
      </trkpt>
      <trkpt lat="48.16044" lon="-3.58593">
        <ele>164</ele>
        <time>2024-09-07T10:11:23Z</time>
      </trkpt>
      <trkpt lat="48.16045" lon="-3.58586">
        <ele>164</ele>
        <time>2024-09-07T10:11:24Z</time>
      </trkpt>
      <trkpt lat="48.16045" lon="-3.58579">
        <ele>164.2</ele>
        <time>2024-09-07T10:11:25Z</time>
      </trkpt>
      <trkpt lat="48.16046" lon="-3.58573">
        <ele>164.2</ele>
        <time>2024-09-07T10:11:26Z</time>
      </trkpt>
      <trkpt lat="48.16047" lon="-3.58566">
        <ele>164.4</ele>
        <time>2024-09-07T10:11:27Z</time>
      </trkpt>
      <trkpt lat="48.1605" lon="-3.58559">
        <ele>164.4</ele>
        <time>2024-09-07T10:11:28Z</time>
      </trkpt>
      <trkpt lat="48.16052" lon="-3.58553">
        <ele>164.6</ele>
        <time>2024-09-07T10:11:29Z</time>
      </trkpt>
      <trkpt lat="48.16054" lon="-3.58547">
        <ele>164.6</ele>
        <time>2024-09-07T10:11:30Z</time>
      </trkpt>
      <trkpt lat="48.16056" lon="-3.5854">
        <ele>164.8</ele>
        <time>2024-09-07T10:11:31Z</time>
      </trkpt>
      <trkpt lat="48.16058" lon="-3.58534">
        <ele>165</ele>
        <time>2024-09-07T10:11:32Z</time>
      </trkpt>
      <trkpt lat="48.16059" lon="-3.58527">
        <ele>165.2</ele>
        <time>2024-09-07T10:11:33Z</time>
      </trkpt>
      <trkpt lat="48.16061" lon="-3.58521">
        <ele>165.2</ele>
        <time>2024-09-07T10:11:34Z</time>
      </trkpt>
      <trkpt lat="48.16064" lon="-3.58515">
        <ele>165.4</ele>
        <time>2024-09-07T10:11:35Z</time>
      </trkpt>
      <trkpt lat="48.16066" lon="-3.58509">
        <ele>165.4</ele>
        <time>2024-09-07T10:11:36Z</time>
      </trkpt>
      <trkpt lat="48.16067" lon="-3.58503">
        <ele>165.4</ele>
        <time>2024-09-07T10:11:37Z</time>
      </trkpt>
      <trkpt lat="48.16069" lon="-3.58497">
        <ele>165.6</ele>
        <time>2024-09-07T10:11:38Z</time>
      </trkpt>
      <trkpt lat="48.16071" lon="-3.5849">
        <ele>165.6</ele>
        <time>2024-09-07T10:11:39Z</time>
      </trkpt>
      <trkpt lat="48.16072" lon="-3.58485">
        <ele>165.8</ele>
        <time>2024-09-07T10:11:40Z</time>
      </trkpt>
      <trkpt lat="48.16074" lon="-3.58479">
        <ele>165.8</ele>
        <time>2024-09-07T10:11:41Z</time>
      </trkpt>
      <trkpt lat="48.16076" lon="-3.58474">
        <ele>166</ele>
        <time>2024-09-07T10:11:42Z</time>
      </trkpt>
      <trkpt lat="48.16078" lon="-3.5847">
        <ele>166</ele>
        <time>2024-09-07T10:11:43Z</time>
      </trkpt>
      <trkpt lat="48.16079" lon="-3.58465">
        <ele>166</ele>
        <time>2024-09-07T10:11:44Z</time>
      </trkpt>
      <trkpt lat="48.16081" lon="-3.5846">
        <ele>166.2</ele>
        <time>2024-09-07T10:11:45Z</time>
      </trkpt>
      <trkpt lat="48.16082" lon="-3.58456">
        <ele>166.4</ele>
        <time>2024-09-07T10:11:46Z</time>
      </trkpt>
      <trkpt lat="48.16083" lon="-3.58452">
        <ele>166.4</ele>
        <time>2024-09-07T10:11:47Z</time>
      </trkpt>
      <trkpt lat="48.16085" lon="-3.58448">
        <ele>166.4</ele>
        <time>2024-09-07T10:11:48Z</time>
      </trkpt>
      <trkpt lat="48.16086" lon="-3.58444">
        <ele>166.8</ele>
        <time>2024-09-07T10:11:49Z</time>
      </trkpt>
      <trkpt lat="48.16088" lon="-3.5844">
        <ele>166.8</ele>
        <time>2024-09-07T10:11:50Z</time>
      </trkpt>
      <trkpt lat="48.16089" lon="-3.58437">
        <ele>167</ele>
        <time>2024-09-07T10:11:51Z</time>
      </trkpt>
      <trkpt lat="48.1609" lon="-3.58434">
        <ele>167</ele>
        <time>2024-09-07T10:11:52Z</time>
      </trkpt>
      <trkpt lat="48.16091" lon="-3.58432">
        <ele>167</ele>
        <time>2024-09-07T10:11:53Z</time>
      </trkpt>
      <trkpt lat="48.16092" lon="-3.58429">
        <ele>167.2</ele>
        <time>2024-09-07T10:11:54Z</time>
      </trkpt>
      <trkpt lat="48.16092" lon="-3.58425">
        <ele>167.2</ele>
        <time>2024-09-07T10:11:55Z</time>
      </trkpt>
      <trkpt lat="48.16093" lon="-3.58421">
        <ele>167.4</ele>
        <time>2024-09-07T10:11:56Z</time>
      </trkpt>
      <trkpt lat="48.16093" lon="-3.58417">
        <ele>167.4</ele>
        <time>2024-09-07T10:11:57Z</time>
      </trkpt>
      <trkpt lat="48.16094" lon="-3.58414">
        <ele>167.6</ele>
        <time>2024-09-07T10:11:58Z</time>
      </trkpt>
      <trkpt lat="48.16095" lon="-3.58411">
        <ele>167.6</ele>
        <time>2024-09-07T10:11:59Z</time>
      </trkpt>
      <trkpt lat="48.16097" lon="-3.58408">
        <ele>167.6</ele>
        <time>2024-09-07T10:12:00Z</time>
      </trkpt>
      <trkpt lat="48.16099" lon="-3.58404">
        <ele>167.6</ele>
        <time>2024-09-07T10:12:01Z</time>
      </trkpt>
      <trkpt lat="48.161" lon="-3.584">
        <ele>167.8</ele>
        <time>2024-09-07T10:12:02Z</time>
      </trkpt>
      <trkpt lat="48.161" lon="-3.58396">
        <ele>167.8</ele>
        <time>2024-09-07T10:12:03Z</time>
      </trkpt>
      <trkpt lat="48.16098" lon="-3.58392">
        <ele>167.8</ele>
        <time>2024-09-07T10:12:04Z</time>
      </trkpt>
      <trkpt lat="48.16096" lon="-3.58388">
        <ele>167.8</ele>
        <time>2024-09-07T10:12:05Z</time>
      </trkpt>
      <trkpt lat="48.16092" lon="-3.58386">
        <ele>167.8</ele>
        <time>2024-09-07T10:12:06Z</time>
      </trkpt>
      <trkpt lat="48.16088" lon="-3.58382">
        <ele>167.8</ele>
        <time>2024-09-07T10:12:07Z</time>
      </trkpt>
      <trkpt lat="48.16083" lon="-3.58378">
        <ele>167.8</ele>
        <time>2024-09-07T10:12:08Z</time>
      </trkpt>
      <trkpt lat="48.1608" lon="-3.58373">
        <ele>167.8</ele>
        <time>2024-09-07T10:12:09Z</time>
      </trkpt>
      <trkpt lat="48.16077" lon="-3.58369">
        <ele>167.8</ele>
        <time>2024-09-07T10:12:10Z</time>
      </trkpt>
      <trkpt lat="48.16075" lon="-3.58364">
        <ele>167.8</ele>
        <time>2024-09-07T10:12:11Z</time>
      </trkpt>
      <trkpt lat="48.16075" lon="-3.58359">
        <ele>167.8</ele>
        <time>2024-09-07T10:12:12Z</time>
      </trkpt>
      <trkpt lat="48.16077" lon="-3.58353">
        <ele>167.8</ele>
        <time>2024-09-07T10:12:13Z</time>
      </trkpt>
      <trkpt lat="48.1608" lon="-3.58349">
        <ele>167.8</ele>
        <time>2024-09-07T10:12:14Z</time>
      </trkpt>
      <trkpt lat="48.16083" lon="-3.58346">
        <ele>167.8</ele>
        <time>2024-09-07T10:12:15Z</time>
      </trkpt>
      <trkpt lat="48.16086" lon="-3.58343">
        <ele>167.4</ele>
        <time>2024-09-07T10:12:16Z</time>
      </trkpt>
      <trkpt lat="48.1609" lon="-3.5834">
        <ele>167.2</ele>
        <time>2024-09-07T10:12:17Z</time>
      </trkpt>
      <trkpt lat="48.16094" lon="-3.58337">
        <ele>166.8</ele>
        <time>2024-09-07T10:12:18Z</time>
      </trkpt>
      <trkpt lat="48.16097" lon="-3.58334">
        <ele>166.6</ele>
        <time>2024-09-07T10:12:19Z</time>
      </trkpt>
      <trkpt lat="48.16101" lon="-3.58331">
        <ele>166.4</ele>
        <time>2024-09-07T10:12:20Z</time>
      </trkpt>
      <trkpt lat="48.16104" lon="-3.58328">
        <ele>166.2</ele>
        <time>2024-09-07T10:12:21Z</time>
      </trkpt>
      <trkpt lat="48.16107" lon="-3.58325">
        <ele>166.2</ele>
        <time>2024-09-07T10:12:22Z</time>
      </trkpt>
      <trkpt lat="48.16111" lon="-3.58323">
        <ele>166.2</ele>
        <time>2024-09-07T10:12:23Z</time>
      </trkpt>
      <trkpt lat="48.16113" lon="-3.58321">
        <ele>166.2</ele>
        <time>2024-09-07T10:12:24Z</time>
      </trkpt>
      <trkpt lat="48.16116" lon="-3.58319">
        <ele>166</ele>
        <time>2024-09-07T10:12:25Z</time>
      </trkpt>
      <trkpt lat="48.16118" lon="-3.58317">
        <ele>166</ele>
        <time>2024-09-07T10:12:26Z</time>
      </trkpt>
      <trkpt lat="48.16121" lon="-3.58315">
        <ele>166</ele>
        <time>2024-09-07T10:12:27Z</time>
      </trkpt>
      <trkpt lat="48.16123" lon="-3.58313">
        <ele>166</ele>
        <time>2024-09-07T10:12:28Z</time>
      </trkpt>
      <trkpt lat="48.16126" lon="-3.5831">
        <ele>166</ele>
        <time>2024-09-07T10:12:29Z</time>
      </trkpt>
      <trkpt lat="48.16128" lon="-3.58307">
        <ele>166</ele>
        <time>2024-09-07T10:12:30Z</time>
      </trkpt>
      <trkpt lat="48.1613" lon="-3.58304">
        <ele>166.2</ele>
        <time>2024-09-07T10:12:31Z</time>
      </trkpt>
      <trkpt lat="48.16132" lon="-3.58302">
        <ele>166.2</ele>
        <time>2024-09-07T10:12:32Z</time>
      </trkpt>
      <trkpt lat="48.16135" lon="-3.583">
        <ele>166.4</ele>
        <time>2024-09-07T10:12:33Z</time>
      </trkpt>
      <trkpt lat="48.16137" lon="-3.58296">
        <ele>166.8</ele>
        <time>2024-09-07T10:12:34Z</time>
      </trkpt>
      <trkpt lat="48.16139" lon="-3.58293">
        <ele>167</ele>
        <time>2024-09-07T10:12:35Z</time>
      </trkpt>
      <trkpt lat="48.16142" lon="-3.58289">
        <ele>167.4</ele>
        <time>2024-09-07T10:12:36Z</time>
      </trkpt>
      <trkpt lat="48.16143" lon="-3.58284">
        <ele>167.6</ele>
        <time>2024-09-07T10:12:37Z</time>
      </trkpt>
      <trkpt lat="48.16146" lon="-3.58279">
        <ele>167.8</ele>
        <time>2024-09-07T10:12:38Z</time>
      </trkpt>
      <trkpt lat="48.16148" lon="-3.58275">
        <ele>168.2</ele>
        <time>2024-09-07T10:12:39Z</time>
      </trkpt>
      <trkpt lat="48.16152" lon="-3.58271">
        <ele>168.4</ele>
        <time>2024-09-07T10:12:40Z</time>
      </trkpt>
      <trkpt lat="48.16156" lon="-3.58267">
        <ele>168.6</ele>
        <time>2024-09-07T10:12:41Z</time>
      </trkpt>
      <trkpt lat="48.16159" lon="-3.58264">
        <ele>168.6</ele>
        <time>2024-09-07T10:12:42Z</time>
      </trkpt>
      <trkpt lat="48.16163" lon="-3.58262">
        <ele>168.6</ele>
        <time>2024-09-07T10:12:43Z</time>
      </trkpt>
      <trkpt lat="48.16167" lon="-3.58259">
        <ele>168.6</ele>
        <time>2024-09-07T10:12:44Z</time>
      </trkpt>
      <trkpt lat="48.16171" lon="-3.58256">
        <ele>168.8</ele>
        <time>2024-09-07T10:12:45Z</time>
      </trkpt>
      <trkpt lat="48.16174" lon="-3.58253">
        <ele>168.8</ele>
        <time>2024-09-07T10:12:46Z</time>
      </trkpt>
      <trkpt lat="48.16177" lon="-3.5825">
        <ele>168.8</ele>
        <time>2024-09-07T10:12:47Z</time>
      </trkpt>
      <trkpt lat="48.16181" lon="-3.58246">
        <ele>169</ele>
        <time>2024-09-07T10:12:48Z</time>
      </trkpt>
      <trkpt lat="48.16185" lon="-3.58243">
        <ele>169</ele>
        <time>2024-09-07T10:12:49Z</time>
      </trkpt>
      <trkpt lat="48.16189" lon="-3.5824">
        <ele>169</ele>
        <time>2024-09-07T10:12:50Z</time>
      </trkpt>
      <trkpt lat="48.16192" lon="-3.58237">
        <ele>169</ele>
        <time>2024-09-07T10:12:51Z</time>
      </trkpt>
      <trkpt lat="48.16196" lon="-3.58235">
        <ele>169.2</ele>
        <time>2024-09-07T10:12:52Z</time>
      </trkpt>
      <trkpt lat="48.162" lon="-3.58232">
        <ele>169.2</ele>
        <time>2024-09-07T10:12:53Z</time>
      </trkpt>
      <trkpt lat="48.16202" lon="-3.58229">
        <ele>169.2</ele>
        <time>2024-09-07T10:12:54Z</time>
      </trkpt>
      <trkpt lat="48.16206" lon="-3.58226">
        <ele>169.2</ele>
        <time>2024-09-07T10:12:55Z</time>
      </trkpt>
      <trkpt lat="48.16209" lon="-3.58224">
        <ele>169.2</ele>
        <time>2024-09-07T10:12:56Z</time>
      </trkpt>
      <trkpt lat="48.16212" lon="-3.58221">
        <ele>169.2</ele>
        <time>2024-09-07T10:12:57Z</time>
      </trkpt>
      <trkpt lat="48.16214" lon="-3.58219">
        <ele>169.2</ele>
        <time>2024-09-07T10:12:58Z</time>
      </trkpt>
      <trkpt lat="48.16217" lon="-3.58217">
        <ele>169.2</ele>
        <time>2024-09-07T10:12:59Z</time>
      </trkpt>
      <trkpt lat="48.16219" lon="-3.58216">
        <ele>169.4</ele>
        <time>2024-09-07T10:13:00Z</time>
      </trkpt>
      <trkpt lat="48.16221" lon="-3.58215">
        <ele>169.4</ele>
        <time>2024-09-07T10:13:01Z</time>
      </trkpt>
      <trkpt lat="48.16223" lon="-3.58214">
        <ele>169.6</ele>
        <time>2024-09-07T10:13:02Z</time>
      </trkpt>
      <trkpt lat="48.16226" lon="-3.58214">
        <ele>169.8</ele>
        <time>2024-09-07T10:13:03Z</time>
      </trkpt>
      <trkpt lat="48.16228" lon="-3.58213">
        <ele>169.8</ele>
        <time>2024-09-07T10:13:04Z</time>
      </trkpt>
      <trkpt lat="48.16231" lon="-3.58212">
        <ele>170.2</ele>
        <time>2024-09-07T10:13:05Z</time>
      </trkpt>
      <trkpt lat="48.16233" lon="-3.58212">
        <ele>170.4</ele>
        <time>2024-09-07T10:13:06Z</time>
      </trkpt>
      <trkpt lat="48.16234" lon="-3.58211">
        <ele>170.4</ele>
        <time>2024-09-07T10:13:07Z</time>
      </trkpt>
      <trkpt lat="48.16236" lon="-3.5821">
        <ele>170.4</ele>
        <time>2024-09-07T10:13:08Z</time>
      </trkpt>
      <trkpt lat="48.16237" lon="-3.58208">
        <ele>170.6</ele>
        <time>2024-09-07T10:13:09Z</time>
      </trkpt>
      <trkpt lat="48.16239" lon="-3.58207">
        <ele>170.6</ele>
        <time>2024-09-07T10:13:10Z</time>
      </trkpt>
      <trkpt lat="48.16241" lon="-3.58206">
        <ele>170.6</ele>
        <time>2024-09-07T10:13:11Z</time>
      </trkpt>
      <trkpt lat="48.16244" lon="-3.58205">
        <ele>170.8</ele>
        <time>2024-09-07T10:13:12Z</time>
      </trkpt>
      <trkpt lat="48.16247" lon="-3.58203">
        <ele>170.8</ele>
        <time>2024-09-07T10:13:13Z</time>
      </trkpt>
      <trkpt lat="48.1625" lon="-3.58201">
        <ele>171.2</ele>
        <time>2024-09-07T10:13:14Z</time>
      </trkpt>
      <trkpt lat="48.16253" lon="-3.58199">
        <ele>171.4</ele>
        <time>2024-09-07T10:13:15Z</time>
      </trkpt>
      <trkpt lat="48.16256" lon="-3.58196">
        <ele>171.6</ele>
        <time>2024-09-07T10:13:16Z</time>
      </trkpt>
      <trkpt lat="48.16259" lon="-3.58194">
        <ele>171.8</ele>
        <time>2024-09-07T10:13:17Z</time>
      </trkpt>
      <trkpt lat="48.16262" lon="-3.58191">
        <ele>172</ele>
        <time>2024-09-07T10:13:18Z</time>
      </trkpt>
      <trkpt lat="48.16265" lon="-3.58188">
        <ele>172</ele>
        <time>2024-09-07T10:13:19Z</time>
      </trkpt>
      <trkpt lat="48.16268" lon="-3.58186">
        <ele>172.2</ele>
        <time>2024-09-07T10:13:20Z</time>
      </trkpt>
      <trkpt lat="48.16271" lon="-3.58183">
        <ele>172.4</ele>
        <time>2024-09-07T10:13:21Z</time>
      </trkpt>
      <trkpt lat="48.16273" lon="-3.5818">
        <ele>172.6</ele>
        <time>2024-09-07T10:13:22Z</time>
      </trkpt>
      <trkpt lat="48.16276" lon="-3.58178">
        <ele>172.6</ele>
        <time>2024-09-07T10:13:23Z</time>
      </trkpt>
      <trkpt lat="48.16279" lon="-3.58175">
        <ele>172.6</ele>
        <time>2024-09-07T10:13:24Z</time>
      </trkpt>
      <trkpt lat="48.16283" lon="-3.58172">
        <ele>172.8</ele>
        <time>2024-09-07T10:13:25Z</time>
      </trkpt>
      <trkpt lat="48.16285" lon="-3.58169">
        <ele>172.8</ele>
        <time>2024-09-07T10:13:26Z</time>
      </trkpt>
      <trkpt lat="48.16289" lon="-3.58166">
        <ele>173</ele>
        <time>2024-09-07T10:13:27Z</time>
      </trkpt>
      <trkpt lat="48.16292" lon="-3.58164">
        <ele>173</ele>
        <time>2024-09-07T10:13:28Z</time>
      </trkpt>
      <trkpt lat="48.16296" lon="-3.58162">
        <ele>173.2</ele>
        <time>2024-09-07T10:13:29Z</time>
      </trkpt>
      <trkpt lat="48.16301" lon="-3.58159">
        <ele>173.2</ele>
        <time>2024-09-07T10:13:30Z</time>
      </trkpt>
      <trkpt lat="48.16306" lon="-3.58156">
        <ele>173.4</ele>
        <time>2024-09-07T10:13:31Z</time>
      </trkpt>
      <trkpt lat="48.16309" lon="-3.58154">
        <ele>173.4</ele>
        <time>2024-09-07T10:13:32Z</time>
      </trkpt>
      <trkpt lat="48.16313" lon="-3.58151">
        <ele>173.4</ele>
        <time>2024-09-07T10:13:33Z</time>
      </trkpt>
      <trkpt lat="48.16318" lon="-3.58148">
        <ele>173.6</ele>
        <time>2024-09-07T10:13:34Z</time>
      </trkpt>
      <trkpt lat="48.16323" lon="-3.58146">
        <ele>173.8</ele>
        <time>2024-09-07T10:13:35Z</time>
      </trkpt>
      <trkpt lat="48.16328" lon="-3.58144">
        <ele>173.8</ele>
        <time>2024-09-07T10:13:36Z</time>
      </trkpt>
      <trkpt lat="48.16331" lon="-3.58142">
        <ele>173.8</ele>
        <time>2024-09-07T10:13:37Z</time>
      </trkpt>
      <trkpt lat="48.16335" lon="-3.5814">
        <ele>174</ele>
        <time>2024-09-07T10:13:38Z</time>
      </trkpt>
      <trkpt lat="48.16337" lon="-3.58137">
        <ele>174</ele>
        <time>2024-09-07T10:13:39Z</time>
      </trkpt>
      <trkpt lat="48.1634" lon="-3.58135">
        <ele>174</ele>
        <time>2024-09-07T10:13:40Z</time>
      </trkpt>
      <trkpt lat="48.16343" lon="-3.58133">
        <ele>174.2</ele>
        <time>2024-09-07T10:13:41Z</time>
      </trkpt>
      <trkpt lat="48.16349" lon="-3.58132">
        <ele>174.2</ele>
        <time>2024-09-07T10:13:42Z</time>
      </trkpt>
      <trkpt lat="48.16354" lon="-3.58131">
        <ele>174.4</ele>
        <time>2024-09-07T10:13:43Z</time>
      </trkpt>
      <trkpt lat="48.16357" lon="-3.58131">
        <ele>174.4</ele>
        <time>2024-09-07T10:13:44Z</time>
      </trkpt>
      <trkpt lat="48.16361" lon="-3.5813">
        <ele>174.4</ele>
        <time>2024-09-07T10:13:45Z</time>
      </trkpt>
      <trkpt lat="48.16366" lon="-3.58128">
        <ele>174.6</ele>
        <time>2024-09-07T10:13:46Z</time>
      </trkpt>
      <trkpt lat="48.16371" lon="-3.58126">
        <ele>174.6</ele>
        <time>2024-09-07T10:13:47Z</time>
      </trkpt>
      <trkpt lat="48.16374" lon="-3.58124">
        <ele>174.8</ele>
        <time>2024-09-07T10:13:48Z</time>
      </trkpt>
      <trkpt lat="48.16378" lon="-3.58123">
        <ele>174.8</ele>
        <time>2024-09-07T10:13:49Z</time>
      </trkpt>
      <trkpt lat="48.16381" lon="-3.58122">
        <ele>175</ele>
        <time>2024-09-07T10:13:50Z</time>
      </trkpt>
      <trkpt lat="48.16385" lon="-3.58121">
        <ele>175.2</ele>
        <time>2024-09-07T10:13:51Z</time>
      </trkpt>
      <trkpt lat="48.16389" lon="-3.5812">
        <ele>175.2</ele>
        <time>2024-09-07T10:13:52Z</time>
      </trkpt>
      <trkpt lat="48.16393" lon="-3.58119">
        <ele>175.2</ele>
        <time>2024-09-07T10:13:53Z</time>
      </trkpt>
      <trkpt lat="48.16396" lon="-3.58117">
        <ele>175.2</ele>
        <time>2024-09-07T10:13:54Z</time>
      </trkpt>
      <trkpt lat="48.164" lon="-3.58115">
        <ele>175.4</ele>
        <time>2024-09-07T10:13:55Z</time>
      </trkpt>
      <trkpt lat="48.16403" lon="-3.58114">
        <ele>175.6</ele>
        <time>2024-09-07T10:13:56Z</time>
      </trkpt>
      <trkpt lat="48.16406" lon="-3.58114">
        <ele>175.6</ele>
        <time>2024-09-07T10:13:57Z</time>
      </trkpt>
      <trkpt lat="48.16409" lon="-3.58114">
        <ele>175.6</ele>
        <time>2024-09-07T10:13:58Z</time>
      </trkpt>
      <trkpt lat="48.16412" lon="-3.58114">
        <ele>175.8</ele>
        <time>2024-09-07T10:13:59Z</time>
      </trkpt>
      <trkpt lat="48.16415" lon="-3.58113">
        <ele>175.8</ele>
        <time>2024-09-07T10:14:00Z</time>
      </trkpt>
      <trkpt lat="48.16418" lon="-3.58112">
        <ele>176</ele>
        <time>2024-09-07T10:14:01Z</time>
      </trkpt>
      <trkpt lat="48.16422" lon="-3.58111">
        <ele>176</ele>
        <time>2024-09-07T10:14:02Z</time>
      </trkpt>
      <trkpt lat="48.16425" lon="-3.58109">
        <ele>176.2</ele>
        <time>2024-09-07T10:14:03Z</time>
      </trkpt>
      <trkpt lat="48.16428" lon="-3.58108">
        <ele>176.2</ele>
        <time>2024-09-07T10:14:04Z</time>
      </trkpt>
      <trkpt lat="48.16431" lon="-3.58108">
        <ele>176.2</ele>
        <time>2024-09-07T10:14:05Z</time>
      </trkpt>
      <trkpt lat="48.16434" lon="-3.58107">
        <ele>176.4</ele>
        <time>2024-09-07T10:14:06Z</time>
      </trkpt>
      <trkpt lat="48.16436" lon="-3.58106">
        <ele>176.4</ele>
        <time>2024-09-07T10:14:07Z</time>
      </trkpt>
      <trkpt lat="48.16439" lon="-3.58105">
        <ele>176.4</ele>
        <time>2024-09-07T10:14:08Z</time>
      </trkpt>
      <trkpt lat="48.16441" lon="-3.58104">
        <ele>176.6</ele>
        <time>2024-09-07T10:14:09Z</time>
      </trkpt>
      <trkpt lat="48.16443" lon="-3.58104">
        <ele>176.6</ele>
        <time>2024-09-07T10:14:10Z</time>
      </trkpt>
      <trkpt lat="48.16445" lon="-3.58103">
        <ele>176.6</ele>
        <time>2024-09-07T10:14:11Z</time>
      </trkpt>
      <trkpt lat="48.16446" lon="-3.58102">
        <ele>176.6</ele>
        <time>2024-09-07T10:14:12Z</time>
      </trkpt>
      <trkpt lat="48.16448" lon="-3.58102">
        <ele>176.8</ele>
        <time>2024-09-07T10:14:13Z</time>
      </trkpt>
      <trkpt lat="48.16451" lon="-3.58102">
        <ele>176.8</ele>
        <time>2024-09-07T10:14:14Z</time>
      </trkpt>
      <trkpt lat="48.16454" lon="-3.58104">
        <ele>176.8</ele>
        <time>2024-09-07T10:14:15Z</time>
      </trkpt>
      <trkpt lat="48.16456" lon="-3.58102">
        <ele>177</ele>
        <time>2024-09-07T10:14:16Z</time>
      </trkpt>
      <trkpt lat="48.16457" lon="-3.581">
        <ele>177.2</ele>
        <time>2024-09-07T10:14:17Z</time>
      </trkpt>
      <trkpt lat="48.16458" lon="-3.58098">
        <ele>177.2</ele>
        <time>2024-09-07T10:14:18Z</time>
      </trkpt>
      <trkpt lat="48.1646" lon="-3.58095">
        <ele>177.2</ele>
        <time>2024-09-07T10:14:19Z</time>
      </trkpt>
      <trkpt lat="48.16462" lon="-3.58092">
        <ele>177.4</ele>
        <time>2024-09-07T10:14:20Z</time>
      </trkpt>
      <trkpt lat="48.16464" lon="-3.58089">
        <ele>177.4</ele>
        <time>2024-09-07T10:14:21Z</time>
      </trkpt>
      <trkpt lat="48.16466" lon="-3.58084">
        <ele>177.4</ele>
        <time>2024-09-07T10:14:22Z</time>
      </trkpt>
      <trkpt lat="48.16467" lon="-3.58079">
        <ele>177.4</ele>
        <time>2024-09-07T10:14:23Z</time>
      </trkpt>
      <trkpt lat="48.16469" lon="-3.58073">
        <ele>177.4</ele>
        <time>2024-09-07T10:14:24Z</time>
      </trkpt>
      <trkpt lat="48.1647" lon="-3.58068">
        <ele>177.4</ele>
        <time>2024-09-07T10:14:25Z</time>
      </trkpt>
      <trkpt lat="48.16472" lon="-3.58063">
        <ele>177.4</ele>
        <time>2024-09-07T10:14:26Z</time>
      </trkpt>
      <trkpt lat="48.16473" lon="-3.58057">
        <ele>177.4</ele>
        <time>2024-09-07T10:14:27Z</time>
      </trkpt>
      <trkpt lat="48.16475" lon="-3.58051">
        <ele>177.4</ele>
        <time>2024-09-07T10:14:28Z</time>
      </trkpt>
      <trkpt lat="48.16477" lon="-3.58045">
        <ele>177.4</ele>
        <time>2024-09-07T10:14:29Z</time>
      </trkpt>
      <trkpt lat="48.1648" lon="-3.58039">
        <ele>177.4</ele>
        <time>2024-09-07T10:14:30Z</time>
      </trkpt>
      <trkpt lat="48.16482" lon="-3.58033">
        <ele>177.4</ele>
        <time>2024-09-07T10:14:31Z</time>
      </trkpt>
      <trkpt lat="48.16484" lon="-3.58027">
        <ele>177.2</ele>
        <time>2024-09-07T10:14:32Z</time>
      </trkpt>
      <trkpt lat="48.16486" lon="-3.58022">
        <ele>177.2</ele>
        <time>2024-09-07T10:14:33Z</time>
      </trkpt>
      <trkpt lat="48.16487" lon="-3.58016">
        <ele>177.2</ele>
        <time>2024-09-07T10:14:34Z</time>
      </trkpt>
      <trkpt lat="48.16488" lon="-3.58012">
        <ele>177</ele>
        <time>2024-09-07T10:14:35Z</time>
      </trkpt>
      <trkpt lat="48.16489" lon="-3.58008">
        <ele>176.8</ele>
        <time>2024-09-07T10:14:36Z</time>
      </trkpt>
      <trkpt lat="48.16491" lon="-3.58004">
        <ele>176.8</ele>
        <time>2024-09-07T10:14:37Z</time>
      </trkpt>
      <trkpt lat="48.16491" lon="-3.58">
        <ele>176.6</ele>
        <time>2024-09-07T10:14:38Z</time>
      </trkpt>
      <trkpt lat="48.16491" lon="-3.57997">
        <ele>176.4</ele>
        <time>2024-09-07T10:14:39Z</time>
      </trkpt>
      <trkpt lat="48.16491" lon="-3.57994">
        <ele>176.2</ele>
        <time>2024-09-07T10:14:40Z</time>
      </trkpt>
      <trkpt lat="48.16491" lon="-3.57991">
        <ele>176.2</ele>
        <time>2024-09-07T10:14:41Z</time>
      </trkpt>
      <trkpt lat="48.16491" lon="-3.57985">
        <ele>176</ele>
        <time>2024-09-07T10:14:42Z</time>
      </trkpt>
      <trkpt lat="48.1649" lon="-3.57979">
        <ele>176</ele>
        <time>2024-09-07T10:14:43Z</time>
      </trkpt>
      <trkpt lat="48.1649" lon="-3.57974">
        <ele>176</ele>
        <time>2024-09-07T10:14:44Z</time>
      </trkpt>
      <trkpt lat="48.16488" lon="-3.57956">
        <ele>176</ele>
        <time>2024-09-07T10:14:45Z</time>
      </trkpt>
      <trkpt lat="48.1648" lon="-3.57944">
        <ele>175.8</ele>
        <time>2024-09-07T10:14:46Z</time>
      </trkpt>
      <trkpt lat="48.1648" lon="-3.57934">
        <ele>175.8</ele>
        <time>2024-09-07T10:14:47Z</time>
      </trkpt>
      <trkpt lat="48.16482" lon="-3.57933">
        <ele>175.6</ele>
        <time>2024-09-07T10:14:48Z</time>
      </trkpt>
      <trkpt lat="48.16484" lon="-3.57931">
        <ele>175.6</ele>
        <time>2024-09-07T10:14:49Z</time>
      </trkpt>
      <trkpt lat="48.16487" lon="-3.5793">
        <ele>175.4</ele>
        <time>2024-09-07T10:14:50Z</time>
      </trkpt>
      <trkpt lat="48.16491" lon="-3.57929">
        <ele>175.2</ele>
        <time>2024-09-07T10:14:51Z</time>
      </trkpt>
      <trkpt lat="48.16495" lon="-3.57929">
        <ele>175.2</ele>
        <time>2024-09-07T10:14:52Z</time>
      </trkpt>
      <trkpt lat="48.16499" lon="-3.57929">
        <ele>175</ele>
        <time>2024-09-07T10:14:53Z</time>
      </trkpt>
      <trkpt lat="48.16503" lon="-3.57929">
        <ele>175</ele>
        <time>2024-09-07T10:14:54Z</time>
      </trkpt>
      <trkpt lat="48.16507" lon="-3.57929">
        <ele>174.8</ele>
        <time>2024-09-07T10:14:55Z</time>
      </trkpt>
      <trkpt lat="48.16511" lon="-3.57929">
        <ele>174.8</ele>
        <time>2024-09-07T10:14:56Z</time>
      </trkpt>
      <trkpt lat="48.16515" lon="-3.57928">
        <ele>174.6</ele>
        <time>2024-09-07T10:14:57Z</time>
      </trkpt>
      <trkpt lat="48.16518" lon="-3.57927">
        <ele>174.6</ele>
        <time>2024-09-07T10:14:58Z</time>
      </trkpt>
      <trkpt lat="48.16521" lon="-3.57925">
        <ele>174.4</ele>
        <time>2024-09-07T10:14:59Z</time>
      </trkpt>
      <trkpt lat="48.16523" lon="-3.57925">
        <ele>174.4</ele>
        <time>2024-09-07T10:15:00Z</time>
      </trkpt>
      <trkpt lat="48.16526" lon="-3.57926">
        <ele>174.4</ele>
        <time>2024-09-07T10:15:01Z</time>
      </trkpt>
      <trkpt lat="48.1653" lon="-3.57926">
        <ele>174.4</ele>
        <time>2024-09-07T10:15:02Z</time>
      </trkpt>
      <trkpt lat="48.16533" lon="-3.57926">
        <ele>174.4</ele>
        <time>2024-09-07T10:15:03Z</time>
      </trkpt>
      <trkpt lat="48.16537" lon="-3.57925">
        <ele>174.4</ele>
        <time>2024-09-07T10:15:04Z</time>
      </trkpt>
      <trkpt lat="48.16541" lon="-3.57923">
        <ele>174.4</ele>
        <time>2024-09-07T10:15:05Z</time>
      </trkpt>
      <trkpt lat="48.16545" lon="-3.57923">
        <ele>174.4</ele>
        <time>2024-09-07T10:15:06Z</time>
      </trkpt>
      <trkpt lat="48.1655" lon="-3.57923">
        <ele>174.4</ele>
        <time>2024-09-07T10:15:07Z</time>
      </trkpt>
      <trkpt lat="48.16553" lon="-3.57923">
        <ele>174.4</ele>
        <time>2024-09-07T10:15:08Z</time>
      </trkpt>
      <trkpt lat="48.16558" lon="-3.57923">
        <ele>174.4</ele>
        <time>2024-09-07T10:15:09Z</time>
      </trkpt>
      <trkpt lat="48.16562" lon="-3.57922">
        <ele>174.4</ele>
        <time>2024-09-07T10:15:10Z</time>
      </trkpt>
      <trkpt lat="48.16566" lon="-3.57923">
        <ele>174.4</ele>
        <time>2024-09-07T10:15:11Z</time>
      </trkpt>
      <trkpt lat="48.1657" lon="-3.57922">
        <ele>174.6</ele>
        <time>2024-09-07T10:15:12Z</time>
      </trkpt>
      <trkpt lat="48.16574" lon="-3.57921">
        <ele>174.8</ele>
        <time>2024-09-07T10:15:13Z</time>
      </trkpt>
      <trkpt lat="48.16579" lon="-3.57921">
        <ele>175</ele>
        <time>2024-09-07T10:15:14Z</time>
      </trkpt>
      <trkpt lat="48.16583" lon="-3.5792">
        <ele>175</ele>
        <time>2024-09-07T10:15:15Z</time>
      </trkpt>
      <trkpt lat="48.16587" lon="-3.57919">
        <ele>175.2</ele>
        <time>2024-09-07T10:15:16Z</time>
      </trkpt>
      <trkpt lat="48.16591" lon="-3.57917">
        <ele>175.4</ele>
        <time>2024-09-07T10:15:17Z</time>
      </trkpt>
      <trkpt lat="48.16596" lon="-3.57916">
        <ele>175.4</ele>
        <time>2024-09-07T10:15:18Z</time>
      </trkpt>
      <trkpt lat="48.16601" lon="-3.57914">
        <ele>175.6</ele>
        <time>2024-09-07T10:15:19Z</time>
      </trkpt>
      <trkpt lat="48.16606" lon="-3.57912">
        <ele>175.8</ele>
        <time>2024-09-07T10:15:20Z</time>
      </trkpt>
      <trkpt lat="48.16611" lon="-3.57911">
        <ele>175.8</ele>
        <time>2024-09-07T10:15:21Z</time>
      </trkpt>
      <trkpt lat="48.16615" lon="-3.57911">
        <ele>176</ele>
        <time>2024-09-07T10:15:22Z</time>
      </trkpt>
      <trkpt lat="48.16618" lon="-3.5791">
        <ele>176.2</ele>
        <time>2024-09-07T10:15:23Z</time>
      </trkpt>
      <trkpt lat="48.16621" lon="-3.57911">
        <ele>176.2</ele>
        <time>2024-09-07T10:15:24Z</time>
      </trkpt>
      <trkpt lat="48.16625" lon="-3.57912">
        <ele>176.2</ele>
        <time>2024-09-07T10:15:25Z</time>
      </trkpt>
      <trkpt lat="48.16628" lon="-3.57911">
        <ele>176.4</ele>
        <time>2024-09-07T10:15:26Z</time>
      </trkpt>
      <trkpt lat="48.16631" lon="-3.57911">
        <ele>176.6</ele>
        <time>2024-09-07T10:15:27Z</time>
      </trkpt>
      <trkpt lat="48.16635" lon="-3.57911">
        <ele>176.6</ele>
        <time>2024-09-07T10:15:28Z</time>
      </trkpt>
      <trkpt lat="48.16639" lon="-3.5791">
        <ele>176.8</ele>
        <time>2024-09-07T10:15:29Z</time>
      </trkpt>
      <trkpt lat="48.16641" lon="-3.57911">
        <ele>176.8</ele>
        <time>2024-09-07T10:15:30Z</time>
      </trkpt>
      <trkpt lat="48.16643" lon="-3.5791">
        <ele>177</ele>
        <time>2024-09-07T10:15:31Z</time>
      </trkpt>
      <trkpt lat="48.16644" lon="-3.57911">
        <ele>177.2</ele>
        <time>2024-09-07T10:15:32Z</time>
      </trkpt>
      <trkpt lat="48.16647" lon="-3.57912">
        <ele>177.4</ele>
        <time>2024-09-07T10:15:33Z</time>
      </trkpt>
      <trkpt lat="48.1665" lon="-3.57911">
        <ele>177.6</ele>
        <time>2024-09-07T10:15:34Z</time>
      </trkpt>
      <trkpt lat="48.16653" lon="-3.57912">
        <ele>177.8</ele>
        <time>2024-09-07T10:15:35Z</time>
      </trkpt>
      <trkpt lat="48.16657" lon="-3.57914">
        <ele>177.8</ele>
        <time>2024-09-07T10:15:36Z</time>
      </trkpt>
      <trkpt lat="48.16661" lon="-3.57916">
        <ele>178</ele>
        <time>2024-09-07T10:15:37Z</time>
      </trkpt>
      <trkpt lat="48.16663" lon="-3.57916">
        <ele>178.2</ele>
        <time>2024-09-07T10:15:38Z</time>
      </trkpt>
      <trkpt lat="48.16665" lon="-3.57917">
        <ele>178.6</ele>
        <time>2024-09-07T10:15:39Z</time>
      </trkpt>
      <trkpt lat="48.16667" lon="-3.57915">
        <ele>178.8</ele>
        <time>2024-09-07T10:15:40Z</time>
      </trkpt>
      <trkpt lat="48.16669" lon="-3.57913">
        <ele>179</ele>
        <time>2024-09-07T10:15:41Z</time>
      </trkpt>
      <trkpt lat="48.16671" lon="-3.57911">
        <ele>179.2</ele>
        <time>2024-09-07T10:15:42Z</time>
      </trkpt>
      <trkpt lat="48.16674" lon="-3.57908">
        <ele>179.2</ele>
        <time>2024-09-07T10:15:43Z</time>
      </trkpt>
      <trkpt lat="48.16678" lon="-3.57901">
        <ele>179.2</ele>
        <time>2024-09-07T10:15:44Z</time>
      </trkpt>
      <trkpt lat="48.1668" lon="-3.57897">
        <ele>179.4</ele>
        <time>2024-09-07T10:15:45Z</time>
      </trkpt>
      <trkpt lat="48.16683" lon="-3.57893">
        <ele>179.6</ele>
        <time>2024-09-07T10:15:46Z</time>
      </trkpt>
      <trkpt lat="48.16685" lon="-3.57889">
        <ele>180</ele>
        <time>2024-09-07T10:15:47Z</time>
      </trkpt>
      <trkpt lat="48.16687" lon="-3.57886">
        <ele>180.2</ele>
        <time>2024-09-07T10:15:48Z</time>
      </trkpt>
      <trkpt lat="48.1669" lon="-3.57882">
        <ele>180.6</ele>
        <time>2024-09-07T10:15:49Z</time>
      </trkpt>
      <trkpt lat="48.16691" lon="-3.57878">
        <ele>180.8</ele>
        <time>2024-09-07T10:15:50Z</time>
      </trkpt>
      <trkpt lat="48.16692" lon="-3.57876">
        <ele>181</ele>
        <time>2024-09-07T10:15:51Z</time>
      </trkpt>
      <trkpt lat="48.16694" lon="-3.57873">
        <ele>181.2</ele>
        <time>2024-09-07T10:15:52Z</time>
      </trkpt>
      <trkpt lat="48.16698" lon="-3.57868">
        <ele>181.4</ele>
        <time>2024-09-07T10:15:53Z</time>
      </trkpt>
      <trkpt lat="48.167" lon="-3.57864">
        <ele>181.6</ele>
        <time>2024-09-07T10:15:54Z</time>
      </trkpt>
      <trkpt lat="48.16703" lon="-3.57859">
        <ele>181.8</ele>
        <time>2024-09-07T10:15:55Z</time>
      </trkpt>
      <trkpt lat="48.16705" lon="-3.57855">
        <ele>182</ele>
        <time>2024-09-07T10:15:56Z</time>
      </trkpt>
      <trkpt lat="48.16706" lon="-3.57851">
        <ele>182.2</ele>
        <time>2024-09-07T10:15:57Z</time>
      </trkpt>
      <trkpt lat="48.16707" lon="-3.57849">
        <ele>182.4</ele>
        <time>2024-09-07T10:15:58Z</time>
      </trkpt>
      <trkpt lat="48.1671" lon="-3.57845">
        <ele>182.6</ele>
        <time>2024-09-07T10:15:59Z</time>
      </trkpt>
      <trkpt lat="48.16712" lon="-3.57842">
        <ele>182.8</ele>
        <time>2024-09-07T10:16:00Z</time>
      </trkpt>
      <trkpt lat="48.16714" lon="-3.57838">
        <ele>183</ele>
        <time>2024-09-07T10:16:01Z</time>
      </trkpt>
      <trkpt lat="48.16716" lon="-3.57834">
        <ele>183</ele>
        <time>2024-09-07T10:16:02Z</time>
      </trkpt>
      <trkpt lat="48.16718" lon="-3.5783">
        <ele>183.2</ele>
        <time>2024-09-07T10:16:03Z</time>
      </trkpt>
      <trkpt lat="48.16721" lon="-3.57824">
        <ele>183.2</ele>
        <time>2024-09-07T10:16:04Z</time>
      </trkpt>
      <trkpt lat="48.16723" lon="-3.5782">
        <ele>183.2</ele>
        <time>2024-09-07T10:16:05Z</time>
      </trkpt>
      <trkpt lat="48.16726" lon="-3.57816">
        <ele>183.4</ele>
        <time>2024-09-07T10:16:06Z</time>
      </trkpt>
      <trkpt lat="48.16729" lon="-3.57812">
        <ele>183.4</ele>
        <time>2024-09-07T10:16:07Z</time>
      </trkpt>
      <trkpt lat="48.16731" lon="-3.57807">
        <ele>183.6</ele>
        <time>2024-09-07T10:16:08Z</time>
      </trkpt>
      <trkpt lat="48.16734" lon="-3.57803">
        <ele>183.6</ele>
        <time>2024-09-07T10:16:09Z</time>
      </trkpt>
      <trkpt lat="48.16736" lon="-3.57799">
        <ele>183.6</ele>
        <time>2024-09-07T10:16:10Z</time>
      </trkpt>
      <trkpt lat="48.1674" lon="-3.57794">
        <ele>183.6</ele>
        <time>2024-09-07T10:16:11Z</time>
      </trkpt>
      <trkpt lat="48.16742" lon="-3.5779">
        <ele>183.8</ele>
        <time>2024-09-07T10:16:12Z</time>
      </trkpt>
      <trkpt lat="48.16745" lon="-3.57787">
        <ele>184</ele>
        <time>2024-09-07T10:16:13Z</time>
      </trkpt>
      <trkpt lat="48.16748" lon="-3.57783">
        <ele>184</ele>
        <time>2024-09-07T10:16:14Z</time>
      </trkpt>
      <trkpt lat="48.16749" lon="-3.57779">
        <ele>184</ele>
        <time>2024-09-07T10:16:15Z</time>
      </trkpt>
      <trkpt lat="48.16752" lon="-3.57775">
        <ele>184.2</ele>
        <time>2024-09-07T10:16:16Z</time>
      </trkpt>
      <trkpt lat="48.16755" lon="-3.57771">
        <ele>184.2</ele>
        <time>2024-09-07T10:16:17Z</time>
      </trkpt>
      <trkpt lat="48.16757" lon="-3.57768">
        <ele>184.4</ele>
        <time>2024-09-07T10:16:18Z</time>
      </trkpt>
      <trkpt lat="48.16761" lon="-3.57763">
        <ele>184.4</ele>
        <time>2024-09-07T10:16:19Z</time>
      </trkpt>
      <trkpt lat="48.16765" lon="-3.5776">
        <ele>184.8</ele>
        <time>2024-09-07T10:16:20Z</time>
      </trkpt>
      <trkpt lat="48.16768" lon="-3.57757">
        <ele>184.8</ele>
        <time>2024-09-07T10:16:21Z</time>
      </trkpt>
      <trkpt lat="48.16771" lon="-3.57753">
        <ele>185</ele>
        <time>2024-09-07T10:16:22Z</time>
      </trkpt>
      <trkpt lat="48.16774" lon="-3.5775">
        <ele>185</ele>
        <time>2024-09-07T10:16:23Z</time>
      </trkpt>
      <trkpt lat="48.16777" lon="-3.57748">
        <ele>185</ele>
        <time>2024-09-07T10:16:24Z</time>
      </trkpt>
      <trkpt lat="48.1678" lon="-3.57746">
        <ele>185.2</ele>
        <time>2024-09-07T10:16:25Z</time>
      </trkpt>
      <trkpt lat="48.16783" lon="-3.57744">
        <ele>185.4</ele>
        <time>2024-09-07T10:16:26Z</time>
      </trkpt>
      <trkpt lat="48.16786" lon="-3.57742">
        <ele>185.6</ele>
        <time>2024-09-07T10:16:27Z</time>
      </trkpt>
      <trkpt lat="48.16789" lon="-3.57739">
        <ele>185.8</ele>
        <time>2024-09-07T10:16:28Z</time>
      </trkpt>
      <trkpt lat="48.16792" lon="-3.57737">
        <ele>185.8</ele>
        <time>2024-09-07T10:16:29Z</time>
      </trkpt>
      <trkpt lat="48.16796" lon="-3.57734">
        <ele>185.8</ele>
        <time>2024-09-07T10:16:30Z</time>
      </trkpt>
      <trkpt lat="48.16799" lon="-3.57732">
        <ele>186</ele>
        <time>2024-09-07T10:16:31Z</time>
      </trkpt>
      <trkpt lat="48.16803" lon="-3.5773">
        <ele>186.2</ele>
        <time>2024-09-07T10:16:32Z</time>
      </trkpt>
      <trkpt lat="48.16807" lon="-3.57728">
        <ele>186.4</ele>
        <time>2024-09-07T10:16:33Z</time>
      </trkpt>
      <trkpt lat="48.1681" lon="-3.57726">
        <ele>186.6</ele>
        <time>2024-09-07T10:16:34Z</time>
      </trkpt>
      <trkpt lat="48.16814" lon="-3.57725">
        <ele>186.8</ele>
        <time>2024-09-07T10:16:35Z</time>
      </trkpt>
      <trkpt lat="48.16817" lon="-3.57724">
        <ele>186.8</ele>
        <time>2024-09-07T10:16:36Z</time>
      </trkpt>
      <trkpt lat="48.16821" lon="-3.57723">
        <ele>187</ele>
        <time>2024-09-07T10:16:37Z</time>
      </trkpt>
      <trkpt lat="48.16826" lon="-3.57722">
        <ele>187</ele>
        <time>2024-09-07T10:16:38Z</time>
      </trkpt>
      <trkpt lat="48.16831" lon="-3.57719">
        <ele>187.2</ele>
        <time>2024-09-07T10:16:39Z</time>
      </trkpt>
      <trkpt lat="48.16834" lon="-3.57718">
        <ele>187.2</ele>
        <time>2024-09-07T10:16:40Z</time>
      </trkpt>
      <trkpt lat="48.1684" lon="-3.57716">
        <ele>187.4</ele>
        <time>2024-09-07T10:16:41Z</time>
      </trkpt>
      <trkpt lat="48.16844" lon="-3.57715">
        <ele>187.4</ele>
        <time>2024-09-07T10:16:42Z</time>
      </trkpt>
      <trkpt lat="48.16848" lon="-3.57714">
        <ele>187.6</ele>
        <time>2024-09-07T10:16:43Z</time>
      </trkpt>
      <trkpt lat="48.16852" lon="-3.57712">
        <ele>187.6</ele>
        <time>2024-09-07T10:16:44Z</time>
      </trkpt>
      <trkpt lat="48.16855" lon="-3.57712">
        <ele>187.6</ele>
        <time>2024-09-07T10:16:45Z</time>
      </trkpt>
      <trkpt lat="48.16858" lon="-3.57712">
        <ele>187.8</ele>
        <time>2024-09-07T10:16:46Z</time>
      </trkpt>
      <trkpt lat="48.16863" lon="-3.57713">
        <ele>187.8</ele>
        <time>2024-09-07T10:16:47Z</time>
      </trkpt>
      <trkpt lat="48.16867" lon="-3.57714">
        <ele>187.8</ele>
        <time>2024-09-07T10:16:48Z</time>
      </trkpt>
      <trkpt lat="48.1687" lon="-3.57714">
        <ele>188</ele>
        <time>2024-09-07T10:16:49Z</time>
      </trkpt>
      <trkpt lat="48.16875" lon="-3.57715">
        <ele>188</ele>
        <time>2024-09-07T10:16:50Z</time>
      </trkpt>
      <trkpt lat="48.16878" lon="-3.57716">
        <ele>188.2</ele>
        <time>2024-09-07T10:16:51Z</time>
      </trkpt>
      <trkpt lat="48.16882" lon="-3.57717">
        <ele>188.4</ele>
        <time>2024-09-07T10:16:52Z</time>
      </trkpt>
      <trkpt lat="48.16886" lon="-3.57717">
        <ele>188.6</ele>
        <time>2024-09-07T10:16:53Z</time>
      </trkpt>
      <trkpt lat="48.1689" lon="-3.57719">
        <ele>188.8</ele>
        <time>2024-09-07T10:16:54Z</time>
      </trkpt>
      <trkpt lat="48.16895" lon="-3.5772">
        <ele>189</ele>
        <time>2024-09-07T10:16:55Z</time>
      </trkpt>
      <trkpt lat="48.16899" lon="-3.57721">
        <ele>189.2</ele>
        <time>2024-09-07T10:16:56Z</time>
      </trkpt>
      <trkpt lat="48.16903" lon="-3.57722">
        <ele>189.4</ele>
        <time>2024-09-07T10:16:57Z</time>
      </trkpt>
      <trkpt lat="48.16906" lon="-3.57722">
        <ele>189.6</ele>
        <time>2024-09-07T10:16:58Z</time>
      </trkpt>
      <trkpt lat="48.16909" lon="-3.57721">
        <ele>189.8</ele>
        <time>2024-09-07T10:16:59Z</time>
      </trkpt>
      <trkpt lat="48.16913" lon="-3.57721">
        <ele>189.8</ele>
        <time>2024-09-07T10:17:00Z</time>
      </trkpt>
      <trkpt lat="48.16916" lon="-3.57721">
        <ele>190.2</ele>
        <time>2024-09-07T10:17:01Z</time>
      </trkpt>
      <trkpt lat="48.16919" lon="-3.5772">
        <ele>190.2</ele>
        <time>2024-09-07T10:17:02Z</time>
      </trkpt>
      <trkpt lat="48.16922" lon="-3.57719">
        <ele>190.2</ele>
        <time>2024-09-07T10:17:03Z</time>
      </trkpt>
      <trkpt lat="48.16924" lon="-3.5772">
        <ele>190.2</ele>
        <time>2024-09-07T10:17:04Z</time>
      </trkpt>
      <trkpt lat="48.16927" lon="-3.57721">
        <ele>190.4</ele>
        <time>2024-09-07T10:17:05Z</time>
      </trkpt>
      <trkpt lat="48.16929" lon="-3.57722">
        <ele>190.4</ele>
        <time>2024-09-07T10:17:06Z</time>
      </trkpt>
      <trkpt lat="48.16932" lon="-3.57723">
        <ele>190.8</ele>
        <time>2024-09-07T10:17:07Z</time>
      </trkpt>
      <trkpt lat="48.16936" lon="-3.57725">
        <ele>191</ele>
        <time>2024-09-07T10:17:08Z</time>
      </trkpt>
      <trkpt lat="48.16939" lon="-3.57727">
        <ele>191</ele>
        <time>2024-09-07T10:17:09Z</time>
      </trkpt>
      <trkpt lat="48.16943" lon="-3.5773">
        <ele>191</ele>
        <time>2024-09-07T10:17:10Z</time>
      </trkpt>
      <trkpt lat="48.16948" lon="-3.57733">
        <ele>191.2</ele>
        <time>2024-09-07T10:17:11Z</time>
      </trkpt>
      <trkpt lat="48.16954" lon="-3.57736">
        <ele>191.2</ele>
        <time>2024-09-07T10:17:12Z</time>
      </trkpt>
      <trkpt lat="48.16958" lon="-3.57738">
        <ele>191.2</ele>
        <time>2024-09-07T10:17:13Z</time>
      </trkpt>
      <trkpt lat="48.16965" lon="-3.57742">
        <ele>191.2</ele>
        <time>2024-09-07T10:17:14Z</time>
      </trkpt>
      <trkpt lat="48.16971" lon="-3.57745">
        <ele>191.2</ele>
        <time>2024-09-07T10:17:15Z</time>
      </trkpt>
      <trkpt lat="48.16977" lon="-3.57748">
        <ele>191.2</ele>
        <time>2024-09-07T10:17:16Z</time>
      </trkpt>
      <trkpt lat="48.16985" lon="-3.57752">
        <ele>191.2</ele>
        <time>2024-09-07T10:17:17Z</time>
      </trkpt>
      <trkpt lat="48.1699" lon="-3.57754">
        <ele>191</ele>
        <time>2024-09-07T10:17:18Z</time>
      </trkpt>
      <trkpt lat="48.16996" lon="-3.57757">
        <ele>190.6</ele>
        <time>2024-09-07T10:17:19Z</time>
      </trkpt>
      <trkpt lat="48.17001" lon="-3.5776">
        <ele>190.4</ele>
        <time>2024-09-07T10:17:20Z</time>
      </trkpt>
      <trkpt lat="48.17008" lon="-3.57764">
        <ele>190</ele>
        <time>2024-09-07T10:17:21Z</time>
      </trkpt>
      <trkpt lat="48.17013" lon="-3.57767">
        <ele>189.6</ele>
        <time>2024-09-07T10:17:22Z</time>
      </trkpt>
      <trkpt lat="48.17019" lon="-3.5777">
        <ele>189.2</ele>
        <time>2024-09-07T10:17:23Z</time>
      </trkpt>
      <trkpt lat="48.17024" lon="-3.57773">
        <ele>189.2</ele>
        <time>2024-09-07T10:17:24Z</time>
      </trkpt>
      <trkpt lat="48.17029" lon="-3.57774">
        <ele>188.8</ele>
        <time>2024-09-07T10:17:25Z</time>
      </trkpt>
      <trkpt lat="48.17033" lon="-3.57774">
        <ele>188.4</ele>
        <time>2024-09-07T10:17:26Z</time>
      </trkpt>
      <trkpt lat="48.17038" lon="-3.57769">
        <ele>188</ele>
        <time>2024-09-07T10:17:27Z</time>
      </trkpt>
      <trkpt lat="48.17042" lon="-3.57763">
        <ele>187.4</ele>
        <time>2024-09-07T10:17:28Z</time>
      </trkpt>
      <trkpt lat="48.17046" lon="-3.57758">
        <ele>187</ele>
        <time>2024-09-07T10:17:29Z</time>
      </trkpt>
      <trkpt lat="48.1705" lon="-3.57747">
        <ele>186.4</ele>
        <time>2024-09-07T10:17:30Z</time>
      </trkpt>
      <trkpt lat="48.17052" lon="-3.5774">
        <ele>186</ele>
        <time>2024-09-07T10:17:31Z</time>
      </trkpt>
      <trkpt lat="48.17056" lon="-3.57731">
        <ele>185.4</ele>
        <time>2024-09-07T10:17:32Z</time>
      </trkpt>
      <trkpt lat="48.17059" lon="-3.5772">
        <ele>184.8</ele>
        <time>2024-09-07T10:17:33Z</time>
      </trkpt>
      <trkpt lat="48.17062" lon="-3.57713">
        <ele>184.4</ele>
        <time>2024-09-07T10:17:34Z</time>
      </trkpt>
      <trkpt lat="48.17066" lon="-3.57703">
        <ele>184.2</ele>
        <time>2024-09-07T10:17:35Z</time>
      </trkpt>
      <trkpt lat="48.17069" lon="-3.57696">
        <ele>183.6</ele>
        <time>2024-09-07T10:17:36Z</time>
      </trkpt>
      <trkpt lat="48.17072" lon="-3.57689">
        <ele>183.2</ele>
        <time>2024-09-07T10:17:37Z</time>
      </trkpt>
      <trkpt lat="48.17077" lon="-3.57679">
        <ele>182.6</ele>
        <time>2024-09-07T10:17:38Z</time>
      </trkpt>
      <trkpt lat="48.1708" lon="-3.57671">
        <ele>182.4</ele>
        <time>2024-09-07T10:17:39Z</time>
      </trkpt>
      <trkpt lat="48.17084" lon="-3.57663">
        <ele>182.4</ele>
        <time>2024-09-07T10:17:40Z</time>
      </trkpt>
      <trkpt lat="48.17089" lon="-3.57656">
        <ele>182.2</ele>
        <time>2024-09-07T10:17:41Z</time>
      </trkpt>
      <trkpt lat="48.17095" lon="-3.57649">
        <ele>182.2</ele>
        <time>2024-09-07T10:17:42Z</time>
      </trkpt>
      <trkpt lat="48.17101" lon="-3.57641">
        <ele>182.2</ele>
        <time>2024-09-07T10:17:43Z</time>
      </trkpt>
      <trkpt lat="48.17108" lon="-3.57631">
        <ele>182.2</ele>
        <time>2024-09-07T10:17:44Z</time>
      </trkpt>
      <trkpt lat="48.17113" lon="-3.57623">
        <ele>182</ele>
        <time>2024-09-07T10:17:45Z</time>
      </trkpt>
      <trkpt lat="48.17119" lon="-3.57617">
        <ele>182</ele>
        <time>2024-09-07T10:17:46Z</time>
      </trkpt>
      <trkpt lat="48.17125" lon="-3.57613">
        <ele>181.8</ele>
        <time>2024-09-07T10:17:47Z</time>
      </trkpt>
      <trkpt lat="48.1713" lon="-3.57607">
        <ele>181.8</ele>
        <time>2024-09-07T10:17:48Z</time>
      </trkpt>
      <trkpt lat="48.17134" lon="-3.57601">
        <ele>181.8</ele>
        <time>2024-09-07T10:17:49Z</time>
      </trkpt>
      <trkpt lat="48.1714" lon="-3.57594">
        <ele>181.8</ele>
        <time>2024-09-07T10:17:50Z</time>
      </trkpt>
      <trkpt lat="48.17144" lon="-3.57589">
        <ele>181.6</ele>
        <time>2024-09-07T10:17:51Z</time>
      </trkpt>
      <trkpt lat="48.17148" lon="-3.57582">
        <ele>181.6</ele>
        <time>2024-09-07T10:17:52Z</time>
      </trkpt>
      <trkpt lat="48.17152" lon="-3.57575">
        <ele>181.6</ele>
        <time>2024-09-07T10:17:53Z</time>
      </trkpt>
      <trkpt lat="48.17157" lon="-3.57569">
        <ele>181.6</ele>
        <time>2024-09-07T10:17:54Z</time>
      </trkpt>
      <trkpt lat="48.17161" lon="-3.57562">
        <ele>181.6</ele>
        <time>2024-09-07T10:17:55Z</time>
      </trkpt>
      <trkpt lat="48.17166" lon="-3.57556">
        <ele>181.6</ele>
        <time>2024-09-07T10:17:56Z</time>
      </trkpt>
      <trkpt lat="48.1717" lon="-3.5755">
        <ele>181.6</ele>
        <time>2024-09-07T10:17:57Z</time>
      </trkpt>
      <trkpt lat="48.17173" lon="-3.57544">
        <ele>181.6</ele>
        <time>2024-09-07T10:17:58Z</time>
      </trkpt>
      <trkpt lat="48.17178" lon="-3.57537">
        <ele>181.6</ele>
        <time>2024-09-07T10:17:59Z</time>
      </trkpt>
      <trkpt lat="48.17182" lon="-3.57532">
        <ele>181.6</ele>
        <time>2024-09-07T10:18:00Z</time>
      </trkpt>
      <trkpt lat="48.17185" lon="-3.57529">
        <ele>181.8</ele>
        <time>2024-09-07T10:18:01Z</time>
      </trkpt>
      <trkpt lat="48.17189" lon="-3.57524">
        <ele>181.8</ele>
        <time>2024-09-07T10:18:02Z</time>
      </trkpt>
      <trkpt lat="48.17193" lon="-3.57519">
        <ele>182</ele>
        <time>2024-09-07T10:18:03Z</time>
      </trkpt>
      <trkpt lat="48.17197" lon="-3.57514">
        <ele>182</ele>
        <time>2024-09-07T10:18:04Z</time>
      </trkpt>
      <trkpt lat="48.17201" lon="-3.57508">
        <ele>182.2</ele>
        <time>2024-09-07T10:18:05Z</time>
      </trkpt>
      <trkpt lat="48.17204" lon="-3.57504">
        <ele>182.2</ele>
        <time>2024-09-07T10:18:06Z</time>
      </trkpt>
      <trkpt lat="48.17209" lon="-3.57499">
        <ele>182.2</ele>
        <time>2024-09-07T10:18:07Z</time>
      </trkpt>
      <trkpt lat="48.17212" lon="-3.57495">
        <ele>182.4</ele>
        <time>2024-09-07T10:18:08Z</time>
      </trkpt>
      <trkpt lat="48.17216" lon="-3.57492">
        <ele>182.4</ele>
        <time>2024-09-07T10:18:09Z</time>
      </trkpt>
      <trkpt lat="48.17219" lon="-3.57489">
        <ele>182.6</ele>
        <time>2024-09-07T10:18:10Z</time>
      </trkpt>
      <trkpt lat="48.17223" lon="-3.57485">
        <ele>182.8</ele>
        <time>2024-09-07T10:18:11Z</time>
      </trkpt>
      <trkpt lat="48.17226" lon="-3.57481">
        <ele>182.8</ele>
        <time>2024-09-07T10:18:12Z</time>
      </trkpt>
      <trkpt lat="48.17229" lon="-3.57477">
        <ele>182.8</ele>
        <time>2024-09-07T10:18:13Z</time>
      </trkpt>
      <trkpt lat="48.17233" lon="-3.57472">
        <ele>182.8</ele>
        <time>2024-09-07T10:18:14Z</time>
      </trkpt>
      <trkpt lat="48.17237" lon="-3.57466">
        <ele>183</ele>
        <time>2024-09-07T10:18:15Z</time>
      </trkpt>
      <trkpt lat="48.17242" lon="-3.57461">
        <ele>183</ele>
        <time>2024-09-07T10:18:16Z</time>
      </trkpt>
      <trkpt lat="48.17246" lon="-3.57456">
        <ele>183</ele>
        <time>2024-09-07T10:18:17Z</time>
      </trkpt>
      <trkpt lat="48.1725" lon="-3.57451">
        <ele>183</ele>
        <time>2024-09-07T10:18:18Z</time>
      </trkpt>
      <trkpt lat="48.17254" lon="-3.57445">
        <ele>183</ele>
        <time>2024-09-07T10:18:19Z</time>
      </trkpt>
      <trkpt lat="48.17258" lon="-3.5744">
        <ele>183</ele>
        <time>2024-09-07T10:18:20Z</time>
      </trkpt>
      <trkpt lat="48.17262" lon="-3.57434">
        <ele>183</ele>
        <time>2024-09-07T10:18:21Z</time>
      </trkpt>
      <trkpt lat="48.17267" lon="-3.57428">
        <ele>183.2</ele>
        <time>2024-09-07T10:18:22Z</time>
      </trkpt>
      <trkpt lat="48.1727" lon="-3.57425">
        <ele>183.2</ele>
        <time>2024-09-07T10:18:23Z</time>
      </trkpt>
      <trkpt lat="48.17274" lon="-3.57422">
        <ele>183.2</ele>
        <time>2024-09-07T10:18:24Z</time>
      </trkpt>
      <trkpt lat="48.17277" lon="-3.5742">
        <ele>183.2</ele>
        <time>2024-09-07T10:18:25Z</time>
      </trkpt>
      <trkpt lat="48.17281" lon="-3.57417">
        <ele>183.4</ele>
        <time>2024-09-07T10:18:26Z</time>
      </trkpt>
      <trkpt lat="48.17285" lon="-3.57414">
        <ele>183.4</ele>
        <time>2024-09-07T10:18:27Z</time>
      </trkpt>
      <trkpt lat="48.17289" lon="-3.57411">
        <ele>183.4</ele>
        <time>2024-09-07T10:18:28Z</time>
      </trkpt>
      <trkpt lat="48.17292" lon="-3.57409">
        <ele>183.2</ele>
        <time>2024-09-07T10:18:29Z</time>
      </trkpt>
      <trkpt lat="48.17296" lon="-3.57407">
        <ele>183.2</ele>
        <time>2024-09-07T10:18:30Z</time>
      </trkpt>
      <trkpt lat="48.173" lon="-3.57406">
        <ele>183.2</ele>
        <time>2024-09-07T10:18:31Z</time>
      </trkpt>
      <trkpt lat="48.17305" lon="-3.57407">
        <ele>183.2</ele>
        <time>2024-09-07T10:18:32Z</time>
      </trkpt>
      <trkpt lat="48.1731" lon="-3.5741">
        <ele>183.2</ele>
        <time>2024-09-07T10:18:33Z</time>
      </trkpt>
      <trkpt lat="48.17316" lon="-3.57415">
        <ele>183.2</ele>
        <time>2024-09-07T10:18:34Z</time>
      </trkpt>
      <trkpt lat="48.17322" lon="-3.57419">
        <ele>183</ele>
        <time>2024-09-07T10:18:35Z</time>
      </trkpt>
      <trkpt lat="48.17326" lon="-3.57424">
        <ele>183</ele>
        <time>2024-09-07T10:18:36Z</time>
      </trkpt>
      <trkpt lat="48.1733" lon="-3.57428">
        <ele>183</ele>
        <time>2024-09-07T10:18:37Z</time>
      </trkpt>
      <trkpt lat="48.17334" lon="-3.57431">
        <ele>183</ele>
        <time>2024-09-07T10:18:38Z</time>
      </trkpt>
      <trkpt lat="48.17336" lon="-3.57434">
        <ele>183</ele>
        <time>2024-09-07T10:18:39Z</time>
      </trkpt>
      <trkpt lat="48.17339" lon="-3.57436">
        <ele>182.8</ele>
        <time>2024-09-07T10:18:40Z</time>
      </trkpt>
      <trkpt lat="48.17342" lon="-3.57437">
        <ele>182.6</ele>
        <time>2024-09-07T10:18:41Z</time>
      </trkpt>
      <trkpt lat="48.17344" lon="-3.57438">
        <ele>182.2</ele>
        <time>2024-09-07T10:18:42Z</time>
      </trkpt>
      <trkpt lat="48.17346" lon="-3.57439">
        <ele>182</ele>
        <time>2024-09-07T10:18:43Z</time>
      </trkpt>
      <trkpt lat="48.17348" lon="-3.5744">
        <ele>182</ele>
        <time>2024-09-07T10:18:44Z</time>
      </trkpt>
      <trkpt lat="48.17351" lon="-3.57441">
        <ele>181.6</ele>
        <time>2024-09-07T10:18:45Z</time>
      </trkpt>
      <trkpt lat="48.17353" lon="-3.57442">
        <ele>181</ele>
        <time>2024-09-07T10:18:46Z</time>
      </trkpt>
      <trkpt lat="48.17355" lon="-3.57443">
        <ele>180.6</ele>
        <time>2024-09-07T10:18:47Z</time>
      </trkpt>
      <trkpt lat="48.17363" lon="-3.57443">
        <ele>180.2</ele>
        <time>2024-09-07T10:18:48Z</time>
      </trkpt>
      <trkpt lat="48.17372" lon="-3.57437">
        <ele>180</ele>
        <time>2024-09-07T10:18:49Z</time>
      </trkpt>
      <trkpt lat="48.17376" lon="-3.5743">
        <ele>179.8</ele>
        <time>2024-09-07T10:18:50Z</time>
      </trkpt>
      <trkpt lat="48.1738" lon="-3.57421">
        <ele>179.6</ele>
        <time>2024-09-07T10:18:51Z</time>
      </trkpt>
      <trkpt lat="48.17384" lon="-3.57414">
        <ele>179.4</ele>
        <time>2024-09-07T10:18:52Z</time>
      </trkpt>
      <trkpt lat="48.17388" lon="-3.57403">
        <ele>179.4</ele>
        <time>2024-09-07T10:18:53Z</time>
      </trkpt>
      <trkpt lat="48.17392" lon="-3.57395">
        <ele>179.4</ele>
        <time>2024-09-07T10:18:54Z</time>
      </trkpt>
      <trkpt lat="48.17395" lon="-3.57388">
        <ele>179</ele>
        <time>2024-09-07T10:18:55Z</time>
      </trkpt>
      <trkpt lat="48.17399" lon="-3.57379">
        <ele>178.6</ele>
        <time>2024-09-07T10:18:56Z</time>
      </trkpt>
      <trkpt lat="48.17402" lon="-3.57373">
        <ele>178.4</ele>
        <time>2024-09-07T10:18:57Z</time>
      </trkpt>
      <trkpt lat="48.17405" lon="-3.57366">
        <ele>178</ele>
        <time>2024-09-07T10:18:58Z</time>
      </trkpt>
      <trkpt lat="48.17407" lon="-3.57361">
        <ele>177.8</ele>
        <time>2024-09-07T10:18:59Z</time>
      </trkpt>
      <trkpt lat="48.17409" lon="-3.57356">
        <ele>177.6</ele>
        <time>2024-09-07T10:19:00Z</time>
      </trkpt>
      <trkpt lat="48.17411" lon="-3.57352">
        <ele>177.4</ele>
        <time>2024-09-07T10:19:01Z</time>
      </trkpt>
      <trkpt lat="48.17414" lon="-3.57348">
        <ele>177.2</ele>
        <time>2024-09-07T10:19:02Z</time>
      </trkpt>
      <trkpt lat="48.17416" lon="-3.57344">
        <ele>177.2</ele>
        <time>2024-09-07T10:19:03Z</time>
      </trkpt>
      <trkpt lat="48.17418" lon="-3.57341">
        <ele>177.2</ele>
        <time>2024-09-07T10:19:04Z</time>
      </trkpt>
      <trkpt lat="48.1742" lon="-3.57338">
        <ele>177.2</ele>
        <time>2024-09-07T10:19:05Z</time>
      </trkpt>
      <trkpt lat="48.17421" lon="-3.57336">
        <ele>177</ele>
        <time>2024-09-07T10:19:06Z</time>
      </trkpt>
      <trkpt lat="48.17422" lon="-3.57333">
        <ele>177</ele>
        <time>2024-09-07T10:19:07Z</time>
      </trkpt>
      <trkpt lat="48.17424" lon="-3.5733">
        <ele>177</ele>
        <time>2024-09-07T10:19:08Z</time>
      </trkpt>
      <trkpt lat="48.17426" lon="-3.57328">
        <ele>177</ele>
        <time>2024-09-07T10:19:09Z</time>
      </trkpt>
      <trkpt lat="48.17427" lon="-3.57327">
        <ele>177</ele>
        <time>2024-09-07T10:19:10Z</time>
      </trkpt>
      <trkpt lat="48.17429" lon="-3.57326">
        <ele>176.8</ele>
        <time>2024-09-07T10:19:11Z</time>
      </trkpt>
      <trkpt lat="48.17431" lon="-3.57325">
        <ele>176.8</ele>
        <time>2024-09-07T10:19:12Z</time>
      </trkpt>
      <trkpt lat="48.17434" lon="-3.57326">
        <ele>176.6</ele>
        <time>2024-09-07T10:19:13Z</time>
      </trkpt>
      <trkpt lat="48.17437" lon="-3.57328">
        <ele>176.6</ele>
        <time>2024-09-07T10:19:14Z</time>
      </trkpt>
      <trkpt lat="48.1744" lon="-3.57332">
        <ele>176.4</ele>
        <time>2024-09-07T10:19:15Z</time>
      </trkpt>
      <trkpt lat="48.17444" lon="-3.57336">
        <ele>176.4</ele>
        <time>2024-09-07T10:19:16Z</time>
      </trkpt>
      <trkpt lat="48.17447" lon="-3.57338">
        <ele>176.4</ele>
        <time>2024-09-07T10:19:17Z</time>
      </trkpt>
      <trkpt lat="48.17451" lon="-3.57337">
        <ele>176.4</ele>
        <time>2024-09-07T10:19:18Z</time>
      </trkpt>
      <trkpt lat="48.17454" lon="-3.57335">
        <ele>176.4</ele>
        <time>2024-09-07T10:19:19Z</time>
      </trkpt>
      <trkpt lat="48.17455" lon="-3.57331">
        <ele>176</ele>
        <time>2024-09-07T10:19:20Z</time>
      </trkpt>
      <trkpt lat="48.17456" lon="-3.57327">
        <ele>176</ele>
        <time>2024-09-07T10:19:21Z</time>
      </trkpt>
      <trkpt lat="48.17457" lon="-3.57322">
        <ele>175.6</ele>
        <time>2024-09-07T10:19:22Z</time>
      </trkpt>
      <trkpt lat="48.17456" lon="-3.57318">
        <ele>175.4</ele>
        <time>2024-09-07T10:19:23Z</time>
      </trkpt>
      <trkpt lat="48.17456" lon="-3.57315">
        <ele>175.4</ele>
        <time>2024-09-07T10:19:24Z</time>
      </trkpt>
      <trkpt lat="48.17457" lon="-3.57312">
        <ele>175.2</ele>
        <time>2024-09-07T10:19:25Z</time>
      </trkpt>
      <trkpt lat="48.17459" lon="-3.57308">
        <ele>175</ele>
        <time>2024-09-07T10:19:26Z</time>
      </trkpt>
      <trkpt lat="48.1746" lon="-3.57304">
        <ele>174.8</ele>
        <time>2024-09-07T10:19:27Z</time>
      </trkpt>
      <trkpt lat="48.17461" lon="-3.57299">
        <ele>174.6</ele>
        <time>2024-09-07T10:19:28Z</time>
      </trkpt>
      <trkpt lat="48.17462" lon="-3.57294">
        <ele>174.6</ele>
        <time>2024-09-07T10:19:29Z</time>
      </trkpt>
      <trkpt lat="48.17463" lon="-3.57287">
        <ele>174.4</ele>
        <time>2024-09-07T10:19:30Z</time>
      </trkpt>
      <trkpt lat="48.17464" lon="-3.57281">
        <ele>174.4</ele>
        <time>2024-09-07T10:19:31Z</time>
      </trkpt>
      <trkpt lat="48.17466" lon="-3.57273">
        <ele>174.2</ele>
        <time>2024-09-07T10:19:32Z</time>
      </trkpt>
      <trkpt lat="48.17467" lon="-3.57266">
        <ele>174.2</ele>
        <time>2024-09-07T10:19:33Z</time>
      </trkpt>
      <trkpt lat="48.17469" lon="-3.57258">
        <ele>174.2</ele>
        <time>2024-09-07T10:19:34Z</time>
      </trkpt>
      <trkpt lat="48.17471" lon="-3.57249">
        <ele>174</ele>
        <time>2024-09-07T10:19:35Z</time>
      </trkpt>
      <trkpt lat="48.17472" lon="-3.5724">
        <ele>174</ele>
        <time>2024-09-07T10:19:36Z</time>
      </trkpt>
      <trkpt lat="48.17474" lon="-3.5723">
        <ele>174</ele>
        <time>2024-09-07T10:19:37Z</time>
      </trkpt>
      <trkpt lat="48.17476" lon="-3.5722">
        <ele>173.8</ele>
        <time>2024-09-07T10:19:38Z</time>
      </trkpt>
      <trkpt lat="48.17477" lon="-3.5721">
        <ele>173.8</ele>
        <time>2024-09-07T10:19:39Z</time>
      </trkpt>
      <trkpt lat="48.17479" lon="-3.572">
        <ele>173.8</ele>
        <time>2024-09-07T10:19:40Z</time>
      </trkpt>
      <trkpt lat="48.17481" lon="-3.5719">
        <ele>173.6</ele>
        <time>2024-09-07T10:19:41Z</time>
      </trkpt>
      <trkpt lat="48.17484" lon="-3.57179">
        <ele>173.4</ele>
        <time>2024-09-07T10:19:42Z</time>
      </trkpt>
      <trkpt lat="48.17486" lon="-3.57169">
        <ele>173.4</ele>
        <time>2024-09-07T10:19:43Z</time>
      </trkpt>
      <trkpt lat="48.17488" lon="-3.57159">
        <ele>173.4</ele>
        <time>2024-09-07T10:19:44Z</time>
      </trkpt>
      <trkpt lat="48.17489" lon="-3.57149">
        <ele>173.2</ele>
        <time>2024-09-07T10:19:45Z</time>
      </trkpt>
      <trkpt lat="48.17491" lon="-3.57139">
        <ele>173</ele>
        <time>2024-09-07T10:19:46Z</time>
      </trkpt>
      <trkpt lat="48.17493" lon="-3.5713">
        <ele>172.8</ele>
        <time>2024-09-07T10:19:47Z</time>
      </trkpt>
      <trkpt lat="48.17495" lon="-3.57122">
        <ele>172.8</ele>
        <time>2024-09-07T10:19:48Z</time>
      </trkpt>
      <trkpt lat="48.17498" lon="-3.57113">
        <ele>172.6</ele>
        <time>2024-09-07T10:19:49Z</time>
      </trkpt>
      <trkpt lat="48.17499" lon="-3.57105">
        <ele>172.4</ele>
        <time>2024-09-07T10:19:50Z</time>
      </trkpt>
      <trkpt lat="48.17502" lon="-3.57096">
        <ele>172.4</ele>
        <time>2024-09-07T10:19:51Z</time>
      </trkpt>
      <trkpt lat="48.17505" lon="-3.57087">
        <ele>172.2</ele>
        <time>2024-09-07T10:19:52Z</time>
      </trkpt>
      <trkpt lat="48.17508" lon="-3.57078">
        <ele>172.2</ele>
        <time>2024-09-07T10:19:53Z</time>
      </trkpt>
      <trkpt lat="48.17511" lon="-3.5707">
        <ele>172</ele>
        <time>2024-09-07T10:19:54Z</time>
      </trkpt>
      <trkpt lat="48.17514" lon="-3.57061">
        <ele>172</ele>
        <time>2024-09-07T10:19:55Z</time>
      </trkpt>
      <trkpt lat="48.17518" lon="-3.57053">
        <ele>172</ele>
        <time>2024-09-07T10:19:56Z</time>
      </trkpt>
      <trkpt lat="48.17521" lon="-3.57047">
        <ele>171.8</ele>
        <time>2024-09-07T10:19:57Z</time>
      </trkpt>
      <trkpt lat="48.17525" lon="-3.57038">
        <ele>171.8</ele>
        <time>2024-09-07T10:19:58Z</time>
      </trkpt>
      <trkpt lat="48.17528" lon="-3.5703">
        <ele>171.8</ele>
        <time>2024-09-07T10:19:59Z</time>
      </trkpt>
      <trkpt lat="48.17533" lon="-3.57022">
        <ele>171.8</ele>
        <time>2024-09-07T10:20:00Z</time>
      </trkpt>
      <trkpt lat="48.17537" lon="-3.57016">
        <ele>171.6</ele>
        <time>2024-09-07T10:20:01Z</time>
      </trkpt>
      <trkpt lat="48.17542" lon="-3.57008">
        <ele>171.4</ele>
        <time>2024-09-07T10:20:02Z</time>
      </trkpt>
      <trkpt lat="48.17546" lon="-3.57001">
        <ele>171.2</ele>
        <time>2024-09-07T10:20:03Z</time>
      </trkpt>
      <trkpt lat="48.1755" lon="-3.56995">
        <ele>171.2</ele>
        <time>2024-09-07T10:20:04Z</time>
      </trkpt>
      <trkpt lat="48.17554" lon="-3.56988">
        <ele>171.2</ele>
        <time>2024-09-07T10:20:05Z</time>
      </trkpt>
      <trkpt lat="48.17559" lon="-3.56981">
        <ele>171</ele>
        <time>2024-09-07T10:20:06Z</time>
      </trkpt>
      <trkpt lat="48.17563" lon="-3.56974">
        <ele>171</ele>
        <time>2024-09-07T10:20:07Z</time>
      </trkpt>
      <trkpt lat="48.17567" lon="-3.56967">
        <ele>170.8</ele>
        <time>2024-09-07T10:20:08Z</time>
      </trkpt>
      <trkpt lat="48.17571" lon="-3.56961">
        <ele>170.6</ele>
        <time>2024-09-07T10:20:09Z</time>
      </trkpt>
      <trkpt lat="48.17575" lon="-3.56955">
        <ele>170.6</ele>
        <time>2024-09-07T10:20:10Z</time>
      </trkpt>
      <trkpt lat="48.17579" lon="-3.5695">
        <ele>170.8</ele>
        <time>2024-09-07T10:20:11Z</time>
      </trkpt>
      <trkpt lat="48.17583" lon="-3.56945">
        <ele>170.8</ele>
        <time>2024-09-07T10:20:12Z</time>
      </trkpt>
      <trkpt lat="48.17589" lon="-3.56938">
        <ele>170.4</ele>
        <time>2024-09-07T10:20:13Z</time>
      </trkpt>
      <trkpt lat="48.17592" lon="-3.56932">
        <ele>170.6</ele>
        <time>2024-09-07T10:20:14Z</time>
      </trkpt>
      <trkpt lat="48.17596" lon="-3.56923">
        <ele>170.2</ele>
        <time>2024-09-07T10:20:15Z</time>
      </trkpt>
      <trkpt lat="48.17602" lon="-3.56914">
        <ele>170</ele>
        <time>2024-09-07T10:20:16Z</time>
      </trkpt>
      <trkpt lat="48.17607" lon="-3.56907">
        <ele>170</ele>
        <time>2024-09-07T10:20:17Z</time>
      </trkpt>
      <trkpt lat="48.17612" lon="-3.569">
        <ele>169.8</ele>
        <time>2024-09-07T10:20:18Z</time>
      </trkpt>
      <trkpt lat="48.17617" lon="-3.56893">
        <ele>169.6</ele>
        <time>2024-09-07T10:20:19Z</time>
      </trkpt>
      <trkpt lat="48.17621" lon="-3.56886">
        <ele>169.6</ele>
        <time>2024-09-07T10:20:20Z</time>
      </trkpt>
      <trkpt lat="48.17628" lon="-3.56878">
        <ele>169.4</ele>
        <time>2024-09-07T10:20:21Z</time>
      </trkpt>
      <trkpt lat="48.17633" lon="-3.56871">
        <ele>169.2</ele>
        <time>2024-09-07T10:20:22Z</time>
      </trkpt>
      <trkpt lat="48.17638" lon="-3.56864">
        <ele>169</ele>
        <time>2024-09-07T10:20:23Z</time>
      </trkpt>
      <trkpt lat="48.17644" lon="-3.56857">
        <ele>169</ele>
        <time>2024-09-07T10:20:24Z</time>
      </trkpt>
      <trkpt lat="48.1765" lon="-3.56849">
        <ele>169</ele>
        <time>2024-09-07T10:20:25Z</time>
      </trkpt>
      <trkpt lat="48.17655" lon="-3.56841">
        <ele>168.8</ele>
        <time>2024-09-07T10:20:26Z</time>
      </trkpt>
      <trkpt lat="48.1766" lon="-3.56833">
        <ele>168.6</ele>
        <time>2024-09-07T10:20:27Z</time>
      </trkpt>
      <trkpt lat="48.17665" lon="-3.56826">
        <ele>168.4</ele>
        <time>2024-09-07T10:20:28Z</time>
      </trkpt>
      <trkpt lat="48.17669" lon="-3.56819">
        <ele>168.2</ele>
        <time>2024-09-07T10:20:29Z</time>
      </trkpt>
      <trkpt lat="48.17673" lon="-3.56811">
        <ele>168</ele>
        <time>2024-09-07T10:20:30Z</time>
      </trkpt>
      <trkpt lat="48.17678" lon="-3.56804">
        <ele>167.8</ele>
        <time>2024-09-07T10:20:31Z</time>
      </trkpt>
      <trkpt lat="48.17683" lon="-3.56797">
        <ele>167.6</ele>
        <time>2024-09-07T10:20:32Z</time>
      </trkpt>
      <trkpt lat="48.17686" lon="-3.56791">
        <ele>167.2</ele>
        <time>2024-09-07T10:20:33Z</time>
      </trkpt>
      <trkpt lat="48.17694" lon="-3.56782">
        <ele>167</ele>
        <time>2024-09-07T10:20:34Z</time>
      </trkpt>
      <trkpt lat="48.17699" lon="-3.56774">
        <ele>167</ele>
        <time>2024-09-07T10:20:35Z</time>
      </trkpt>
      <trkpt lat="48.17703" lon="-3.56767">
        <ele>167</ele>
        <time>2024-09-07T10:20:36Z</time>
      </trkpt>
      <trkpt lat="48.17708" lon="-3.56759">
        <ele>166.8</ele>
        <time>2024-09-07T10:20:37Z</time>
      </trkpt>
      <trkpt lat="48.17715" lon="-3.5675">
        <ele>166.6</ele>
        <time>2024-09-07T10:20:38Z</time>
      </trkpt>
      <trkpt lat="48.1772" lon="-3.56742">
        <ele>166.4</ele>
        <time>2024-09-07T10:20:39Z</time>
      </trkpt>
      <trkpt lat="48.17725" lon="-3.56734">
        <ele>166.2</ele>
        <time>2024-09-07T10:20:40Z</time>
      </trkpt>
      <trkpt lat="48.1773" lon="-3.56726">
        <ele>165.8</ele>
        <time>2024-09-07T10:20:41Z</time>
      </trkpt>
      <trkpt lat="48.17734" lon="-3.5672">
        <ele>165.8</ele>
        <time>2024-09-07T10:20:42Z</time>
      </trkpt>
      <trkpt lat="48.17739" lon="-3.56712">
        <ele>165.6</ele>
        <time>2024-09-07T10:20:43Z</time>
      </trkpt>
      <trkpt lat="48.17743" lon="-3.56704">
        <ele>165.6</ele>
        <time>2024-09-07T10:20:44Z</time>
      </trkpt>
      <trkpt lat="48.17749" lon="-3.56696">
        <ele>165.4</ele>
        <time>2024-09-07T10:20:45Z</time>
      </trkpt>
      <trkpt lat="48.17754" lon="-3.56688">
        <ele>165.4</ele>
        <time>2024-09-07T10:20:46Z</time>
      </trkpt>
      <trkpt lat="48.1776" lon="-3.5668">
        <ele>165.2</ele>
        <time>2024-09-07T10:20:47Z</time>
      </trkpt>
      <trkpt lat="48.17766" lon="-3.56674">
        <ele>165</ele>
        <time>2024-09-07T10:20:48Z</time>
      </trkpt>
      <trkpt lat="48.17771" lon="-3.56666">
        <ele>164.8</ele>
        <time>2024-09-07T10:20:49Z</time>
      </trkpt>
      <trkpt lat="48.17775" lon="-3.56659">
        <ele>164.6</ele>
        <time>2024-09-07T10:20:50Z</time>
      </trkpt>
      <trkpt lat="48.17779" lon="-3.56652">
        <ele>164.4</ele>
        <time>2024-09-07T10:20:51Z</time>
      </trkpt>
      <trkpt lat="48.17784" lon="-3.56646">
        <ele>164.2</ele>
        <time>2024-09-07T10:20:52Z</time>
      </trkpt>
      <trkpt lat="48.17789" lon="-3.5664">
        <ele>164.2</ele>
        <time>2024-09-07T10:20:53Z</time>
      </trkpt>
      <trkpt lat="48.17795" lon="-3.56635">
        <ele>164</ele>
        <time>2024-09-07T10:20:54Z</time>
      </trkpt>
      <trkpt lat="48.17801" lon="-3.5663">
        <ele>164</ele>
        <time>2024-09-07T10:20:55Z</time>
      </trkpt>
      <trkpt lat="48.17806" lon="-3.56626">
        <ele>163.8</ele>
        <time>2024-09-07T10:20:56Z</time>
      </trkpt>
      <trkpt lat="48.17813" lon="-3.5662">
        <ele>163.6</ele>
        <time>2024-09-07T10:20:57Z</time>
      </trkpt>
      <trkpt lat="48.1782" lon="-3.56617">
        <ele>163.6</ele>
        <time>2024-09-07T10:20:58Z</time>
      </trkpt>
      <trkpt lat="48.17828" lon="-3.56614">
        <ele>163.4</ele>
        <time>2024-09-07T10:20:59Z</time>
      </trkpt>
      <trkpt lat="48.17835" lon="-3.5661">
        <ele>163.2</ele>
        <time>2024-09-07T10:21:00Z</time>
      </trkpt>
      <trkpt lat="48.17841" lon="-3.56607">
        <ele>163.2</ele>
        <time>2024-09-07T10:21:01Z</time>
      </trkpt>
      <trkpt lat="48.17849" lon="-3.56603">
        <ele>163</ele>
        <time>2024-09-07T10:21:02Z</time>
      </trkpt>
      <trkpt lat="48.17856" lon="-3.566">
        <ele>162.8</ele>
        <time>2024-09-07T10:21:03Z</time>
      </trkpt>
      <trkpt lat="48.17863" lon="-3.56596">
        <ele>162.8</ele>
        <time>2024-09-07T10:21:04Z</time>
      </trkpt>
      <trkpt lat="48.1787" lon="-3.56592">
        <ele>162.6</ele>
        <time>2024-09-07T10:21:05Z</time>
      </trkpt>
      <trkpt lat="48.17878" lon="-3.56587">
        <ele>162.6</ele>
        <time>2024-09-07T10:21:06Z</time>
      </trkpt>
      <trkpt lat="48.17885" lon="-3.56582">
        <ele>162.4</ele>
        <time>2024-09-07T10:21:07Z</time>
      </trkpt>
      <trkpt lat="48.17891" lon="-3.56579">
        <ele>162</ele>
        <time>2024-09-07T10:21:08Z</time>
      </trkpt>
      <trkpt lat="48.17898" lon="-3.56574">
        <ele>162</ele>
        <time>2024-09-07T10:21:09Z</time>
      </trkpt>
      <trkpt lat="48.17905" lon="-3.56569">
        <ele>161.6</ele>
        <time>2024-09-07T10:21:10Z</time>
      </trkpt>
      <trkpt lat="48.17911" lon="-3.56564">
        <ele>161.4</ele>
        <time>2024-09-07T10:21:11Z</time>
      </trkpt>
      <trkpt lat="48.17918" lon="-3.56559">
        <ele>161.2</ele>
        <time>2024-09-07T10:21:12Z</time>
      </trkpt>
      <trkpt lat="48.17924" lon="-3.56555">
        <ele>160.8</ele>
        <time>2024-09-07T10:21:13Z</time>
      </trkpt>
      <trkpt lat="48.17929" lon="-3.5655">
        <ele>160.4</ele>
        <time>2024-09-07T10:21:14Z</time>
      </trkpt>
      <trkpt lat="48.17935" lon="-3.56544">
        <ele>160.2</ele>
        <time>2024-09-07T10:21:15Z</time>
      </trkpt>
      <trkpt lat="48.17941" lon="-3.56538">
        <ele>160</ele>
        <time>2024-09-07T10:21:16Z</time>
      </trkpt>
      <trkpt lat="48.17946" lon="-3.56531">
        <ele>159.8</ele>
        <time>2024-09-07T10:21:17Z</time>
      </trkpt>
      <trkpt lat="48.17953" lon="-3.56525">
        <ele>159.8</ele>
        <time>2024-09-07T10:21:18Z</time>
      </trkpt>
      <trkpt lat="48.1796" lon="-3.56518">
        <ele>159.6</ele>
        <time>2024-09-07T10:21:19Z</time>
      </trkpt>
      <trkpt lat="48.17965" lon="-3.56513">
        <ele>159.6</ele>
        <time>2024-09-07T10:21:20Z</time>
      </trkpt>
      <trkpt lat="48.1797" lon="-3.56507">
        <ele>159.6</ele>
        <time>2024-09-07T10:21:21Z</time>
      </trkpt>
      <trkpt lat="48.17976" lon="-3.56501">
        <ele>159.4</ele>
        <time>2024-09-07T10:21:22Z</time>
      </trkpt>
      <trkpt lat="48.17982" lon="-3.56495">
        <ele>159.2</ele>
        <time>2024-09-07T10:21:23Z</time>
      </trkpt>
      <trkpt lat="48.17988" lon="-3.56488">
        <ele>159.2</ele>
        <time>2024-09-07T10:21:24Z</time>
      </trkpt>
      <trkpt lat="48.17993" lon="-3.56482">
        <ele>159</ele>
        <time>2024-09-07T10:21:25Z</time>
      </trkpt>
      <trkpt lat="48.17999" lon="-3.56475">
        <ele>158.8</ele>
        <time>2024-09-07T10:21:26Z</time>
      </trkpt>
      <trkpt lat="48.18005" lon="-3.56468">
        <ele>158.8</ele>
        <time>2024-09-07T10:21:27Z</time>
      </trkpt>
      <trkpt lat="48.1801" lon="-3.56461">
        <ele>158.4</ele>
        <time>2024-09-07T10:21:28Z</time>
      </trkpt>
      <trkpt lat="48.18016" lon="-3.56455">
        <ele>158.2</ele>
        <time>2024-09-07T10:21:29Z</time>
      </trkpt>
      <trkpt lat="48.18021" lon="-3.56448">
        <ele>158</ele>
        <time>2024-09-07T10:21:30Z</time>
      </trkpt>
      <trkpt lat="48.18026" lon="-3.56443">
        <ele>158</ele>
        <time>2024-09-07T10:21:31Z</time>
      </trkpt>
      <trkpt lat="48.18032" lon="-3.56437">
        <ele>157.8</ele>
        <time>2024-09-07T10:21:32Z</time>
      </trkpt>
      <trkpt lat="48.18037" lon="-3.5643">
        <ele>157.6</ele>
        <time>2024-09-07T10:21:33Z</time>
      </trkpt>
      <trkpt lat="48.18042" lon="-3.56424">
        <ele>157.6</ele>
        <time>2024-09-07T10:21:34Z</time>
      </trkpt>
      <trkpt lat="48.18047" lon="-3.5642">
        <ele>157.4</ele>
        <time>2024-09-07T10:21:35Z</time>
      </trkpt>
      <trkpt lat="48.18052" lon="-3.56414">
        <ele>157.4</ele>
        <time>2024-09-07T10:21:36Z</time>
      </trkpt>
      <trkpt lat="48.18059" lon="-3.56407">
        <ele>157.4</ele>
        <time>2024-09-07T10:21:37Z</time>
      </trkpt>
      <trkpt lat="48.18068" lon="-3.564">
        <ele>157</ele>
        <time>2024-09-07T10:21:38Z</time>
      </trkpt>
      <trkpt lat="48.18074" lon="-3.56395">
        <ele>156.8</ele>
        <time>2024-09-07T10:21:39Z</time>
      </trkpt>
      <trkpt lat="48.18079" lon="-3.56388">
        <ele>156.4</ele>
        <time>2024-09-07T10:21:40Z</time>
      </trkpt>
      <trkpt lat="48.18084" lon="-3.56383">
        <ele>156.2</ele>
        <time>2024-09-07T10:21:41Z</time>
      </trkpt>
      <trkpt lat="48.18089" lon="-3.56377">
        <ele>156</ele>
        <time>2024-09-07T10:21:42Z</time>
      </trkpt>
      <trkpt lat="48.18095" lon="-3.56371">
        <ele>156</ele>
        <time>2024-09-07T10:21:43Z</time>
      </trkpt>
      <trkpt lat="48.181" lon="-3.56365">
        <ele>156</ele>
        <time>2024-09-07T10:21:44Z</time>
      </trkpt>
      <trkpt lat="48.18104" lon="-3.5636">
        <ele>155.8</ele>
        <time>2024-09-07T10:21:45Z</time>
      </trkpt>
      <trkpt lat="48.18108" lon="-3.56355">
        <ele>155.6</ele>
        <time>2024-09-07T10:21:46Z</time>
      </trkpt>
      <trkpt lat="48.18114" lon="-3.56348">
        <ele>155.4</ele>
        <time>2024-09-07T10:21:47Z</time>
      </trkpt>
      <trkpt lat="48.18119" lon="-3.56342">
        <ele>155.2</ele>
        <time>2024-09-07T10:21:48Z</time>
      </trkpt>
      <trkpt lat="48.18123" lon="-3.56335">
        <ele>155.2</ele>
        <time>2024-09-07T10:21:49Z</time>
      </trkpt>
      <trkpt lat="48.18128" lon="-3.56328">
        <ele>155</ele>
        <time>2024-09-07T10:21:50Z</time>
      </trkpt>
      <trkpt lat="48.18134" lon="-3.56321">
        <ele>155</ele>
        <time>2024-09-07T10:21:51Z</time>
      </trkpt>
      <trkpt lat="48.18141" lon="-3.56314">
        <ele>154.8</ele>
        <time>2024-09-07T10:21:52Z</time>
      </trkpt>
      <trkpt lat="48.18148" lon="-3.56308">
        <ele>154.8</ele>
        <time>2024-09-07T10:21:53Z</time>
      </trkpt>
      <trkpt lat="48.18154" lon="-3.56302">
        <ele>154.8</ele>
        <time>2024-09-07T10:21:54Z</time>
      </trkpt>
      <trkpt lat="48.18161" lon="-3.56297">
        <ele>154.6</ele>
        <time>2024-09-07T10:21:55Z</time>
      </trkpt>
      <trkpt lat="48.18168" lon="-3.56292">
        <ele>154.4</ele>
        <time>2024-09-07T10:21:56Z</time>
      </trkpt>
      <trkpt lat="48.18177" lon="-3.56287">
        <ele>154.2</ele>
        <time>2024-09-07T10:21:57Z</time>
      </trkpt>
      <trkpt lat="48.18186" lon="-3.56281">
        <ele>154.2</ele>
        <time>2024-09-07T10:21:58Z</time>
      </trkpt>
      <trkpt lat="48.18192" lon="-3.56276">
        <ele>154</ele>
        <time>2024-09-07T10:21:59Z</time>
      </trkpt>
      <trkpt lat="48.18198" lon="-3.56272">
        <ele>153.8</ele>
        <time>2024-09-07T10:22:00Z</time>
      </trkpt>
      <trkpt lat="48.18204" lon="-3.56268">
        <ele>153.4</ele>
        <time>2024-09-07T10:22:01Z</time>
      </trkpt>
      <trkpt lat="48.18212" lon="-3.56264">
        <ele>153.2</ele>
        <time>2024-09-07T10:22:02Z</time>
      </trkpt>
      <trkpt lat="48.18219" lon="-3.5626">
        <ele>153</ele>
        <time>2024-09-07T10:22:03Z</time>
      </trkpt>
      <trkpt lat="48.18226" lon="-3.56258">
        <ele>153</ele>
        <time>2024-09-07T10:22:04Z</time>
      </trkpt>
      <trkpt lat="48.18232" lon="-3.56257">
        <ele>152.8</ele>
        <time>2024-09-07T10:22:05Z</time>
      </trkpt>
      <trkpt lat="48.18239" lon="-3.56256">
        <ele>152.8</ele>
        <time>2024-09-07T10:22:06Z</time>
      </trkpt>
      <trkpt lat="48.18245" lon="-3.56256">
        <ele>152.6</ele>
        <time>2024-09-07T10:22:07Z</time>
      </trkpt>
      <trkpt lat="48.18252" lon="-3.56255">
        <ele>152.6</ele>
        <time>2024-09-07T10:22:08Z</time>
      </trkpt>
      <trkpt lat="48.18258" lon="-3.56256">
        <ele>152.4</ele>
        <time>2024-09-07T10:22:09Z</time>
      </trkpt>
      <trkpt lat="48.18264" lon="-3.56257">
        <ele>152.4</ele>
        <time>2024-09-07T10:22:10Z</time>
      </trkpt>
      <trkpt lat="48.1827" lon="-3.56258">
        <ele>152.2</ele>
        <time>2024-09-07T10:22:11Z</time>
      </trkpt>
      <trkpt lat="48.18277" lon="-3.56259">
        <ele>152</ele>
        <time>2024-09-07T10:22:12Z</time>
      </trkpt>
      <trkpt lat="48.18283" lon="-3.5626">
        <ele>152</ele>
        <time>2024-09-07T10:22:13Z</time>
      </trkpt>
      <trkpt lat="48.1829" lon="-3.56262">
        <ele>151.8</ele>
        <time>2024-09-07T10:22:14Z</time>
      </trkpt>
      <trkpt lat="48.18297" lon="-3.56264">
        <ele>151.8</ele>
        <time>2024-09-07T10:22:15Z</time>
      </trkpt>
      <trkpt lat="48.18303" lon="-3.56266">
        <ele>151.6</ele>
        <time>2024-09-07T10:22:16Z</time>
      </trkpt>
      <trkpt lat="48.18309" lon="-3.56268">
        <ele>151.4</ele>
        <time>2024-09-07T10:22:17Z</time>
      </trkpt>
      <trkpt lat="48.18315" lon="-3.56271">
        <ele>151.2</ele>
        <time>2024-09-07T10:22:18Z</time>
      </trkpt>
      <trkpt lat="48.18321" lon="-3.56274">
        <ele>151</ele>
        <time>2024-09-07T10:22:19Z</time>
      </trkpt>
      <trkpt lat="48.18327" lon="-3.56278">
        <ele>150.8</ele>
        <time>2024-09-07T10:22:20Z</time>
      </trkpt>
      <trkpt lat="48.18333" lon="-3.56282">
        <ele>150.8</ele>
        <time>2024-09-07T10:22:21Z</time>
      </trkpt>
      <trkpt lat="48.18339" lon="-3.56287">
        <ele>150.6</ele>
        <time>2024-09-07T10:22:22Z</time>
      </trkpt>
      <trkpt lat="48.18345" lon="-3.56291">
        <ele>150.2</ele>
        <time>2024-09-07T10:22:23Z</time>
      </trkpt>
      <trkpt lat="48.18351" lon="-3.56297">
        <ele>150.2</ele>
        <time>2024-09-07T10:22:24Z</time>
      </trkpt>
      <trkpt lat="48.18357" lon="-3.56303">
        <ele>150</ele>
        <time>2024-09-07T10:22:25Z</time>
      </trkpt>
      <trkpt lat="48.18362" lon="-3.56309">
        <ele>149.8</ele>
        <time>2024-09-07T10:22:26Z</time>
      </trkpt>
      <trkpt lat="48.18367" lon="-3.56315">
        <ele>149.6</ele>
        <time>2024-09-07T10:22:27Z</time>
      </trkpt>
      <trkpt lat="48.18373" lon="-3.5632">
        <ele>149.4</ele>
        <time>2024-09-07T10:22:28Z</time>
      </trkpt>
      <trkpt lat="48.18377" lon="-3.56326">
        <ele>149.2</ele>
        <time>2024-09-07T10:22:29Z</time>
      </trkpt>
      <trkpt lat="48.18382" lon="-3.56332">
        <ele>149</ele>
        <time>2024-09-07T10:22:30Z</time>
      </trkpt>
      <trkpt lat="48.18387" lon="-3.5634">
        <ele>148.8</ele>
        <time>2024-09-07T10:22:31Z</time>
      </trkpt>
      <trkpt lat="48.18392" lon="-3.56347">
        <ele>148.6</ele>
        <time>2024-09-07T10:22:32Z</time>
      </trkpt>
      <trkpt lat="48.18397" lon="-3.56353">
        <ele>148.4</ele>
        <time>2024-09-07T10:22:33Z</time>
      </trkpt>
      <trkpt lat="48.18402" lon="-3.5636">
        <ele>148.4</ele>
        <time>2024-09-07T10:22:34Z</time>
      </trkpt>
      <trkpt lat="48.18406" lon="-3.56366">
        <ele>148.2</ele>
        <time>2024-09-07T10:22:35Z</time>
      </trkpt>
      <trkpt lat="48.18411" lon="-3.56373">
        <ele>148.2</ele>
        <time>2024-09-07T10:22:36Z</time>
      </trkpt>
      <trkpt lat="48.18416" lon="-3.5638">
        <ele>148</ele>
        <time>2024-09-07T10:22:37Z</time>
      </trkpt>
      <trkpt lat="48.18421" lon="-3.56387">
        <ele>147.8</ele>
        <time>2024-09-07T10:22:38Z</time>
      </trkpt>
      <trkpt lat="48.18426" lon="-3.56394">
        <ele>147.6</ele>
        <time>2024-09-07T10:22:39Z</time>
      </trkpt>
      <trkpt lat="48.18431" lon="-3.564">
        <ele>147.6</ele>
        <time>2024-09-07T10:22:40Z</time>
      </trkpt>
      <trkpt lat="48.18436" lon="-3.56407">
        <ele>147.6</ele>
        <time>2024-09-07T10:22:41Z</time>
      </trkpt>
      <trkpt lat="48.18439" lon="-3.56412">
        <ele>147.4</ele>
        <time>2024-09-07T10:22:42Z</time>
      </trkpt>
      <trkpt lat="48.18445" lon="-3.5642">
        <ele>147.4</ele>
        <time>2024-09-07T10:22:43Z</time>
      </trkpt>
      <trkpt lat="48.18449" lon="-3.56427">
        <ele>147.4</ele>
        <time>2024-09-07T10:22:44Z</time>
      </trkpt>
      <trkpt lat="48.18453" lon="-3.56433">
        <ele>147.2</ele>
        <time>2024-09-07T10:22:45Z</time>
      </trkpt>
      <trkpt lat="48.18457" lon="-3.5644">
        <ele>147.2</ele>
        <time>2024-09-07T10:22:46Z</time>
      </trkpt>
      <trkpt lat="48.18462" lon="-3.56447">
        <ele>147</ele>
        <time>2024-09-07T10:22:47Z</time>
      </trkpt>
      <trkpt lat="48.18466" lon="-3.56454">
        <ele>147</ele>
        <time>2024-09-07T10:22:48Z</time>
      </trkpt>
      <trkpt lat="48.1847" lon="-3.5646">
        <ele>146.8</ele>
        <time>2024-09-07T10:22:49Z</time>
      </trkpt>
      <trkpt lat="48.18474" lon="-3.56467">
        <ele>146.6</ele>
        <time>2024-09-07T10:22:50Z</time>
      </trkpt>
      <trkpt lat="48.18478" lon="-3.56473">
        <ele>146.6</ele>
        <time>2024-09-07T10:22:51Z</time>
      </trkpt>
      <trkpt lat="48.18482" lon="-3.56479">
        <ele>146.4</ele>
        <time>2024-09-07T10:22:52Z</time>
      </trkpt>
      <trkpt lat="48.18487" lon="-3.56487">
        <ele>146.2</ele>
        <time>2024-09-07T10:22:53Z</time>
      </trkpt>
      <trkpt lat="48.18491" lon="-3.56492">
        <ele>146</ele>
        <time>2024-09-07T10:22:54Z</time>
      </trkpt>
      <trkpt lat="48.18495" lon="-3.56498">
        <ele>146</ele>
        <time>2024-09-07T10:22:55Z</time>
      </trkpt>
      <trkpt lat="48.18499" lon="-3.56505">
        <ele>145.6</ele>
        <time>2024-09-07T10:22:56Z</time>
      </trkpt>
      <trkpt lat="48.18503" lon="-3.56511">
        <ele>145.6</ele>
        <time>2024-09-07T10:22:57Z</time>
      </trkpt>
      <trkpt lat="48.18507" lon="-3.56518">
        <ele>145.4</ele>
        <time>2024-09-07T10:22:58Z</time>
      </trkpt>
      <trkpt lat="48.18512" lon="-3.56525">
        <ele>145.4</ele>
        <time>2024-09-07T10:22:59Z</time>
      </trkpt>
      <trkpt lat="48.18516" lon="-3.56531">
        <ele>145.4</ele>
        <time>2024-09-07T10:23:00Z</time>
      </trkpt>
      <trkpt lat="48.18521" lon="-3.56537">
        <ele>145.2</ele>
        <time>2024-09-07T10:23:01Z</time>
      </trkpt>
      <trkpt lat="48.18525" lon="-3.56543">
        <ele>145</ele>
        <time>2024-09-07T10:23:02Z</time>
      </trkpt>
      <trkpt lat="48.18528" lon="-3.56549">
        <ele>145</ele>
        <time>2024-09-07T10:23:03Z</time>
      </trkpt>
      <trkpt lat="48.18532" lon="-3.56555">
        <ele>144.8</ele>
        <time>2024-09-07T10:23:04Z</time>
      </trkpt>
      <trkpt lat="48.18536" lon="-3.5656">
        <ele>144.6</ele>
        <time>2024-09-07T10:23:05Z</time>
      </trkpt>
      <trkpt lat="48.18539" lon="-3.56565">
        <ele>144.4</ele>
        <time>2024-09-07T10:23:06Z</time>
      </trkpt>
      <trkpt lat="48.18542" lon="-3.56569">
        <ele>144.2</ele>
        <time>2024-09-07T10:23:07Z</time>
      </trkpt>
      <trkpt lat="48.18544" lon="-3.56573">
        <ele>144.2</ele>
        <time>2024-09-07T10:23:08Z</time>
      </trkpt>
      <trkpt lat="48.18546" lon="-3.56576">
        <ele>144</ele>
        <time>2024-09-07T10:23:09Z</time>
      </trkpt>
      <trkpt lat="48.18547" lon="-3.5658">
        <ele>144</ele>
        <time>2024-09-07T10:23:10Z</time>
      </trkpt>
      <trkpt lat="48.18549" lon="-3.56583">
        <ele>144</ele>
        <time>2024-09-07T10:23:11Z</time>
      </trkpt>
      <trkpt lat="48.18551" lon="-3.56585">
        <ele>143.8</ele>
        <time>2024-09-07T10:23:12Z</time>
      </trkpt>
      <trkpt lat="48.18553" lon="-3.56587">
        <ele>143.8</ele>
        <time>2024-09-07T10:23:13Z</time>
      </trkpt>
      <trkpt lat="48.18555" lon="-3.56589">
        <ele>143.8</ele>
        <time>2024-09-07T10:23:14Z</time>
      </trkpt>
      <trkpt lat="48.18556" lon="-3.56591">
        <ele>143.6</ele>
        <time>2024-09-07T10:23:15Z</time>
      </trkpt>
      <trkpt lat="48.18558" lon="-3.56592">
        <ele>143.6</ele>
        <time>2024-09-07T10:23:16Z</time>
      </trkpt>
      <trkpt lat="48.1856" lon="-3.56593">
        <ele>143.4</ele>
        <time>2024-09-07T10:23:17Z</time>
      </trkpt>
      <trkpt lat="48.18562" lon="-3.56594">
        <ele>143.4</ele>
        <time>2024-09-07T10:23:18Z</time>
      </trkpt>
      <trkpt lat="48.18562" lon="-3.56594">
        <ele>143.2</ele>
        <time>2024-09-07T10:23:19Z</time>
      </trkpt>
      <trkpt lat="48.18562" lon="-3.56594">
        <ele>143</ele>
        <time>2024-09-07T10:23:20Z</time>
      </trkpt>
      <trkpt lat="48.18567" lon="-3.56599">
        <ele>141</ele>
        <time>2024-09-07T10:23:43Z</time>
      </trkpt>
      <trkpt lat="48.18568" lon="-3.56601">
        <ele>141</ele>
        <time>2024-09-07T10:23:44Z</time>
      </trkpt>
      <trkpt lat="48.18569" lon="-3.56603">
        <ele>141</ele>
        <time>2024-09-07T10:23:45Z</time>
      </trkpt>
      <trkpt lat="48.18571" lon="-3.56605">
        <ele>141</ele>
        <time>2024-09-07T10:23:46Z</time>
      </trkpt>
      <trkpt lat="48.18573" lon="-3.56607">
        <ele>141</ele>
        <time>2024-09-07T10:23:47Z</time>
      </trkpt>
      <trkpt lat="48.18576" lon="-3.5661">
        <ele>141</ele>
        <time>2024-09-07T10:23:48Z</time>
      </trkpt>
      <trkpt lat="48.18578" lon="-3.56612">
        <ele>141</ele>
        <time>2024-09-07T10:23:49Z</time>
      </trkpt>
      <trkpt lat="48.1858" lon="-3.56615">
        <ele>141</ele>
        <time>2024-09-07T10:23:50Z</time>
      </trkpt>
      <trkpt lat="48.18581" lon="-3.56617">
        <ele>141</ele>
        <time>2024-09-07T10:23:51Z</time>
      </trkpt>
      <trkpt lat="48.18584" lon="-3.56621">
        <ele>141</ele>
        <time>2024-09-07T10:23:52Z</time>
      </trkpt>
      <trkpt lat="48.18587" lon="-3.56623">
        <ele>141</ele>
        <time>2024-09-07T10:23:53Z</time>
      </trkpt>
      <trkpt lat="48.18591" lon="-3.56627">
        <ele>141</ele>
        <time>2024-09-07T10:23:54Z</time>
      </trkpt>
      <trkpt lat="48.18594" lon="-3.56631">
        <ele>141</ele>
        <time>2024-09-07T10:23:55Z</time>
      </trkpt>
      <trkpt lat="48.18599" lon="-3.56636">
        <ele>141</ele>
        <time>2024-09-07T10:23:56Z</time>
      </trkpt>
      <trkpt lat="48.18603" lon="-3.56641">
        <ele>141</ele>
        <time>2024-09-07T10:23:57Z</time>
      </trkpt>
      <trkpt lat="48.18607" lon="-3.56646">
        <ele>141</ele>
        <time>2024-09-07T10:23:58Z</time>
      </trkpt>
      <trkpt lat="48.18611" lon="-3.56652">
        <ele>141</ele>
        <time>2024-09-07T10:23:59Z</time>
      </trkpt>
      <trkpt lat="48.18616" lon="-3.56656">
        <ele>141</ele>
        <time>2024-09-07T10:24:00Z</time>
      </trkpt>
      <trkpt lat="48.1862" lon="-3.5666">
        <ele>141</ele>
        <time>2024-09-07T10:24:01Z</time>
      </trkpt>
      <trkpt lat="48.18625" lon="-3.56665">
        <ele>141</ele>
        <time>2024-09-07T10:24:02Z</time>
      </trkpt>
      <trkpt lat="48.1863" lon="-3.56672">
        <ele>141</ele>
        <time>2024-09-07T10:24:03Z</time>
      </trkpt>
      <trkpt lat="48.18635" lon="-3.56678">
        <ele>141</ele>
        <time>2024-09-07T10:24:04Z</time>
      </trkpt>
      <trkpt lat="48.1864" lon="-3.56683">
        <ele>141</ele>
        <time>2024-09-07T10:24:05Z</time>
      </trkpt>
      <trkpt lat="48.18644" lon="-3.56688">
        <ele>141</ele>
        <time>2024-09-07T10:24:06Z</time>
      </trkpt>
      <trkpt lat="48.18649" lon="-3.56693">
        <ele>141</ele>
        <time>2024-09-07T10:24:07Z</time>
      </trkpt>
      <trkpt lat="48.18654" lon="-3.56699">
        <ele>141</ele>
        <time>2024-09-07T10:24:08Z</time>
      </trkpt>
      <trkpt lat="48.18659" lon="-3.56705">
        <ele>141</ele>
        <time>2024-09-07T10:24:09Z</time>
      </trkpt>
      <trkpt lat="48.18664" lon="-3.56711">
        <ele>141</ele>
        <time>2024-09-07T10:24:10Z</time>
      </trkpt>
      <trkpt lat="48.18669" lon="-3.56716">
        <ele>141</ele>
        <time>2024-09-07T10:24:11Z</time>
      </trkpt>
      <trkpt lat="48.18674" lon="-3.56722">
        <ele>140.8</ele>
        <time>2024-09-07T10:24:12Z</time>
      </trkpt>
      <trkpt lat="48.1868" lon="-3.56728">
        <ele>140.6</ele>
        <time>2024-09-07T10:24:13Z</time>
      </trkpt>
      <trkpt lat="48.18685" lon="-3.56733">
        <ele>140.6</ele>
        <time>2024-09-07T10:24:14Z</time>
      </trkpt>
      <trkpt lat="48.1869" lon="-3.56739">
        <ele>140.4</ele>
        <time>2024-09-07T10:24:15Z</time>
      </trkpt>
      <trkpt lat="48.18696" lon="-3.56746">
        <ele>140.4</ele>
        <time>2024-09-07T10:24:16Z</time>
      </trkpt>
      <trkpt lat="48.187" lon="-3.5675">
        <ele>140.2</ele>
        <time>2024-09-07T10:24:17Z</time>
      </trkpt>
      <trkpt lat="48.18706" lon="-3.56758">
        <ele>140.2</ele>
        <time>2024-09-07T10:24:18Z</time>
      </trkpt>
      <trkpt lat="48.18711" lon="-3.56764">
        <ele>140</ele>
        <time>2024-09-07T10:24:19Z</time>
      </trkpt>
      <trkpt lat="48.18715" lon="-3.5677">
        <ele>140</ele>
        <time>2024-09-07T10:24:20Z</time>
      </trkpt>
      <trkpt lat="48.18721" lon="-3.56777">
        <ele>139.8</ele>
        <time>2024-09-07T10:24:21Z</time>
      </trkpt>
      <trkpt lat="48.18725" lon="-3.56782">
        <ele>139.8</ele>
        <time>2024-09-07T10:24:22Z</time>
      </trkpt>
      <trkpt lat="48.18731" lon="-3.56788">
        <ele>139.8</ele>
        <time>2024-09-07T10:24:23Z</time>
      </trkpt>
      <trkpt lat="48.18736" lon="-3.56793">
        <ele>139.6</ele>
        <time>2024-09-07T10:24:24Z</time>
      </trkpt>
      <trkpt lat="48.18741" lon="-3.56799">
        <ele>139.6</ele>
        <time>2024-09-07T10:24:25Z</time>
      </trkpt>
      <trkpt lat="48.18746" lon="-3.56804">
        <ele>139.6</ele>
        <time>2024-09-07T10:24:26Z</time>
      </trkpt>
      <trkpt lat="48.18751" lon="-3.56809">
        <ele>139.4</ele>
        <time>2024-09-07T10:24:27Z</time>
      </trkpt>
      <trkpt lat="48.18756" lon="-3.56814">
        <ele>139.4</ele>
        <time>2024-09-07T10:24:28Z</time>
      </trkpt>
      <trkpt lat="48.18761" lon="-3.56818">
        <ele>139.2</ele>
        <time>2024-09-07T10:24:29Z</time>
      </trkpt>
      <trkpt lat="48.18766" lon="-3.56821">
        <ele>139.2</ele>
        <time>2024-09-07T10:24:30Z</time>
      </trkpt>
      <trkpt lat="48.18772" lon="-3.56825">
        <ele>139</ele>
        <time>2024-09-07T10:24:31Z</time>
      </trkpt>
      <trkpt lat="48.18777" lon="-3.56828">
        <ele>139</ele>
        <time>2024-09-07T10:24:32Z</time>
      </trkpt>
      <trkpt lat="48.18783" lon="-3.56832">
        <ele>138.8</ele>
        <time>2024-09-07T10:24:33Z</time>
      </trkpt>
      <trkpt lat="48.18789" lon="-3.56835">
        <ele>138.6</ele>
        <time>2024-09-07T10:24:34Z</time>
      </trkpt>
      <trkpt lat="48.18795" lon="-3.56838">
        <ele>138.4</ele>
        <time>2024-09-07T10:24:35Z</time>
      </trkpt>
      <trkpt lat="48.18802" lon="-3.56841">
        <ele>138.2</ele>
        <time>2024-09-07T10:24:36Z</time>
      </trkpt>
      <trkpt lat="48.18808" lon="-3.56843">
        <ele>138.2</ele>
        <time>2024-09-07T10:24:37Z</time>
      </trkpt>
      <trkpt lat="48.18814" lon="-3.56844">
        <ele>137.8</ele>
        <time>2024-09-07T10:24:38Z</time>
      </trkpt>
      <trkpt lat="48.18823" lon="-3.56845">
        <ele>137.4</ele>
        <time>2024-09-07T10:24:39Z</time>
      </trkpt>
      <trkpt lat="48.1883" lon="-3.56845">
        <ele>137.4</ele>
        <time>2024-09-07T10:24:40Z</time>
      </trkpt>
      <trkpt lat="48.18836" lon="-3.56846">
        <ele>137.4</ele>
        <time>2024-09-07T10:24:41Z</time>
      </trkpt>
      <trkpt lat="48.18843" lon="-3.56846">
        <ele>137.2</ele>
        <time>2024-09-07T10:24:42Z</time>
      </trkpt>
      <trkpt lat="48.1885" lon="-3.56845">
        <ele>137.2</ele>
        <time>2024-09-07T10:24:43Z</time>
      </trkpt>
      <trkpt lat="48.18856" lon="-3.56845">
        <ele>137</ele>
        <time>2024-09-07T10:24:44Z</time>
      </trkpt>
      <trkpt lat="48.18863" lon="-3.56844">
        <ele>137</ele>
        <time>2024-09-07T10:24:45Z</time>
      </trkpt>
      <trkpt lat="48.1887" lon="-3.56842">
        <ele>136.8</ele>
        <time>2024-09-07T10:24:46Z</time>
      </trkpt>
      <trkpt lat="48.18876" lon="-3.5684">
        <ele>136.6</ele>
        <time>2024-09-07T10:24:47Z</time>
      </trkpt>
      <trkpt lat="48.18884" lon="-3.56839">
        <ele>136.6</ele>
        <time>2024-09-07T10:24:48Z</time>
      </trkpt>
      <trkpt lat="48.1889" lon="-3.56837">
        <ele>136.4</ele>
        <time>2024-09-07T10:24:49Z</time>
      </trkpt>
      <trkpt lat="48.18897" lon="-3.56837">
        <ele>136.2</ele>
        <time>2024-09-07T10:24:50Z</time>
      </trkpt>
      <trkpt lat="48.18905" lon="-3.56837">
        <ele>136.2</ele>
        <time>2024-09-07T10:24:51Z</time>
      </trkpt>
      <trkpt lat="48.18914" lon="-3.56835">
        <ele>136</ele>
        <time>2024-09-07T10:24:52Z</time>
      </trkpt>
      <trkpt lat="48.18921" lon="-3.56833">
        <ele>136</ele>
        <time>2024-09-07T10:24:53Z</time>
      </trkpt>
      <trkpt lat="48.18928" lon="-3.56829">
        <ele>135.8</ele>
        <time>2024-09-07T10:24:54Z</time>
      </trkpt>
      <trkpt lat="48.18934" lon="-3.56826">
        <ele>135.8</ele>
        <time>2024-09-07T10:24:55Z</time>
      </trkpt>
      <trkpt lat="48.18939" lon="-3.56823">
        <ele>135.8</ele>
        <time>2024-09-07T10:24:56Z</time>
      </trkpt>
      <trkpt lat="48.18946" lon="-3.56822">
        <ele>135.8</ele>
        <time>2024-09-07T10:24:57Z</time>
      </trkpt>
      <trkpt lat="48.18952" lon="-3.56821">
        <ele>135.6</ele>
        <time>2024-09-07T10:24:58Z</time>
      </trkpt>
      <trkpt lat="48.18959" lon="-3.5682">
        <ele>135.4</ele>
        <time>2024-09-07T10:24:59Z</time>
      </trkpt>
      <trkpt lat="48.18965" lon="-3.5682">
        <ele>135.4</ele>
        <time>2024-09-07T10:25:00Z</time>
      </trkpt>
      <trkpt lat="48.18972" lon="-3.56821">
        <ele>135.2</ele>
        <time>2024-09-07T10:25:01Z</time>
      </trkpt>
      <trkpt lat="48.18979" lon="-3.56821">
        <ele>135.2</ele>
        <time>2024-09-07T10:25:02Z</time>
      </trkpt>
      <trkpt lat="48.18985" lon="-3.56821">
        <ele>135</ele>
        <time>2024-09-07T10:25:03Z</time>
      </trkpt>
      <trkpt lat="48.18992" lon="-3.56823">
        <ele>135</ele>
        <time>2024-09-07T10:25:04Z</time>
      </trkpt>
      <trkpt lat="48.19" lon="-3.56825">
        <ele>135</ele>
        <time>2024-09-07T10:25:05Z</time>
      </trkpt>
      <trkpt lat="48.19006" lon="-3.56828">
        <ele>134.8</ele>
        <time>2024-09-07T10:25:06Z</time>
      </trkpt>
      <trkpt lat="48.19011" lon="-3.56831">
        <ele>134.6</ele>
        <time>2024-09-07T10:25:07Z</time>
      </trkpt>
      <trkpt lat="48.19019" lon="-3.56835">
        <ele>134.6</ele>
        <time>2024-09-07T10:25:08Z</time>
      </trkpt>
      <trkpt lat="48.19025" lon="-3.56839">
        <ele>134.4</ele>
        <time>2024-09-07T10:25:09Z</time>
      </trkpt>
      <trkpt lat="48.19032" lon="-3.56843">
        <ele>134.2</ele>
        <time>2024-09-07T10:25:10Z</time>
      </trkpt>
      <trkpt lat="48.19037" lon="-3.56847">
        <ele>134</ele>
        <time>2024-09-07T10:25:11Z</time>
      </trkpt>
      <trkpt lat="48.19045" lon="-3.56852">
        <ele>134</ele>
        <time>2024-09-07T10:25:12Z</time>
      </trkpt>
      <trkpt lat="48.19051" lon="-3.56857">
        <ele>133.6</ele>
        <time>2024-09-07T10:25:13Z</time>
      </trkpt>
      <trkpt lat="48.19057" lon="-3.56863">
        <ele>133.4</ele>
        <time>2024-09-07T10:25:14Z</time>
      </trkpt>
      <trkpt lat="48.19062" lon="-3.56869">
        <ele>133.2</ele>
        <time>2024-09-07T10:25:15Z</time>
      </trkpt>
      <trkpt lat="48.19069" lon="-3.56875">
        <ele>133.2</ele>
        <time>2024-09-07T10:25:16Z</time>
      </trkpt>
      <trkpt lat="48.19074" lon="-3.56882">
        <ele>133</ele>
        <time>2024-09-07T10:25:17Z</time>
      </trkpt>
      <trkpt lat="48.19079" lon="-3.56889">
        <ele>132.8</ele>
        <time>2024-09-07T10:25:18Z</time>
      </trkpt>
      <trkpt lat="48.19083" lon="-3.56896">
        <ele>132.8</ele>
        <time>2024-09-07T10:25:19Z</time>
      </trkpt>
      <trkpt lat="48.19087" lon="-3.56901">
        <ele>132.8</ele>
        <time>2024-09-07T10:25:20Z</time>
      </trkpt>
      <trkpt lat="48.19092" lon="-3.56909">
        <ele>132.6</ele>
        <time>2024-09-07T10:25:21Z</time>
      </trkpt>
      <trkpt lat="48.19095" lon="-3.56914">
        <ele>132.6</ele>
        <time>2024-09-07T10:25:22Z</time>
      </trkpt>
      <trkpt lat="48.19101" lon="-3.56922">
        <ele>132.6</ele>
        <time>2024-09-07T10:25:23Z</time>
      </trkpt>
      <trkpt lat="48.19105" lon="-3.56929">
        <ele>132.6</ele>
        <time>2024-09-07T10:25:24Z</time>
      </trkpt>
      <trkpt lat="48.1911" lon="-3.56936">
        <ele>132.6</ele>
        <time>2024-09-07T10:25:25Z</time>
      </trkpt>
      <trkpt lat="48.19113" lon="-3.56943">
        <ele>132.4</ele>
        <time>2024-09-07T10:25:26Z</time>
      </trkpt>
      <trkpt lat="48.19117" lon="-3.56949">
        <ele>132.4</ele>
        <time>2024-09-07T10:25:27Z</time>
      </trkpt>
      <trkpt lat="48.1912" lon="-3.56955">
        <ele>132.4</ele>
        <time>2024-09-07T10:25:28Z</time>
      </trkpt>
      <trkpt lat="48.19124" lon="-3.5696">
        <ele>132.2</ele>
        <time>2024-09-07T10:25:29Z</time>
      </trkpt>
      <trkpt lat="48.19127" lon="-3.56965">
        <ele>132.2</ele>
        <time>2024-09-07T10:25:30Z</time>
      </trkpt>
      <trkpt lat="48.19131" lon="-3.5697">
        <ele>132.2</ele>
        <time>2024-09-07T10:25:31Z</time>
      </trkpt>
      <trkpt lat="48.19135" lon="-3.56975">
        <ele>132.2</ele>
        <time>2024-09-07T10:25:32Z</time>
      </trkpt>
      <trkpt lat="48.19139" lon="-3.5698">
        <ele>132.2</ele>
        <time>2024-09-07T10:25:33Z</time>
      </trkpt>
      <trkpt lat="48.19143" lon="-3.56984">
        <ele>132.2</ele>
        <time>2024-09-07T10:25:34Z</time>
      </trkpt>
      <trkpt lat="48.19148" lon="-3.5699">
        <ele>132</ele>
        <time>2024-09-07T10:25:35Z</time>
      </trkpt>
      <trkpt lat="48.19152" lon="-3.56995">
        <ele>132</ele>
        <time>2024-09-07T10:25:36Z</time>
      </trkpt>
      <trkpt lat="48.19156" lon="-3.57">
        <ele>132.2</ele>
        <time>2024-09-07T10:25:37Z</time>
      </trkpt>
      <trkpt lat="48.1916" lon="-3.57006">
        <ele>132</ele>
        <time>2024-09-07T10:25:38Z</time>
      </trkpt>
      <trkpt lat="48.19165" lon="-3.57011">
        <ele>132</ele>
        <time>2024-09-07T10:25:39Z</time>
      </trkpt>
      <trkpt lat="48.1917" lon="-3.57017">
        <ele>132</ele>
        <time>2024-09-07T10:25:40Z</time>
      </trkpt>
      <trkpt lat="48.19175" lon="-3.57022">
        <ele>132.2</ele>
        <time>2024-09-07T10:25:41Z</time>
      </trkpt>
      <trkpt lat="48.1918" lon="-3.57027">
        <ele>132.2</ele>
        <time>2024-09-07T10:25:42Z</time>
      </trkpt>
      <trkpt lat="48.19185" lon="-3.57032">
        <ele>132.2</ele>
        <time>2024-09-07T10:25:43Z</time>
      </trkpt>
      <trkpt lat="48.1919" lon="-3.57038">
        <ele>132.2</ele>
        <time>2024-09-07T10:25:44Z</time>
      </trkpt>
      <trkpt lat="48.19195" lon="-3.57043">
        <ele>132.2</ele>
        <time>2024-09-07T10:25:45Z</time>
      </trkpt>
      <trkpt lat="48.19199" lon="-3.57049">
        <ele>132.2</ele>
        <time>2024-09-07T10:25:46Z</time>
      </trkpt>
      <trkpt lat="48.19203" lon="-3.57053">
        <ele>132.2</ele>
        <time>2024-09-07T10:25:47Z</time>
      </trkpt>
      <trkpt lat="48.19207" lon="-3.57058">
        <ele>132.2</ele>
        <time>2024-09-07T10:25:48Z</time>
      </trkpt>
      <trkpt lat="48.19212" lon="-3.57064">
        <ele>132.2</ele>
        <time>2024-09-07T10:25:49Z</time>
      </trkpt>
      <trkpt lat="48.19216" lon="-3.57068">
        <ele>132.2</ele>
        <time>2024-09-07T10:25:50Z</time>
      </trkpt>
      <trkpt lat="48.1922" lon="-3.57071">
        <ele>132.2</ele>
        <time>2024-09-07T10:25:51Z</time>
      </trkpt>
      <trkpt lat="48.19223" lon="-3.57074">
        <ele>132.2</ele>
        <time>2024-09-07T10:25:52Z</time>
      </trkpt>
      <trkpt lat="48.19226" lon="-3.57079">
        <ele>132.2</ele>
        <time>2024-09-07T10:25:53Z</time>
      </trkpt>
      <trkpt lat="48.1923" lon="-3.57082">
        <ele>132.2</ele>
        <time>2024-09-07T10:25:54Z</time>
      </trkpt>
      <trkpt lat="48.19234" lon="-3.57086">
        <ele>132</ele>
        <time>2024-09-07T10:25:55Z</time>
      </trkpt>
      <trkpt lat="48.19238" lon="-3.57089">
        <ele>132</ele>
        <time>2024-09-07T10:25:56Z</time>
      </trkpt>
      <trkpt lat="48.19242" lon="-3.57093">
        <ele>132</ele>
        <time>2024-09-07T10:25:57Z</time>
      </trkpt>
      <trkpt lat="48.19246" lon="-3.57097">
        <ele>132</ele>
        <time>2024-09-07T10:25:58Z</time>
      </trkpt>
      <trkpt lat="48.19251" lon="-3.57101">
        <ele>132</ele>
        <time>2024-09-07T10:25:59Z</time>
      </trkpt>
      <trkpt lat="48.19256" lon="-3.57105">
        <ele>132</ele>
        <time>2024-09-07T10:26:00Z</time>
      </trkpt>
      <trkpt lat="48.1926" lon="-3.57107">
        <ele>132</ele>
        <time>2024-09-07T10:26:01Z</time>
      </trkpt>
      <trkpt lat="48.19264" lon="-3.57109">
        <ele>132</ele>
        <time>2024-09-07T10:26:02Z</time>
      </trkpt>
      <trkpt lat="48.19269" lon="-3.57112">
        <ele>132</ele>
        <time>2024-09-07T10:26:03Z</time>
      </trkpt>
      <trkpt lat="48.19274" lon="-3.57115">
        <ele>132</ele>
        <time>2024-09-07T10:26:04Z</time>
      </trkpt>
      <trkpt lat="48.19279" lon="-3.57118">
        <ele>132</ele>
        <time>2024-09-07T10:26:05Z</time>
      </trkpt>
      <trkpt lat="48.19284" lon="-3.57121">
        <ele>132</ele>
        <time>2024-09-07T10:26:06Z</time>
      </trkpt>
      <trkpt lat="48.19289" lon="-3.57123">
        <ele>132</ele>
        <time>2024-09-07T10:26:07Z</time>
      </trkpt>
      <trkpt lat="48.19294" lon="-3.57126">
        <ele>132</ele>
        <time>2024-09-07T10:26:08Z</time>
      </trkpt>
      <trkpt lat="48.19299" lon="-3.57129">
        <ele>132</ele>
        <time>2024-09-07T10:26:09Z</time>
      </trkpt>
      <trkpt lat="48.19304" lon="-3.57132">
        <ele>132</ele>
        <time>2024-09-07T10:26:10Z</time>
      </trkpt>
      <trkpt lat="48.19309" lon="-3.57135">
        <ele>131.8</ele>
        <time>2024-09-07T10:26:11Z</time>
      </trkpt>
      <trkpt lat="48.19315" lon="-3.57139">
        <ele>131.8</ele>
        <time>2024-09-07T10:26:12Z</time>
      </trkpt>
      <trkpt lat="48.1932" lon="-3.57143">
        <ele>131.8</ele>
        <time>2024-09-07T10:26:13Z</time>
      </trkpt>
      <trkpt lat="48.19325" lon="-3.57147">
        <ele>131.8</ele>
        <time>2024-09-07T10:26:14Z</time>
      </trkpt>
      <trkpt lat="48.19331" lon="-3.57152">
        <ele>131.8</ele>
        <time>2024-09-07T10:26:15Z</time>
      </trkpt>
      <trkpt lat="48.19336" lon="-3.57156">
        <ele>131.8</ele>
        <time>2024-09-07T10:26:16Z</time>
      </trkpt>
      <trkpt lat="48.19342" lon="-3.5716">
        <ele>131.8</ele>
        <time>2024-09-07T10:26:17Z</time>
      </trkpt>
      <trkpt lat="48.19348" lon="-3.57164">
        <ele>131.8</ele>
        <time>2024-09-07T10:26:18Z</time>
      </trkpt>
      <trkpt lat="48.19354" lon="-3.57168">
        <ele>131.6</ele>
        <time>2024-09-07T10:26:19Z</time>
      </trkpt>
      <trkpt lat="48.1936" lon="-3.57172">
        <ele>131.6</ele>
        <time>2024-09-07T10:26:20Z</time>
      </trkpt>
      <trkpt lat="48.19366" lon="-3.57176">
        <ele>131.6</ele>
        <time>2024-09-07T10:26:21Z</time>
      </trkpt>
      <trkpt lat="48.19371" lon="-3.5718">
        <ele>131.6</ele>
        <time>2024-09-07T10:26:22Z</time>
      </trkpt>
      <trkpt lat="48.19377" lon="-3.57184">
        <ele>131.6</ele>
        <time>2024-09-07T10:26:23Z</time>
      </trkpt>
      <trkpt lat="48.19383" lon="-3.57189">
        <ele>131.4</ele>
        <time>2024-09-07T10:26:24Z</time>
      </trkpt>
      <trkpt lat="48.19388" lon="-3.57193">
        <ele>131.4</ele>
        <time>2024-09-07T10:26:25Z</time>
      </trkpt>
      <trkpt lat="48.19394" lon="-3.57198">
        <ele>131.4</ele>
        <time>2024-09-07T10:26:26Z</time>
      </trkpt>
      <trkpt lat="48.19399" lon="-3.57203">
        <ele>131.4</ele>
        <time>2024-09-07T10:26:27Z</time>
      </trkpt>
      <trkpt lat="48.19404" lon="-3.57208">
        <ele>131.4</ele>
        <time>2024-09-07T10:26:28Z</time>
      </trkpt>
      <trkpt lat="48.19408" lon="-3.57214">
        <ele>131.2</ele>
        <time>2024-09-07T10:26:29Z</time>
      </trkpt>
      <trkpt lat="48.19413" lon="-3.57219">
        <ele>131.2</ele>
        <time>2024-09-07T10:26:30Z</time>
      </trkpt>
      <trkpt lat="48.19418" lon="-3.57224">
        <ele>131.2</ele>
        <time>2024-09-07T10:26:31Z</time>
      </trkpt>
      <trkpt lat="48.19422" lon="-3.57229">
        <ele>130.8</ele>
        <time>2024-09-07T10:26:32Z</time>
      </trkpt>
      <trkpt lat="48.19427" lon="-3.57234">
        <ele>130.8</ele>
        <time>2024-09-07T10:26:33Z</time>
      </trkpt>
      <trkpt lat="48.19432" lon="-3.57239">
        <ele>130.6</ele>
        <time>2024-09-07T10:26:34Z</time>
      </trkpt>
      <trkpt lat="48.19437" lon="-3.57245">
        <ele>130.6</ele>
        <time>2024-09-07T10:26:35Z</time>
      </trkpt>
      <trkpt lat="48.19442" lon="-3.57251">
        <ele>130.4</ele>
        <time>2024-09-07T10:26:36Z</time>
      </trkpt>
      <trkpt lat="48.19446" lon="-3.57258">
        <ele>130.4</ele>
        <time>2024-09-07T10:26:37Z</time>
      </trkpt>
      <trkpt lat="48.1945" lon="-3.57265">
        <ele>130.4</ele>
        <time>2024-09-07T10:26:38Z</time>
      </trkpt>
      <trkpt lat="48.19455" lon="-3.57272">
        <ele>130.4</ele>
        <time>2024-09-07T10:26:39Z</time>
      </trkpt>
      <trkpt lat="48.19459" lon="-3.57279">
        <ele>130.2</ele>
        <time>2024-09-07T10:26:40Z</time>
      </trkpt>
      <trkpt lat="48.19464" lon="-3.57286">
        <ele>130.2</ele>
        <time>2024-09-07T10:26:41Z</time>
      </trkpt>
      <trkpt lat="48.19468" lon="-3.57294">
        <ele>130.2</ele>
        <time>2024-09-07T10:26:42Z</time>
      </trkpt>
      <trkpt lat="48.19472" lon="-3.57302">
        <ele>130</ele>
        <time>2024-09-07T10:26:43Z</time>
      </trkpt>
      <trkpt lat="48.19476" lon="-3.5731">
        <ele>130</ele>
        <time>2024-09-07T10:26:44Z</time>
      </trkpt>
      <trkpt lat="48.1948" lon="-3.57318">
        <ele>130</ele>
        <time>2024-09-07T10:26:45Z</time>
      </trkpt>
      <trkpt lat="48.19483" lon="-3.57327">
        <ele>130</ele>
        <time>2024-09-07T10:26:46Z</time>
      </trkpt>
      <trkpt lat="48.19487" lon="-3.57336">
        <ele>130</ele>
        <time>2024-09-07T10:26:47Z</time>
      </trkpt>
      <trkpt lat="48.1949" lon="-3.57345">
        <ele>129.8</ele>
        <time>2024-09-07T10:26:48Z</time>
      </trkpt>
      <trkpt lat="48.19494" lon="-3.57356">
        <ele>129.8</ele>
        <time>2024-09-07T10:26:49Z</time>
      </trkpt>
      <trkpt lat="48.19497" lon="-3.57365">
        <ele>129.8</ele>
        <time>2024-09-07T10:26:50Z</time>
      </trkpt>
      <trkpt lat="48.19501" lon="-3.57374">
        <ele>129.6</ele>
        <time>2024-09-07T10:26:51Z</time>
      </trkpt>
      <trkpt lat="48.19504" lon="-3.57383">
        <ele>129.4</ele>
        <time>2024-09-07T10:26:52Z</time>
      </trkpt>
      <trkpt lat="48.19507" lon="-3.57392">
        <ele>129.2</ele>
        <time>2024-09-07T10:26:53Z</time>
      </trkpt>
      <trkpt lat="48.19511" lon="-3.574">
        <ele>129.2</ele>
        <time>2024-09-07T10:26:54Z</time>
      </trkpt>
      <trkpt lat="48.19513" lon="-3.57407">
        <ele>129</ele>
        <time>2024-09-07T10:26:55Z</time>
      </trkpt>
      <trkpt lat="48.19516" lon="-3.57416">
        <ele>128.8</ele>
        <time>2024-09-07T10:26:56Z</time>
      </trkpt>
      <trkpt lat="48.1952" lon="-3.57427">
        <ele>128.8</ele>
        <time>2024-09-07T10:26:57Z</time>
      </trkpt>
      <trkpt lat="48.19522" lon="-3.57434">
        <ele>128.8</ele>
        <time>2024-09-07T10:26:58Z</time>
      </trkpt>
      <trkpt lat="48.19525" lon="-3.57443">
        <ele>128.6</ele>
        <time>2024-09-07T10:26:59Z</time>
      </trkpt>
      <trkpt lat="48.19529" lon="-3.57451">
        <ele>128.2</ele>
        <time>2024-09-07T10:27:00Z</time>
      </trkpt>
      <trkpt lat="48.19532" lon="-3.5746">
        <ele>128</ele>
        <time>2024-09-07T10:27:01Z</time>
      </trkpt>
      <trkpt lat="48.19535" lon="-3.57468">
        <ele>127.8</ele>
        <time>2024-09-07T10:27:02Z</time>
      </trkpt>
      <trkpt lat="48.19538" lon="-3.57477">
        <ele>127.8</ele>
        <time>2024-09-07T10:27:03Z</time>
      </trkpt>
      <trkpt lat="48.19542" lon="-3.57486">
        <ele>127.6</ele>
        <time>2024-09-07T10:27:04Z</time>
      </trkpt>
      <trkpt lat="48.19545" lon="-3.57495">
        <ele>127.6</ele>
        <time>2024-09-07T10:27:05Z</time>
      </trkpt>
      <trkpt lat="48.19548" lon="-3.57505">
        <ele>127.6</ele>
        <time>2024-09-07T10:27:06Z</time>
      </trkpt>
      <trkpt lat="48.19551" lon="-3.57514">
        <ele>127.6</ele>
        <time>2024-09-07T10:27:07Z</time>
      </trkpt>
      <trkpt lat="48.19555" lon="-3.57524">
        <ele>127.4</ele>
        <time>2024-09-07T10:27:08Z</time>
      </trkpt>
      <trkpt lat="48.19558" lon="-3.57533">
        <ele>127.4</ele>
        <time>2024-09-07T10:27:09Z</time>
      </trkpt>
      <trkpt lat="48.19561" lon="-3.57542">
        <ele>127.2</ele>
        <time>2024-09-07T10:27:10Z</time>
      </trkpt>
      <trkpt lat="48.19565" lon="-3.57551">
        <ele>127</ele>
        <time>2024-09-07T10:27:11Z</time>
      </trkpt>
      <trkpt lat="48.19569" lon="-3.5756">
        <ele>126.8</ele>
        <time>2024-09-07T10:27:12Z</time>
      </trkpt>
      <trkpt lat="48.19572" lon="-3.57569">
        <ele>126.6</ele>
        <time>2024-09-07T10:27:13Z</time>
      </trkpt>
      <trkpt lat="48.19574" lon="-3.57578">
        <ele>126.6</ele>
        <time>2024-09-07T10:27:14Z</time>
      </trkpt>
      <trkpt lat="48.19577" lon="-3.57586">
        <ele>126.4</ele>
        <time>2024-09-07T10:27:15Z</time>
      </trkpt>
      <trkpt lat="48.19579" lon="-3.57595">
        <ele>126.2</ele>
        <time>2024-09-07T10:27:16Z</time>
      </trkpt>
      <trkpt lat="48.19582" lon="-3.57603">
        <ele>126.2</ele>
        <time>2024-09-07T10:27:17Z</time>
      </trkpt>
      <trkpt lat="48.19584" lon="-3.5761">
        <ele>126</ele>
        <time>2024-09-07T10:27:18Z</time>
      </trkpt>
      <trkpt lat="48.19587" lon="-3.57618">
        <ele>125.8</ele>
        <time>2024-09-07T10:27:19Z</time>
      </trkpt>
      <trkpt lat="48.19588" lon="-3.57624">
        <ele>125.6</ele>
        <time>2024-09-07T10:27:20Z</time>
      </trkpt>
      <trkpt lat="48.19592" lon="-3.57634">
        <ele>125.4</ele>
        <time>2024-09-07T10:27:21Z</time>
      </trkpt>
      <trkpt lat="48.19595" lon="-3.57641">
        <ele>125.2</ele>
        <time>2024-09-07T10:27:22Z</time>
      </trkpt>
      <trkpt lat="48.19598" lon="-3.57647">
        <ele>125</ele>
        <time>2024-09-07T10:27:23Z</time>
      </trkpt>
      <trkpt lat="48.19601" lon="-3.57654">
        <ele>125</ele>
        <time>2024-09-07T10:27:24Z</time>
      </trkpt>
      <trkpt lat="48.19604" lon="-3.5766">
        <ele>124.8</ele>
        <time>2024-09-07T10:27:25Z</time>
      </trkpt>
      <trkpt lat="48.19607" lon="-3.57666">
        <ele>124.8</ele>
        <time>2024-09-07T10:27:26Z</time>
      </trkpt>
      <trkpt lat="48.19609" lon="-3.57673">
        <ele>124.8</ele>
        <time>2024-09-07T10:27:27Z</time>
      </trkpt>
      <trkpt lat="48.1961" lon="-3.5768">
        <ele>124.8</ele>
        <time>2024-09-07T10:27:28Z</time>
      </trkpt>
      <trkpt lat="48.19612" lon="-3.57685">
        <ele>124.8</ele>
        <time>2024-09-07T10:27:29Z</time>
      </trkpt>
      <trkpt lat="48.19615" lon="-3.57692">
        <ele>124.6</ele>
        <time>2024-09-07T10:27:30Z</time>
      </trkpt>
      <trkpt lat="48.19617" lon="-3.57698">
        <ele>124.6</ele>
        <time>2024-09-07T10:27:31Z</time>
      </trkpt>
      <trkpt lat="48.19619" lon="-3.57705">
        <ele>124.6</ele>
        <time>2024-09-07T10:27:32Z</time>
      </trkpt>
      <trkpt lat="48.19622" lon="-3.57713">
        <ele>124.4</ele>
        <time>2024-09-07T10:27:33Z</time>
      </trkpt>
      <trkpt lat="48.19626" lon="-3.57721">
        <ele>124.4</ele>
        <time>2024-09-07T10:27:34Z</time>
      </trkpt>
      <trkpt lat="48.19629" lon="-3.57729">
        <ele>124.4</ele>
        <time>2024-09-07T10:27:35Z</time>
      </trkpt>
      <trkpt lat="48.19633" lon="-3.57738">
        <ele>124.2</ele>
        <time>2024-09-07T10:27:36Z</time>
      </trkpt>
      <trkpt lat="48.19635" lon="-3.57745">
        <ele>124.2</ele>
        <time>2024-09-07T10:27:37Z</time>
      </trkpt>
      <trkpt lat="48.19639" lon="-3.57754">
        <ele>124</ele>
        <time>2024-09-07T10:27:38Z</time>
      </trkpt>
      <trkpt lat="48.19642" lon="-3.57763">
        <ele>123.8</ele>
        <time>2024-09-07T10:27:39Z</time>
      </trkpt>
      <trkpt lat="48.19645" lon="-3.57772">
        <ele>123.6</ele>
        <time>2024-09-07T10:27:40Z</time>
      </trkpt>
      <trkpt lat="48.1965" lon="-3.57782">
        <ele>123.4</ele>
        <time>2024-09-07T10:27:41Z</time>
      </trkpt>
      <trkpt lat="48.19652" lon="-3.5779">
        <ele>123.2</ele>
        <time>2024-09-07T10:27:42Z</time>
      </trkpt>
      <trkpt lat="48.19656" lon="-3.578">
        <ele>123</ele>
        <time>2024-09-07T10:27:43Z</time>
      </trkpt>
      <trkpt lat="48.19659" lon="-3.57809">
        <ele>123</ele>
        <time>2024-09-07T10:27:44Z</time>
      </trkpt>
      <trkpt lat="48.19662" lon="-3.57818">
        <ele>122.8</ele>
        <time>2024-09-07T10:27:45Z</time>
      </trkpt>
      <trkpt lat="48.19665" lon="-3.57827">
        <ele>122.8</ele>
        <time>2024-09-07T10:27:46Z</time>
      </trkpt>
      <trkpt lat="48.19667" lon="-3.57835">
        <ele>122.8</ele>
        <time>2024-09-07T10:27:47Z</time>
      </trkpt>
      <trkpt lat="48.1967" lon="-3.57845">
        <ele>122.6</ele>
        <time>2024-09-07T10:27:48Z</time>
      </trkpt>
      <trkpt lat="48.19673" lon="-3.57854">
        <ele>122.6</ele>
        <time>2024-09-07T10:27:49Z</time>
      </trkpt>
      <trkpt lat="48.19676" lon="-3.57862">
        <ele>122.4</ele>
        <time>2024-09-07T10:27:50Z</time>
      </trkpt>
      <trkpt lat="48.19679" lon="-3.5787">
        <ele>122.2</ele>
        <time>2024-09-07T10:27:51Z</time>
      </trkpt>
      <trkpt lat="48.19682" lon="-3.57878">
        <ele>122.2</ele>
        <time>2024-09-07T10:27:52Z</time>
      </trkpt>
      <trkpt lat="48.19684" lon="-3.57885">
        <ele>122</ele>
        <time>2024-09-07T10:27:53Z</time>
      </trkpt>
      <trkpt lat="48.19688" lon="-3.57896">
        <ele>121.8</ele>
        <time>2024-09-07T10:27:54Z</time>
      </trkpt>
      <trkpt lat="48.19691" lon="-3.57905">
        <ele>121.8</ele>
        <time>2024-09-07T10:27:55Z</time>
      </trkpt>
      <trkpt lat="48.19694" lon="-3.57914">
        <ele>121.6</ele>
        <time>2024-09-07T10:27:56Z</time>
      </trkpt>
      <trkpt lat="48.19697" lon="-3.57924">
        <ele>121.6</ele>
        <time>2024-09-07T10:27:57Z</time>
      </trkpt>
      <trkpt lat="48.19699" lon="-3.57931">
        <ele>121.2</ele>
        <time>2024-09-07T10:27:58Z</time>
      </trkpt>
      <trkpt lat="48.19701" lon="-3.5794">
        <ele>121.2</ele>
        <time>2024-09-07T10:27:59Z</time>
      </trkpt>
      <trkpt lat="48.19704" lon="-3.5795">
        <ele>121</ele>
        <time>2024-09-07T10:28:00Z</time>
      </trkpt>
      <trkpt lat="48.19707" lon="-3.57958">
        <ele>121</ele>
        <time>2024-09-07T10:28:01Z</time>
      </trkpt>
      <trkpt lat="48.1971" lon="-3.57966">
        <ele>120.8</ele>
        <time>2024-09-07T10:28:02Z</time>
      </trkpt>
      <trkpt lat="48.19713" lon="-3.57974">
        <ele>120.6</ele>
        <time>2024-09-07T10:28:03Z</time>
      </trkpt>
      <trkpt lat="48.19715" lon="-3.57982">
        <ele>120.6</ele>
        <time>2024-09-07T10:28:04Z</time>
      </trkpt>
      <trkpt lat="48.19718" lon="-3.5799">
        <ele>120.2</ele>
        <time>2024-09-07T10:28:05Z</time>
      </trkpt>
      <trkpt lat="48.1972" lon="-3.57998">
        <ele>120</ele>
        <time>2024-09-07T10:28:06Z</time>
      </trkpt>
      <trkpt lat="48.19722" lon="-3.58005">
        <ele>120</ele>
        <time>2024-09-07T10:28:07Z</time>
      </trkpt>
      <trkpt lat="48.19726" lon="-3.58015">
        <ele>120</ele>
        <time>2024-09-07T10:28:08Z</time>
      </trkpt>
      <trkpt lat="48.19729" lon="-3.58024">
        <ele>119.6</ele>
        <time>2024-09-07T10:28:09Z</time>
      </trkpt>
      <trkpt lat="48.19731" lon="-3.58031">
        <ele>119.6</ele>
        <time>2024-09-07T10:28:10Z</time>
      </trkpt>
      <trkpt lat="48.19734" lon="-3.58039">
        <ele>119.4</ele>
        <time>2024-09-07T10:28:11Z</time>
      </trkpt>
      <trkpt lat="48.19737" lon="-3.58047">
        <ele>119.4</ele>
        <time>2024-09-07T10:28:12Z</time>
      </trkpt>
      <trkpt lat="48.1974" lon="-3.58055">
        <ele>119.2</ele>
        <time>2024-09-07T10:28:13Z</time>
      </trkpt>
      <trkpt lat="48.19742" lon="-3.58063">
        <ele>119.2</ele>
        <time>2024-09-07T10:28:14Z</time>
      </trkpt>
      <trkpt lat="48.19745" lon="-3.5807">
        <ele>119</ele>
        <time>2024-09-07T10:28:15Z</time>
      </trkpt>
      <trkpt lat="48.19748" lon="-3.58078">
        <ele>118.8</ele>
        <time>2024-09-07T10:28:16Z</time>
      </trkpt>
      <trkpt lat="48.19751" lon="-3.58086">
        <ele>118.6</ele>
        <time>2024-09-07T10:28:17Z</time>
      </trkpt>
      <trkpt lat="48.19754" lon="-3.58094">
        <ele>118.6</ele>
        <time>2024-09-07T10:28:18Z</time>
      </trkpt>
      <trkpt lat="48.19757" lon="-3.58103">
        <ele>118.4</ele>
        <time>2024-09-07T10:28:19Z</time>
      </trkpt>
      <trkpt lat="48.19759" lon="-3.58109">
        <ele>118.4</ele>
        <time>2024-09-07T10:28:20Z</time>
      </trkpt>
      <trkpt lat="48.19762" lon="-3.58116">
        <ele>118.2</ele>
        <time>2024-09-07T10:28:21Z</time>
      </trkpt>
      <trkpt lat="48.19766" lon="-3.58126">
        <ele>118.2</ele>
        <time>2024-09-07T10:28:22Z</time>
      </trkpt>
      <trkpt lat="48.19768" lon="-3.58134">
        <ele>118</ele>
        <time>2024-09-07T10:28:23Z</time>
      </trkpt>
      <trkpt lat="48.19771" lon="-3.58141">
        <ele>117.8</ele>
        <time>2024-09-07T10:28:24Z</time>
      </trkpt>
      <trkpt lat="48.19774" lon="-3.5815">
        <ele>117.8</ele>
        <time>2024-09-07T10:28:25Z</time>
      </trkpt>
      <trkpt lat="48.19777" lon="-3.58159">
        <ele>117.6</ele>
        <time>2024-09-07T10:28:26Z</time>
      </trkpt>
      <trkpt lat="48.1978" lon="-3.58168">
        <ele>117.4</ele>
        <time>2024-09-07T10:28:27Z</time>
      </trkpt>
      <trkpt lat="48.19784" lon="-3.58176">
        <ele>117.4</ele>
        <time>2024-09-07T10:28:28Z</time>
      </trkpt>
      <trkpt lat="48.19787" lon="-3.58184">
        <ele>117.4</ele>
        <time>2024-09-07T10:28:29Z</time>
      </trkpt>
      <trkpt lat="48.1979" lon="-3.58192">
        <ele>117.2</ele>
        <time>2024-09-07T10:28:30Z</time>
      </trkpt>
      <trkpt lat="48.19793" lon="-3.582">
        <ele>117.2</ele>
        <time>2024-09-07T10:28:31Z</time>
      </trkpt>
      <trkpt lat="48.19796" lon="-3.58208">
        <ele>117.2</ele>
        <time>2024-09-07T10:28:32Z</time>
      </trkpt>
      <trkpt lat="48.19799" lon="-3.58216">
        <ele>117</ele>
        <time>2024-09-07T10:28:33Z</time>
      </trkpt>
      <trkpt lat="48.19803" lon="-3.58224">
        <ele>116.8</ele>
        <time>2024-09-07T10:28:34Z</time>
      </trkpt>
      <trkpt lat="48.19805" lon="-3.58229">
        <ele>116.6</ele>
        <time>2024-09-07T10:28:35Z</time>
      </trkpt>
      <trkpt lat="48.1981" lon="-3.58238">
        <ele>116.6</ele>
        <time>2024-09-07T10:28:36Z</time>
      </trkpt>
      <trkpt lat="48.19813" lon="-3.58245">
        <ele>116.4</ele>
        <time>2024-09-07T10:28:37Z</time>
      </trkpt>
      <trkpt lat="48.19817" lon="-3.58252">
        <ele>116.2</ele>
        <time>2024-09-07T10:28:38Z</time>
      </trkpt>
      <trkpt lat="48.19821" lon="-3.58259">
        <ele>116.2</ele>
        <time>2024-09-07T10:28:39Z</time>
      </trkpt>
      <trkpt lat="48.19824" lon="-3.58266">
        <ele>116</ele>
        <time>2024-09-07T10:28:40Z</time>
      </trkpt>
      <trkpt lat="48.19828" lon="-3.58272">
        <ele>116</ele>
        <time>2024-09-07T10:28:41Z</time>
      </trkpt>
      <trkpt lat="48.19831" lon="-3.58279">
        <ele>116</ele>
        <time>2024-09-07T10:28:42Z</time>
      </trkpt>
      <trkpt lat="48.19836" lon="-3.58287">
        <ele>115.8</ele>
        <time>2024-09-07T10:28:43Z</time>
      </trkpt>
      <trkpt lat="48.19839" lon="-3.58294">
        <ele>115.8</ele>
        <time>2024-09-07T10:28:44Z</time>
      </trkpt>
      <trkpt lat="48.19843" lon="-3.583">
        <ele>115.6</ele>
        <time>2024-09-07T10:28:45Z</time>
      </trkpt>
      <trkpt lat="48.19847" lon="-3.58306">
        <ele>115.6</ele>
        <time>2024-09-07T10:28:46Z</time>
      </trkpt>
      <trkpt lat="48.19851" lon="-3.58311">
        <ele>115.6</ele>
        <time>2024-09-07T10:28:47Z</time>
      </trkpt>
      <trkpt lat="48.19855" lon="-3.58317">
        <ele>115.6</ele>
        <time>2024-09-07T10:28:48Z</time>
      </trkpt>
      <trkpt lat="48.1986" lon="-3.58323">
        <ele>115.4</ele>
        <time>2024-09-07T10:28:49Z</time>
      </trkpt>
      <trkpt lat="48.19865" lon="-3.58329">
        <ele>115.4</ele>
        <time>2024-09-07T10:28:50Z</time>
      </trkpt>
      <trkpt lat="48.19869" lon="-3.58335">
        <ele>115.2</ele>
        <time>2024-09-07T10:28:51Z</time>
      </trkpt>
      <trkpt lat="48.19874" lon="-3.58341">
        <ele>115.2</ele>
        <time>2024-09-07T10:28:52Z</time>
      </trkpt>
      <trkpt lat="48.19878" lon="-3.58347">
        <ele>115</ele>
        <time>2024-09-07T10:28:53Z</time>
      </trkpt>
      <trkpt lat="48.19882" lon="-3.58352">
        <ele>115</ele>
        <time>2024-09-07T10:28:54Z</time>
      </trkpt>
      <trkpt lat="48.19887" lon="-3.58357">
        <ele>115</ele>
        <time>2024-09-07T10:28:55Z</time>
      </trkpt>
      <trkpt lat="48.19891" lon="-3.58363">
        <ele>115</ele>
        <time>2024-09-07T10:28:56Z</time>
      </trkpt>
      <trkpt lat="48.19896" lon="-3.58368">
        <ele>115</ele>
        <time>2024-09-07T10:28:57Z</time>
      </trkpt>
      <trkpt lat="48.19901" lon="-3.58373">
        <ele>115</ele>
        <time>2024-09-07T10:28:58Z</time>
      </trkpt>
      <trkpt lat="48.19906" lon="-3.58379">
        <ele>115</ele>
        <time>2024-09-07T10:28:59Z</time>
      </trkpt>
      <trkpt lat="48.19911" lon="-3.58384">
        <ele>115</ele>
        <time>2024-09-07T10:29:00Z</time>
      </trkpt>
      <trkpt lat="48.19916" lon="-3.58389">
        <ele>115</ele>
        <time>2024-09-07T10:29:01Z</time>
      </trkpt>
      <trkpt lat="48.19921" lon="-3.58394">
        <ele>115</ele>
        <time>2024-09-07T10:29:02Z</time>
      </trkpt>
      <trkpt lat="48.19928" lon="-3.58399">
        <ele>114.8</ele>
        <time>2024-09-07T10:29:03Z</time>
      </trkpt>
      <trkpt lat="48.19933" lon="-3.58403">
        <ele>114.8</ele>
        <time>2024-09-07T10:29:04Z</time>
      </trkpt>
      <trkpt lat="48.1994" lon="-3.58406">
        <ele>114.6</ele>
        <time>2024-09-07T10:29:05Z</time>
      </trkpt>
      <trkpt lat="48.19946" lon="-3.5841">
        <ele>114.6</ele>
        <time>2024-09-07T10:29:06Z</time>
      </trkpt>
      <trkpt lat="48.19953" lon="-3.58415">
        <ele>114.6</ele>
        <time>2024-09-07T10:29:07Z</time>
      </trkpt>
      <trkpt lat="48.1996" lon="-3.58419">
        <ele>114.6</ele>
        <time>2024-09-07T10:29:08Z</time>
      </trkpt>
      <trkpt lat="48.19966" lon="-3.58423">
        <ele>114.6</ele>
        <time>2024-09-07T10:29:09Z</time>
      </trkpt>
      <trkpt lat="48.19972" lon="-3.58427">
        <ele>114.4</ele>
        <time>2024-09-07T10:29:10Z</time>
      </trkpt>
      <trkpt lat="48.19979" lon="-3.58431">
        <ele>114.2</ele>
        <time>2024-09-07T10:29:11Z</time>
      </trkpt>
      <trkpt lat="48.19985" lon="-3.58435">
        <ele>114</ele>
        <time>2024-09-07T10:29:12Z</time>
      </trkpt>
      <trkpt lat="48.19991" lon="-3.58438">
        <ele>114</ele>
        <time>2024-09-07T10:29:13Z</time>
      </trkpt>
      <trkpt lat="48.19998" lon="-3.58441">
        <ele>113.8</ele>
        <time>2024-09-07T10:29:14Z</time>
      </trkpt>
      <trkpt lat="48.20004" lon="-3.58444">
        <ele>113.8</ele>
        <time>2024-09-07T10:29:15Z</time>
      </trkpt>
      <trkpt lat="48.20011" lon="-3.58447">
        <ele>113.6</ele>
        <time>2024-09-07T10:29:16Z</time>
      </trkpt>
      <trkpt lat="48.20018" lon="-3.5845">
        <ele>113.6</ele>
        <time>2024-09-07T10:29:17Z</time>
      </trkpt>
      <trkpt lat="48.20025" lon="-3.58453">
        <ele>113.4</ele>
        <time>2024-09-07T10:29:18Z</time>
      </trkpt>
      <trkpt lat="48.20032" lon="-3.58455">
        <ele>113.4</ele>
        <time>2024-09-07T10:29:19Z</time>
      </trkpt>
      <trkpt lat="48.20039" lon="-3.58458">
        <ele>113.2</ele>
        <time>2024-09-07T10:29:20Z</time>
      </trkpt>
      <trkpt lat="48.20046" lon="-3.58461">
        <ele>113</ele>
        <time>2024-09-07T10:29:21Z</time>
      </trkpt>
      <trkpt lat="48.20054" lon="-3.58463">
        <ele>112.8</ele>
        <time>2024-09-07T10:29:22Z</time>
      </trkpt>
      <trkpt lat="48.20063" lon="-3.58464">
        <ele>112.6</ele>
        <time>2024-09-07T10:29:23Z</time>
      </trkpt>
      <trkpt lat="48.20069" lon="-3.58465">
        <ele>112.4</ele>
        <time>2024-09-07T10:29:24Z</time>
      </trkpt>
      <trkpt lat="48.20076" lon="-3.58466">
        <ele>112.2</ele>
        <time>2024-09-07T10:29:25Z</time>
      </trkpt>
      <trkpt lat="48.20084" lon="-3.58466">
        <ele>112</ele>
        <time>2024-09-07T10:29:26Z</time>
      </trkpt>
      <trkpt lat="48.20091" lon="-3.58467">
        <ele>112</ele>
        <time>2024-09-07T10:29:27Z</time>
      </trkpt>
      <trkpt lat="48.20099" lon="-3.58467">
        <ele>112</ele>
        <time>2024-09-07T10:29:28Z</time>
      </trkpt>
      <trkpt lat="48.20106" lon="-3.58467">
        <ele>111.8</ele>
        <time>2024-09-07T10:29:29Z</time>
      </trkpt>
      <trkpt lat="48.20113" lon="-3.58466">
        <ele>111.6</ele>
        <time>2024-09-07T10:29:30Z</time>
      </trkpt>
      <trkpt lat="48.2012" lon="-3.58467">
        <ele>111.4</ele>
        <time>2024-09-07T10:29:31Z</time>
      </trkpt>
      <trkpt lat="48.20129" lon="-3.58467">
        <ele>111.4</ele>
        <time>2024-09-07T10:29:32Z</time>
      </trkpt>
      <trkpt lat="48.20134" lon="-3.58467">
        <ele>111.2</ele>
        <time>2024-09-07T10:29:33Z</time>
      </trkpt>
      <trkpt lat="48.2014" lon="-3.58468">
        <ele>111</ele>
        <time>2024-09-07T10:29:34Z</time>
      </trkpt>
      <trkpt lat="48.20148" lon="-3.58469">
        <ele>110.8</ele>
        <time>2024-09-07T10:29:35Z</time>
      </trkpt>
      <trkpt lat="48.20155" lon="-3.5847">
        <ele>110.6</ele>
        <time>2024-09-07T10:29:36Z</time>
      </trkpt>
      <trkpt lat="48.2016" lon="-3.5847">
        <ele>110.6</ele>
        <time>2024-09-07T10:29:37Z</time>
      </trkpt>
      <trkpt lat="48.20169" lon="-3.58471">
        <ele>110.4</ele>
        <time>2024-09-07T10:29:38Z</time>
      </trkpt>
      <trkpt lat="48.20177" lon="-3.58471">
        <ele>110.4</ele>
        <time>2024-09-07T10:29:39Z</time>
      </trkpt>
      <trkpt lat="48.20184" lon="-3.58472">
        <ele>110.4</ele>
        <time>2024-09-07T10:29:40Z</time>
      </trkpt>
      <trkpt lat="48.20191" lon="-3.58472">
        <ele>110.4</ele>
        <time>2024-09-07T10:29:41Z</time>
      </trkpt>
      <trkpt lat="48.20197" lon="-3.58471">
        <ele>110.2</ele>
        <time>2024-09-07T10:29:42Z</time>
      </trkpt>
      <trkpt lat="48.20203" lon="-3.5847">
        <ele>110.2</ele>
        <time>2024-09-07T10:29:43Z</time>
      </trkpt>
      <trkpt lat="48.2021" lon="-3.5847">
        <ele>110</ele>
        <time>2024-09-07T10:29:44Z</time>
      </trkpt>
      <trkpt lat="48.20214" lon="-3.5847">
        <ele>109.8</ele>
        <time>2024-09-07T10:29:45Z</time>
      </trkpt>
      <trkpt lat="48.20219" lon="-3.5847">
        <ele>109.8</ele>
        <time>2024-09-07T10:29:46Z</time>
      </trkpt>
      <trkpt lat="48.20223" lon="-3.5847">
        <ele>109.8</ele>
        <time>2024-09-07T10:29:47Z</time>
      </trkpt>
      <trkpt lat="48.20226" lon="-3.58471">
        <ele>109.8</ele>
        <time>2024-09-07T10:29:48Z</time>
      </trkpt>
      <trkpt lat="48.20228" lon="-3.58471">
        <ele>109.8</ele>
        <time>2024-09-07T10:29:49Z</time>
      </trkpt>
      <trkpt lat="48.20229" lon="-3.58472">
        <ele>109.8</ele>
        <time>2024-09-07T10:29:50Z</time>
      </trkpt>
      <trkpt lat="48.20229" lon="-3.58472">
        <ele>109.8</ele>
        <time>2024-09-07T10:29:51Z</time>
      </trkpt>
      <trkpt lat="48.20233" lon="-3.58477">
        <ele>109.8</ele>
        <time>2024-09-07T10:30:56Z</time>
      </trkpt>
      <trkpt lat="48.20234" lon="-3.58476">
        <ele>109.8</ele>
        <time>2024-09-07T10:30:57Z</time>
      </trkpt>
      <trkpt lat="48.20236" lon="-3.58475">
        <ele>109.8</ele>
        <time>2024-09-07T10:30:58Z</time>
      </trkpt>
      <trkpt lat="48.20238" lon="-3.58474">
        <ele>109.6</ele>
        <time>2024-09-07T10:30:59Z</time>
      </trkpt>
      <trkpt lat="48.20242" lon="-3.58474">
        <ele>109.6</ele>
        <time>2024-09-07T10:31:00Z</time>
      </trkpt>
      <trkpt lat="48.20245" lon="-3.58474">
        <ele>109.6</ele>
        <time>2024-09-07T10:31:01Z</time>
      </trkpt>
      <trkpt lat="48.20249" lon="-3.58475">
        <ele>109.6</ele>
        <time>2024-09-07T10:31:02Z</time>
      </trkpt>
      <trkpt lat="48.20251" lon="-3.58475">
        <ele>109.6</ele>
        <time>2024-09-07T10:31:03Z</time>
      </trkpt>
      <trkpt lat="48.20254" lon="-3.58475">
        <ele>109.6</ele>
        <time>2024-09-07T10:31:04Z</time>
      </trkpt>
      <trkpt lat="48.20256" lon="-3.58475">
        <ele>109.6</ele>
        <time>2024-09-07T10:31:05Z</time>
      </trkpt>
      <trkpt lat="48.20258" lon="-3.58474">
        <ele>109.6</ele>
        <time>2024-09-07T10:31:06Z</time>
      </trkpt>
      <trkpt lat="48.20261" lon="-3.58474">
        <ele>109.6</ele>
        <time>2024-09-07T10:31:07Z</time>
      </trkpt>
      <trkpt lat="48.20263" lon="-3.58475">
        <ele>109.4</ele>
        <time>2024-09-07T10:31:08Z</time>
      </trkpt>
      <trkpt lat="48.20265" lon="-3.58476">
        <ele>109.2</ele>
        <time>2024-09-07T10:31:09Z</time>
      </trkpt>
      <trkpt lat="48.20267" lon="-3.58477">
        <ele>108.8</ele>
        <time>2024-09-07T10:31:10Z</time>
      </trkpt>
      <trkpt lat="48.2027" lon="-3.58478">
        <ele>108.8</ele>
        <time>2024-09-07T10:31:11Z</time>
      </trkpt>
      <trkpt lat="48.20274" lon="-3.58478">
        <ele>108.8</ele>
        <time>2024-09-07T10:31:12Z</time>
      </trkpt>
      <trkpt lat="48.20277" lon="-3.58478">
        <ele>108.6</ele>
        <time>2024-09-07T10:31:13Z</time>
      </trkpt>
      <trkpt lat="48.20281" lon="-3.58479">
        <ele>108.4</ele>
        <time>2024-09-07T10:31:14Z</time>
      </trkpt>
      <trkpt lat="48.20285" lon="-3.5848">
        <ele>108.2</ele>
        <time>2024-09-07T10:31:15Z</time>
      </trkpt>
      <trkpt lat="48.20289" lon="-3.5848">
        <ele>108.2</ele>
        <time>2024-09-07T10:31:16Z</time>
      </trkpt>
      <trkpt lat="48.20293" lon="-3.58481">
        <ele>108</ele>
        <time>2024-09-07T10:31:17Z</time>
      </trkpt>
      <trkpt lat="48.20298" lon="-3.58481">
        <ele>108</ele>
        <time>2024-09-07T10:31:18Z</time>
      </trkpt>
      <trkpt lat="48.20302" lon="-3.58482">
        <ele>108</ele>
        <time>2024-09-07T10:31:19Z</time>
      </trkpt>
      <trkpt lat="48.20307" lon="-3.58482">
        <ele>108</ele>
        <time>2024-09-07T10:31:20Z</time>
      </trkpt>
      <trkpt lat="48.20312" lon="-3.58483">
        <ele>107.8</ele>
        <time>2024-09-07T10:31:21Z</time>
      </trkpt>
      <trkpt lat="48.20316" lon="-3.58484">
        <ele>107.8</ele>
        <time>2024-09-07T10:31:22Z</time>
      </trkpt>
      <trkpt lat="48.20321" lon="-3.58485">
        <ele>107.6</ele>
        <time>2024-09-07T10:31:23Z</time>
      </trkpt>
      <trkpt lat="48.20325" lon="-3.58486">
        <ele>107.4</ele>
        <time>2024-09-07T10:31:24Z</time>
      </trkpt>
      <trkpt lat="48.20329" lon="-3.58487">
        <ele>107.2</ele>
        <time>2024-09-07T10:31:25Z</time>
      </trkpt>
      <trkpt lat="48.20332" lon="-3.58487">
        <ele>107.2</ele>
        <time>2024-09-07T10:31:26Z</time>
      </trkpt>
      <trkpt lat="48.20336" lon="-3.58488">
        <ele>107</ele>
        <time>2024-09-07T10:31:27Z</time>
      </trkpt>
      <trkpt lat="48.2034" lon="-3.58488">
        <ele>107</ele>
        <time>2024-09-07T10:31:28Z</time>
      </trkpt>
      <trkpt lat="48.20344" lon="-3.58488">
        <ele>107</ele>
        <time>2024-09-07T10:31:29Z</time>
      </trkpt>
      <trkpt lat="48.20348" lon="-3.58489">
        <ele>107</ele>
        <time>2024-09-07T10:31:30Z</time>
      </trkpt>
      <trkpt lat="48.20352" lon="-3.58489">
        <ele>106.8</ele>
        <time>2024-09-07T10:31:31Z</time>
      </trkpt>
      <trkpt lat="48.20356" lon="-3.5849">
        <ele>106.8</ele>
        <time>2024-09-07T10:31:32Z</time>
      </trkpt>
      <trkpt lat="48.20361" lon="-3.58491">
        <ele>107</ele>
        <time>2024-09-07T10:31:33Z</time>
      </trkpt>
      <trkpt lat="48.20367" lon="-3.58491">
        <ele>106.8</ele>
        <time>2024-09-07T10:31:34Z</time>
      </trkpt>
      <trkpt lat="48.20372" lon="-3.58492">
        <ele>106.8</ele>
        <time>2024-09-07T10:31:35Z</time>
      </trkpt>
      <trkpt lat="48.20376" lon="-3.58492">
        <ele>106.6</ele>
        <time>2024-09-07T10:31:36Z</time>
      </trkpt>
      <trkpt lat="48.20381" lon="-3.58492">
        <ele>106.6</ele>
        <time>2024-09-07T10:31:37Z</time>
      </trkpt>
      <trkpt lat="48.20386" lon="-3.58492">
        <ele>106.6</ele>
        <time>2024-09-07T10:31:38Z</time>
      </trkpt>
      <trkpt lat="48.20391" lon="-3.58493">
        <ele>106.6</ele>
        <time>2024-09-07T10:31:39Z</time>
      </trkpt>
      <trkpt lat="48.20396" lon="-3.58493">
        <ele>106.6</ele>
        <time>2024-09-07T10:31:40Z</time>
      </trkpt>
      <trkpt lat="48.20402" lon="-3.58493">
        <ele>106.6</ele>
        <time>2024-09-07T10:31:41Z</time>
      </trkpt>
      <trkpt lat="48.20407" lon="-3.58493">
        <ele>106.4</ele>
        <time>2024-09-07T10:31:42Z</time>
      </trkpt>
      <trkpt lat="48.20412" lon="-3.58492">
        <ele>106.4</ele>
        <time>2024-09-07T10:31:43Z</time>
      </trkpt>
      <trkpt lat="48.20417" lon="-3.58492">
        <ele>106.4</ele>
        <time>2024-09-07T10:31:44Z</time>
      </trkpt>
      <trkpt lat="48.20423" lon="-3.58492">
        <ele>106.4</ele>
        <time>2024-09-07T10:31:45Z</time>
      </trkpt>
      <trkpt lat="48.20429" lon="-3.58492">
        <ele>106.4</ele>
        <time>2024-09-07T10:31:46Z</time>
      </trkpt>
      <trkpt lat="48.20436" lon="-3.58492">
        <ele>106.4</ele>
        <time>2024-09-07T10:31:47Z</time>
      </trkpt>
      <trkpt lat="48.20442" lon="-3.58492">
        <ele>106.4</ele>
        <time>2024-09-07T10:31:48Z</time>
      </trkpt>
      <trkpt lat="48.20449" lon="-3.58492">
        <ele>106.4</ele>
        <time>2024-09-07T10:31:49Z</time>
      </trkpt>
      <trkpt lat="48.20455" lon="-3.58493">
        <ele>106.2</ele>
        <time>2024-09-07T10:31:50Z</time>
      </trkpt>
      <trkpt lat="48.20462" lon="-3.58493">
        <ele>106.2</ele>
        <time>2024-09-07T10:31:51Z</time>
      </trkpt>
      <trkpt lat="48.20467" lon="-3.58494">
        <ele>106.2</ele>
        <time>2024-09-07T10:31:52Z</time>
      </trkpt>
      <trkpt lat="48.20475" lon="-3.58494">
        <ele>106</ele>
        <time>2024-09-07T10:31:53Z</time>
      </trkpt>
      <trkpt lat="48.2048" lon="-3.58493">
        <ele>106</ele>
        <time>2024-09-07T10:31:54Z</time>
      </trkpt>
      <trkpt lat="48.20486" lon="-3.58493">
        <ele>106</ele>
        <time>2024-09-07T10:31:55Z</time>
      </trkpt>
      <trkpt lat="48.20494" lon="-3.58492">
        <ele>106</ele>
        <time>2024-09-07T10:31:56Z</time>
      </trkpt>
      <trkpt lat="48.20503" lon="-3.5849">
        <ele>106</ele>
        <time>2024-09-07T10:31:57Z</time>
      </trkpt>
      <trkpt lat="48.2051" lon="-3.58489">
        <ele>105.8</ele>
        <time>2024-09-07T10:31:58Z</time>
      </trkpt>
      <trkpt lat="48.20515" lon="-3.58488">
        <ele>105.8</ele>
        <time>2024-09-07T10:31:59Z</time>
      </trkpt>
      <trkpt lat="48.20522" lon="-3.58487">
        <ele>105.8</ele>
        <time>2024-09-07T10:32:00Z</time>
      </trkpt>
      <trkpt lat="48.20529" lon="-3.58486">
        <ele>105.8</ele>
        <time>2024-09-07T10:32:01Z</time>
      </trkpt>
      <trkpt lat="48.20533" lon="-3.58485">
        <ele>105.8</ele>
        <time>2024-09-07T10:32:02Z</time>
      </trkpt>
      <trkpt lat="48.20539" lon="-3.58485">
        <ele>105.6</ele>
        <time>2024-09-07T10:32:03Z</time>
      </trkpt>
      <trkpt lat="48.20547" lon="-3.58484">
        <ele>105.6</ele>
        <time>2024-09-07T10:32:04Z</time>
      </trkpt>
      <trkpt lat="48.20552" lon="-3.58483">
        <ele>105.6</ele>
        <time>2024-09-07T10:32:05Z</time>
      </trkpt>
      <trkpt lat="48.2056" lon="-3.58482">
        <ele>105.6</ele>
        <time>2024-09-07T10:32:06Z</time>
      </trkpt>
      <trkpt lat="48.20566" lon="-3.58481">
        <ele>105.4</ele>
        <time>2024-09-07T10:32:07Z</time>
      </trkpt>
      <trkpt lat="48.20573" lon="-3.58479">
        <ele>105.4</ele>
        <time>2024-09-07T10:32:08Z</time>
      </trkpt>
      <trkpt lat="48.20579" lon="-3.58478">
        <ele>105.4</ele>
        <time>2024-09-07T10:32:09Z</time>
      </trkpt>
      <trkpt lat="48.20586" lon="-3.58477">
        <ele>105.4</ele>
        <time>2024-09-07T10:32:10Z</time>
      </trkpt>
      <trkpt lat="48.20592" lon="-3.58476">
        <ele>105.4</ele>
        <time>2024-09-07T10:32:11Z</time>
      </trkpt>
      <trkpt lat="48.20599" lon="-3.58474">
        <ele>105.4</ele>
        <time>2024-09-07T10:32:12Z</time>
      </trkpt>
      <trkpt lat="48.20605" lon="-3.58474">
        <ele>105.4</ele>
        <time>2024-09-07T10:32:13Z</time>
      </trkpt>
      <trkpt lat="48.20613" lon="-3.58473">
        <ele>105.4</ele>
        <time>2024-09-07T10:32:14Z</time>
      </trkpt>
      <trkpt lat="48.20617" lon="-3.58472">
        <ele>105.2</ele>
        <time>2024-09-07T10:32:15Z</time>
      </trkpt>
      <trkpt lat="48.20623" lon="-3.58471">
        <ele>105.2</ele>
        <time>2024-09-07T10:32:16Z</time>
      </trkpt>
      <trkpt lat="48.20631" lon="-3.58469">
        <ele>105.2</ele>
        <time>2024-09-07T10:32:17Z</time>
      </trkpt>
      <trkpt lat="48.20638" lon="-3.58467">
        <ele>105.2</ele>
        <time>2024-09-07T10:32:18Z</time>
      </trkpt>
      <trkpt lat="48.20642" lon="-3.58466">
        <ele>105.2</ele>
        <time>2024-09-07T10:32:19Z</time>
      </trkpt>
      <trkpt lat="48.2065" lon="-3.58463">
        <ele>105</ele>
        <time>2024-09-07T10:32:20Z</time>
      </trkpt>
      <trkpt lat="48.20656" lon="-3.58462">
        <ele>105</ele>
        <time>2024-09-07T10:32:21Z</time>
      </trkpt>
      <trkpt lat="48.20662" lon="-3.5846">
        <ele>105</ele>
        <time>2024-09-07T10:32:22Z</time>
      </trkpt>
      <trkpt lat="48.20668" lon="-3.58459">
        <ele>105</ele>
        <time>2024-09-07T10:32:23Z</time>
      </trkpt>
      <trkpt lat="48.20674" lon="-3.58457">
        <ele>105</ele>
        <time>2024-09-07T10:32:24Z</time>
      </trkpt>
      <trkpt lat="48.20679" lon="-3.58454">
        <ele>105</ele>
        <time>2024-09-07T10:32:25Z</time>
      </trkpt>
      <trkpt lat="48.20686" lon="-3.58451">
        <ele>104.8</ele>
        <time>2024-09-07T10:32:26Z</time>
      </trkpt>
      <trkpt lat="48.20691" lon="-3.58448">
        <ele>104.8</ele>
        <time>2024-09-07T10:32:27Z</time>
      </trkpt>
      <trkpt lat="48.20698" lon="-3.58444">
        <ele>104.8</ele>
        <time>2024-09-07T10:32:28Z</time>
      </trkpt>
      <trkpt lat="48.20704" lon="-3.58441">
        <ele>104.8</ele>
        <time>2024-09-07T10:32:29Z</time>
      </trkpt>
      <trkpt lat="48.20711" lon="-3.58437">
        <ele>104.8</ele>
        <time>2024-09-07T10:32:30Z</time>
      </trkpt>
      <trkpt lat="48.20715" lon="-3.58433">
        <ele>104.8</ele>
        <time>2024-09-07T10:32:31Z</time>
      </trkpt>
      <trkpt lat="48.20721" lon="-3.5843">
        <ele>104.6</ele>
        <time>2024-09-07T10:32:32Z</time>
      </trkpt>
      <trkpt lat="48.20728" lon="-3.58427">
        <ele>104.6</ele>
        <time>2024-09-07T10:32:33Z</time>
      </trkpt>
      <trkpt lat="48.20733" lon="-3.58423">
        <ele>104.6</ele>
        <time>2024-09-07T10:32:34Z</time>
      </trkpt>
      <trkpt lat="48.2074" lon="-3.5842">
        <ele>104.6</ele>
        <time>2024-09-07T10:32:35Z</time>
      </trkpt>
      <trkpt lat="48.20745" lon="-3.58417">
        <ele>104.6</ele>
        <time>2024-09-07T10:32:36Z</time>
      </trkpt>
      <trkpt lat="48.20751" lon="-3.58413">
        <ele>104.6</ele>
        <time>2024-09-07T10:32:37Z</time>
      </trkpt>
      <trkpt lat="48.20757" lon="-3.58409">
        <ele>104.4</ele>
        <time>2024-09-07T10:32:38Z</time>
      </trkpt>
      <trkpt lat="48.20763" lon="-3.58406">
        <ele>104.4</ele>
        <time>2024-09-07T10:32:39Z</time>
      </trkpt>
      <trkpt lat="48.20769" lon="-3.58403">
        <ele>104.4</ele>
        <time>2024-09-07T10:32:40Z</time>
      </trkpt>
      <trkpt lat="48.20775" lon="-3.58399">
        <ele>104.4</ele>
        <time>2024-09-07T10:32:41Z</time>
      </trkpt>
      <trkpt lat="48.20781" lon="-3.58395">
        <ele>104.4</ele>
        <time>2024-09-07T10:32:42Z</time>
      </trkpt>
      <trkpt lat="48.20787" lon="-3.58391">
        <ele>104.4</ele>
        <time>2024-09-07T10:32:43Z</time>
      </trkpt>
      <trkpt lat="48.20793" lon="-3.58386">
        <ele>104.4</ele>
        <time>2024-09-07T10:32:44Z</time>
      </trkpt>
      <trkpt lat="48.20798" lon="-3.58382">
        <ele>104.4</ele>
        <time>2024-09-07T10:32:45Z</time>
      </trkpt>
      <trkpt lat="48.20802" lon="-3.5838">
        <ele>104.4</ele>
        <time>2024-09-07T10:32:46Z</time>
      </trkpt>
      <trkpt lat="48.2081" lon="-3.58377">
        <ele>104.4</ele>
        <time>2024-09-07T10:32:47Z</time>
      </trkpt>
      <trkpt lat="48.20816" lon="-3.58374">
        <ele>104.4</ele>
        <time>2024-09-07T10:32:48Z</time>
      </trkpt>
      <trkpt lat="48.20823" lon="-3.58371">
        <ele>104.4</ele>
        <time>2024-09-07T10:32:49Z</time>
      </trkpt>
      <trkpt lat="48.2083" lon="-3.58368">
        <ele>104.2</ele>
        <time>2024-09-07T10:32:50Z</time>
      </trkpt>
      <trkpt lat="48.20836" lon="-3.58366">
        <ele>104.2</ele>
        <time>2024-09-07T10:32:51Z</time>
      </trkpt>
      <trkpt lat="48.20843" lon="-3.58364">
        <ele>104.2</ele>
        <time>2024-09-07T10:32:52Z</time>
      </trkpt>
      <trkpt lat="48.20849" lon="-3.58361">
        <ele>104.2</ele>
        <time>2024-09-07T10:32:53Z</time>
      </trkpt>
      <trkpt lat="48.20854" lon="-3.58357">
        <ele>104.2</ele>
        <time>2024-09-07T10:32:54Z</time>
      </trkpt>
      <trkpt lat="48.20859" lon="-3.58352">
        <ele>104.2</ele>
        <time>2024-09-07T10:32:55Z</time>
      </trkpt>
      <trkpt lat="48.20864" lon="-3.58347">
        <ele>104.2</ele>
        <time>2024-09-07T10:32:56Z</time>
      </trkpt>
      <trkpt lat="48.20869" lon="-3.58344">
        <ele>104.2</ele>
        <time>2024-09-07T10:32:57Z</time>
      </trkpt>
      <trkpt lat="48.20872" lon="-3.58342">
        <ele>104.2</ele>
        <time>2024-09-07T10:32:58Z</time>
      </trkpt>
      <trkpt lat="48.20878" lon="-3.58339">
        <ele>104.2</ele>
        <time>2024-09-07T10:32:59Z</time>
      </trkpt>
      <trkpt lat="48.20882" lon="-3.58337">
        <ele>104.2</ele>
        <time>2024-09-07T10:33:00Z</time>
      </trkpt>
      <trkpt lat="48.20886" lon="-3.58335">
        <ele>104.2</ele>
        <time>2024-09-07T10:33:01Z</time>
      </trkpt>
      <trkpt lat="48.2089" lon="-3.58333">
        <ele>104.2</ele>
        <time>2024-09-07T10:33:02Z</time>
      </trkpt>
      <trkpt lat="48.20894" lon="-3.58331">
        <ele>104.2</ele>
        <time>2024-09-07T10:33:03Z</time>
      </trkpt>
      <trkpt lat="48.20899" lon="-3.58329">
        <ele>104.2</ele>
        <time>2024-09-07T10:33:04Z</time>
      </trkpt>
      <trkpt lat="48.20903" lon="-3.58327">
        <ele>104.2</ele>
        <time>2024-09-07T10:33:05Z</time>
      </trkpt>
      <trkpt lat="48.20906" lon="-3.58325">
        <ele>104</ele>
        <time>2024-09-07T10:33:06Z</time>
      </trkpt>
      <trkpt lat="48.20911" lon="-3.58324">
        <ele>104</ele>
        <time>2024-09-07T10:33:07Z</time>
      </trkpt>
      <trkpt lat="48.20916" lon="-3.58321">
        <ele>104</ele>
        <time>2024-09-07T10:33:08Z</time>
      </trkpt>
      <trkpt lat="48.2092" lon="-3.58318">
        <ele>104</ele>
        <time>2024-09-07T10:33:09Z</time>
      </trkpt>
      <trkpt lat="48.20924" lon="-3.58315">
        <ele>104</ele>
        <time>2024-09-07T10:33:10Z</time>
      </trkpt>
      <trkpt lat="48.20928" lon="-3.58313">
        <ele>104</ele>
        <time>2024-09-07T10:33:11Z</time>
      </trkpt>
      <trkpt lat="48.20933" lon="-3.58311">
        <ele>104</ele>
        <time>2024-09-07T10:33:12Z</time>
      </trkpt>
      <trkpt lat="48.20937" lon="-3.58309">
        <ele>104</ele>
        <time>2024-09-07T10:33:13Z</time>
      </trkpt>
      <trkpt lat="48.20941" lon="-3.58307">
        <ele>104</ele>
        <time>2024-09-07T10:33:14Z</time>
      </trkpt>
      <trkpt lat="48.20945" lon="-3.58305">
        <ele>104</ele>
        <time>2024-09-07T10:33:15Z</time>
      </trkpt>
      <trkpt lat="48.20949" lon="-3.58302">
        <ele>104</ele>
        <time>2024-09-07T10:33:16Z</time>
      </trkpt>
      <trkpt lat="48.20953" lon="-3.583">
        <ele>103.8</ele>
        <time>2024-09-07T10:33:17Z</time>
      </trkpt>
      <trkpt lat="48.20957" lon="-3.58298">
        <ele>103.8</ele>
        <time>2024-09-07T10:33:18Z</time>
      </trkpt>
      <trkpt lat="48.20961" lon="-3.58296">
        <ele>103.8</ele>
        <time>2024-09-07T10:33:19Z</time>
      </trkpt>
      <trkpt lat="48.20966" lon="-3.58294">
        <ele>103.8</ele>
        <time>2024-09-07T10:33:20Z</time>
      </trkpt>
      <trkpt lat="48.20971" lon="-3.58293">
        <ele>103.8</ele>
        <time>2024-09-07T10:33:21Z</time>
      </trkpt>
      <trkpt lat="48.20976" lon="-3.58291">
        <ele>103.6</ele>
        <time>2024-09-07T10:33:22Z</time>
      </trkpt>
      <trkpt lat="48.2098" lon="-3.58289">
        <ele>103.6</ele>
        <time>2024-09-07T10:33:23Z</time>
      </trkpt>
      <trkpt lat="48.20985" lon="-3.58286">
        <ele>103.6</ele>
        <time>2024-09-07T10:33:24Z</time>
      </trkpt>
      <trkpt lat="48.2099" lon="-3.58284">
        <ele>103.6</ele>
        <time>2024-09-07T10:33:25Z</time>
      </trkpt>
      <trkpt lat="48.20995" lon="-3.58282">
        <ele>103.6</ele>
        <time>2024-09-07T10:33:26Z</time>
      </trkpt>
      <trkpt lat="48.20999" lon="-3.58279">
        <ele>103.6</ele>
        <time>2024-09-07T10:33:27Z</time>
      </trkpt>
      <trkpt lat="48.21006" lon="-3.58276">
        <ele>103.6</ele>
        <time>2024-09-07T10:33:28Z</time>
      </trkpt>
      <trkpt lat="48.21012" lon="-3.58273">
        <ele>103.4</ele>
        <time>2024-09-07T10:33:29Z</time>
      </trkpt>
      <trkpt lat="48.21018" lon="-3.58271">
        <ele>103.4</ele>
        <time>2024-09-07T10:33:30Z</time>
      </trkpt>
      <trkpt lat="48.21024" lon="-3.58269">
        <ele>103.4</ele>
        <time>2024-09-07T10:33:31Z</time>
      </trkpt>
      <trkpt lat="48.2103" lon="-3.58267">
        <ele>103.4</ele>
        <time>2024-09-07T10:33:32Z</time>
      </trkpt>
      <trkpt lat="48.21035" lon="-3.58265">
        <ele>103.4</ele>
        <time>2024-09-07T10:33:33Z</time>
      </trkpt>
      <trkpt lat="48.21041" lon="-3.58262">
        <ele>103.4</ele>
        <time>2024-09-07T10:33:34Z</time>
      </trkpt>
      <trkpt lat="48.21046" lon="-3.58261">
        <ele>103.4</ele>
        <time>2024-09-07T10:33:35Z</time>
      </trkpt>
      <trkpt lat="48.21054" lon="-3.58259">
        <ele>103.4</ele>
        <time>2024-09-07T10:33:36Z</time>
      </trkpt>
      <trkpt lat="48.21061" lon="-3.58257">
        <ele>103.4</ele>
        <time>2024-09-07T10:33:37Z</time>
      </trkpt>
      <trkpt lat="48.21068" lon="-3.58255">
        <ele>103.2</ele>
        <time>2024-09-07T10:33:38Z</time>
      </trkpt>
      <trkpt lat="48.21073" lon="-3.58253">
        <ele>103.2</ele>
        <time>2024-09-07T10:33:39Z</time>
      </trkpt>
      <trkpt lat="48.21079" lon="-3.58251">
        <ele>103.2</ele>
        <time>2024-09-07T10:33:40Z</time>
      </trkpt>
      <trkpt lat="48.21087" lon="-3.58248">
        <ele>103</ele>
        <time>2024-09-07T10:33:41Z</time>
      </trkpt>
      <trkpt lat="48.21091" lon="-3.58246">
        <ele>103</ele>
        <time>2024-09-07T10:33:42Z</time>
      </trkpt>
      <trkpt lat="48.21098" lon="-3.58244">
        <ele>103</ele>
        <time>2024-09-07T10:33:43Z</time>
      </trkpt>
      <trkpt lat="48.21105" lon="-3.58241">
        <ele>102.8</ele>
        <time>2024-09-07T10:33:44Z</time>
      </trkpt>
      <trkpt lat="48.21111" lon="-3.58239">
        <ele>102.8</ele>
        <time>2024-09-07T10:33:45Z</time>
      </trkpt>
      <trkpt lat="48.21117" lon="-3.58237">
        <ele>102.8</ele>
        <time>2024-09-07T10:33:46Z</time>
      </trkpt>
      <trkpt lat="48.21123" lon="-3.58235">
        <ele>102.6</ele>
        <time>2024-09-07T10:33:47Z</time>
      </trkpt>
      <trkpt lat="48.2113" lon="-3.58234">
        <ele>102.6</ele>
        <time>2024-09-07T10:33:48Z</time>
      </trkpt>
      <trkpt lat="48.21137" lon="-3.58231">
        <ele>102.6</ele>
        <time>2024-09-07T10:33:49Z</time>
      </trkpt>
      <trkpt lat="48.21144" lon="-3.58229">
        <ele>102.4</ele>
        <time>2024-09-07T10:33:50Z</time>
      </trkpt>
      <trkpt lat="48.2115" lon="-3.58228">
        <ele>102.4</ele>
        <time>2024-09-07T10:33:51Z</time>
      </trkpt>
      <trkpt lat="48.21155" lon="-3.58225">
        <ele>102.4</ele>
        <time>2024-09-07T10:33:52Z</time>
      </trkpt>
      <trkpt lat="48.21161" lon="-3.58224">
        <ele>102.4</ele>
        <time>2024-09-07T10:33:53Z</time>
      </trkpt>
      <trkpt lat="48.21169" lon="-3.58222">
        <ele>102.4</ele>
        <time>2024-09-07T10:33:54Z</time>
      </trkpt>
      <trkpt lat="48.21176" lon="-3.58221">
        <ele>102.2</ele>
        <time>2024-09-07T10:33:55Z</time>
      </trkpt>
      <trkpt lat="48.21183" lon="-3.5822">
        <ele>102.2</ele>
        <time>2024-09-07T10:33:56Z</time>
      </trkpt>
      <trkpt lat="48.21191" lon="-3.5822">
        <ele>102.2</ele>
        <time>2024-09-07T10:33:57Z</time>
      </trkpt>
      <trkpt lat="48.21198" lon="-3.5822">
        <ele>102.2</ele>
        <time>2024-09-07T10:33:58Z</time>
      </trkpt>
      <trkpt lat="48.21204" lon="-3.58221">
        <ele>102.2</ele>
        <time>2024-09-07T10:33:59Z</time>
      </trkpt>
      <trkpt lat="48.2121" lon="-3.58221">
        <ele>102.2</ele>
        <time>2024-09-07T10:34:00Z</time>
      </trkpt>
      <trkpt lat="48.21215" lon="-3.58222">
        <ele>102</ele>
        <time>2024-09-07T10:34:01Z</time>
      </trkpt>
      <trkpt lat="48.21221" lon="-3.58223">
        <ele>102</ele>
        <time>2024-09-07T10:34:02Z</time>
      </trkpt>
      <trkpt lat="48.21227" lon="-3.58224">
        <ele>101.8</ele>
        <time>2024-09-07T10:34:03Z</time>
      </trkpt>
      <trkpt lat="48.21233" lon="-3.58225">
        <ele>101.8</ele>
        <time>2024-09-07T10:34:04Z</time>
      </trkpt>
      <trkpt lat="48.21239" lon="-3.58225">
        <ele>101.8</ele>
        <time>2024-09-07T10:34:05Z</time>
      </trkpt>
      <trkpt lat="48.21245" lon="-3.58225">
        <ele>101.8</ele>
        <time>2024-09-07T10:34:06Z</time>
      </trkpt>
      <trkpt lat="48.21253" lon="-3.58224">
        <ele>101.6</ele>
        <time>2024-09-07T10:34:07Z</time>
      </trkpt>
      <trkpt lat="48.2126" lon="-3.58224">
        <ele>101.6</ele>
        <time>2024-09-07T10:34:08Z</time>
      </trkpt>
      <trkpt lat="48.21265" lon="-3.58224">
        <ele>101.6</ele>
        <time>2024-09-07T10:34:09Z</time>
      </trkpt>
      <trkpt lat="48.21272" lon="-3.58224">
        <ele>101.4</ele>
        <time>2024-09-07T10:34:10Z</time>
      </trkpt>
      <trkpt lat="48.2128" lon="-3.58225">
        <ele>101.4</ele>
        <time>2024-09-07T10:34:11Z</time>
      </trkpt>
      <trkpt lat="48.21285" lon="-3.58226">
        <ele>101.4</ele>
        <time>2024-09-07T10:34:12Z</time>
      </trkpt>
      <trkpt lat="48.21292" lon="-3.58227">
        <ele>101.2</ele>
        <time>2024-09-07T10:34:13Z</time>
      </trkpt>
      <trkpt lat="48.21298" lon="-3.58228">
        <ele>101.2</ele>
        <time>2024-09-07T10:34:14Z</time>
      </trkpt>
      <trkpt lat="48.21304" lon="-3.58227">
        <ele>101.2</ele>
        <time>2024-09-07T10:34:15Z</time>
      </trkpt>
      <trkpt lat="48.2131" lon="-3.58227">
        <ele>101</ele>
        <time>2024-09-07T10:34:16Z</time>
      </trkpt>
      <trkpt lat="48.21316" lon="-3.58228">
        <ele>101</ele>
        <time>2024-09-07T10:34:17Z</time>
      </trkpt>
      <trkpt lat="48.21322" lon="-3.58229">
        <ele>101</ele>
        <time>2024-09-07T10:34:18Z</time>
      </trkpt>
      <trkpt lat="48.21328" lon="-3.58229">
        <ele>101</ele>
        <time>2024-09-07T10:34:19Z</time>
      </trkpt>
      <trkpt lat="48.21334" lon="-3.5823">
        <ele>101</ele>
        <time>2024-09-07T10:34:20Z</time>
      </trkpt>
      <trkpt lat="48.2134" lon="-3.5823">
        <ele>101</ele>
        <time>2024-09-07T10:34:21Z</time>
      </trkpt>
      <trkpt lat="48.21348" lon="-3.5823">
        <ele>101</ele>
        <time>2024-09-07T10:34:22Z</time>
      </trkpt>
      <trkpt lat="48.21354" lon="-3.58231">
        <ele>101</ele>
        <time>2024-09-07T10:34:23Z</time>
      </trkpt>
      <trkpt lat="48.21361" lon="-3.58231">
        <ele>101</ele>
        <time>2024-09-07T10:34:24Z</time>
      </trkpt>
      <trkpt lat="48.21366" lon="-3.58231">
        <ele>101</ele>
        <time>2024-09-07T10:34:25Z</time>
      </trkpt>
      <trkpt lat="48.21372" lon="-3.58231">
        <ele>100.8</ele>
        <time>2024-09-07T10:34:26Z</time>
      </trkpt>
      <trkpt lat="48.21377" lon="-3.58232">
        <ele>100.8</ele>
        <time>2024-09-07T10:34:27Z</time>
      </trkpt>
      <trkpt lat="48.21382" lon="-3.58232">
        <ele>100.6</ele>
        <time>2024-09-07T10:34:28Z</time>
      </trkpt>
      <trkpt lat="48.21388" lon="-3.58233">
        <ele>100.6</ele>
        <time>2024-09-07T10:34:29Z</time>
      </trkpt>
      <trkpt lat="48.21393" lon="-3.58233">
        <ele>100.6</ele>
        <time>2024-09-07T10:34:30Z</time>
      </trkpt>
      <trkpt lat="48.21399" lon="-3.58234">
        <ele>100.6</ele>
        <time>2024-09-07T10:34:31Z</time>
      </trkpt>
      <trkpt lat="48.21405" lon="-3.58235">
        <ele>100.4</ele>
        <time>2024-09-07T10:34:32Z</time>
      </trkpt>
      <trkpt lat="48.21411" lon="-3.58236">
        <ele>100.4</ele>
        <time>2024-09-07T10:34:33Z</time>
      </trkpt>
      <trkpt lat="48.21416" lon="-3.58236">
        <ele>100.4</ele>
        <time>2024-09-07T10:34:34Z</time>
      </trkpt>
      <trkpt lat="48.2142" lon="-3.58237">
        <ele>100.2</ele>
        <time>2024-09-07T10:34:35Z</time>
      </trkpt>
      <trkpt lat="48.21425" lon="-3.58237">
        <ele>100.2</ele>
        <time>2024-09-07T10:34:36Z</time>
      </trkpt>
      <trkpt lat="48.2143" lon="-3.58237">
        <ele>100.2</ele>
        <time>2024-09-07T10:34:37Z</time>
      </trkpt>
      <trkpt lat="48.21434" lon="-3.58237">
        <ele>100.2</ele>
        <time>2024-09-07T10:34:38Z</time>
      </trkpt>
      <trkpt lat="48.21439" lon="-3.58238">
        <ele>100.2</ele>
        <time>2024-09-07T10:34:39Z</time>
      </trkpt>
      <trkpt lat="48.21444" lon="-3.58238">
        <ele>100</ele>
        <time>2024-09-07T10:34:40Z</time>
      </trkpt>
      <trkpt lat="48.21449" lon="-3.58237">
        <ele>100</ele>
        <time>2024-09-07T10:34:41Z</time>
      </trkpt>
      <trkpt lat="48.21455" lon="-3.58235">
        <ele>100</ele>
        <time>2024-09-07T10:34:42Z</time>
      </trkpt>
      <trkpt lat="48.2146" lon="-3.58234">
        <ele>100</ele>
        <time>2024-09-07T10:34:43Z</time>
      </trkpt>
      <trkpt lat="48.21465" lon="-3.58233">
        <ele>100</ele>
        <time>2024-09-07T10:34:44Z</time>
      </trkpt>
      <trkpt lat="48.21469" lon="-3.58232">
        <ele>100</ele>
        <time>2024-09-07T10:34:45Z</time>
      </trkpt>
      <trkpt lat="48.21474" lon="-3.58231">
        <ele>99.8</ele>
        <time>2024-09-07T10:34:46Z</time>
      </trkpt>
      <trkpt lat="48.21478" lon="-3.58231">
        <ele>99.8</ele>
        <time>2024-09-07T10:34:47Z</time>
      </trkpt>
      <trkpt lat="48.21484" lon="-3.5823">
        <ele>99.8</ele>
        <time>2024-09-07T10:34:48Z</time>
      </trkpt>
      <trkpt lat="48.21487" lon="-3.58229">
        <ele>99.6</ele>
        <time>2024-09-07T10:34:49Z</time>
      </trkpt>
      <trkpt lat="48.21491" lon="-3.58228">
        <ele>99.4</ele>
        <time>2024-09-07T10:34:50Z</time>
      </trkpt>
      <trkpt lat="48.21495" lon="-3.58227">
        <ele>99.4</ele>
        <time>2024-09-07T10:34:51Z</time>
      </trkpt>
      <trkpt lat="48.21499" lon="-3.58226">
        <ele>99.4</ele>
        <time>2024-09-07T10:34:52Z</time>
      </trkpt>
      <trkpt lat="48.21503" lon="-3.58225">
        <ele>99.4</ele>
        <time>2024-09-07T10:34:53Z</time>
      </trkpt>
      <trkpt lat="48.21506" lon="-3.58225">
        <ele>99.4</ele>
        <time>2024-09-07T10:34:54Z</time>
      </trkpt>
      <trkpt lat="48.21509" lon="-3.58225">
        <ele>99.4</ele>
        <time>2024-09-07T10:34:55Z</time>
      </trkpt>
      <trkpt lat="48.21512" lon="-3.58225">
        <ele>99.4</ele>
        <time>2024-09-07T10:34:56Z</time>
      </trkpt>
      <trkpt lat="48.21514" lon="-3.58226">
        <ele>99.4</ele>
        <time>2024-09-07T10:34:57Z</time>
      </trkpt>
      <trkpt lat="48.21519" lon="-3.58227">
        <ele>99.4</ele>
        <time>2024-09-07T10:34:58Z</time>
      </trkpt>
      <trkpt lat="48.21522" lon="-3.58227">
        <ele>99.4</ele>
        <time>2024-09-07T10:34:59Z</time>
      </trkpt>
      <trkpt lat="48.21526" lon="-3.58227">
        <ele>99.6</ele>
        <time>2024-09-07T10:35:00Z</time>
      </trkpt>
      <trkpt lat="48.2153" lon="-3.58227">
        <ele>99.8</ele>
        <time>2024-09-07T10:35:01Z</time>
      </trkpt>
      <trkpt lat="48.21534" lon="-3.58227">
        <ele>99.8</ele>
        <time>2024-09-07T10:35:02Z</time>
      </trkpt>
      <trkpt lat="48.21538" lon="-3.58227">
        <ele>100.2</ele>
        <time>2024-09-07T10:35:03Z</time>
      </trkpt>
      <trkpt lat="48.21541" lon="-3.58227">
        <ele>100.6</ele>
        <time>2024-09-07T10:35:04Z</time>
      </trkpt>
      <trkpt lat="48.21544" lon="-3.58227">
        <ele>101</ele>
        <time>2024-09-07T10:35:05Z</time>
      </trkpt>
      <trkpt lat="48.21548" lon="-3.58229">
        <ele>101.4</ele>
        <time>2024-09-07T10:35:06Z</time>
      </trkpt>
      <trkpt lat="48.21553" lon="-3.58232">
        <ele>102</ele>
        <time>2024-09-07T10:35:07Z</time>
      </trkpt>
      <trkpt lat="48.21557" lon="-3.58234">
        <ele>102.4</ele>
        <time>2024-09-07T10:35:08Z</time>
      </trkpt>
      <trkpt lat="48.2156" lon="-3.58237">
        <ele>102.6</ele>
        <time>2024-09-07T10:35:09Z</time>
      </trkpt>
      <trkpt lat="48.21563" lon="-3.5824">
        <ele>103</ele>
        <time>2024-09-07T10:35:10Z</time>
      </trkpt>
      <trkpt lat="48.21565" lon="-3.58242">
        <ele>103.2</ele>
        <time>2024-09-07T10:35:11Z</time>
      </trkpt>
      <trkpt lat="48.21568" lon="-3.58243">
        <ele>103.4</ele>
        <time>2024-09-07T10:35:12Z</time>
      </trkpt>
      <trkpt lat="48.21571" lon="-3.58245">
        <ele>103.8</ele>
        <time>2024-09-07T10:35:13Z</time>
      </trkpt>
      <trkpt lat="48.21573" lon="-3.58247">
        <ele>104</ele>
        <time>2024-09-07T10:35:14Z</time>
      </trkpt>
      <trkpt lat="48.21576" lon="-3.58249">
        <ele>104.4</ele>
        <time>2024-09-07T10:35:15Z</time>
      </trkpt>
      <trkpt lat="48.21578" lon="-3.58251">
        <ele>104.6</ele>
        <time>2024-09-07T10:35:16Z</time>
      </trkpt>
      <trkpt lat="48.2158" lon="-3.58252">
        <ele>105</ele>
        <time>2024-09-07T10:35:17Z</time>
      </trkpt>
      <trkpt lat="48.21582" lon="-3.58253">
        <ele>105.4</ele>
        <time>2024-09-07T10:35:18Z</time>
      </trkpt>
      <trkpt lat="48.21583" lon="-3.58254">
        <ele>105.4</ele>
        <time>2024-09-07T10:35:19Z</time>
      </trkpt>
      <trkpt lat="48.21585" lon="-3.58255">
        <ele>105.8</ele>
        <time>2024-09-07T10:35:20Z</time>
      </trkpt>
      <trkpt lat="48.21586" lon="-3.58255">
        <ele>106.2</ele>
        <time>2024-09-07T10:35:21Z</time>
      </trkpt>
      <trkpt lat="48.21588" lon="-3.58257">
        <ele>106.6</ele>
        <time>2024-09-07T10:35:22Z</time>
      </trkpt>
      <trkpt lat="48.21589" lon="-3.58258">
        <ele>107</ele>
        <time>2024-09-07T10:35:23Z</time>
      </trkpt>
      <trkpt lat="48.21591" lon="-3.5826">
        <ele>107.4</ele>
        <time>2024-09-07T10:35:24Z</time>
      </trkpt>
      <trkpt lat="48.21592" lon="-3.58261">
        <ele>107.8</ele>
        <time>2024-09-07T10:35:25Z</time>
      </trkpt>
      <trkpt lat="48.21594" lon="-3.58263">
        <ele>108.2</ele>
        <time>2024-09-07T10:35:26Z</time>
      </trkpt>
      <trkpt lat="48.21595" lon="-3.58264">
        <ele>108.6</ele>
        <time>2024-09-07T10:35:27Z</time>
      </trkpt>
      <trkpt lat="48.21596" lon="-3.58267">
        <ele>108.8</ele>
        <time>2024-09-07T10:35:28Z</time>
      </trkpt>
      <trkpt lat="48.21598" lon="-3.58269">
        <ele>109.2</ele>
        <time>2024-09-07T10:35:29Z</time>
      </trkpt>
      <trkpt lat="48.21599" lon="-3.58271">
        <ele>109.4</ele>
        <time>2024-09-07T10:35:30Z</time>
      </trkpt>
      <trkpt lat="48.21601" lon="-3.58273">
        <ele>109.8</ele>
        <time>2024-09-07T10:35:31Z</time>
      </trkpt>
      <trkpt lat="48.21602" lon="-3.58276">
        <ele>110.2</ele>
        <time>2024-09-07T10:35:32Z</time>
      </trkpt>
      <trkpt lat="48.21604" lon="-3.58278">
        <ele>110.6</ele>
        <time>2024-09-07T10:35:33Z</time>
      </trkpt>
      <trkpt lat="48.21605" lon="-3.58281">
        <ele>111</ele>
        <time>2024-09-07T10:35:34Z</time>
      </trkpt>
      <trkpt lat="48.21606" lon="-3.58283">
        <ele>111.4</ele>
        <time>2024-09-07T10:35:35Z</time>
      </trkpt>
      <trkpt lat="48.21607" lon="-3.58286">
        <ele>111.8</ele>
        <time>2024-09-07T10:35:36Z</time>
      </trkpt>
      <trkpt lat="48.21608" lon="-3.58289">
        <ele>112.2</ele>
        <time>2024-09-07T10:35:37Z</time>
      </trkpt>
      <trkpt lat="48.21609" lon="-3.58292">
        <ele>112.6</ele>
        <time>2024-09-07T10:35:38Z</time>
      </trkpt>
      <trkpt lat="48.2161" lon="-3.58295">
        <ele>112.8</ele>
        <time>2024-09-07T10:35:39Z</time>
      </trkpt>
      <trkpt lat="48.21611" lon="-3.58297">
        <ele>112.8</ele>
        <time>2024-09-07T10:35:40Z</time>
      </trkpt>
      <trkpt lat="48.21612" lon="-3.58301">
        <ele>113.2</ele>
        <time>2024-09-07T10:35:41Z</time>
      </trkpt>
      <trkpt lat="48.21613" lon="-3.58304">
        <ele>113.2</ele>
        <time>2024-09-07T10:35:42Z</time>
      </trkpt>
      <trkpt lat="48.21614" lon="-3.58308">
        <ele>113.4</ele>
        <time>2024-09-07T10:35:43Z</time>
      </trkpt>
      <trkpt lat="48.21615" lon="-3.58312">
        <ele>113.6</ele>
        <time>2024-09-07T10:35:44Z</time>
      </trkpt>
      <trkpt lat="48.21615" lon="-3.58316">
        <ele>113.8</ele>
        <time>2024-09-07T10:35:45Z</time>
      </trkpt>
      <trkpt lat="48.21616" lon="-3.5832">
        <ele>114</ele>
        <time>2024-09-07T10:35:46Z</time>
      </trkpt>
      <trkpt lat="48.21617" lon="-3.58324">
        <ele>114.2</ele>
        <time>2024-09-07T10:35:47Z</time>
      </trkpt>
      <trkpt lat="48.21617" lon="-3.58327">
        <ele>114.4</ele>
        <time>2024-09-07T10:35:48Z</time>
      </trkpt>
      <trkpt lat="48.21618" lon="-3.58331">
        <ele>114.4</ele>
        <time>2024-09-07T10:35:49Z</time>
      </trkpt>
      <trkpt lat="48.21618" lon="-3.58335">
        <ele>114.6</ele>
        <time>2024-09-07T10:35:50Z</time>
      </trkpt>
      <trkpt lat="48.21618" lon="-3.58339">
        <ele>114.8</ele>
        <time>2024-09-07T10:35:51Z</time>
      </trkpt>
      <trkpt lat="48.21618" lon="-3.58342">
        <ele>115</ele>
        <time>2024-09-07T10:35:52Z</time>
      </trkpt>
      <trkpt lat="48.21617" lon="-3.58346">
        <ele>115</ele>
        <time>2024-09-07T10:35:53Z</time>
      </trkpt>
      <trkpt lat="48.21616" lon="-3.58351">
        <ele>115</ele>
        <time>2024-09-07T10:35:54Z</time>
      </trkpt>
      <trkpt lat="48.21615" lon="-3.58358">
        <ele>115</ele>
        <time>2024-09-07T10:35:55Z</time>
      </trkpt>
      <trkpt lat="48.21614" lon="-3.58366">
        <ele>115</ele>
        <time>2024-09-07T10:35:56Z</time>
      </trkpt>
      <trkpt lat="48.21612" lon="-3.58375">
        <ele>115</ele>
        <time>2024-09-07T10:35:57Z</time>
      </trkpt>
      <trkpt lat="48.21611" lon="-3.58384">
        <ele>115</ele>
        <time>2024-09-07T10:35:58Z</time>
      </trkpt>
      <trkpt lat="48.21609" lon="-3.58393">
        <ele>115</ele>
        <time>2024-09-07T10:35:59Z</time>
      </trkpt>
      <trkpt lat="48.21608" lon="-3.58401">
        <ele>115</ele>
        <time>2024-09-07T10:36:00Z</time>
      </trkpt>
      <trkpt lat="48.21607" lon="-3.58408">
        <ele>115</ele>
        <time>2024-09-07T10:36:01Z</time>
      </trkpt>
      <trkpt lat="48.21606" lon="-3.58414">
        <ele>115</ele>
        <time>2024-09-07T10:36:02Z</time>
      </trkpt>
      <trkpt lat="48.21606" lon="-3.5842">
        <ele>114.8</ele>
        <time>2024-09-07T10:36:03Z</time>
      </trkpt>
      <trkpt lat="48.21607" lon="-3.58424">
        <ele>114.8</ele>
        <time>2024-09-07T10:36:04Z</time>
      </trkpt>
      <trkpt lat="48.21608" lon="-3.58427">
        <ele>114.4</ele>
        <time>2024-09-07T10:36:05Z</time>
      </trkpt>
      <trkpt lat="48.2161" lon="-3.58429">
        <ele>113.8</ele>
        <time>2024-09-07T10:36:06Z</time>
      </trkpt>
      <trkpt lat="48.21612" lon="-3.58428">
        <ele>113.2</ele>
        <time>2024-09-07T10:36:07Z</time>
      </trkpt>
      <trkpt lat="48.21615" lon="-3.58426">
        <ele>112.8</ele>
        <time>2024-09-07T10:36:08Z</time>
      </trkpt>
      <trkpt lat="48.21616" lon="-3.58422">
        <ele>112.4</ele>
        <time>2024-09-07T10:36:09Z</time>
      </trkpt>
      <trkpt lat="48.21618" lon="-3.58415">
        <ele>111.8</ele>
        <time>2024-09-07T10:36:10Z</time>
      </trkpt>
      <trkpt lat="48.2162" lon="-3.58408">
        <ele>111.2</ele>
        <time>2024-09-07T10:36:11Z</time>
      </trkpt>
      <trkpt lat="48.21623" lon="-3.58402">
        <ele>110.6</ele>
        <time>2024-09-07T10:36:12Z</time>
      </trkpt>
      <trkpt lat="48.21626" lon="-3.58397">
        <ele>110.2</ele>
        <time>2024-09-07T10:36:13Z</time>
      </trkpt>
      <trkpt lat="48.21629" lon="-3.58391">
        <ele>109.6</ele>
        <time>2024-09-07T10:36:14Z</time>
      </trkpt>
      <trkpt lat="48.21632" lon="-3.58385">
        <ele>109.2</ele>
        <time>2024-09-07T10:36:15Z</time>
      </trkpt>
      <trkpt lat="48.21636" lon="-3.58382">
        <ele>108.8</ele>
        <time>2024-09-07T10:36:16Z</time>
      </trkpt>
      <trkpt lat="48.21639" lon="-3.5838">
        <ele>108.2</ele>
        <time>2024-09-07T10:36:17Z</time>
      </trkpt>
      <trkpt lat="48.21644" lon="-3.58378">
        <ele>107.6</ele>
        <time>2024-09-07T10:36:18Z</time>
      </trkpt>
      <trkpt lat="48.21647" lon="-3.58375">
        <ele>106.8</ele>
        <time>2024-09-07T10:36:19Z</time>
      </trkpt>
      <trkpt lat="48.21651" lon="-3.58372">
        <ele>106.4</ele>
        <time>2024-09-07T10:36:20Z</time>
      </trkpt>
      <trkpt lat="48.21653" lon="-3.5837">
        <ele>105.8</ele>
        <time>2024-09-07T10:36:21Z</time>
      </trkpt>
      <trkpt lat="48.21654" lon="-3.58368">
        <ele>105.8</ele>
        <time>2024-09-07T10:36:22Z</time>
      </trkpt>
      <trkpt lat="48.21656" lon="-3.58367">
        <ele>105.2</ele>
        <time>2024-09-07T10:36:23Z</time>
      </trkpt>
      <trkpt lat="48.21658" lon="-3.58367">
        <ele>104.6</ele>
        <time>2024-09-07T10:36:24Z</time>
      </trkpt>
      <trkpt lat="48.21659" lon="-3.58368">
        <ele>104</ele>
        <time>2024-09-07T10:36:25Z</time>
      </trkpt>
      <trkpt lat="48.21661" lon="-3.5837">
        <ele>102.8</ele>
        <time>2024-09-07T10:36:26Z</time>
      </trkpt>
      <trkpt lat="48.21662" lon="-3.5837">
        <ele>102.2</ele>
        <time>2024-09-07T10:36:27Z</time>
      </trkpt>
      <trkpt lat="48.21663" lon="-3.5837">
        <ele>101.4</ele>
        <time>2024-09-07T10:36:28Z</time>
      </trkpt>
      <trkpt lat="48.21665" lon="-3.58369">
        <ele>100.8</ele>
        <time>2024-09-07T10:36:29Z</time>
      </trkpt>
      <trkpt lat="48.21666" lon="-3.58367">
        <ele>100.2</ele>
        <time>2024-09-07T10:36:30Z</time>
      </trkpt>
      <trkpt lat="48.21669" lon="-3.58364">
        <ele>99.6</ele>
        <time>2024-09-07T10:36:31Z</time>
      </trkpt>
      <trkpt lat="48.21671" lon="-3.58362">
        <ele>99.2</ele>
        <time>2024-09-07T10:36:32Z</time>
      </trkpt>
      <trkpt lat="48.21674" lon="-3.5836">
        <ele>98.8</ele>
        <time>2024-09-07T10:36:33Z</time>
      </trkpt>
      <trkpt lat="48.21676" lon="-3.5836">
        <ele>98.4</ele>
        <time>2024-09-07T10:36:34Z</time>
      </trkpt>
      <trkpt lat="48.21679" lon="-3.58361">
        <ele>98</ele>
        <time>2024-09-07T10:36:35Z</time>
      </trkpt>
      <trkpt lat="48.21682" lon="-3.58364">
        <ele>97.8</ele>
        <time>2024-09-07T10:36:36Z</time>
      </trkpt>
      <trkpt lat="48.21685" lon="-3.58369">
        <ele>97.4</ele>
        <time>2024-09-07T10:36:37Z</time>
      </trkpt>
      <trkpt lat="48.21687" lon="-3.58374">
        <ele>97</ele>
        <time>2024-09-07T10:36:38Z</time>
      </trkpt>
      <trkpt lat="48.21689" lon="-3.58379">
        <ele>96.8</ele>
        <time>2024-09-07T10:36:39Z</time>
      </trkpt>
      <trkpt lat="48.21691" lon="-3.58386">
        <ele>96.4</ele>
        <time>2024-09-07T10:36:40Z</time>
      </trkpt>
      <trkpt lat="48.21692" lon="-3.58391">
        <ele>96.2</ele>
        <time>2024-09-07T10:36:41Z</time>
      </trkpt>
      <trkpt lat="48.21694" lon="-3.58396">
        <ele>96</ele>
        <time>2024-09-07T10:36:42Z</time>
      </trkpt>
      <trkpt lat="48.21696" lon="-3.584">
        <ele>95.6</ele>
        <time>2024-09-07T10:36:43Z</time>
      </trkpt>
      <trkpt lat="48.21698" lon="-3.58402">
        <ele>95.6</ele>
        <time>2024-09-07T10:36:44Z</time>
      </trkpt>
      <trkpt lat="48.21699" lon="-3.58404">
        <ele>95.2</ele>
        <time>2024-09-07T10:36:45Z</time>
      </trkpt>
      <trkpt lat="48.21701" lon="-3.58405">
        <ele>95.2</ele>
        <time>2024-09-07T10:36:46Z</time>
      </trkpt>
      <trkpt lat="48.21702" lon="-3.58405">
        <ele>95</ele>
        <time>2024-09-07T10:36:47Z</time>
      </trkpt>
      <trkpt lat="48.21706" lon="-3.58407">
        <ele>95</ele>
        <time>2024-09-07T10:36:49Z</time>
      </trkpt>
      <trkpt lat="48.21709" lon="-3.58407">
        <ele>95</ele>
        <time>2024-09-07T10:36:50Z</time>
      </trkpt>
      <trkpt lat="48.21711" lon="-3.58407">
        <ele>95</ele>
        <time>2024-09-07T10:36:51Z</time>
      </trkpt>
      <trkpt lat="48.21713" lon="-3.58408">
        <ele>95</ele>
        <time>2024-09-07T10:36:52Z</time>
      </trkpt>
      <trkpt lat="48.21715" lon="-3.5841">
        <ele>95</ele>
        <time>2024-09-07T10:36:53Z</time>
      </trkpt>
      <trkpt lat="48.21717" lon="-3.58411">
        <ele>95.2</ele>
        <time>2024-09-07T10:36:54Z</time>
      </trkpt>
      <trkpt lat="48.21718" lon="-3.58413">
        <ele>95.4</ele>
        <time>2024-09-07T10:36:55Z</time>
      </trkpt>
      <trkpt lat="48.2172" lon="-3.58416">
        <ele>95.6</ele>
        <time>2024-09-07T10:36:56Z</time>
      </trkpt>
      <trkpt lat="48.21723" lon="-3.5842">
        <ele>95.8</ele>
        <time>2024-09-07T10:36:57Z</time>
      </trkpt>
      <trkpt lat="48.21727" lon="-3.58425">
        <ele>96.2</ele>
        <time>2024-09-07T10:36:58Z</time>
      </trkpt>
      <trkpt lat="48.2173" lon="-3.5843">
        <ele>96.6</ele>
        <time>2024-09-07T10:36:59Z</time>
      </trkpt>
      <trkpt lat="48.21731" lon="-3.58433">
        <ele>97</ele>
        <time>2024-09-07T10:37:00Z</time>
      </trkpt>
      <trkpt lat="48.21733" lon="-3.58437">
        <ele>97.4</ele>
        <time>2024-09-07T10:37:01Z</time>
      </trkpt>
      <trkpt lat="48.21735" lon="-3.58442">
        <ele>97.8</ele>
        <time>2024-09-07T10:37:02Z</time>
      </trkpt>
      <trkpt lat="48.21738" lon="-3.58446">
        <ele>98</ele>
        <time>2024-09-07T10:37:03Z</time>
      </trkpt>
      <trkpt lat="48.2174" lon="-3.5845">
        <ele>98.2</ele>
        <time>2024-09-07T10:37:04Z</time>
      </trkpt>
      <trkpt lat="48.21743" lon="-3.58455">
        <ele>98.2</ele>
        <time>2024-09-07T10:37:05Z</time>
      </trkpt>
      <trkpt lat="48.21745" lon="-3.5846">
        <ele>98.4</ele>
        <time>2024-09-07T10:37:06Z</time>
      </trkpt>
      <trkpt lat="48.21748" lon="-3.58464">
        <ele>98.6</ele>
        <time>2024-09-07T10:37:07Z</time>
      </trkpt>
      <trkpt lat="48.21751" lon="-3.58468">
        <ele>98.6</ele>
        <time>2024-09-07T10:37:08Z</time>
      </trkpt>
      <trkpt lat="48.21753" lon="-3.58473">
        <ele>98.8</ele>
        <time>2024-09-07T10:37:09Z</time>
      </trkpt>
      <trkpt lat="48.21755" lon="-3.58477">
        <ele>98.8</ele>
        <time>2024-09-07T10:37:10Z</time>
      </trkpt>
      <trkpt lat="48.21757" lon="-3.58481">
        <ele>98.8</ele>
        <time>2024-09-07T10:37:11Z</time>
      </trkpt>
      <trkpt lat="48.21758" lon="-3.58484">
        <ele>98.8</ele>
        <time>2024-09-07T10:37:12Z</time>
      </trkpt>
      <trkpt lat="48.2176" lon="-3.58489">
        <ele>98.8</ele>
        <time>2024-09-07T10:37:13Z</time>
      </trkpt>
      <trkpt lat="48.21762" lon="-3.58493">
        <ele>98.8</ele>
        <time>2024-09-07T10:37:14Z</time>
      </trkpt>
      <trkpt lat="48.21765" lon="-3.58497">
        <ele>98.8</ele>
        <time>2024-09-07T10:37:15Z</time>
      </trkpt>
      <trkpt lat="48.21767" lon="-3.58501">
        <ele>98.8</ele>
        <time>2024-09-07T10:37:16Z</time>
      </trkpt>
      <trkpt lat="48.21768" lon="-3.58505">
        <ele>98.8</ele>
        <time>2024-09-07T10:37:17Z</time>
      </trkpt>
      <trkpt lat="48.2177" lon="-3.58509">
        <ele>98.8</ele>
        <time>2024-09-07T10:37:18Z</time>
      </trkpt>
      <trkpt lat="48.21772" lon="-3.58513">
        <ele>98.8</ele>
        <time>2024-09-07T10:37:19Z</time>
      </trkpt>
      <trkpt lat="48.21775" lon="-3.58518">
        <ele>98.8</ele>
        <time>2024-09-07T10:37:20Z</time>
      </trkpt>
      <trkpt lat="48.21777" lon="-3.58523">
        <ele>98.8</ele>
        <time>2024-09-07T10:37:21Z</time>
      </trkpt>
      <trkpt lat="48.21779" lon="-3.58528">
        <ele>98.8</ele>
        <time>2024-09-07T10:37:22Z</time>
      </trkpt>
      <trkpt lat="48.21782" lon="-3.58533">
        <ele>98.8</ele>
        <time>2024-09-07T10:37:23Z</time>
      </trkpt>
      <trkpt lat="48.21785" lon="-3.58538">
        <ele>98.8</ele>
        <time>2024-09-07T10:37:24Z</time>
      </trkpt>
      <trkpt lat="48.21789" lon="-3.58543">
        <ele>98.8</ele>
        <time>2024-09-07T10:37:25Z</time>
      </trkpt>
      <trkpt lat="48.21792" lon="-3.58549">
        <ele>98.8</ele>
        <time>2024-09-07T10:37:26Z</time>
      </trkpt>
      <trkpt lat="48.21795" lon="-3.58554">
        <ele>98.8</ele>
        <time>2024-09-07T10:37:27Z</time>
      </trkpt>
      <trkpt lat="48.21798" lon="-3.58559">
        <ele>98.8</ele>
        <time>2024-09-07T10:37:28Z</time>
      </trkpt>
      <trkpt lat="48.218" lon="-3.58564">
        <ele>98.8</ele>
        <time>2024-09-07T10:37:29Z</time>
      </trkpt>
      <trkpt lat="48.21803" lon="-3.58569">
        <ele>98.8</ele>
        <time>2024-09-07T10:37:30Z</time>
      </trkpt>
      <trkpt lat="48.21806" lon="-3.58574">
        <ele>98.8</ele>
        <time>2024-09-07T10:37:31Z</time>
      </trkpt>
      <trkpt lat="48.21809" lon="-3.58578">
        <ele>98.8</ele>
        <time>2024-09-07T10:37:32Z</time>
      </trkpt>
      <trkpt lat="48.21812" lon="-3.58583">
        <ele>98.8</ele>
        <time>2024-09-07T10:37:33Z</time>
      </trkpt>
      <trkpt lat="48.21815" lon="-3.58588">
        <ele>98.8</ele>
        <time>2024-09-07T10:37:34Z</time>
      </trkpt>
      <trkpt lat="48.21819" lon="-3.58593">
        <ele>98.8</ele>
        <time>2024-09-07T10:37:35Z</time>
      </trkpt>
      <trkpt lat="48.21823" lon="-3.58598">
        <ele>98.8</ele>
        <time>2024-09-07T10:37:36Z</time>
      </trkpt>
      <trkpt lat="48.21827" lon="-3.58602">
        <ele>98.8</ele>
        <time>2024-09-07T10:37:37Z</time>
      </trkpt>
      <trkpt lat="48.21831" lon="-3.58608">
        <ele>98.8</ele>
        <time>2024-09-07T10:37:38Z</time>
      </trkpt>
      <trkpt lat="48.21835" lon="-3.58611">
        <ele>98.8</ele>
        <time>2024-09-07T10:37:39Z</time>
      </trkpt>
      <trkpt lat="48.21838" lon="-3.58615">
        <ele>98.8</ele>
        <time>2024-09-07T10:37:40Z</time>
      </trkpt>
      <trkpt lat="48.21843" lon="-3.58621">
        <ele>98.8</ele>
        <time>2024-09-07T10:37:41Z</time>
      </trkpt>
      <trkpt lat="48.21847" lon="-3.58626">
        <ele>98.8</ele>
        <time>2024-09-07T10:37:42Z</time>
      </trkpt>
      <trkpt lat="48.21851" lon="-3.5863">
        <ele>98.8</ele>
        <time>2024-09-07T10:37:43Z</time>
      </trkpt>
      <trkpt lat="48.21855" lon="-3.58634">
        <ele>98.8</ele>
        <time>2024-09-07T10:37:44Z</time>
      </trkpt>
      <trkpt lat="48.21859" lon="-3.58638">
        <ele>98.8</ele>
        <time>2024-09-07T10:37:45Z</time>
      </trkpt>
      <trkpt lat="48.21863" lon="-3.58641">
        <ele>98.8</ele>
        <time>2024-09-07T10:37:46Z</time>
      </trkpt>
      <trkpt lat="48.21867" lon="-3.58644">
        <ele>98.8</ele>
        <time>2024-09-07T10:37:47Z</time>
      </trkpt>
      <trkpt lat="48.21871" lon="-3.58647">
        <ele>98.8</ele>
        <time>2024-09-07T10:37:48Z</time>
      </trkpt>
      <trkpt lat="48.21875" lon="-3.58649">
        <ele>98.8</ele>
        <time>2024-09-07T10:37:49Z</time>
      </trkpt>
      <trkpt lat="48.21879" lon="-3.58651">
        <ele>98.8</ele>
        <time>2024-09-07T10:37:50Z</time>
      </trkpt>
      <trkpt lat="48.21884" lon="-3.58654">
        <ele>98.6</ele>
        <time>2024-09-07T10:37:51Z</time>
      </trkpt>
      <trkpt lat="48.21888" lon="-3.58656">
        <ele>98.6</ele>
        <time>2024-09-07T10:37:52Z</time>
      </trkpt>
      <trkpt lat="48.21892" lon="-3.5866">
        <ele>98.4</ele>
        <time>2024-09-07T10:37:53Z</time>
      </trkpt>
      <trkpt lat="48.21896" lon="-3.58662">
        <ele>98.4</ele>
        <time>2024-09-07T10:37:54Z</time>
      </trkpt>
      <trkpt lat="48.21901" lon="-3.58666">
        <ele>98.4</ele>
        <time>2024-09-07T10:37:55Z</time>
      </trkpt>
      <trkpt lat="48.21905" lon="-3.58668">
        <ele>98.4</ele>
        <time>2024-09-07T10:37:56Z</time>
      </trkpt>
      <trkpt lat="48.2191" lon="-3.58671">
        <ele>98.4</ele>
        <time>2024-09-07T10:37:57Z</time>
      </trkpt>
      <trkpt lat="48.21915" lon="-3.58674">
        <ele>98.4</ele>
        <time>2024-09-07T10:37:58Z</time>
      </trkpt>
      <trkpt lat="48.2192" lon="-3.58676">
        <ele>98.4</ele>
        <time>2024-09-07T10:37:59Z</time>
      </trkpt>
      <trkpt lat="48.21925" lon="-3.58679">
        <ele>98.4</ele>
        <time>2024-09-07T10:38:00Z</time>
      </trkpt>
      <trkpt lat="48.2193" lon="-3.58682">
        <ele>98.2</ele>
        <time>2024-09-07T10:38:01Z</time>
      </trkpt>
      <trkpt lat="48.21934" lon="-3.58684">
        <ele>98.2</ele>
        <time>2024-09-07T10:38:02Z</time>
      </trkpt>
      <trkpt lat="48.21938" lon="-3.58686">
        <ele>98.2</ele>
        <time>2024-09-07T10:38:03Z</time>
      </trkpt>
      <trkpt lat="48.21942" lon="-3.58688">
        <ele>98.2</ele>
        <time>2024-09-07T10:38:04Z</time>
      </trkpt>
      <trkpt lat="48.21947" lon="-3.58691">
        <ele>98.2</ele>
        <time>2024-09-07T10:38:05Z</time>
      </trkpt>
      <trkpt lat="48.21952" lon="-3.58694">
        <ele>98.2</ele>
        <time>2024-09-07T10:38:06Z</time>
      </trkpt>
      <trkpt lat="48.21956" lon="-3.58696">
        <ele>98</ele>
        <time>2024-09-07T10:38:07Z</time>
      </trkpt>
      <trkpt lat="48.21961" lon="-3.58698">
        <ele>98</ele>
        <time>2024-09-07T10:38:08Z</time>
      </trkpt>
      <trkpt lat="48.21965" lon="-3.587">
        <ele>98</ele>
        <time>2024-09-07T10:38:09Z</time>
      </trkpt>
      <trkpt lat="48.2197" lon="-3.58702">
        <ele>98</ele>
        <time>2024-09-07T10:38:10Z</time>
      </trkpt>
      <trkpt lat="48.21975" lon="-3.58704">
        <ele>98</ele>
        <time>2024-09-07T10:38:11Z</time>
      </trkpt>
      <trkpt lat="48.21981" lon="-3.58706">
        <ele>98</ele>
        <time>2024-09-07T10:38:12Z</time>
      </trkpt>
      <trkpt lat="48.21985" lon="-3.58708">
        <ele>98</ele>
        <time>2024-09-07T10:38:13Z</time>
      </trkpt>
      <trkpt lat="48.21989" lon="-3.5871">
        <ele>97.8</ele>
        <time>2024-09-07T10:38:14Z</time>
      </trkpt>
      <trkpt lat="48.21993" lon="-3.58712">
        <ele>97.8</ele>
        <time>2024-09-07T10:38:15Z</time>
      </trkpt>
      <trkpt lat="48.21997" lon="-3.58713">
        <ele>97.8</ele>
        <time>2024-09-07T10:38:16Z</time>
      </trkpt>
      <trkpt lat="48.22003" lon="-3.58715">
        <ele>97.8</ele>
        <time>2024-09-07T10:38:17Z</time>
      </trkpt>
      <trkpt lat="48.22008" lon="-3.58715">
        <ele>97.8</ele>
        <time>2024-09-07T10:38:18Z</time>
      </trkpt>
      <trkpt lat="48.22013" lon="-3.58717">
        <ele>97.8</ele>
        <time>2024-09-07T10:38:19Z</time>
      </trkpt>
      <trkpt lat="48.22019" lon="-3.58719">
        <ele>97.8</ele>
        <time>2024-09-07T10:38:20Z</time>
      </trkpt>
      <trkpt lat="48.22024" lon="-3.58721">
        <ele>97.8</ele>
        <time>2024-09-07T10:38:21Z</time>
      </trkpt>
      <trkpt lat="48.22028" lon="-3.58722">
        <ele>97.8</ele>
        <time>2024-09-07T10:38:22Z</time>
      </trkpt>
      <trkpt lat="48.22034" lon="-3.58721">
        <ele>97.8</ele>
        <time>2024-09-07T10:38:23Z</time>
      </trkpt>
      <trkpt lat="48.22038" lon="-3.58722">
        <ele>97.8</ele>
        <time>2024-09-07T10:38:24Z</time>
      </trkpt>
      <trkpt lat="48.22042" lon="-3.58723">
        <ele>97.8</ele>
        <time>2024-09-07T10:38:25Z</time>
      </trkpt>
      <trkpt lat="48.22045" lon="-3.58725">
        <ele>97.8</ele>
        <time>2024-09-07T10:38:26Z</time>
      </trkpt>
      <trkpt lat="48.22051" lon="-3.58727">
        <ele>97.8</ele>
        <time>2024-09-07T10:38:27Z</time>
      </trkpt>
      <trkpt lat="48.22055" lon="-3.58729">
        <ele>97.8</ele>
        <time>2024-09-07T10:38:28Z</time>
      </trkpt>
      <trkpt lat="48.2206" lon="-3.5873">
        <ele>97.8</ele>
        <time>2024-09-07T10:38:29Z</time>
      </trkpt>
      <trkpt lat="48.22065" lon="-3.58733">
        <ele>97.8</ele>
        <time>2024-09-07T10:38:30Z</time>
      </trkpt>
      <trkpt lat="48.22071" lon="-3.58734">
        <ele>97.8</ele>
        <time>2024-09-07T10:38:31Z</time>
      </trkpt>
      <trkpt lat="48.22076" lon="-3.58736">
        <ele>97.8</ele>
        <time>2024-09-07T10:38:32Z</time>
      </trkpt>
      <trkpt lat="48.22081" lon="-3.58737">
        <ele>97.8</ele>
        <time>2024-09-07T10:38:33Z</time>
      </trkpt>
      <trkpt lat="48.22085" lon="-3.58739">
        <ele>97.8</ele>
        <time>2024-09-07T10:38:34Z</time>
      </trkpt>
      <trkpt lat="48.22089" lon="-3.58742">
        <ele>97.8</ele>
        <time>2024-09-07T10:38:35Z</time>
      </trkpt>
      <trkpt lat="48.22095" lon="-3.58746">
        <ele>97.8</ele>
        <time>2024-09-07T10:38:36Z</time>
      </trkpt>
      <trkpt lat="48.22101" lon="-3.5875">
        <ele>97.8</ele>
        <time>2024-09-07T10:38:37Z</time>
      </trkpt>
      <trkpt lat="48.22105" lon="-3.58755">
        <ele>97.8</ele>
        <time>2024-09-07T10:38:38Z</time>
      </trkpt>
      <trkpt lat="48.2211" lon="-3.5876">
        <ele>97.6</ele>
        <time>2024-09-07T10:38:39Z</time>
      </trkpt>
      <trkpt lat="48.22114" lon="-3.58764">
        <ele>97.6</ele>
        <time>2024-09-07T10:38:40Z</time>
      </trkpt>
      <trkpt lat="48.2212" lon="-3.5877">
        <ele>97.6</ele>
        <time>2024-09-07T10:38:41Z</time>
      </trkpt>
      <trkpt lat="48.22124" lon="-3.58775">
        <ele>97.6</ele>
        <time>2024-09-07T10:38:42Z</time>
      </trkpt>
      <trkpt lat="48.22127" lon="-3.5878">
        <ele>97.6</ele>
        <time>2024-09-07T10:38:43Z</time>
      </trkpt>
      <trkpt lat="48.2213" lon="-3.58786">
        <ele>97.6</ele>
        <time>2024-09-07T10:38:44Z</time>
      </trkpt>
      <trkpt lat="48.22133" lon="-3.58792">
        <ele>97.6</ele>
        <time>2024-09-07T10:38:45Z</time>
      </trkpt>
      <trkpt lat="48.22136" lon="-3.58796">
        <ele>97.6</ele>
        <time>2024-09-07T10:38:46Z</time>
      </trkpt>
      <trkpt lat="48.22139" lon="-3.58803">
        <ele>97.6</ele>
        <time>2024-09-07T10:38:47Z</time>
      </trkpt>
      <trkpt lat="48.22142" lon="-3.5881">
        <ele>97.6</ele>
        <time>2024-09-07T10:38:48Z</time>
      </trkpt>
      <trkpt lat="48.22144" lon="-3.58815">
        <ele>97.6</ele>
        <time>2024-09-07T10:38:49Z</time>
      </trkpt>
      <trkpt lat="48.22147" lon="-3.58821">
        <ele>97.6</ele>
        <time>2024-09-07T10:38:50Z</time>
      </trkpt>
      <trkpt lat="48.22149" lon="-3.58826">
        <ele>97.6</ele>
        <time>2024-09-07T10:38:51Z</time>
      </trkpt>
      <trkpt lat="48.22152" lon="-3.58832">
        <ele>97.6</ele>
        <time>2024-09-07T10:38:52Z</time>
      </trkpt>
      <trkpt lat="48.22154" lon="-3.58837">
        <ele>97.4</ele>
        <time>2024-09-07T10:38:53Z</time>
      </trkpt>
      <trkpt lat="48.22156" lon="-3.58843">
        <ele>97.4</ele>
        <time>2024-09-07T10:38:54Z</time>
      </trkpt>
      <trkpt lat="48.22158" lon="-3.5885">
        <ele>97.4</ele>
        <time>2024-09-07T10:38:55Z</time>
      </trkpt>
      <trkpt lat="48.2216" lon="-3.58856">
        <ele>97.4</ele>
        <time>2024-09-07T10:38:56Z</time>
      </trkpt>
      <trkpt lat="48.22161" lon="-3.58861">
        <ele>97.4</ele>
        <time>2024-09-07T10:38:57Z</time>
      </trkpt>
      <trkpt lat="48.22163" lon="-3.58866">
        <ele>97.2</ele>
        <time>2024-09-07T10:38:58Z</time>
      </trkpt>
      <trkpt lat="48.22164" lon="-3.58872">
        <ele>97.2</ele>
        <time>2024-09-07T10:38:59Z</time>
      </trkpt>
      <trkpt lat="48.22165" lon="-3.58879">
        <ele>97.2</ele>
        <time>2024-09-07T10:39:00Z</time>
      </trkpt>
      <trkpt lat="48.22167" lon="-3.58886">
        <ele>97.2</ele>
        <time>2024-09-07T10:39:01Z</time>
      </trkpt>
      <trkpt lat="48.22168" lon="-3.58892">
        <ele>97</ele>
        <time>2024-09-07T10:39:02Z</time>
      </trkpt>
      <trkpt lat="48.22168" lon="-3.58898">
        <ele>97</ele>
        <time>2024-09-07T10:39:03Z</time>
      </trkpt>
      <trkpt lat="48.22169" lon="-3.58905">
        <ele>97</ele>
        <time>2024-09-07T10:39:04Z</time>
      </trkpt>
      <trkpt lat="48.2217" lon="-3.58911">
        <ele>96.8</ele>
        <time>2024-09-07T10:39:05Z</time>
      </trkpt>
      <trkpt lat="48.2217" lon="-3.58917">
        <ele>96.8</ele>
        <time>2024-09-07T10:39:06Z</time>
      </trkpt>
      <trkpt lat="48.2217" lon="-3.58921">
        <ele>96.8</ele>
        <time>2024-09-07T10:39:07Z</time>
      </trkpt>
      <trkpt lat="48.2217" lon="-3.58927">
        <ele>96.8</ele>
        <time>2024-09-07T10:39:08Z</time>
      </trkpt>
      <trkpt lat="48.22169" lon="-3.58932">
        <ele>96.8</ele>
        <time>2024-09-07T10:39:09Z</time>
      </trkpt>
      <trkpt lat="48.22169" lon="-3.58938">
        <ele>96.8</ele>
        <time>2024-09-07T10:39:10Z</time>
      </trkpt>
      <trkpt lat="48.2217" lon="-3.58945">
        <ele>96.8</ele>
        <time>2024-09-07T10:39:11Z</time>
      </trkpt>
      <trkpt lat="48.2217" lon="-3.58952">
        <ele>96.6</ele>
        <time>2024-09-07T10:39:12Z</time>
      </trkpt>
      <trkpt lat="48.22171" lon="-3.58958">
        <ele>96.6</ele>
        <time>2024-09-07T10:39:13Z</time>
      </trkpt>
      <trkpt lat="48.22171" lon="-3.58964">
        <ele>96.6</ele>
        <time>2024-09-07T10:39:14Z</time>
      </trkpt>
      <trkpt lat="48.22171" lon="-3.58968">
        <ele>96.6</ele>
        <time>2024-09-07T10:39:15Z</time>
      </trkpt>
      <trkpt lat="48.2217" lon="-3.58972">
        <ele>96.4</ele>
        <time>2024-09-07T10:39:16Z</time>
      </trkpt>
      <trkpt lat="48.2217" lon="-3.58977">
        <ele>96.4</ele>
        <time>2024-09-07T10:39:17Z</time>
      </trkpt>
      <trkpt lat="48.2217" lon="-3.58981">
        <ele>96.2</ele>
        <time>2024-09-07T10:39:18Z</time>
      </trkpt>
      <trkpt lat="48.22169" lon="-3.58985">
        <ele>96.2</ele>
        <time>2024-09-07T10:39:19Z</time>
      </trkpt>
      <trkpt lat="48.22168" lon="-3.5899">
        <ele>96.2</ele>
        <time>2024-09-07T10:39:20Z</time>
      </trkpt>
      <trkpt lat="48.22167" lon="-3.58994">
        <ele>96.2</ele>
        <time>2024-09-07T10:39:21Z</time>
      </trkpt>
      <trkpt lat="48.22166" lon="-3.58998">
        <ele>96</ele>
        <time>2024-09-07T10:39:22Z</time>
      </trkpt>
      <trkpt lat="48.22166" lon="-3.59004">
        <ele>96</ele>
        <time>2024-09-07T10:39:23Z</time>
      </trkpt>
      <trkpt lat="48.22167" lon="-3.59011">
        <ele>95.8</ele>
        <time>2024-09-07T10:39:24Z</time>
      </trkpt>
      <trkpt lat="48.22167" lon="-3.59018">
        <ele>95.8</ele>
        <time>2024-09-07T10:39:25Z</time>
      </trkpt>
      <trkpt lat="48.22166" lon="-3.59024">
        <ele>95.8</ele>
        <time>2024-09-07T10:39:26Z</time>
      </trkpt>
      <trkpt lat="48.22165" lon="-3.5903">
        <ele>95.8</ele>
        <time>2024-09-07T10:39:27Z</time>
      </trkpt>
      <trkpt lat="48.22164" lon="-3.59036">
        <ele>95.6</ele>
        <time>2024-09-07T10:39:28Z</time>
      </trkpt>
      <trkpt lat="48.22164" lon="-3.59043">
        <ele>95.6</ele>
        <time>2024-09-07T10:39:29Z</time>
      </trkpt>
      <trkpt lat="48.22164" lon="-3.59049">
        <ele>95.4</ele>
        <time>2024-09-07T10:39:30Z</time>
      </trkpt>
      <trkpt lat="48.22164" lon="-3.59054">
        <ele>95.4</ele>
        <time>2024-09-07T10:39:31Z</time>
      </trkpt>
      <trkpt lat="48.22164" lon="-3.5906">
        <ele>95.2</ele>
        <time>2024-09-07T10:39:32Z</time>
      </trkpt>
      <trkpt lat="48.22164" lon="-3.59067">
        <ele>95.2</ele>
        <time>2024-09-07T10:39:33Z</time>
      </trkpt>
      <trkpt lat="48.22164" lon="-3.59074">
        <ele>95</ele>
        <time>2024-09-07T10:39:34Z</time>
      </trkpt>
      <trkpt lat="48.22166" lon="-3.59082">
        <ele>95</ele>
        <time>2024-09-07T10:39:35Z</time>
      </trkpt>
      <trkpt lat="48.22166" lon="-3.59088">
        <ele>94.8</ele>
        <time>2024-09-07T10:39:36Z</time>
      </trkpt>
      <trkpt lat="48.22167" lon="-3.59095">
        <ele>94.8</ele>
        <time>2024-09-07T10:39:37Z</time>
      </trkpt>
      <trkpt lat="48.2217" lon="-3.59101">
        <ele>94.8</ele>
        <time>2024-09-07T10:39:38Z</time>
      </trkpt>
      <trkpt lat="48.22172" lon="-3.59108">
        <ele>94.8</ele>
        <time>2024-09-07T10:39:39Z</time>
      </trkpt>
      <trkpt lat="48.22175" lon="-3.59115">
        <ele>94.8</ele>
        <time>2024-09-07T10:39:40Z</time>
      </trkpt>
      <trkpt lat="48.22176" lon="-3.59122">
        <ele>94.6</ele>
        <time>2024-09-07T10:39:41Z</time>
      </trkpt>
      <trkpt lat="48.22178" lon="-3.59131">
        <ele>94.4</ele>
        <time>2024-09-07T10:39:42Z</time>
      </trkpt>
      <trkpt lat="48.2218" lon="-3.59138">
        <ele>94.2</ele>
        <time>2024-09-07T10:39:43Z</time>
      </trkpt>
      <trkpt lat="48.22182" lon="-3.59146">
        <ele>94</ele>
        <time>2024-09-07T10:39:44Z</time>
      </trkpt>
      <trkpt lat="48.22185" lon="-3.59156">
        <ele>94</ele>
        <time>2024-09-07T10:39:45Z</time>
      </trkpt>
      <trkpt lat="48.22189" lon="-3.59166">
        <ele>94</ele>
        <time>2024-09-07T10:39:46Z</time>
      </trkpt>
      <trkpt lat="48.22192" lon="-3.59175">
        <ele>94</ele>
        <time>2024-09-07T10:39:47Z</time>
      </trkpt>
      <trkpt lat="48.22196" lon="-3.59183">
        <ele>93.8</ele>
        <time>2024-09-07T10:39:48Z</time>
      </trkpt>
      <trkpt lat="48.22198" lon="-3.59191">
        <ele>93.6</ele>
        <time>2024-09-07T10:39:49Z</time>
      </trkpt>
      <trkpt lat="48.22202" lon="-3.59199">
        <ele>93.4</ele>
        <time>2024-09-07T10:39:50Z</time>
      </trkpt>
      <trkpt lat="48.22207" lon="-3.59208">
        <ele>93.2</ele>
        <time>2024-09-07T10:39:51Z</time>
      </trkpt>
      <trkpt lat="48.22211" lon="-3.59215">
        <ele>93.2</ele>
        <time>2024-09-07T10:39:52Z</time>
      </trkpt>
      <trkpt lat="48.22215" lon="-3.59223">
        <ele>93.2</ele>
        <time>2024-09-07T10:39:53Z</time>
      </trkpt>
      <trkpt lat="48.22219" lon="-3.5923">
        <ele>93</ele>
        <time>2024-09-07T10:39:54Z</time>
      </trkpt>
      <trkpt lat="48.22224" lon="-3.59237">
        <ele>92.8</ele>
        <time>2024-09-07T10:39:55Z</time>
      </trkpt>
      <trkpt lat="48.22228" lon="-3.59243">
        <ele>92.6</ele>
        <time>2024-09-07T10:39:56Z</time>
      </trkpt>
      <trkpt lat="48.22233" lon="-3.59249">
        <ele>92.6</ele>
        <time>2024-09-07T10:39:57Z</time>
      </trkpt>
      <trkpt lat="48.22237" lon="-3.59255">
        <ele>92.4</ele>
        <time>2024-09-07T10:39:58Z</time>
      </trkpt>
      <trkpt lat="48.22241" lon="-3.5926">
        <ele>92.2</ele>
        <time>2024-09-07T10:39:59Z</time>
      </trkpt>
      <trkpt lat="48.22245" lon="-3.59265">
        <ele>92</ele>
        <time>2024-09-07T10:40:00Z</time>
      </trkpt>
      <trkpt lat="48.22249" lon="-3.5927">
        <ele>91.8</ele>
        <time>2024-09-07T10:40:01Z</time>
      </trkpt>
      <trkpt lat="48.22253" lon="-3.59274">
        <ele>91.8</ele>
        <time>2024-09-07T10:40:02Z</time>
      </trkpt>
      <trkpt lat="48.22257" lon="-3.59279">
        <ele>91.6</ele>
        <time>2024-09-07T10:40:03Z</time>
      </trkpt>
      <trkpt lat="48.22261" lon="-3.59282">
        <ele>91.4</ele>
        <time>2024-09-07T10:40:04Z</time>
      </trkpt>
      <trkpt lat="48.22265" lon="-3.59286">
        <ele>91.2</ele>
        <time>2024-09-07T10:40:05Z</time>
      </trkpt>
      <trkpt lat="48.2227" lon="-3.59289">
        <ele>91</ele>
        <time>2024-09-07T10:40:06Z</time>
      </trkpt>
      <trkpt lat="48.22275" lon="-3.59293">
        <ele>90.8</ele>
        <time>2024-09-07T10:40:07Z</time>
      </trkpt>
      <trkpt lat="48.2228" lon="-3.59296">
        <ele>90.6</ele>
        <time>2024-09-07T10:40:08Z</time>
      </trkpt>
      <trkpt lat="48.22285" lon="-3.59301">
        <ele>90.6</ele>
        <time>2024-09-07T10:40:09Z</time>
      </trkpt>
      <trkpt lat="48.22289" lon="-3.59304">
        <ele>90.6</ele>
        <time>2024-09-07T10:40:10Z</time>
      </trkpt>
      <trkpt lat="48.22294" lon="-3.59307">
        <ele>90.4</ele>
        <time>2024-09-07T10:40:11Z</time>
      </trkpt>
      <trkpt lat="48.223" lon="-3.5931">
        <ele>90.4</ele>
        <time>2024-09-07T10:40:12Z</time>
      </trkpt>
      <trkpt lat="48.22306" lon="-3.59313">
        <ele>90.4</ele>
        <time>2024-09-07T10:40:13Z</time>
      </trkpt>
      <trkpt lat="48.22312" lon="-3.59315">
        <ele>90.4</ele>
        <time>2024-09-07T10:40:14Z</time>
      </trkpt>
      <trkpt lat="48.22318" lon="-3.59317">
        <ele>90.4</ele>
        <time>2024-09-07T10:40:15Z</time>
      </trkpt>
      <trkpt lat="48.22324" lon="-3.59319">
        <ele>90.2</ele>
        <time>2024-09-07T10:40:16Z</time>
      </trkpt>
      <trkpt lat="48.2233" lon="-3.59321">
        <ele>89.8</ele>
        <time>2024-09-07T10:40:17Z</time>
      </trkpt>
      <trkpt lat="48.22336" lon="-3.59322">
        <ele>89.4</ele>
        <time>2024-09-07T10:40:18Z</time>
      </trkpt>
      <trkpt lat="48.22341" lon="-3.59323">
        <ele>89.4</ele>
        <time>2024-09-07T10:40:19Z</time>
      </trkpt>
      <trkpt lat="48.22347" lon="-3.59323">
        <ele>89.2</ele>
        <time>2024-09-07T10:40:20Z</time>
      </trkpt>
      <trkpt lat="48.22353" lon="-3.59324">
        <ele>89.2</ele>
        <time>2024-09-07T10:40:21Z</time>
      </trkpt>
      <trkpt lat="48.22358" lon="-3.59324">
        <ele>89</ele>
        <time>2024-09-07T10:40:22Z</time>
      </trkpt>
      <trkpt lat="48.22364" lon="-3.59323">
        <ele>89</ele>
        <time>2024-09-07T10:40:23Z</time>
      </trkpt>
      <trkpt lat="48.2237" lon="-3.59324">
        <ele>88.8</ele>
        <time>2024-09-07T10:40:24Z</time>
      </trkpt>
      <trkpt lat="48.22376" lon="-3.59324">
        <ele>88.6</ele>
        <time>2024-09-07T10:40:25Z</time>
      </trkpt>
      <trkpt lat="48.22381" lon="-3.59323">
        <ele>88.4</ele>
        <time>2024-09-07T10:40:26Z</time>
      </trkpt>
      <trkpt lat="48.22387" lon="-3.59322">
        <ele>88.2</ele>
        <time>2024-09-07T10:40:27Z</time>
      </trkpt>
      <trkpt lat="48.22392" lon="-3.5932">
        <ele>88</ele>
        <time>2024-09-07T10:40:28Z</time>
      </trkpt>
      <trkpt lat="48.22397" lon="-3.59319">
        <ele>88</ele>
        <time>2024-09-07T10:40:29Z</time>
      </trkpt>
      <trkpt lat="48.22402" lon="-3.59317">
        <ele>88</ele>
        <time>2024-09-07T10:40:30Z</time>
      </trkpt>
      <trkpt lat="48.22408" lon="-3.59316">
        <ele>88</ele>
        <time>2024-09-07T10:40:31Z</time>
      </trkpt>
      <trkpt lat="48.22414" lon="-3.59313">
        <ele>88</ele>
        <time>2024-09-07T10:40:32Z</time>
      </trkpt>
      <trkpt lat="48.22421" lon="-3.59311">
        <ele>88</ele>
        <time>2024-09-07T10:40:33Z</time>
      </trkpt>
      <trkpt lat="48.22428" lon="-3.59309">
        <ele>88</ele>
        <time>2024-09-07T10:40:34Z</time>
      </trkpt>
      <trkpt lat="48.22433" lon="-3.59306">
        <ele>88</ele>
        <time>2024-09-07T10:40:35Z</time>
      </trkpt>
      <trkpt lat="48.22437" lon="-3.59302">
        <ele>88</ele>
        <time>2024-09-07T10:40:36Z</time>
      </trkpt>
      <trkpt lat="48.22443" lon="-3.59298">
        <ele>88</ele>
        <time>2024-09-07T10:40:37Z</time>
      </trkpt>
      <trkpt lat="48.22449" lon="-3.59294">
        <ele>88</ele>
        <time>2024-09-07T10:40:38Z</time>
      </trkpt>
      <trkpt lat="48.22455" lon="-3.59289">
        <ele>88</ele>
        <time>2024-09-07T10:40:39Z</time>
      </trkpt>
      <trkpt lat="48.22462" lon="-3.59283">
        <ele>88</ele>
        <time>2024-09-07T10:40:40Z</time>
      </trkpt>
      <trkpt lat="48.22468" lon="-3.59279">
        <ele>88</ele>
        <time>2024-09-07T10:40:41Z</time>
      </trkpt>
      <trkpt lat="48.22474" lon="-3.59273">
        <ele>88</ele>
        <time>2024-09-07T10:40:42Z</time>
      </trkpt>
      <trkpt lat="48.22479" lon="-3.59268">
        <ele>88</ele>
        <time>2024-09-07T10:40:43Z</time>
      </trkpt>
      <trkpt lat="48.22486" lon="-3.59263">
        <ele>88</ele>
        <time>2024-09-07T10:40:44Z</time>
      </trkpt>
      <trkpt lat="48.22492" lon="-3.59256">
        <ele>88</ele>
        <time>2024-09-07T10:40:45Z</time>
      </trkpt>
      <trkpt lat="48.22497" lon="-3.59251">
        <ele>88</ele>
        <time>2024-09-07T10:40:46Z</time>
      </trkpt>
      <trkpt lat="48.225" lon="-3.59246">
        <ele>87.8</ele>
        <time>2024-09-07T10:40:47Z</time>
      </trkpt>
      <trkpt lat="48.22504" lon="-3.59242">
        <ele>87.8</ele>
        <time>2024-09-07T10:40:48Z</time>
      </trkpt>
      <trkpt lat="48.22508" lon="-3.59236">
        <ele>87.8</ele>
        <time>2024-09-07T10:40:49Z</time>
      </trkpt>
      <trkpt lat="48.22511" lon="-3.59229">
        <ele>87.6</ele>
        <time>2024-09-07T10:40:50Z</time>
      </trkpt>
      <trkpt lat="48.22515" lon="-3.59224">
        <ele>87.4</ele>
        <time>2024-09-07T10:40:51Z</time>
      </trkpt>
      <trkpt lat="48.2252" lon="-3.59217">
        <ele>87.4</ele>
        <time>2024-09-07T10:40:52Z</time>
      </trkpt>
      <trkpt lat="48.22524" lon="-3.59211">
        <ele>87.2</ele>
        <time>2024-09-07T10:40:53Z</time>
      </trkpt>
      <trkpt lat="48.22527" lon="-3.59205">
        <ele>87.2</ele>
        <time>2024-09-07T10:40:54Z</time>
      </trkpt>
      <trkpt lat="48.2253" lon="-3.59198">
        <ele>87.2</ele>
        <time>2024-09-07T10:40:55Z</time>
      </trkpt>
      <trkpt lat="48.22532" lon="-3.59192">
        <ele>87</ele>
        <time>2024-09-07T10:40:56Z</time>
      </trkpt>
      <trkpt lat="48.22536" lon="-3.59185">
        <ele>87</ele>
        <time>2024-09-07T10:40:57Z</time>
      </trkpt>
      <trkpt lat="48.22539" lon="-3.59178">
        <ele>87</ele>
        <time>2024-09-07T10:40:58Z</time>
      </trkpt>
      <trkpt lat="48.22542" lon="-3.59171">
        <ele>86.8</ele>
        <time>2024-09-07T10:40:59Z</time>
      </trkpt>
      <trkpt lat="48.22545" lon="-3.59164">
        <ele>86.6</ele>
        <time>2024-09-07T10:41:00Z</time>
      </trkpt>
      <trkpt lat="48.22547" lon="-3.59158">
        <ele>86.4</ele>
        <time>2024-09-07T10:41:01Z</time>
      </trkpt>
      <trkpt lat="48.2255" lon="-3.5915">
        <ele>86.4</ele>
        <time>2024-09-07T10:41:02Z</time>
      </trkpt>
      <trkpt lat="48.22553" lon="-3.59143">
        <ele>86.4</ele>
        <time>2024-09-07T10:41:03Z</time>
      </trkpt>
      <trkpt lat="48.22556" lon="-3.59135">
        <ele>86.2</ele>
        <time>2024-09-07T10:41:04Z</time>
      </trkpt>
      <trkpt lat="48.22559" lon="-3.59128">
        <ele>86.2</ele>
        <time>2024-09-07T10:41:05Z</time>
      </trkpt>
      <trkpt lat="48.22561" lon="-3.59121">
        <ele>86.2</ele>
        <time>2024-09-07T10:41:06Z</time>
      </trkpt>
      <trkpt lat="48.22563" lon="-3.59115">
        <ele>86</ele>
        <time>2024-09-07T10:41:07Z</time>
      </trkpt>
      <trkpt lat="48.22565" lon="-3.59107">
        <ele>85.8</ele>
        <time>2024-09-07T10:41:08Z</time>
      </trkpt>
      <trkpt lat="48.22567" lon="-3.591">
        <ele>85.8</ele>
        <time>2024-09-07T10:41:09Z</time>
      </trkpt>
      <trkpt lat="48.22569" lon="-3.59093">
        <ele>85.8</ele>
        <time>2024-09-07T10:41:10Z</time>
      </trkpt>
      <trkpt lat="48.22571" lon="-3.59087">
        <ele>85.4</ele>
        <time>2024-09-07T10:41:11Z</time>
      </trkpt>
      <trkpt lat="48.22573" lon="-3.59079">
        <ele>85.4</ele>
        <time>2024-09-07T10:41:12Z</time>
      </trkpt>
      <trkpt lat="48.22576" lon="-3.59072">
        <ele>85.2</ele>
        <time>2024-09-07T10:41:13Z</time>
      </trkpt>
      <trkpt lat="48.2258" lon="-3.59064">
        <ele>85.2</ele>
        <time>2024-09-07T10:41:14Z</time>
      </trkpt>
      <trkpt lat="48.22586" lon="-3.59056">
        <ele>85.2</ele>
        <time>2024-09-07T10:41:15Z</time>
      </trkpt>
      <trkpt lat="48.22588" lon="-3.59049">
        <ele>85.2</ele>
        <time>2024-09-07T10:41:16Z</time>
      </trkpt>
      <trkpt lat="48.22591" lon="-3.59042">
        <ele>85</ele>
        <time>2024-09-07T10:41:17Z</time>
      </trkpt>
      <trkpt lat="48.22593" lon="-3.59035">
        <ele>85</ele>
        <time>2024-09-07T10:41:18Z</time>
      </trkpt>
      <trkpt lat="48.22596" lon="-3.59027">
        <ele>85</ele>
        <time>2024-09-07T10:41:19Z</time>
      </trkpt>
      <trkpt lat="48.226" lon="-3.59019">
        <ele>85</ele>
        <time>2024-09-07T10:41:20Z</time>
      </trkpt>
      <trkpt lat="48.22604" lon="-3.5901">
        <ele>85</ele>
        <time>2024-09-07T10:41:21Z</time>
      </trkpt>
      <trkpt lat="48.22606" lon="-3.59002">
        <ele>85</ele>
        <time>2024-09-07T10:41:22Z</time>
      </trkpt>
      <trkpt lat="48.22611" lon="-3.58993">
        <ele>85</ele>
        <time>2024-09-07T10:41:23Z</time>
      </trkpt>
      <trkpt lat="48.22616" lon="-3.58984">
        <ele>84.8</ele>
        <time>2024-09-07T10:41:24Z</time>
      </trkpt>
      <trkpt lat="48.2262" lon="-3.58976">
        <ele>84.8</ele>
        <time>2024-09-07T10:41:25Z</time>
      </trkpt>
      <trkpt lat="48.22625" lon="-3.5897">
        <ele>84.6</ele>
        <time>2024-09-07T10:41:26Z</time>
      </trkpt>
      <trkpt lat="48.2263" lon="-3.58963">
        <ele>84.6</ele>
        <time>2024-09-07T10:41:27Z</time>
      </trkpt>
      <trkpt lat="48.22637" lon="-3.58957">
        <ele>84.2</ele>
        <time>2024-09-07T10:41:28Z</time>
      </trkpt>
      <trkpt lat="48.22644" lon="-3.58949">
        <ele>84.2</ele>
        <time>2024-09-07T10:41:29Z</time>
      </trkpt>
      <trkpt lat="48.22651" lon="-3.58941">
        <ele>83.8</ele>
        <time>2024-09-07T10:41:30Z</time>
      </trkpt>
      <trkpt lat="48.22657" lon="-3.58934">
        <ele>83.8</ele>
        <time>2024-09-07T10:41:31Z</time>
      </trkpt>
      <trkpt lat="48.22663" lon="-3.58927">
        <ele>83.6</ele>
        <time>2024-09-07T10:41:32Z</time>
      </trkpt>
      <trkpt lat="48.22669" lon="-3.58921">
        <ele>83.6</ele>
        <time>2024-09-07T10:41:33Z</time>
      </trkpt>
      <trkpt lat="48.22674" lon="-3.58914">
        <ele>83.6</ele>
        <time>2024-09-07T10:41:34Z</time>
      </trkpt>
      <trkpt lat="48.22679" lon="-3.58908">
        <ele>83.4</ele>
        <time>2024-09-07T10:41:35Z</time>
      </trkpt>
      <trkpt lat="48.22684" lon="-3.58904">
        <ele>83.4</ele>
        <time>2024-09-07T10:41:36Z</time>
      </trkpt>
      <trkpt lat="48.2269" lon="-3.58899">
        <ele>83.4</ele>
        <time>2024-09-07T10:41:37Z</time>
      </trkpt>
      <trkpt lat="48.22695" lon="-3.58896">
        <ele>83.4</ele>
        <time>2024-09-07T10:41:38Z</time>
      </trkpt>
      <trkpt lat="48.22703" lon="-3.58892">
        <ele>83.2</ele>
        <time>2024-09-07T10:41:39Z</time>
      </trkpt>
      <trkpt lat="48.22708" lon="-3.58888">
        <ele>83.2</ele>
        <time>2024-09-07T10:41:40Z</time>
      </trkpt>
      <trkpt lat="48.22713" lon="-3.58883">
        <ele>83</ele>
        <time>2024-09-07T10:41:41Z</time>
      </trkpt>
      <trkpt lat="48.2272" lon="-3.58879">
        <ele>82.8</ele>
        <time>2024-09-07T10:41:42Z</time>
      </trkpt>
      <trkpt lat="48.22727" lon="-3.58876">
        <ele>82.8</ele>
        <time>2024-09-07T10:41:43Z</time>
      </trkpt>
      <trkpt lat="48.22733" lon="-3.58872">
        <ele>82.6</ele>
        <time>2024-09-07T10:41:44Z</time>
      </trkpt>
      <trkpt lat="48.22739" lon="-3.58868">
        <ele>82.4</ele>
        <time>2024-09-07T10:41:45Z</time>
      </trkpt>
      <trkpt lat="48.22744" lon="-3.58864">
        <ele>82.4</ele>
        <time>2024-09-07T10:41:46Z</time>
      </trkpt>
      <trkpt lat="48.2275" lon="-3.58862">
        <ele>82.2</ele>
        <time>2024-09-07T10:41:47Z</time>
      </trkpt>
      <trkpt lat="48.22757" lon="-3.58862">
        <ele>82.2</ele>
        <time>2024-09-07T10:41:48Z</time>
      </trkpt>
      <trkpt lat="48.22766" lon="-3.58861">
        <ele>82.2</ele>
        <time>2024-09-07T10:41:49Z</time>
      </trkpt>
      <trkpt lat="48.22773" lon="-3.58859">
        <ele>82.2</ele>
        <time>2024-09-07T10:41:50Z</time>
      </trkpt>
      <trkpt lat="48.22777" lon="-3.58857">
        <ele>82</ele>
        <time>2024-09-07T10:41:51Z</time>
      </trkpt>
      <trkpt lat="48.2278" lon="-3.58856">
        <ele>82</ele>
        <time>2024-09-07T10:41:52Z</time>
      </trkpt>
      <trkpt lat="48.22785" lon="-3.58855">
        <ele>81.8</ele>
        <time>2024-09-07T10:41:53Z</time>
      </trkpt>
      <trkpt lat="48.2279" lon="-3.58855">
        <ele>81.8</ele>
        <time>2024-09-07T10:41:54Z</time>
      </trkpt>
      <trkpt lat="48.22794" lon="-3.58855">
        <ele>81.8</ele>
        <time>2024-09-07T10:41:55Z</time>
      </trkpt>
      <trkpt lat="48.22799" lon="-3.58855">
        <ele>81.6</ele>
        <time>2024-09-07T10:41:56Z</time>
      </trkpt>
      <trkpt lat="48.22803" lon="-3.58856">
        <ele>81.6</ele>
        <time>2024-09-07T10:41:57Z</time>
      </trkpt>
      <trkpt lat="48.22807" lon="-3.58855">
        <ele>81.6</ele>
        <time>2024-09-07T10:41:58Z</time>
      </trkpt>
      <trkpt lat="48.22812" lon="-3.58855">
        <ele>81.6</ele>
        <time>2024-09-07T10:41:59Z</time>
      </trkpt>
      <trkpt lat="48.22818" lon="-3.58855">
        <ele>81.4</ele>
        <time>2024-09-07T10:42:00Z</time>
      </trkpt>
      <trkpt lat="48.22825" lon="-3.58855">
        <ele>81.4</ele>
        <time>2024-09-07T10:42:01Z</time>
      </trkpt>
      <trkpt lat="48.22832" lon="-3.58856">
        <ele>81.2</ele>
        <time>2024-09-07T10:42:02Z</time>
      </trkpt>
      <trkpt lat="48.22839" lon="-3.58858">
        <ele>81.2</ele>
        <time>2024-09-07T10:42:03Z</time>
      </trkpt>
      <trkpt lat="48.22845" lon="-3.58859">
        <ele>81</ele>
        <time>2024-09-07T10:42:04Z</time>
      </trkpt>
      <trkpt lat="48.22852" lon="-3.58861">
        <ele>81</ele>
        <time>2024-09-07T10:42:05Z</time>
      </trkpt>
      <trkpt lat="48.22859" lon="-3.58863">
        <ele>81</ele>
        <time>2024-09-07T10:42:06Z</time>
      </trkpt>
      <trkpt lat="48.22864" lon="-3.58864">
        <ele>80.8</ele>
        <time>2024-09-07T10:42:07Z</time>
      </trkpt>
      <trkpt lat="48.2287" lon="-3.58865">
        <ele>80.8</ele>
        <time>2024-09-07T10:42:08Z</time>
      </trkpt>
      <trkpt lat="48.22876" lon="-3.58865">
        <ele>80.6</ele>
        <time>2024-09-07T10:42:09Z</time>
      </trkpt>
      <trkpt lat="48.22883" lon="-3.58867">
        <ele>80.4</ele>
        <time>2024-09-07T10:42:10Z</time>
      </trkpt>
      <trkpt lat="48.22889" lon="-3.58868">
        <ele>80.4</ele>
        <time>2024-09-07T10:42:11Z</time>
      </trkpt>
      <trkpt lat="48.22896" lon="-3.58869">
        <ele>80.2</ele>
        <time>2024-09-07T10:42:12Z</time>
      </trkpt>
      <trkpt lat="48.22902" lon="-3.58871">
        <ele>80</ele>
        <time>2024-09-07T10:42:13Z</time>
      </trkpt>
      <trkpt lat="48.22908" lon="-3.58872">
        <ele>80</ele>
        <time>2024-09-07T10:42:14Z</time>
      </trkpt>
      <trkpt lat="48.22914" lon="-3.58874">
        <ele>79.6</ele>
        <time>2024-09-07T10:42:15Z</time>
      </trkpt>
      <trkpt lat="48.2292" lon="-3.58875">
        <ele>79.6</ele>
        <time>2024-09-07T10:42:16Z</time>
      </trkpt>
      <trkpt lat="48.22926" lon="-3.58876">
        <ele>79.6</ele>
        <time>2024-09-07T10:42:17Z</time>
      </trkpt>
      <trkpt lat="48.22933" lon="-3.58878">
        <ele>79.4</ele>
        <time>2024-09-07T10:42:18Z</time>
      </trkpt>
      <trkpt lat="48.2294" lon="-3.5888">
        <ele>79.2</ele>
        <time>2024-09-07T10:42:19Z</time>
      </trkpt>
      <trkpt lat="48.22947" lon="-3.58882">
        <ele>79.2</ele>
        <time>2024-09-07T10:42:20Z</time>
      </trkpt>
      <trkpt lat="48.22953" lon="-3.58883">
        <ele>79.2</ele>
        <time>2024-09-07T10:42:21Z</time>
      </trkpt>
      <trkpt lat="48.22959" lon="-3.58884">
        <ele>79</ele>
        <time>2024-09-07T10:42:22Z</time>
      </trkpt>
      <trkpt lat="48.22965" lon="-3.58885">
        <ele>78.8</ele>
        <time>2024-09-07T10:42:23Z</time>
      </trkpt>
      <trkpt lat="48.22971" lon="-3.58886">
        <ele>78.8</ele>
        <time>2024-09-07T10:42:24Z</time>
      </trkpt>
      <trkpt lat="48.22977" lon="-3.58888">
        <ele>78.8</ele>
        <time>2024-09-07T10:42:25Z</time>
      </trkpt>
      <trkpt lat="48.22983" lon="-3.5889">
        <ele>78.6</ele>
        <time>2024-09-07T10:42:26Z</time>
      </trkpt>
      <trkpt lat="48.22988" lon="-3.58892">
        <ele>78.4</ele>
        <time>2024-09-07T10:42:27Z</time>
      </trkpt>
      <trkpt lat="48.22994" lon="-3.58895">
        <ele>78.4</ele>
        <time>2024-09-07T10:42:28Z</time>
      </trkpt>
      <trkpt lat="48.23" lon="-3.58898">
        <ele>78.6</ele>
        <time>2024-09-07T10:42:29Z</time>
      </trkpt>
      <trkpt lat="48.23007" lon="-3.58902">
        <ele>78.6</ele>
        <time>2024-09-07T10:42:30Z</time>
      </trkpt>
      <trkpt lat="48.23012" lon="-3.58905">
        <ele>78.6</ele>
        <time>2024-09-07T10:42:31Z</time>
      </trkpt>
      <trkpt lat="48.23018" lon="-3.5891">
        <ele>78.6</ele>
        <time>2024-09-07T10:42:32Z</time>
      </trkpt>
      <trkpt lat="48.23024" lon="-3.58915">
        <ele>78.2</ele>
        <time>2024-09-07T10:42:33Z</time>
      </trkpt>
      <trkpt lat="48.2303" lon="-3.58921">
        <ele>78.2</ele>
        <time>2024-09-07T10:42:34Z</time>
      </trkpt>
      <trkpt lat="48.23037" lon="-3.58925">
        <ele>78.2</ele>
        <time>2024-09-07T10:42:35Z</time>
      </trkpt>
      <trkpt lat="48.23043" lon="-3.58931">
        <ele>78.2</ele>
        <time>2024-09-07T10:42:36Z</time>
      </trkpt>
      <trkpt lat="48.23049" lon="-3.58937">
        <ele>78</ele>
        <time>2024-09-07T10:42:37Z</time>
      </trkpt>
      <trkpt lat="48.23054" lon="-3.58942">
        <ele>78</ele>
        <time>2024-09-07T10:42:38Z</time>
      </trkpt>
      <trkpt lat="48.23061" lon="-3.58948">
        <ele>78</ele>
        <time>2024-09-07T10:42:39Z</time>
      </trkpt>
      <trkpt lat="48.23067" lon="-3.58954">
        <ele>77.8</ele>
        <time>2024-09-07T10:42:40Z</time>
      </trkpt>
      <trkpt lat="48.23073" lon="-3.58959">
        <ele>77.8</ele>
        <time>2024-09-07T10:42:41Z</time>
      </trkpt>
      <trkpt lat="48.23079" lon="-3.58965">
        <ele>77.8</ele>
        <time>2024-09-07T10:42:42Z</time>
      </trkpt>
      <trkpt lat="48.23084" lon="-3.58971">
        <ele>77.8</ele>
        <time>2024-09-07T10:42:43Z</time>
      </trkpt>
      <trkpt lat="48.23089" lon="-3.58976">
        <ele>77.6</ele>
        <time>2024-09-07T10:42:44Z</time>
      </trkpt>
      <trkpt lat="48.23094" lon="-3.58981">
        <ele>77.6</ele>
        <time>2024-09-07T10:42:45Z</time>
      </trkpt>
      <trkpt lat="48.231" lon="-3.58985">
        <ele>77.6</ele>
        <time>2024-09-07T10:42:46Z</time>
      </trkpt>
      <trkpt lat="48.23104" lon="-3.5899">
        <ele>77.4</ele>
        <time>2024-09-07T10:42:47Z</time>
      </trkpt>
      <trkpt lat="48.23108" lon="-3.58996">
        <ele>77.4</ele>
        <time>2024-09-07T10:42:48Z</time>
      </trkpt>
      <trkpt lat="48.23112" lon="-3.59001">
        <ele>77.4</ele>
        <time>2024-09-07T10:42:49Z</time>
      </trkpt>
      <trkpt lat="48.23116" lon="-3.59007">
        <ele>77.4</ele>
        <time>2024-09-07T10:42:50Z</time>
      </trkpt>
      <trkpt lat="48.23121" lon="-3.59013">
        <ele>77.4</ele>
        <time>2024-09-07T10:42:51Z</time>
      </trkpt>
      <trkpt lat="48.23126" lon="-3.59018">
        <ele>77.4</ele>
        <time>2024-09-07T10:42:52Z</time>
      </trkpt>
      <trkpt lat="48.23131" lon="-3.59023">
        <ele>77.4</ele>
        <time>2024-09-07T10:42:53Z</time>
      </trkpt>
      <trkpt lat="48.23136" lon="-3.59029">
        <ele>77.2</ele>
        <time>2024-09-07T10:42:54Z</time>
      </trkpt>
      <trkpt lat="48.23141" lon="-3.59034">
        <ele>77.2</ele>
        <time>2024-09-07T10:42:55Z</time>
      </trkpt>
      <trkpt lat="48.23146" lon="-3.59039">
        <ele>77.2</ele>
        <time>2024-09-07T10:42:56Z</time>
      </trkpt>
      <trkpt lat="48.2315" lon="-3.59044">
        <ele>77.2</ele>
        <time>2024-09-07T10:42:57Z</time>
      </trkpt>
      <trkpt lat="48.23155" lon="-3.5905">
        <ele>77.2</ele>
        <time>2024-09-07T10:42:58Z</time>
      </trkpt>
      <trkpt lat="48.2316" lon="-3.59055">
        <ele>77.2</ele>
        <time>2024-09-07T10:42:59Z</time>
      </trkpt>
      <trkpt lat="48.23164" lon="-3.59061">
        <ele>77</ele>
        <time>2024-09-07T10:43:00Z</time>
      </trkpt>
      <trkpt lat="48.23169" lon="-3.59067">
        <ele>77</ele>
        <time>2024-09-07T10:43:01Z</time>
      </trkpt>
      <trkpt lat="48.23173" lon="-3.59073">
        <ele>77</ele>
        <time>2024-09-07T10:43:02Z</time>
      </trkpt>
      <trkpt lat="48.23178" lon="-3.59078">
        <ele>77</ele>
        <time>2024-09-07T10:43:03Z</time>
      </trkpt>
      <trkpt lat="48.23183" lon="-3.59084">
        <ele>77</ele>
        <time>2024-09-07T10:43:04Z</time>
      </trkpt>
      <trkpt lat="48.23188" lon="-3.5909">
        <ele>77</ele>
        <time>2024-09-07T10:43:05Z</time>
      </trkpt>
      <trkpt lat="48.23193" lon="-3.59096">
        <ele>77</ele>
        <time>2024-09-07T10:43:06Z</time>
      </trkpt>
      <trkpt lat="48.23198" lon="-3.59103">
        <ele>77</ele>
        <time>2024-09-07T10:43:07Z</time>
      </trkpt>
      <trkpt lat="48.23202" lon="-3.59108">
        <ele>76.8</ele>
        <time>2024-09-07T10:43:08Z</time>
      </trkpt>
      <trkpt lat="48.23208" lon="-3.59114">
        <ele>76.8</ele>
        <time>2024-09-07T10:43:09Z</time>
      </trkpt>
      <trkpt lat="48.23211" lon="-3.59121">
        <ele>76.8</ele>
        <time>2024-09-07T10:43:10Z</time>
      </trkpt>
      <trkpt lat="48.23215" lon="-3.59127">
        <ele>76.8</ele>
        <time>2024-09-07T10:43:11Z</time>
      </trkpt>
      <trkpt lat="48.2322" lon="-3.59134">
        <ele>76.6</ele>
        <time>2024-09-07T10:43:12Z</time>
      </trkpt>
      <trkpt lat="48.23224" lon="-3.5914">
        <ele>76.4</ele>
        <time>2024-09-07T10:43:13Z</time>
      </trkpt>
      <trkpt lat="48.23229" lon="-3.59147">
        <ele>76.4</ele>
        <time>2024-09-07T10:43:14Z</time>
      </trkpt>
      <trkpt lat="48.23234" lon="-3.59154">
        <ele>76.4</ele>
        <time>2024-09-07T10:43:15Z</time>
      </trkpt>
      <trkpt lat="48.23239" lon="-3.59161">
        <ele>76.4</ele>
        <time>2024-09-07T10:43:16Z</time>
      </trkpt>
      <trkpt lat="48.23244" lon="-3.59167">
        <ele>76.4</ele>
        <time>2024-09-07T10:43:17Z</time>
      </trkpt>
      <trkpt lat="48.23248" lon="-3.59175">
        <ele>76.2</ele>
        <time>2024-09-07T10:43:18Z</time>
      </trkpt>
      <trkpt lat="48.23251" lon="-3.59182">
        <ele>76.2</ele>
        <time>2024-09-07T10:43:19Z</time>
      </trkpt>
      <trkpt lat="48.23256" lon="-3.59189">
        <ele>76.2</ele>
        <time>2024-09-07T10:43:20Z</time>
      </trkpt>
      <trkpt lat="48.23261" lon="-3.59195">
        <ele>76.2</ele>
        <time>2024-09-07T10:43:21Z</time>
      </trkpt>
      <trkpt lat="48.23264" lon="-3.592">
        <ele>76.2</ele>
        <time>2024-09-07T10:43:22Z</time>
      </trkpt>
      <trkpt lat="48.23268" lon="-3.59206">
        <ele>76.2</ele>
        <time>2024-09-07T10:43:23Z</time>
      </trkpt>
      <trkpt lat="48.23272" lon="-3.59211">
        <ele>76.2</ele>
        <time>2024-09-07T10:43:24Z</time>
      </trkpt>
      <trkpt lat="48.23276" lon="-3.59216">
        <ele>76.2</ele>
        <time>2024-09-07T10:43:25Z</time>
      </trkpt>
      <trkpt lat="48.23278" lon="-3.59223">
        <ele>76.2</ele>
        <time>2024-09-07T10:43:26Z</time>
      </trkpt>
      <trkpt lat="48.23282" lon="-3.59229">
        <ele>76.2</ele>
        <time>2024-09-07T10:43:27Z</time>
      </trkpt>
      <trkpt lat="48.23286" lon="-3.59235">
        <ele>76.2</ele>
        <time>2024-09-07T10:43:28Z</time>
      </trkpt>
      <trkpt lat="48.2329" lon="-3.59241">
        <ele>76.2</ele>
        <time>2024-09-07T10:43:29Z</time>
      </trkpt>
      <trkpt lat="48.23294" lon="-3.59246">
        <ele>76.2</ele>
        <time>2024-09-07T10:43:30Z</time>
      </trkpt>
      <trkpt lat="48.23297" lon="-3.59253">
        <ele>76.2</ele>
        <time>2024-09-07T10:43:31Z</time>
      </trkpt>
      <trkpt lat="48.23301" lon="-3.59259">
        <ele>76.2</ele>
        <time>2024-09-07T10:43:32Z</time>
      </trkpt>
      <trkpt lat="48.23305" lon="-3.59266">
        <ele>76.2</ele>
        <time>2024-09-07T10:43:33Z</time>
      </trkpt>
      <trkpt lat="48.2331" lon="-3.59273">
        <ele>76.2</ele>
        <time>2024-09-07T10:43:34Z</time>
      </trkpt>
      <trkpt lat="48.23315" lon="-3.5928">
        <ele>76</ele>
        <time>2024-09-07T10:43:35Z</time>
      </trkpt>
      <trkpt lat="48.23319" lon="-3.59287">
        <ele>76</ele>
        <time>2024-09-07T10:43:36Z</time>
      </trkpt>
      <trkpt lat="48.23324" lon="-3.59293">
        <ele>76</ele>
        <time>2024-09-07T10:43:37Z</time>
      </trkpt>
      <trkpt lat="48.23328" lon="-3.59299">
        <ele>75.8</ele>
        <time>2024-09-07T10:43:38Z</time>
      </trkpt>
      <trkpt lat="48.23332" lon="-3.59306">
        <ele>75.8</ele>
        <time>2024-09-07T10:43:39Z</time>
      </trkpt>
      <trkpt lat="48.23336" lon="-3.59313">
        <ele>75.8</ele>
        <time>2024-09-07T10:43:40Z</time>
      </trkpt>
      <trkpt lat="48.2334" lon="-3.5932">
        <ele>75.8</ele>
        <time>2024-09-07T10:43:41Z</time>
      </trkpt>
      <trkpt lat="48.23345" lon="-3.59326">
        <ele>75.8</ele>
        <time>2024-09-07T10:43:42Z</time>
      </trkpt>
      <trkpt lat="48.23349" lon="-3.59333">
        <ele>75.8</ele>
        <time>2024-09-07T10:43:43Z</time>
      </trkpt>
      <trkpt lat="48.23354" lon="-3.59341">
        <ele>75.8</ele>
        <time>2024-09-07T10:43:44Z</time>
      </trkpt>
      <trkpt lat="48.23358" lon="-3.59348">
        <ele>75.8</ele>
        <time>2024-09-07T10:43:45Z</time>
      </trkpt>
      <trkpt lat="48.23362" lon="-3.59355">
        <ele>75.8</ele>
        <time>2024-09-07T10:43:46Z</time>
      </trkpt>
      <trkpt lat="48.23366" lon="-3.59362">
        <ele>75.6</ele>
        <time>2024-09-07T10:43:47Z</time>
      </trkpt>
      <trkpt lat="48.23371" lon="-3.59368">
        <ele>75.6</ele>
        <time>2024-09-07T10:43:48Z</time>
      </trkpt>
      <trkpt lat="48.23376" lon="-3.59374">
        <ele>75.6</ele>
        <time>2024-09-07T10:43:49Z</time>
      </trkpt>
      <trkpt lat="48.2338" lon="-3.5938">
        <ele>75.6</ele>
        <time>2024-09-07T10:43:50Z</time>
      </trkpt>
      <trkpt lat="48.23384" lon="-3.59387">
        <ele>75.6</ele>
        <time>2024-09-07T10:43:51Z</time>
      </trkpt>
      <trkpt lat="48.23388" lon="-3.59393">
        <ele>75.6</ele>
        <time>2024-09-07T10:43:52Z</time>
      </trkpt>
      <trkpt lat="48.23393" lon="-3.59399">
        <ele>75.6</ele>
        <time>2024-09-07T10:43:53Z</time>
      </trkpt>
      <trkpt lat="48.23397" lon="-3.59404">
        <ele>75.6</ele>
        <time>2024-09-07T10:43:54Z</time>
      </trkpt>
      <trkpt lat="48.23401" lon="-3.59411">
        <ele>75.4</ele>
        <time>2024-09-07T10:43:55Z</time>
      </trkpt>
      <trkpt lat="48.23405" lon="-3.59417">
        <ele>75.4</ele>
        <time>2024-09-07T10:43:56Z</time>
      </trkpt>
      <trkpt lat="48.2341" lon="-3.59423">
        <ele>75.2</ele>
        <time>2024-09-07T10:43:57Z</time>
      </trkpt>
      <trkpt lat="48.23414" lon="-3.5943">
        <ele>75.2</ele>
        <time>2024-09-07T10:43:58Z</time>
      </trkpt>
      <trkpt lat="48.2342" lon="-3.59437">
        <ele>75.2</ele>
        <time>2024-09-07T10:43:59Z</time>
      </trkpt>
      <trkpt lat="48.23425" lon="-3.59444">
        <ele>75.2</ele>
        <time>2024-09-07T10:44:00Z</time>
      </trkpt>
      <trkpt lat="48.2343" lon="-3.59451">
        <ele>75.2</ele>
        <time>2024-09-07T10:44:01Z</time>
      </trkpt>
      <trkpt lat="48.23435" lon="-3.59457">
        <ele>75.2</ele>
        <time>2024-09-07T10:44:02Z</time>
      </trkpt>
      <trkpt lat="48.2344" lon="-3.59465">
        <ele>75</ele>
        <time>2024-09-07T10:44:03Z</time>
      </trkpt>
      <trkpt lat="48.23445" lon="-3.59473">
        <ele>75</ele>
        <time>2024-09-07T10:44:04Z</time>
      </trkpt>
      <trkpt lat="48.2345" lon="-3.59481">
        <ele>75</ele>
        <time>2024-09-07T10:44:05Z</time>
      </trkpt>
      <trkpt lat="48.23454" lon="-3.59489">
        <ele>75</ele>
        <time>2024-09-07T10:44:06Z</time>
      </trkpt>
      <trkpt lat="48.23459" lon="-3.59496">
        <ele>75</ele>
        <time>2024-09-07T10:44:07Z</time>
      </trkpt>
      <trkpt lat="48.23465" lon="-3.59506">
        <ele>75</ele>
        <time>2024-09-07T10:44:08Z</time>
      </trkpt>
      <trkpt lat="48.23467" lon="-3.59513">
        <ele>75</ele>
        <time>2024-09-07T10:44:09Z</time>
      </trkpt>
      <trkpt lat="48.23471" lon="-3.59523">
        <ele>74.8</ele>
        <time>2024-09-07T10:44:10Z</time>
      </trkpt>
      <trkpt lat="48.23474" lon="-3.59532">
        <ele>74.8</ele>
        <time>2024-09-07T10:44:11Z</time>
      </trkpt>
      <trkpt lat="48.23476" lon="-3.59538">
        <ele>74.8</ele>
        <time>2024-09-07T10:44:12Z</time>
      </trkpt>
      <trkpt lat="48.23478" lon="-3.59548">
        <ele>74.8</ele>
        <time>2024-09-07T10:44:13Z</time>
      </trkpt>
      <trkpt lat="48.2348" lon="-3.59556">
        <ele>74.8</ele>
        <time>2024-09-07T10:44:14Z</time>
      </trkpt>
      <trkpt lat="48.23482" lon="-3.59565">
        <ele>74.8</ele>
        <time>2024-09-07T10:44:15Z</time>
      </trkpt>
      <trkpt lat="48.23484" lon="-3.59574">
        <ele>74.8</ele>
        <time>2024-09-07T10:44:16Z</time>
      </trkpt>
      <trkpt lat="48.23487" lon="-3.59584">
        <ele>74.8</ele>
        <time>2024-09-07T10:44:17Z</time>
      </trkpt>
      <trkpt lat="48.23489" lon="-3.59592">
        <ele>74.8</ele>
        <time>2024-09-07T10:44:18Z</time>
      </trkpt>
      <trkpt lat="48.23491" lon="-3.59601">
        <ele>74.8</ele>
        <time>2024-09-07T10:44:19Z</time>
      </trkpt>
      <trkpt lat="48.23493" lon="-3.59608">
        <ele>74.8</ele>
        <time>2024-09-07T10:44:20Z</time>
      </trkpt>
      <trkpt lat="48.23495" lon="-3.59616">
        <ele>74.8</ele>
        <time>2024-09-07T10:44:21Z</time>
      </trkpt>
      <trkpt lat="48.23497" lon="-3.59622">
        <ele>74.6</ele>
        <time>2024-09-07T10:44:22Z</time>
      </trkpt>
      <trkpt lat="48.23499" lon="-3.59629">
        <ele>74.6</ele>
        <time>2024-09-07T10:44:23Z</time>
      </trkpt>
      <trkpt lat="48.23501" lon="-3.59637">
        <ele>74.6</ele>
        <time>2024-09-07T10:44:24Z</time>
      </trkpt>
      <trkpt lat="48.23503" lon="-3.59643">
        <ele>74.6</ele>
        <time>2024-09-07T10:44:25Z</time>
      </trkpt>
      <trkpt lat="48.23506" lon="-3.59653">
        <ele>74.6</ele>
        <time>2024-09-07T10:44:26Z</time>
      </trkpt>
      <trkpt lat="48.23509" lon="-3.59661">
        <ele>74.6</ele>
        <time>2024-09-07T10:44:27Z</time>
      </trkpt>
      <trkpt lat="48.23511" lon="-3.59669">
        <ele>74.4</ele>
        <time>2024-09-07T10:44:28Z</time>
      </trkpt>
      <trkpt lat="48.23513" lon="-3.59678">
        <ele>74.4</ele>
        <time>2024-09-07T10:44:29Z</time>
      </trkpt>
      <trkpt lat="48.23516" lon="-3.59686">
        <ele>74.4</ele>
        <time>2024-09-07T10:44:30Z</time>
      </trkpt>
      <trkpt lat="48.23519" lon="-3.59695">
        <ele>74.4</ele>
        <time>2024-09-07T10:44:31Z</time>
      </trkpt>
      <trkpt lat="48.23522" lon="-3.59704">
        <ele>74.4</ele>
        <time>2024-09-07T10:44:32Z</time>
      </trkpt>
      <trkpt lat="48.23524" lon="-3.59714">
        <ele>74.4</ele>
        <time>2024-09-07T10:44:33Z</time>
      </trkpt>
      <trkpt lat="48.23527" lon="-3.59723">
        <ele>74.4</ele>
        <time>2024-09-07T10:44:34Z</time>
      </trkpt>
      <trkpt lat="48.2353" lon="-3.59733">
        <ele>74.2</ele>
        <time>2024-09-07T10:44:35Z</time>
      </trkpt>
      <trkpt lat="48.23533" lon="-3.5974">
        <ele>74.2</ele>
        <time>2024-09-07T10:44:36Z</time>
      </trkpt>
      <trkpt lat="48.23535" lon="-3.59749">
        <ele>74.2</ele>
        <time>2024-09-07T10:44:37Z</time>
      </trkpt>
      <trkpt lat="48.23538" lon="-3.59759">
        <ele>74.2</ele>
        <time>2024-09-07T10:44:38Z</time>
      </trkpt>
      <trkpt lat="48.2354" lon="-3.59768">
        <ele>74.2</ele>
        <time>2024-09-07T10:44:39Z</time>
      </trkpt>
      <trkpt lat="48.23542" lon="-3.59777">
        <ele>74.2</ele>
        <time>2024-09-07T10:44:40Z</time>
      </trkpt>
      <trkpt lat="48.23545" lon="-3.59786">
        <ele>74.2</ele>
        <time>2024-09-07T10:44:41Z</time>
      </trkpt>
      <trkpt lat="48.23548" lon="-3.59794">
        <ele>74.2</ele>
        <time>2024-09-07T10:44:42Z</time>
      </trkpt>
      <trkpt lat="48.2355" lon="-3.59802">
        <ele>74.2</ele>
        <time>2024-09-07T10:44:43Z</time>
      </trkpt>
      <trkpt lat="48.23552" lon="-3.59811">
        <ele>74</ele>
        <time>2024-09-07T10:44:44Z</time>
      </trkpt>
      <trkpt lat="48.23554" lon="-3.59818">
        <ele>74</ele>
        <time>2024-09-07T10:44:45Z</time>
      </trkpt>
      <trkpt lat="48.23555" lon="-3.59825">
        <ele>74</ele>
        <time>2024-09-07T10:44:46Z</time>
      </trkpt>
      <trkpt lat="48.23557" lon="-3.59832">
        <ele>74</ele>
        <time>2024-09-07T10:44:47Z</time>
      </trkpt>
      <trkpt lat="48.23558" lon="-3.59838">
        <ele>74</ele>
        <time>2024-09-07T10:44:48Z</time>
      </trkpt>
      <trkpt lat="48.2356" lon="-3.59844">
        <ele>74</ele>
        <time>2024-09-07T10:44:49Z</time>
      </trkpt>
      <trkpt lat="48.23563" lon="-3.59851">
        <ele>74</ele>
        <time>2024-09-07T10:44:50Z</time>
      </trkpt>
      <trkpt lat="48.23565" lon="-3.59859">
        <ele>74</ele>
        <time>2024-09-07T10:44:51Z</time>
      </trkpt>
      <trkpt lat="48.23568" lon="-3.59867">
        <ele>74</ele>
        <time>2024-09-07T10:44:52Z</time>
      </trkpt>
      <trkpt lat="48.23569" lon="-3.59874">
        <ele>74</ele>
        <time>2024-09-07T10:44:53Z</time>
      </trkpt>
      <trkpt lat="48.23571" lon="-3.59881">
        <ele>73.8</ele>
        <time>2024-09-07T10:44:54Z</time>
      </trkpt>
      <trkpt lat="48.23572" lon="-3.59887">
        <ele>74</ele>
        <time>2024-09-07T10:44:55Z</time>
      </trkpt>
      <trkpt lat="48.23574" lon="-3.59894">
        <ele>74</ele>
        <time>2024-09-07T10:44:56Z</time>
      </trkpt>
      <trkpt lat="48.23577" lon="-3.59903">
        <ele>74</ele>
        <time>2024-09-07T10:44:57Z</time>
      </trkpt>
      <trkpt lat="48.23579" lon="-3.5991">
        <ele>74</ele>
        <time>2024-09-07T10:44:58Z</time>
      </trkpt>
      <trkpt lat="48.23581" lon="-3.59918">
        <ele>74</ele>
        <time>2024-09-07T10:44:59Z</time>
      </trkpt>
      <trkpt lat="48.23585" lon="-3.59925">
        <ele>74</ele>
        <time>2024-09-07T10:45:00Z</time>
      </trkpt>
      <trkpt lat="48.23589" lon="-3.59933">
        <ele>74</ele>
        <time>2024-09-07T10:45:01Z</time>
      </trkpt>
      <trkpt lat="48.23594" lon="-3.59941">
        <ele>74</ele>
        <time>2024-09-07T10:45:02Z</time>
      </trkpt>
      <trkpt lat="48.23598" lon="-3.59949">
        <ele>74</ele>
        <time>2024-09-07T10:45:03Z</time>
      </trkpt>
      <trkpt lat="48.23602" lon="-3.59957">
        <ele>74</ele>
        <time>2024-09-07T10:45:04Z</time>
      </trkpt>
      <trkpt lat="48.23605" lon="-3.59965">
        <ele>73.8</ele>
        <time>2024-09-07T10:45:05Z</time>
      </trkpt>
      <trkpt lat="48.23609" lon="-3.59971">
        <ele>73.8</ele>
        <time>2024-09-07T10:45:06Z</time>
      </trkpt>
      <trkpt lat="48.23613" lon="-3.59979">
        <ele>73.8</ele>
        <time>2024-09-07T10:45:07Z</time>
      </trkpt>
      <trkpt lat="48.23616" lon="-3.59985">
        <ele>73.8</ele>
        <time>2024-09-07T10:45:08Z</time>
      </trkpt>
      <trkpt lat="48.23621" lon="-3.59992">
        <ele>73.6</ele>
        <time>2024-09-07T10:45:09Z</time>
      </trkpt>
      <trkpt lat="48.23626" lon="-3.59998">
        <ele>73.6</ele>
        <time>2024-09-07T10:45:10Z</time>
      </trkpt>
      <trkpt lat="48.23632" lon="-3.60005">
        <ele>73.6</ele>
        <time>2024-09-07T10:45:11Z</time>
      </trkpt>
      <trkpt lat="48.23637" lon="-3.60011">
        <ele>73.4</ele>
        <time>2024-09-07T10:45:12Z</time>
      </trkpt>
      <trkpt lat="48.23642" lon="-3.60016">
        <ele>73.4</ele>
        <time>2024-09-07T10:45:13Z</time>
      </trkpt>
      <trkpt lat="48.23648" lon="-3.60021">
        <ele>73.4</ele>
        <time>2024-09-07T10:45:14Z</time>
      </trkpt>
      <trkpt lat="48.23653" lon="-3.60026">
        <ele>73.4</ele>
        <time>2024-09-07T10:45:15Z</time>
      </trkpt>
      <trkpt lat="48.23658" lon="-3.6003">
        <ele>73.4</ele>
        <time>2024-09-07T10:45:16Z</time>
      </trkpt>
      <trkpt lat="48.23666" lon="-3.60034">
        <ele>73.2</ele>
        <time>2024-09-07T10:45:17Z</time>
      </trkpt>
      <trkpt lat="48.23671" lon="-3.60037">
        <ele>73.2</ele>
        <time>2024-09-07T10:45:18Z</time>
      </trkpt>
      <trkpt lat="48.23677" lon="-3.60041">
        <ele>73.2</ele>
        <time>2024-09-07T10:45:19Z</time>
      </trkpt>
      <trkpt lat="48.23683" lon="-3.60044">
        <ele>73.2</ele>
        <time>2024-09-07T10:45:20Z</time>
      </trkpt>
      <trkpt lat="48.2369" lon="-3.60048">
        <ele>73.2</ele>
        <time>2024-09-07T10:45:21Z</time>
      </trkpt>
      <trkpt lat="48.23696" lon="-3.6005">
        <ele>73.2</ele>
        <time>2024-09-07T10:45:22Z</time>
      </trkpt>
      <trkpt lat="48.23702" lon="-3.60054">
        <ele>73</ele>
        <time>2024-09-07T10:45:23Z</time>
      </trkpt>
      <trkpt lat="48.23708" lon="-3.60057">
        <ele>73</ele>
        <time>2024-09-07T10:45:24Z</time>
      </trkpt>
      <trkpt lat="48.23714" lon="-3.6006">
        <ele>73</ele>
        <time>2024-09-07T10:45:25Z</time>
      </trkpt>
      <trkpt lat="48.2372" lon="-3.60063">
        <ele>73</ele>
        <time>2024-09-07T10:45:26Z</time>
      </trkpt>
      <trkpt lat="48.23725" lon="-3.60067">
        <ele>73</ele>
        <time>2024-09-07T10:45:27Z</time>
      </trkpt>
      <trkpt lat="48.23731" lon="-3.6007">
        <ele>73</ele>
        <time>2024-09-07T10:45:28Z</time>
      </trkpt>
      <trkpt lat="48.23737" lon="-3.60074">
        <ele>73</ele>
        <time>2024-09-07T10:45:29Z</time>
      </trkpt>
      <trkpt lat="48.23742" lon="-3.60077">
        <ele>73</ele>
        <time>2024-09-07T10:45:30Z</time>
      </trkpt>
      <trkpt lat="48.23748" lon="-3.6008">
        <ele>73</ele>
        <time>2024-09-07T10:45:31Z</time>
      </trkpt>
      <trkpt lat="48.23754" lon="-3.60084">
        <ele>72.8</ele>
        <time>2024-09-07T10:45:32Z</time>
      </trkpt>
      <trkpt lat="48.2376" lon="-3.60087">
        <ele>72.8</ele>
        <time>2024-09-07T10:45:33Z</time>
      </trkpt>
      <trkpt lat="48.23766" lon="-3.60091">
        <ele>72.8</ele>
        <time>2024-09-07T10:45:34Z</time>
      </trkpt>
      <trkpt lat="48.23772" lon="-3.60094">
        <ele>72.6</ele>
        <time>2024-09-07T10:45:35Z</time>
      </trkpt>
      <trkpt lat="48.23777" lon="-3.60097">
        <ele>72.6</ele>
        <time>2024-09-07T10:45:36Z</time>
      </trkpt>
      <trkpt lat="48.23783" lon="-3.60101">
        <ele>72.6</ele>
        <time>2024-09-07T10:45:37Z</time>
      </trkpt>
      <trkpt lat="48.23788" lon="-3.60104">
        <ele>72.6</ele>
        <time>2024-09-07T10:45:38Z</time>
      </trkpt>
      <trkpt lat="48.23794" lon="-3.60107">
        <ele>72.6</ele>
        <time>2024-09-07T10:45:39Z</time>
      </trkpt>
      <trkpt lat="48.238" lon="-3.60111">
        <ele>72.4</ele>
        <time>2024-09-07T10:45:40Z</time>
      </trkpt>
      <trkpt lat="48.23806" lon="-3.60114">
        <ele>72.4</ele>
        <time>2024-09-07T10:45:41Z</time>
      </trkpt>
      <trkpt lat="48.23812" lon="-3.60118">
        <ele>72.4</ele>
        <time>2024-09-07T10:45:42Z</time>
      </trkpt>
      <trkpt lat="48.23818" lon="-3.60121">
        <ele>72.4</ele>
        <time>2024-09-07T10:45:43Z</time>
      </trkpt>
      <trkpt lat="48.23824" lon="-3.60124">
        <ele>72.4</ele>
        <time>2024-09-07T10:45:44Z</time>
      </trkpt>
      <trkpt lat="48.23831" lon="-3.60128">
        <ele>72.4</ele>
        <time>2024-09-07T10:45:45Z</time>
      </trkpt>
      <trkpt lat="48.23838" lon="-3.60132">
        <ele>72.4</ele>
        <time>2024-09-07T10:45:46Z</time>
      </trkpt>
      <trkpt lat="48.23844" lon="-3.60135">
        <ele>72.2</ele>
        <time>2024-09-07T10:45:47Z</time>
      </trkpt>
      <trkpt lat="48.23851" lon="-3.60139">
        <ele>72.2</ele>
        <time>2024-09-07T10:45:48Z</time>
      </trkpt>
      <trkpt lat="48.23858" lon="-3.60142">
        <ele>72.2</ele>
        <time>2024-09-07T10:45:49Z</time>
      </trkpt>
      <trkpt lat="48.23865" lon="-3.60146">
        <ele>72.2</ele>
        <time>2024-09-07T10:45:50Z</time>
      </trkpt>
      <trkpt lat="48.23871" lon="-3.6015">
        <ele>72</ele>
        <time>2024-09-07T10:45:51Z</time>
      </trkpt>
      <trkpt lat="48.23877" lon="-3.60154">
        <ele>72</ele>
        <time>2024-09-07T10:45:52Z</time>
      </trkpt>
      <trkpt lat="48.23882" lon="-3.60157">
        <ele>72</ele>
        <time>2024-09-07T10:45:53Z</time>
      </trkpt>
      <trkpt lat="48.23887" lon="-3.6016">
        <ele>71.8</ele>
        <time>2024-09-07T10:45:54Z</time>
      </trkpt>
      <trkpt lat="48.23892" lon="-3.60163">
        <ele>71.8</ele>
        <time>2024-09-07T10:45:55Z</time>
      </trkpt>
      <trkpt lat="48.23898" lon="-3.60167">
        <ele>71.8</ele>
        <time>2024-09-07T10:45:56Z</time>
      </trkpt>
      <trkpt lat="48.23903" lon="-3.6017">
        <ele>71.8</ele>
        <time>2024-09-07T10:45:57Z</time>
      </trkpt>
      <trkpt lat="48.23908" lon="-3.60173">
        <ele>71.8</ele>
        <time>2024-09-07T10:45:58Z</time>
      </trkpt>
      <trkpt lat="48.23913" lon="-3.60175">
        <ele>71.8</ele>
        <time>2024-09-07T10:45:59Z</time>
      </trkpt>
      <trkpt lat="48.23918" lon="-3.60178">
        <ele>71.8</ele>
        <time>2024-09-07T10:46:00Z</time>
      </trkpt>
      <trkpt lat="48.23924" lon="-3.6018">
        <ele>71.6</ele>
        <time>2024-09-07T10:46:01Z</time>
      </trkpt>
      <trkpt lat="48.2393" lon="-3.60182">
        <ele>71.6</ele>
        <time>2024-09-07T10:46:02Z</time>
      </trkpt>
      <trkpt lat="48.23935" lon="-3.60184">
        <ele>71.6</ele>
        <time>2024-09-07T10:46:03Z</time>
      </trkpt>
      <trkpt lat="48.23941" lon="-3.60186">
        <ele>71.6</ele>
        <time>2024-09-07T10:46:04Z</time>
      </trkpt>
      <trkpt lat="48.23946" lon="-3.60188">
        <ele>71.6</ele>
        <time>2024-09-07T10:46:05Z</time>
      </trkpt>
      <trkpt lat="48.23952" lon="-3.60188">
        <ele>71.6</ele>
        <time>2024-09-07T10:46:06Z</time>
      </trkpt>
      <trkpt lat="48.23958" lon="-3.60189">
        <ele>71.6</ele>
        <time>2024-09-07T10:46:07Z</time>
      </trkpt>
      <trkpt lat="48.23964" lon="-3.60189">
        <ele>71.6</ele>
        <time>2024-09-07T10:46:08Z</time>
      </trkpt>
      <trkpt lat="48.23969" lon="-3.60189">
        <ele>71.6</ele>
        <time>2024-09-07T10:46:09Z</time>
      </trkpt>
      <trkpt lat="48.23974" lon="-3.60187">
        <ele>71.6</ele>
        <time>2024-09-07T10:46:10Z</time>
      </trkpt>
      <trkpt lat="48.2398" lon="-3.60186">
        <ele>71.6</ele>
        <time>2024-09-07T10:46:11Z</time>
      </trkpt>
      <trkpt lat="48.23986" lon="-3.60186">
        <ele>71.6</ele>
        <time>2024-09-07T10:46:12Z</time>
      </trkpt>
      <trkpt lat="48.23991" lon="-3.60184">
        <ele>71.4</ele>
        <time>2024-09-07T10:46:13Z</time>
      </trkpt>
      <trkpt lat="48.23996" lon="-3.60182">
        <ele>71.4</ele>
        <time>2024-09-07T10:46:14Z</time>
      </trkpt>
      <trkpt lat="48.24" lon="-3.60179">
        <ele>71.2</ele>
        <time>2024-09-07T10:46:15Z</time>
      </trkpt>
      <trkpt lat="48.24006" lon="-3.60176">
        <ele>71.2</ele>
        <time>2024-09-07T10:46:16Z</time>
      </trkpt>
      <trkpt lat="48.2401" lon="-3.60174">
        <ele>71</ele>
        <time>2024-09-07T10:46:17Z</time>
      </trkpt>
      <trkpt lat="48.24015" lon="-3.60171">
        <ele>71</ele>
        <time>2024-09-07T10:46:18Z</time>
      </trkpt>
      <trkpt lat="48.24019" lon="-3.60168">
        <ele>70.8</ele>
        <time>2024-09-07T10:46:19Z</time>
      </trkpt>
      <trkpt lat="48.24022" lon="-3.60165">
        <ele>70.8</ele>
        <time>2024-09-07T10:46:20Z</time>
      </trkpt>
      <trkpt lat="48.24025" lon="-3.60161">
        <ele>70.8</ele>
        <time>2024-09-07T10:46:21Z</time>
      </trkpt>
      <trkpt lat="48.2403" lon="-3.60157">
        <ele>70.6</ele>
        <time>2024-09-07T10:46:22Z</time>
      </trkpt>
      <trkpt lat="48.24035" lon="-3.60152">
        <ele>70.6</ele>
        <time>2024-09-07T10:46:23Z</time>
      </trkpt>
      <trkpt lat="48.24045" lon="-3.60147">
        <ele>70.6</ele>
        <time>2024-09-07T10:46:24Z</time>
      </trkpt>
      <trkpt lat="48.24049" lon="-3.60142">
        <ele>70.2</ele>
        <time>2024-09-07T10:46:25Z</time>
      </trkpt>
      <trkpt lat="48.24054" lon="-3.60137">
        <ele>70.4</ele>
        <time>2024-09-07T10:46:26Z</time>
      </trkpt>
      <trkpt lat="48.2406" lon="-3.60131">
        <ele>70.2</ele>
        <time>2024-09-07T10:46:27Z</time>
      </trkpt>
      <trkpt lat="48.24065" lon="-3.60126">
        <ele>70.2</ele>
        <time>2024-09-07T10:46:28Z</time>
      </trkpt>
      <trkpt lat="48.24068" lon="-3.60119">
        <ele>70.2</ele>
        <time>2024-09-07T10:46:29Z</time>
      </trkpt>
      <trkpt lat="48.24071" lon="-3.60112">
        <ele>70.2</ele>
        <time>2024-09-07T10:46:30Z</time>
      </trkpt>
      <trkpt lat="48.24073" lon="-3.60105">
        <ele>70</ele>
        <time>2024-09-07T10:46:31Z</time>
      </trkpt>
      <trkpt lat="48.24075" lon="-3.601">
        <ele>70</ele>
        <time>2024-09-07T10:46:32Z</time>
      </trkpt>
      <trkpt lat="48.24077" lon="-3.60095">
        <ele>70</ele>
        <time>2024-09-07T10:46:33Z</time>
      </trkpt>
      <trkpt lat="48.2408" lon="-3.60092">
        <ele>70</ele>
        <time>2024-09-07T10:46:34Z</time>
      </trkpt>
      <trkpt lat="48.24082" lon="-3.6009">
        <ele>70</ele>
        <time>2024-09-07T10:46:35Z</time>
      </trkpt>
      <trkpt lat="48.24083" lon="-3.60089">
        <ele>70</ele>
        <time>2024-09-07T10:46:36Z</time>
      </trkpt>
      <trkpt lat="48.24083" lon="-3.6009">
        <ele>69.8</ele>
        <time>2024-09-07T10:46:37Z</time>
      </trkpt>
      <trkpt lat="48.24083" lon="-3.60091">
        <ele>69.8</ele>
        <time>2024-09-07T10:46:38Z</time>
      </trkpt>
      <trkpt lat="48.24083" lon="-3.60092">
        <ele>69.8</ele>
        <time>2024-09-07T10:46:39Z</time>
      </trkpt>
      <trkpt lat="48.24084" lon="-3.60085">
        <ele>69.8</ele>
        <time>2024-09-07T10:47:32Z</time>
      </trkpt>
      <trkpt lat="48.24083" lon="-3.60082">
        <ele>69.8</ele>
        <time>2024-09-07T10:47:33Z</time>
      </trkpt>
      <trkpt lat="48.24083" lon="-3.60078">
        <ele>69.8</ele>
        <time>2024-09-07T10:47:34Z</time>
      </trkpt>
      <trkpt lat="48.24083" lon="-3.60076">
        <ele>69.8</ele>
        <time>2024-09-07T10:47:35Z</time>
      </trkpt>
      <trkpt lat="48.24083" lon="-3.60073">
        <ele>69.8</ele>
        <time>2024-09-07T10:47:36Z</time>
      </trkpt>
      <trkpt lat="48.24083" lon="-3.6007">
        <ele>69.8</ele>
        <time>2024-09-07T10:47:37Z</time>
      </trkpt>
      <trkpt lat="48.24083" lon="-3.60068">
        <ele>69.8</ele>
        <time>2024-09-07T10:47:38Z</time>
      </trkpt>
      <trkpt lat="48.24083" lon="-3.60066">
        <ele>69.8</ele>
        <time>2024-09-07T10:47:39Z</time>
      </trkpt>
      <trkpt lat="48.24083" lon="-3.60066">
        <ele>70</ele>
        <time>2024-09-07T10:47:40Z</time>
      </trkpt>
      <trkpt lat="48.24089" lon="-3.60058">
        <ele>70.2</ele>
        <time>2024-09-07T10:48:07Z</time>
      </trkpt>
      <trkpt lat="48.2409" lon="-3.60055">
        <ele>70.2</ele>
        <time>2024-09-07T10:48:08Z</time>
      </trkpt>
      <trkpt lat="48.2409" lon="-3.60052">
        <ele>70.2</ele>
        <time>2024-09-07T10:48:09Z</time>
      </trkpt>
      <trkpt lat="48.2409" lon="-3.60048">
        <ele>70.2</ele>
        <time>2024-09-07T10:48:10Z</time>
      </trkpt>
      <trkpt lat="48.2409" lon="-3.60046">
        <ele>70.2</ele>
        <time>2024-09-07T10:48:11Z</time>
      </trkpt>
      <trkpt lat="48.2409" lon="-3.60045">
        <ele>70.2</ele>
        <time>2024-09-07T10:48:12Z</time>
      </trkpt>
      <trkpt lat="48.24099" lon="-3.60038">
        <ele>70.8</ele>
        <time>2024-09-07T10:48:38Z</time>
      </trkpt>
      <trkpt lat="48.24101" lon="-3.60037">
        <ele>70.8</ele>
        <time>2024-09-07T10:48:39Z</time>
      </trkpt>
      <trkpt lat="48.24103" lon="-3.60038">
        <ele>70.8</ele>
        <time>2024-09-07T10:48:40Z</time>
      </trkpt>
      <trkpt lat="48.24105" lon="-3.60038">
        <ele>70.8</ele>
        <time>2024-09-07T10:48:41Z</time>
      </trkpt>
      <trkpt lat="48.24107" lon="-3.60039">
        <ele>70.8</ele>
        <time>2024-09-07T10:48:42Z</time>
      </trkpt>
      <trkpt lat="48.24109" lon="-3.6004">
        <ele>70.8</ele>
        <time>2024-09-07T10:48:43Z</time>
      </trkpt>
      <trkpt lat="48.24111" lon="-3.60041">
        <ele>70.8</ele>
        <time>2024-09-07T10:48:44Z</time>
      </trkpt>
      <trkpt lat="48.24113" lon="-3.60042">
        <ele>70.8</ele>
        <time>2024-09-07T10:48:45Z</time>
      </trkpt>
      <trkpt lat="48.24116" lon="-3.60043">
        <ele>70.8</ele>
        <time>2024-09-07T10:48:46Z</time>
      </trkpt>
      <trkpt lat="48.24119" lon="-3.60045">
        <ele>70.8</ele>
        <time>2024-09-07T10:48:47Z</time>
      </trkpt>
      <trkpt lat="48.24122" lon="-3.60046">
        <ele>70.8</ele>
        <time>2024-09-07T10:48:48Z</time>
      </trkpt>
      <trkpt lat="48.24124" lon="-3.60046">
        <ele>70.8</ele>
        <time>2024-09-07T10:48:49Z</time>
      </trkpt>
      <trkpt lat="48.24126" lon="-3.60046">
        <ele>70.8</ele>
        <time>2024-09-07T10:48:50Z</time>
      </trkpt>
      <trkpt lat="48.24128" lon="-3.60046">
        <ele>70.8</ele>
        <time>2024-09-07T10:48:51Z</time>
      </trkpt>
      <trkpt lat="48.24128" lon="-3.60046">
        <ele>70.8</ele>
        <time>2024-09-07T10:48:52Z</time>
      </trkpt>
      <trkpt lat="48.24128" lon="-3.60046">
        <ele>70.6</ele>
        <time>2024-09-07T10:48:53Z</time>
      </trkpt>
      <trkpt lat="48.24128" lon="-3.60046">
        <ele>70.6</ele>
        <time>2024-09-07T10:48:54Z</time>
      </trkpt>
      <trkpt lat="48.24139" lon="-3.60023">
        <ele>69.4</ele>
        <time>2024-09-07T10:50:56Z</time>
      </trkpt>
      <trkpt lat="48.24141" lon="-3.6002">
        <ele>69.4</ele>
        <time>2024-09-07T10:50:57Z</time>
      </trkpt>
      <trkpt lat="48.24143" lon="-3.60014">
        <ele>69.4</ele>
        <time>2024-09-07T10:50:58Z</time>
      </trkpt>
      <trkpt lat="48.24145" lon="-3.6001">
        <ele>69.4</ele>
        <time>2024-09-07T10:50:59Z</time>
      </trkpt>
      <trkpt lat="48.24148" lon="-3.60004">
        <ele>69.4</ele>
        <time>2024-09-07T10:51:00Z</time>
      </trkpt>
      <trkpt lat="48.24151" lon="-3.59997">
        <ele>69.4</ele>
        <time>2024-09-07T10:51:01Z</time>
      </trkpt>
      <trkpt lat="48.24154" lon="-3.59991">
        <ele>69.4</ele>
        <time>2024-09-07T10:51:02Z</time>
      </trkpt>
      <trkpt lat="48.24157" lon="-3.59986">
        <ele>69.4</ele>
        <time>2024-09-07T10:51:03Z</time>
      </trkpt>
      <trkpt lat="48.2416" lon="-3.59979">
        <ele>69.4</ele>
        <time>2024-09-07T10:51:04Z</time>
      </trkpt>
      <trkpt lat="48.24163" lon="-3.59974">
        <ele>69.2</ele>
        <time>2024-09-07T10:51:05Z</time>
      </trkpt>
      <trkpt lat="48.24166" lon="-3.59969">
        <ele>69</ele>
        <time>2024-09-07T10:51:06Z</time>
      </trkpt>
      <trkpt lat="48.24169" lon="-3.59962">
        <ele>68.8</ele>
        <time>2024-09-07T10:51:07Z</time>
      </trkpt>
      <trkpt lat="48.24172" lon="-3.59958">
        <ele>68.6</ele>
        <time>2024-09-07T10:51:08Z</time>
      </trkpt>
      <trkpt lat="48.24174" lon="-3.59953">
        <ele>68.4</ele>
        <time>2024-09-07T10:51:09Z</time>
      </trkpt>
      <trkpt lat="48.24177" lon="-3.59948">
        <ele>68</ele>
        <time>2024-09-07T10:51:10Z</time>
      </trkpt>
      <trkpt lat="48.24179" lon="-3.59943">
        <ele>67.8</ele>
        <time>2024-09-07T10:51:11Z</time>
      </trkpt>
      <trkpt lat="48.24182" lon="-3.59939">
        <ele>67.6</ele>
        <time>2024-09-07T10:51:12Z</time>
      </trkpt>
      <trkpt lat="48.24185" lon="-3.59934">
        <ele>67.4</ele>
        <time>2024-09-07T10:51:13Z</time>
      </trkpt>
      <trkpt lat="48.24188" lon="-3.5993">
        <ele>67.4</ele>
        <time>2024-09-07T10:51:14Z</time>
      </trkpt>
      <trkpt lat="48.2419" lon="-3.59924">
        <ele>67.2</ele>
        <time>2024-09-07T10:51:15Z</time>
      </trkpt>
      <trkpt lat="48.24192" lon="-3.59919">
        <ele>67.2</ele>
        <time>2024-09-07T10:51:16Z</time>
      </trkpt>
      <trkpt lat="48.24194" lon="-3.59913">
        <ele>67.2</ele>
        <time>2024-09-07T10:51:17Z</time>
      </trkpt>
      <trkpt lat="48.24197" lon="-3.59907">
        <ele>67.4</ele>
        <time>2024-09-07T10:51:18Z</time>
      </trkpt>
      <trkpt lat="48.242" lon="-3.59901">
        <ele>67.4</ele>
        <time>2024-09-07T10:51:19Z</time>
      </trkpt>
      <trkpt lat="48.24202" lon="-3.59896">
        <ele>67.4</ele>
        <time>2024-09-07T10:51:20Z</time>
      </trkpt>
      <trkpt lat="48.24206" lon="-3.59891">
        <ele>67.4</ele>
        <time>2024-09-07T10:51:21Z</time>
      </trkpt>
      <trkpt lat="48.24209" lon="-3.59886">
        <ele>67.4</ele>
        <time>2024-09-07T10:51:22Z</time>
      </trkpt>
      <trkpt lat="48.24213" lon="-3.59881">
        <ele>67.4</ele>
        <time>2024-09-07T10:51:23Z</time>
      </trkpt>
      <trkpt lat="48.24216" lon="-3.59875">
        <ele>67.4</ele>
        <time>2024-09-07T10:51:24Z</time>
      </trkpt>
      <trkpt lat="48.24219" lon="-3.59869">
        <ele>67.4</ele>
        <time>2024-09-07T10:51:25Z</time>
      </trkpt>
      <trkpt lat="48.24222" lon="-3.59863">
        <ele>67.4</ele>
        <time>2024-09-07T10:51:26Z</time>
      </trkpt>
      <trkpt lat="48.24226" lon="-3.59858">
        <ele>67.4</ele>
        <time>2024-09-07T10:51:27Z</time>
      </trkpt>
      <trkpt lat="48.24229" lon="-3.59853">
        <ele>67.4</ele>
        <time>2024-09-07T10:51:28Z</time>
      </trkpt>
      <trkpt lat="48.24232" lon="-3.59848">
        <ele>67.4</ele>
        <time>2024-09-07T10:51:29Z</time>
      </trkpt>
      <trkpt lat="48.24236" lon="-3.59842">
        <ele>67.4</ele>
        <time>2024-09-07T10:51:30Z</time>
      </trkpt>
      <trkpt lat="48.24239" lon="-3.59836">
        <ele>67.2</ele>
        <time>2024-09-07T10:51:31Z</time>
      </trkpt>
      <trkpt lat="48.24243" lon="-3.59829">
        <ele>67.2</ele>
        <time>2024-09-07T10:51:32Z</time>
      </trkpt>
      <trkpt lat="48.24246" lon="-3.59823">
        <ele>67.2</ele>
        <time>2024-09-07T10:51:33Z</time>
      </trkpt>
      <trkpt lat="48.2425" lon="-3.59818">
        <ele>67.2</ele>
        <time>2024-09-07T10:51:34Z</time>
      </trkpt>
      <trkpt lat="48.24254" lon="-3.59811">
        <ele>67.2</ele>
        <time>2024-09-07T10:51:35Z</time>
      </trkpt>
      <trkpt lat="48.24256" lon="-3.59808">
        <ele>67.2</ele>
        <time>2024-09-07T10:51:36Z</time>
      </trkpt>
      <trkpt lat="48.24259" lon="-3.59802">
        <ele>67.2</ele>
        <time>2024-09-07T10:51:37Z</time>
      </trkpt>
      <trkpt lat="48.24262" lon="-3.59796">
        <ele>67.2</ele>
        <time>2024-09-07T10:51:38Z</time>
      </trkpt>
      <trkpt lat="48.24265" lon="-3.59789">
        <ele>67.2</ele>
        <time>2024-09-07T10:51:39Z</time>
      </trkpt>
      <trkpt lat="48.24267" lon="-3.59784">
        <ele>67.2</ele>
        <time>2024-09-07T10:51:40Z</time>
      </trkpt>
      <trkpt lat="48.24271" lon="-3.59777">
        <ele>67.2</ele>
        <time>2024-09-07T10:51:41Z</time>
      </trkpt>
      <trkpt lat="48.24274" lon="-3.59771">
        <ele>67.2</ele>
        <time>2024-09-07T10:51:42Z</time>
      </trkpt>
      <trkpt lat="48.24278" lon="-3.59764">
        <ele>67.2</ele>
        <time>2024-09-07T10:51:43Z</time>
      </trkpt>
      <trkpt lat="48.24281" lon="-3.59758">
        <ele>67.2</ele>
        <time>2024-09-07T10:51:44Z</time>
      </trkpt>
      <trkpt lat="48.24284" lon="-3.59751">
        <ele>67.2</ele>
        <time>2024-09-07T10:51:45Z</time>
      </trkpt>
      <trkpt lat="48.24286" lon="-3.59744">
        <ele>67.2</ele>
        <time>2024-09-07T10:51:46Z</time>
      </trkpt>
      <trkpt lat="48.2429" lon="-3.59735">
        <ele>67.2</ele>
        <time>2024-09-07T10:51:47Z</time>
      </trkpt>
      <trkpt lat="48.24293" lon="-3.59727">
        <ele>67.2</ele>
        <time>2024-09-07T10:51:48Z</time>
      </trkpt>
      <trkpt lat="48.24294" lon="-3.59717">
        <ele>67.2</ele>
        <time>2024-09-07T10:51:49Z</time>
      </trkpt>
      <trkpt lat="48.24297" lon="-3.59703">
        <ele>67.2</ele>
        <time>2024-09-07T10:51:50Z</time>
      </trkpt>
      <trkpt lat="48.24298" lon="-3.59696">
        <ele>67.2</ele>
        <time>2024-09-07T10:51:51Z</time>
      </trkpt>
      <trkpt lat="48.24299" lon="-3.59687">
        <ele>67.2</ele>
        <time>2024-09-07T10:51:52Z</time>
      </trkpt>
      <trkpt lat="48.24301" lon="-3.59677">
        <ele>67.2</ele>
        <time>2024-09-07T10:51:53Z</time>
      </trkpt>
      <trkpt lat="48.24302" lon="-3.59668">
        <ele>67.2</ele>
        <time>2024-09-07T10:51:54Z</time>
      </trkpt>
      <trkpt lat="48.24303" lon="-3.59659">
        <ele>67.2</ele>
        <time>2024-09-07T10:51:55Z</time>
      </trkpt>
      <trkpt lat="48.24303" lon="-3.59647">
        <ele>67.2</ele>
        <time>2024-09-07T10:51:56Z</time>
      </trkpt>
      <trkpt lat="48.24304" lon="-3.59638">
        <ele>67.2</ele>
        <time>2024-09-07T10:51:57Z</time>
      </trkpt>
      <trkpt lat="48.24305" lon="-3.59627">
        <ele>67.2</ele>
        <time>2024-09-07T10:51:58Z</time>
      </trkpt>
      <trkpt lat="48.24306" lon="-3.59616">
        <ele>67.2</ele>
        <time>2024-09-07T10:51:59Z</time>
      </trkpt>
      <trkpt lat="48.24306" lon="-3.59607">
        <ele>67.2</ele>
        <time>2024-09-07T10:52:00Z</time>
      </trkpt>
      <trkpt lat="48.24306" lon="-3.59597">
        <ele>67.2</ele>
        <time>2024-09-07T10:52:01Z</time>
      </trkpt>
      <trkpt lat="48.24306" lon="-3.59588">
        <ele>67.2</ele>
        <time>2024-09-07T10:52:02Z</time>
      </trkpt>
      <trkpt lat="48.24305" lon="-3.5958">
        <ele>67.2</ele>
        <time>2024-09-07T10:52:03Z</time>
      </trkpt>
      <trkpt lat="48.24305" lon="-3.59571">
        <ele>67.2</ele>
        <time>2024-09-07T10:52:04Z</time>
      </trkpt>
      <trkpt lat="48.24304" lon="-3.59562">
        <ele>67.2</ele>
        <time>2024-09-07T10:52:05Z</time>
      </trkpt>
      <trkpt lat="48.24304" lon="-3.59555">
        <ele>67.2</ele>
        <time>2024-09-07T10:52:06Z</time>
      </trkpt>
      <trkpt lat="48.24304" lon="-3.59548">
        <ele>67.4</ele>
        <time>2024-09-07T10:52:07Z</time>
      </trkpt>
      <trkpt lat="48.24304" lon="-3.59538">
        <ele>67.4</ele>
        <time>2024-09-07T10:52:08Z</time>
      </trkpt>
      <trkpt lat="48.24303" lon="-3.59531">
        <ele>67.4</ele>
        <time>2024-09-07T10:52:09Z</time>
      </trkpt>
      <trkpt lat="48.24302" lon="-3.59523">
        <ele>67.4</ele>
        <time>2024-09-07T10:52:10Z</time>
      </trkpt>
      <trkpt lat="48.24301" lon="-3.59515">
        <ele>67.4</ele>
        <time>2024-09-07T10:52:11Z</time>
      </trkpt>
      <trkpt lat="48.24301" lon="-3.59507">
        <ele>67.4</ele>
        <time>2024-09-07T10:52:12Z</time>
      </trkpt>
      <trkpt lat="48.243" lon="-3.595">
        <ele>67.4</ele>
        <time>2024-09-07T10:52:13Z</time>
      </trkpt>
      <trkpt lat="48.24299" lon="-3.59493">
        <ele>67.4</ele>
        <time>2024-09-07T10:52:14Z</time>
      </trkpt>
      <trkpt lat="48.24297" lon="-3.59486">
        <ele>67.4</ele>
        <time>2024-09-07T10:52:15Z</time>
      </trkpt>
      <trkpt lat="48.24296" lon="-3.59479">
        <ele>67.4</ele>
        <time>2024-09-07T10:52:16Z</time>
      </trkpt>
      <trkpt lat="48.24294" lon="-3.59472">
        <ele>67.4</ele>
        <time>2024-09-07T10:52:17Z</time>
      </trkpt>
      <trkpt lat="48.24293" lon="-3.59465">
        <ele>67.4</ele>
        <time>2024-09-07T10:52:18Z</time>
      </trkpt>
      <trkpt lat="48.24292" lon="-3.59459">
        <ele>67.4</ele>
        <time>2024-09-07T10:52:19Z</time>
      </trkpt>
      <trkpt lat="48.24291" lon="-3.59453">
        <ele>67.6</ele>
        <time>2024-09-07T10:52:20Z</time>
      </trkpt>
      <trkpt lat="48.24289" lon="-3.59448">
        <ele>67.6</ele>
        <time>2024-09-07T10:52:21Z</time>
      </trkpt>
      <trkpt lat="48.24287" lon="-3.59443">
        <ele>67.6</ele>
        <time>2024-09-07T10:52:22Z</time>
      </trkpt>
      <trkpt lat="48.24285" lon="-3.59438">
        <ele>67.6</ele>
        <time>2024-09-07T10:52:23Z</time>
      </trkpt>
      <trkpt lat="48.24283" lon="-3.59433">
        <ele>67.8</ele>
        <time>2024-09-07T10:52:24Z</time>
      </trkpt>
      <trkpt lat="48.24281" lon="-3.59427">
        <ele>67.8</ele>
        <time>2024-09-07T10:52:25Z</time>
      </trkpt>
      <trkpt lat="48.24279" lon="-3.59421">
        <ele>67.8</ele>
        <time>2024-09-07T10:52:26Z</time>
      </trkpt>
      <trkpt lat="48.24277" lon="-3.59415">
        <ele>68</ele>
        <time>2024-09-07T10:52:27Z</time>
      </trkpt>
      <trkpt lat="48.24277" lon="-3.5941">
        <ele>68.2</ele>
        <time>2024-09-07T10:52:28Z</time>
      </trkpt>
      <trkpt lat="48.24276" lon="-3.59404">
        <ele>68.6</ele>
        <time>2024-09-07T10:52:29Z</time>
      </trkpt>
      <trkpt lat="48.24276" lon="-3.59397">
        <ele>68.8</ele>
        <time>2024-09-07T10:52:30Z</time>
      </trkpt>
      <trkpt lat="48.24275" lon="-3.5939">
        <ele>69.2</ele>
        <time>2024-09-07T10:52:31Z</time>
      </trkpt>
      <trkpt lat="48.24274" lon="-3.59383">
        <ele>69.4</ele>
        <time>2024-09-07T10:52:32Z</time>
      </trkpt>
      <trkpt lat="48.24273" lon="-3.59375">
        <ele>69.6</ele>
        <time>2024-09-07T10:52:33Z</time>
      </trkpt>
      <trkpt lat="48.24272" lon="-3.59368">
        <ele>69.8</ele>
        <time>2024-09-07T10:52:34Z</time>
      </trkpt>
      <trkpt lat="48.24271" lon="-3.59361">
        <ele>70</ele>
        <time>2024-09-07T10:52:35Z</time>
      </trkpt>
      <trkpt lat="48.2427" lon="-3.59353">
        <ele>70.2</ele>
        <time>2024-09-07T10:52:36Z</time>
      </trkpt>
      <trkpt lat="48.24269" lon="-3.59346">
        <ele>70.4</ele>
        <time>2024-09-07T10:52:37Z</time>
      </trkpt>
      <trkpt lat="48.24268" lon="-3.59338">
        <ele>70.4</ele>
        <time>2024-09-07T10:52:38Z</time>
      </trkpt>
      <trkpt lat="48.24267" lon="-3.59331">
        <ele>70.6</ele>
        <time>2024-09-07T10:52:39Z</time>
      </trkpt>
      <trkpt lat="48.24266" lon="-3.59323">
        <ele>70.6</ele>
        <time>2024-09-07T10:52:40Z</time>
      </trkpt>
      <trkpt lat="48.24265" lon="-3.59316">
        <ele>70.8</ele>
        <time>2024-09-07T10:52:41Z</time>
      </trkpt>
      <trkpt lat="48.24265" lon="-3.59308">
        <ele>70.8</ele>
        <time>2024-09-07T10:52:42Z</time>
      </trkpt>
      <trkpt lat="48.24264" lon="-3.593">
        <ele>71</ele>
        <time>2024-09-07T10:52:43Z</time>
      </trkpt>
      <trkpt lat="48.24264" lon="-3.59291">
        <ele>71</ele>
        <time>2024-09-07T10:52:44Z</time>
      </trkpt>
      <trkpt lat="48.24264" lon="-3.59283">
        <ele>71.2</ele>
        <time>2024-09-07T10:52:45Z</time>
      </trkpt>
      <trkpt lat="48.24264" lon="-3.59276">
        <ele>71.2</ele>
        <time>2024-09-07T10:52:46Z</time>
      </trkpt>
      <trkpt lat="48.24263" lon="-3.59267">
        <ele>71.2</ele>
        <time>2024-09-07T10:52:47Z</time>
      </trkpt>
      <trkpt lat="48.24263" lon="-3.59259">
        <ele>71.2</ele>
        <time>2024-09-07T10:52:48Z</time>
      </trkpt>
      <trkpt lat="48.24262" lon="-3.59251">
        <ele>71.2</ele>
        <time>2024-09-07T10:52:49Z</time>
      </trkpt>
      <trkpt lat="48.24263" lon="-3.59243">
        <ele>71.2</ele>
        <time>2024-09-07T10:52:50Z</time>
      </trkpt>
      <trkpt lat="48.24264" lon="-3.59235">
        <ele>71.4</ele>
        <time>2024-09-07T10:52:51Z</time>
      </trkpt>
      <trkpt lat="48.24265" lon="-3.59227">
        <ele>71.4</ele>
        <time>2024-09-07T10:52:52Z</time>
      </trkpt>
      <trkpt lat="48.24265" lon="-3.59219">
        <ele>71.4</ele>
        <time>2024-09-07T10:52:53Z</time>
      </trkpt>
      <trkpt lat="48.24266" lon="-3.59213">
        <ele>71.4</ele>
        <time>2024-09-07T10:52:54Z</time>
      </trkpt>
      <trkpt lat="48.24268" lon="-3.59203">
        <ele>71.4</ele>
        <time>2024-09-07T10:52:55Z</time>
      </trkpt>
      <trkpt lat="48.24269" lon="-3.59196">
        <ele>71.4</ele>
        <time>2024-09-07T10:52:56Z</time>
      </trkpt>
      <trkpt lat="48.24271" lon="-3.59189">
        <ele>71.6</ele>
        <time>2024-09-07T10:52:57Z</time>
      </trkpt>
      <trkpt lat="48.24273" lon="-3.59182">
        <ele>71.6</ele>
        <time>2024-09-07T10:52:58Z</time>
      </trkpt>
      <trkpt lat="48.24275" lon="-3.59173">
        <ele>71.6</ele>
        <time>2024-09-07T10:52:59Z</time>
      </trkpt>
      <trkpt lat="48.24277" lon="-3.59165">
        <ele>71.8</ele>
        <time>2024-09-07T10:53:00Z</time>
      </trkpt>
      <trkpt lat="48.24278" lon="-3.59159">
        <ele>71.8</ele>
        <time>2024-09-07T10:53:01Z</time>
      </trkpt>
      <trkpt lat="48.2428" lon="-3.59151">
        <ele>71.8</ele>
        <time>2024-09-07T10:53:02Z</time>
      </trkpt>
      <trkpt lat="48.24283" lon="-3.59144">
        <ele>71.8</ele>
        <time>2024-09-07T10:53:03Z</time>
      </trkpt>
      <trkpt lat="48.24286" lon="-3.59138">
        <ele>72.2</ele>
        <time>2024-09-07T10:53:04Z</time>
      </trkpt>
      <trkpt lat="48.24289" lon="-3.59131">
        <ele>72.2</ele>
        <time>2024-09-07T10:53:05Z</time>
      </trkpt>
      <trkpt lat="48.24292" lon="-3.59124">
        <ele>72.4</ele>
        <time>2024-09-07T10:53:06Z</time>
      </trkpt>
      <trkpt lat="48.24294" lon="-3.59119">
        <ele>72.4</ele>
        <time>2024-09-07T10:53:07Z</time>
      </trkpt>
      <trkpt lat="48.24297" lon="-3.5911">
        <ele>72.4</ele>
        <time>2024-09-07T10:53:08Z</time>
      </trkpt>
      <trkpt lat="48.243" lon="-3.59104">
        <ele>72.6</ele>
        <time>2024-09-07T10:53:09Z</time>
      </trkpt>
      <trkpt lat="48.24302" lon="-3.59099">
        <ele>72.6</ele>
        <time>2024-09-07T10:53:10Z</time>
      </trkpt>
      <trkpt lat="48.24305" lon="-3.59093">
        <ele>73</ele>
        <time>2024-09-07T10:53:11Z</time>
      </trkpt>
      <trkpt lat="48.24307" lon="-3.59088">
        <ele>73</ele>
        <time>2024-09-07T10:53:12Z</time>
      </trkpt>
      <trkpt lat="48.2431" lon="-3.59083">
        <ele>73.2</ele>
        <time>2024-09-07T10:53:13Z</time>
      </trkpt>
      <trkpt lat="48.24314" lon="-3.59075">
        <ele>73.2</ele>
        <time>2024-09-07T10:53:14Z</time>
      </trkpt>
      <trkpt lat="48.24317" lon="-3.59069">
        <ele>73.4</ele>
        <time>2024-09-07T10:53:15Z</time>
      </trkpt>
      <trkpt lat="48.2432" lon="-3.59063">
        <ele>73.4</ele>
        <time>2024-09-07T10:53:16Z</time>
      </trkpt>
      <trkpt lat="48.24323" lon="-3.59057">
        <ele>73.6</ele>
        <time>2024-09-07T10:53:17Z</time>
      </trkpt>
      <trkpt lat="48.24325" lon="-3.5905">
        <ele>73.6</ele>
        <time>2024-09-07T10:53:18Z</time>
      </trkpt>
      <trkpt lat="48.24327" lon="-3.59044">
        <ele>74</ele>
        <time>2024-09-07T10:53:19Z</time>
      </trkpt>
      <trkpt lat="48.2433" lon="-3.59038">
        <ele>74</ele>
        <time>2024-09-07T10:53:20Z</time>
      </trkpt>
      <trkpt lat="48.24333" lon="-3.59032">
        <ele>74</ele>
        <time>2024-09-07T10:53:21Z</time>
      </trkpt>
      <trkpt lat="48.24335" lon="-3.59028">
        <ele>74.2</ele>
        <time>2024-09-07T10:53:22Z</time>
      </trkpt>
      <trkpt lat="48.24339" lon="-3.59023">
        <ele>74.2</ele>
        <time>2024-09-07T10:53:23Z</time>
      </trkpt>
      <trkpt lat="48.24342" lon="-3.59018">
        <ele>74.4</ele>
        <time>2024-09-07T10:53:24Z</time>
      </trkpt>
      <trkpt lat="48.24346" lon="-3.59013">
        <ele>74.4</ele>
        <time>2024-09-07T10:53:25Z</time>
      </trkpt>
      <trkpt lat="48.24351" lon="-3.59008">
        <ele>74.4</ele>
        <time>2024-09-07T10:53:26Z</time>
      </trkpt>
      <trkpt lat="48.24355" lon="-3.59">
        <ele>74.6</ele>
        <time>2024-09-07T10:53:27Z</time>
      </trkpt>
      <trkpt lat="48.24357" lon="-3.58994">
        <ele>74.8</ele>
        <time>2024-09-07T10:53:28Z</time>
      </trkpt>
      <trkpt lat="48.2436" lon="-3.58989">
        <ele>75</ele>
        <time>2024-09-07T10:53:29Z</time>
      </trkpt>
      <trkpt lat="48.24364" lon="-3.58983">
        <ele>75</ele>
        <time>2024-09-07T10:53:30Z</time>
      </trkpt>
      <trkpt lat="48.24368" lon="-3.58978">
        <ele>75.2</ele>
        <time>2024-09-07T10:53:31Z</time>
      </trkpt>
      <trkpt lat="48.2437" lon="-3.58973">
        <ele>75.2</ele>
        <time>2024-09-07T10:53:32Z</time>
      </trkpt>
      <trkpt lat="48.24373" lon="-3.58967">
        <ele>75.4</ele>
        <time>2024-09-07T10:53:33Z</time>
      </trkpt>
      <trkpt lat="48.24377" lon="-3.58961">
        <ele>75.6</ele>
        <time>2024-09-07T10:53:34Z</time>
      </trkpt>
      <trkpt lat="48.24379" lon="-3.58956">
        <ele>75.8</ele>
        <time>2024-09-07T10:53:35Z</time>
      </trkpt>
      <trkpt lat="48.24382" lon="-3.58951">
        <ele>76</ele>
        <time>2024-09-07T10:53:36Z</time>
      </trkpt>
      <trkpt lat="48.24385" lon="-3.58945">
        <ele>76.2</ele>
        <time>2024-09-07T10:53:37Z</time>
      </trkpt>
      <trkpt lat="48.24387" lon="-3.58939">
        <ele>76.2</ele>
        <time>2024-09-07T10:53:38Z</time>
      </trkpt>
      <trkpt lat="48.24389" lon="-3.58934">
        <ele>76.4</ele>
        <time>2024-09-07T10:53:39Z</time>
      </trkpt>
      <trkpt lat="48.24392" lon="-3.58929">
        <ele>76.6</ele>
        <time>2024-09-07T10:53:40Z</time>
      </trkpt>
      <trkpt lat="48.24394" lon="-3.58924">
        <ele>76.6</ele>
        <time>2024-09-07T10:53:41Z</time>
      </trkpt>
      <trkpt lat="48.24396" lon="-3.5892">
        <ele>76.8</ele>
        <time>2024-09-07T10:53:42Z</time>
      </trkpt>
      <trkpt lat="48.24399" lon="-3.58915">
        <ele>76.8</ele>
        <time>2024-09-07T10:53:43Z</time>
      </trkpt>
      <trkpt lat="48.244" lon="-3.58911">
        <ele>77</ele>
        <time>2024-09-07T10:53:44Z</time>
      </trkpt>
      <trkpt lat="48.24403" lon="-3.58906">
        <ele>77</ele>
        <time>2024-09-07T10:53:45Z</time>
      </trkpt>
      <trkpt lat="48.24405" lon="-3.58902">
        <ele>77</ele>
        <time>2024-09-07T10:53:46Z</time>
      </trkpt>
      <trkpt lat="48.24407" lon="-3.58896">
        <ele>77.2</ele>
        <time>2024-09-07T10:53:47Z</time>
      </trkpt>
      <trkpt lat="48.2441" lon="-3.58891">
        <ele>77.2</ele>
        <time>2024-09-07T10:53:48Z</time>
      </trkpt>
      <trkpt lat="48.24412" lon="-3.58886">
        <ele>77.4</ele>
        <time>2024-09-07T10:53:49Z</time>
      </trkpt>
      <trkpt lat="48.24415" lon="-3.58881">
        <ele>77.4</ele>
        <time>2024-09-07T10:53:50Z</time>
      </trkpt>
      <trkpt lat="48.24417" lon="-3.58875">
        <ele>77.6</ele>
        <time>2024-09-07T10:53:51Z</time>
      </trkpt>
      <trkpt lat="48.24419" lon="-3.58871">
        <ele>77.6</ele>
        <time>2024-09-07T10:53:52Z</time>
      </trkpt>
      <trkpt lat="48.24421" lon="-3.58866">
        <ele>77.6</ele>
        <time>2024-09-07T10:53:53Z</time>
      </trkpt>
      <trkpt lat="48.24424" lon="-3.58861">
        <ele>77.8</ele>
        <time>2024-09-07T10:53:54Z</time>
      </trkpt>
      <trkpt lat="48.24426" lon="-3.58855">
        <ele>78</ele>
        <time>2024-09-07T10:53:55Z</time>
      </trkpt>
      <trkpt lat="48.24429" lon="-3.5885">
        <ele>78</ele>
        <time>2024-09-07T10:53:56Z</time>
      </trkpt>
      <trkpt lat="48.24432" lon="-3.58844">
        <ele>78.2</ele>
        <time>2024-09-07T10:53:57Z</time>
      </trkpt>
      <trkpt lat="48.24435" lon="-3.58838">
        <ele>78.4</ele>
        <time>2024-09-07T10:53:58Z</time>
      </trkpt>
      <trkpt lat="48.24436" lon="-3.58832">
        <ele>78.4</ele>
        <time>2024-09-07T10:53:59Z</time>
      </trkpt>
      <trkpt lat="48.24438" lon="-3.58827">
        <ele>78.4</ele>
        <time>2024-09-07T10:54:00Z</time>
      </trkpt>
      <trkpt lat="48.24441" lon="-3.58821">
        <ele>78.4</ele>
        <time>2024-09-07T10:54:01Z</time>
      </trkpt>
      <trkpt lat="48.24444" lon="-3.58816">
        <ele>78.6</ele>
        <time>2024-09-07T10:54:02Z</time>
      </trkpt>
      <trkpt lat="48.24446" lon="-3.5881">
        <ele>78.6</ele>
        <time>2024-09-07T10:54:03Z</time>
      </trkpt>
      <trkpt lat="48.24449" lon="-3.58803">
        <ele>78.8</ele>
        <time>2024-09-07T10:54:04Z</time>
      </trkpt>
      <trkpt lat="48.24451" lon="-3.58797">
        <ele>78.8</ele>
        <time>2024-09-07T10:54:05Z</time>
      </trkpt>
      <trkpt lat="48.24454" lon="-3.58791">
        <ele>78.8</ele>
        <time>2024-09-07T10:54:06Z</time>
      </trkpt>
      <trkpt lat="48.24457" lon="-3.58786">
        <ele>78.8</ele>
        <time>2024-09-07T10:54:07Z</time>
      </trkpt>
      <trkpt lat="48.24459" lon="-3.58779">
        <ele>78.8</ele>
        <time>2024-09-07T10:54:08Z</time>
      </trkpt>
      <trkpt lat="48.24461" lon="-3.58772">
        <ele>78.8</ele>
        <time>2024-09-07T10:54:09Z</time>
      </trkpt>
      <trkpt lat="48.24463" lon="-3.58765">
        <ele>79</ele>
        <time>2024-09-07T10:54:10Z</time>
      </trkpt>
      <trkpt lat="48.24466" lon="-3.58758">
        <ele>79</ele>
        <time>2024-09-07T10:54:11Z</time>
      </trkpt>
      <trkpt lat="48.2447" lon="-3.58752">
        <ele>79</ele>
        <time>2024-09-07T10:54:12Z</time>
      </trkpt>
      <trkpt lat="48.24474" lon="-3.58747">
        <ele>79</ele>
        <time>2024-09-07T10:54:13Z</time>
      </trkpt>
      <trkpt lat="48.24476" lon="-3.58742">
        <ele>79</ele>
        <time>2024-09-07T10:54:14Z</time>
      </trkpt>
      <trkpt lat="48.24479" lon="-3.58735">
        <ele>79</ele>
        <time>2024-09-07T10:54:15Z</time>
      </trkpt>
      <trkpt lat="48.24481" lon="-3.58729">
        <ele>79</ele>
        <time>2024-09-07T10:54:16Z</time>
      </trkpt>
      <trkpt lat="48.24484" lon="-3.58724">
        <ele>79</ele>
        <time>2024-09-07T10:54:17Z</time>
      </trkpt>
      <trkpt lat="48.24487" lon="-3.58717">
        <ele>79</ele>
        <time>2024-09-07T10:54:18Z</time>
      </trkpt>
      <trkpt lat="48.2449" lon="-3.5871">
        <ele>79</ele>
        <time>2024-09-07T10:54:19Z</time>
      </trkpt>
      <trkpt lat="48.24492" lon="-3.58702">
        <ele>79</ele>
        <time>2024-09-07T10:54:20Z</time>
      </trkpt>
      <trkpt lat="48.24495" lon="-3.58695">
        <ele>79</ele>
        <time>2024-09-07T10:54:21Z</time>
      </trkpt>
      <trkpt lat="48.24498" lon="-3.58689">
        <ele>79</ele>
        <time>2024-09-07T10:54:22Z</time>
      </trkpt>
      <trkpt lat="48.24502" lon="-3.58684">
        <ele>78.8</ele>
        <time>2024-09-07T10:54:23Z</time>
      </trkpt>
      <trkpt lat="48.24506" lon="-3.58678">
        <ele>78.8</ele>
        <time>2024-09-07T10:54:24Z</time>
      </trkpt>
      <trkpt lat="48.24509" lon="-3.58672">
        <ele>78.8</ele>
        <time>2024-09-07T10:54:25Z</time>
      </trkpt>
      <trkpt lat="48.24511" lon="-3.58666">
        <ele>78.8</ele>
        <time>2024-09-07T10:54:26Z</time>
      </trkpt>
      <trkpt lat="48.24513" lon="-3.5866">
        <ele>78.8</ele>
        <time>2024-09-07T10:54:27Z</time>
      </trkpt>
      <trkpt lat="48.24515" lon="-3.58653">
        <ele>78.8</ele>
        <time>2024-09-07T10:54:28Z</time>
      </trkpt>
      <trkpt lat="48.24517" lon="-3.58648">
        <ele>78.8</ele>
        <time>2024-09-07T10:54:29Z</time>
      </trkpt>
      <trkpt lat="48.2452" lon="-3.58644">
        <ele>78.8</ele>
        <time>2024-09-07T10:54:30Z</time>
      </trkpt>
      <trkpt lat="48.24522" lon="-3.58638">
        <ele>78.8</ele>
        <time>2024-09-07T10:54:31Z</time>
      </trkpt>
      <trkpt lat="48.24525" lon="-3.58632">
        <ele>78.8</ele>
        <time>2024-09-07T10:54:32Z</time>
      </trkpt>
      <trkpt lat="48.24528" lon="-3.58627">
        <ele>79</ele>
        <time>2024-09-07T10:54:33Z</time>
      </trkpt>
      <trkpt lat="48.24531" lon="-3.58622">
        <ele>79</ele>
        <time>2024-09-07T10:54:34Z</time>
      </trkpt>
      <trkpt lat="48.24534" lon="-3.58615">
        <ele>79</ele>
        <time>2024-09-07T10:54:35Z</time>
      </trkpt>
      <trkpt lat="48.24536" lon="-3.5861">
        <ele>79</ele>
        <time>2024-09-07T10:54:36Z</time>
      </trkpt>
      <trkpt lat="48.24539" lon="-3.58604">
        <ele>79</ele>
        <time>2024-09-07T10:54:37Z</time>
      </trkpt>
      <trkpt lat="48.24541" lon="-3.58599">
        <ele>79</ele>
        <time>2024-09-07T10:54:38Z</time>
      </trkpt>
      <trkpt lat="48.24544" lon="-3.58594">
        <ele>79</ele>
        <time>2024-09-07T10:54:39Z</time>
      </trkpt>
      <trkpt lat="48.24546" lon="-3.58588">
        <ele>79.2</ele>
        <time>2024-09-07T10:54:40Z</time>
      </trkpt>
      <trkpt lat="48.24549" lon="-3.58583">
        <ele>79.2</ele>
        <time>2024-09-07T10:54:41Z</time>
      </trkpt>
      <trkpt lat="48.24551" lon="-3.58578">
        <ele>79.2</ele>
        <time>2024-09-07T10:54:42Z</time>
      </trkpt>
      <trkpt lat="48.24554" lon="-3.58573">
        <ele>79.2</ele>
        <time>2024-09-07T10:54:43Z</time>
      </trkpt>
      <trkpt lat="48.24557" lon="-3.58567">
        <ele>79.2</ele>
        <time>2024-09-07T10:54:44Z</time>
      </trkpt>
      <trkpt lat="48.2456" lon="-3.58561">
        <ele>79.4</ele>
        <time>2024-09-07T10:54:45Z</time>
      </trkpt>
      <trkpt lat="48.24562" lon="-3.58556">
        <ele>79.4</ele>
        <time>2024-09-07T10:54:46Z</time>
      </trkpt>
      <trkpt lat="48.24565" lon="-3.58551">
        <ele>79.6</ele>
        <time>2024-09-07T10:54:47Z</time>
      </trkpt>
      <trkpt lat="48.24568" lon="-3.58545">
        <ele>79.6</ele>
        <time>2024-09-07T10:54:48Z</time>
      </trkpt>
      <trkpt lat="48.2457" lon="-3.5854">
        <ele>79.6</ele>
        <time>2024-09-07T10:54:49Z</time>
      </trkpt>
      <trkpt lat="48.24573" lon="-3.58535">
        <ele>79.8</ele>
        <time>2024-09-07T10:54:50Z</time>
      </trkpt>
      <trkpt lat="48.24576" lon="-3.58529">
        <ele>79.8</ele>
        <time>2024-09-07T10:54:51Z</time>
      </trkpt>
      <trkpt lat="48.24578" lon="-3.58524">
        <ele>79.8</ele>
        <time>2024-09-07T10:54:52Z</time>
      </trkpt>
      <trkpt lat="48.24581" lon="-3.58519">
        <ele>80</ele>
        <time>2024-09-07T10:54:53Z</time>
      </trkpt>
      <trkpt lat="48.24583" lon="-3.58514">
        <ele>80</ele>
        <time>2024-09-07T10:54:54Z</time>
      </trkpt>
      <trkpt lat="48.24586" lon="-3.58509">
        <ele>80.2</ele>
        <time>2024-09-07T10:54:55Z</time>
      </trkpt>
      <trkpt lat="48.24588" lon="-3.58503">
        <ele>80.4</ele>
        <time>2024-09-07T10:54:56Z</time>
      </trkpt>
      <trkpt lat="48.2459" lon="-3.58498">
        <ele>80.4</ele>
        <time>2024-09-07T10:54:57Z</time>
      </trkpt>
      <trkpt lat="48.24592" lon="-3.58493">
        <ele>80.6</ele>
        <time>2024-09-07T10:54:58Z</time>
      </trkpt>
      <trkpt lat="48.24594" lon="-3.58488">
        <ele>80.6</ele>
        <time>2024-09-07T10:54:59Z</time>
      </trkpt>
      <trkpt lat="48.24597" lon="-3.58483">
        <ele>80.6</ele>
        <time>2024-09-07T10:55:00Z</time>
      </trkpt>
      <trkpt lat="48.24599" lon="-3.58479">
        <ele>80.8</ele>
        <time>2024-09-07T10:55:01Z</time>
      </trkpt>
      <trkpt lat="48.24602" lon="-3.58474">
        <ele>80.8</ele>
        <time>2024-09-07T10:55:02Z</time>
      </trkpt>
      <trkpt lat="48.24604" lon="-3.5847">
        <ele>81</ele>
        <time>2024-09-07T10:55:03Z</time>
      </trkpt>
      <trkpt lat="48.24607" lon="-3.58466">
        <ele>81.2</ele>
        <time>2024-09-07T10:55:04Z</time>
      </trkpt>
      <trkpt lat="48.2461" lon="-3.58461">
        <ele>81.2</ele>
        <time>2024-09-07T10:55:05Z</time>
      </trkpt>
      <trkpt lat="48.24612" lon="-3.58456">
        <ele>81.4</ele>
        <time>2024-09-07T10:55:06Z</time>
      </trkpt>
      <trkpt lat="48.24616" lon="-3.58452">
        <ele>81.4</ele>
        <time>2024-09-07T10:55:07Z</time>
      </trkpt>
      <trkpt lat="48.24619" lon="-3.58447">
        <ele>81.4</ele>
        <time>2024-09-07T10:55:08Z</time>
      </trkpt>
      <trkpt lat="48.24621" lon="-3.58443">
        <ele>81.6</ele>
        <time>2024-09-07T10:55:09Z</time>
      </trkpt>
      <trkpt lat="48.24624" lon="-3.58438">
        <ele>81.6</ele>
        <time>2024-09-07T10:55:10Z</time>
      </trkpt>
      <trkpt lat="48.24626" lon="-3.58434">
        <ele>81.6</ele>
        <time>2024-09-07T10:55:11Z</time>
      </trkpt>
      <trkpt lat="48.24629" lon="-3.5843">
        <ele>81.8</ele>
        <time>2024-09-07T10:55:12Z</time>
      </trkpt>
      <trkpt lat="48.24632" lon="-3.58426">
        <ele>82</ele>
        <time>2024-09-07T10:55:13Z</time>
      </trkpt>
      <trkpt lat="48.24635" lon="-3.58422">
        <ele>82</ele>
        <time>2024-09-07T10:55:14Z</time>
      </trkpt>
      <trkpt lat="48.24638" lon="-3.58418">
        <ele>82.2</ele>
        <time>2024-09-07T10:55:15Z</time>
      </trkpt>
      <trkpt lat="48.24642" lon="-3.58414">
        <ele>82.2</ele>
        <time>2024-09-07T10:55:16Z</time>
      </trkpt>
      <trkpt lat="48.24646" lon="-3.5841">
        <ele>82.4</ele>
        <time>2024-09-07T10:55:17Z</time>
      </trkpt>
      <trkpt lat="48.2465" lon="-3.58407">
        <ele>82.4</ele>
        <time>2024-09-07T10:55:18Z</time>
      </trkpt>
      <trkpt lat="48.24655" lon="-3.58403">
        <ele>82.4</ele>
        <time>2024-09-07T10:55:19Z</time>
      </trkpt>
      <trkpt lat="48.24659" lon="-3.58399">
        <ele>82.6</ele>
        <time>2024-09-07T10:55:20Z</time>
      </trkpt>
      <trkpt lat="48.24664" lon="-3.58395">
        <ele>82.8</ele>
        <time>2024-09-07T10:55:21Z</time>
      </trkpt>
      <trkpt lat="48.2467" lon="-3.58392">
        <ele>83</ele>
        <time>2024-09-07T10:55:22Z</time>
      </trkpt>
      <trkpt lat="48.24674" lon="-3.58389">
        <ele>83</ele>
        <time>2024-09-07T10:55:23Z</time>
      </trkpt>
      <trkpt lat="48.24678" lon="-3.58386">
        <ele>83.2</ele>
        <time>2024-09-07T10:55:24Z</time>
      </trkpt>
      <trkpt lat="48.24681" lon="-3.58384">
        <ele>83.2</ele>
        <time>2024-09-07T10:55:25Z</time>
      </trkpt>
      <trkpt lat="48.24685" lon="-3.58381">
        <ele>83.4</ele>
        <time>2024-09-07T10:55:26Z</time>
      </trkpt>
      <trkpt lat="48.24689" lon="-3.58377">
        <ele>83.6</ele>
        <time>2024-09-07T10:55:27Z</time>
      </trkpt>
      <trkpt lat="48.24693" lon="-3.58371">
        <ele>83.6</ele>
        <time>2024-09-07T10:55:28Z</time>
      </trkpt>
      <trkpt lat="48.24698" lon="-3.58368">
        <ele>83.6</ele>
        <time>2024-09-07T10:55:29Z</time>
      </trkpt>
      <trkpt lat="48.24703" lon="-3.58364">
        <ele>83.8</ele>
        <time>2024-09-07T10:55:30Z</time>
      </trkpt>
      <trkpt lat="48.24708" lon="-3.58361">
        <ele>83.8</ele>
        <time>2024-09-07T10:55:31Z</time>
      </trkpt>
      <trkpt lat="48.24712" lon="-3.58358">
        <ele>83.8</ele>
        <time>2024-09-07T10:55:32Z</time>
      </trkpt>
      <trkpt lat="48.24717" lon="-3.58356">
        <ele>83.8</ele>
        <time>2024-09-07T10:55:33Z</time>
      </trkpt>
      <trkpt lat="48.24722" lon="-3.58352">
        <ele>84</ele>
        <time>2024-09-07T10:55:34Z</time>
      </trkpt>
      <trkpt lat="48.24727" lon="-3.5835">
        <ele>84.2</ele>
        <time>2024-09-07T10:55:35Z</time>
      </trkpt>
      <trkpt lat="48.24732" lon="-3.58347">
        <ele>84.2</ele>
        <time>2024-09-07T10:55:36Z</time>
      </trkpt>
      <trkpt lat="48.24736" lon="-3.58343">
        <ele>84.2</ele>
        <time>2024-09-07T10:55:37Z</time>
      </trkpt>
      <trkpt lat="48.24741" lon="-3.5834">
        <ele>84.4</ele>
        <time>2024-09-07T10:55:38Z</time>
      </trkpt>
      <trkpt lat="48.24746" lon="-3.58337">
        <ele>84.4</ele>
        <time>2024-09-07T10:55:39Z</time>
      </trkpt>
      <trkpt lat="48.2475" lon="-3.58334">
        <ele>84.6</ele>
        <time>2024-09-07T10:55:40Z</time>
      </trkpt>
      <trkpt lat="48.24754" lon="-3.58331">
        <ele>84.8</ele>
        <time>2024-09-07T10:55:41Z</time>
      </trkpt>
      <trkpt lat="48.24757" lon="-3.58328">
        <ele>85</ele>
        <time>2024-09-07T10:55:42Z</time>
      </trkpt>
      <trkpt lat="48.2476" lon="-3.58322">
        <ele>85</ele>
        <time>2024-09-07T10:55:43Z</time>
      </trkpt>
      <trkpt lat="48.24764" lon="-3.5832">
        <ele>85</ele>
        <time>2024-09-07T10:55:44Z</time>
      </trkpt>
      <trkpt lat="48.24768" lon="-3.58317">
        <ele>85.2</ele>
        <time>2024-09-07T10:55:45Z</time>
      </trkpt>
      <trkpt lat="48.24773" lon="-3.58314">
        <ele>85.2</ele>
        <time>2024-09-07T10:55:46Z</time>
      </trkpt>
      <trkpt lat="48.24778" lon="-3.58311">
        <ele>85.2</ele>
        <time>2024-09-07T10:55:47Z</time>
      </trkpt>
      <trkpt lat="48.24782" lon="-3.58309">
        <ele>85.4</ele>
        <time>2024-09-07T10:55:48Z</time>
      </trkpt>
      <trkpt lat="48.24787" lon="-3.58307">
        <ele>85.4</ele>
        <time>2024-09-07T10:55:49Z</time>
      </trkpt>
      <trkpt lat="48.24791" lon="-3.58305">
        <ele>85.6</ele>
        <time>2024-09-07T10:55:50Z</time>
      </trkpt>
      <trkpt lat="48.24796" lon="-3.58303">
        <ele>85.8</ele>
        <time>2024-09-07T10:55:51Z</time>
      </trkpt>
      <trkpt lat="48.248" lon="-3.58302">
        <ele>85.8</ele>
        <time>2024-09-07T10:55:52Z</time>
      </trkpt>
      <trkpt lat="48.24804" lon="-3.58301">
        <ele>85.8</ele>
        <time>2024-09-07T10:55:53Z</time>
      </trkpt>
      <trkpt lat="48.24809" lon="-3.583">
        <ele>86</ele>
        <time>2024-09-07T10:55:54Z</time>
      </trkpt>
      <trkpt lat="48.24813" lon="-3.58299">
        <ele>86</ele>
        <time>2024-09-07T10:55:55Z</time>
      </trkpt>
      <trkpt lat="48.24818" lon="-3.58299">
        <ele>86.2</ele>
        <time>2024-09-07T10:55:56Z</time>
      </trkpt>
      <trkpt lat="48.24822" lon="-3.58298">
        <ele>86.2</ele>
        <time>2024-09-07T10:55:57Z</time>
      </trkpt>
      <trkpt lat="48.24828" lon="-3.58298">
        <ele>86.4</ele>
        <time>2024-09-07T10:55:58Z</time>
      </trkpt>
      <trkpt lat="48.24832" lon="-3.58298">
        <ele>86.4</ele>
        <time>2024-09-07T10:55:59Z</time>
      </trkpt>
      <trkpt lat="48.24837" lon="-3.58298">
        <ele>86.8</ele>
        <time>2024-09-07T10:56:00Z</time>
      </trkpt>
      <trkpt lat="48.24842" lon="-3.58298">
        <ele>86.6</ele>
        <time>2024-09-07T10:56:01Z</time>
      </trkpt>
      <trkpt lat="48.24846" lon="-3.58298">
        <ele>87</ele>
        <time>2024-09-07T10:56:02Z</time>
      </trkpt>
      <trkpt lat="48.24852" lon="-3.58298">
        <ele>87</ele>
        <time>2024-09-07T10:56:03Z</time>
      </trkpt>
      <trkpt lat="48.24856" lon="-3.58298">
        <ele>87.2</ele>
        <time>2024-09-07T10:56:04Z</time>
      </trkpt>
      <trkpt lat="48.24861" lon="-3.583">
        <ele>87.2</ele>
        <time>2024-09-07T10:56:05Z</time>
      </trkpt>
      <trkpt lat="48.24866" lon="-3.58301">
        <ele>87.4</ele>
        <time>2024-09-07T10:56:06Z</time>
      </trkpt>
      <trkpt lat="48.24871" lon="-3.58302">
        <ele>87.4</ele>
        <time>2024-09-07T10:56:07Z</time>
      </trkpt>
      <trkpt lat="48.24876" lon="-3.58303">
        <ele>87.6</ele>
        <time>2024-09-07T10:56:08Z</time>
      </trkpt>
      <trkpt lat="48.24881" lon="-3.58304">
        <ele>87.8</ele>
        <time>2024-09-07T10:56:09Z</time>
      </trkpt>
      <trkpt lat="48.24886" lon="-3.58305">
        <ele>87.8</ele>
        <time>2024-09-07T10:56:10Z</time>
      </trkpt>
      <trkpt lat="48.2489" lon="-3.58307">
        <ele>87.8</ele>
        <time>2024-09-07T10:56:11Z</time>
      </trkpt>
      <trkpt lat="48.24894" lon="-3.58309">
        <ele>87.8</ele>
        <time>2024-09-07T10:56:12Z</time>
      </trkpt>
      <trkpt lat="48.24898" lon="-3.58311">
        <ele>88</ele>
        <time>2024-09-07T10:56:13Z</time>
      </trkpt>
      <trkpt lat="48.24903" lon="-3.58312">
        <ele>88</ele>
        <time>2024-09-07T10:56:14Z</time>
      </trkpt>
      <trkpt lat="48.24907" lon="-3.58314">
        <ele>88.2</ele>
        <time>2024-09-07T10:56:15Z</time>
      </trkpt>
      <trkpt lat="48.24911" lon="-3.58316">
        <ele>88.2</ele>
        <time>2024-09-07T10:56:16Z</time>
      </trkpt>
      <trkpt lat="48.24915" lon="-3.58319">
        <ele>88.4</ele>
        <time>2024-09-07T10:56:17Z</time>
      </trkpt>
      <trkpt lat="48.24919" lon="-3.58321">
        <ele>88.6</ele>
        <time>2024-09-07T10:56:18Z</time>
      </trkpt>
      <trkpt lat="48.24924" lon="-3.58324">
        <ele>88.6</ele>
        <time>2024-09-07T10:56:19Z</time>
      </trkpt>
      <trkpt lat="48.24928" lon="-3.58326">
        <ele>88.8</ele>
        <time>2024-09-07T10:56:20Z</time>
      </trkpt>
      <trkpt lat="48.24933" lon="-3.58328">
        <ele>89</ele>
        <time>2024-09-07T10:56:21Z</time>
      </trkpt>
      <trkpt lat="48.24937" lon="-3.58331">
        <ele>89</ele>
        <time>2024-09-07T10:56:22Z</time>
      </trkpt>
      <trkpt lat="48.24942" lon="-3.58334">
        <ele>89.2</ele>
        <time>2024-09-07T10:56:23Z</time>
      </trkpt>
      <trkpt lat="48.24946" lon="-3.58336">
        <ele>89.2</ele>
        <time>2024-09-07T10:56:24Z</time>
      </trkpt>
      <trkpt lat="48.2495" lon="-3.58338">
        <ele>89.2</ele>
        <time>2024-09-07T10:56:25Z</time>
      </trkpt>
      <trkpt lat="48.24954" lon="-3.5834">
        <ele>89.2</ele>
        <time>2024-09-07T10:56:26Z</time>
      </trkpt>
      <trkpt lat="48.24958" lon="-3.58342">
        <ele>89.4</ele>
        <time>2024-09-07T10:56:27Z</time>
      </trkpt>
      <trkpt lat="48.24962" lon="-3.58344">
        <ele>89.4</ele>
        <time>2024-09-07T10:56:28Z</time>
      </trkpt>
      <trkpt lat="48.24967" lon="-3.58345">
        <ele>89.4</ele>
        <time>2024-09-07T10:56:29Z</time>
      </trkpt>
      <trkpt lat="48.24971" lon="-3.58347">
        <ele>89.4</ele>
        <time>2024-09-07T10:56:30Z</time>
      </trkpt>
      <trkpt lat="48.24975" lon="-3.58348">
        <ele>89.6</ele>
        <time>2024-09-07T10:56:31Z</time>
      </trkpt>
      <trkpt lat="48.2498" lon="-3.58349">
        <ele>89.6</ele>
        <time>2024-09-07T10:56:32Z</time>
      </trkpt>
      <trkpt lat="48.24984" lon="-3.5835">
        <ele>89.6</ele>
        <time>2024-09-07T10:56:33Z</time>
      </trkpt>
      <trkpt lat="48.24988" lon="-3.5835">
        <ele>89.8</ele>
        <time>2024-09-07T10:56:34Z</time>
      </trkpt>
      <trkpt lat="48.24993" lon="-3.58351">
        <ele>89.8</ele>
        <time>2024-09-07T10:56:35Z</time>
      </trkpt>
      <trkpt lat="48.24997" lon="-3.58352">
        <ele>90</ele>
        <time>2024-09-07T10:56:36Z</time>
      </trkpt>
      <trkpt lat="48.25002" lon="-3.58352">
        <ele>90</ele>
        <time>2024-09-07T10:56:37Z</time>
      </trkpt>
      <trkpt lat="48.25006" lon="-3.58351">
        <ele>90.2</ele>
        <time>2024-09-07T10:56:38Z</time>
      </trkpt>
      <trkpt lat="48.25011" lon="-3.58351">
        <ele>90.4</ele>
        <time>2024-09-07T10:56:39Z</time>
      </trkpt>
      <trkpt lat="48.25015" lon="-3.58351">
        <ele>90.4</ele>
        <time>2024-09-07T10:56:40Z</time>
      </trkpt>
      <trkpt lat="48.25019" lon="-3.5835">
        <ele>90.6</ele>
        <time>2024-09-07T10:56:41Z</time>
      </trkpt>
      <trkpt lat="48.25024" lon="-3.5835">
        <ele>90.8</ele>
        <time>2024-09-07T10:56:42Z</time>
      </trkpt>
      <trkpt lat="48.25028" lon="-3.58349">
        <ele>90.8</ele>
        <time>2024-09-07T10:56:43Z</time>
      </trkpt>
      <trkpt lat="48.25032" lon="-3.58349">
        <ele>90.8</ele>
        <time>2024-09-07T10:56:44Z</time>
      </trkpt>
      <trkpt lat="48.25035" lon="-3.58349">
        <ele>91</ele>
        <time>2024-09-07T10:56:45Z</time>
      </trkpt>
      <trkpt lat="48.25037" lon="-3.58348">
        <ele>91</ele>
        <time>2024-09-07T10:56:46Z</time>
      </trkpt>
      <trkpt lat="48.2504" lon="-3.58347">
        <ele>91.2</ele>
        <time>2024-09-07T10:56:47Z</time>
      </trkpt>
      <trkpt lat="48.25042" lon="-3.58346">
        <ele>91.4</ele>
        <time>2024-09-07T10:56:48Z</time>
      </trkpt>
      <trkpt lat="48.25044" lon="-3.58345">
        <ele>91.4</ele>
        <time>2024-09-07T10:56:49Z</time>
      </trkpt>
      <trkpt lat="48.25046" lon="-3.58344">
        <ele>91.4</ele>
        <time>2024-09-07T10:56:50Z</time>
      </trkpt>
      <trkpt lat="48.25048" lon="-3.58343">
        <ele>91.6</ele>
        <time>2024-09-07T10:56:51Z</time>
      </trkpt>
      <trkpt lat="48.2505" lon="-3.58344">
        <ele>91.8</ele>
        <time>2024-09-07T10:56:52Z</time>
      </trkpt>
      <trkpt lat="48.25052" lon="-3.58344">
        <ele>91.8</ele>
        <time>2024-09-07T10:56:53Z</time>
      </trkpt>
      <trkpt lat="48.25055" lon="-3.58344">
        <ele>91.8</ele>
        <time>2024-09-07T10:56:54Z</time>
      </trkpt>
      <trkpt lat="48.25057" lon="-3.58344">
        <ele>92</ele>
        <time>2024-09-07T10:56:55Z</time>
      </trkpt>
      <trkpt lat="48.25059" lon="-3.58343">
        <ele>92</ele>
        <time>2024-09-07T10:56:56Z</time>
      </trkpt>
      <trkpt lat="48.25062" lon="-3.58342">
        <ele>92</ele>
        <time>2024-09-07T10:56:57Z</time>
      </trkpt>
      <trkpt lat="48.25064" lon="-3.5834">
        <ele>92.2</ele>
        <time>2024-09-07T10:56:58Z</time>
      </trkpt>
      <trkpt lat="48.25067" lon="-3.58339">
        <ele>92.4</ele>
        <time>2024-09-07T10:56:59Z</time>
      </trkpt>
      <trkpt lat="48.2507" lon="-3.58338">
        <ele>92.4</ele>
        <time>2024-09-07T10:57:00Z</time>
      </trkpt>
      <trkpt lat="48.25074" lon="-3.58336">
        <ele>92.6</ele>
        <time>2024-09-07T10:57:01Z</time>
      </trkpt>
      <trkpt lat="48.25079" lon="-3.58334">
        <ele>92.6</ele>
        <time>2024-09-07T10:57:02Z</time>
      </trkpt>
      <trkpt lat="48.25083" lon="-3.58332">
        <ele>92.8</ele>
        <time>2024-09-07T10:57:03Z</time>
      </trkpt>
      <trkpt lat="48.25088" lon="-3.58328">
        <ele>93</ele>
        <time>2024-09-07T10:57:04Z</time>
      </trkpt>
      <trkpt lat="48.25093" lon="-3.58325">
        <ele>93</ele>
        <time>2024-09-07T10:57:05Z</time>
      </trkpt>
      <trkpt lat="48.25097" lon="-3.58321">
        <ele>93.2</ele>
        <time>2024-09-07T10:57:06Z</time>
      </trkpt>
      <trkpt lat="48.251" lon="-3.58317">
        <ele>93.2</ele>
        <time>2024-09-07T10:57:07Z</time>
      </trkpt>
      <trkpt lat="48.25104" lon="-3.58313">
        <ele>93.4</ele>
        <time>2024-09-07T10:57:08Z</time>
      </trkpt>
      <trkpt lat="48.25108" lon="-3.58309">
        <ele>93.4</ele>
        <time>2024-09-07T10:57:09Z</time>
      </trkpt>
      <trkpt lat="48.25112" lon="-3.58305">
        <ele>93.4</ele>
        <time>2024-09-07T10:57:10Z</time>
      </trkpt>
      <trkpt lat="48.25116" lon="-3.58301">
        <ele>93.4</ele>
        <time>2024-09-07T10:57:11Z</time>
      </trkpt>
      <trkpt lat="48.25119" lon="-3.58296">
        <ele>93.4</ele>
        <time>2024-09-07T10:57:12Z</time>
      </trkpt>
      <trkpt lat="48.25123" lon="-3.58292">
        <ele>93.4</ele>
        <time>2024-09-07T10:57:13Z</time>
      </trkpt>
      <trkpt lat="48.25127" lon="-3.58287">
        <ele>93.6</ele>
        <time>2024-09-07T10:57:14Z</time>
      </trkpt>
      <trkpt lat="48.2513" lon="-3.58282">
        <ele>93.6</ele>
        <time>2024-09-07T10:57:15Z</time>
      </trkpt>
      <trkpt lat="48.25133" lon="-3.58277">
        <ele>93.6</ele>
        <time>2024-09-07T10:57:16Z</time>
      </trkpt>
      <trkpt lat="48.25136" lon="-3.58272">
        <ele>93.8</ele>
        <time>2024-09-07T10:57:17Z</time>
      </trkpt>
      <trkpt lat="48.25138" lon="-3.58266">
        <ele>93.8</ele>
        <time>2024-09-07T10:57:18Z</time>
      </trkpt>
      <trkpt lat="48.25141" lon="-3.5826">
        <ele>93.8</ele>
        <time>2024-09-07T10:57:19Z</time>
      </trkpt>
      <trkpt lat="48.25145" lon="-3.58254">
        <ele>94.2</ele>
        <time>2024-09-07T10:57:20Z</time>
      </trkpt>
      <trkpt lat="48.25148" lon="-3.58249">
        <ele>94.4</ele>
        <time>2024-09-07T10:57:21Z</time>
      </trkpt>
      <trkpt lat="48.25151" lon="-3.58244">
        <ele>94.2</ele>
        <time>2024-09-07T10:57:22Z</time>
      </trkpt>
      <trkpt lat="48.25154" lon="-3.5824">
        <ele>94.4</ele>
        <time>2024-09-07T10:57:23Z</time>
      </trkpt>
      <trkpt lat="48.25157" lon="-3.58235">
        <ele>94.6</ele>
        <time>2024-09-07T10:57:24Z</time>
      </trkpt>
      <trkpt lat="48.25161" lon="-3.58229">
        <ele>94.6</ele>
        <time>2024-09-07T10:57:25Z</time>
      </trkpt>
      <trkpt lat="48.25163" lon="-3.58225">
        <ele>94.8</ele>
        <time>2024-09-07T10:57:26Z</time>
      </trkpt>
      <trkpt lat="48.25166" lon="-3.58221">
        <ele>95</ele>
        <time>2024-09-07T10:57:27Z</time>
      </trkpt>
      <trkpt lat="48.25169" lon="-3.58216">
        <ele>95</ele>
        <time>2024-09-07T10:57:28Z</time>
      </trkpt>
      <trkpt lat="48.25171" lon="-3.58212">
        <ele>95.2</ele>
        <time>2024-09-07T10:57:29Z</time>
      </trkpt>
      <trkpt lat="48.25174" lon="-3.58206">
        <ele>95.2</ele>
        <time>2024-09-07T10:57:30Z</time>
      </trkpt>
      <trkpt lat="48.25178" lon="-3.58202">
        <ele>95</ele>
        <time>2024-09-07T10:57:31Z</time>
      </trkpt>
      <trkpt lat="48.25182" lon="-3.58196">
        <ele>95.4</ele>
        <time>2024-09-07T10:57:32Z</time>
      </trkpt>
      <trkpt lat="48.25185" lon="-3.58192">
        <ele>95.4</ele>
        <time>2024-09-07T10:57:33Z</time>
      </trkpt>
      <trkpt lat="48.25188" lon="-3.58186">
        <ele>95.6</ele>
        <time>2024-09-07T10:57:34Z</time>
      </trkpt>
      <trkpt lat="48.25191" lon="-3.58181">
        <ele>95.6</ele>
        <time>2024-09-07T10:57:35Z</time>
      </trkpt>
      <trkpt lat="48.25194" lon="-3.58176">
        <ele>95.6</ele>
        <time>2024-09-07T10:57:36Z</time>
      </trkpt>
      <trkpt lat="48.25197" lon="-3.58172">
        <ele>95.8</ele>
        <time>2024-09-07T10:57:37Z</time>
      </trkpt>
      <trkpt lat="48.252" lon="-3.58168">
        <ele>95.8</ele>
        <time>2024-09-07T10:57:38Z</time>
      </trkpt>
      <trkpt lat="48.25203" lon="-3.58164">
        <ele>95.8</ele>
        <time>2024-09-07T10:57:39Z</time>
      </trkpt>
      <trkpt lat="48.25209" lon="-3.58156">
        <ele>96</ele>
        <time>2024-09-07T10:57:40Z</time>
      </trkpt>
      <trkpt lat="48.25212" lon="-3.5815">
        <ele>96</ele>
        <time>2024-09-07T10:57:41Z</time>
      </trkpt>
      <trkpt lat="48.25216" lon="-3.58145">
        <ele>96.2</ele>
        <time>2024-09-07T10:57:42Z</time>
      </trkpt>
      <trkpt lat="48.25218" lon="-3.58142">
        <ele>96.2</ele>
        <time>2024-09-07T10:57:43Z</time>
      </trkpt>
      <trkpt lat="48.25222" lon="-3.58136">
        <ele>96.4</ele>
        <time>2024-09-07T10:57:44Z</time>
      </trkpt>
      <trkpt lat="48.25224" lon="-3.58132">
        <ele>96.4</ele>
        <time>2024-09-07T10:57:45Z</time>
      </trkpt>
      <trkpt lat="48.25227" lon="-3.58128">
        <ele>96.4</ele>
        <time>2024-09-07T10:57:46Z</time>
      </trkpt>
      <trkpt lat="48.2523" lon="-3.58124">
        <ele>96.6</ele>
        <time>2024-09-07T10:57:47Z</time>
      </trkpt>
      <trkpt lat="48.25233" lon="-3.58121">
        <ele>96.6</ele>
        <time>2024-09-07T10:57:48Z</time>
      </trkpt>
      <trkpt lat="48.25236" lon="-3.58117">
        <ele>96.8</ele>
        <time>2024-09-07T10:57:49Z</time>
      </trkpt>
      <trkpt lat="48.25239" lon="-3.58113">
        <ele>96.8</ele>
        <time>2024-09-07T10:57:50Z</time>
      </trkpt>
      <trkpt lat="48.25243" lon="-3.58108">
        <ele>97</ele>
        <time>2024-09-07T10:57:51Z</time>
      </trkpt>
      <trkpt lat="48.25247" lon="-3.58104">
        <ele>97</ele>
        <time>2024-09-07T10:57:52Z</time>
      </trkpt>
      <trkpt lat="48.2525" lon="-3.581">
        <ele>97</ele>
        <time>2024-09-07T10:57:53Z</time>
      </trkpt>
      <trkpt lat="48.25254" lon="-3.58096">
        <ele>97.2</ele>
        <time>2024-09-07T10:57:54Z</time>
      </trkpt>
      <trkpt lat="48.25258" lon="-3.58092">
        <ele>97.4</ele>
        <time>2024-09-07T10:57:55Z</time>
      </trkpt>
      <trkpt lat="48.25261" lon="-3.58088">
        <ele>97.4</ele>
        <time>2024-09-07T10:57:56Z</time>
      </trkpt>
      <trkpt lat="48.25266" lon="-3.58084">
        <ele>97.4</ele>
        <time>2024-09-07T10:57:57Z</time>
      </trkpt>
      <trkpt lat="48.2527" lon="-3.5808">
        <ele>97.4</ele>
        <time>2024-09-07T10:57:58Z</time>
      </trkpt>
      <trkpt lat="48.25273" lon="-3.58076">
        <ele>97.4</ele>
        <time>2024-09-07T10:57:59Z</time>
      </trkpt>
      <trkpt lat="48.25277" lon="-3.58073">
        <ele>97.6</ele>
        <time>2024-09-07T10:58:00Z</time>
      </trkpt>
      <trkpt lat="48.25281" lon="-3.58069">
        <ele>97.6</ele>
        <time>2024-09-07T10:58:01Z</time>
      </trkpt>
      <trkpt lat="48.25284" lon="-3.58066">
        <ele>97.8</ele>
        <time>2024-09-07T10:58:02Z</time>
      </trkpt>
      <trkpt lat="48.25288" lon="-3.58063">
        <ele>97.8</ele>
        <time>2024-09-07T10:58:03Z</time>
      </trkpt>
      <trkpt lat="48.25291" lon="-3.5806">
        <ele>98</ele>
        <time>2024-09-07T10:58:04Z</time>
      </trkpt>
      <trkpt lat="48.25295" lon="-3.58057">
        <ele>98</ele>
        <time>2024-09-07T10:58:05Z</time>
      </trkpt>
      <trkpt lat="48.25299" lon="-3.58053">
        <ele>98.2</ele>
        <time>2024-09-07T10:58:06Z</time>
      </trkpt>
      <trkpt lat="48.25302" lon="-3.5805">
        <ele>98.2</ele>
        <time>2024-09-07T10:58:07Z</time>
      </trkpt>
      <trkpt lat="48.25306" lon="-3.58047">
        <ele>98.4</ele>
        <time>2024-09-07T10:58:08Z</time>
      </trkpt>
      <trkpt lat="48.2531" lon="-3.58044">
        <ele>98.6</ele>
        <time>2024-09-07T10:58:09Z</time>
      </trkpt>
      <trkpt lat="48.25313" lon="-3.58041">
        <ele>98.8</ele>
        <time>2024-09-07T10:58:10Z</time>
      </trkpt>
      <trkpt lat="48.25317" lon="-3.58039">
        <ele>98.8</ele>
        <time>2024-09-07T10:58:11Z</time>
      </trkpt>
      <trkpt lat="48.25321" lon="-3.58035">
        <ele>99</ele>
        <time>2024-09-07T10:58:12Z</time>
      </trkpt>
      <trkpt lat="48.25325" lon="-3.58032">
        <ele>99.2</ele>
        <time>2024-09-07T10:58:13Z</time>
      </trkpt>
      <trkpt lat="48.25329" lon="-3.58029">
        <ele>99.2</ele>
        <time>2024-09-07T10:58:14Z</time>
      </trkpt>
      <trkpt lat="48.25333" lon="-3.58025">
        <ele>99.4</ele>
        <time>2024-09-07T10:58:15Z</time>
      </trkpt>
      <trkpt lat="48.25337" lon="-3.58021">
        <ele>99.6</ele>
        <time>2024-09-07T10:58:16Z</time>
      </trkpt>
      <trkpt lat="48.25341" lon="-3.58017">
        <ele>99.6</ele>
        <time>2024-09-07T10:58:17Z</time>
      </trkpt>
      <trkpt lat="48.25344" lon="-3.58014">
        <ele>99.6</ele>
        <time>2024-09-07T10:58:18Z</time>
      </trkpt>
      <trkpt lat="48.25348" lon="-3.58011">
        <ele>99.6</ele>
        <time>2024-09-07T10:58:19Z</time>
      </trkpt>
      <trkpt lat="48.25351" lon="-3.58008">
        <ele>99.8</ele>
        <time>2024-09-07T10:58:20Z</time>
      </trkpt>
      <trkpt lat="48.25355" lon="-3.58005">
        <ele>100</ele>
        <time>2024-09-07T10:58:21Z</time>
      </trkpt>
      <trkpt lat="48.25359" lon="-3.58002">
        <ele>100</ele>
        <time>2024-09-07T10:58:22Z</time>
      </trkpt>
      <trkpt lat="48.25363" lon="-3.57998">
        <ele>100.2</ele>
        <time>2024-09-07T10:58:23Z</time>
      </trkpt>
      <trkpt lat="48.25367" lon="-3.57995">
        <ele>100.2</ele>
        <time>2024-09-07T10:58:24Z</time>
      </trkpt>
      <trkpt lat="48.25371" lon="-3.57992">
        <ele>100.4</ele>
        <time>2024-09-07T10:58:25Z</time>
      </trkpt>
      <trkpt lat="48.25374" lon="-3.57988">
        <ele>100.4</ele>
        <time>2024-09-07T10:58:26Z</time>
      </trkpt>
      <trkpt lat="48.25378" lon="-3.57985">
        <ele>100.6</ele>
        <time>2024-09-07T10:58:27Z</time>
      </trkpt>
      <trkpt lat="48.25381" lon="-3.57982">
        <ele>100.6</ele>
        <time>2024-09-07T10:58:28Z</time>
      </trkpt>
      <trkpt lat="48.25385" lon="-3.57978">
        <ele>100.8</ele>
        <time>2024-09-07T10:58:29Z</time>
      </trkpt>
      <trkpt lat="48.25389" lon="-3.57975">
        <ele>100.8</ele>
        <time>2024-09-07T10:58:30Z</time>
      </trkpt>
      <trkpt lat="48.25392" lon="-3.57971">
        <ele>100.8</ele>
        <time>2024-09-07T10:58:31Z</time>
      </trkpt>
      <trkpt lat="48.25396" lon="-3.57968">
        <ele>101</ele>
        <time>2024-09-07T10:58:32Z</time>
      </trkpt>
      <trkpt lat="48.254" lon="-3.57964">
        <ele>101.2</ele>
        <time>2024-09-07T10:58:33Z</time>
      </trkpt>
      <trkpt lat="48.25403" lon="-3.57961">
        <ele>101.2</ele>
        <time>2024-09-07T10:58:34Z</time>
      </trkpt>
      <trkpt lat="48.25407" lon="-3.57958">
        <ele>101.4</ele>
        <time>2024-09-07T10:58:35Z</time>
      </trkpt>
      <trkpt lat="48.2541" lon="-3.57956">
        <ele>101.4</ele>
        <time>2024-09-07T10:58:36Z</time>
      </trkpt>
      <trkpt lat="48.25413" lon="-3.57954">
        <ele>101.6</ele>
        <time>2024-09-07T10:58:37Z</time>
      </trkpt>
      <trkpt lat="48.25416" lon="-3.57951">
        <ele>101.6</ele>
        <time>2024-09-07T10:58:38Z</time>
      </trkpt>
      <trkpt lat="48.25418" lon="-3.57949">
        <ele>101.6</ele>
        <time>2024-09-07T10:58:39Z</time>
      </trkpt>
      <trkpt lat="48.25421" lon="-3.57947">
        <ele>101.8</ele>
        <time>2024-09-07T10:58:40Z</time>
      </trkpt>
      <trkpt lat="48.25424" lon="-3.57944">
        <ele>101.8</ele>
        <time>2024-09-07T10:58:41Z</time>
      </trkpt>
      <trkpt lat="48.25426" lon="-3.57942">
        <ele>102</ele>
        <time>2024-09-07T10:58:42Z</time>
      </trkpt>
      <trkpt lat="48.25429" lon="-3.57939">
        <ele>102</ele>
        <time>2024-09-07T10:58:43Z</time>
      </trkpt>
      <trkpt lat="48.25432" lon="-3.57937">
        <ele>102.2</ele>
        <time>2024-09-07T10:58:44Z</time>
      </trkpt>
      <trkpt lat="48.25435" lon="-3.57933">
        <ele>102.2</ele>
        <time>2024-09-07T10:58:45Z</time>
      </trkpt>
      <trkpt lat="48.25437" lon="-3.5793">
        <ele>102.2</ele>
        <time>2024-09-07T10:58:46Z</time>
      </trkpt>
      <trkpt lat="48.2544" lon="-3.57928">
        <ele>102.2</ele>
        <time>2024-09-07T10:58:47Z</time>
      </trkpt>
      <trkpt lat="48.25443" lon="-3.57926">
        <ele>102.2</ele>
        <time>2024-09-07T10:58:48Z</time>
      </trkpt>
      <trkpt lat="48.25445" lon="-3.57924">
        <ele>102.2</ele>
        <time>2024-09-07T10:58:49Z</time>
      </trkpt>
      <trkpt lat="48.25446" lon="-3.57923">
        <ele>102.2</ele>
        <time>2024-09-07T10:58:50Z</time>
      </trkpt>
      <trkpt lat="48.25447" lon="-3.57921">
        <ele>102.2</ele>
        <time>2024-09-07T10:58:51Z</time>
      </trkpt>
      <trkpt lat="48.25447" lon="-3.5792">
        <ele>101.8</ele>
        <time>2024-09-07T10:58:52Z</time>
      </trkpt>
      <trkpt lat="48.25447" lon="-3.57921">
        <ele>101.6</ele>
        <time>2024-09-07T10:58:53Z</time>
      </trkpt>
      <trkpt lat="48.25447" lon="-3.57921">
        <ele>101.4</ele>
        <time>2024-09-07T10:58:54Z</time>
      </trkpt>
      <trkpt lat="48.25452" lon="-3.5792">
        <ele>99.4</ele>
        <time>2024-09-07T10:59:02Z</time>
      </trkpt>
      <trkpt lat="48.25455" lon="-3.5792">
        <ele>99.4</ele>
        <time>2024-09-07T10:59:03Z</time>
      </trkpt>
      <trkpt lat="48.25457" lon="-3.5792">
        <ele>99.4</ele>
        <time>2024-09-07T10:59:04Z</time>
      </trkpt>
      <trkpt lat="48.25459" lon="-3.5792">
        <ele>99.4</ele>
        <time>2024-09-07T10:59:05Z</time>
      </trkpt>
      <trkpt lat="48.25461" lon="-3.57918">
        <ele>99.4</ele>
        <time>2024-09-07T10:59:06Z</time>
      </trkpt>
      <trkpt lat="48.25463" lon="-3.57916">
        <ele>99.4</ele>
        <time>2024-09-07T10:59:07Z</time>
      </trkpt>
      <trkpt lat="48.25464" lon="-3.57913">
        <ele>99.4</ele>
        <time>2024-09-07T10:59:08Z</time>
      </trkpt>
      <trkpt lat="48.25466" lon="-3.5791">
        <ele>99.4</ele>
        <time>2024-09-07T10:59:09Z</time>
      </trkpt>
      <trkpt lat="48.25467" lon="-3.57908">
        <ele>99.4</ele>
        <time>2024-09-07T10:59:10Z</time>
      </trkpt>
      <trkpt lat="48.25469" lon="-3.57905">
        <ele>99.4</ele>
        <time>2024-09-07T10:59:11Z</time>
      </trkpt>
      <trkpt lat="48.25471" lon="-3.57903">
        <ele>99.4</ele>
        <time>2024-09-07T10:59:12Z</time>
      </trkpt>
      <trkpt lat="48.25473" lon="-3.579">
        <ele>99.4</ele>
        <time>2024-09-07T10:59:13Z</time>
      </trkpt>
      <trkpt lat="48.25475" lon="-3.57898">
        <ele>99.6</ele>
        <time>2024-09-07T10:59:14Z</time>
      </trkpt>
      <trkpt lat="48.25477" lon="-3.57895">
        <ele>99.8</ele>
        <time>2024-09-07T10:59:15Z</time>
      </trkpt>
      <trkpt lat="48.2548" lon="-3.57893">
        <ele>100</ele>
        <time>2024-09-07T10:59:16Z</time>
      </trkpt>
      <trkpt lat="48.25482" lon="-3.57891">
        <ele>100.2</ele>
        <time>2024-09-07T10:59:17Z</time>
      </trkpt>
      <trkpt lat="48.25485" lon="-3.57889">
        <ele>100.4</ele>
        <time>2024-09-07T10:59:18Z</time>
      </trkpt>
      <trkpt lat="48.25487" lon="-3.57888">
        <ele>100.8</ele>
        <time>2024-09-07T10:59:19Z</time>
      </trkpt>
      <trkpt lat="48.2549" lon="-3.57887">
        <ele>101.2</ele>
        <time>2024-09-07T10:59:20Z</time>
      </trkpt>
      <trkpt lat="48.25492" lon="-3.57883">
        <ele>101.2</ele>
        <time>2024-09-07T10:59:21Z</time>
      </trkpt>
      <trkpt lat="48.25495" lon="-3.57879">
        <ele>101.4</ele>
        <time>2024-09-07T10:59:22Z</time>
      </trkpt>
      <trkpt lat="48.25497" lon="-3.57876">
        <ele>102</ele>
        <time>2024-09-07T10:59:23Z</time>
      </trkpt>
      <trkpt lat="48.25499" lon="-3.57872">
        <ele>102.2</ele>
        <time>2024-09-07T10:59:24Z</time>
      </trkpt>
      <trkpt lat="48.25502" lon="-3.5787">
        <ele>102.6</ele>
        <time>2024-09-07T10:59:25Z</time>
      </trkpt>
      <trkpt lat="48.25506" lon="-3.57867">
        <ele>103</ele>
        <time>2024-09-07T10:59:26Z</time>
      </trkpt>
      <trkpt lat="48.25509" lon="-3.57865">
        <ele>103.2</ele>
        <time>2024-09-07T10:59:27Z</time>
      </trkpt>
      <trkpt lat="48.25514" lon="-3.57862">
        <ele>103.4</ele>
        <time>2024-09-07T10:59:28Z</time>
      </trkpt>
      <trkpt lat="48.25517" lon="-3.57859">
        <ele>103.8</ele>
        <time>2024-09-07T10:59:29Z</time>
      </trkpt>
      <trkpt lat="48.25521" lon="-3.57857">
        <ele>104</ele>
        <time>2024-09-07T10:59:30Z</time>
      </trkpt>
      <trkpt lat="48.25526" lon="-3.57853">
        <ele>104.2</ele>
        <time>2024-09-07T10:59:31Z</time>
      </trkpt>
      <trkpt lat="48.2553" lon="-3.5785">
        <ele>104.2</ele>
        <time>2024-09-07T10:59:32Z</time>
      </trkpt>
      <trkpt lat="48.25534" lon="-3.57847">
        <ele>104.4</ele>
        <time>2024-09-07T10:59:33Z</time>
      </trkpt>
      <trkpt lat="48.25538" lon="-3.57844">
        <ele>104.4</ele>
        <time>2024-09-07T10:59:34Z</time>
      </trkpt>
      <trkpt lat="48.25542" lon="-3.57842">
        <ele>104.6</ele>
        <time>2024-09-07T10:59:35Z</time>
      </trkpt>
      <trkpt lat="48.25547" lon="-3.57838">
        <ele>104.6</ele>
        <time>2024-09-07T10:59:36Z</time>
      </trkpt>
      <trkpt lat="48.25551" lon="-3.57834">
        <ele>104.6</ele>
        <time>2024-09-07T10:59:37Z</time>
      </trkpt>
      <trkpt lat="48.25557" lon="-3.57828">
        <ele>104.8</ele>
        <time>2024-09-07T10:59:38Z</time>
      </trkpt>
      <trkpt lat="48.25561" lon="-3.57826">
        <ele>104.8</ele>
        <time>2024-09-07T10:59:39Z</time>
      </trkpt>
      <trkpt lat="48.25566" lon="-3.57824">
        <ele>104.8</ele>
        <time>2024-09-07T10:59:40Z</time>
      </trkpt>
      <trkpt lat="48.2557" lon="-3.57823">
        <ele>104.8</ele>
        <time>2024-09-07T10:59:41Z</time>
      </trkpt>
      <trkpt lat="48.25574" lon="-3.57822">
        <ele>105</ele>
        <time>2024-09-07T10:59:42Z</time>
      </trkpt>
      <trkpt lat="48.25578" lon="-3.57821">
        <ele>105</ele>
        <time>2024-09-07T10:59:43Z</time>
      </trkpt>
      <trkpt lat="48.25582" lon="-3.5782">
        <ele>105</ele>
        <time>2024-09-07T10:59:44Z</time>
      </trkpt>
      <trkpt lat="48.25585" lon="-3.57818">
        <ele>105</ele>
        <time>2024-09-07T10:59:45Z</time>
      </trkpt>
      <trkpt lat="48.25589" lon="-3.57817">
        <ele>105.2</ele>
        <time>2024-09-07T10:59:46Z</time>
      </trkpt>
      <trkpt lat="48.25594" lon="-3.57814">
        <ele>105.4</ele>
        <time>2024-09-07T10:59:47Z</time>
      </trkpt>
      <trkpt lat="48.256" lon="-3.5781">
        <ele>105.4</ele>
        <time>2024-09-07T10:59:48Z</time>
      </trkpt>
      <trkpt lat="48.25605" lon="-3.57809">
        <ele>105.4</ele>
        <time>2024-09-07T10:59:49Z</time>
      </trkpt>
      <trkpt lat="48.25611" lon="-3.57808">
        <ele>105.8</ele>
        <time>2024-09-07T10:59:50Z</time>
      </trkpt>
      <trkpt lat="48.25616" lon="-3.57808">
        <ele>105.8</ele>
        <time>2024-09-07T10:59:51Z</time>
      </trkpt>
      <trkpt lat="48.25621" lon="-3.57808">
        <ele>106</ele>
        <time>2024-09-07T10:59:52Z</time>
      </trkpt>
      <trkpt lat="48.25625" lon="-3.57806">
        <ele>106.2</ele>
        <time>2024-09-07T10:59:53Z</time>
      </trkpt>
      <trkpt lat="48.25629" lon="-3.57805">
        <ele>106.2</ele>
        <time>2024-09-07T10:59:54Z</time>
      </trkpt>
      <trkpt lat="48.25632" lon="-3.57805">
        <ele>106.4</ele>
        <time>2024-09-07T10:59:55Z</time>
      </trkpt>
      <trkpt lat="48.25636" lon="-3.57806">
        <ele>106.4</ele>
        <time>2024-09-07T10:59:56Z</time>
      </trkpt>
      <trkpt lat="48.25639" lon="-3.57807">
        <ele>106.4</ele>
        <time>2024-09-07T10:59:57Z</time>
      </trkpt>
      <trkpt lat="48.25644" lon="-3.57807">
        <ele>106.4</ele>
        <time>2024-09-07T10:59:58Z</time>
      </trkpt>
      <trkpt lat="48.25651" lon="-3.57804">
        <ele>106.6</ele>
        <time>2024-09-07T10:59:59Z</time>
      </trkpt>
      <trkpt lat="48.25655" lon="-3.57803">
        <ele>106.6</ele>
        <time>2024-09-07T11:00:00Z</time>
      </trkpt>
      <trkpt lat="48.25661" lon="-3.57803">
        <ele>106.6</ele>
        <time>2024-09-07T11:00:01Z</time>
      </trkpt>
      <trkpt lat="48.25667" lon="-3.57802">
        <ele>106.6</ele>
        <time>2024-09-07T11:00:02Z</time>
      </trkpt>
      <trkpt lat="48.25671" lon="-3.57803">
        <ele>106.6</ele>
        <time>2024-09-07T11:00:03Z</time>
      </trkpt>
      <trkpt lat="48.25677" lon="-3.57803">
        <ele>106.8</ele>
        <time>2024-09-07T11:00:04Z</time>
      </trkpt>
      <trkpt lat="48.25681" lon="-3.57803">
        <ele>107</ele>
        <time>2024-09-07T11:00:05Z</time>
      </trkpt>
      <trkpt lat="48.25685" lon="-3.57804">
        <ele>107.2</ele>
        <time>2024-09-07T11:00:06Z</time>
      </trkpt>
      <trkpt lat="48.25691" lon="-3.57805">
        <ele>107.2</ele>
        <time>2024-09-07T11:00:07Z</time>
      </trkpt>
      <trkpt lat="48.25695" lon="-3.57806">
        <ele>107.4</ele>
        <time>2024-09-07T11:00:08Z</time>
      </trkpt>
      <trkpt lat="48.25699" lon="-3.57807">
        <ele>107.6</ele>
        <time>2024-09-07T11:00:09Z</time>
      </trkpt>
      <trkpt lat="48.25703" lon="-3.57808">
        <ele>107.6</ele>
        <time>2024-09-07T11:00:10Z</time>
      </trkpt>
      <trkpt lat="48.25706" lon="-3.57809">
        <ele>107.8</ele>
        <time>2024-09-07T11:00:11Z</time>
      </trkpt>
      <trkpt lat="48.25709" lon="-3.5781">
        <ele>107.8</ele>
        <time>2024-09-07T11:00:12Z</time>
      </trkpt>
      <trkpt lat="48.25712" lon="-3.57811">
        <ele>108</ele>
        <time>2024-09-07T11:00:13Z</time>
      </trkpt>
      <trkpt lat="48.25715" lon="-3.57812">
        <ele>108.2</ele>
        <time>2024-09-07T11:00:14Z</time>
      </trkpt>
      <trkpt lat="48.25718" lon="-3.57814">
        <ele>108.2</ele>
        <time>2024-09-07T11:00:15Z</time>
      </trkpt>
      <trkpt lat="48.25722" lon="-3.57815">
        <ele>108.4</ele>
        <time>2024-09-07T11:00:16Z</time>
      </trkpt>
      <trkpt lat="48.25725" lon="-3.57817">
        <ele>108.4</ele>
        <time>2024-09-07T11:00:17Z</time>
      </trkpt>
      <trkpt lat="48.25728" lon="-3.57818">
        <ele>108.6</ele>
        <time>2024-09-07T11:00:18Z</time>
      </trkpt>
      <trkpt lat="48.25731" lon="-3.57819">
        <ele>108.6</ele>
        <time>2024-09-07T11:00:19Z</time>
      </trkpt>
      <trkpt lat="48.25735" lon="-3.5782">
        <ele>108.8</ele>
        <time>2024-09-07T11:00:20Z</time>
      </trkpt>
      <trkpt lat="48.25738" lon="-3.57822">
        <ele>109</ele>
        <time>2024-09-07T11:00:21Z</time>
      </trkpt>
      <trkpt lat="48.25742" lon="-3.57824">
        <ele>109</ele>
        <time>2024-09-07T11:00:22Z</time>
      </trkpt>
      <trkpt lat="48.25745" lon="-3.57827">
        <ele>109.2</ele>
        <time>2024-09-07T11:00:23Z</time>
      </trkpt>
      <trkpt lat="48.2575" lon="-3.5783">
        <ele>109.2</ele>
        <time>2024-09-07T11:00:24Z</time>
      </trkpt>
      <trkpt lat="48.25753" lon="-3.57832">
        <ele>109.4</ele>
        <time>2024-09-07T11:00:25Z</time>
      </trkpt>
      <trkpt lat="48.25757" lon="-3.57834">
        <ele>109.4</ele>
        <time>2024-09-07T11:00:26Z</time>
      </trkpt>
      <trkpt lat="48.25762" lon="-3.57837">
        <ele>109.6</ele>
        <time>2024-09-07T11:00:27Z</time>
      </trkpt>
      <trkpt lat="48.25768" lon="-3.5784">
        <ele>109.6</ele>
        <time>2024-09-07T11:00:28Z</time>
      </trkpt>
      <trkpt lat="48.25773" lon="-3.57841">
        <ele>109.6</ele>
        <time>2024-09-07T11:00:29Z</time>
      </trkpt>
      <trkpt lat="48.25777" lon="-3.57844">
        <ele>109.8</ele>
        <time>2024-09-07T11:00:30Z</time>
      </trkpt>
      <trkpt lat="48.25781" lon="-3.57846">
        <ele>109.8</ele>
        <time>2024-09-07T11:00:31Z</time>
      </trkpt>
      <trkpt lat="48.25784" lon="-3.57848">
        <ele>110</ele>
        <time>2024-09-07T11:00:32Z</time>
      </trkpt>
      <trkpt lat="48.25787" lon="-3.5785">
        <ele>110.2</ele>
        <time>2024-09-07T11:00:33Z</time>
      </trkpt>
      <trkpt lat="48.25791" lon="-3.57853">
        <ele>110.2</ele>
        <time>2024-09-07T11:00:34Z</time>
      </trkpt>
      <trkpt lat="48.25795" lon="-3.57855">
        <ele>110.4</ele>
        <time>2024-09-07T11:00:35Z</time>
      </trkpt>
      <trkpt lat="48.25798" lon="-3.57857">
        <ele>110.4</ele>
        <time>2024-09-07T11:00:36Z</time>
      </trkpt>
      <trkpt lat="48.25803" lon="-3.5786">
        <ele>110.6</ele>
        <time>2024-09-07T11:00:37Z</time>
      </trkpt>
      <trkpt lat="48.25807" lon="-3.57862">
        <ele>110.6</ele>
        <time>2024-09-07T11:00:38Z</time>
      </trkpt>
      <trkpt lat="48.25811" lon="-3.57865">
        <ele>110.8</ele>
        <time>2024-09-07T11:00:39Z</time>
      </trkpt>
      <trkpt lat="48.25814" lon="-3.57867">
        <ele>110.8</ele>
        <time>2024-09-07T11:00:40Z</time>
      </trkpt>
      <trkpt lat="48.2582" lon="-3.57871">
        <ele>110.8</ele>
        <time>2024-09-07T11:00:41Z</time>
      </trkpt>
      <trkpt lat="48.25824" lon="-3.57872">
        <ele>111</ele>
        <time>2024-09-07T11:00:42Z</time>
      </trkpt>
      <trkpt lat="48.25828" lon="-3.57874">
        <ele>111</ele>
        <time>2024-09-07T11:00:43Z</time>
      </trkpt>
      <trkpt lat="48.25832" lon="-3.57875">
        <ele>111.2</ele>
        <time>2024-09-07T11:00:44Z</time>
      </trkpt>
      <trkpt lat="48.25838" lon="-3.57875">
        <ele>111.2</ele>
        <time>2024-09-07T11:00:45Z</time>
      </trkpt>
      <trkpt lat="48.25842" lon="-3.57876">
        <ele>111.2</ele>
        <time>2024-09-07T11:00:46Z</time>
      </trkpt>
      <trkpt lat="48.25847" lon="-3.57877">
        <ele>111.4</ele>
        <time>2024-09-07T11:00:47Z</time>
      </trkpt>
      <trkpt lat="48.25852" lon="-3.57878">
        <ele>111.4</ele>
        <time>2024-09-07T11:00:48Z</time>
      </trkpt>
      <trkpt lat="48.25857" lon="-3.57878">
        <ele>111.6</ele>
        <time>2024-09-07T11:00:49Z</time>
      </trkpt>
      <trkpt lat="48.2586" lon="-3.57879">
        <ele>111.8</ele>
        <time>2024-09-07T11:00:50Z</time>
      </trkpt>
      <trkpt lat="48.25866" lon="-3.5788">
        <ele>111.8</ele>
        <time>2024-09-07T11:00:51Z</time>
      </trkpt>
      <trkpt lat="48.25871" lon="-3.57881">
        <ele>111.8</ele>
        <time>2024-09-07T11:00:52Z</time>
      </trkpt>
      <trkpt lat="48.25875" lon="-3.57882">
        <ele>111.8</ele>
        <time>2024-09-07T11:00:53Z</time>
      </trkpt>
      <trkpt lat="48.25879" lon="-3.57883">
        <ele>112</ele>
        <time>2024-09-07T11:00:54Z</time>
      </trkpt>
      <trkpt lat="48.25883" lon="-3.57883">
        <ele>112</ele>
        <time>2024-09-07T11:00:55Z</time>
      </trkpt>
      <trkpt lat="48.25887" lon="-3.57883">
        <ele>112.2</ele>
        <time>2024-09-07T11:00:56Z</time>
      </trkpt>
      <trkpt lat="48.25892" lon="-3.57883">
        <ele>112.2</ele>
        <time>2024-09-07T11:00:57Z</time>
      </trkpt>
      <trkpt lat="48.25896" lon="-3.57883">
        <ele>112.2</ele>
        <time>2024-09-07T11:00:58Z</time>
      </trkpt>
      <trkpt lat="48.259" lon="-3.57884">
        <ele>112.4</ele>
        <time>2024-09-07T11:00:59Z</time>
      </trkpt>
      <trkpt lat="48.25904" lon="-3.57883">
        <ele>112.4</ele>
        <time>2024-09-07T11:01:00Z</time>
      </trkpt>
      <trkpt lat="48.25908" lon="-3.57882">
        <ele>112.4</ele>
        <time>2024-09-07T11:01:01Z</time>
      </trkpt>
      <trkpt lat="48.25912" lon="-3.57881">
        <ele>112.4</ele>
        <time>2024-09-07T11:01:02Z</time>
      </trkpt>
      <trkpt lat="48.25915" lon="-3.5788">
        <ele>112.4</ele>
        <time>2024-09-07T11:01:03Z</time>
      </trkpt>
      <trkpt lat="48.25919" lon="-3.57879">
        <ele>112.6</ele>
        <time>2024-09-07T11:01:04Z</time>
      </trkpt>
      <trkpt lat="48.25921" lon="-3.57878">
        <ele>112.6</ele>
        <time>2024-09-07T11:01:05Z</time>
      </trkpt>
      <trkpt lat="48.25925" lon="-3.57877">
        <ele>112.8</ele>
        <time>2024-09-07T11:01:06Z</time>
      </trkpt>
      <trkpt lat="48.25928" lon="-3.57877">
        <ele>113</ele>
        <time>2024-09-07T11:01:07Z</time>
      </trkpt>
      <trkpt lat="48.25932" lon="-3.57876">
        <ele>113</ele>
        <time>2024-09-07T11:01:08Z</time>
      </trkpt>
      <trkpt lat="48.25935" lon="-3.57874">
        <ele>113</ele>
        <time>2024-09-07T11:01:09Z</time>
      </trkpt>
      <trkpt lat="48.25938" lon="-3.57874">
        <ele>113.2</ele>
        <time>2024-09-07T11:01:10Z</time>
      </trkpt>
      <trkpt lat="48.25941" lon="-3.57873">
        <ele>113.2</ele>
        <time>2024-09-07T11:01:11Z</time>
      </trkpt>
      <trkpt lat="48.25944" lon="-3.57872">
        <ele>113.4</ele>
        <time>2024-09-07T11:01:12Z</time>
      </trkpt>
      <trkpt lat="48.25946" lon="-3.57872">
        <ele>113.4</ele>
        <time>2024-09-07T11:01:13Z</time>
      </trkpt>
      <trkpt lat="48.25948" lon="-3.57874">
        <ele>113.6</ele>
        <time>2024-09-07T11:01:14Z</time>
      </trkpt>
      <trkpt lat="48.25949" lon="-3.57877">
        <ele>113.6</ele>
        <time>2024-09-07T11:01:15Z</time>
      </trkpt>
      <trkpt lat="48.25948" lon="-3.5788">
        <ele>113.6</ele>
        <time>2024-09-07T11:01:16Z</time>
      </trkpt>
      <trkpt lat="48.25947" lon="-3.57883">
        <ele>113.8</ele>
        <time>2024-09-07T11:01:17Z</time>
      </trkpt>
      <trkpt lat="48.25946" lon="-3.57888">
        <ele>113.8</ele>
        <time>2024-09-07T11:01:18Z</time>
      </trkpt>
      <trkpt lat="48.25945" lon="-3.57893">
        <ele>114</ele>
        <time>2024-09-07T11:01:19Z</time>
      </trkpt>
      <trkpt lat="48.25944" lon="-3.57897">
        <ele>114</ele>
        <time>2024-09-07T11:01:20Z</time>
      </trkpt>
      <trkpt lat="48.25943" lon="-3.579">
        <ele>114.2</ele>
        <time>2024-09-07T11:01:21Z</time>
      </trkpt>
      <trkpt lat="48.25943" lon="-3.57903">
        <ele>114.6</ele>
        <time>2024-09-07T11:01:22Z</time>
      </trkpt>
      <trkpt lat="48.25942" lon="-3.57907">
        <ele>114.8</ele>
        <time>2024-09-07T11:01:23Z</time>
      </trkpt>
      <trkpt lat="48.25942" lon="-3.5791">
        <ele>115</ele>
        <time>2024-09-07T11:01:24Z</time>
      </trkpt>
      <trkpt lat="48.25941" lon="-3.57912">
        <ele>115.2</ele>
        <time>2024-09-07T11:01:25Z</time>
      </trkpt>
      <trkpt lat="48.25939" lon="-3.57915">
        <ele>115.2</ele>
        <time>2024-09-07T11:01:26Z</time>
      </trkpt>
      <trkpt lat="48.25938" lon="-3.57919">
        <ele>115.4</ele>
        <time>2024-09-07T11:01:27Z</time>
      </trkpt>
      <trkpt lat="48.25939" lon="-3.57923">
        <ele>115.4</ele>
        <time>2024-09-07T11:01:28Z</time>
      </trkpt>
      <trkpt lat="48.2594" lon="-3.57927">
        <ele>115.4</ele>
        <time>2024-09-07T11:01:29Z</time>
      </trkpt>
      <trkpt lat="48.25942" lon="-3.57931">
        <ele>115.8</ele>
        <time>2024-09-07T11:01:30Z</time>
      </trkpt>
      <trkpt lat="48.25946" lon="-3.57934">
        <ele>116</ele>
        <time>2024-09-07T11:01:31Z</time>
      </trkpt>
      <trkpt lat="48.25949" lon="-3.57935">
        <ele>116.2</ele>
        <time>2024-09-07T11:01:32Z</time>
      </trkpt>
      <trkpt lat="48.25953" lon="-3.57937">
        <ele>116.4</ele>
        <time>2024-09-07T11:01:33Z</time>
      </trkpt>
      <trkpt lat="48.25957" lon="-3.57936">
        <ele>116.6</ele>
        <time>2024-09-07T11:01:34Z</time>
      </trkpt>
      <trkpt lat="48.2596" lon="-3.57936">
        <ele>116.8</ele>
        <time>2024-09-07T11:01:35Z</time>
      </trkpt>
      <trkpt lat="48.25962" lon="-3.57936">
        <ele>117</ele>
        <time>2024-09-07T11:01:36Z</time>
      </trkpt>
      <trkpt lat="48.25964" lon="-3.57937">
        <ele>117.2</ele>
        <time>2024-09-07T11:01:37Z</time>
      </trkpt>
      <trkpt lat="48.25966" lon="-3.57938">
        <ele>117.2</ele>
        <time>2024-09-07T11:01:38Z</time>
      </trkpt>
      <trkpt lat="48.25967" lon="-3.57939">
        <ele>117.2</ele>
        <time>2024-09-07T11:01:39Z</time>
      </trkpt>
      <trkpt lat="48.25969" lon="-3.5794">
        <ele>117.4</ele>
        <time>2024-09-07T11:01:40Z</time>
      </trkpt>
      <trkpt lat="48.2597" lon="-3.57941">
        <ele>117.4</ele>
        <time>2024-09-07T11:01:41Z</time>
      </trkpt>
      <trkpt lat="48.25972" lon="-3.57942">
        <ele>117.4</ele>
        <time>2024-09-07T11:01:42Z</time>
      </trkpt>
      <trkpt lat="48.25974" lon="-3.57943">
        <ele>117.6</ele>
        <time>2024-09-07T11:01:43Z</time>
      </trkpt>
      <trkpt lat="48.25975" lon="-3.57944">
        <ele>117.6</ele>
        <time>2024-09-07T11:01:44Z</time>
      </trkpt>
      <trkpt lat="48.25977" lon="-3.57945">
        <ele>117.6</ele>
        <time>2024-09-07T11:01:45Z</time>
      </trkpt>
      <trkpt lat="48.25983" lon="-3.57939">
        <ele>117.6</ele>
        <time>2024-09-07T11:01:46Z</time>
      </trkpt>
      <trkpt lat="48.25989" lon="-3.57936">
        <ele>117.6</ele>
        <time>2024-09-07T11:01:47Z</time>
      </trkpt>
      <trkpt lat="48.25993" lon="-3.5793">
        <ele>117.6</ele>
        <time>2024-09-07T11:01:48Z</time>
      </trkpt>
      <trkpt lat="48.25997" lon="-3.57924">
        <ele>117.6</ele>
        <time>2024-09-07T11:01:49Z</time>
      </trkpt>
      <trkpt lat="48.25999" lon="-3.57918">
        <ele>117.6</ele>
        <time>2024-09-07T11:01:50Z</time>
      </trkpt>
      <trkpt lat="48.26" lon="-3.57914">
        <ele>117.6</ele>
        <time>2024-09-07T11:01:51Z</time>
      </trkpt>
      <trkpt lat="48.26001" lon="-3.57908">
        <ele>117.6</ele>
        <time>2024-09-07T11:01:52Z</time>
      </trkpt>
      <trkpt lat="48.26002" lon="-3.57902">
        <ele>117.6</ele>
        <time>2024-09-07T11:01:53Z</time>
      </trkpt>
      <trkpt lat="48.26003" lon="-3.57896">
        <ele>117.6</ele>
        <time>2024-09-07T11:01:54Z</time>
      </trkpt>
      <trkpt lat="48.26005" lon="-3.5789">
        <ele>117.6</ele>
        <time>2024-09-07T11:01:55Z</time>
      </trkpt>
      <trkpt lat="48.26006" lon="-3.57884">
        <ele>117.6</ele>
        <time>2024-09-07T11:01:56Z</time>
      </trkpt>
      <trkpt lat="48.26007" lon="-3.57879">
        <ele>117.6</ele>
        <time>2024-09-07T11:01:57Z</time>
      </trkpt>
      <trkpt lat="48.26009" lon="-3.57874">
        <ele>117.8</ele>
        <time>2024-09-07T11:01:58Z</time>
      </trkpt>
      <trkpt lat="48.2601" lon="-3.57868">
        <ele>117.8</ele>
        <time>2024-09-07T11:01:59Z</time>
      </trkpt>
      <trkpt lat="48.26012" lon="-3.57863">
        <ele>117.6</ele>
        <time>2024-09-07T11:02:00Z</time>
      </trkpt>
      <trkpt lat="48.26013" lon="-3.57857">
        <ele>117.6</ele>
        <time>2024-09-07T11:02:01Z</time>
      </trkpt>
      <trkpt lat="48.26015" lon="-3.5785">
        <ele>117.6</ele>
        <time>2024-09-07T11:02:02Z</time>
      </trkpt>
      <trkpt lat="48.26016" lon="-3.57843">
        <ele>117.6</ele>
        <time>2024-09-07T11:02:03Z</time>
      </trkpt>
      <trkpt lat="48.26018" lon="-3.57836">
        <ele>117.6</ele>
        <time>2024-09-07T11:02:04Z</time>
      </trkpt>
      <trkpt lat="48.26019" lon="-3.5783">
        <ele>117.6</ele>
        <time>2024-09-07T11:02:05Z</time>
      </trkpt>
      <trkpt lat="48.2602" lon="-3.57824">
        <ele>117.8</ele>
        <time>2024-09-07T11:02:06Z</time>
      </trkpt>
      <trkpt lat="48.26022" lon="-3.57818">
        <ele>117.8</ele>
        <time>2024-09-07T11:02:07Z</time>
      </trkpt>
      <trkpt lat="48.26024" lon="-3.57812">
        <ele>117.8</ele>
        <time>2024-09-07T11:02:08Z</time>
      </trkpt>
      <trkpt lat="48.26026" lon="-3.57806">
        <ele>117.8</ele>
        <time>2024-09-07T11:02:09Z</time>
      </trkpt>
      <trkpt lat="48.26028" lon="-3.57799">
        <ele>117.8</ele>
        <time>2024-09-07T11:02:10Z</time>
      </trkpt>
      <trkpt lat="48.26031" lon="-3.57794">
        <ele>117.8</ele>
        <time>2024-09-07T11:02:11Z</time>
      </trkpt>
      <trkpt lat="48.26035" lon="-3.57788">
        <ele>117.8</ele>
        <time>2024-09-07T11:02:12Z</time>
      </trkpt>
      <trkpt lat="48.26039" lon="-3.57783">
        <ele>117.8</ele>
        <time>2024-09-07T11:02:13Z</time>
      </trkpt>
      <trkpt lat="48.26042" lon="-3.57778">
        <ele>117.8</ele>
        <time>2024-09-07T11:02:14Z</time>
      </trkpt>
      <trkpt lat="48.26046" lon="-3.57774">
        <ele>117.8</ele>
        <time>2024-09-07T11:02:15Z</time>
      </trkpt>
      <trkpt lat="48.26049" lon="-3.5777">
        <ele>117.8</ele>
        <time>2024-09-07T11:02:16Z</time>
      </trkpt>
      <trkpt lat="48.26053" lon="-3.57766">
        <ele>117.8</ele>
        <time>2024-09-07T11:02:17Z</time>
      </trkpt>
      <trkpt lat="48.26056" lon="-3.57761">
        <ele>117.8</ele>
        <time>2024-09-07T11:02:18Z</time>
      </trkpt>
      <trkpt lat="48.26059" lon="-3.57756">
        <ele>118</ele>
        <time>2024-09-07T11:02:19Z</time>
      </trkpt>
      <trkpt lat="48.26063" lon="-3.57751">
        <ele>118</ele>
        <time>2024-09-07T11:02:20Z</time>
      </trkpt>
      <trkpt lat="48.26068" lon="-3.57746">
        <ele>118.2</ele>
        <time>2024-09-07T11:02:21Z</time>
      </trkpt>
      <trkpt lat="48.26072" lon="-3.57741">
        <ele>118.2</ele>
        <time>2024-09-07T11:02:22Z</time>
      </trkpt>
      <trkpt lat="48.26077" lon="-3.57735">
        <ele>118.2</ele>
        <time>2024-09-07T11:02:23Z</time>
      </trkpt>
      <trkpt lat="48.26082" lon="-3.5773">
        <ele>118.4</ele>
        <time>2024-09-07T11:02:24Z</time>
      </trkpt>
      <trkpt lat="48.26086" lon="-3.57726">
        <ele>118.4</ele>
        <time>2024-09-07T11:02:25Z</time>
      </trkpt>
      <trkpt lat="48.2609" lon="-3.57721">
        <ele>118.6</ele>
        <time>2024-09-07T11:02:26Z</time>
      </trkpt>
      <trkpt lat="48.26094" lon="-3.57717">
        <ele>118.8</ele>
        <time>2024-09-07T11:02:27Z</time>
      </trkpt>
      <trkpt lat="48.26097" lon="-3.57713">
        <ele>119</ele>
        <time>2024-09-07T11:02:28Z</time>
      </trkpt>
      <trkpt lat="48.26101" lon="-3.5771">
        <ele>119</ele>
        <time>2024-09-07T11:02:29Z</time>
      </trkpt>
      <trkpt lat="48.26105" lon="-3.57706">
        <ele>119.2</ele>
        <time>2024-09-07T11:02:30Z</time>
      </trkpt>
      <trkpt lat="48.26109" lon="-3.57701">
        <ele>119.2</ele>
        <time>2024-09-07T11:02:31Z</time>
      </trkpt>
      <trkpt lat="48.26113" lon="-3.57696">
        <ele>119.2</ele>
        <time>2024-09-07T11:02:32Z</time>
      </trkpt>
      <trkpt lat="48.26117" lon="-3.57691">
        <ele>119.2</ele>
        <time>2024-09-07T11:02:33Z</time>
      </trkpt>
      <trkpt lat="48.2612" lon="-3.57686">
        <ele>119.2</ele>
        <time>2024-09-07T11:02:34Z</time>
      </trkpt>
      <trkpt lat="48.26123" lon="-3.57682">
        <ele>119.2</ele>
        <time>2024-09-07T11:02:35Z</time>
      </trkpt>
      <trkpt lat="48.26126" lon="-3.57678">
        <ele>119.4</ele>
        <time>2024-09-07T11:02:36Z</time>
      </trkpt>
      <trkpt lat="48.26129" lon="-3.57674">
        <ele>119.4</ele>
        <time>2024-09-07T11:02:37Z</time>
      </trkpt>
      <trkpt lat="48.26133" lon="-3.5767">
        <ele>119.6</ele>
        <time>2024-09-07T11:02:38Z</time>
      </trkpt>
      <trkpt lat="48.26137" lon="-3.57667">
        <ele>119.6</ele>
        <time>2024-09-07T11:02:39Z</time>
      </trkpt>
      <trkpt lat="48.2614" lon="-3.57664">
        <ele>119.6</ele>
        <time>2024-09-07T11:02:40Z</time>
      </trkpt>
      <trkpt lat="48.26143" lon="-3.57661">
        <ele>119.6</ele>
        <time>2024-09-07T11:02:41Z</time>
      </trkpt>
      <trkpt lat="48.26146" lon="-3.57658">
        <ele>119.6</ele>
        <time>2024-09-07T11:02:42Z</time>
      </trkpt>
      <trkpt lat="48.2615" lon="-3.57654">
        <ele>119.6</ele>
        <time>2024-09-07T11:02:43Z</time>
      </trkpt>
      <trkpt lat="48.26153" lon="-3.5765">
        <ele>119.6</ele>
        <time>2024-09-07T11:02:44Z</time>
      </trkpt>
      <trkpt lat="48.26156" lon="-3.57644">
        <ele>119.4</ele>
        <time>2024-09-07T11:02:45Z</time>
      </trkpt>
      <trkpt lat="48.2616" lon="-3.57641">
        <ele>119.6</ele>
        <time>2024-09-07T11:02:46Z</time>
      </trkpt>
      <trkpt lat="48.26163" lon="-3.57637">
        <ele>119.6</ele>
        <time>2024-09-07T11:02:47Z</time>
      </trkpt>
      <trkpt lat="48.26166" lon="-3.5763">
        <ele>119.6</ele>
        <time>2024-09-07T11:02:48Z</time>
      </trkpt>
      <trkpt lat="48.2617" lon="-3.57624">
        <ele>119.4</ele>
        <time>2024-09-07T11:02:49Z</time>
      </trkpt>
      <trkpt lat="48.26175" lon="-3.57618">
        <ele>119.6</ele>
        <time>2024-09-07T11:02:50Z</time>
      </trkpt>
      <trkpt lat="48.26179" lon="-3.57612">
        <ele>119.6</ele>
        <time>2024-09-07T11:02:51Z</time>
      </trkpt>
      <trkpt lat="48.26183" lon="-3.57608">
        <ele>119.6</ele>
        <time>2024-09-07T11:02:52Z</time>
      </trkpt>
      <trkpt lat="48.26187" lon="-3.57602">
        <ele>119.6</ele>
        <time>2024-09-07T11:02:53Z</time>
      </trkpt>
      <trkpt lat="48.26192" lon="-3.57596">
        <ele>119.6</ele>
        <time>2024-09-07T11:02:54Z</time>
      </trkpt>
      <trkpt lat="48.26196" lon="-3.57591">
        <ele>119.6</ele>
        <time>2024-09-07T11:02:55Z</time>
      </trkpt>
      <trkpt lat="48.262" lon="-3.57585">
        <ele>119.6</ele>
        <time>2024-09-07T11:02:56Z</time>
      </trkpt>
      <trkpt lat="48.26204" lon="-3.57581">
        <ele>119.6</ele>
        <time>2024-09-07T11:02:57Z</time>
      </trkpt>
      <trkpt lat="48.26209" lon="-3.57576">
        <ele>119.6</ele>
        <time>2024-09-07T11:02:58Z</time>
      </trkpt>
      <trkpt lat="48.26213" lon="-3.57571">
        <ele>119.6</ele>
        <time>2024-09-07T11:02:59Z</time>
      </trkpt>
      <trkpt lat="48.26219" lon="-3.57563">
        <ele>119.6</ele>
        <time>2024-09-07T11:03:00Z</time>
      </trkpt>
      <trkpt lat="48.26222" lon="-3.57558">
        <ele>119.4</ele>
        <time>2024-09-07T11:03:01Z</time>
      </trkpt>
      <trkpt lat="48.26228" lon="-3.5755">
        <ele>119.4</ele>
        <time>2024-09-07T11:03:02Z</time>
      </trkpt>
      <trkpt lat="48.26232" lon="-3.57545">
        <ele>119.4</ele>
        <time>2024-09-07T11:03:03Z</time>
      </trkpt>
      <trkpt lat="48.26236" lon="-3.5754">
        <ele>119.4</ele>
        <time>2024-09-07T11:03:04Z</time>
      </trkpt>
      <trkpt lat="48.2624" lon="-3.57535">
        <ele>119.4</ele>
        <time>2024-09-07T11:03:05Z</time>
      </trkpt>
      <trkpt lat="48.26245" lon="-3.57529">
        <ele>119.4</ele>
        <time>2024-09-07T11:03:06Z</time>
      </trkpt>
      <trkpt lat="48.26249" lon="-3.57523">
        <ele>119.4</ele>
        <time>2024-09-07T11:03:07Z</time>
      </trkpt>
      <trkpt lat="48.26254" lon="-3.57518">
        <ele>119.4</ele>
        <time>2024-09-07T11:03:08Z</time>
      </trkpt>
      <trkpt lat="48.26258" lon="-3.57513">
        <ele>119.4</ele>
        <time>2024-09-07T11:03:09Z</time>
      </trkpt>
      <trkpt lat="48.26262" lon="-3.57508">
        <ele>119.4</ele>
        <time>2024-09-07T11:03:10Z</time>
      </trkpt>
      <trkpt lat="48.26266" lon="-3.57503">
        <ele>119.4</ele>
        <time>2024-09-07T11:03:11Z</time>
      </trkpt>
      <trkpt lat="48.2627" lon="-3.57498">
        <ele>119.4</ele>
        <time>2024-09-07T11:03:12Z</time>
      </trkpt>
      <trkpt lat="48.26274" lon="-3.57493">
        <ele>119.4</ele>
        <time>2024-09-07T11:03:13Z</time>
      </trkpt>
      <trkpt lat="48.26278" lon="-3.57489">
        <ele>119.4</ele>
        <time>2024-09-07T11:03:14Z</time>
      </trkpt>
      <trkpt lat="48.26282" lon="-3.57485">
        <ele>119.4</ele>
        <time>2024-09-07T11:03:15Z</time>
      </trkpt>
      <trkpt lat="48.26286" lon="-3.57479">
        <ele>119.4</ele>
        <time>2024-09-07T11:03:16Z</time>
      </trkpt>
      <trkpt lat="48.2629" lon="-3.57474">
        <ele>119.4</ele>
        <time>2024-09-07T11:03:17Z</time>
      </trkpt>
      <trkpt lat="48.26294" lon="-3.57469">
        <ele>119.4</ele>
        <time>2024-09-07T11:03:18Z</time>
      </trkpt>
      <trkpt lat="48.26298" lon="-3.57464">
        <ele>119.4</ele>
        <time>2024-09-07T11:03:19Z</time>
      </trkpt>
      <trkpt lat="48.26302" lon="-3.57459">
        <ele>119.4</ele>
        <time>2024-09-07T11:03:20Z</time>
      </trkpt>
      <trkpt lat="48.26306" lon="-3.57453">
        <ele>119.4</ele>
        <time>2024-09-07T11:03:21Z</time>
      </trkpt>
      <trkpt lat="48.2631" lon="-3.57449">
        <ele>119.4</ele>
        <time>2024-09-07T11:03:22Z</time>
      </trkpt>
      <trkpt lat="48.26314" lon="-3.57445">
        <ele>119.4</ele>
        <time>2024-09-07T11:03:23Z</time>
      </trkpt>
      <trkpt lat="48.26317" lon="-3.5744">
        <ele>119.4</ele>
        <time>2024-09-07T11:03:24Z</time>
      </trkpt>
      <trkpt lat="48.26321" lon="-3.57435">
        <ele>119.4</ele>
        <time>2024-09-07T11:03:25Z</time>
      </trkpt>
      <trkpt lat="48.26325" lon="-3.5743">
        <ele>119.4</ele>
        <time>2024-09-07T11:03:26Z</time>
      </trkpt>
      <trkpt lat="48.26329" lon="-3.57425">
        <ele>119.4</ele>
        <time>2024-09-07T11:03:27Z</time>
      </trkpt>
      <trkpt lat="48.26333" lon="-3.5742">
        <ele>119.4</ele>
        <time>2024-09-07T11:03:28Z</time>
      </trkpt>
      <trkpt lat="48.26337" lon="-3.57415">
        <ele>119.4</ele>
        <time>2024-09-07T11:03:29Z</time>
      </trkpt>
      <trkpt lat="48.26341" lon="-3.57411">
        <ele>119.4</ele>
        <time>2024-09-07T11:03:30Z</time>
      </trkpt>
      <trkpt lat="48.26345" lon="-3.57407">
        <ele>119.4</ele>
        <time>2024-09-07T11:03:31Z</time>
      </trkpt>
      <trkpt lat="48.26349" lon="-3.57402">
        <ele>119.6</ele>
        <time>2024-09-07T11:03:32Z</time>
      </trkpt>
      <trkpt lat="48.26353" lon="-3.57397">
        <ele>119.6</ele>
        <time>2024-09-07T11:03:33Z</time>
      </trkpt>
      <trkpt lat="48.26357" lon="-3.57392">
        <ele>119.6</ele>
        <time>2024-09-07T11:03:34Z</time>
      </trkpt>
      <trkpt lat="48.26361" lon="-3.57387">
        <ele>119.6</ele>
        <time>2024-09-07T11:03:35Z</time>
      </trkpt>
      <trkpt lat="48.26365" lon="-3.57381">
        <ele>119.6</ele>
        <time>2024-09-07T11:03:36Z</time>
      </trkpt>
      <trkpt lat="48.26369" lon="-3.57376">
        <ele>119.6</ele>
        <time>2024-09-07T11:03:37Z</time>
      </trkpt>
      <trkpt lat="48.26373" lon="-3.5737">
        <ele>119.8</ele>
        <time>2024-09-07T11:03:38Z</time>
      </trkpt>
      <trkpt lat="48.26377" lon="-3.57365">
        <ele>119.8</ele>
        <time>2024-09-07T11:03:39Z</time>
      </trkpt>
      <trkpt lat="48.26381" lon="-3.5736">
        <ele>119.8</ele>
        <time>2024-09-07T11:03:40Z</time>
      </trkpt>
      <trkpt lat="48.26385" lon="-3.57355">
        <ele>120</ele>
        <time>2024-09-07T11:03:41Z</time>
      </trkpt>
      <trkpt lat="48.26389" lon="-3.5735">
        <ele>120</ele>
        <time>2024-09-07T11:03:42Z</time>
      </trkpt>
      <trkpt lat="48.26392" lon="-3.57345">
        <ele>120</ele>
        <time>2024-09-07T11:03:43Z</time>
      </trkpt>
      <trkpt lat="48.26397" lon="-3.57339">
        <ele>120</ele>
        <time>2024-09-07T11:03:44Z</time>
      </trkpt>
      <trkpt lat="48.26401" lon="-3.57334">
        <ele>120.2</ele>
        <time>2024-09-07T11:03:45Z</time>
      </trkpt>
      <trkpt lat="48.26405" lon="-3.57328">
        <ele>120.2</ele>
        <time>2024-09-07T11:03:46Z</time>
      </trkpt>
      <trkpt lat="48.26409" lon="-3.57323">
        <ele>120.2</ele>
        <time>2024-09-07T11:03:47Z</time>
      </trkpt>
      <trkpt lat="48.26413" lon="-3.57318">
        <ele>120.4</ele>
        <time>2024-09-07T11:03:48Z</time>
      </trkpt>
      <trkpt lat="48.26416" lon="-3.57314">
        <ele>120.4</ele>
        <time>2024-09-07T11:03:49Z</time>
      </trkpt>
      <trkpt lat="48.2642" lon="-3.57308">
        <ele>120.6</ele>
        <time>2024-09-07T11:03:50Z</time>
      </trkpt>
      <trkpt lat="48.26424" lon="-3.57303">
        <ele>120.6</ele>
        <time>2024-09-07T11:03:51Z</time>
      </trkpt>
      <trkpt lat="48.26429" lon="-3.57298">
        <ele>120.8</ele>
        <time>2024-09-07T11:03:52Z</time>
      </trkpt>
      <trkpt lat="48.26433" lon="-3.57292">
        <ele>120.8</ele>
        <time>2024-09-07T11:03:53Z</time>
      </trkpt>
      <trkpt lat="48.26438" lon="-3.57287">
        <ele>120.8</ele>
        <time>2024-09-07T11:03:54Z</time>
      </trkpt>
      <trkpt lat="48.26442" lon="-3.57281">
        <ele>120.8</ele>
        <time>2024-09-07T11:03:55Z</time>
      </trkpt>
      <trkpt lat="48.26445" lon="-3.57276">
        <ele>120.8</ele>
        <time>2024-09-07T11:03:56Z</time>
      </trkpt>
      <trkpt lat="48.26448" lon="-3.57271">
        <ele>120.8</ele>
        <time>2024-09-07T11:03:57Z</time>
      </trkpt>
      <trkpt lat="48.26451" lon="-3.57266">
        <ele>120.8</ele>
        <time>2024-09-07T11:03:58Z</time>
      </trkpt>
      <trkpt lat="48.26455" lon="-3.57261">
        <ele>120.8</ele>
        <time>2024-09-07T11:03:59Z</time>
      </trkpt>
      <trkpt lat="48.26458" lon="-3.57256">
        <ele>120.8</ele>
        <time>2024-09-07T11:04:00Z</time>
      </trkpt>
      <trkpt lat="48.26462" lon="-3.57251">
        <ele>121</ele>
        <time>2024-09-07T11:04:01Z</time>
      </trkpt>
      <trkpt lat="48.26465" lon="-3.57246">
        <ele>121</ele>
        <time>2024-09-07T11:04:02Z</time>
      </trkpt>
      <trkpt lat="48.26469" lon="-3.57241">
        <ele>121</ele>
        <time>2024-09-07T11:04:03Z</time>
      </trkpt>
      <trkpt lat="48.26472" lon="-3.57236">
        <ele>121</ele>
        <time>2024-09-07T11:04:04Z</time>
      </trkpt>
      <trkpt lat="48.26475" lon="-3.57231">
        <ele>121</ele>
        <time>2024-09-07T11:04:05Z</time>
      </trkpt>
      <trkpt lat="48.26478" lon="-3.57226">
        <ele>121</ele>
        <time>2024-09-07T11:04:06Z</time>
      </trkpt>
      <trkpt lat="48.26481" lon="-3.57221">
        <ele>121.2</ele>
        <time>2024-09-07T11:04:07Z</time>
      </trkpt>
      <trkpt lat="48.26484" lon="-3.57215">
        <ele>121.2</ele>
        <time>2024-09-07T11:04:08Z</time>
      </trkpt>
      <trkpt lat="48.26487" lon="-3.5721">
        <ele>121.2</ele>
        <time>2024-09-07T11:04:09Z</time>
      </trkpt>
      <trkpt lat="48.2649" lon="-3.57205">
        <ele>121.2</ele>
        <time>2024-09-07T11:04:10Z</time>
      </trkpt>
      <trkpt lat="48.26493" lon="-3.57199">
        <ele>121.4</ele>
        <time>2024-09-07T11:04:11Z</time>
      </trkpt>
      <trkpt lat="48.26495" lon="-3.57194">
        <ele>121.4</ele>
        <time>2024-09-07T11:04:12Z</time>
      </trkpt>
      <trkpt lat="48.26498" lon="-3.5719">
        <ele>121.4</ele>
        <time>2024-09-07T11:04:13Z</time>
      </trkpt>
      <trkpt lat="48.26501" lon="-3.57185">
        <ele>121.4</ele>
        <time>2024-09-07T11:04:14Z</time>
      </trkpt>
      <trkpt lat="48.26504" lon="-3.5718">
        <ele>121.6</ele>
        <time>2024-09-07T11:04:15Z</time>
      </trkpt>
      <trkpt lat="48.26507" lon="-3.57176">
        <ele>121.6</ele>
        <time>2024-09-07T11:04:16Z</time>
      </trkpt>
      <trkpt lat="48.26509" lon="-3.57172">
        <ele>121.8</ele>
        <time>2024-09-07T11:04:17Z</time>
      </trkpt>
      <trkpt lat="48.26512" lon="-3.57167">
        <ele>121.8</ele>
        <time>2024-09-07T11:04:18Z</time>
      </trkpt>
      <trkpt lat="48.26515" lon="-3.57161">
        <ele>121.8</ele>
        <time>2024-09-07T11:04:19Z</time>
      </trkpt>
      <trkpt lat="48.26519" lon="-3.57155">
        <ele>121.8</ele>
        <time>2024-09-07T11:04:20Z</time>
      </trkpt>
      <trkpt lat="48.26522" lon="-3.57148">
        <ele>121.8</ele>
        <time>2024-09-07T11:04:21Z</time>
      </trkpt>
      <trkpt lat="48.26525" lon="-3.57142">
        <ele>122</ele>
        <time>2024-09-07T11:04:22Z</time>
      </trkpt>
      <trkpt lat="48.26529" lon="-3.57134">
        <ele>122</ele>
        <time>2024-09-07T11:04:23Z</time>
      </trkpt>
      <trkpt lat="48.26531" lon="-3.57127">
        <ele>122</ele>
        <time>2024-09-07T11:04:24Z</time>
      </trkpt>
      <trkpt lat="48.26533" lon="-3.5712">
        <ele>122.2</ele>
        <time>2024-09-07T11:04:25Z</time>
      </trkpt>
      <trkpt lat="48.26535" lon="-3.57113">
        <ele>122.2</ele>
        <time>2024-09-07T11:04:26Z</time>
      </trkpt>
      <trkpt lat="48.26537" lon="-3.57106">
        <ele>122.2</ele>
        <time>2024-09-07T11:04:27Z</time>
      </trkpt>
      <trkpt lat="48.26538" lon="-3.571">
        <ele>122.4</ele>
        <time>2024-09-07T11:04:28Z</time>
      </trkpt>
      <trkpt lat="48.2654" lon="-3.57093">
        <ele>122.4</ele>
        <time>2024-09-07T11:04:29Z</time>
      </trkpt>
      <trkpt lat="48.26543" lon="-3.57086">
        <ele>122.4</ele>
        <time>2024-09-07T11:04:30Z</time>
      </trkpt>
      <trkpt lat="48.26545" lon="-3.57079">
        <ele>122.4</ele>
        <time>2024-09-07T11:04:31Z</time>
      </trkpt>
      <trkpt lat="48.26548" lon="-3.57072">
        <ele>122.6</ele>
        <time>2024-09-07T11:04:32Z</time>
      </trkpt>
      <trkpt lat="48.2655" lon="-3.57065">
        <ele>122.6</ele>
        <time>2024-09-07T11:04:33Z</time>
      </trkpt>
      <trkpt lat="48.26552" lon="-3.57057">
        <ele>122.6</ele>
        <time>2024-09-07T11:04:34Z</time>
      </trkpt>
      <trkpt lat="48.26554" lon="-3.5705">
        <ele>122.6</ele>
        <time>2024-09-07T11:04:35Z</time>
      </trkpt>
      <trkpt lat="48.26556" lon="-3.57042">
        <ele>122.8</ele>
        <time>2024-09-07T11:04:36Z</time>
      </trkpt>
      <trkpt lat="48.26558" lon="-3.57034">
        <ele>122.8</ele>
        <time>2024-09-07T11:04:37Z</time>
      </trkpt>
      <trkpt lat="48.2656" lon="-3.57027">
        <ele>123</ele>
        <time>2024-09-07T11:04:38Z</time>
      </trkpt>
      <trkpt lat="48.26562" lon="-3.57019">
        <ele>123</ele>
        <time>2024-09-07T11:04:39Z</time>
      </trkpt>
      <trkpt lat="48.26564" lon="-3.57011">
        <ele>123</ele>
        <time>2024-09-07T11:04:40Z</time>
      </trkpt>
      <trkpt lat="48.26567" lon="-3.57003">
        <ele>123</ele>
        <time>2024-09-07T11:04:41Z</time>
      </trkpt>
      <trkpt lat="48.26569" lon="-3.56994">
        <ele>123</ele>
        <time>2024-09-07T11:04:42Z</time>
      </trkpt>
      <trkpt lat="48.26572" lon="-3.56986">
        <ele>123</ele>
        <time>2024-09-07T11:04:43Z</time>
      </trkpt>
      <trkpt lat="48.26574" lon="-3.56978">
        <ele>123</ele>
        <time>2024-09-07T11:04:44Z</time>
      </trkpt>
      <trkpt lat="48.26577" lon="-3.56968">
        <ele>123.4</ele>
        <time>2024-09-07T11:04:45Z</time>
      </trkpt>
      <trkpt lat="48.2658" lon="-3.56959">
        <ele>123.2</ele>
        <time>2024-09-07T11:04:46Z</time>
      </trkpt>
      <trkpt lat="48.26583" lon="-3.56949">
        <ele>123.2</ele>
        <time>2024-09-07T11:04:47Z</time>
      </trkpt>
      <trkpt lat="48.26585" lon="-3.5694">
        <ele>123.2</ele>
        <time>2024-09-07T11:04:48Z</time>
      </trkpt>
      <trkpt lat="48.26588" lon="-3.5693">
        <ele>123.4</ele>
        <time>2024-09-07T11:04:49Z</time>
      </trkpt>
      <trkpt lat="48.2659" lon="-3.56922">
        <ele>123.4</ele>
        <time>2024-09-07T11:04:50Z</time>
      </trkpt>
      <trkpt lat="48.26593" lon="-3.56913">
        <ele>123.4</ele>
        <time>2024-09-07T11:04:51Z</time>
      </trkpt>
      <trkpt lat="48.26596" lon="-3.56904">
        <ele>123.4</ele>
        <time>2024-09-07T11:04:52Z</time>
      </trkpt>
      <trkpt lat="48.26598" lon="-3.56895">
        <ele>123.4</ele>
        <time>2024-09-07T11:04:53Z</time>
      </trkpt>
      <trkpt lat="48.266" lon="-3.56887">
        <ele>123.4</ele>
        <time>2024-09-07T11:04:54Z</time>
      </trkpt>
      <trkpt lat="48.26602" lon="-3.56878">
        <ele>123.4</ele>
        <time>2024-09-07T11:04:55Z</time>
      </trkpt>
      <trkpt lat="48.26604" lon="-3.5687">
        <ele>123.4</ele>
        <time>2024-09-07T11:04:56Z</time>
      </trkpt>
      <trkpt lat="48.26606" lon="-3.56861">
        <ele>123.4</ele>
        <time>2024-09-07T11:04:57Z</time>
      </trkpt>
      <trkpt lat="48.26608" lon="-3.56853">
        <ele>123.4</ele>
        <time>2024-09-07T11:04:58Z</time>
      </trkpt>
      <trkpt lat="48.2661" lon="-3.56845">
        <ele>123.4</ele>
        <time>2024-09-07T11:04:59Z</time>
      </trkpt>
      <trkpt lat="48.26612" lon="-3.56838">
        <ele>123.2</ele>
        <time>2024-09-07T11:05:00Z</time>
      </trkpt>
      <trkpt lat="48.26614" lon="-3.56831">
        <ele>123.2</ele>
        <time>2024-09-07T11:05:01Z</time>
      </trkpt>
      <trkpt lat="48.26616" lon="-3.56825">
        <ele>123.2</ele>
        <time>2024-09-07T11:05:02Z</time>
      </trkpt>
      <trkpt lat="48.26618" lon="-3.56818">
        <ele>123</ele>
        <time>2024-09-07T11:05:03Z</time>
      </trkpt>
      <trkpt lat="48.2662" lon="-3.56811">
        <ele>122.8</ele>
        <time>2024-09-07T11:05:04Z</time>
      </trkpt>
      <trkpt lat="48.26621" lon="-3.56804">
        <ele>122.8</ele>
        <time>2024-09-07T11:05:05Z</time>
      </trkpt>
      <trkpt lat="48.26623" lon="-3.56798">
        <ele>122.8</ele>
        <time>2024-09-07T11:05:06Z</time>
      </trkpt>
      <trkpt lat="48.26624" lon="-3.56792">
        <ele>122.8</ele>
        <time>2024-09-07T11:05:07Z</time>
      </trkpt>
      <trkpt lat="48.26625" lon="-3.56786">
        <ele>122.6</ele>
        <time>2024-09-07T11:05:08Z</time>
      </trkpt>
      <trkpt lat="48.26626" lon="-3.56781">
        <ele>122.4</ele>
        <time>2024-09-07T11:05:09Z</time>
      </trkpt>
      <trkpt lat="48.26627" lon="-3.56777">
        <ele>122.4</ele>
        <time>2024-09-07T11:05:10Z</time>
      </trkpt>
      <trkpt lat="48.26628" lon="-3.56773">
        <ele>122.2</ele>
        <time>2024-09-07T11:05:11Z</time>
      </trkpt>
      <trkpt lat="48.26628" lon="-3.5677">
        <ele>122</ele>
        <time>2024-09-07T11:05:12Z</time>
      </trkpt>
      <trkpt lat="48.26629" lon="-3.56767">
        <ele>122</ele>
        <time>2024-09-07T11:05:13Z</time>
      </trkpt>
      <trkpt lat="48.26629" lon="-3.56765">
        <ele>122</ele>
        <time>2024-09-07T11:05:14Z</time>
      </trkpt>
      <trkpt lat="48.26631" lon="-3.56761">
        <ele>121.8</ele>
        <time>2024-09-07T11:05:15Z</time>
      </trkpt>
      <trkpt lat="48.26632" lon="-3.56757">
        <ele>121.8</ele>
        <time>2024-09-07T11:05:16Z</time>
      </trkpt>
      <trkpt lat="48.26633" lon="-3.56753">
        <ele>121.8</ele>
        <time>2024-09-07T11:05:17Z</time>
      </trkpt>
      <trkpt lat="48.26635" lon="-3.56748">
        <ele>121.8</ele>
        <time>2024-09-07T11:05:18Z</time>
      </trkpt>
      <trkpt lat="48.26636" lon="-3.56744">
        <ele>121.6</ele>
        <time>2024-09-07T11:05:19Z</time>
      </trkpt>
      <trkpt lat="48.26637" lon="-3.5674">
        <ele>121.6</ele>
        <time>2024-09-07T11:05:20Z</time>
      </trkpt>
      <trkpt lat="48.26638" lon="-3.56737">
        <ele>121.4</ele>
        <time>2024-09-07T11:05:21Z</time>
      </trkpt>
      <trkpt lat="48.26639" lon="-3.56733">
        <ele>121.4</ele>
        <time>2024-09-07T11:05:22Z</time>
      </trkpt>
      <trkpt lat="48.2664" lon="-3.56731">
        <ele>121.4</ele>
        <time>2024-09-07T11:05:23Z</time>
      </trkpt>
      <trkpt lat="48.2664" lon="-3.56729">
        <ele>121.4</ele>
        <time>2024-09-07T11:05:24Z</time>
      </trkpt>
      <trkpt lat="48.2664" lon="-3.56729">
        <ele>121.2</ele>
        <time>2024-09-07T11:05:25Z</time>
      </trkpt>
      <trkpt lat="48.2664" lon="-3.56729">
        <ele>121.2</ele>
        <time>2024-09-07T11:05:26Z</time>
      </trkpt>
      <trkpt lat="48.26639" lon="-3.5673">
        <ele>120.2</ele>
        <time>2024-09-07T11:08:30Z</time>
      </trkpt>
      <trkpt lat="48.26639" lon="-3.56727">
        <ele>120.2</ele>
        <time>2024-09-07T11:08:31Z</time>
      </trkpt>
      <trkpt lat="48.2664" lon="-3.56724">
        <ele>120.2</ele>
        <time>2024-09-07T11:08:32Z</time>
      </trkpt>
      <trkpt lat="48.26641" lon="-3.5672">
        <ele>120.2</ele>
        <time>2024-09-07T11:08:33Z</time>
      </trkpt>
      <trkpt lat="48.26642" lon="-3.56716">
        <ele>120.2</ele>
        <time>2024-09-07T11:08:34Z</time>
      </trkpt>
      <trkpt lat="48.26643" lon="-3.56711">
        <ele>120.2</ele>
        <time>2024-09-07T11:08:35Z</time>
      </trkpt>
      <trkpt lat="48.26645" lon="-3.56706">
        <ele>120.2</ele>
        <time>2024-09-07T11:08:36Z</time>
      </trkpt>
      <trkpt lat="48.26646" lon="-3.56701">
        <ele>120.2</ele>
        <time>2024-09-07T11:08:37Z</time>
      </trkpt>
      <trkpt lat="48.26647" lon="-3.56696">
        <ele>120.2</ele>
        <time>2024-09-07T11:08:38Z</time>
      </trkpt>
      <trkpt lat="48.26649" lon="-3.56689">
        <ele>120</ele>
        <time>2024-09-07T11:08:39Z</time>
      </trkpt>
      <trkpt lat="48.2665" lon="-3.56684">
        <ele>120</ele>
        <time>2024-09-07T11:08:40Z</time>
      </trkpt>
      <trkpt lat="48.26651" lon="-3.56679">
        <ele>120</ele>
        <time>2024-09-07T11:08:41Z</time>
      </trkpt>
      <trkpt lat="48.26653" lon="-3.56673">
        <ele>120.2</ele>
        <time>2024-09-07T11:08:42Z</time>
      </trkpt>
      <trkpt lat="48.26655" lon="-3.56667">
        <ele>120.2</ele>
        <time>2024-09-07T11:08:43Z</time>
      </trkpt>
      <trkpt lat="48.26656" lon="-3.56661">
        <ele>120</ele>
        <time>2024-09-07T11:08:44Z</time>
      </trkpt>
      <trkpt lat="48.26658" lon="-3.56653">
        <ele>120</ele>
        <time>2024-09-07T11:08:45Z</time>
      </trkpt>
      <trkpt lat="48.26659" lon="-3.56649">
        <ele>120</ele>
        <time>2024-09-07T11:08:46Z</time>
      </trkpt>
      <trkpt lat="48.26661" lon="-3.56643">
        <ele>120</ele>
        <time>2024-09-07T11:08:47Z</time>
      </trkpt>
      <trkpt lat="48.26663" lon="-3.56636">
        <ele>120</ele>
        <time>2024-09-07T11:08:48Z</time>
      </trkpt>
      <trkpt lat="48.26665" lon="-3.5663">
        <ele>120</ele>
        <time>2024-09-07T11:08:49Z</time>
      </trkpt>
      <trkpt lat="48.26666" lon="-3.56623">
        <ele>119.8</ele>
        <time>2024-09-07T11:08:50Z</time>
      </trkpt>
      <trkpt lat="48.26668" lon="-3.56616">
        <ele>119.8</ele>
        <time>2024-09-07T11:08:51Z</time>
      </trkpt>
      <trkpt lat="48.2667" lon="-3.5661">
        <ele>119.4</ele>
        <time>2024-09-07T11:08:52Z</time>
      </trkpt>
      <trkpt lat="48.26671" lon="-3.56603">
        <ele>119.2</ele>
        <time>2024-09-07T11:08:53Z</time>
      </trkpt>
      <trkpt lat="48.26673" lon="-3.56596">
        <ele>119</ele>
        <time>2024-09-07T11:08:54Z</time>
      </trkpt>
      <trkpt lat="48.26675" lon="-3.56589">
        <ele>118.8</ele>
        <time>2024-09-07T11:08:55Z</time>
      </trkpt>
      <trkpt lat="48.26676" lon="-3.56583">
        <ele>118.8</ele>
        <time>2024-09-07T11:08:56Z</time>
      </trkpt>
      <trkpt lat="48.26678" lon="-3.56576">
        <ele>118.6</ele>
        <time>2024-09-07T11:08:57Z</time>
      </trkpt>
      <trkpt lat="48.2668" lon="-3.56569">
        <ele>118.4</ele>
        <time>2024-09-07T11:08:58Z</time>
      </trkpt>
      <trkpt lat="48.26683" lon="-3.56563">
        <ele>118.4</ele>
        <time>2024-09-07T11:08:59Z</time>
      </trkpt>
      <trkpt lat="48.26685" lon="-3.56556">
        <ele>118.2</ele>
        <time>2024-09-07T11:09:00Z</time>
      </trkpt>
      <trkpt lat="48.26688" lon="-3.56549">
        <ele>118.2</ele>
        <time>2024-09-07T11:09:01Z</time>
      </trkpt>
      <trkpt lat="48.26691" lon="-3.56542">
        <ele>118.2</ele>
        <time>2024-09-07T11:09:02Z</time>
      </trkpt>
      <trkpt lat="48.26695" lon="-3.56534">
        <ele>118</ele>
        <time>2024-09-07T11:09:03Z</time>
      </trkpt>
      <trkpt lat="48.26698" lon="-3.56529">
        <ele>118</ele>
        <time>2024-09-07T11:09:04Z</time>
      </trkpt>
      <trkpt lat="48.26701" lon="-3.56522">
        <ele>117.8</ele>
        <time>2024-09-07T11:09:05Z</time>
      </trkpt>
      <trkpt lat="48.26705" lon="-3.56515">
        <ele>117.8</ele>
        <time>2024-09-07T11:09:06Z</time>
      </trkpt>
      <trkpt lat="48.26709" lon="-3.56508">
        <ele>117.8</ele>
        <time>2024-09-07T11:09:07Z</time>
      </trkpt>
      <trkpt lat="48.26713" lon="-3.56501">
        <ele>117.8</ele>
        <time>2024-09-07T11:09:08Z</time>
      </trkpt>
      <trkpt lat="48.26718" lon="-3.56493">
        <ele>117.8</ele>
        <time>2024-09-07T11:09:09Z</time>
      </trkpt>
      <trkpt lat="48.26722" lon="-3.56487">
        <ele>117.6</ele>
        <time>2024-09-07T11:09:10Z</time>
      </trkpt>
      <trkpt lat="48.26726" lon="-3.56481">
        <ele>117.6</ele>
        <time>2024-09-07T11:09:11Z</time>
      </trkpt>
      <trkpt lat="48.2673" lon="-3.56475">
        <ele>117.4</ele>
        <time>2024-09-07T11:09:12Z</time>
      </trkpt>
      <trkpt lat="48.26734" lon="-3.56469">
        <ele>117.4</ele>
        <time>2024-09-07T11:09:13Z</time>
      </trkpt>
      <trkpt lat="48.26739" lon="-3.56462">
        <ele>117.2</ele>
        <time>2024-09-07T11:09:14Z</time>
      </trkpt>
      <trkpt lat="48.26744" lon="-3.56454">
        <ele>117.2</ele>
        <time>2024-09-07T11:09:15Z</time>
      </trkpt>
      <trkpt lat="48.26748" lon="-3.56449">
        <ele>117</ele>
        <time>2024-09-07T11:09:16Z</time>
      </trkpt>
      <trkpt lat="48.26753" lon="-3.56443">
        <ele>117</ele>
        <time>2024-09-07T11:09:17Z</time>
      </trkpt>
      <trkpt lat="48.26758" lon="-3.56437">
        <ele>117</ele>
        <time>2024-09-07T11:09:18Z</time>
      </trkpt>
      <trkpt lat="48.26762" lon="-3.56432">
        <ele>117</ele>
        <time>2024-09-07T11:09:19Z</time>
      </trkpt>
      <trkpt lat="48.26766" lon="-3.56427">
        <ele>117</ele>
        <time>2024-09-07T11:09:20Z</time>
      </trkpt>
      <trkpt lat="48.26772" lon="-3.56421">
        <ele>117</ele>
        <time>2024-09-07T11:09:21Z</time>
      </trkpt>
      <trkpt lat="48.26776" lon="-3.56417">
        <ele>117</ele>
        <time>2024-09-07T11:09:22Z</time>
      </trkpt>
      <trkpt lat="48.26781" lon="-3.56413">
        <ele>117</ele>
        <time>2024-09-07T11:09:23Z</time>
      </trkpt>
      <trkpt lat="48.26787" lon="-3.56406">
        <ele>116.8</ele>
        <time>2024-09-07T11:09:24Z</time>
      </trkpt>
      <trkpt lat="48.26792" lon="-3.564">
        <ele>116.8</ele>
        <time>2024-09-07T11:09:25Z</time>
      </trkpt>
      <trkpt lat="48.26797" lon="-3.56395">
        <ele>116.8</ele>
        <time>2024-09-07T11:09:26Z</time>
      </trkpt>
      <trkpt lat="48.26803" lon="-3.5639">
        <ele>116.8</ele>
        <time>2024-09-07T11:09:27Z</time>
      </trkpt>
      <trkpt lat="48.26808" lon="-3.56388">
        <ele>116.8</ele>
        <time>2024-09-07T11:09:28Z</time>
      </trkpt>
      <trkpt lat="48.26813" lon="-3.56385">
        <ele>116.8</ele>
        <time>2024-09-07T11:09:29Z</time>
      </trkpt>
      <trkpt lat="48.26819" lon="-3.56382">
        <ele>116.8</ele>
        <time>2024-09-07T11:09:30Z</time>
      </trkpt>
      <trkpt lat="48.26825" lon="-3.56381">
        <ele>116.8</ele>
        <time>2024-09-07T11:09:31Z</time>
      </trkpt>
      <trkpt lat="48.2683" lon="-3.56379">
        <ele>116.8</ele>
        <time>2024-09-07T11:09:32Z</time>
      </trkpt>
      <trkpt lat="48.26836" lon="-3.56376">
        <ele>116.8</ele>
        <time>2024-09-07T11:09:33Z</time>
      </trkpt>
      <trkpt lat="48.26842" lon="-3.56372">
        <ele>116.8</ele>
        <time>2024-09-07T11:09:34Z</time>
      </trkpt>
      <trkpt lat="48.26847" lon="-3.56368">
        <ele>116.8</ele>
        <time>2024-09-07T11:09:35Z</time>
      </trkpt>
      <trkpt lat="48.26852" lon="-3.56365">
        <ele>116.8</ele>
        <time>2024-09-07T11:09:36Z</time>
      </trkpt>
      <trkpt lat="48.26858" lon="-3.56362">
        <ele>116.8</ele>
        <time>2024-09-07T11:09:37Z</time>
      </trkpt>
      <trkpt lat="48.26863" lon="-3.56358">
        <ele>116.8</ele>
        <time>2024-09-07T11:09:38Z</time>
      </trkpt>
      <trkpt lat="48.26869" lon="-3.56355">
        <ele>116.8</ele>
        <time>2024-09-07T11:09:39Z</time>
      </trkpt>
      <trkpt lat="48.26873" lon="-3.56352">
        <ele>116.8</ele>
        <time>2024-09-07T11:09:40Z</time>
      </trkpt>
      <trkpt lat="48.26878" lon="-3.5635">
        <ele>116.8</ele>
        <time>2024-09-07T11:09:41Z</time>
      </trkpt>
      <trkpt lat="48.26884" lon="-3.56346">
        <ele>116.8</ele>
        <time>2024-09-07T11:09:42Z</time>
      </trkpt>
      <trkpt lat="48.26889" lon="-3.56342">
        <ele>116.6</ele>
        <time>2024-09-07T11:09:43Z</time>
      </trkpt>
      <trkpt lat="48.26895" lon="-3.56338">
        <ele>116.6</ele>
        <time>2024-09-07T11:09:44Z</time>
      </trkpt>
      <trkpt lat="48.26902" lon="-3.56333">
        <ele>116.6</ele>
        <time>2024-09-07T11:09:45Z</time>
      </trkpt>
      <trkpt lat="48.26907" lon="-3.56331">
        <ele>116.6</ele>
        <time>2024-09-07T11:09:46Z</time>
      </trkpt>
      <trkpt lat="48.26913" lon="-3.56328">
        <ele>116.4</ele>
        <time>2024-09-07T11:09:47Z</time>
      </trkpt>
      <trkpt lat="48.26919" lon="-3.56325">
        <ele>116.4</ele>
        <time>2024-09-07T11:09:48Z</time>
      </trkpt>
      <trkpt lat="48.26925" lon="-3.56322">
        <ele>116.4</ele>
        <time>2024-09-07T11:09:49Z</time>
      </trkpt>
      <trkpt lat="48.26931" lon="-3.56319">
        <ele>116.4</ele>
        <time>2024-09-07T11:09:50Z</time>
      </trkpt>
      <trkpt lat="48.26937" lon="-3.56314">
        <ele>116.2</ele>
        <time>2024-09-07T11:09:51Z</time>
      </trkpt>
      <trkpt lat="48.26942" lon="-3.56311">
        <ele>116.2</ele>
        <time>2024-09-07T11:09:52Z</time>
      </trkpt>
      <trkpt lat="48.26948" lon="-3.56309">
        <ele>116</ele>
        <time>2024-09-07T11:09:53Z</time>
      </trkpt>
      <trkpt lat="48.26955" lon="-3.56307">
        <ele>116</ele>
        <time>2024-09-07T11:09:54Z</time>
      </trkpt>
      <trkpt lat="48.26961" lon="-3.56302">
        <ele>116</ele>
        <time>2024-09-07T11:09:55Z</time>
      </trkpt>
      <trkpt lat="48.26967" lon="-3.56297">
        <ele>115.8</ele>
        <time>2024-09-07T11:09:56Z</time>
      </trkpt>
      <trkpt lat="48.26974" lon="-3.56293">
        <ele>115.8</ele>
        <time>2024-09-07T11:09:57Z</time>
      </trkpt>
      <trkpt lat="48.2698" lon="-3.56289">
        <ele>115.6</ele>
        <time>2024-09-07T11:09:58Z</time>
      </trkpt>
      <trkpt lat="48.26986" lon="-3.56284">
        <ele>115.6</ele>
        <time>2024-09-07T11:09:59Z</time>
      </trkpt>
      <trkpt lat="48.2699" lon="-3.56281">
        <ele>115.4</ele>
        <time>2024-09-07T11:10:00Z</time>
      </trkpt>
      <trkpt lat="48.26997" lon="-3.56278">
        <ele>115.4</ele>
        <time>2024-09-07T11:10:01Z</time>
      </trkpt>
      <trkpt lat="48.27002" lon="-3.56276">
        <ele>115.4</ele>
        <time>2024-09-07T11:10:02Z</time>
      </trkpt>
      <trkpt lat="48.27007" lon="-3.56273">
        <ele>115.2</ele>
        <time>2024-09-07T11:10:03Z</time>
      </trkpt>
      <trkpt lat="48.27012" lon="-3.56272">
        <ele>115.2</ele>
        <time>2024-09-07T11:10:04Z</time>
      </trkpt>
      <trkpt lat="48.27017" lon="-3.56269">
        <ele>115</ele>
        <time>2024-09-07T11:10:05Z</time>
      </trkpt>
      <trkpt lat="48.27021" lon="-3.56266">
        <ele>115</ele>
        <time>2024-09-07T11:10:06Z</time>
      </trkpt>
      <trkpt lat="48.27027" lon="-3.56262">
        <ele>114.8</ele>
        <time>2024-09-07T11:10:07Z</time>
      </trkpt>
      <trkpt lat="48.27032" lon="-3.5626">
        <ele>114.8</ele>
        <time>2024-09-07T11:10:08Z</time>
      </trkpt>
      <trkpt lat="48.27035" lon="-3.56257">
        <ele>114.8</ele>
        <time>2024-09-07T11:10:09Z</time>
      </trkpt>
      <trkpt lat="48.27037" lon="-3.56255">
        <ele>114.8</ele>
        <time>2024-09-07T11:10:10Z</time>
      </trkpt>
      <trkpt lat="48.27039" lon="-3.56253">
        <ele>114.6</ele>
        <time>2024-09-07T11:10:11Z</time>
      </trkpt>
      <trkpt lat="48.27039" lon="-3.56253">
        <ele>114.6</ele>
        <time>2024-09-07T11:10:12Z</time>
      </trkpt>
      <trkpt lat="48.27039" lon="-3.56253">
        <ele>114.4</ele>
        <time>2024-09-07T11:10:13Z</time>
      </trkpt>
      <trkpt lat="48.27048" lon="-3.56251">
        <ele>113.8</ele>
        <time>2024-09-07T11:10:34Z</time>
      </trkpt>
      <trkpt lat="48.27049" lon="-3.56251">
        <ele>113.8</ele>
        <time>2024-09-07T11:10:35Z</time>
      </trkpt>
      <trkpt lat="48.27051" lon="-3.56249">
        <ele>113.8</ele>
        <time>2024-09-07T11:10:36Z</time>
      </trkpt>
      <trkpt lat="48.27054" lon="-3.56246">
        <ele>113.8</ele>
        <time>2024-09-07T11:10:37Z</time>
      </trkpt>
      <trkpt lat="48.27056" lon="-3.56244">
        <ele>113.8</ele>
        <time>2024-09-07T11:10:38Z</time>
      </trkpt>
      <trkpt lat="48.27058" lon="-3.56243">
        <ele>113.8</ele>
        <time>2024-09-07T11:10:39Z</time>
      </trkpt>
      <trkpt lat="48.27061" lon="-3.56241">
        <ele>113.8</ele>
        <time>2024-09-07T11:10:40Z</time>
      </trkpt>
      <trkpt lat="48.27064" lon="-3.56239">
        <ele>113.8</ele>
        <time>2024-09-07T11:10:41Z</time>
      </trkpt>
      <trkpt lat="48.27068" lon="-3.56237">
        <ele>113.8</ele>
        <time>2024-09-07T11:10:42Z</time>
      </trkpt>
      <trkpt lat="48.27072" lon="-3.56234">
        <ele>113.8</ele>
        <time>2024-09-07T11:10:43Z</time>
      </trkpt>
      <trkpt lat="48.27076" lon="-3.56232">
        <ele>113.8</ele>
        <time>2024-09-07T11:10:44Z</time>
      </trkpt>
      <trkpt lat="48.2708" lon="-3.56229">
        <ele>113.8</ele>
        <time>2024-09-07T11:10:45Z</time>
      </trkpt>
      <trkpt lat="48.27084" lon="-3.56226">
        <ele>113.8</ele>
        <time>2024-09-07T11:10:46Z</time>
      </trkpt>
      <trkpt lat="48.27089" lon="-3.56224">
        <ele>113.8</ele>
        <time>2024-09-07T11:10:47Z</time>
      </trkpt>
      <trkpt lat="48.27093" lon="-3.56222">
        <ele>113.8</ele>
        <time>2024-09-07T11:10:48Z</time>
      </trkpt>
      <trkpt lat="48.27097" lon="-3.5622">
        <ele>113.8</ele>
        <time>2024-09-07T11:10:49Z</time>
      </trkpt>
      <trkpt lat="48.27101" lon="-3.56218">
        <ele>113.8</ele>
        <time>2024-09-07T11:10:50Z</time>
      </trkpt>
      <trkpt lat="48.27104" lon="-3.56217">
        <ele>113.8</ele>
        <time>2024-09-07T11:10:51Z</time>
      </trkpt>
      <trkpt lat="48.27107" lon="-3.56215">
        <ele>113.8</ele>
        <time>2024-09-07T11:10:52Z</time>
      </trkpt>
      <trkpt lat="48.27109" lon="-3.56213">
        <ele>113.8</ele>
        <time>2024-09-07T11:10:53Z</time>
      </trkpt>
      <trkpt lat="48.27112" lon="-3.56211">
        <ele>113.8</ele>
        <time>2024-09-07T11:10:54Z</time>
      </trkpt>
      <trkpt lat="48.27115" lon="-3.56209">
        <ele>113.8</ele>
        <time>2024-09-07T11:10:55Z</time>
      </trkpt>
      <trkpt lat="48.27117" lon="-3.56208">
        <ele>113.8</ele>
        <time>2024-09-07T11:10:56Z</time>
      </trkpt>
      <trkpt lat="48.27119" lon="-3.56207">
        <ele>113.8</ele>
        <time>2024-09-07T11:10:57Z</time>
      </trkpt>
      <trkpt lat="48.27122" lon="-3.56205">
        <ele>113.8</ele>
        <time>2024-09-07T11:10:58Z</time>
      </trkpt>
      <trkpt lat="48.27124" lon="-3.56203">
        <ele>113.8</ele>
        <time>2024-09-07T11:10:59Z</time>
      </trkpt>
      <trkpt lat="48.27127" lon="-3.56202">
        <ele>113.8</ele>
        <time>2024-09-07T11:11:00Z</time>
      </trkpt>
      <trkpt lat="48.2713" lon="-3.562">
        <ele>113.8</ele>
        <time>2024-09-07T11:11:01Z</time>
      </trkpt>
      <trkpt lat="48.27133" lon="-3.56198">
        <ele>113.8</ele>
        <time>2024-09-07T11:11:02Z</time>
      </trkpt>
      <trkpt lat="48.27135" lon="-3.56196">
        <ele>113.8</ele>
        <time>2024-09-07T11:11:03Z</time>
      </trkpt>
      <trkpt lat="48.27138" lon="-3.56194">
        <ele>113.8</ele>
        <time>2024-09-07T11:11:04Z</time>
      </trkpt>
      <trkpt lat="48.27141" lon="-3.56193">
        <ele>113.8</ele>
        <time>2024-09-07T11:11:05Z</time>
      </trkpt>
      <trkpt lat="48.27144" lon="-3.56191">
        <ele>113.8</ele>
        <time>2024-09-07T11:11:06Z</time>
      </trkpt>
      <trkpt lat="48.27147" lon="-3.5619">
        <ele>113.8</ele>
        <time>2024-09-07T11:11:07Z</time>
      </trkpt>
      <trkpt lat="48.2715" lon="-3.56188">
        <ele>113.8</ele>
        <time>2024-09-07T11:11:08Z</time>
      </trkpt>
      <trkpt lat="48.27153" lon="-3.56187">
        <ele>114</ele>
        <time>2024-09-07T11:11:09Z</time>
      </trkpt>
      <trkpt lat="48.27156" lon="-3.56186">
        <ele>114</ele>
        <time>2024-09-07T11:11:10Z</time>
      </trkpt>
      <trkpt lat="48.2716" lon="-3.56184">
        <ele>114</ele>
        <time>2024-09-07T11:11:11Z</time>
      </trkpt>
      <trkpt lat="48.27163" lon="-3.56183">
        <ele>114</ele>
        <time>2024-09-07T11:11:12Z</time>
      </trkpt>
      <trkpt lat="48.27167" lon="-3.56181">
        <ele>114</ele>
        <time>2024-09-07T11:11:13Z</time>
      </trkpt>
      <trkpt lat="48.27171" lon="-3.5618">
        <ele>114</ele>
        <time>2024-09-07T11:11:14Z</time>
      </trkpt>
      <trkpt lat="48.27175" lon="-3.56178">
        <ele>114</ele>
        <time>2024-09-07T11:11:15Z</time>
      </trkpt>
      <trkpt lat="48.27179" lon="-3.56176">
        <ele>114.2</ele>
        <time>2024-09-07T11:11:16Z</time>
      </trkpt>
      <trkpt lat="48.27182" lon="-3.56175">
        <ele>114.2</ele>
        <time>2024-09-07T11:11:17Z</time>
      </trkpt>
      <trkpt lat="48.27185" lon="-3.56175">
        <ele>114.2</ele>
        <time>2024-09-07T11:11:18Z</time>
      </trkpt>
      <trkpt lat="48.27189" lon="-3.56174">
        <ele>114.2</ele>
        <time>2024-09-07T11:11:19Z</time>
      </trkpt>
      <trkpt lat="48.27193" lon="-3.56174">
        <ele>114.4</ele>
        <time>2024-09-07T11:11:20Z</time>
      </trkpt>
      <trkpt lat="48.27197" lon="-3.56173">
        <ele>114.4</ele>
        <time>2024-09-07T11:11:21Z</time>
      </trkpt>
      <trkpt lat="48.27201" lon="-3.56174">
        <ele>114.6</ele>
        <time>2024-09-07T11:11:22Z</time>
      </trkpt>
      <trkpt lat="48.27205" lon="-3.56173">
        <ele>114.6</ele>
        <time>2024-09-07T11:11:23Z</time>
      </trkpt>
      <trkpt lat="48.27209" lon="-3.56173">
        <ele>114.6</ele>
        <time>2024-09-07T11:11:24Z</time>
      </trkpt>
      <trkpt lat="48.27212" lon="-3.56173">
        <ele>114.8</ele>
        <time>2024-09-07T11:11:25Z</time>
      </trkpt>
      <trkpt lat="48.27216" lon="-3.56173">
        <ele>114.8</ele>
        <time>2024-09-07T11:11:26Z</time>
      </trkpt>
      <trkpt lat="48.27219" lon="-3.56174">
        <ele>115</ele>
        <time>2024-09-07T11:11:27Z</time>
      </trkpt>
      <trkpt lat="48.27222" lon="-3.56174">
        <ele>115.2</ele>
        <time>2024-09-07T11:11:28Z</time>
      </trkpt>
      <trkpt lat="48.27225" lon="-3.56174">
        <ele>115.2</ele>
        <time>2024-09-07T11:11:29Z</time>
      </trkpt>
      <trkpt lat="48.27228" lon="-3.56174">
        <ele>115.2</ele>
        <time>2024-09-07T11:11:30Z</time>
      </trkpt>
      <trkpt lat="48.27231" lon="-3.56174">
        <ele>115.2</ele>
        <time>2024-09-07T11:11:31Z</time>
      </trkpt>
      <trkpt lat="48.27233" lon="-3.56174">
        <ele>115.4</ele>
        <time>2024-09-07T11:11:32Z</time>
      </trkpt>
      <trkpt lat="48.27235" lon="-3.56174">
        <ele>115.4</ele>
        <time>2024-09-07T11:11:33Z</time>
      </trkpt>
      <trkpt lat="48.27237" lon="-3.56174">
        <ele>115.6</ele>
        <time>2024-09-07T11:11:34Z</time>
      </trkpt>
      <trkpt lat="48.27239" lon="-3.56174">
        <ele>115.6</ele>
        <time>2024-09-07T11:11:35Z</time>
      </trkpt>
      <trkpt lat="48.27242" lon="-3.56176">
        <ele>115.6</ele>
        <time>2024-09-07T11:11:36Z</time>
      </trkpt>
      <trkpt lat="48.27243" lon="-3.56175">
        <ele>115.8</ele>
        <time>2024-09-07T11:11:37Z</time>
      </trkpt>
      <trkpt lat="48.27245" lon="-3.56175">
        <ele>115.8</ele>
        <time>2024-09-07T11:11:38Z</time>
      </trkpt>
      <trkpt lat="48.27245" lon="-3.56176">
        <ele>115.8</ele>
        <time>2024-09-07T11:11:39Z</time>
      </trkpt>
      <trkpt lat="48.27245" lon="-3.56176">
        <ele>115.8</ele>
        <time>2024-09-07T11:11:40Z</time>
      </trkpt>
      <trkpt lat="48.27252" lon="-3.56173">
        <ele>116</ele>
        <time>2024-09-07T11:12:09Z</time>
      </trkpt>
      <trkpt lat="48.27254" lon="-3.56173">
        <ele>116</ele>
        <time>2024-09-07T11:12:10Z</time>
      </trkpt>
      <trkpt lat="48.27256" lon="-3.56173">
        <ele>116</ele>
        <time>2024-09-07T11:12:11Z</time>
      </trkpt>
      <trkpt lat="48.27258" lon="-3.56172">
        <ele>116</ele>
        <time>2024-09-07T11:12:12Z</time>
      </trkpt>
      <trkpt lat="48.2726" lon="-3.56172">
        <ele>116</ele>
        <time>2024-09-07T11:12:13Z</time>
      </trkpt>
      <trkpt lat="48.27262" lon="-3.56171">
        <ele>116</ele>
        <time>2024-09-07T11:12:14Z</time>
      </trkpt>
      <trkpt lat="48.27265" lon="-3.56169">
        <ele>116.4</ele>
        <time>2024-09-07T11:12:15Z</time>
      </trkpt>
      <trkpt lat="48.27267" lon="-3.56168">
        <ele>116.4</ele>
        <time>2024-09-07T11:12:16Z</time>
      </trkpt>
      <trkpt lat="48.27269" lon="-3.56166">
        <ele>116.4</ele>
        <time>2024-09-07T11:12:17Z</time>
      </trkpt>
      <trkpt lat="48.27272" lon="-3.56164">
        <ele>116.4</ele>
        <time>2024-09-07T11:12:18Z</time>
      </trkpt>
      <trkpt lat="48.27274" lon="-3.56163">
        <ele>116.4</ele>
        <time>2024-09-07T11:12:19Z</time>
      </trkpt>
      <trkpt lat="48.27276" lon="-3.56162">
        <ele>116.4</ele>
        <time>2024-09-07T11:12:20Z</time>
      </trkpt>
      <trkpt lat="48.27278" lon="-3.56161">
        <ele>116.4</ele>
        <time>2024-09-07T11:12:21Z</time>
      </trkpt>
      <trkpt lat="48.27281" lon="-3.56162">
        <ele>116.6</ele>
        <time>2024-09-07T11:12:22Z</time>
      </trkpt>
      <trkpt lat="48.27284" lon="-3.56162">
        <ele>116.6</ele>
        <time>2024-09-07T11:12:23Z</time>
      </trkpt>
      <trkpt lat="48.27287" lon="-3.56164">
        <ele>117</ele>
        <time>2024-09-07T11:12:24Z</time>
      </trkpt>
      <trkpt lat="48.2729" lon="-3.56166">
        <ele>117</ele>
        <time>2024-09-07T11:12:25Z</time>
      </trkpt>
      <trkpt lat="48.27294" lon="-3.56168">
        <ele>117.2</ele>
        <time>2024-09-07T11:12:26Z</time>
      </trkpt>
      <trkpt lat="48.27298" lon="-3.5617">
        <ele>117.4</ele>
        <time>2024-09-07T11:12:27Z</time>
      </trkpt>
      <trkpt lat="48.27301" lon="-3.56171">
        <ele>117.6</ele>
        <time>2024-09-07T11:12:28Z</time>
      </trkpt>
      <trkpt lat="48.27305" lon="-3.56172">
        <ele>117.8</ele>
        <time>2024-09-07T11:12:29Z</time>
      </trkpt>
      <trkpt lat="48.27308" lon="-3.56174">
        <ele>118</ele>
        <time>2024-09-07T11:12:30Z</time>
      </trkpt>
      <trkpt lat="48.27311" lon="-3.56176">
        <ele>118.2</ele>
        <time>2024-09-07T11:12:31Z</time>
      </trkpt>
      <trkpt lat="48.27315" lon="-3.56178">
        <ele>118.4</ele>
        <time>2024-09-07T11:12:32Z</time>
      </trkpt>
      <trkpt lat="48.27319" lon="-3.56181">
        <ele>118.8</ele>
        <time>2024-09-07T11:12:33Z</time>
      </trkpt>
      <trkpt lat="48.27322" lon="-3.56183">
        <ele>118.8</ele>
        <time>2024-09-07T11:12:34Z</time>
      </trkpt>
      <trkpt lat="48.27325" lon="-3.56187">
        <ele>119</ele>
        <time>2024-09-07T11:12:35Z</time>
      </trkpt>
      <trkpt lat="48.27328" lon="-3.56191">
        <ele>119.2</ele>
        <time>2024-09-07T11:12:36Z</time>
      </trkpt>
      <trkpt lat="48.27331" lon="-3.56194">
        <ele>119.2</ele>
        <time>2024-09-07T11:12:37Z</time>
      </trkpt>
      <trkpt lat="48.27334" lon="-3.56198">
        <ele>119.2</ele>
        <time>2024-09-07T11:12:38Z</time>
      </trkpt>
      <trkpt lat="48.27337" lon="-3.56201">
        <ele>119.2</ele>
        <time>2024-09-07T11:12:39Z</time>
      </trkpt>
      <trkpt lat="48.2734" lon="-3.56202">
        <ele>119.4</ele>
        <time>2024-09-07T11:12:40Z</time>
      </trkpt>
      <trkpt lat="48.27343" lon="-3.56204">
        <ele>119.4</ele>
        <time>2024-09-07T11:12:41Z</time>
      </trkpt>
      <trkpt lat="48.27346" lon="-3.56206">
        <ele>119.4</ele>
        <time>2024-09-07T11:12:42Z</time>
      </trkpt>
      <trkpt lat="48.2735" lon="-3.56208">
        <ele>119.4</ele>
        <time>2024-09-07T11:12:43Z</time>
      </trkpt>
      <trkpt lat="48.27353" lon="-3.5621">
        <ele>119.4</ele>
        <time>2024-09-07T11:12:44Z</time>
      </trkpt>
      <trkpt lat="48.27356" lon="-3.56212">
        <ele>119.4</ele>
        <time>2024-09-07T11:12:45Z</time>
      </trkpt>
      <trkpt lat="48.27358" lon="-3.56214">
        <ele>119.4</ele>
        <time>2024-09-07T11:12:46Z</time>
      </trkpt>
      <trkpt lat="48.27361" lon="-3.56216">
        <ele>119.4</ele>
        <time>2024-09-07T11:12:47Z</time>
      </trkpt>
      <trkpt lat="48.27363" lon="-3.56218">
        <ele>119.4</ele>
        <time>2024-09-07T11:12:48Z</time>
      </trkpt>
      <trkpt lat="48.27365" lon="-3.5622">
        <ele>119.4</ele>
        <time>2024-09-07T11:12:49Z</time>
      </trkpt>
      <trkpt lat="48.27366" lon="-3.56223">
        <ele>119.4</ele>
        <time>2024-09-07T11:12:50Z</time>
      </trkpt>
      <trkpt lat="48.27367" lon="-3.56226">
        <ele>119.6</ele>
        <time>2024-09-07T11:12:51Z</time>
      </trkpt>
      <trkpt lat="48.27367" lon="-3.56229">
        <ele>119.6</ele>
        <time>2024-09-07T11:12:52Z</time>
      </trkpt>
      <trkpt lat="48.27367" lon="-3.56232">
        <ele>120</ele>
        <time>2024-09-07T11:12:59Z</time>
      </trkpt>
      <trkpt lat="48.27368" lon="-3.56234">
        <ele>120</ele>
        <time>2024-09-07T11:13:00Z</time>
      </trkpt>
      <trkpt lat="48.27368" lon="-3.56239">
        <ele>120</ele>
        <time>2024-09-07T11:13:01Z</time>
      </trkpt>
      <trkpt lat="48.27367" lon="-3.56245">
        <ele>120</ele>
        <time>2024-09-07T11:13:02Z</time>
      </trkpt>
      <trkpt lat="48.27366" lon="-3.56252">
        <ele>120</ele>
        <time>2024-09-07T11:13:03Z</time>
      </trkpt>
      <trkpt lat="48.27365" lon="-3.56259">
        <ele>120</ele>
        <time>2024-09-07T11:13:04Z</time>
      </trkpt>
      <trkpt lat="48.27363" lon="-3.56266">
        <ele>120</ele>
        <time>2024-09-07T11:13:05Z</time>
      </trkpt>
      <trkpt lat="48.27361" lon="-3.56274">
        <ele>120</ele>
        <time>2024-09-07T11:13:06Z</time>
      </trkpt>
      <trkpt lat="48.27359" lon="-3.56283">
        <ele>120</ele>
        <time>2024-09-07T11:13:07Z</time>
      </trkpt>
      <trkpt lat="48.27358" lon="-3.56291">
        <ele>120</ele>
        <time>2024-09-07T11:13:08Z</time>
      </trkpt>
      <trkpt lat="48.27356" lon="-3.563">
        <ele>120</ele>
        <time>2024-09-07T11:13:09Z</time>
      </trkpt>
      <trkpt lat="48.27354" lon="-3.56309">
        <ele>120</ele>
        <time>2024-09-07T11:13:10Z</time>
      </trkpt>
      <trkpt lat="48.27352" lon="-3.56318">
        <ele>120</ele>
        <time>2024-09-07T11:13:11Z</time>
      </trkpt>
      <trkpt lat="48.2735" lon="-3.56328">
        <ele>119.8</ele>
        <time>2024-09-07T11:13:12Z</time>
      </trkpt>
      <trkpt lat="48.27348" lon="-3.56338">
        <ele>119.6</ele>
        <time>2024-09-07T11:13:13Z</time>
      </trkpt>
      <trkpt lat="48.27346" lon="-3.56348">
        <ele>119.4</ele>
        <time>2024-09-07T11:13:14Z</time>
      </trkpt>
      <trkpt lat="48.27343" lon="-3.56358">
        <ele>119.4</ele>
        <time>2024-09-07T11:13:15Z</time>
      </trkpt>
      <trkpt lat="48.27341" lon="-3.56369">
        <ele>119</ele>
        <time>2024-09-07T11:13:16Z</time>
      </trkpt>
      <trkpt lat="48.27339" lon="-3.5638">
        <ele>119</ele>
        <time>2024-09-07T11:13:17Z</time>
      </trkpt>
      <trkpt lat="48.27336" lon="-3.56394">
        <ele>118.6</ele>
        <time>2024-09-07T11:13:18Z</time>
      </trkpt>
      <trkpt lat="48.27334" lon="-3.56403">
        <ele>118.4</ele>
        <time>2024-09-07T11:13:19Z</time>
      </trkpt>
      <trkpt lat="48.27332" lon="-3.56414">
        <ele>118.2</ele>
        <time>2024-09-07T11:13:20Z</time>
      </trkpt>
      <trkpt lat="48.27329" lon="-3.56428">
        <ele>118</ele>
        <time>2024-09-07T11:13:21Z</time>
      </trkpt>
      <trkpt lat="48.27327" lon="-3.56437">
        <ele>117.8</ele>
        <time>2024-09-07T11:13:22Z</time>
      </trkpt>
      <trkpt lat="48.27325" lon="-3.56449">
        <ele>117.4</ele>
        <time>2024-09-07T11:13:23Z</time>
      </trkpt>
      <trkpt lat="48.27322" lon="-3.56463">
        <ele>117.2</ele>
        <time>2024-09-07T11:13:24Z</time>
      </trkpt>
      <trkpt lat="48.2732" lon="-3.56473">
        <ele>116.6</ele>
        <time>2024-09-07T11:13:25Z</time>
      </trkpt>
      <trkpt lat="48.27317" lon="-3.56485">
        <ele>116.4</ele>
        <time>2024-09-07T11:13:26Z</time>
      </trkpt>
      <trkpt lat="48.27315" lon="-3.565">
        <ele>116</ele>
        <time>2024-09-07T11:13:27Z</time>
      </trkpt>
      <trkpt lat="48.27313" lon="-3.5651">
        <ele>115.6</ele>
        <time>2024-09-07T11:13:28Z</time>
      </trkpt>
      <trkpt lat="48.27311" lon="-3.56522">
        <ele>115.4</ele>
        <time>2024-09-07T11:13:29Z</time>
      </trkpt>
      <trkpt lat="48.27308" lon="-3.56534">
        <ele>115</ele>
        <time>2024-09-07T11:13:30Z</time>
      </trkpt>
      <trkpt lat="48.27306" lon="-3.56545">
        <ele>115</ele>
        <time>2024-09-07T11:13:31Z</time>
      </trkpt>
      <trkpt lat="48.27304" lon="-3.56555">
        <ele>114.6</ele>
        <time>2024-09-07T11:13:32Z</time>
      </trkpt>
      <trkpt lat="48.27302" lon="-3.56565">
        <ele>114.4</ele>
        <time>2024-09-07T11:13:33Z</time>
      </trkpt>
      <trkpt lat="48.27301" lon="-3.56573">
        <ele>114</ele>
        <time>2024-09-07T11:13:34Z</time>
      </trkpt>
      <trkpt lat="48.273" lon="-3.56581">
        <ele>113.4</ele>
        <time>2024-09-07T11:13:35Z</time>
      </trkpt>
      <trkpt lat="48.27298" lon="-3.56589">
        <ele>113</ele>
        <time>2024-09-07T11:13:36Z</time>
      </trkpt>
      <trkpt lat="48.27297" lon="-3.56596">
        <ele>112.8</ele>
        <time>2024-09-07T11:13:37Z</time>
      </trkpt>
      <trkpt lat="48.27295" lon="-3.56603">
        <ele>112.4</ele>
        <time>2024-09-07T11:13:38Z</time>
      </trkpt>
      <trkpt lat="48.27292" lon="-3.5661">
        <ele>112</ele>
        <time>2024-09-07T11:13:39Z</time>
      </trkpt>
      <trkpt lat="48.2729" lon="-3.56618">
        <ele>111.4</ele>
        <time>2024-09-07T11:13:40Z</time>
      </trkpt>
      <trkpt lat="48.27288" lon="-3.56626">
        <ele>111.2</ele>
        <time>2024-09-07T11:13:41Z</time>
      </trkpt>
      <trkpt lat="48.27286" lon="-3.56635">
        <ele>110.8</ele>
        <time>2024-09-07T11:13:42Z</time>
      </trkpt>
      <trkpt lat="48.27284" lon="-3.56641">
        <ele>110</ele>
        <time>2024-09-07T11:13:43Z</time>
      </trkpt>
      <trkpt lat="48.27283" lon="-3.56648">
        <ele>109.8</ele>
        <time>2024-09-07T11:13:44Z</time>
      </trkpt>
      <trkpt lat="48.27281" lon="-3.56654">
        <ele>109.4</ele>
        <time>2024-09-07T11:13:45Z</time>
      </trkpt>
      <trkpt lat="48.2728" lon="-3.5666">
        <ele>109.2</ele>
        <time>2024-09-07T11:13:46Z</time>
      </trkpt>
      <trkpt lat="48.27279" lon="-3.56666">
        <ele>109</ele>
        <time>2024-09-07T11:13:47Z</time>
      </trkpt>
      <trkpt lat="48.27278" lon="-3.56671">
        <ele>108.8</ele>
        <time>2024-09-07T11:13:48Z</time>
      </trkpt>
      <trkpt lat="48.27278" lon="-3.56676">
        <ele>108.6</ele>
        <time>2024-09-07T11:13:49Z</time>
      </trkpt>
      <trkpt lat="48.27278" lon="-3.56681">
        <ele>108.6</ele>
        <time>2024-09-07T11:13:50Z</time>
      </trkpt>
      <trkpt lat="48.27279" lon="-3.56687">
        <ele>108.4</ele>
        <time>2024-09-07T11:13:51Z</time>
      </trkpt>
      <trkpt lat="48.2728" lon="-3.56692">
        <ele>108.2</ele>
        <time>2024-09-07T11:13:52Z</time>
      </trkpt>
      <trkpt lat="48.27282" lon="-3.56697">
        <ele>108.2</ele>
        <time>2024-09-07T11:13:53Z</time>
      </trkpt>
      <trkpt lat="48.27285" lon="-3.56702">
        <ele>108</ele>
        <time>2024-09-07T11:13:54Z</time>
      </trkpt>
      <trkpt lat="48.27288" lon="-3.56706">
        <ele>108</ele>
        <time>2024-09-07T11:13:55Z</time>
      </trkpt>
      <trkpt lat="48.27291" lon="-3.56709">
        <ele>107.8</ele>
        <time>2024-09-07T11:13:56Z</time>
      </trkpt>
      <trkpt lat="48.27295" lon="-3.56713">
        <ele>107.6</ele>
        <time>2024-09-07T11:13:57Z</time>
      </trkpt>
      <trkpt lat="48.27299" lon="-3.56715">
        <ele>107.6</ele>
        <time>2024-09-07T11:13:58Z</time>
      </trkpt>
      <trkpt lat="48.27303" lon="-3.56718">
        <ele>107.4</ele>
        <time>2024-09-07T11:13:59Z</time>
      </trkpt>
      <trkpt lat="48.27308" lon="-3.56721">
        <ele>107.4</ele>
        <time>2024-09-07T11:14:00Z</time>
      </trkpt>
      <trkpt lat="48.27312" lon="-3.56725">
        <ele>107.4</ele>
        <time>2024-09-07T11:14:01Z</time>
      </trkpt>
      <trkpt lat="48.27315" lon="-3.56727">
        <ele>107.4</ele>
        <time>2024-09-07T11:14:02Z</time>
      </trkpt>
      <trkpt lat="48.2732" lon="-3.56731">
        <ele>107.4</ele>
        <time>2024-09-07T11:14:03Z</time>
      </trkpt>
      <trkpt lat="48.27323" lon="-3.56734">
        <ele>107.4</ele>
        <time>2024-09-07T11:14:04Z</time>
      </trkpt>
      <trkpt lat="48.27326" lon="-3.56739">
        <ele>107.2</ele>
        <time>2024-09-07T11:14:05Z</time>
      </trkpt>
      <trkpt lat="48.27329" lon="-3.56744">
        <ele>107.2</ele>
        <time>2024-09-07T11:14:06Z</time>
      </trkpt>
      <trkpt lat="48.27331" lon="-3.56748">
        <ele>107.2</ele>
        <time>2024-09-07T11:14:07Z</time>
      </trkpt>
      <trkpt lat="48.27334" lon="-3.56754">
        <ele>107.2</ele>
        <time>2024-09-07T11:14:08Z</time>
      </trkpt>
      <trkpt lat="48.27336" lon="-3.5676">
        <ele>107.2</ele>
        <time>2024-09-07T11:14:09Z</time>
      </trkpt>
      <trkpt lat="48.27337" lon="-3.56764">
        <ele>107.4</ele>
        <time>2024-09-07T11:14:10Z</time>
      </trkpt>
      <trkpt lat="48.27338" lon="-3.5677">
        <ele>107.4</ele>
        <time>2024-09-07T11:14:11Z</time>
      </trkpt>
      <trkpt lat="48.2734" lon="-3.56775">
        <ele>107.4</ele>
        <time>2024-09-07T11:14:12Z</time>
      </trkpt>
      <trkpt lat="48.27341" lon="-3.56781">
        <ele>107.6</ele>
        <time>2024-09-07T11:14:13Z</time>
      </trkpt>
      <trkpt lat="48.27342" lon="-3.56786">
        <ele>107.8</ele>
        <time>2024-09-07T11:14:14Z</time>
      </trkpt>
      <trkpt lat="48.27343" lon="-3.56793">
        <ele>108</ele>
        <time>2024-09-07T11:14:15Z</time>
      </trkpt>
      <trkpt lat="48.27343" lon="-3.56798">
        <ele>108.2</ele>
        <time>2024-09-07T11:14:16Z</time>
      </trkpt>
      <trkpt lat="48.27344" lon="-3.56803">
        <ele>108.2</ele>
        <time>2024-09-07T11:14:17Z</time>
      </trkpt>
      <trkpt lat="48.27345" lon="-3.56809">
        <ele>108.2</ele>
        <time>2024-09-07T11:14:18Z</time>
      </trkpt>
      <trkpt lat="48.27346" lon="-3.56812">
        <ele>108.6</ele>
        <time>2024-09-07T11:14:19Z</time>
      </trkpt>
      <trkpt lat="48.27347" lon="-3.56818">
        <ele>108.8</ele>
        <time>2024-09-07T11:14:20Z</time>
      </trkpt>
      <trkpt lat="48.27348" lon="-3.56823">
        <ele>109.2</ele>
        <time>2024-09-07T11:14:21Z</time>
      </trkpt>
      <trkpt lat="48.2735" lon="-3.56829">
        <ele>109.4</ele>
        <time>2024-09-07T11:14:22Z</time>
      </trkpt>
      <trkpt lat="48.27351" lon="-3.56833">
        <ele>109.6</ele>
        <time>2024-09-07T11:14:23Z</time>
      </trkpt>
      <trkpt lat="48.27353" lon="-3.56838">
        <ele>109.8</ele>
        <time>2024-09-07T11:14:24Z</time>
      </trkpt>
      <trkpt lat="48.27354" lon="-3.56843">
        <ele>110</ele>
        <time>2024-09-07T11:14:25Z</time>
      </trkpt>
      <trkpt lat="48.27356" lon="-3.56848">
        <ele>110.2</ele>
        <time>2024-09-07T11:14:26Z</time>
      </trkpt>
      <trkpt lat="48.27356" lon="-3.56853">
        <ele>110.4</ele>
        <time>2024-09-07T11:14:27Z</time>
      </trkpt>
      <trkpt lat="48.27359" lon="-3.56859">
        <ele>110.6</ele>
        <time>2024-09-07T11:14:28Z</time>
      </trkpt>
      <trkpt lat="48.2736" lon="-3.56863">
        <ele>111</ele>
        <time>2024-09-07T11:14:29Z</time>
      </trkpt>
      <trkpt lat="48.27362" lon="-3.56867">
        <ele>111.2</ele>
        <time>2024-09-07T11:14:30Z</time>
      </trkpt>
      <trkpt lat="48.27364" lon="-3.56871">
        <ele>111.2</ele>
        <time>2024-09-07T11:14:31Z</time>
      </trkpt>
      <trkpt lat="48.27366" lon="-3.56877">
        <ele>111.6</ele>
        <time>2024-09-07T11:14:32Z</time>
      </trkpt>
      <trkpt lat="48.27368" lon="-3.56882">
        <ele>111.8</ele>
        <time>2024-09-07T11:14:33Z</time>
      </trkpt>
      <trkpt lat="48.27369" lon="-3.56887">
        <ele>112</ele>
        <time>2024-09-07T11:14:34Z</time>
      </trkpt>
      <trkpt lat="48.2737" lon="-3.56892">
        <ele>112.4</ele>
        <time>2024-09-07T11:14:35Z</time>
      </trkpt>
      <trkpt lat="48.27372" lon="-3.56897">
        <ele>112.4</ele>
        <time>2024-09-07T11:14:36Z</time>
      </trkpt>
      <trkpt lat="48.27374" lon="-3.56902">
        <ele>112.6</ele>
        <time>2024-09-07T11:14:37Z</time>
      </trkpt>
      <trkpt lat="48.27376" lon="-3.56906">
        <ele>112.8</ele>
        <time>2024-09-07T11:14:38Z</time>
      </trkpt>
      <trkpt lat="48.27378" lon="-3.5691">
        <ele>112.8</ele>
        <time>2024-09-07T11:14:39Z</time>
      </trkpt>
      <trkpt lat="48.2738" lon="-3.56915">
        <ele>113</ele>
        <time>2024-09-07T11:14:40Z</time>
      </trkpt>
      <trkpt lat="48.27382" lon="-3.56919">
        <ele>113.2</ele>
        <time>2024-09-07T11:14:41Z</time>
      </trkpt>
      <trkpt lat="48.27384" lon="-3.56925">
        <ele>113.4</ele>
        <time>2024-09-07T11:14:42Z</time>
      </trkpt>
      <trkpt lat="48.27386" lon="-3.56928">
        <ele>113.4</ele>
        <time>2024-09-07T11:14:43Z</time>
      </trkpt>
      <trkpt lat="48.27387" lon="-3.56933">
        <ele>113.8</ele>
        <time>2024-09-07T11:14:44Z</time>
      </trkpt>
      <trkpt lat="48.27389" lon="-3.56938">
        <ele>113.8</ele>
        <time>2024-09-07T11:14:45Z</time>
      </trkpt>
      <trkpt lat="48.27391" lon="-3.56942">
        <ele>114</ele>
        <time>2024-09-07T11:14:46Z</time>
      </trkpt>
      <trkpt lat="48.27392" lon="-3.56947">
        <ele>114.2</ele>
        <time>2024-09-07T11:14:47Z</time>
      </trkpt>
      <trkpt lat="48.27394" lon="-3.56951">
        <ele>114.4</ele>
        <time>2024-09-07T11:14:48Z</time>
      </trkpt>
      <trkpt lat="48.27395" lon="-3.56956">
        <ele>114.4</ele>
        <time>2024-09-07T11:14:49Z</time>
      </trkpt>
      <trkpt lat="48.27397" lon="-3.56961">
        <ele>114.6</ele>
        <time>2024-09-07T11:14:50Z</time>
      </trkpt>
      <trkpt lat="48.27398" lon="-3.56967">
        <ele>114.8</ele>
        <time>2024-09-07T11:14:51Z</time>
      </trkpt>
      <trkpt lat="48.274" lon="-3.56971">
        <ele>115</ele>
        <time>2024-09-07T11:14:52Z</time>
      </trkpt>
      <trkpt lat="48.27401" lon="-3.56976">
        <ele>115</ele>
        <time>2024-09-07T11:14:53Z</time>
      </trkpt>
      <trkpt lat="48.27403" lon="-3.56981">
        <ele>115.2</ele>
        <time>2024-09-07T11:14:54Z</time>
      </trkpt>
      <trkpt lat="48.27404" lon="-3.56986">
        <ele>115.6</ele>
        <time>2024-09-07T11:14:55Z</time>
      </trkpt>
      <trkpt lat="48.27406" lon="-3.56991">
        <ele>115.4</ele>
        <time>2024-09-07T11:14:56Z</time>
      </trkpt>
      <trkpt lat="48.27408" lon="-3.56996">
        <ele>115.6</ele>
        <time>2024-09-07T11:14:57Z</time>
      </trkpt>
      <trkpt lat="48.27409" lon="-3.57001">
        <ele>115.8</ele>
        <time>2024-09-07T11:14:58Z</time>
      </trkpt>
      <trkpt lat="48.2741" lon="-3.57006">
        <ele>116</ele>
        <time>2024-09-07T11:14:59Z</time>
      </trkpt>
      <trkpt lat="48.27412" lon="-3.57012">
        <ele>116</ele>
        <time>2024-09-07T11:15:00Z</time>
      </trkpt>
      <trkpt lat="48.27413" lon="-3.57017">
        <ele>116</ele>
        <time>2024-09-07T11:15:01Z</time>
      </trkpt>
      <trkpt lat="48.27414" lon="-3.57022">
        <ele>116</ele>
        <time>2024-09-07T11:15:02Z</time>
      </trkpt>
      <trkpt lat="48.27415" lon="-3.57027">
        <ele>116.2</ele>
        <time>2024-09-07T11:15:03Z</time>
      </trkpt>
      <trkpt lat="48.27417" lon="-3.57032">
        <ele>116.4</ele>
        <time>2024-09-07T11:15:04Z</time>
      </trkpt>
      <trkpt lat="48.27418" lon="-3.57037">
        <ele>116.4</ele>
        <time>2024-09-07T11:15:05Z</time>
      </trkpt>
      <trkpt lat="48.27419" lon="-3.57042">
        <ele>116.4</ele>
        <time>2024-09-07T11:15:06Z</time>
      </trkpt>
      <trkpt lat="48.27421" lon="-3.57047">
        <ele>116.6</ele>
        <time>2024-09-07T11:15:07Z</time>
      </trkpt>
      <trkpt lat="48.27422" lon="-3.57052">
        <ele>116.8</ele>
        <time>2024-09-07T11:15:08Z</time>
      </trkpt>
      <trkpt lat="48.27423" lon="-3.57057">
        <ele>117</ele>
        <time>2024-09-07T11:15:09Z</time>
      </trkpt>
      <trkpt lat="48.27424" lon="-3.57062">
        <ele>117.2</ele>
        <time>2024-09-07T11:15:10Z</time>
      </trkpt>
      <trkpt lat="48.27425" lon="-3.57067">
        <ele>117.4</ele>
        <time>2024-09-07T11:15:11Z</time>
      </trkpt>
      <trkpt lat="48.27426" lon="-3.57072">
        <ele>117.6</ele>
        <time>2024-09-07T11:15:12Z</time>
      </trkpt>
      <trkpt lat="48.27428" lon="-3.57077">
        <ele>117.6</ele>
        <time>2024-09-07T11:15:13Z</time>
      </trkpt>
      <trkpt lat="48.27429" lon="-3.57082">
        <ele>117.8</ele>
        <time>2024-09-07T11:15:14Z</time>
      </trkpt>
      <trkpt lat="48.2743" lon="-3.57086">
        <ele>118</ele>
        <time>2024-09-07T11:15:15Z</time>
      </trkpt>
      <trkpt lat="48.27431" lon="-3.57091">
        <ele>118.2</ele>
        <time>2024-09-07T11:15:16Z</time>
      </trkpt>
      <trkpt lat="48.27432" lon="-3.57094">
        <ele>118.2</ele>
        <time>2024-09-07T11:15:17Z</time>
      </trkpt>
      <trkpt lat="48.27433" lon="-3.57099">
        <ele>118.4</ele>
        <time>2024-09-07T11:15:18Z</time>
      </trkpt>
      <trkpt lat="48.27434" lon="-3.57103">
        <ele>118.6</ele>
        <time>2024-09-07T11:15:19Z</time>
      </trkpt>
      <trkpt lat="48.27435" lon="-3.57108">
        <ele>118.8</ele>
        <time>2024-09-07T11:15:20Z</time>
      </trkpt>
      <trkpt lat="48.27436" lon="-3.57112">
        <ele>118.8</ele>
        <time>2024-09-07T11:15:21Z</time>
      </trkpt>
      <trkpt lat="48.27437" lon="-3.57116">
        <ele>119</ele>
        <time>2024-09-07T11:15:22Z</time>
      </trkpt>
      <trkpt lat="48.27438" lon="-3.57121">
        <ele>119.2</ele>
        <time>2024-09-07T11:15:23Z</time>
      </trkpt>
      <trkpt lat="48.27439" lon="-3.57125">
        <ele>119.2</ele>
        <time>2024-09-07T11:15:24Z</time>
      </trkpt>
      <trkpt lat="48.2744" lon="-3.57129">
        <ele>119.2</ele>
        <time>2024-09-07T11:15:25Z</time>
      </trkpt>
      <trkpt lat="48.27441" lon="-3.57134">
        <ele>119.4</ele>
        <time>2024-09-07T11:15:26Z</time>
      </trkpt>
      <trkpt lat="48.27442" lon="-3.57139">
        <ele>119.6</ele>
        <time>2024-09-07T11:15:27Z</time>
      </trkpt>
      <trkpt lat="48.27442" lon="-3.57144">
        <ele>119.8</ele>
        <time>2024-09-07T11:15:28Z</time>
      </trkpt>
      <trkpt lat="48.27443" lon="-3.5715">
        <ele>119.8</ele>
        <time>2024-09-07T11:15:29Z</time>
      </trkpt>
      <trkpt lat="48.27444" lon="-3.57154">
        <ele>120.2</ele>
        <time>2024-09-07T11:15:30Z</time>
      </trkpt>
      <trkpt lat="48.27445" lon="-3.5716">
        <ele>120.2</ele>
        <time>2024-09-07T11:15:31Z</time>
      </trkpt>
      <trkpt lat="48.27446" lon="-3.57164">
        <ele>120.6</ele>
        <time>2024-09-07T11:15:32Z</time>
      </trkpt>
      <trkpt lat="48.27447" lon="-3.57171">
        <ele>120.6</ele>
        <time>2024-09-07T11:15:33Z</time>
      </trkpt>
      <trkpt lat="48.27448" lon="-3.57175">
        <ele>120.8</ele>
        <time>2024-09-07T11:15:34Z</time>
      </trkpt>
      <trkpt lat="48.27449" lon="-3.5718">
        <ele>121</ele>
        <time>2024-09-07T11:15:35Z</time>
      </trkpt>
      <trkpt lat="48.2745" lon="-3.57185">
        <ele>121.4</ele>
        <time>2024-09-07T11:15:36Z</time>
      </trkpt>
      <trkpt lat="48.27451" lon="-3.57191">
        <ele>121.2</ele>
        <time>2024-09-07T11:15:37Z</time>
      </trkpt>
      <trkpt lat="48.27452" lon="-3.57196">
        <ele>121.6</ele>
        <time>2024-09-07T11:15:38Z</time>
      </trkpt>
      <trkpt lat="48.27453" lon="-3.57202">
        <ele>121.6</ele>
        <time>2024-09-07T11:15:39Z</time>
      </trkpt>
      <trkpt lat="48.27454" lon="-3.57207">
        <ele>121.6</ele>
        <time>2024-09-07T11:15:40Z</time>
      </trkpt>
      <trkpt lat="48.27456" lon="-3.57212">
        <ele>121.8</ele>
        <time>2024-09-07T11:15:41Z</time>
      </trkpt>
      <trkpt lat="48.27458" lon="-3.57214">
        <ele>122</ele>
        <time>2024-09-07T11:15:42Z</time>
      </trkpt>
      <trkpt lat="48.2746" lon="-3.57217">
        <ele>122.2</ele>
        <time>2024-09-07T11:15:43Z</time>
      </trkpt>
      <trkpt lat="48.27462" lon="-3.5722">
        <ele>122.4</ele>
        <time>2024-09-07T11:15:44Z</time>
      </trkpt>
      <trkpt lat="48.27464" lon="-3.57221">
        <ele>122.4</ele>
        <time>2024-09-07T11:15:45Z</time>
      </trkpt>
      <trkpt lat="48.27467" lon="-3.57223">
        <ele>122.4</ele>
        <time>2024-09-07T11:15:46Z</time>
      </trkpt>
      <trkpt lat="48.27469" lon="-3.57224">
        <ele>122.6</ele>
        <time>2024-09-07T11:15:47Z</time>
      </trkpt>
      <trkpt lat="48.27471" lon="-3.57226">
        <ele>122.8</ele>
        <time>2024-09-07T11:15:48Z</time>
      </trkpt>
      <trkpt lat="48.27473" lon="-3.57227">
        <ele>122.8</ele>
        <time>2024-09-07T11:15:49Z</time>
      </trkpt>
      <trkpt lat="48.27476" lon="-3.57229">
        <ele>122.8</ele>
        <time>2024-09-07T11:15:50Z</time>
      </trkpt>
      <trkpt lat="48.27478" lon="-3.5723">
        <ele>122.8</ele>
        <time>2024-09-07T11:15:51Z</time>
      </trkpt>
      <trkpt lat="48.2748" lon="-3.57231">
        <ele>123</ele>
        <time>2024-09-07T11:15:52Z</time>
      </trkpt>
      <trkpt lat="48.27483" lon="-3.57233">
        <ele>123.2</ele>
        <time>2024-09-07T11:15:53Z</time>
      </trkpt>
      <trkpt lat="48.27485" lon="-3.57234">
        <ele>123.6</ele>
        <time>2024-09-07T11:15:54Z</time>
      </trkpt>
      <trkpt lat="48.27487" lon="-3.57234">
        <ele>123.8</ele>
        <time>2024-09-07T11:15:55Z</time>
      </trkpt>
      <trkpt lat="48.2749" lon="-3.57235">
        <ele>124.2</ele>
        <time>2024-09-07T11:15:56Z</time>
      </trkpt>
      <trkpt lat="48.27492" lon="-3.57236">
        <ele>124.4</ele>
        <time>2024-09-07T11:15:57Z</time>
      </trkpt>
      <trkpt lat="48.27495" lon="-3.57237">
        <ele>124.8</ele>
        <time>2024-09-07T11:15:58Z</time>
      </trkpt>
      <trkpt lat="48.27497" lon="-3.57238">
        <ele>125.2</ele>
        <time>2024-09-07T11:15:59Z</time>
      </trkpt>
      <trkpt lat="48.27499" lon="-3.57238">
        <ele>125.6</ele>
        <time>2024-09-07T11:16:00Z</time>
      </trkpt>
      <trkpt lat="48.27502" lon="-3.57239">
        <ele>126</ele>
        <time>2024-09-07T11:16:01Z</time>
      </trkpt>
      <trkpt lat="48.27505" lon="-3.57239">
        <ele>126.2</ele>
        <time>2024-09-07T11:16:02Z</time>
      </trkpt>
      <trkpt lat="48.27507" lon="-3.57239">
        <ele>126.6</ele>
        <time>2024-09-07T11:16:03Z</time>
      </trkpt>
      <trkpt lat="48.2751" lon="-3.57239">
        <ele>126.8</ele>
        <time>2024-09-07T11:16:04Z</time>
      </trkpt>
      <trkpt lat="48.27512" lon="-3.57239">
        <ele>127.2</ele>
        <time>2024-09-07T11:16:05Z</time>
      </trkpt>
      <trkpt lat="48.27515" lon="-3.57239">
        <ele>127.6</ele>
        <time>2024-09-07T11:16:06Z</time>
      </trkpt>
      <trkpt lat="48.27517" lon="-3.57239">
        <ele>127.8</ele>
        <time>2024-09-07T11:16:07Z</time>
      </trkpt>
      <trkpt lat="48.27519" lon="-3.57238">
        <ele>127.8</ele>
        <time>2024-09-07T11:16:08Z</time>
      </trkpt>
      <trkpt lat="48.27521" lon="-3.57238">
        <ele>128.2</ele>
        <time>2024-09-07T11:16:09Z</time>
      </trkpt>
      <trkpt lat="48.27522" lon="-3.57238">
        <ele>128.6</ele>
        <time>2024-09-07T11:16:10Z</time>
      </trkpt>
      <trkpt lat="48.27525" lon="-3.5724">
        <ele>129</ele>
        <time>2024-09-07T11:16:11Z</time>
      </trkpt>
      <trkpt lat="48.27527" lon="-3.5724">
        <ele>129.2</ele>
        <time>2024-09-07T11:16:12Z</time>
      </trkpt>
      <trkpt lat="48.27529" lon="-3.5724">
        <ele>129.4</ele>
        <time>2024-09-07T11:16:13Z</time>
      </trkpt>
      <trkpt lat="48.27532" lon="-3.5724">
        <ele>129.6</ele>
        <time>2024-09-07T11:16:14Z</time>
      </trkpt>
      <trkpt lat="48.27534" lon="-3.57239">
        <ele>129.8</ele>
        <time>2024-09-07T11:16:15Z</time>
      </trkpt>
      <trkpt lat="48.27536" lon="-3.57239">
        <ele>130.2</ele>
        <time>2024-09-07T11:16:16Z</time>
      </trkpt>
      <trkpt lat="48.27538" lon="-3.57239">
        <ele>130.4</ele>
        <time>2024-09-07T11:16:17Z</time>
      </trkpt>
      <trkpt lat="48.27541" lon="-3.5724">
        <ele>130.8</ele>
        <time>2024-09-07T11:16:18Z</time>
      </trkpt>
      <trkpt lat="48.27544" lon="-3.5724">
        <ele>131</ele>
        <time>2024-09-07T11:16:19Z</time>
      </trkpt>
      <trkpt lat="48.27546" lon="-3.57242">
        <ele>131.4</ele>
        <time>2024-09-07T11:16:20Z</time>
      </trkpt>
      <trkpt lat="48.27549" lon="-3.57243">
        <ele>131.8</ele>
        <time>2024-09-07T11:16:21Z</time>
      </trkpt>
      <trkpt lat="48.27551" lon="-3.57244">
        <ele>132</ele>
        <time>2024-09-07T11:16:22Z</time>
      </trkpt>
      <trkpt lat="48.27554" lon="-3.57244">
        <ele>132.4</ele>
        <time>2024-09-07T11:16:23Z</time>
      </trkpt>
      <trkpt lat="48.27556" lon="-3.57244">
        <ele>132.6</ele>
        <time>2024-09-07T11:16:24Z</time>
      </trkpt>
      <trkpt lat="48.27557" lon="-3.57244">
        <ele>133</ele>
        <time>2024-09-07T11:16:25Z</time>
      </trkpt>
      <trkpt lat="48.27559" lon="-3.57244">
        <ele>133.4</ele>
        <time>2024-09-07T11:16:26Z</time>
      </trkpt>
      <trkpt lat="48.2756" lon="-3.57244">
        <ele>133.6</ele>
        <time>2024-09-07T11:16:27Z</time>
      </trkpt>
      <trkpt lat="48.27562" lon="-3.57243">
        <ele>134</ele>
        <time>2024-09-07T11:16:28Z</time>
      </trkpt>
      <trkpt lat="48.27564" lon="-3.57241">
        <ele>134.2</ele>
        <time>2024-09-07T11:16:29Z</time>
      </trkpt>
      <trkpt lat="48.27565" lon="-3.57237">
        <ele>134.2</ele>
        <time>2024-09-07T11:16:30Z</time>
      </trkpt>
      <trkpt lat="48.27566" lon="-3.57234">
        <ele>134.6</ele>
        <time>2024-09-07T11:16:31Z</time>
      </trkpt>
      <trkpt lat="48.27567" lon="-3.5723">
        <ele>134.8</ele>
        <time>2024-09-07T11:16:32Z</time>
      </trkpt>
      <trkpt lat="48.27568" lon="-3.57226">
        <ele>135</ele>
        <time>2024-09-07T11:16:33Z</time>
      </trkpt>
      <trkpt lat="48.27569" lon="-3.57222">
        <ele>135.2</ele>
        <time>2024-09-07T11:16:34Z</time>
      </trkpt>
      <trkpt lat="48.2757" lon="-3.57218">
        <ele>135.4</ele>
        <time>2024-09-07T11:16:35Z</time>
      </trkpt>
      <trkpt lat="48.2757" lon="-3.57215">
        <ele>135.6</ele>
        <time>2024-09-07T11:16:36Z</time>
      </trkpt>
      <trkpt lat="48.27571" lon="-3.57211">
        <ele>135.8</ele>
        <time>2024-09-07T11:16:37Z</time>
      </trkpt>
      <trkpt lat="48.27571" lon="-3.57206">
        <ele>136</ele>
        <time>2024-09-07T11:16:38Z</time>
      </trkpt>
      <trkpt lat="48.27571" lon="-3.57203">
        <ele>136</ele>
        <time>2024-09-07T11:16:39Z</time>
      </trkpt>
      <trkpt lat="48.27572" lon="-3.572">
        <ele>136.2</ele>
        <time>2024-09-07T11:16:40Z</time>
      </trkpt>
      <trkpt lat="48.27572" lon="-3.57196">
        <ele>136.2</ele>
        <time>2024-09-07T11:16:41Z</time>
      </trkpt>
      <trkpt lat="48.27572" lon="-3.57194">
        <ele>136.4</ele>
        <time>2024-09-07T11:16:42Z</time>
      </trkpt>
      <trkpt lat="48.27573" lon="-3.57192">
        <ele>136.4</ele>
        <time>2024-09-07T11:16:43Z</time>
      </trkpt>
      <trkpt lat="48.27575" lon="-3.57189">
        <ele>136.4</ele>
        <time>2024-09-07T11:16:44Z</time>
      </trkpt>
      <trkpt lat="48.27577" lon="-3.57188">
        <ele>136.4</ele>
        <time>2024-09-07T11:16:45Z</time>
      </trkpt>
      <trkpt lat="48.27579" lon="-3.57187">
        <ele>136.6</ele>
        <time>2024-09-07T11:16:46Z</time>
      </trkpt>
      <trkpt lat="48.27582" lon="-3.57186">
        <ele>136.6</ele>
        <time>2024-09-07T11:16:47Z</time>
      </trkpt>
      <trkpt lat="48.27584" lon="-3.57185">
        <ele>136.6</ele>
        <time>2024-09-07T11:16:48Z</time>
      </trkpt>
      <trkpt lat="48.27587" lon="-3.57182">
        <ele>136.6</ele>
        <time>2024-09-07T11:16:49Z</time>
      </trkpt>
      <trkpt lat="48.27589" lon="-3.57179">
        <ele>136.6</ele>
        <time>2024-09-07T11:16:50Z</time>
      </trkpt>
      <trkpt lat="48.2759" lon="-3.57177">
        <ele>136.8</ele>
        <time>2024-09-07T11:16:51Z</time>
      </trkpt>
      <trkpt lat="48.27592" lon="-3.57175">
        <ele>136.8</ele>
        <time>2024-09-07T11:16:52Z</time>
      </trkpt>
      <trkpt lat="48.27593" lon="-3.57172">
        <ele>136.8</ele>
        <time>2024-09-07T11:16:53Z</time>
      </trkpt>
      <trkpt lat="48.27595" lon="-3.57167">
        <ele>136.8</ele>
        <time>2024-09-07T11:16:54Z</time>
      </trkpt>
      <trkpt lat="48.27597" lon="-3.57163">
        <ele>136.8</ele>
        <time>2024-09-07T11:16:55Z</time>
      </trkpt>
      <trkpt lat="48.27598" lon="-3.5716">
        <ele>137.2</ele>
        <time>2024-09-07T11:16:56Z</time>
      </trkpt>
      <trkpt lat="48.27599" lon="-3.57155">
        <ele>137.2</ele>
        <time>2024-09-07T11:16:57Z</time>
      </trkpt>
      <trkpt lat="48.27601" lon="-3.57151">
        <ele>137.4</ele>
        <time>2024-09-07T11:16:58Z</time>
      </trkpt>
      <trkpt lat="48.27602" lon="-3.57148">
        <ele>137.4</ele>
        <time>2024-09-07T11:16:59Z</time>
      </trkpt>
      <trkpt lat="48.27604" lon="-3.57143">
        <ele>137.6</ele>
        <time>2024-09-07T11:17:00Z</time>
      </trkpt>
      <trkpt lat="48.27605" lon="-3.57139">
        <ele>137.6</ele>
        <time>2024-09-07T11:17:01Z</time>
      </trkpt>
      <trkpt lat="48.27606" lon="-3.57135">
        <ele>137.8</ele>
        <time>2024-09-07T11:17:02Z</time>
      </trkpt>
      <trkpt lat="48.27607" lon="-3.57131">
        <ele>137.8</ele>
        <time>2024-09-07T11:17:03Z</time>
      </trkpt>
      <trkpt lat="48.27609" lon="-3.57126">
        <ele>137.8</ele>
        <time>2024-09-07T11:17:04Z</time>
      </trkpt>
      <trkpt lat="48.2761" lon="-3.57122">
        <ele>137.8</ele>
        <time>2024-09-07T11:17:05Z</time>
      </trkpt>
      <trkpt lat="48.27612" lon="-3.57118">
        <ele>137.8</ele>
        <time>2024-09-07T11:17:06Z</time>
      </trkpt>
      <trkpt lat="48.27613" lon="-3.57115">
        <ele>138</ele>
        <time>2024-09-07T11:17:07Z</time>
      </trkpt>
      <trkpt lat="48.27616" lon="-3.57112">
        <ele>138</ele>
        <time>2024-09-07T11:17:08Z</time>
      </trkpt>
      <trkpt lat="48.27618" lon="-3.57111">
        <ele>138</ele>
        <time>2024-09-07T11:17:09Z</time>
      </trkpt>
      <trkpt lat="48.27619" lon="-3.57111">
        <ele>138.2</ele>
        <time>2024-09-07T11:17:10Z</time>
      </trkpt>
      <trkpt lat="48.27621" lon="-3.57109">
        <ele>138.2</ele>
        <time>2024-09-07T11:17:11Z</time>
      </trkpt>
      <trkpt lat="48.27623" lon="-3.57109">
        <ele>138.2</ele>
        <time>2024-09-07T11:17:12Z</time>
      </trkpt>
      <trkpt lat="48.27624" lon="-3.57108">
        <ele>138.4</ele>
        <time>2024-09-07T11:17:13Z</time>
      </trkpt>
      <trkpt lat="48.27627" lon="-3.57108">
        <ele>138.4</ele>
        <time>2024-09-07T11:17:14Z</time>
      </trkpt>
      <trkpt lat="48.27629" lon="-3.57109">
        <ele>138.4</ele>
        <time>2024-09-07T11:17:15Z</time>
      </trkpt>
      <trkpt lat="48.27631" lon="-3.5711">
        <ele>138.4</ele>
        <time>2024-09-07T11:17:16Z</time>
      </trkpt>
      <trkpt lat="48.27634" lon="-3.57111">
        <ele>138.6</ele>
        <time>2024-09-07T11:17:17Z</time>
      </trkpt>
      <trkpt lat="48.27636" lon="-3.57112">
        <ele>138.6</ele>
        <time>2024-09-07T11:17:18Z</time>
      </trkpt>
      <trkpt lat="48.27639" lon="-3.57113">
        <ele>138.6</ele>
        <time>2024-09-07T11:17:19Z</time>
      </trkpt>
      <trkpt lat="48.27642" lon="-3.57114">
        <ele>138.6</ele>
        <time>2024-09-07T11:17:20Z</time>
      </trkpt>
      <trkpt lat="48.27645" lon="-3.57115">
        <ele>138.6</ele>
        <time>2024-09-07T11:17:21Z</time>
      </trkpt>
      <trkpt lat="48.27647" lon="-3.57115">
        <ele>138.6</ele>
        <time>2024-09-07T11:17:22Z</time>
      </trkpt>
      <trkpt lat="48.27649" lon="-3.57114">
        <ele>138.6</ele>
        <time>2024-09-07T11:17:23Z</time>
      </trkpt>
      <trkpt lat="48.2765" lon="-3.57112">
        <ele>138.6</ele>
        <time>2024-09-07T11:17:24Z</time>
      </trkpt>
      <trkpt lat="48.27652" lon="-3.5711">
        <ele>138.6</ele>
        <time>2024-09-07T11:17:25Z</time>
      </trkpt>
      <trkpt lat="48.27654" lon="-3.57106">
        <ele>138.6</ele>
        <time>2024-09-07T11:17:26Z</time>
      </trkpt>
      <trkpt lat="48.27654" lon="-3.57103">
        <ele>138.4</ele>
        <time>2024-09-07T11:17:27Z</time>
      </trkpt>
      <trkpt lat="48.27654" lon="-3.571">
        <ele>138.4</ele>
        <time>2024-09-07T11:17:28Z</time>
      </trkpt>
      <trkpt lat="48.27653" lon="-3.57097">
        <ele>138.4</ele>
        <time>2024-09-07T11:17:29Z</time>
      </trkpt>
      <trkpt lat="48.27653" lon="-3.57094">
        <ele>138.2</ele>
        <time>2024-09-07T11:17:30Z</time>
      </trkpt>
      <trkpt lat="48.27653" lon="-3.57094">
        <ele>138.2</ele>
        <time>2024-09-07T11:17:31Z</time>
      </trkpt>
      <trkpt lat="48.27653" lon="-3.57094">
        <ele>138</ele>
        <time>2024-09-07T11:17:32Z</time>
      </trkpt>
      <trkpt lat="48.27654" lon="-3.57085">
        <ele>137.4</ele>
        <time>2024-09-07T11:17:56Z</time>
      </trkpt>
      <trkpt lat="48.27655" lon="-3.57083">
        <ele>137.4</ele>
        <time>2024-09-07T11:17:57Z</time>
      </trkpt>
      <trkpt lat="48.27655" lon="-3.5708">
        <ele>137.4</ele>
        <time>2024-09-07T11:17:58Z</time>
      </trkpt>
      <trkpt lat="48.27655" lon="-3.57077">
        <ele>137.4</ele>
        <time>2024-09-07T11:17:59Z</time>
      </trkpt>
      <trkpt lat="48.27655" lon="-3.57074">
        <ele>137.4</ele>
        <time>2024-09-07T11:18:00Z</time>
      </trkpt>
      <trkpt lat="48.27655" lon="-3.57072">
        <ele>137.4</ele>
        <time>2024-09-07T11:18:01Z</time>
      </trkpt>
      <trkpt lat="48.27655" lon="-3.57069">
        <ele>137.4</ele>
        <time>2024-09-07T11:18:02Z</time>
      </trkpt>
      <trkpt lat="48.27656" lon="-3.57069">
        <ele>137.4</ele>
        <time>2024-09-07T11:18:03Z</time>
      </trkpt>
      <trkpt lat="48.27656" lon="-3.57069">
        <ele>137.4</ele>
        <time>2024-09-07T11:18:04Z</time>
      </trkpt>
      <trkpt lat="48.27656" lon="-3.57069">
        <ele>137.4</ele>
        <time>2024-09-07T11:18:05Z</time>
      </trkpt>
      <trkpt lat="48.27659" lon="-3.5706">
        <ele>137.2</ele>
        <time>2024-09-07T11:18:25Z</time>
      </trkpt>
      <trkpt lat="48.2766" lon="-3.57057">
        <ele>137.2</ele>
        <time>2024-09-07T11:18:26Z</time>
      </trkpt>
      <trkpt lat="48.2766" lon="-3.57054">
        <ele>137.4</ele>
        <time>2024-09-07T11:18:27Z</time>
      </trkpt>
      <trkpt lat="48.27661" lon="-3.57051">
        <ele>137.4</ele>
        <time>2024-09-07T11:18:28Z</time>
      </trkpt>
      <trkpt lat="48.27661" lon="-3.57047">
        <ele>137.4</ele>
        <time>2024-09-07T11:18:29Z</time>
      </trkpt>
      <trkpt lat="48.27661" lon="-3.57043">
        <ele>137.2</ele>
        <time>2024-09-07T11:18:30Z</time>
      </trkpt>
      <trkpt lat="48.27661" lon="-3.57039">
        <ele>137.2</ele>
        <time>2024-09-07T11:18:31Z</time>
      </trkpt>
      <trkpt lat="48.27661" lon="-3.57035">
        <ele>137.2</ele>
        <time>2024-09-07T11:18:32Z</time>
      </trkpt>
      <trkpt lat="48.2766" lon="-3.57031">
        <ele>137.2</ele>
        <time>2024-09-07T11:18:33Z</time>
      </trkpt>
      <trkpt lat="48.2766" lon="-3.57026">
        <ele>137.2</ele>
        <time>2024-09-07T11:18:34Z</time>
      </trkpt>
      <trkpt lat="48.27661" lon="-3.57021">
        <ele>137.2</ele>
        <time>2024-09-07T11:18:35Z</time>
      </trkpt>
      <trkpt lat="48.27661" lon="-3.57017">
        <ele>137.2</ele>
        <time>2024-09-07T11:18:36Z</time>
      </trkpt>
      <trkpt lat="48.27662" lon="-3.57012">
        <ele>137.2</ele>
        <time>2024-09-07T11:18:37Z</time>
      </trkpt>
      <trkpt lat="48.27663" lon="-3.57006">
        <ele>137.2</ele>
        <time>2024-09-07T11:18:38Z</time>
      </trkpt>
      <trkpt lat="48.27663" lon="-3.57002">
        <ele>137.2</ele>
        <time>2024-09-07T11:18:39Z</time>
      </trkpt>
      <trkpt lat="48.27664" lon="-3.56996">
        <ele>137</ele>
        <time>2024-09-07T11:18:40Z</time>
      </trkpt>
      <trkpt lat="48.27664" lon="-3.5699">
        <ele>137</ele>
        <time>2024-09-07T11:18:41Z</time>
      </trkpt>
      <trkpt lat="48.27665" lon="-3.56986">
        <ele>137</ele>
        <time>2024-09-07T11:18:42Z</time>
      </trkpt>
      <trkpt lat="48.27665" lon="-3.56983">
        <ele>137</ele>
        <time>2024-09-07T11:18:43Z</time>
      </trkpt>
      <trkpt lat="48.27665" lon="-3.56977">
        <ele>137</ele>
        <time>2024-09-07T11:18:44Z</time>
      </trkpt>
      <trkpt lat="48.27666" lon="-3.56974">
        <ele>137</ele>
        <time>2024-09-07T11:18:45Z</time>
      </trkpt>
      <trkpt lat="48.27666" lon="-3.56969">
        <ele>137</ele>
        <time>2024-09-07T11:18:46Z</time>
      </trkpt>
      <trkpt lat="48.27666" lon="-3.56965">
        <ele>136.8</ele>
        <time>2024-09-07T11:18:47Z</time>
      </trkpt>
      <trkpt lat="48.27667" lon="-3.56961">
        <ele>136.8</ele>
        <time>2024-09-07T11:18:48Z</time>
      </trkpt>
      <trkpt lat="48.27667" lon="-3.56957">
        <ele>136.6</ele>
        <time>2024-09-07T11:18:49Z</time>
      </trkpt>
      <trkpt lat="48.27668" lon="-3.56953">
        <ele>136.4</ele>
        <time>2024-09-07T11:18:50Z</time>
      </trkpt>
      <trkpt lat="48.27668" lon="-3.56949">
        <ele>136.4</ele>
        <time>2024-09-07T11:18:51Z</time>
      </trkpt>
      <trkpt lat="48.27669" lon="-3.56945">
        <ele>136.4</ele>
        <time>2024-09-07T11:18:52Z</time>
      </trkpt>
      <trkpt lat="48.27669" lon="-3.56941">
        <ele>136.2</ele>
        <time>2024-09-07T11:18:53Z</time>
      </trkpt>
      <trkpt lat="48.27669" lon="-3.56937">
        <ele>136.2</ele>
        <time>2024-09-07T11:18:54Z</time>
      </trkpt>
      <trkpt lat="48.2767" lon="-3.56933">
        <ele>136.2</ele>
        <time>2024-09-07T11:18:55Z</time>
      </trkpt>
      <trkpt lat="48.27671" lon="-3.56929">
        <ele>136.2</ele>
        <time>2024-09-07T11:18:56Z</time>
      </trkpt>
      <trkpt lat="48.27672" lon="-3.56925">
        <ele>136.2</ele>
        <time>2024-09-07T11:18:57Z</time>
      </trkpt>
      <trkpt lat="48.27673" lon="-3.56921">
        <ele>136</ele>
        <time>2024-09-07T11:18:58Z</time>
      </trkpt>
      <trkpt lat="48.27674" lon="-3.56918">
        <ele>135.8</ele>
        <time>2024-09-07T11:18:59Z</time>
      </trkpt>
      <trkpt lat="48.27674" lon="-3.56913">
        <ele>135.8</ele>
        <time>2024-09-07T11:19:00Z</time>
      </trkpt>
      <trkpt lat="48.27675" lon="-3.56909">
        <ele>135.8</ele>
        <time>2024-09-07T11:19:01Z</time>
      </trkpt>
      <trkpt lat="48.27675" lon="-3.56906">
        <ele>135.6</ele>
        <time>2024-09-07T11:19:02Z</time>
      </trkpt>
      <trkpt lat="48.27676" lon="-3.56901">
        <ele>135.6</ele>
        <time>2024-09-07T11:19:03Z</time>
      </trkpt>
      <trkpt lat="48.27676" lon="-3.56898">
        <ele>135.4</ele>
        <time>2024-09-07T11:19:04Z</time>
      </trkpt>
      <trkpt lat="48.27677" lon="-3.56894">
        <ele>135.4</ele>
        <time>2024-09-07T11:19:05Z</time>
      </trkpt>
      <trkpt lat="48.27678" lon="-3.56891">
        <ele>135.4</ele>
        <time>2024-09-07T11:19:06Z</time>
      </trkpt>
      <trkpt lat="48.27679" lon="-3.56888">
        <ele>135.4</ele>
        <time>2024-09-07T11:19:07Z</time>
      </trkpt>
      <trkpt lat="48.2768" lon="-3.56885">
        <ele>135.4</ele>
        <time>2024-09-07T11:19:08Z</time>
      </trkpt>
      <trkpt lat="48.27681" lon="-3.56882">
        <ele>135.2</ele>
        <time>2024-09-07T11:19:09Z</time>
      </trkpt>
      <trkpt lat="48.27682" lon="-3.56879">
        <ele>135.2</ele>
        <time>2024-09-07T11:19:10Z</time>
      </trkpt>
      <trkpt lat="48.27684" lon="-3.56876">
        <ele>135.2</ele>
        <time>2024-09-07T11:19:11Z</time>
      </trkpt>
      <trkpt lat="48.27685" lon="-3.56872">
        <ele>135.2</ele>
        <time>2024-09-07T11:19:12Z</time>
      </trkpt>
      <trkpt lat="48.27685" lon="-3.56868">
        <ele>135</ele>
        <time>2024-09-07T11:19:13Z</time>
      </trkpt>
      <trkpt lat="48.27685" lon="-3.56864">
        <ele>135</ele>
        <time>2024-09-07T11:19:14Z</time>
      </trkpt>
      <trkpt lat="48.27686" lon="-3.56859">
        <ele>134.8</ele>
        <time>2024-09-07T11:19:15Z</time>
      </trkpt>
      <trkpt lat="48.27687" lon="-3.56854">
        <ele>134.8</ele>
        <time>2024-09-07T11:19:16Z</time>
      </trkpt>
      <trkpt lat="48.27687" lon="-3.56849">
        <ele>134.8</ele>
        <time>2024-09-07T11:19:17Z</time>
      </trkpt>
      <trkpt lat="48.27688" lon="-3.56844">
        <ele>134.8</ele>
        <time>2024-09-07T11:19:18Z</time>
      </trkpt>
      <trkpt lat="48.27689" lon="-3.56839">
        <ele>134.6</ele>
        <time>2024-09-07T11:19:19Z</time>
      </trkpt>
      <trkpt lat="48.2769" lon="-3.56835">
        <ele>134.6</ele>
        <time>2024-09-07T11:19:20Z</time>
      </trkpt>
      <trkpt lat="48.27691" lon="-3.56829">
        <ele>134.6</ele>
        <time>2024-09-07T11:19:21Z</time>
      </trkpt>
      <trkpt lat="48.27692" lon="-3.56823">
        <ele>134.4</ele>
        <time>2024-09-07T11:19:22Z</time>
      </trkpt>
      <trkpt lat="48.27693" lon="-3.5682">
        <ele>134.4</ele>
        <time>2024-09-07T11:19:23Z</time>
      </trkpt>
      <trkpt lat="48.27694" lon="-3.56815">
        <ele>134.4</ele>
        <time>2024-09-07T11:19:24Z</time>
      </trkpt>
      <trkpt lat="48.27695" lon="-3.5681">
        <ele>134.2</ele>
        <time>2024-09-07T11:19:25Z</time>
      </trkpt>
      <trkpt lat="48.27696" lon="-3.56807">
        <ele>134.2</ele>
        <time>2024-09-07T11:19:26Z</time>
      </trkpt>
      <trkpt lat="48.27696" lon="-3.56803">
        <ele>134.2</ele>
        <time>2024-09-07T11:19:27Z</time>
      </trkpt>
      <trkpt lat="48.27697" lon="-3.56798">
        <ele>134.2</ele>
        <time>2024-09-07T11:19:28Z</time>
      </trkpt>
      <trkpt lat="48.27697" lon="-3.56795">
        <ele>134</ele>
        <time>2024-09-07T11:19:29Z</time>
      </trkpt>
      <trkpt lat="48.27698" lon="-3.56791">
        <ele>134</ele>
        <time>2024-09-07T11:19:30Z</time>
      </trkpt>
      <trkpt lat="48.27699" lon="-3.56787">
        <ele>133.8</ele>
        <time>2024-09-07T11:19:31Z</time>
      </trkpt>
      <trkpt lat="48.277" lon="-3.56784">
        <ele>133.8</ele>
        <time>2024-09-07T11:19:32Z</time>
      </trkpt>
      <trkpt lat="48.27701" lon="-3.5678">
        <ele>133.6</ele>
        <time>2024-09-07T11:19:33Z</time>
      </trkpt>
      <trkpt lat="48.27702" lon="-3.56776">
        <ele>133.6</ele>
        <time>2024-09-07T11:19:34Z</time>
      </trkpt>
      <trkpt lat="48.27702" lon="-3.56772">
        <ele>133.4</ele>
        <time>2024-09-07T11:19:35Z</time>
      </trkpt>
      <trkpt lat="48.27703" lon="-3.56766">
        <ele>133.4</ele>
        <time>2024-09-07T11:19:36Z</time>
      </trkpt>
      <trkpt lat="48.27704" lon="-3.56761">
        <ele>133.4</ele>
        <time>2024-09-07T11:19:37Z</time>
      </trkpt>
      <trkpt lat="48.27705" lon="-3.56756">
        <ele>133.2</ele>
        <time>2024-09-07T11:19:38Z</time>
      </trkpt>
      <trkpt lat="48.27707" lon="-3.5675">
        <ele>133.2</ele>
        <time>2024-09-07T11:19:39Z</time>
      </trkpt>
      <trkpt lat="48.27708" lon="-3.56746">
        <ele>133</ele>
        <time>2024-09-07T11:19:40Z</time>
      </trkpt>
      <trkpt lat="48.27708" lon="-3.5674">
        <ele>132.8</ele>
        <time>2024-09-07T11:19:41Z</time>
      </trkpt>
      <trkpt lat="48.2771" lon="-3.56733">
        <ele>132.8</ele>
        <time>2024-09-07T11:19:42Z</time>
      </trkpt>
      <trkpt lat="48.27711" lon="-3.56729">
        <ele>132.6</ele>
        <time>2024-09-07T11:19:43Z</time>
      </trkpt>
      <trkpt lat="48.27712" lon="-3.56723">
        <ele>132.4</ele>
        <time>2024-09-07T11:19:44Z</time>
      </trkpt>
      <trkpt lat="48.27713" lon="-3.56716">
        <ele>132.4</ele>
        <time>2024-09-07T11:19:45Z</time>
      </trkpt>
      <trkpt lat="48.27713" lon="-3.56711">
        <ele>132.2</ele>
        <time>2024-09-07T11:19:46Z</time>
      </trkpt>
      <trkpt lat="48.27714" lon="-3.56706">
        <ele>132</ele>
        <time>2024-09-07T11:19:47Z</time>
      </trkpt>
      <trkpt lat="48.27715" lon="-3.567">
        <ele>131.8</ele>
        <time>2024-09-07T11:19:48Z</time>
      </trkpt>
      <trkpt lat="48.27715" lon="-3.56697">
        <ele>131.6</ele>
        <time>2024-09-07T11:19:49Z</time>
      </trkpt>
      <trkpt lat="48.27715" lon="-3.56694">
        <ele>131.4</ele>
        <time>2024-09-07T11:19:50Z</time>
      </trkpt>
      <trkpt lat="48.27715" lon="-3.56691">
        <ele>131.2</ele>
        <time>2024-09-07T11:19:51Z</time>
      </trkpt>
      <trkpt lat="48.27715" lon="-3.56691">
        <ele>131.2</ele>
        <time>2024-09-07T11:19:52Z</time>
      </trkpt>
      <trkpt lat="48.27715" lon="-3.56691">
        <ele>131</ele>
        <time>2024-09-07T11:19:53Z</time>
      </trkpt>
      <trkpt lat="48.27715" lon="-3.56691">
        <ele>130.8</ele>
        <time>2024-09-07T11:19:54Z</time>
      </trkpt>
      <trkpt lat="48.27715" lon="-3.56698">
        <ele>133.6</ele>
        <time>2024-09-07T12:25:13Z</time>
      </trkpt>
      <trkpt lat="48.27715" lon="-3.567">
        <ele>133.6</ele>
        <time>2024-09-07T12:25:14Z</time>
      </trkpt>
      <trkpt lat="48.27715" lon="-3.56702">
        <ele>133.6</ele>
        <time>2024-09-07T12:25:15Z</time>
      </trkpt>
      <trkpt lat="48.27713" lon="-3.56705">
        <ele>133.6</ele>
        <time>2024-09-07T12:25:16Z</time>
      </trkpt>
      <trkpt lat="48.27713" lon="-3.56707">
        <ele>133.6</ele>
        <time>2024-09-07T12:25:17Z</time>
      </trkpt>
      <trkpt lat="48.27712" lon="-3.5671">
        <ele>133.8</ele>
        <time>2024-09-07T12:25:18Z</time>
      </trkpt>
      <trkpt lat="48.27712" lon="-3.56713">
        <ele>133.8</ele>
        <time>2024-09-07T12:25:19Z</time>
      </trkpt>
      <trkpt lat="48.27711" lon="-3.56716">
        <ele>133.8</ele>
        <time>2024-09-07T12:25:20Z</time>
      </trkpt>
      <trkpt lat="48.2771" lon="-3.56719">
        <ele>133.8</ele>
        <time>2024-09-07T12:25:21Z</time>
      </trkpt>
      <trkpt lat="48.2771" lon="-3.56723">
        <ele>133.8</ele>
        <time>2024-09-07T12:25:22Z</time>
      </trkpt>
      <trkpt lat="48.27709" lon="-3.56726">
        <ele>133.8</ele>
        <time>2024-09-07T12:25:23Z</time>
      </trkpt>
      <trkpt lat="48.27708" lon="-3.5673">
        <ele>134</ele>
        <time>2024-09-07T12:25:24Z</time>
      </trkpt>
      <trkpt lat="48.27708" lon="-3.56734">
        <ele>134</ele>
        <time>2024-09-07T12:25:25Z</time>
      </trkpt>
      <trkpt lat="48.27707" lon="-3.56737">
        <ele>134.2</ele>
        <time>2024-09-07T12:25:26Z</time>
      </trkpt>
      <trkpt lat="48.27707" lon="-3.56741">
        <ele>134.4</ele>
        <time>2024-09-07T12:25:27Z</time>
      </trkpt>
      <trkpt lat="48.27707" lon="-3.56744">
        <ele>134.4</ele>
        <time>2024-09-07T12:25:28Z</time>
      </trkpt>
      <trkpt lat="48.27706" lon="-3.56748">
        <ele>134.6</ele>
        <time>2024-09-07T12:25:29Z</time>
      </trkpt>
      <trkpt lat="48.27705" lon="-3.56751">
        <ele>134.6</ele>
        <time>2024-09-07T12:25:30Z</time>
      </trkpt>
      <trkpt lat="48.27704" lon="-3.56754">
        <ele>134.6</ele>
        <time>2024-09-07T12:25:31Z</time>
      </trkpt>
      <trkpt lat="48.27704" lon="-3.56757">
        <ele>134.6</ele>
        <time>2024-09-07T12:25:32Z</time>
      </trkpt>
      <trkpt lat="48.27704" lon="-3.5676">
        <ele>135</ele>
        <time>2024-09-07T12:25:33Z</time>
      </trkpt>
      <trkpt lat="48.27703" lon="-3.56764">
        <ele>135</ele>
        <time>2024-09-07T12:25:34Z</time>
      </trkpt>
      <trkpt lat="48.27703" lon="-3.56767">
        <ele>135.2</ele>
        <time>2024-09-07T12:25:35Z</time>
      </trkpt>
      <trkpt lat="48.27703" lon="-3.56771">
        <ele>135.4</ele>
        <time>2024-09-07T12:25:36Z</time>
      </trkpt>
      <trkpt lat="48.27702" lon="-3.56775">
        <ele>135.6</ele>
        <time>2024-09-07T12:25:37Z</time>
      </trkpt>
      <trkpt lat="48.27702" lon="-3.56778">
        <ele>135.6</ele>
        <time>2024-09-07T12:25:38Z</time>
      </trkpt>
      <trkpt lat="48.27701" lon="-3.56781">
        <ele>135.8</ele>
        <time>2024-09-07T12:25:39Z</time>
      </trkpt>
      <trkpt lat="48.27701" lon="-3.56784">
        <ele>136</ele>
        <time>2024-09-07T12:25:40Z</time>
      </trkpt>
      <trkpt lat="48.277" lon="-3.56788">
        <ele>136.2</ele>
        <time>2024-09-07T12:25:41Z</time>
      </trkpt>
      <trkpt lat="48.27699" lon="-3.56791">
        <ele>136.4</ele>
        <time>2024-09-07T12:25:42Z</time>
      </trkpt>
      <trkpt lat="48.27699" lon="-3.56794">
        <ele>136.4</ele>
        <time>2024-09-07T12:25:43Z</time>
      </trkpt>
      <trkpt lat="48.27698" lon="-3.56797">
        <ele>136.6</ele>
        <time>2024-09-07T12:25:44Z</time>
      </trkpt>
      <trkpt lat="48.27697" lon="-3.568">
        <ele>136.8</ele>
        <time>2024-09-07T12:25:45Z</time>
      </trkpt>
      <trkpt lat="48.27697" lon="-3.56803">
        <ele>137</ele>
        <time>2024-09-07T12:25:46Z</time>
      </trkpt>
      <trkpt lat="48.27696" lon="-3.56807">
        <ele>137</ele>
        <time>2024-09-07T12:25:47Z</time>
      </trkpt>
      <trkpt lat="48.27695" lon="-3.5681">
        <ele>137.2</ele>
        <time>2024-09-07T12:25:48Z</time>
      </trkpt>
      <trkpt lat="48.27695" lon="-3.56813">
        <ele>137.4</ele>
        <time>2024-09-07T12:25:49Z</time>
      </trkpt>
      <trkpt lat="48.27694" lon="-3.56816">
        <ele>137.4</ele>
        <time>2024-09-07T12:25:50Z</time>
      </trkpt>
      <trkpt lat="48.27693" lon="-3.5682">
        <ele>137.6</ele>
        <time>2024-09-07T12:25:51Z</time>
      </trkpt>
      <trkpt lat="48.27693" lon="-3.56824">
        <ele>137.8</ele>
        <time>2024-09-07T12:25:52Z</time>
      </trkpt>
      <trkpt lat="48.27693" lon="-3.56827">
        <ele>137.8</ele>
        <time>2024-09-07T12:25:53Z</time>
      </trkpt>
      <trkpt lat="48.27692" lon="-3.56831">
        <ele>138</ele>
        <time>2024-09-07T12:25:54Z</time>
      </trkpt>
      <trkpt lat="48.27691" lon="-3.56834">
        <ele>138</ele>
        <time>2024-09-07T12:25:55Z</time>
      </trkpt>
      <trkpt lat="48.27691" lon="-3.56837">
        <ele>138</ele>
        <time>2024-09-07T12:25:56Z</time>
      </trkpt>
      <trkpt lat="48.2769" lon="-3.56841">
        <ele>138.2</ele>
        <time>2024-09-07T12:25:57Z</time>
      </trkpt>
      <trkpt lat="48.27689" lon="-3.56845">
        <ele>138.2</ele>
        <time>2024-09-07T12:25:58Z</time>
      </trkpt>
      <trkpt lat="48.27689" lon="-3.56849">
        <ele>138.4</ele>
        <time>2024-09-07T12:25:59Z</time>
      </trkpt>
      <trkpt lat="48.27688" lon="-3.56853">
        <ele>138.4</ele>
        <time>2024-09-07T12:26:00Z</time>
      </trkpt>
      <trkpt lat="48.27687" lon="-3.56857">
        <ele>138.4</ele>
        <time>2024-09-07T12:26:01Z</time>
      </trkpt>
      <trkpt lat="48.27686" lon="-3.56861">
        <ele>138.4</ele>
        <time>2024-09-07T12:26:02Z</time>
      </trkpt>
      <trkpt lat="48.27685" lon="-3.56864">
        <ele>138.4</ele>
        <time>2024-09-07T12:26:03Z</time>
      </trkpt>
      <trkpt lat="48.27684" lon="-3.56868">
        <ele>138.6</ele>
        <time>2024-09-07T12:26:04Z</time>
      </trkpt>
      <trkpt lat="48.27683" lon="-3.56872">
        <ele>138.6</ele>
        <time>2024-09-07T12:26:05Z</time>
      </trkpt>
      <trkpt lat="48.27683" lon="-3.56876">
        <ele>138.8</ele>
        <time>2024-09-07T12:26:06Z</time>
      </trkpt>
      <trkpt lat="48.27682" lon="-3.5688">
        <ele>138.8</ele>
        <time>2024-09-07T12:26:07Z</time>
      </trkpt>
      <trkpt lat="48.27682" lon="-3.56884">
        <ele>138.8</ele>
        <time>2024-09-07T12:26:08Z</time>
      </trkpt>
      <trkpt lat="48.27681" lon="-3.56888">
        <ele>139</ele>
        <time>2024-09-07T12:26:09Z</time>
      </trkpt>
      <trkpt lat="48.2768" lon="-3.56892">
        <ele>139</ele>
        <time>2024-09-07T12:26:10Z</time>
      </trkpt>
      <trkpt lat="48.27679" lon="-3.56896">
        <ele>139.2</ele>
        <time>2024-09-07T12:26:11Z</time>
      </trkpt>
      <trkpt lat="48.27679" lon="-3.569">
        <ele>139.2</ele>
        <time>2024-09-07T12:26:12Z</time>
      </trkpt>
      <trkpt lat="48.27678" lon="-3.56904">
        <ele>139.4</ele>
        <time>2024-09-07T12:26:13Z</time>
      </trkpt>
      <trkpt lat="48.27677" lon="-3.56908">
        <ele>139.4</ele>
        <time>2024-09-07T12:26:14Z</time>
      </trkpt>
      <trkpt lat="48.27676" lon="-3.56912">
        <ele>139.6</ele>
        <time>2024-09-07T12:26:15Z</time>
      </trkpt>
      <trkpt lat="48.27675" lon="-3.56916">
        <ele>139.6</ele>
        <time>2024-09-07T12:26:16Z</time>
      </trkpt>
      <trkpt lat="48.27674" lon="-3.5692">
        <ele>139.6</ele>
        <time>2024-09-07T12:26:17Z</time>
      </trkpt>
      <trkpt lat="48.27674" lon="-3.56924">
        <ele>139.8</ele>
        <time>2024-09-07T12:26:18Z</time>
      </trkpt>
      <trkpt lat="48.27672" lon="-3.56928">
        <ele>139.8</ele>
        <time>2024-09-07T12:26:19Z</time>
      </trkpt>
      <trkpt lat="48.27672" lon="-3.56932">
        <ele>140</ele>
        <time>2024-09-07T12:26:20Z</time>
      </trkpt>
      <trkpt lat="48.27671" lon="-3.56936">
        <ele>140</ele>
        <time>2024-09-07T12:26:21Z</time>
      </trkpt>
      <trkpt lat="48.27671" lon="-3.56939">
        <ele>140</ele>
        <time>2024-09-07T12:26:22Z</time>
      </trkpt>
      <trkpt lat="48.2767" lon="-3.56943">
        <ele>140.2</ele>
        <time>2024-09-07T12:26:23Z</time>
      </trkpt>
      <trkpt lat="48.2767" lon="-3.56947">
        <ele>140.4</ele>
        <time>2024-09-07T12:26:24Z</time>
      </trkpt>
      <trkpt lat="48.27669" lon="-3.56951">
        <ele>140.4</ele>
        <time>2024-09-07T12:26:25Z</time>
      </trkpt>
      <trkpt lat="48.27669" lon="-3.56954">
        <ele>140.6</ele>
        <time>2024-09-07T12:26:26Z</time>
      </trkpt>
      <trkpt lat="48.27668" lon="-3.56958">
        <ele>140.6</ele>
        <time>2024-09-07T12:26:27Z</time>
      </trkpt>
      <trkpt lat="48.27667" lon="-3.56962">
        <ele>140.8</ele>
        <time>2024-09-07T12:26:28Z</time>
      </trkpt>
      <trkpt lat="48.27667" lon="-3.56966">
        <ele>140.8</ele>
        <time>2024-09-07T12:26:29Z</time>
      </trkpt>
      <trkpt lat="48.27666" lon="-3.56971">
        <ele>141.2</ele>
        <time>2024-09-07T12:26:30Z</time>
      </trkpt>
      <trkpt lat="48.27666" lon="-3.56975">
        <ele>141.2</ele>
        <time>2024-09-07T12:26:31Z</time>
      </trkpt>
      <trkpt lat="48.27665" lon="-3.56979">
        <ele>141.2</ele>
        <time>2024-09-07T12:26:32Z</time>
      </trkpt>
      <trkpt lat="48.27665" lon="-3.56984">
        <ele>141.2</ele>
        <time>2024-09-07T12:26:33Z</time>
      </trkpt>
      <trkpt lat="48.27664" lon="-3.56987">
        <ele>141.2</ele>
        <time>2024-09-07T12:26:34Z</time>
      </trkpt>
      <trkpt lat="48.27664" lon="-3.56991">
        <ele>141.2</ele>
        <time>2024-09-07T12:26:35Z</time>
      </trkpt>
      <trkpt lat="48.27663" lon="-3.56995">
        <ele>141.2</ele>
        <time>2024-09-07T12:26:36Z</time>
      </trkpt>
      <trkpt lat="48.27663" lon="-3.57">
        <ele>141.2</ele>
        <time>2024-09-07T12:26:37Z</time>
      </trkpt>
      <trkpt lat="48.27663" lon="-3.57004">
        <ele>141.2</ele>
        <time>2024-09-07T12:26:38Z</time>
      </trkpt>
      <trkpt lat="48.27663" lon="-3.57008">
        <ele>141.2</ele>
        <time>2024-09-07T12:26:39Z</time>
      </trkpt>
      <trkpt lat="48.27662" lon="-3.57012">
        <ele>141.2</ele>
        <time>2024-09-07T12:26:40Z</time>
      </trkpt>
      <trkpt lat="48.27662" lon="-3.57017">
        <ele>141.2</ele>
        <time>2024-09-07T12:26:41Z</time>
      </trkpt>
      <trkpt lat="48.27661" lon="-3.57021">
        <ele>141.2</ele>
        <time>2024-09-07T12:26:42Z</time>
      </trkpt>
      <trkpt lat="48.27661" lon="-3.57025">
        <ele>141.2</ele>
        <time>2024-09-07T12:26:43Z</time>
      </trkpt>
      <trkpt lat="48.2766" lon="-3.57029">
        <ele>141.4</ele>
        <time>2024-09-07T12:26:44Z</time>
      </trkpt>
      <trkpt lat="48.2766" lon="-3.57034">
        <ele>141.4</ele>
        <time>2024-09-07T12:26:45Z</time>
      </trkpt>
      <trkpt lat="48.2766" lon="-3.57037">
        <ele>141.4</ele>
        <time>2024-09-07T12:26:46Z</time>
      </trkpt>
      <trkpt lat="48.2766" lon="-3.57042">
        <ele>141.4</ele>
        <time>2024-09-07T12:26:47Z</time>
      </trkpt>
      <trkpt lat="48.27659" lon="-3.57047">
        <ele>141.4</ele>
        <time>2024-09-07T12:26:48Z</time>
      </trkpt>
      <trkpt lat="48.27659" lon="-3.57052">
        <ele>141.4</ele>
        <time>2024-09-07T12:26:49Z</time>
      </trkpt>
      <trkpt lat="48.27658" lon="-3.57057">
        <ele>141.4</ele>
        <time>2024-09-07T12:26:50Z</time>
      </trkpt>
      <trkpt lat="48.27658" lon="-3.57061">
        <ele>141.8</ele>
        <time>2024-09-07T12:26:51Z</time>
      </trkpt>
      <trkpt lat="48.27658" lon="-3.57064">
        <ele>141.8</ele>
        <time>2024-09-07T12:26:52Z</time>
      </trkpt>
      <trkpt lat="48.27657" lon="-3.57068">
        <ele>141.8</ele>
        <time>2024-09-07T12:26:53Z</time>
      </trkpt>
      <trkpt lat="48.27657" lon="-3.57072">
        <ele>141.8</ele>
        <time>2024-09-07T12:26:54Z</time>
      </trkpt>
      <trkpt lat="48.27657" lon="-3.57076">
        <ele>141.8</ele>
        <time>2024-09-07T12:26:55Z</time>
      </trkpt>
      <trkpt lat="48.27657" lon="-3.57079">
        <ele>141.8</ele>
        <time>2024-09-07T12:26:56Z</time>
      </trkpt>
      <trkpt lat="48.27657" lon="-3.57082">
        <ele>141.8</ele>
        <time>2024-09-07T12:26:57Z</time>
      </trkpt>
      <trkpt lat="48.27658" lon="-3.57086">
        <ele>141.8</ele>
        <time>2024-09-07T12:26:58Z</time>
      </trkpt>
      <trkpt lat="48.27659" lon="-3.57089">
        <ele>141.8</ele>
        <time>2024-09-07T12:26:59Z</time>
      </trkpt>
      <trkpt lat="48.27661" lon="-3.5709">
        <ele>141.8</ele>
        <time>2024-09-07T12:27:00Z</time>
      </trkpt>
      <trkpt lat="48.27663" lon="-3.57091">
        <ele>141.8</ele>
        <time>2024-09-07T12:27:01Z</time>
      </trkpt>
      <trkpt lat="48.27665" lon="-3.57092">
        <ele>141.8</ele>
        <time>2024-09-07T12:27:02Z</time>
      </trkpt>
      <trkpt lat="48.27665" lon="-3.57093">
        <ele>141.8</ele>
        <time>2024-09-07T12:27:03Z</time>
      </trkpt>
      <trkpt lat="48.27665" lon="-3.57093">
        <ele>141.8</ele>
        <time>2024-09-07T12:27:04Z</time>
      </trkpt>
      <trkpt lat="48.27668" lon="-3.57101">
        <ele>142.2</ele>
        <time>2024-09-07T12:27:15Z</time>
      </trkpt>
      <trkpt lat="48.27667" lon="-3.57103">
        <ele>142.2</ele>
        <time>2024-09-07T12:27:16Z</time>
      </trkpt>
      <trkpt lat="48.27666" lon="-3.57105">
        <ele>142.2</ele>
        <time>2024-09-07T12:27:17Z</time>
      </trkpt>
      <trkpt lat="48.27666" lon="-3.57105">
        <ele>142.2</ele>
        <time>2024-09-07T12:27:18Z</time>
      </trkpt>
      <trkpt lat="48.27665" lon="-3.57106">
        <ele>142.2</ele>
        <time>2024-09-07T12:27:19Z</time>
      </trkpt>
      <trkpt lat="48.27655" lon="-3.57114">
        <ele>142.2</ele>
        <time>2024-09-07T12:31:40Z</time>
      </trkpt>
      <trkpt lat="48.27654" lon="-3.57116">
        <ele>142.2</ele>
        <time>2024-09-07T12:31:41Z</time>
      </trkpt>
      <trkpt lat="48.27654" lon="-3.57119">
        <ele>142.2</ele>
        <time>2024-09-07T12:31:42Z</time>
      </trkpt>
      <trkpt lat="48.27654" lon="-3.57122">
        <ele>142.2</ele>
        <time>2024-09-07T12:31:43Z</time>
      </trkpt>
      <trkpt lat="48.27653" lon="-3.57125">
        <ele>142.4</ele>
        <time>2024-09-07T12:31:44Z</time>
      </trkpt>
      <trkpt lat="48.27653" lon="-3.57128">
        <ele>142.4</ele>
        <time>2024-09-07T12:31:45Z</time>
      </trkpt>
      <trkpt lat="48.27652" lon="-3.57131">
        <ele>142.4</ele>
        <time>2024-09-07T12:31:46Z</time>
      </trkpt>
      <trkpt lat="48.27652" lon="-3.57135">
        <ele>142.4</ele>
        <time>2024-09-07T12:31:47Z</time>
      </trkpt>
      <trkpt lat="48.27651" lon="-3.5714">
        <ele>142.6</ele>
        <time>2024-09-07T12:31:48Z</time>
      </trkpt>
      <trkpt lat="48.27651" lon="-3.57143">
        <ele>142.6</ele>
        <time>2024-09-07T12:31:49Z</time>
      </trkpt>
      <trkpt lat="48.2765" lon="-3.57147">
        <ele>142.6</ele>
        <time>2024-09-07T12:31:50Z</time>
      </trkpt>
      <trkpt lat="48.2765" lon="-3.57151">
        <ele>142.6</ele>
        <time>2024-09-07T12:31:51Z</time>
      </trkpt>
      <trkpt lat="48.27649" lon="-3.57154">
        <ele>142.6</ele>
        <time>2024-09-07T12:31:52Z</time>
      </trkpt>
      <trkpt lat="48.27648" lon="-3.57158">
        <ele>142.6</ele>
        <time>2024-09-07T12:31:53Z</time>
      </trkpt>
      <trkpt lat="48.27648" lon="-3.57162">
        <ele>142.8</ele>
        <time>2024-09-07T12:31:54Z</time>
      </trkpt>
      <trkpt lat="48.27647" lon="-3.57166">
        <ele>142.8</ele>
        <time>2024-09-07T12:31:55Z</time>
      </trkpt>
      <trkpt lat="48.27646" lon="-3.5717">
        <ele>142.8</ele>
        <time>2024-09-07T12:31:56Z</time>
      </trkpt>
      <trkpt lat="48.27646" lon="-3.57174">
        <ele>142.8</ele>
        <time>2024-09-07T12:31:57Z</time>
      </trkpt>
      <trkpt lat="48.27645" lon="-3.57179">
        <ele>142.8</ele>
        <time>2024-09-07T12:31:58Z</time>
      </trkpt>
      <trkpt lat="48.27645" lon="-3.57184">
        <ele>142.8</ele>
        <time>2024-09-07T12:31:59Z</time>
      </trkpt>
      <trkpt lat="48.27644" lon="-3.5719">
        <ele>142.8</ele>
        <time>2024-09-07T12:32:00Z</time>
      </trkpt>
      <trkpt lat="48.27643" lon="-3.57195">
        <ele>142.8</ele>
        <time>2024-09-07T12:32:01Z</time>
      </trkpt>
      <trkpt lat="48.27642" lon="-3.57199">
        <ele>142.8</ele>
        <time>2024-09-07T12:32:02Z</time>
      </trkpt>
      <trkpt lat="48.27641" lon="-3.57204">
        <ele>142.8</ele>
        <time>2024-09-07T12:32:03Z</time>
      </trkpt>
      <trkpt lat="48.2764" lon="-3.57208">
        <ele>142.8</ele>
        <time>2024-09-07T12:32:04Z</time>
      </trkpt>
      <trkpt lat="48.27639" lon="-3.57212">
        <ele>142.8</ele>
        <time>2024-09-07T12:32:05Z</time>
      </trkpt>
      <trkpt lat="48.27638" lon="-3.57217">
        <ele>142.8</ele>
        <time>2024-09-07T12:32:06Z</time>
      </trkpt>
      <trkpt lat="48.27637" lon="-3.57222">
        <ele>142.8</ele>
        <time>2024-09-07T12:32:07Z</time>
      </trkpt>
      <trkpt lat="48.27636" lon="-3.57227">
        <ele>142.8</ele>
        <time>2024-09-07T12:32:08Z</time>
      </trkpt>
      <trkpt lat="48.27635" lon="-3.57232">
        <ele>142.8</ele>
        <time>2024-09-07T12:32:09Z</time>
      </trkpt>
      <trkpt lat="48.27634" lon="-3.57239">
        <ele>142.6</ele>
        <time>2024-09-07T12:32:10Z</time>
      </trkpt>
      <trkpt lat="48.27633" lon="-3.57246">
        <ele>142.6</ele>
        <time>2024-09-07T12:32:11Z</time>
      </trkpt>
      <trkpt lat="48.27632" lon="-3.57252">
        <ele>142.6</ele>
        <time>2024-09-07T12:32:12Z</time>
      </trkpt>
      <trkpt lat="48.27631" lon="-3.57258">
        <ele>142.6</ele>
        <time>2024-09-07T12:32:13Z</time>
      </trkpt>
      <trkpt lat="48.27629" lon="-3.57263">
        <ele>142.6</ele>
        <time>2024-09-07T12:32:14Z</time>
      </trkpt>
      <trkpt lat="48.27628" lon="-3.57269">
        <ele>142.6</ele>
        <time>2024-09-07T12:32:15Z</time>
      </trkpt>
      <trkpt lat="48.27627" lon="-3.57275">
        <ele>142.6</ele>
        <time>2024-09-07T12:32:16Z</time>
      </trkpt>
      <trkpt lat="48.27627" lon="-3.5728">
        <ele>142.6</ele>
        <time>2024-09-07T12:32:17Z</time>
      </trkpt>
      <trkpt lat="48.27626" lon="-3.57286">
        <ele>142.6</ele>
        <time>2024-09-07T12:32:18Z</time>
      </trkpt>
      <trkpt lat="48.27626" lon="-3.57292">
        <ele>142.6</ele>
        <time>2024-09-07T12:32:19Z</time>
      </trkpt>
      <trkpt lat="48.27625" lon="-3.57298">
        <ele>142.6</ele>
        <time>2024-09-07T12:32:20Z</time>
      </trkpt>
      <trkpt lat="48.27625" lon="-3.57304">
        <ele>142.6</ele>
        <time>2024-09-07T12:32:21Z</time>
      </trkpt>
      <trkpt lat="48.27625" lon="-3.57309">
        <ele>142.6</ele>
        <time>2024-09-07T12:32:22Z</time>
      </trkpt>
      <trkpt lat="48.27626" lon="-3.57314">
        <ele>142.6</ele>
        <time>2024-09-07T12:32:23Z</time>
      </trkpt>
      <trkpt lat="48.27626" lon="-3.5732">
        <ele>142.6</ele>
        <time>2024-09-07T12:32:24Z</time>
      </trkpt>
      <trkpt lat="48.27626" lon="-3.57325">
        <ele>142.6</ele>
        <time>2024-09-07T12:32:25Z</time>
      </trkpt>
      <trkpt lat="48.27626" lon="-3.5733">
        <ele>142.6</ele>
        <time>2024-09-07T12:32:26Z</time>
      </trkpt>
      <trkpt lat="48.27626" lon="-3.57335">
        <ele>142.4</ele>
        <time>2024-09-07T12:32:27Z</time>
      </trkpt>
      <trkpt lat="48.27626" lon="-3.5734">
        <ele>142.4</ele>
        <time>2024-09-07T12:32:28Z</time>
      </trkpt>
      <trkpt lat="48.27627" lon="-3.57345">
        <ele>142.4</ele>
        <time>2024-09-07T12:32:29Z</time>
      </trkpt>
      <trkpt lat="48.27627" lon="-3.57349">
        <ele>142.4</ele>
        <time>2024-09-07T12:32:30Z</time>
      </trkpt>
      <trkpt lat="48.27628" lon="-3.57353">
        <ele>142.4</ele>
        <time>2024-09-07T12:32:31Z</time>
      </trkpt>
      <trkpt lat="48.27628" lon="-3.57358">
        <ele>142.4</ele>
        <time>2024-09-07T12:32:32Z</time>
      </trkpt>
      <trkpt lat="48.27628" lon="-3.57362">
        <ele>142.4</ele>
        <time>2024-09-07T12:32:33Z</time>
      </trkpt>
      <trkpt lat="48.27629" lon="-3.57368">
        <ele>142.4</ele>
        <time>2024-09-07T12:32:34Z</time>
      </trkpt>
      <trkpt lat="48.27629" lon="-3.57372">
        <ele>142.4</ele>
        <time>2024-09-07T12:32:35Z</time>
      </trkpt>
      <trkpt lat="48.27629" lon="-3.57376">
        <ele>142.4</ele>
        <time>2024-09-07T12:32:36Z</time>
      </trkpt>
      <trkpt lat="48.27629" lon="-3.5738">
        <ele>142.4</ele>
        <time>2024-09-07T12:32:37Z</time>
      </trkpt>
      <trkpt lat="48.27629" lon="-3.57384">
        <ele>142.4</ele>
        <time>2024-09-07T12:32:38Z</time>
      </trkpt>
      <trkpt lat="48.27629" lon="-3.57389">
        <ele>142.4</ele>
        <time>2024-09-07T12:32:39Z</time>
      </trkpt>
      <trkpt lat="48.27629" lon="-3.57395">
        <ele>142.4</ele>
        <time>2024-09-07T12:32:40Z</time>
      </trkpt>
      <trkpt lat="48.27629" lon="-3.574">
        <ele>142.4</ele>
        <time>2024-09-07T12:32:41Z</time>
      </trkpt>
      <trkpt lat="48.27629" lon="-3.57403">
        <ele>142.4</ele>
        <time>2024-09-07T12:32:42Z</time>
      </trkpt>
      <trkpt lat="48.27628" lon="-3.57406">
        <ele>142.4</ele>
        <time>2024-09-07T12:32:43Z</time>
      </trkpt>
      <trkpt lat="48.27627" lon="-3.5741">
        <ele>142.2</ele>
        <time>2024-09-07T12:32:44Z</time>
      </trkpt>
      <trkpt lat="48.27626" lon="-3.57413">
        <ele>142.2</ele>
        <time>2024-09-07T12:32:45Z</time>
      </trkpt>
      <trkpt lat="48.27624" lon="-3.57416">
        <ele>142</ele>
        <time>2024-09-07T12:32:46Z</time>
      </trkpt>
      <trkpt lat="48.27623" lon="-3.57421">
        <ele>141.8</ele>
        <time>2024-09-07T12:32:47Z</time>
      </trkpt>
      <trkpt lat="48.27622" lon="-3.57425">
        <ele>141.8</ele>
        <time>2024-09-07T12:32:48Z</time>
      </trkpt>
      <trkpt lat="48.27621" lon="-3.57428">
        <ele>141.8</ele>
        <time>2024-09-07T12:32:49Z</time>
      </trkpt>
      <trkpt lat="48.27621" lon="-3.57431">
        <ele>141.8</ele>
        <time>2024-09-07T12:32:50Z</time>
      </trkpt>
      <trkpt lat="48.27621" lon="-3.57433">
        <ele>141.6</ele>
        <time>2024-09-07T12:32:51Z</time>
      </trkpt>
      <trkpt lat="48.27621" lon="-3.57435">
        <ele>141.6</ele>
        <time>2024-09-07T12:32:52Z</time>
      </trkpt>
      <trkpt lat="48.2762" lon="-3.57436">
        <ele>141.6</ele>
        <time>2024-09-07T12:32:53Z</time>
      </trkpt>
      <trkpt lat="48.2762" lon="-3.57436">
        <ele>141.4</ele>
        <time>2024-09-07T12:32:54Z</time>
      </trkpt>
      <trkpt lat="48.27618" lon="-3.57448">
        <ele>140.4</ele>
        <time>2024-09-07T12:33:22Z</time>
      </trkpt>
      <trkpt lat="48.27617" lon="-3.57451">
        <ele>140.4</ele>
        <time>2024-09-07T12:33:23Z</time>
      </trkpt>
      <trkpt lat="48.27617" lon="-3.57455">
        <ele>140.4</ele>
        <time>2024-09-07T12:33:24Z</time>
      </trkpt>
      <trkpt lat="48.27616" lon="-3.57459">
        <ele>140.4</ele>
        <time>2024-09-07T12:33:25Z</time>
      </trkpt>
      <trkpt lat="48.27616" lon="-3.57463">
        <ele>140.4</ele>
        <time>2024-09-07T12:33:26Z</time>
      </trkpt>
      <trkpt lat="48.27616" lon="-3.57467">
        <ele>140.4</ele>
        <time>2024-09-07T12:33:27Z</time>
      </trkpt>
      <trkpt lat="48.27615" lon="-3.5747">
        <ele>140.4</ele>
        <time>2024-09-07T12:33:28Z</time>
      </trkpt>
      <trkpt lat="48.27614" lon="-3.57472">
        <ele>140.4</ele>
        <time>2024-09-07T12:33:29Z</time>
      </trkpt>
      <trkpt lat="48.27613" lon="-3.57474">
        <ele>140.2</ele>
        <time>2024-09-07T12:33:30Z</time>
      </trkpt>
      <trkpt lat="48.27613" lon="-3.57476">
        <ele>140.2</ele>
        <time>2024-09-07T12:33:31Z</time>
      </trkpt>
      <trkpt lat="48.27613" lon="-3.57476">
        <ele>140.2</ele>
        <time>2024-09-07T12:33:32Z</time>
      </trkpt>
      <trkpt lat="48.27611" lon="-3.57485">
        <ele>140</ele>
        <time>2024-09-07T12:33:36Z</time>
      </trkpt>
      <trkpt lat="48.27611" lon="-3.57488">
        <ele>140</ele>
        <time>2024-09-07T12:33:37Z</time>
      </trkpt>
      <trkpt lat="48.2761" lon="-3.5749">
        <ele>140</ele>
        <time>2024-09-07T12:33:38Z</time>
      </trkpt>
      <trkpt lat="48.2761" lon="-3.57493">
        <ele>139.8</ele>
        <time>2024-09-07T12:33:39Z</time>
      </trkpt>
      <trkpt lat="48.2761" lon="-3.57496">
        <ele>139.8</ele>
        <time>2024-09-07T12:33:40Z</time>
      </trkpt>
      <trkpt lat="48.27609" lon="-3.575">
        <ele>139.8</ele>
        <time>2024-09-07T12:33:41Z</time>
      </trkpt>
      <trkpt lat="48.27609" lon="-3.57503">
        <ele>139.8</ele>
        <time>2024-09-07T12:33:42Z</time>
      </trkpt>
      <trkpt lat="48.27609" lon="-3.57506">
        <ele>139.6</ele>
        <time>2024-09-07T12:33:43Z</time>
      </trkpt>
      <trkpt lat="48.27608" lon="-3.5751">
        <ele>139.6</ele>
        <time>2024-09-07T12:33:44Z</time>
      </trkpt>
      <trkpt lat="48.27606" lon="-3.57513">
        <ele>139.6</ele>
        <time>2024-09-07T12:33:45Z</time>
      </trkpt>
      <trkpt lat="48.27605" lon="-3.57516">
        <ele>139.6</ele>
        <time>2024-09-07T12:33:46Z</time>
      </trkpt>
      <trkpt lat="48.27604" lon="-3.57519">
        <ele>139.6</ele>
        <time>2024-09-07T12:33:47Z</time>
      </trkpt>
      <trkpt lat="48.27603" lon="-3.57523">
        <ele>139.6</ele>
        <time>2024-09-07T12:33:48Z</time>
      </trkpt>
      <trkpt lat="48.27603" lon="-3.57527">
        <ele>139.6</ele>
        <time>2024-09-07T12:33:49Z</time>
      </trkpt>
      <trkpt lat="48.27602" lon="-3.57531">
        <ele>139.6</ele>
        <time>2024-09-07T12:33:50Z</time>
      </trkpt>
      <trkpt lat="48.27602" lon="-3.57535">
        <ele>139.4</ele>
        <time>2024-09-07T12:33:51Z</time>
      </trkpt>
      <trkpt lat="48.27602" lon="-3.57538">
        <ele>139.4</ele>
        <time>2024-09-07T12:33:52Z</time>
      </trkpt>
      <trkpt lat="48.27602" lon="-3.57541">
        <ele>139.4</ele>
        <time>2024-09-07T12:33:53Z</time>
      </trkpt>
      <trkpt lat="48.276" lon="-3.57544">
        <ele>139.4</ele>
        <time>2024-09-07T12:33:54Z</time>
      </trkpt>
      <trkpt lat="48.27596" lon="-3.57548">
        <ele>139.4</ele>
        <time>2024-09-07T12:33:55Z</time>
      </trkpt>
      <trkpt lat="48.27593" lon="-3.57551">
        <ele>139.2</ele>
        <time>2024-09-07T12:33:56Z</time>
      </trkpt>
      <trkpt lat="48.2759" lon="-3.57554">
        <ele>139.2</ele>
        <time>2024-09-07T12:33:57Z</time>
      </trkpt>
      <trkpt lat="48.27587" lon="-3.57557">
        <ele>139</ele>
        <time>2024-09-07T12:33:58Z</time>
      </trkpt>
      <trkpt lat="48.27584" lon="-3.57561">
        <ele>139</ele>
        <time>2024-09-07T12:33:59Z</time>
      </trkpt>
      <trkpt lat="48.27584" lon="-3.57563">
        <ele>139</ele>
        <time>2024-09-07T12:34:00Z</time>
      </trkpt>
      <trkpt lat="48.27584" lon="-3.57562">
        <ele>139</ele>
        <time>2024-09-07T12:34:01Z</time>
      </trkpt>
      <trkpt lat="48.27583" lon="-3.57562">
        <ele>138.8</ele>
        <time>2024-09-07T12:34:02Z</time>
      </trkpt>
      <trkpt lat="48.27582" lon="-3.57563">
        <ele>138.8</ele>
        <time>2024-09-07T12:34:03Z</time>
      </trkpt>
      <trkpt lat="48.27581" lon="-3.57565">
        <ele>138.6</ele>
        <time>2024-09-07T12:34:04Z</time>
      </trkpt>
      <trkpt lat="48.2758" lon="-3.57566">
        <ele>138.4</ele>
        <time>2024-09-07T12:34:05Z</time>
      </trkpt>
      <trkpt lat="48.2758" lon="-3.57566">
        <ele>138.6</ele>
        <time>2024-09-07T12:34:06Z</time>
      </trkpt>
      <trkpt lat="48.2758" lon="-3.57566">
        <ele>138.4</ele>
        <time>2024-09-07T12:34:07Z</time>
      </trkpt>
      <trkpt lat="48.2758" lon="-3.57566">
        <ele>138.4</ele>
        <time>2024-09-07T12:34:08Z</time>
      </trkpt>
      <trkpt lat="48.27575" lon="-3.57569">
        <ele>138.2</ele>
        <time>2024-09-07T12:34:22Z</time>
      </trkpt>
      <trkpt lat="48.27574" lon="-3.57569">
        <ele>138.2</ele>
        <time>2024-09-07T12:34:23Z</time>
      </trkpt>
      <trkpt lat="48.27571" lon="-3.57568">
        <ele>138.2</ele>
        <time>2024-09-07T12:34:24Z</time>
      </trkpt>
      <trkpt lat="48.27569" lon="-3.57567">
        <ele>138.2</ele>
        <time>2024-09-07T12:34:25Z</time>
      </trkpt>
      <trkpt lat="48.27566" lon="-3.57565">
        <ele>138.2</ele>
        <time>2024-09-07T12:34:26Z</time>
      </trkpt>
      <trkpt lat="48.27564" lon="-3.57564">
        <ele>138.2</ele>
        <time>2024-09-07T12:34:27Z</time>
      </trkpt>
      <trkpt lat="48.27561" lon="-3.57563">
        <ele>138.2</ele>
        <time>2024-09-07T12:34:28Z</time>
      </trkpt>
      <trkpt lat="48.27557" lon="-3.57563">
        <ele>138</ele>
        <time>2024-09-07T12:34:29Z</time>
      </trkpt>
      <trkpt lat="48.27554" lon="-3.57563">
        <ele>138</ele>
        <time>2024-09-07T12:34:30Z</time>
      </trkpt>
      <trkpt lat="48.2755" lon="-3.57563">
        <ele>138</ele>
        <time>2024-09-07T12:34:31Z</time>
      </trkpt>
      <trkpt lat="48.27546" lon="-3.57562">
        <ele>137.8</ele>
        <time>2024-09-07T12:34:32Z</time>
      </trkpt>
      <trkpt lat="48.27542" lon="-3.57561">
        <ele>137.8</ele>
        <time>2024-09-07T12:34:33Z</time>
      </trkpt>
      <trkpt lat="48.27538" lon="-3.5756">
        <ele>137.8</ele>
        <time>2024-09-07T12:34:34Z</time>
      </trkpt>
      <trkpt lat="48.27533" lon="-3.5756">
        <ele>137.6</ele>
        <time>2024-09-07T12:34:35Z</time>
      </trkpt>
      <trkpt lat="48.27529" lon="-3.57562">
        <ele>137.6</ele>
        <time>2024-09-07T12:34:36Z</time>
      </trkpt>
      <trkpt lat="48.27524" lon="-3.57564">
        <ele>137.4</ele>
        <time>2024-09-07T12:34:37Z</time>
      </trkpt>
      <trkpt lat="48.2752" lon="-3.57568">
        <ele>137.4</ele>
        <time>2024-09-07T12:34:38Z</time>
      </trkpt>
      <trkpt lat="48.27517" lon="-3.57574">
        <ele>137.4</ele>
        <time>2024-09-07T12:34:39Z</time>
      </trkpt>
      <trkpt lat="48.27516" lon="-3.57582">
        <ele>137.2</ele>
        <time>2024-09-07T12:34:40Z</time>
      </trkpt>
      <trkpt lat="48.27515" lon="-3.57591">
        <ele>137</ele>
        <time>2024-09-07T12:34:41Z</time>
      </trkpt>
      <trkpt lat="48.27514" lon="-3.576">
        <ele>136.6</ele>
        <time>2024-09-07T12:34:42Z</time>
      </trkpt>
      <trkpt lat="48.27513" lon="-3.57609">
        <ele>136.6</ele>
        <time>2024-09-07T12:34:43Z</time>
      </trkpt>
      <trkpt lat="48.27512" lon="-3.57618">
        <ele>136.4</ele>
        <time>2024-09-07T12:34:44Z</time>
      </trkpt>
      <trkpt lat="48.2751" lon="-3.57627">
        <ele>136</ele>
        <time>2024-09-07T12:34:45Z</time>
      </trkpt>
      <trkpt lat="48.27508" lon="-3.57636">
        <ele>135.8</ele>
        <time>2024-09-07T12:34:46Z</time>
      </trkpt>
      <trkpt lat="48.27505" lon="-3.57645">
        <ele>135.4</ele>
        <time>2024-09-07T12:34:47Z</time>
      </trkpt>
      <trkpt lat="48.27502" lon="-3.57654">
        <ele>134.8</ele>
        <time>2024-09-07T12:34:48Z</time>
      </trkpt>
      <trkpt lat="48.27498" lon="-3.57662">
        <ele>134.6</ele>
        <time>2024-09-07T12:34:49Z</time>
      </trkpt>
      <trkpt lat="48.27493" lon="-3.57671">
        <ele>134.2</ele>
        <time>2024-09-07T12:34:50Z</time>
      </trkpt>
      <trkpt lat="48.27489" lon="-3.57678">
        <ele>134</ele>
        <time>2024-09-07T12:34:51Z</time>
      </trkpt>
      <trkpt lat="48.27484" lon="-3.57686">
        <ele>133.8</ele>
        <time>2024-09-07T12:34:52Z</time>
      </trkpt>
      <trkpt lat="48.2748" lon="-3.57693">
        <ele>133.6</ele>
        <time>2024-09-07T12:34:53Z</time>
      </trkpt>
      <trkpt lat="48.27476" lon="-3.57701">
        <ele>133</ele>
        <time>2024-09-07T12:34:54Z</time>
      </trkpt>
      <trkpt lat="48.27471" lon="-3.57708">
        <ele>132.6</ele>
        <time>2024-09-07T12:34:55Z</time>
      </trkpt>
      <trkpt lat="48.27466" lon="-3.57717">
        <ele>132.2</ele>
        <time>2024-09-07T12:34:56Z</time>
      </trkpt>
      <trkpt lat="48.27461" lon="-3.57725">
        <ele>131.6</ele>
        <time>2024-09-07T12:34:57Z</time>
      </trkpt>
      <trkpt lat="48.27456" lon="-3.57734">
        <ele>131.4</ele>
        <time>2024-09-07T12:34:58Z</time>
      </trkpt>
      <trkpt lat="48.27451" lon="-3.57742">
        <ele>131</ele>
        <time>2024-09-07T12:34:59Z</time>
      </trkpt>
      <trkpt lat="48.27446" lon="-3.57753">
        <ele>130.8</ele>
        <time>2024-09-07T12:35:00Z</time>
      </trkpt>
      <trkpt lat="48.27442" lon="-3.57762">
        <ele>130.6</ele>
        <time>2024-09-07T12:35:01Z</time>
      </trkpt>
      <trkpt lat="48.27439" lon="-3.57772">
        <ele>130.6</ele>
        <time>2024-09-07T12:35:02Z</time>
      </trkpt>
      <trkpt lat="48.27437" lon="-3.57782">
        <ele>130.6</ele>
        <time>2024-09-07T12:35:03Z</time>
      </trkpt>
      <trkpt lat="48.27435" lon="-3.57792">
        <ele>130.2</ele>
        <time>2024-09-07T12:35:04Z</time>
      </trkpt>
      <trkpt lat="48.27434" lon="-3.57802">
        <ele>130.2</ele>
        <time>2024-09-07T12:35:05Z</time>
      </trkpt>
      <trkpt lat="48.27432" lon="-3.5781">
        <ele>129.8</ele>
        <time>2024-09-07T12:35:06Z</time>
      </trkpt>
      <trkpt lat="48.27431" lon="-3.5782">
        <ele>129.6</ele>
        <time>2024-09-07T12:35:07Z</time>
      </trkpt>
      <trkpt lat="48.27429" lon="-3.57832">
        <ele>129.4</ele>
        <time>2024-09-07T12:35:08Z</time>
      </trkpt>
      <trkpt lat="48.27428" lon="-3.57841">
        <ele>129.2</ele>
        <time>2024-09-07T12:35:09Z</time>
      </trkpt>
      <trkpt lat="48.27427" lon="-3.57851">
        <ele>129</ele>
        <time>2024-09-07T12:35:10Z</time>
      </trkpt>
      <trkpt lat="48.27426" lon="-3.5786">
        <ele>129</ele>
        <time>2024-09-07T12:35:11Z</time>
      </trkpt>
      <trkpt lat="48.27425" lon="-3.57869">
        <ele>129</ele>
        <time>2024-09-07T12:35:12Z</time>
      </trkpt>
      <trkpt lat="48.27423" lon="-3.57878">
        <ele>128.8</ele>
        <time>2024-09-07T12:35:13Z</time>
      </trkpt>
      <trkpt lat="48.27422" lon="-3.57886">
        <ele>128.8</ele>
        <time>2024-09-07T12:35:14Z</time>
      </trkpt>
      <trkpt lat="48.27421" lon="-3.57895">
        <ele>128.8</ele>
        <time>2024-09-07T12:35:15Z</time>
      </trkpt>
      <trkpt lat="48.2742" lon="-3.57904">
        <ele>128.6</ele>
        <time>2024-09-07T12:35:16Z</time>
      </trkpt>
      <trkpt lat="48.27419" lon="-3.57913">
        <ele>128.6</ele>
        <time>2024-09-07T12:35:17Z</time>
      </trkpt>
      <trkpt lat="48.27418" lon="-3.57921">
        <ele>128.6</ele>
        <time>2024-09-07T12:35:18Z</time>
      </trkpt>
      <trkpt lat="48.27416" lon="-3.57929">
        <ele>128.6</ele>
        <time>2024-09-07T12:35:19Z</time>
      </trkpt>
      <trkpt lat="48.27415" lon="-3.57938">
        <ele>128.6</ele>
        <time>2024-09-07T12:35:20Z</time>
      </trkpt>
      <trkpt lat="48.27414" lon="-3.57946">
        <ele>128.4</ele>
        <time>2024-09-07T12:35:21Z</time>
      </trkpt>
      <trkpt lat="48.27413" lon="-3.57954">
        <ele>128.4</ele>
        <time>2024-09-07T12:35:22Z</time>
      </trkpt>
      <trkpt lat="48.27412" lon="-3.57962">
        <ele>128.4</ele>
        <time>2024-09-07T12:35:23Z</time>
      </trkpt>
      <trkpt lat="48.27411" lon="-3.57971">
        <ele>128.2</ele>
        <time>2024-09-07T12:35:24Z</time>
      </trkpt>
      <trkpt lat="48.27409" lon="-3.57979">
        <ele>128.2</ele>
        <time>2024-09-07T12:35:25Z</time>
      </trkpt>
      <trkpt lat="48.27408" lon="-3.57985">
        <ele>128.2</ele>
        <time>2024-09-07T12:35:26Z</time>
      </trkpt>
      <trkpt lat="48.27406" lon="-3.57995">
        <ele>128.2</ele>
        <time>2024-09-07T12:35:27Z</time>
      </trkpt>
      <trkpt lat="48.27405" lon="-3.58003">
        <ele>128.2</ele>
        <time>2024-09-07T12:35:28Z</time>
      </trkpt>
      <trkpt lat="48.27404" lon="-3.58011">
        <ele>128.2</ele>
        <time>2024-09-07T12:35:29Z</time>
      </trkpt>
      <trkpt lat="48.27404" lon="-3.58019">
        <ele>128.2</ele>
        <time>2024-09-07T12:35:30Z</time>
      </trkpt>
      <trkpt lat="48.27403" lon="-3.58027">
        <ele>128.2</ele>
        <time>2024-09-07T12:35:31Z</time>
      </trkpt>
      <trkpt lat="48.27402" lon="-3.58035">
        <ele>128.2</ele>
        <time>2024-09-07T12:35:32Z</time>
      </trkpt>
      <trkpt lat="48.27401" lon="-3.58043">
        <ele>128.2</ele>
        <time>2024-09-07T12:35:33Z</time>
      </trkpt>
      <trkpt lat="48.274" lon="-3.5805">
        <ele>128.2</ele>
        <time>2024-09-07T12:35:34Z</time>
      </trkpt>
      <trkpt lat="48.27399" lon="-3.58057">
        <ele>128.2</ele>
        <time>2024-09-07T12:35:35Z</time>
      </trkpt>
      <trkpt lat="48.27398" lon="-3.58064">
        <ele>128.2</ele>
        <time>2024-09-07T12:35:36Z</time>
      </trkpt>
      <trkpt lat="48.27397" lon="-3.58072">
        <ele>128.2</ele>
        <time>2024-09-07T12:35:37Z</time>
      </trkpt>
      <trkpt lat="48.27396" lon="-3.5808">
        <ele>128.4</ele>
        <time>2024-09-07T12:35:38Z</time>
      </trkpt>
      <trkpt lat="48.27395" lon="-3.58087">
        <ele>128.4</ele>
        <time>2024-09-07T12:35:39Z</time>
      </trkpt>
      <trkpt lat="48.27394" lon="-3.58095">
        <ele>128.4</ele>
        <time>2024-09-07T12:35:40Z</time>
      </trkpt>
      <trkpt lat="48.27391" lon="-3.58103">
        <ele>128.4</ele>
        <time>2024-09-07T12:35:41Z</time>
      </trkpt>
      <trkpt lat="48.27389" lon="-3.58111">
        <ele>128.4</ele>
        <time>2024-09-07T12:35:42Z</time>
      </trkpt>
      <trkpt lat="48.27388" lon="-3.58119">
        <ele>128.4</ele>
        <time>2024-09-07T12:35:43Z</time>
      </trkpt>
      <trkpt lat="48.27386" lon="-3.58127">
        <ele>128.6</ele>
        <time>2024-09-07T12:35:44Z</time>
      </trkpt>
      <trkpt lat="48.27385" lon="-3.58135">
        <ele>128.6</ele>
        <time>2024-09-07T12:35:45Z</time>
      </trkpt>
      <trkpt lat="48.27384" lon="-3.58143">
        <ele>128.6</ele>
        <time>2024-09-07T12:35:46Z</time>
      </trkpt>
      <trkpt lat="48.27383" lon="-3.5815">
        <ele>128.6</ele>
        <time>2024-09-07T12:35:47Z</time>
      </trkpt>
      <trkpt lat="48.27382" lon="-3.58156">
        <ele>128.6</ele>
        <time>2024-09-07T12:35:48Z</time>
      </trkpt>
      <trkpt lat="48.2738" lon="-3.58163">
        <ele>128.6</ele>
        <time>2024-09-07T12:35:49Z</time>
      </trkpt>
      <trkpt lat="48.27379" lon="-3.58169">
        <ele>128.6</ele>
        <time>2024-09-07T12:35:50Z</time>
      </trkpt>
      <trkpt lat="48.27378" lon="-3.58176">
        <ele>128.6</ele>
        <time>2024-09-07T12:35:51Z</time>
      </trkpt>
      <trkpt lat="48.27378" lon="-3.5818">
        <ele>128.6</ele>
        <time>2024-09-07T12:35:52Z</time>
      </trkpt>
      <trkpt lat="48.27378" lon="-3.58183">
        <ele>128.6</ele>
        <time>2024-09-07T12:35:53Z</time>
      </trkpt>
      <trkpt lat="48.27379" lon="-3.58185">
        <ele>128.6</ele>
        <time>2024-09-07T12:35:54Z</time>
      </trkpt>
      <trkpt lat="48.2738" lon="-3.58187">
        <ele>128.6</ele>
        <time>2024-09-07T12:35:55Z</time>
      </trkpt>
      <trkpt lat="48.27382" lon="-3.58187">
        <ele>128.8</ele>
        <time>2024-09-07T12:35:56Z</time>
      </trkpt>
      <trkpt lat="48.27383" lon="-3.58188">
        <ele>128.8</ele>
        <time>2024-09-07T12:35:57Z</time>
      </trkpt>
      <trkpt lat="48.27385" lon="-3.58188">
        <ele>129</ele>
        <time>2024-09-07T12:35:58Z</time>
      </trkpt>
      <trkpt lat="48.27387" lon="-3.58189">
        <ele>129.2</ele>
        <time>2024-09-07T12:35:59Z</time>
      </trkpt>
      <trkpt lat="48.27388" lon="-3.5819">
        <ele>129.2</ele>
        <time>2024-09-07T12:36:00Z</time>
      </trkpt>
      <trkpt lat="48.2739" lon="-3.58191">
        <ele>129.4</ele>
        <time>2024-09-07T12:36:01Z</time>
      </trkpt>
      <trkpt lat="48.27392" lon="-3.5819">
        <ele>129.6</ele>
        <time>2024-09-07T12:36:02Z</time>
      </trkpt>
      <trkpt lat="48.27394" lon="-3.58188">
        <ele>129.6</ele>
        <time>2024-09-07T12:36:03Z</time>
      </trkpt>
      <trkpt lat="48.27395" lon="-3.58186">
        <ele>129.8</ele>
        <time>2024-09-07T12:36:04Z</time>
      </trkpt>
      <trkpt lat="48.27397" lon="-3.58185">
        <ele>130</ele>
        <time>2024-09-07T12:36:05Z</time>
      </trkpt>
      <trkpt lat="48.27398" lon="-3.58184">
        <ele>130</ele>
        <time>2024-09-07T12:36:06Z</time>
      </trkpt>
      <trkpt lat="48.274" lon="-3.58184">
        <ele>130.2</ele>
        <time>2024-09-07T12:36:07Z</time>
      </trkpt>
      <trkpt lat="48.27401" lon="-3.58185">
        <ele>130.2</ele>
        <time>2024-09-07T12:36:08Z</time>
      </trkpt>
      <trkpt lat="48.27403" lon="-3.58186">
        <ele>130.2</ele>
        <time>2024-09-07T12:36:09Z</time>
      </trkpt>
      <trkpt lat="48.27406" lon="-3.58188">
        <ele>130.2</ele>
        <time>2024-09-07T12:36:10Z</time>
      </trkpt>
      <trkpt lat="48.27409" lon="-3.58189">
        <ele>130.2</ele>
        <time>2024-09-07T12:36:11Z</time>
      </trkpt>
      <trkpt lat="48.27412" lon="-3.5819">
        <ele>130.2</ele>
        <time>2024-09-07T12:36:12Z</time>
      </trkpt>
      <trkpt lat="48.27415" lon="-3.58192">
        <ele>130.2</ele>
        <time>2024-09-07T12:36:13Z</time>
      </trkpt>
      <trkpt lat="48.27419" lon="-3.58194">
        <ele>130.2</ele>
        <time>2024-09-07T12:36:14Z</time>
      </trkpt>
      <trkpt lat="48.27421" lon="-3.58196">
        <ele>130.2</ele>
        <time>2024-09-07T12:36:15Z</time>
      </trkpt>
      <trkpt lat="48.27425" lon="-3.58199">
        <ele>130.2</ele>
        <time>2024-09-07T12:36:16Z</time>
      </trkpt>
      <trkpt lat="48.27428" lon="-3.58203">
        <ele>130.2</ele>
        <time>2024-09-07T12:36:17Z</time>
      </trkpt>
      <trkpt lat="48.27431" lon="-3.58206">
        <ele>130.2</ele>
        <time>2024-09-07T12:36:18Z</time>
      </trkpt>
      <trkpt lat="48.27435" lon="-3.58209">
        <ele>130.2</ele>
        <time>2024-09-07T12:36:19Z</time>
      </trkpt>
      <trkpt lat="48.27438" lon="-3.58211">
        <ele>130.2</ele>
        <time>2024-09-07T12:36:20Z</time>
      </trkpt>
      <trkpt lat="48.2744" lon="-3.58213">
        <ele>130.2</ele>
        <time>2024-09-07T12:36:21Z</time>
      </trkpt>
      <trkpt lat="48.27443" lon="-3.58216">
        <ele>130.2</ele>
        <time>2024-09-07T12:36:22Z</time>
      </trkpt>
      <trkpt lat="48.27446" lon="-3.58219">
        <ele>130.2</ele>
        <time>2024-09-07T12:36:23Z</time>
      </trkpt>
      <trkpt lat="48.27449" lon="-3.58221">
        <ele>130.2</ele>
        <time>2024-09-07T12:36:24Z</time>
      </trkpt>
      <trkpt lat="48.27452" lon="-3.58225">
        <ele>130.2</ele>
        <time>2024-09-07T12:36:25Z</time>
      </trkpt>
      <trkpt lat="48.27455" lon="-3.58228">
        <ele>130.2</ele>
        <time>2024-09-07T12:36:26Z</time>
      </trkpt>
      <trkpt lat="48.27458" lon="-3.58229">
        <ele>130.2</ele>
        <time>2024-09-07T12:36:27Z</time>
      </trkpt>
      <trkpt lat="48.27461" lon="-3.58226">
        <ele>130.2</ele>
        <time>2024-09-07T12:36:28Z</time>
      </trkpt>
      <trkpt lat="48.27464" lon="-3.58226">
        <ele>130</ele>
        <time>2024-09-07T12:36:29Z</time>
      </trkpt>
      <trkpt lat="48.27466" lon="-3.58228">
        <ele>130</ele>
        <time>2024-09-07T12:36:30Z</time>
      </trkpt>
      <trkpt lat="48.27468" lon="-3.58229">
        <ele>130</ele>
        <time>2024-09-07T12:36:31Z</time>
      </trkpt>
      <trkpt lat="48.2747" lon="-3.5823">
        <ele>130</ele>
        <time>2024-09-07T12:36:32Z</time>
      </trkpt>
      <trkpt lat="48.27472" lon="-3.5823">
        <ele>130</ele>
        <time>2024-09-07T12:36:33Z</time>
      </trkpt>
      <trkpt lat="48.27474" lon="-3.58231">
        <ele>130</ele>
        <time>2024-09-07T12:36:34Z</time>
      </trkpt>
      <trkpt lat="48.27476" lon="-3.58231">
        <ele>130</ele>
        <time>2024-09-07T12:36:35Z</time>
      </trkpt>
      <trkpt lat="48.27478" lon="-3.58233">
        <ele>130</ele>
        <time>2024-09-07T12:36:36Z</time>
      </trkpt>
      <trkpt lat="48.27479" lon="-3.58235">
        <ele>129.8</ele>
        <time>2024-09-07T12:36:37Z</time>
      </trkpt>
      <trkpt lat="48.27478" lon="-3.58237">
        <ele>129.8</ele>
        <time>2024-09-07T12:36:38Z</time>
      </trkpt>
      <trkpt lat="48.27475" lon="-3.5824">
        <ele>129.6</ele>
        <time>2024-09-07T12:36:39Z</time>
      </trkpt>
      <trkpt lat="48.27472" lon="-3.58241">
        <ele>129.6</ele>
        <time>2024-09-07T12:36:40Z</time>
      </trkpt>
      <trkpt lat="48.2747" lon="-3.58239">
        <ele>129.6</ele>
        <time>2024-09-07T12:36:41Z</time>
      </trkpt>
      <trkpt lat="48.27468" lon="-3.58238">
        <ele>129.6</ele>
        <time>2024-09-07T12:36:42Z</time>
      </trkpt>
      <trkpt lat="48.27466" lon="-3.58236">
        <ele>129.6</ele>
        <time>2024-09-07T12:36:43Z</time>
      </trkpt>
      <trkpt lat="48.27464" lon="-3.58234">
        <ele>129.6</ele>
        <time>2024-09-07T12:36:44Z</time>
      </trkpt>
      <trkpt lat="48.27462" lon="-3.58232">
        <ele>129.6</ele>
        <time>2024-09-07T12:36:45Z</time>
      </trkpt>
      <trkpt lat="48.2746" lon="-3.5823">
        <ele>129.6</ele>
        <time>2024-09-07T12:36:46Z</time>
      </trkpt>
      <trkpt lat="48.27459" lon="-3.58229">
        <ele>129.6</ele>
        <time>2024-09-07T12:36:47Z</time>
      </trkpt>
      <trkpt lat="48.27458" lon="-3.58228">
        <ele>129.6</ele>
        <time>2024-09-07T12:36:48Z</time>
      </trkpt>
      <trkpt lat="48.27458" lon="-3.58228">
        <ele>129.6</ele>
        <time>2024-09-07T12:36:49Z</time>
      </trkpt>
      <trkpt lat="48.27458" lon="-3.58228">
        <ele>129.6</ele>
        <time>2024-09-07T12:36:50Z</time>
      </trkpt>
      <trkpt lat="48.27466" lon="-3.58221">
        <ele>130.2</ele>
        <time>2024-09-07T13:10:09Z</time>
      </trkpt>
      <trkpt lat="48.27467" lon="-3.58219">
        <ele>130.2</ele>
        <time>2024-09-07T13:10:10Z</time>
      </trkpt>
      <trkpt lat="48.27468" lon="-3.58216">
        <ele>130.2</ele>
        <time>2024-09-07T13:10:11Z</time>
      </trkpt>
      <trkpt lat="48.27469" lon="-3.58214">
        <ele>130.2</ele>
        <time>2024-09-07T13:10:12Z</time>
      </trkpt>
      <trkpt lat="48.2747" lon="-3.5821">
        <ele>130.2</ele>
        <time>2024-09-07T13:10:13Z</time>
      </trkpt>
      <trkpt lat="48.2747" lon="-3.58207">
        <ele>130.2</ele>
        <time>2024-09-07T13:10:14Z</time>
      </trkpt>
      <trkpt lat="48.27471" lon="-3.58203">
        <ele>130.2</ele>
        <time>2024-09-07T13:10:15Z</time>
      </trkpt>
      <trkpt lat="48.27472" lon="-3.58199">
        <ele>130.2</ele>
        <time>2024-09-07T13:10:16Z</time>
      </trkpt>
      <trkpt lat="48.27473" lon="-3.58195">
        <ele>130.2</ele>
        <time>2024-09-07T13:10:17Z</time>
      </trkpt>
      <trkpt lat="48.27474" lon="-3.58191">
        <ele>130.2</ele>
        <time>2024-09-07T13:10:18Z</time>
      </trkpt>
      <trkpt lat="48.27475" lon="-3.58187">
        <ele>130.2</ele>
        <time>2024-09-07T13:10:19Z</time>
      </trkpt>
      <trkpt lat="48.27476" lon="-3.58182">
        <ele>130.2</ele>
        <time>2024-09-07T13:10:20Z</time>
      </trkpt>
      <trkpt lat="48.27477" lon="-3.58177">
        <ele>130.2</ele>
        <time>2024-09-07T13:10:21Z</time>
      </trkpt>
      <trkpt lat="48.27479" lon="-3.58172">
        <ele>130.4</ele>
        <time>2024-09-07T13:10:22Z</time>
      </trkpt>
      <trkpt lat="48.2748" lon="-3.58168">
        <ele>130.4</ele>
        <time>2024-09-07T13:10:23Z</time>
      </trkpt>
      <trkpt lat="48.27482" lon="-3.58164">
        <ele>130.4</ele>
        <time>2024-09-07T13:10:24Z</time>
      </trkpt>
      <trkpt lat="48.27483" lon="-3.58159">
        <ele>130.4</ele>
        <time>2024-09-07T13:10:25Z</time>
      </trkpt>
      <trkpt lat="48.27484" lon="-3.58155">
        <ele>130.6</ele>
        <time>2024-09-07T13:10:26Z</time>
      </trkpt>
      <trkpt lat="48.27484" lon="-3.58151">
        <ele>130.6</ele>
        <time>2024-09-07T13:10:27Z</time>
      </trkpt>
      <trkpt lat="48.27485" lon="-3.58148">
        <ele>130.8</ele>
        <time>2024-09-07T13:10:28Z</time>
      </trkpt>
      <trkpt lat="48.27486" lon="-3.58144">
        <ele>130.8</ele>
        <time>2024-09-07T13:10:29Z</time>
      </trkpt>
      <trkpt lat="48.27488" lon="-3.58142">
        <ele>131</ele>
        <time>2024-09-07T13:10:30Z</time>
      </trkpt>
      <trkpt lat="48.27489" lon="-3.58139">
        <ele>131</ele>
        <time>2024-09-07T13:10:31Z</time>
      </trkpt>
      <trkpt lat="48.2749" lon="-3.58139">
        <ele>131</ele>
        <time>2024-09-07T13:10:32Z</time>
      </trkpt>
      <trkpt lat="48.2749" lon="-3.58139">
        <ele>131</ele>
        <time>2024-09-07T13:10:33Z</time>
      </trkpt>
      <trkpt lat="48.27496" lon="-3.58135">
        <ele>131.4</ele>
        <time>2024-09-07T13:11:00Z</time>
      </trkpt>
      <trkpt lat="48.27499" lon="-3.58136">
        <ele>131.4</ele>
        <time>2024-09-07T13:11:01Z</time>
      </trkpt>
      <trkpt lat="48.27501" lon="-3.58137">
        <ele>131.4</ele>
        <time>2024-09-07T13:11:02Z</time>
      </trkpt>
      <trkpt lat="48.27504" lon="-3.58139">
        <ele>131.4</ele>
        <time>2024-09-07T13:11:03Z</time>
      </trkpt>
      <trkpt lat="48.27508" lon="-3.58142">
        <ele>131.4</ele>
        <time>2024-09-07T13:11:04Z</time>
      </trkpt>
      <trkpt lat="48.2751" lon="-3.58144">
        <ele>131.4</ele>
        <time>2024-09-07T13:11:05Z</time>
      </trkpt>
      <trkpt lat="48.27514" lon="-3.58147">
        <ele>131.4</ele>
        <time>2024-09-07T13:11:06Z</time>
      </trkpt>
      <trkpt lat="48.27518" lon="-3.5815">
        <ele>131.4</ele>
        <time>2024-09-07T13:11:07Z</time>
      </trkpt>
      <trkpt lat="48.27521" lon="-3.58152">
        <ele>131.6</ele>
        <time>2024-09-07T13:11:08Z</time>
      </trkpt>
      <trkpt lat="48.27525" lon="-3.58155">
        <ele>131.6</ele>
        <time>2024-09-07T13:11:09Z</time>
      </trkpt>
      <trkpt lat="48.27529" lon="-3.58158">
        <ele>131.6</ele>
        <time>2024-09-07T13:11:10Z</time>
      </trkpt>
      <trkpt lat="48.27533" lon="-3.5816">
        <ele>131.6</ele>
        <time>2024-09-07T13:11:11Z</time>
      </trkpt>
      <trkpt lat="48.27538" lon="-3.58162">
        <ele>131.6</ele>
        <time>2024-09-07T13:11:12Z</time>
      </trkpt>
      <trkpt lat="48.27542" lon="-3.58164">
        <ele>131.6</ele>
        <time>2024-09-07T13:11:13Z</time>
      </trkpt>
      <trkpt lat="48.27546" lon="-3.58166">
        <ele>131.6</ele>
        <time>2024-09-07T13:11:14Z</time>
      </trkpt>
      <trkpt lat="48.27549" lon="-3.58169">
        <ele>131.6</ele>
        <time>2024-09-07T13:11:15Z</time>
      </trkpt>
      <trkpt lat="48.27553" lon="-3.58171">
        <ele>131.6</ele>
        <time>2024-09-07T13:11:16Z</time>
      </trkpt>
      <trkpt lat="48.27557" lon="-3.58173">
        <ele>131.6</ele>
        <time>2024-09-07T13:11:17Z</time>
      </trkpt>
      <trkpt lat="48.2756" lon="-3.58176">
        <ele>131.6</ele>
        <time>2024-09-07T13:11:18Z</time>
      </trkpt>
      <trkpt lat="48.27565" lon="-3.58178">
        <ele>131.8</ele>
        <time>2024-09-07T13:11:19Z</time>
      </trkpt>
      <trkpt lat="48.27569" lon="-3.5818">
        <ele>132</ele>
        <time>2024-09-07T13:11:20Z</time>
      </trkpt>
      <trkpt lat="48.27573" lon="-3.58183">
        <ele>132</ele>
        <time>2024-09-07T13:11:21Z</time>
      </trkpt>
      <trkpt lat="48.27577" lon="-3.58185">
        <ele>132</ele>
        <time>2024-09-07T13:11:22Z</time>
      </trkpt>
      <trkpt lat="48.27582" lon="-3.58187">
        <ele>132</ele>
        <time>2024-09-07T13:11:23Z</time>
      </trkpt>
      <trkpt lat="48.27586" lon="-3.58189">
        <ele>132</ele>
        <time>2024-09-07T13:11:24Z</time>
      </trkpt>
      <trkpt lat="48.2759" lon="-3.5819">
        <ele>132</ele>
        <time>2024-09-07T13:11:25Z</time>
      </trkpt>
      <trkpt lat="48.27594" lon="-3.58192">
        <ele>132</ele>
        <time>2024-09-07T13:11:26Z</time>
      </trkpt>
      <trkpt lat="48.27598" lon="-3.58193">
        <ele>132</ele>
        <time>2024-09-07T13:11:27Z</time>
      </trkpt>
      <trkpt lat="48.27603" lon="-3.58195">
        <ele>132</ele>
        <time>2024-09-07T13:11:28Z</time>
      </trkpt>
      <trkpt lat="48.27607" lon="-3.58197">
        <ele>132.2</ele>
        <time>2024-09-07T13:11:29Z</time>
      </trkpt>
      <trkpt lat="48.27611" lon="-3.58198">
        <ele>132.2</ele>
        <time>2024-09-07T13:11:30Z</time>
      </trkpt>
      <trkpt lat="48.27616" lon="-3.582">
        <ele>132.2</ele>
        <time>2024-09-07T13:11:31Z</time>
      </trkpt>
      <trkpt lat="48.2762" lon="-3.58201">
        <ele>132.2</ele>
        <time>2024-09-07T13:11:32Z</time>
      </trkpt>
      <trkpt lat="48.27624" lon="-3.58202">
        <ele>132.4</ele>
        <time>2024-09-07T13:11:33Z</time>
      </trkpt>
      <trkpt lat="48.27628" lon="-3.58204">
        <ele>132.4</ele>
        <time>2024-09-07T13:11:34Z</time>
      </trkpt>
      <trkpt lat="48.27632" lon="-3.58206">
        <ele>132.4</ele>
        <time>2024-09-07T13:11:35Z</time>
      </trkpt>
      <trkpt lat="48.27637" lon="-3.58207">
        <ele>132.4</ele>
        <time>2024-09-07T13:11:36Z</time>
      </trkpt>
      <trkpt lat="48.27641" lon="-3.58209">
        <ele>132.4</ele>
        <time>2024-09-07T13:11:37Z</time>
      </trkpt>
      <trkpt lat="48.27645" lon="-3.58211">
        <ele>132.4</ele>
        <time>2024-09-07T13:11:38Z</time>
      </trkpt>
      <trkpt lat="48.27649" lon="-3.58213">
        <ele>132.4</ele>
        <time>2024-09-07T13:11:39Z</time>
      </trkpt>
      <trkpt lat="48.27653" lon="-3.58215">
        <ele>132.4</ele>
        <time>2024-09-07T13:11:40Z</time>
      </trkpt>
      <trkpt lat="48.27657" lon="-3.58217">
        <ele>132.4</ele>
        <time>2024-09-07T13:11:41Z</time>
      </trkpt>
      <trkpt lat="48.27662" lon="-3.58219">
        <ele>132.4</ele>
        <time>2024-09-07T13:11:42Z</time>
      </trkpt>
      <trkpt lat="48.27667" lon="-3.58221">
        <ele>132.4</ele>
        <time>2024-09-07T13:11:43Z</time>
      </trkpt>
      <trkpt lat="48.27673" lon="-3.58223">
        <ele>132.4</ele>
        <time>2024-09-07T13:11:44Z</time>
      </trkpt>
      <trkpt lat="48.27677" lon="-3.58225">
        <ele>132.4</ele>
        <time>2024-09-07T13:11:45Z</time>
      </trkpt>
      <trkpt lat="48.27683" lon="-3.58227">
        <ele>132.4</ele>
        <time>2024-09-07T13:11:46Z</time>
      </trkpt>
      <trkpt lat="48.27688" lon="-3.58229">
        <ele>132.4</ele>
        <time>2024-09-07T13:11:47Z</time>
      </trkpt>
      <trkpt lat="48.27694" lon="-3.58231">
        <ele>132.4</ele>
        <time>2024-09-07T13:11:48Z</time>
      </trkpt>
      <trkpt lat="48.27699" lon="-3.58232">
        <ele>132.2</ele>
        <time>2024-09-07T13:11:49Z</time>
      </trkpt>
      <trkpt lat="48.27704" lon="-3.58234">
        <ele>132.2</ele>
        <time>2024-09-07T13:11:50Z</time>
      </trkpt>
      <trkpt lat="48.27709" lon="-3.58236">
        <ele>132.2</ele>
        <time>2024-09-07T13:11:51Z</time>
      </trkpt>
      <trkpt lat="48.27712" lon="-3.58237">
        <ele>132.2</ele>
        <time>2024-09-07T13:11:52Z</time>
      </trkpt>
      <trkpt lat="48.27715" lon="-3.58237">
        <ele>132</ele>
        <time>2024-09-07T13:11:53Z</time>
      </trkpt>
      <trkpt lat="48.27717" lon="-3.58238">
        <ele>131.8</ele>
        <time>2024-09-07T13:11:54Z</time>
      </trkpt>
      <trkpt lat="48.27718" lon="-3.58238">
        <ele>131.6</ele>
        <time>2024-09-07T13:11:55Z</time>
      </trkpt>
      <trkpt lat="48.27719" lon="-3.58239">
        <ele>131.2</ele>
        <time>2024-09-07T13:11:56Z</time>
      </trkpt>
      <trkpt lat="48.27721" lon="-3.58239">
        <ele>130.8</ele>
        <time>2024-09-07T13:11:57Z</time>
      </trkpt>
      <trkpt lat="48.27722" lon="-3.5824">
        <ele>130.4</ele>
        <time>2024-09-07T13:11:58Z</time>
      </trkpt>
      <trkpt lat="48.27722" lon="-3.5824">
        <ele>130.2</ele>
        <time>2024-09-07T13:11:59Z</time>
      </trkpt>
      <trkpt lat="48.27722" lon="-3.5824">
        <ele>129.8</ele>
        <time>2024-09-07T13:12:00Z</time>
      </trkpt>
      <trkpt lat="48.27715" lon="-3.58234">
        <ele>128.8</ele>
        <time>2024-09-07T13:12:09Z</time>
      </trkpt>
      <trkpt lat="48.27713" lon="-3.58231">
        <ele>128.8</ele>
        <time>2024-09-07T13:12:10Z</time>
      </trkpt>
      <trkpt lat="48.27713" lon="-3.58228">
        <ele>128.8</ele>
        <time>2024-09-07T13:12:11Z</time>
      </trkpt>
      <trkpt lat="48.27713" lon="-3.58225">
        <ele>128.8</ele>
        <time>2024-09-07T13:12:12Z</time>
      </trkpt>
      <trkpt lat="48.27713" lon="-3.58222">
        <ele>128.8</ele>
        <time>2024-09-07T13:12:13Z</time>
      </trkpt>
      <trkpt lat="48.27713" lon="-3.58219">
        <ele>128.8</ele>
        <time>2024-09-07T13:12:14Z</time>
      </trkpt>
      <trkpt lat="48.27713" lon="-3.58215">
        <ele>128.8</ele>
        <time>2024-09-07T13:12:15Z</time>
      </trkpt>
      <trkpt lat="48.27713" lon="-3.58213">
        <ele>128.8</ele>
        <time>2024-09-07T13:12:16Z</time>
      </trkpt>
      <trkpt lat="48.27714" lon="-3.58211">
        <ele>128.8</ele>
        <time>2024-09-07T13:12:17Z</time>
      </trkpt>
      <trkpt lat="48.27714" lon="-3.58209">
        <ele>128.8</ele>
        <time>2024-09-07T13:12:18Z</time>
      </trkpt>
      <trkpt lat="48.27714" lon="-3.58207">
        <ele>128.8</ele>
        <time>2024-09-07T13:12:19Z</time>
      </trkpt>
      <trkpt lat="48.27715" lon="-3.58204">
        <ele>128.8</ele>
        <time>2024-09-07T13:12:20Z</time>
      </trkpt>
      <trkpt lat="48.27715" lon="-3.58201">
        <ele>128.8</ele>
        <time>2024-09-07T13:12:21Z</time>
      </trkpt>
      <trkpt lat="48.27715" lon="-3.58198">
        <ele>129</ele>
        <time>2024-09-07T13:12:22Z</time>
      </trkpt>
      <trkpt lat="48.27716" lon="-3.58194">
        <ele>129</ele>
        <time>2024-09-07T13:12:23Z</time>
      </trkpt>
      <trkpt lat="48.27716" lon="-3.58191">
        <ele>129.2</ele>
        <time>2024-09-07T13:12:24Z</time>
      </trkpt>
      <trkpt lat="48.27716" lon="-3.58188">
        <ele>129.4</ele>
        <time>2024-09-07T13:12:25Z</time>
      </trkpt>
      <trkpt lat="48.27716" lon="-3.58184">
        <ele>129.4</ele>
        <time>2024-09-07T13:12:26Z</time>
      </trkpt>
      <trkpt lat="48.27716" lon="-3.58181">
        <ele>129.6</ele>
        <time>2024-09-07T13:12:27Z</time>
      </trkpt>
      <trkpt lat="48.27716" lon="-3.58177">
        <ele>129.6</ele>
        <time>2024-09-07T13:12:28Z</time>
      </trkpt>
      <trkpt lat="48.27717" lon="-3.58173">
        <ele>129.8</ele>
        <time>2024-09-07T13:12:29Z</time>
      </trkpt>
      <trkpt lat="48.27717" lon="-3.58169">
        <ele>130</ele>
        <time>2024-09-07T13:12:30Z</time>
      </trkpt>
      <trkpt lat="48.27717" lon="-3.58165">
        <ele>130.2</ele>
        <time>2024-09-07T13:12:31Z</time>
      </trkpt>
      <trkpt lat="48.27717" lon="-3.58161">
        <ele>130.4</ele>
        <time>2024-09-07T13:12:32Z</time>
      </trkpt>
      <trkpt lat="48.27717" lon="-3.58157">
        <ele>130.4</ele>
        <time>2024-09-07T13:12:33Z</time>
      </trkpt>
      <trkpt lat="48.27717" lon="-3.58154">
        <ele>130.6</ele>
        <time>2024-09-07T13:12:34Z</time>
      </trkpt>
      <trkpt lat="48.27717" lon="-3.5815">
        <ele>130.8</ele>
        <time>2024-09-07T13:12:35Z</time>
      </trkpt>
      <trkpt lat="48.27718" lon="-3.58146">
        <ele>131.2</ele>
        <time>2024-09-07T13:12:36Z</time>
      </trkpt>
      <trkpt lat="48.27718" lon="-3.58142">
        <ele>131.4</ele>
        <time>2024-09-07T13:12:37Z</time>
      </trkpt>
      <trkpt lat="48.27718" lon="-3.58138">
        <ele>131.6</ele>
        <time>2024-09-07T13:12:38Z</time>
      </trkpt>
      <trkpt lat="48.27718" lon="-3.58134">
        <ele>131.8</ele>
        <time>2024-09-07T13:12:39Z</time>
      </trkpt>
      <trkpt lat="48.27718" lon="-3.58131">
        <ele>132</ele>
        <time>2024-09-07T13:12:40Z</time>
      </trkpt>
      <trkpt lat="48.27719" lon="-3.58127">
        <ele>132.2</ele>
        <time>2024-09-07T13:12:41Z</time>
      </trkpt>
      <trkpt lat="48.27719" lon="-3.58122">
        <ele>132.4</ele>
        <time>2024-09-07T13:12:42Z</time>
      </trkpt>
      <trkpt lat="48.2772" lon="-3.58119">
        <ele>132.6</ele>
        <time>2024-09-07T13:12:43Z</time>
      </trkpt>
      <trkpt lat="48.2772" lon="-3.58115">
        <ele>133</ele>
        <time>2024-09-07T13:12:44Z</time>
      </trkpt>
      <trkpt lat="48.2772" lon="-3.58111">
        <ele>133</ele>
        <time>2024-09-07T13:12:45Z</time>
      </trkpt>
      <trkpt lat="48.2772" lon="-3.58107">
        <ele>133.2</ele>
        <time>2024-09-07T13:12:46Z</time>
      </trkpt>
      <trkpt lat="48.2772" lon="-3.58103">
        <ele>133.4</ele>
        <time>2024-09-07T13:12:47Z</time>
      </trkpt>
      <trkpt lat="48.27721" lon="-3.581">
        <ele>133.6</ele>
        <time>2024-09-07T13:12:48Z</time>
      </trkpt>
      <trkpt lat="48.27721" lon="-3.58096">
        <ele>133.8</ele>
        <time>2024-09-07T13:12:49Z</time>
      </trkpt>
      <trkpt lat="48.27721" lon="-3.58092">
        <ele>134</ele>
        <time>2024-09-07T13:12:50Z</time>
      </trkpt>
      <trkpt lat="48.27722" lon="-3.58088">
        <ele>134.2</ele>
        <time>2024-09-07T13:12:51Z</time>
      </trkpt>
      <trkpt lat="48.27722" lon="-3.58084">
        <ele>134.6</ele>
        <time>2024-09-07T13:12:52Z</time>
      </trkpt>
      <trkpt lat="48.27722" lon="-3.5808">
        <ele>134.8</ele>
        <time>2024-09-07T13:12:53Z</time>
      </trkpt>
      <trkpt lat="48.27722" lon="-3.58075">
        <ele>135</ele>
        <time>2024-09-07T13:12:54Z</time>
      </trkpt>
      <trkpt lat="48.27723" lon="-3.58071">
        <ele>135.2</ele>
        <time>2024-09-07T13:12:55Z</time>
      </trkpt>
      <trkpt lat="48.27723" lon="-3.58066">
        <ele>135.4</ele>
        <time>2024-09-07T13:12:56Z</time>
      </trkpt>
      <trkpt lat="48.27723" lon="-3.58062">
        <ele>135.6</ele>
        <time>2024-09-07T13:12:57Z</time>
      </trkpt>
      <trkpt lat="48.27723" lon="-3.58057">
        <ele>135.6</ele>
        <time>2024-09-07T13:12:58Z</time>
      </trkpt>
      <trkpt lat="48.27724" lon="-3.58053">
        <ele>135.6</ele>
        <time>2024-09-07T13:12:59Z</time>
      </trkpt>
      <trkpt lat="48.27724" lon="-3.58048">
        <ele>135.8</ele>
        <time>2024-09-07T13:13:00Z</time>
      </trkpt>
      <trkpt lat="48.27724" lon="-3.58044">
        <ele>135.8</ele>
        <time>2024-09-07T13:13:01Z</time>
      </trkpt>
      <trkpt lat="48.27725" lon="-3.58039">
        <ele>136</ele>
        <time>2024-09-07T13:13:02Z</time>
      </trkpt>
      <trkpt lat="48.27725" lon="-3.58035">
        <ele>136</ele>
        <time>2024-09-07T13:13:03Z</time>
      </trkpt>
      <trkpt lat="48.27725" lon="-3.5803">
        <ele>136.2</ele>
        <time>2024-09-07T13:13:04Z</time>
      </trkpt>
      <trkpt lat="48.27725" lon="-3.58025">
        <ele>136.4</ele>
        <time>2024-09-07T13:13:05Z</time>
      </trkpt>
      <trkpt lat="48.27726" lon="-3.58021">
        <ele>136.4</ele>
        <time>2024-09-07T13:13:06Z</time>
      </trkpt>
      <trkpt lat="48.27726" lon="-3.58015">
        <ele>136.6</ele>
        <time>2024-09-07T13:13:07Z</time>
      </trkpt>
      <trkpt lat="48.27726" lon="-3.5801">
        <ele>136.6</ele>
        <time>2024-09-07T13:13:08Z</time>
      </trkpt>
      <trkpt lat="48.27726" lon="-3.58005">
        <ele>136.8</ele>
        <time>2024-09-07T13:13:09Z</time>
      </trkpt>
      <trkpt lat="48.27727" lon="-3.58">
        <ele>136.8</ele>
        <time>2024-09-07T13:13:10Z</time>
      </trkpt>
      <trkpt lat="48.27727" lon="-3.57994">
        <ele>137</ele>
        <time>2024-09-07T13:13:11Z</time>
      </trkpt>
      <trkpt lat="48.27727" lon="-3.57989">
        <ele>137</ele>
        <time>2024-09-07T13:13:12Z</time>
      </trkpt>
      <trkpt lat="48.27727" lon="-3.57983">
        <ele>137</ele>
        <time>2024-09-07T13:13:13Z</time>
      </trkpt>
      <trkpt lat="48.27728" lon="-3.57978">
        <ele>137.2</ele>
        <time>2024-09-07T13:13:14Z</time>
      </trkpt>
      <trkpt lat="48.27728" lon="-3.57973">
        <ele>137.2</ele>
        <time>2024-09-07T13:13:15Z</time>
      </trkpt>
      <trkpt lat="48.27729" lon="-3.57968">
        <ele>137.4</ele>
        <time>2024-09-07T13:13:16Z</time>
      </trkpt>
      <trkpt lat="48.27729" lon="-3.57963">
        <ele>137.4</ele>
        <time>2024-09-07T13:13:17Z</time>
      </trkpt>
      <trkpt lat="48.27729" lon="-3.57957">
        <ele>137.6</ele>
        <time>2024-09-07T13:13:18Z</time>
      </trkpt>
      <trkpt lat="48.2773" lon="-3.57951">
        <ele>137.6</ele>
        <time>2024-09-07T13:13:19Z</time>
      </trkpt>
      <trkpt lat="48.2773" lon="-3.57945">
        <ele>137.6</ele>
        <time>2024-09-07T13:13:20Z</time>
      </trkpt>
      <trkpt lat="48.27731" lon="-3.5794">
        <ele>137.6</ele>
        <time>2024-09-07T13:13:21Z</time>
      </trkpt>
      <trkpt lat="48.27731" lon="-3.57934">
        <ele>137.8</ele>
        <time>2024-09-07T13:13:22Z</time>
      </trkpt>
      <trkpt lat="48.27732" lon="-3.57929">
        <ele>137.8</ele>
        <time>2024-09-07T13:13:23Z</time>
      </trkpt>
      <trkpt lat="48.27732" lon="-3.57923">
        <ele>137.8</ele>
        <time>2024-09-07T13:13:24Z</time>
      </trkpt>
      <trkpt lat="48.27733" lon="-3.57917">
        <ele>137.8</ele>
        <time>2024-09-07T13:13:25Z</time>
      </trkpt>
      <trkpt lat="48.27733" lon="-3.57912">
        <ele>137.8</ele>
        <time>2024-09-07T13:13:26Z</time>
      </trkpt>
      <trkpt lat="48.27733" lon="-3.57906">
        <ele>137.8</ele>
        <time>2024-09-07T13:13:27Z</time>
      </trkpt>
      <trkpt lat="48.27733" lon="-3.579">
        <ele>137.8</ele>
        <time>2024-09-07T13:13:28Z</time>
      </trkpt>
      <trkpt lat="48.27731" lon="-3.57895">
        <ele>137.8</ele>
        <time>2024-09-07T13:13:29Z</time>
      </trkpt>
      <trkpt lat="48.27729" lon="-3.5789">
        <ele>138</ele>
        <time>2024-09-07T13:13:30Z</time>
      </trkpt>
      <trkpt lat="48.27727" lon="-3.57885">
        <ele>138</ele>
        <time>2024-09-07T13:13:31Z</time>
      </trkpt>
      <trkpt lat="48.27724" lon="-3.57881">
        <ele>138</ele>
        <time>2024-09-07T13:13:32Z</time>
      </trkpt>
      <trkpt lat="48.27722" lon="-3.57876">
        <ele>138</ele>
        <time>2024-09-07T13:13:33Z</time>
      </trkpt>
      <trkpt lat="48.27721" lon="-3.57871">
        <ele>138</ele>
        <time>2024-09-07T13:13:34Z</time>
      </trkpt>
      <trkpt lat="48.27719" lon="-3.57866">
        <ele>138</ele>
        <time>2024-09-07T13:13:35Z</time>
      </trkpt>
      <trkpt lat="48.27719" lon="-3.57861">
        <ele>138</ele>
        <time>2024-09-07T13:13:36Z</time>
      </trkpt>
      <trkpt lat="48.27718" lon="-3.57855">
        <ele>138</ele>
        <time>2024-09-07T13:13:37Z</time>
      </trkpt>
      <trkpt lat="48.27716" lon="-3.57849">
        <ele>138</ele>
        <time>2024-09-07T13:13:38Z</time>
      </trkpt>
      <trkpt lat="48.27715" lon="-3.57843">
        <ele>138</ele>
        <time>2024-09-07T13:13:39Z</time>
      </trkpt>
      <trkpt lat="48.27714" lon="-3.57837">
        <ele>138</ele>
        <time>2024-09-07T13:13:40Z</time>
      </trkpt>
      <trkpt lat="48.27713" lon="-3.57831">
        <ele>138</ele>
        <time>2024-09-07T13:13:41Z</time>
      </trkpt>
      <trkpt lat="48.27712" lon="-3.57825">
        <ele>138</ele>
        <time>2024-09-07T13:13:42Z</time>
      </trkpt>
      <trkpt lat="48.27711" lon="-3.5782">
        <ele>138</ele>
        <time>2024-09-07T13:13:43Z</time>
      </trkpt>
      <trkpt lat="48.2771" lon="-3.57814">
        <ele>138</ele>
        <time>2024-09-07T13:13:44Z</time>
      </trkpt>
      <trkpt lat="48.27709" lon="-3.57808">
        <ele>138</ele>
        <time>2024-09-07T13:13:45Z</time>
      </trkpt>
      <trkpt lat="48.27708" lon="-3.57802">
        <ele>138</ele>
        <time>2024-09-07T13:13:46Z</time>
      </trkpt>
      <trkpt lat="48.27707" lon="-3.57797">
        <ele>138</ele>
        <time>2024-09-07T13:13:47Z</time>
      </trkpt>
      <trkpt lat="48.27707" lon="-3.57791">
        <ele>138</ele>
        <time>2024-09-07T13:13:48Z</time>
      </trkpt>
      <trkpt lat="48.27707" lon="-3.57786">
        <ele>138.2</ele>
        <time>2024-09-07T13:13:49Z</time>
      </trkpt>
      <trkpt lat="48.27707" lon="-3.57779">
        <ele>138.2</ele>
        <time>2024-09-07T13:13:50Z</time>
      </trkpt>
      <trkpt lat="48.27708" lon="-3.57774">
        <ele>138.2</ele>
        <time>2024-09-07T13:13:51Z</time>
      </trkpt>
      <trkpt lat="48.2771" lon="-3.57767">
        <ele>138.2</ele>
        <time>2024-09-07T13:13:52Z</time>
      </trkpt>
      <trkpt lat="48.27711" lon="-3.57762">
        <ele>138.2</ele>
        <time>2024-09-07T13:13:53Z</time>
      </trkpt>
      <trkpt lat="48.27712" lon="-3.57756">
        <ele>138.2</ele>
        <time>2024-09-07T13:13:54Z</time>
      </trkpt>
      <trkpt lat="48.27713" lon="-3.5775">
        <ele>138.2</ele>
        <time>2024-09-07T13:13:55Z</time>
      </trkpt>
      <trkpt lat="48.27715" lon="-3.57744">
        <ele>138.2</ele>
        <time>2024-09-07T13:13:56Z</time>
      </trkpt>
      <trkpt lat="48.27716" lon="-3.57738">
        <ele>138.2</ele>
        <time>2024-09-07T13:13:57Z</time>
      </trkpt>
      <trkpt lat="48.27718" lon="-3.57732">
        <ele>138.2</ele>
        <time>2024-09-07T13:13:58Z</time>
      </trkpt>
      <trkpt lat="48.2772" lon="-3.57726">
        <ele>138.2</ele>
        <time>2024-09-07T13:13:59Z</time>
      </trkpt>
      <trkpt lat="48.27722" lon="-3.57721">
        <ele>138.2</ele>
        <time>2024-09-07T13:14:00Z</time>
      </trkpt>
      <trkpt lat="48.27724" lon="-3.57715">
        <ele>138.2</ele>
        <time>2024-09-07T13:14:01Z</time>
      </trkpt>
      <trkpt lat="48.27725" lon="-3.57709">
        <ele>138.2</ele>
        <time>2024-09-07T13:14:02Z</time>
      </trkpt>
      <trkpt lat="48.27726" lon="-3.57703">
        <ele>138.2</ele>
        <time>2024-09-07T13:14:03Z</time>
      </trkpt>
      <trkpt lat="48.27726" lon="-3.57698">
        <ele>138.2</ele>
        <time>2024-09-07T13:14:04Z</time>
      </trkpt>
      <trkpt lat="48.27727" lon="-3.57694">
        <ele>138.2</ele>
        <time>2024-09-07T13:14:05Z</time>
      </trkpt>
      <trkpt lat="48.27728" lon="-3.57691">
        <ele>138.2</ele>
        <time>2024-09-07T13:14:06Z</time>
      </trkpt>
      <trkpt lat="48.27728" lon="-3.57688">
        <ele>138.2</ele>
        <time>2024-09-07T13:14:07Z</time>
      </trkpt>
      <trkpt lat="48.27729" lon="-3.57685">
        <ele>138.2</ele>
        <time>2024-09-07T13:14:08Z</time>
      </trkpt>
      <trkpt lat="48.2773" lon="-3.57682">
        <ele>138.2</ele>
        <time>2024-09-07T13:14:09Z</time>
      </trkpt>
      <trkpt lat="48.2773" lon="-3.57679">
        <ele>138</ele>
        <time>2024-09-07T13:14:10Z</time>
      </trkpt>
      <trkpt lat="48.27731" lon="-3.57676">
        <ele>138</ele>
        <time>2024-09-07T13:14:11Z</time>
      </trkpt>
      <trkpt lat="48.27731" lon="-3.57672">
        <ele>138</ele>
        <time>2024-09-07T13:14:12Z</time>
      </trkpt>
      <trkpt lat="48.2773" lon="-3.57668">
        <ele>138</ele>
        <time>2024-09-07T13:14:13Z</time>
      </trkpt>
      <trkpt lat="48.27729" lon="-3.57664">
        <ele>138</ele>
        <time>2024-09-07T13:14:14Z</time>
      </trkpt>
      <trkpt lat="48.27729" lon="-3.5766">
        <ele>138</ele>
        <time>2024-09-07T13:14:15Z</time>
      </trkpt>
      <trkpt lat="48.27728" lon="-3.57655">
        <ele>138</ele>
        <time>2024-09-07T13:14:16Z</time>
      </trkpt>
      <trkpt lat="48.27728" lon="-3.57651">
        <ele>138</ele>
        <time>2024-09-07T13:14:17Z</time>
      </trkpt>
      <trkpt lat="48.27728" lon="-3.57646">
        <ele>138</ele>
        <time>2024-09-07T13:14:18Z</time>
      </trkpt>
      <trkpt lat="48.27729" lon="-3.57641">
        <ele>138</ele>
        <time>2024-09-07T13:14:19Z</time>
      </trkpt>
      <trkpt lat="48.2773" lon="-3.57636">
        <ele>138</ele>
        <time>2024-09-07T13:14:20Z</time>
      </trkpt>
      <trkpt lat="48.27731" lon="-3.5763">
        <ele>138</ele>
        <time>2024-09-07T13:14:21Z</time>
      </trkpt>
      <trkpt lat="48.27732" lon="-3.57624">
        <ele>138</ele>
        <time>2024-09-07T13:14:22Z</time>
      </trkpt>
      <trkpt lat="48.27733" lon="-3.57618">
        <ele>138</ele>
        <time>2024-09-07T13:14:23Z</time>
      </trkpt>
      <trkpt lat="48.27734" lon="-3.57613">
        <ele>138</ele>
        <time>2024-09-07T13:14:24Z</time>
      </trkpt>
      <trkpt lat="48.27735" lon="-3.57606">
        <ele>138</ele>
        <time>2024-09-07T13:14:25Z</time>
      </trkpt>
      <trkpt lat="48.27736" lon="-3.576">
        <ele>138</ele>
        <time>2024-09-07T13:14:26Z</time>
      </trkpt>
      <trkpt lat="48.27737" lon="-3.57594">
        <ele>138</ele>
        <time>2024-09-07T13:14:27Z</time>
      </trkpt>
      <trkpt lat="48.27739" lon="-3.57587">
        <ele>138</ele>
        <time>2024-09-07T13:14:28Z</time>
      </trkpt>
      <trkpt lat="48.2774" lon="-3.5758">
        <ele>138</ele>
        <time>2024-09-07T13:14:29Z</time>
      </trkpt>
      <trkpt lat="48.27741" lon="-3.57573">
        <ele>138</ele>
        <time>2024-09-07T13:14:30Z</time>
      </trkpt>
      <trkpt lat="48.27742" lon="-3.57566">
        <ele>138.2</ele>
        <time>2024-09-07T13:14:31Z</time>
      </trkpt>
      <trkpt lat="48.27743" lon="-3.57559">
        <ele>138.2</ele>
        <time>2024-09-07T13:14:32Z</time>
      </trkpt>
      <trkpt lat="48.27744" lon="-3.57553">
        <ele>138.4</ele>
        <time>2024-09-07T13:14:33Z</time>
      </trkpt>
      <trkpt lat="48.27745" lon="-3.57547">
        <ele>138.6</ele>
        <time>2024-09-07T13:14:34Z</time>
      </trkpt>
      <trkpt lat="48.27746" lon="-3.5754">
        <ele>139</ele>
        <time>2024-09-07T13:14:35Z</time>
      </trkpt>
      <trkpt lat="48.27747" lon="-3.57534">
        <ele>139</ele>
        <time>2024-09-07T13:14:36Z</time>
      </trkpt>
      <trkpt lat="48.27748" lon="-3.57528">
        <ele>139.2</ele>
        <time>2024-09-07T13:14:37Z</time>
      </trkpt>
      <trkpt lat="48.27749" lon="-3.57521">
        <ele>139.4</ele>
        <time>2024-09-07T13:14:38Z</time>
      </trkpt>
      <trkpt lat="48.2775" lon="-3.57515">
        <ele>139.4</ele>
        <time>2024-09-07T13:14:39Z</time>
      </trkpt>
      <trkpt lat="48.27752" lon="-3.57509">
        <ele>139.4</ele>
        <time>2024-09-07T13:14:40Z</time>
      </trkpt>
      <trkpt lat="48.27754" lon="-3.57502">
        <ele>139.6</ele>
        <time>2024-09-07T13:14:41Z</time>
      </trkpt>
      <trkpt lat="48.27755" lon="-3.57496">
        <ele>139.8</ele>
        <time>2024-09-07T13:14:42Z</time>
      </trkpt>
      <trkpt lat="48.27757" lon="-3.5749">
        <ele>139.8</ele>
        <time>2024-09-07T13:14:43Z</time>
      </trkpt>
      <trkpt lat="48.27758" lon="-3.57484">
        <ele>139.8</ele>
        <time>2024-09-07T13:14:44Z</time>
      </trkpt>
      <trkpt lat="48.27759" lon="-3.57478">
        <ele>140</ele>
        <time>2024-09-07T13:14:45Z</time>
      </trkpt>
      <trkpt lat="48.27761" lon="-3.57473">
        <ele>140</ele>
        <time>2024-09-07T13:14:46Z</time>
      </trkpt>
      <trkpt lat="48.27763" lon="-3.57467">
        <ele>140</ele>
        <time>2024-09-07T13:14:47Z</time>
      </trkpt>
      <trkpt lat="48.27765" lon="-3.57462">
        <ele>140</ele>
        <time>2024-09-07T13:14:48Z</time>
      </trkpt>
      <trkpt lat="48.27766" lon="-3.57456">
        <ele>140</ele>
        <time>2024-09-07T13:14:49Z</time>
      </trkpt>
      <trkpt lat="48.27767" lon="-3.5745">
        <ele>140</ele>
        <time>2024-09-07T13:14:50Z</time>
      </trkpt>
      <trkpt lat="48.27768" lon="-3.57444">
        <ele>140</ele>
        <time>2024-09-07T13:14:51Z</time>
      </trkpt>
      <trkpt lat="48.27769" lon="-3.57437">
        <ele>140</ele>
        <time>2024-09-07T13:14:52Z</time>
      </trkpt>
      <trkpt lat="48.2777" lon="-3.57431">
        <ele>139.8</ele>
        <time>2024-09-07T13:14:53Z</time>
      </trkpt>
      <trkpt lat="48.2777" lon="-3.57424">
        <ele>139.6</ele>
        <time>2024-09-07T13:14:54Z</time>
      </trkpt>
      <trkpt lat="48.27771" lon="-3.57416">
        <ele>139.6</ele>
        <time>2024-09-07T13:14:55Z</time>
      </trkpt>
      <trkpt lat="48.27771" lon="-3.57409">
        <ele>139.4</ele>
        <time>2024-09-07T13:14:56Z</time>
      </trkpt>
      <trkpt lat="48.27772" lon="-3.57401">
        <ele>139.2</ele>
        <time>2024-09-07T13:14:57Z</time>
      </trkpt>
      <trkpt lat="48.27773" lon="-3.57393">
        <ele>139.2</ele>
        <time>2024-09-07T13:14:58Z</time>
      </trkpt>
      <trkpt lat="48.27773" lon="-3.57385">
        <ele>139</ele>
        <time>2024-09-07T13:14:59Z</time>
      </trkpt>
      <trkpt lat="48.27775" lon="-3.57377">
        <ele>139</ele>
        <time>2024-09-07T13:15:00Z</time>
      </trkpt>
      <trkpt lat="48.27776" lon="-3.57369">
        <ele>139</ele>
        <time>2024-09-07T13:15:01Z</time>
      </trkpt>
      <trkpt lat="48.27777" lon="-3.57362">
        <ele>138.8</ele>
        <time>2024-09-07T13:15:02Z</time>
      </trkpt>
      <trkpt lat="48.27779" lon="-3.57354">
        <ele>138.8</ele>
        <time>2024-09-07T13:15:03Z</time>
      </trkpt>
      <trkpt lat="48.27782" lon="-3.57347">
        <ele>138.6</ele>
        <time>2024-09-07T13:15:04Z</time>
      </trkpt>
      <trkpt lat="48.27786" lon="-3.57339">
        <ele>138.4</ele>
        <time>2024-09-07T13:15:05Z</time>
      </trkpt>
      <trkpt lat="48.27789" lon="-3.57335">
        <ele>138.2</ele>
        <time>2024-09-07T13:15:06Z</time>
      </trkpt>
      <trkpt lat="48.27793" lon="-3.57329">
        <ele>137.8</ele>
        <time>2024-09-07T13:15:07Z</time>
      </trkpt>
      <trkpt lat="48.27796" lon="-3.57325">
        <ele>137.4</ele>
        <time>2024-09-07T13:15:08Z</time>
      </trkpt>
      <trkpt lat="48.278" lon="-3.57322">
        <ele>137</ele>
        <time>2024-09-07T13:15:09Z</time>
      </trkpt>
      <trkpt lat="48.27804" lon="-3.57319">
        <ele>136.6</ele>
        <time>2024-09-07T13:15:10Z</time>
      </trkpt>
      <trkpt lat="48.27807" lon="-3.57317">
        <ele>136.4</ele>
        <time>2024-09-07T13:15:11Z</time>
      </trkpt>
      <trkpt lat="48.27811" lon="-3.57315">
        <ele>136.2</ele>
        <time>2024-09-07T13:15:12Z</time>
      </trkpt>
      <trkpt lat="48.27815" lon="-3.57315">
        <ele>136</ele>
        <time>2024-09-07T13:15:13Z</time>
      </trkpt>
      <trkpt lat="48.27821" lon="-3.57314">
        <ele>136</ele>
        <time>2024-09-07T13:15:14Z</time>
      </trkpt>
      <trkpt lat="48.27824" lon="-3.57314">
        <ele>135.8</ele>
        <time>2024-09-07T13:15:15Z</time>
      </trkpt>
      <trkpt lat="48.27829" lon="-3.57314">
        <ele>135.6</ele>
        <time>2024-09-07T13:15:16Z</time>
      </trkpt>
      <trkpt lat="48.27835" lon="-3.57313">
        <ele>135.4</ele>
        <time>2024-09-07T13:15:17Z</time>
      </trkpt>
      <trkpt lat="48.27841" lon="-3.57313">
        <ele>135.2</ele>
        <time>2024-09-07T13:15:18Z</time>
      </trkpt>
      <trkpt lat="48.27847" lon="-3.57313">
        <ele>135</ele>
        <time>2024-09-07T13:15:19Z</time>
      </trkpt>
      <trkpt lat="48.27853" lon="-3.57313">
        <ele>134.8</ele>
        <time>2024-09-07T13:15:20Z</time>
      </trkpt>
      <trkpt lat="48.27859" lon="-3.57314">
        <ele>134.6</ele>
        <time>2024-09-07T13:15:21Z</time>
      </trkpt>
      <trkpt lat="48.27865" lon="-3.57314">
        <ele>134.6</ele>
        <time>2024-09-07T13:15:22Z</time>
      </trkpt>
      <trkpt lat="48.27872" lon="-3.57314">
        <ele>134.6</ele>
        <time>2024-09-07T13:15:23Z</time>
      </trkpt>
      <trkpt lat="48.27878" lon="-3.57314">
        <ele>134.2</ele>
        <time>2024-09-07T13:15:24Z</time>
      </trkpt>
      <trkpt lat="48.27885" lon="-3.57315">
        <ele>134</ele>
        <time>2024-09-07T13:15:25Z</time>
      </trkpt>
      <trkpt lat="48.27892" lon="-3.57315">
        <ele>133.8</ele>
        <time>2024-09-07T13:15:26Z</time>
      </trkpt>
      <trkpt lat="48.27899" lon="-3.57315">
        <ele>133.6</ele>
        <time>2024-09-07T13:15:27Z</time>
      </trkpt>
      <trkpt lat="48.27907" lon="-3.57314">
        <ele>133.4</ele>
        <time>2024-09-07T13:15:28Z</time>
      </trkpt>
      <trkpt lat="48.27915" lon="-3.57315">
        <ele>133</ele>
        <time>2024-09-07T13:15:29Z</time>
      </trkpt>
      <trkpt lat="48.27922" lon="-3.57315">
        <ele>132.8</ele>
        <time>2024-09-07T13:15:30Z</time>
      </trkpt>
      <trkpt lat="48.2793" lon="-3.57316">
        <ele>132.6</ele>
        <time>2024-09-07T13:15:31Z</time>
      </trkpt>
      <trkpt lat="48.2794" lon="-3.57319">
        <ele>132.2</ele>
        <time>2024-09-07T13:15:32Z</time>
      </trkpt>
      <trkpt lat="48.27946" lon="-3.57321">
        <ele>132</ele>
        <time>2024-09-07T13:15:33Z</time>
      </trkpt>
      <trkpt lat="48.27954" lon="-3.57323">
        <ele>131.8</ele>
        <time>2024-09-07T13:15:34Z</time>
      </trkpt>
      <trkpt lat="48.27964" lon="-3.57327">
        <ele>131.6</ele>
        <time>2024-09-07T13:15:35Z</time>
      </trkpt>
      <trkpt lat="48.2797" lon="-3.5733">
        <ele>131.4</ele>
        <time>2024-09-07T13:15:36Z</time>
      </trkpt>
      <trkpt lat="48.2798" lon="-3.57336">
        <ele>131.2</ele>
        <time>2024-09-07T13:15:37Z</time>
      </trkpt>
      <trkpt lat="48.27988" lon="-3.57342">
        <ele>130.8</ele>
        <time>2024-09-07T13:15:38Z</time>
      </trkpt>
      <trkpt lat="48.27994" lon="-3.57348">
        <ele>130.4</ele>
        <time>2024-09-07T13:15:39Z</time>
      </trkpt>
      <trkpt lat="48.28003" lon="-3.57355">
        <ele>130</ele>
        <time>2024-09-07T13:15:40Z</time>
      </trkpt>
      <trkpt lat="48.2801" lon="-3.57361">
        <ele>129.8</ele>
        <time>2024-09-07T13:15:41Z</time>
      </trkpt>
      <trkpt lat="48.28018" lon="-3.57367">
        <ele>129.6</ele>
        <time>2024-09-07T13:15:42Z</time>
      </trkpt>
      <trkpt lat="48.28026" lon="-3.57373">
        <ele>129.4</ele>
        <time>2024-09-07T13:15:43Z</time>
      </trkpt>
      <trkpt lat="48.28035" lon="-3.57379">
        <ele>129</ele>
        <time>2024-09-07T13:15:44Z</time>
      </trkpt>
      <trkpt lat="48.28043" lon="-3.57385">
        <ele>128.4</ele>
        <time>2024-09-07T13:15:45Z</time>
      </trkpt>
      <trkpt lat="48.28052" lon="-3.57391">
        <ele>128</ele>
        <time>2024-09-07T13:15:46Z</time>
      </trkpt>
      <trkpt lat="48.2806" lon="-3.57397">
        <ele>127.4</ele>
        <time>2024-09-07T13:15:47Z</time>
      </trkpt>
      <trkpt lat="48.28069" lon="-3.57402">
        <ele>127</ele>
        <time>2024-09-07T13:15:48Z</time>
      </trkpt>
      <trkpt lat="48.28078" lon="-3.57407">
        <ele>126.6</ele>
        <time>2024-09-07T13:15:49Z</time>
      </trkpt>
      <trkpt lat="48.28087" lon="-3.57411">
        <ele>126.2</ele>
        <time>2024-09-07T13:15:50Z</time>
      </trkpt>
      <trkpt lat="48.28097" lon="-3.57416">
        <ele>125.6</ele>
        <time>2024-09-07T13:15:51Z</time>
      </trkpt>
      <trkpt lat="48.28106" lon="-3.57421">
        <ele>125.2</ele>
        <time>2024-09-07T13:15:52Z</time>
      </trkpt>
      <trkpt lat="48.28116" lon="-3.57425">
        <ele>124.6</ele>
        <time>2024-09-07T13:15:53Z</time>
      </trkpt>
      <trkpt lat="48.28126" lon="-3.5743">
        <ele>124</ele>
        <time>2024-09-07T13:15:54Z</time>
      </trkpt>
      <trkpt lat="48.28136" lon="-3.57434">
        <ele>123.6</ele>
        <time>2024-09-07T13:15:55Z</time>
      </trkpt>
      <trkpt lat="48.28146" lon="-3.57438">
        <ele>123</ele>
        <time>2024-09-07T13:15:56Z</time>
      </trkpt>
      <trkpt lat="48.28154" lon="-3.57443">
        <ele>123</ele>
        <time>2024-09-07T13:15:57Z</time>
      </trkpt>
      <trkpt lat="48.28163" lon="-3.5745">
        <ele>122.6</ele>
        <time>2024-09-07T13:15:58Z</time>
      </trkpt>
      <trkpt lat="48.28172" lon="-3.57457">
        <ele>122</ele>
        <time>2024-09-07T13:15:59Z</time>
      </trkpt>
      <trkpt lat="48.28181" lon="-3.57464">
        <ele>121.4</ele>
        <time>2024-09-07T13:16:00Z</time>
      </trkpt>
      <trkpt lat="48.2819" lon="-3.57472">
        <ele>120.8</ele>
        <time>2024-09-07T13:16:01Z</time>
      </trkpt>
      <trkpt lat="48.28198" lon="-3.57482">
        <ele>120.4</ele>
        <time>2024-09-07T13:16:02Z</time>
      </trkpt>
      <trkpt lat="48.28207" lon="-3.57491">
        <ele>119.8</ele>
        <time>2024-09-07T13:16:03Z</time>
      </trkpt>
      <trkpt lat="48.28215" lon="-3.57501">
        <ele>119.2</ele>
        <time>2024-09-07T13:16:04Z</time>
      </trkpt>
      <trkpt lat="48.28224" lon="-3.57511">
        <ele>118.8</ele>
        <time>2024-09-07T13:16:05Z</time>
      </trkpt>
      <trkpt lat="48.28232" lon="-3.57521">
        <ele>118</ele>
        <time>2024-09-07T13:16:06Z</time>
      </trkpt>
      <trkpt lat="48.28241" lon="-3.57531">
        <ele>117.4</ele>
        <time>2024-09-07T13:16:07Z</time>
      </trkpt>
      <trkpt lat="48.2825" lon="-3.57541">
        <ele>117</ele>
        <time>2024-09-07T13:16:08Z</time>
      </trkpt>
      <trkpt lat="48.28259" lon="-3.57551">
        <ele>116.4</ele>
        <time>2024-09-07T13:16:09Z</time>
      </trkpt>
      <trkpt lat="48.28267" lon="-3.57561">
        <ele>115.6</ele>
        <time>2024-09-07T13:16:10Z</time>
      </trkpt>
      <trkpt lat="48.28276" lon="-3.57571">
        <ele>115</ele>
        <time>2024-09-07T13:16:11Z</time>
      </trkpt>
      <trkpt lat="48.28285" lon="-3.57582">
        <ele>114.6</ele>
        <time>2024-09-07T13:16:12Z</time>
      </trkpt>
      <trkpt lat="48.28294" lon="-3.57592">
        <ele>114</ele>
        <time>2024-09-07T13:16:13Z</time>
      </trkpt>
      <trkpt lat="48.28304" lon="-3.57603">
        <ele>113.6</ele>
        <time>2024-09-07T13:16:14Z</time>
      </trkpt>
      <trkpt lat="48.28313" lon="-3.57614">
        <ele>113.4</ele>
        <time>2024-09-07T13:16:15Z</time>
      </trkpt>
      <trkpt lat="48.28322" lon="-3.57625">
        <ele>113</ele>
        <time>2024-09-07T13:16:16Z</time>
      </trkpt>
      <trkpt lat="48.28332" lon="-3.57637">
        <ele>112.2</ele>
        <time>2024-09-07T13:16:17Z</time>
      </trkpt>
      <trkpt lat="48.28341" lon="-3.57649">
        <ele>111.2</ele>
        <time>2024-09-07T13:16:18Z</time>
      </trkpt>
      <trkpt lat="48.28351" lon="-3.57661">
        <ele>110.4</ele>
        <time>2024-09-07T13:16:19Z</time>
      </trkpt>
      <trkpt lat="48.2836" lon="-3.57673">
        <ele>109.6</ele>
        <time>2024-09-07T13:16:20Z</time>
      </trkpt>
      <trkpt lat="48.28368" lon="-3.57687">
        <ele>108.8</ele>
        <time>2024-09-07T13:16:21Z</time>
      </trkpt>
      <trkpt lat="48.28376" lon="-3.57702">
        <ele>107.8</ele>
        <time>2024-09-07T13:16:22Z</time>
      </trkpt>
      <trkpt lat="48.28384" lon="-3.57717">
        <ele>106.8</ele>
        <time>2024-09-07T13:16:23Z</time>
      </trkpt>
      <trkpt lat="48.28391" lon="-3.57733">
        <ele>106</ele>
        <time>2024-09-07T13:16:24Z</time>
      </trkpt>
      <trkpt lat="48.28398" lon="-3.5775">
        <ele>105</ele>
        <time>2024-09-07T13:16:25Z</time>
      </trkpt>
      <trkpt lat="48.28405" lon="-3.57767">
        <ele>104.2</ele>
        <time>2024-09-07T13:16:26Z</time>
      </trkpt>
      <trkpt lat="48.28411" lon="-3.57785">
        <ele>103.6</ele>
        <time>2024-09-07T13:16:27Z</time>
      </trkpt>
      <trkpt lat="48.28416" lon="-3.57803">
        <ele>102.8</ele>
        <time>2024-09-07T13:16:28Z</time>
      </trkpt>
      <trkpt lat="48.28422" lon="-3.57822">
        <ele>102.2</ele>
        <time>2024-09-07T13:16:29Z</time>
      </trkpt>
      <trkpt lat="48.28428" lon="-3.5784">
        <ele>102.2</ele>
        <time>2024-09-07T13:16:30Z</time>
      </trkpt>
      <trkpt lat="48.28434" lon="-3.57859">
        <ele>101.2</ele>
        <time>2024-09-07T13:16:31Z</time>
      </trkpt>
      <trkpt lat="48.2844" lon="-3.57877">
        <ele>100.6</ele>
        <time>2024-09-07T13:16:32Z</time>
      </trkpt>
      <trkpt lat="48.28446" lon="-3.57895">
        <ele>99.8</ele>
        <time>2024-09-07T13:16:33Z</time>
      </trkpt>
      <trkpt lat="48.28452" lon="-3.57913">
        <ele>99</ele>
        <time>2024-09-07T13:16:34Z</time>
      </trkpt>
      <trkpt lat="48.28457" lon="-3.5793">
        <ele>97.8</ele>
        <time>2024-09-07T13:16:35Z</time>
      </trkpt>
      <trkpt lat="48.28463" lon="-3.57946">
        <ele>96.6</ele>
        <time>2024-09-07T13:16:36Z</time>
      </trkpt>
      <trkpt lat="48.28468" lon="-3.57962">
        <ele>95</ele>
        <time>2024-09-07T13:16:37Z</time>
      </trkpt>
      <trkpt lat="48.28473" lon="-3.57977">
        <ele>93.4</ele>
        <time>2024-09-07T13:16:38Z</time>
      </trkpt>
      <trkpt lat="48.28478" lon="-3.57992">
        <ele>92</ele>
        <time>2024-09-07T13:16:39Z</time>
      </trkpt>
      <trkpt lat="48.28483" lon="-3.58006">
        <ele>90.6</ele>
        <time>2024-09-07T13:16:40Z</time>
      </trkpt>
      <trkpt lat="48.28487" lon="-3.58019">
        <ele>89.4</ele>
        <time>2024-09-07T13:16:41Z</time>
      </trkpt>
      <trkpt lat="48.28491" lon="-3.58032">
        <ele>88.4</ele>
        <time>2024-09-07T13:16:42Z</time>
      </trkpt>
      <trkpt lat="48.28495" lon="-3.58043">
        <ele>88</ele>
        <time>2024-09-07T13:16:43Z</time>
      </trkpt>
      <trkpt lat="48.28499" lon="-3.58053">
        <ele>87.8</ele>
        <time>2024-09-07T13:16:44Z</time>
      </trkpt>
      <trkpt lat="48.28503" lon="-3.58063">
        <ele>87.8</ele>
        <time>2024-09-07T13:16:45Z</time>
      </trkpt>
      <trkpt lat="48.28506" lon="-3.58071">
        <ele>87.6</ele>
        <time>2024-09-07T13:16:46Z</time>
      </trkpt>
      <trkpt lat="48.28509" lon="-3.58078">
        <ele>87.6</ele>
        <time>2024-09-07T13:16:47Z</time>
      </trkpt>
      <trkpt lat="48.28513" lon="-3.58086">
        <ele>87.6</ele>
        <time>2024-09-07T13:16:48Z</time>
      </trkpt>
      <trkpt lat="48.28517" lon="-3.58094">
        <ele>87.6</ele>
        <time>2024-09-07T13:16:49Z</time>
      </trkpt>
      <trkpt lat="48.2852" lon="-3.58101">
        <ele>87.6</ele>
        <time>2024-09-07T13:16:50Z</time>
      </trkpt>
      <trkpt lat="48.28524" lon="-3.58106">
        <ele>87.6</ele>
        <time>2024-09-07T13:16:51Z</time>
      </trkpt>
      <trkpt lat="48.28527" lon="-3.58112">
        <ele>87.6</ele>
        <time>2024-09-07T13:16:52Z</time>
      </trkpt>
      <trkpt lat="48.2853" lon="-3.58118">
        <ele>87.8</ele>
        <time>2024-09-07T13:16:53Z</time>
      </trkpt>
      <trkpt lat="48.28533" lon="-3.58123">
        <ele>88.2</ele>
        <time>2024-09-07T13:16:54Z</time>
      </trkpt>
      <trkpt lat="48.28536" lon="-3.58128">
        <ele>88.6</ele>
        <time>2024-09-07T13:16:55Z</time>
      </trkpt>
      <trkpt lat="48.28539" lon="-3.58132">
        <ele>89.2</ele>
        <time>2024-09-07T13:16:56Z</time>
      </trkpt>
      <trkpt lat="48.28542" lon="-3.58137">
        <ele>89.6</ele>
        <time>2024-09-07T13:16:57Z</time>
      </trkpt>
      <trkpt lat="48.28545" lon="-3.58141">
        <ele>90.2</ele>
        <time>2024-09-07T13:16:58Z</time>
      </trkpt>
      <trkpt lat="48.28548" lon="-3.58145">
        <ele>90.6</ele>
        <time>2024-09-07T13:16:59Z</time>
      </trkpt>
      <trkpt lat="48.28551" lon="-3.58148">
        <ele>91</ele>
        <time>2024-09-07T13:17:00Z</time>
      </trkpt>
      <trkpt lat="48.28554" lon="-3.58152">
        <ele>91.2</ele>
        <time>2024-09-07T13:17:01Z</time>
      </trkpt>
      <trkpt lat="48.28557" lon="-3.58155">
        <ele>91.6</ele>
        <time>2024-09-07T13:17:02Z</time>
      </trkpt>
      <trkpt lat="48.2856" lon="-3.58159">
        <ele>91.6</ele>
        <time>2024-09-07T13:17:03Z</time>
      </trkpt>
      <trkpt lat="48.28563" lon="-3.58162">
        <ele>92</ele>
        <time>2024-09-07T13:17:04Z</time>
      </trkpt>
      <trkpt lat="48.28566" lon="-3.58166">
        <ele>92.6</ele>
        <time>2024-09-07T13:17:05Z</time>
      </trkpt>
      <trkpt lat="48.28569" lon="-3.58168">
        <ele>93</ele>
        <time>2024-09-07T13:17:06Z</time>
      </trkpt>
      <trkpt lat="48.28572" lon="-3.58171">
        <ele>93.4</ele>
        <time>2024-09-07T13:17:07Z</time>
      </trkpt>
      <trkpt lat="48.28575" lon="-3.58174">
        <ele>93.8</ele>
        <time>2024-09-07T13:17:08Z</time>
      </trkpt>
      <trkpt lat="48.28578" lon="-3.58177">
        <ele>94</ele>
        <time>2024-09-07T13:17:09Z</time>
      </trkpt>
      <trkpt lat="48.28581" lon="-3.5818">
        <ele>94.2</ele>
        <time>2024-09-07T13:17:10Z</time>
      </trkpt>
      <trkpt lat="48.28583" lon="-3.58183">
        <ele>94.6</ele>
        <time>2024-09-07T13:17:11Z</time>
      </trkpt>
      <trkpt lat="48.28586" lon="-3.58185">
        <ele>94.8</ele>
        <time>2024-09-07T13:17:12Z</time>
      </trkpt>
      <trkpt lat="48.28589" lon="-3.58188">
        <ele>94.8</ele>
        <time>2024-09-07T13:17:13Z</time>
      </trkpt>
      <trkpt lat="48.28592" lon="-3.5819">
        <ele>95</ele>
        <time>2024-09-07T13:17:14Z</time>
      </trkpt>
      <trkpt lat="48.28595" lon="-3.58192">
        <ele>95.2</ele>
        <time>2024-09-07T13:17:15Z</time>
      </trkpt>
      <trkpt lat="48.28598" lon="-3.58195">
        <ele>95.2</ele>
        <time>2024-09-07T13:17:16Z</time>
      </trkpt>
      <trkpt lat="48.286" lon="-3.58198">
        <ele>95.4</ele>
        <time>2024-09-07T13:17:17Z</time>
      </trkpt>
      <trkpt lat="48.28603" lon="-3.58201">
        <ele>95.6</ele>
        <time>2024-09-07T13:17:18Z</time>
      </trkpt>
      <trkpt lat="48.28606" lon="-3.58202">
        <ele>95.6</ele>
        <time>2024-09-07T13:17:19Z</time>
      </trkpt>
      <trkpt lat="48.28609" lon="-3.58204">
        <ele>95.8</ele>
        <time>2024-09-07T13:17:20Z</time>
      </trkpt>
      <trkpt lat="48.28612" lon="-3.58207">
        <ele>96</ele>
        <time>2024-09-07T13:17:21Z</time>
      </trkpt>
      <trkpt lat="48.28615" lon="-3.58209">
        <ele>96.2</ele>
        <time>2024-09-07T13:17:22Z</time>
      </trkpt>
      <trkpt lat="48.28617" lon="-3.58211">
        <ele>96.4</ele>
        <time>2024-09-07T13:17:23Z</time>
      </trkpt>
      <trkpt lat="48.2862" lon="-3.58212">
        <ele>96.8</ele>
        <time>2024-09-07T13:17:24Z</time>
      </trkpt>
      <trkpt lat="48.28623" lon="-3.58214">
        <ele>97</ele>
        <time>2024-09-07T13:17:25Z</time>
      </trkpt>
      <trkpt lat="48.28626" lon="-3.58216">
        <ele>97.4</ele>
        <time>2024-09-07T13:17:26Z</time>
      </trkpt>
      <trkpt lat="48.2863" lon="-3.58218">
        <ele>97.4</ele>
        <time>2024-09-07T13:17:27Z</time>
      </trkpt>
      <trkpt lat="48.28633" lon="-3.5822">
        <ele>97.6</ele>
        <time>2024-09-07T13:17:28Z</time>
      </trkpt>
      <trkpt lat="48.28636" lon="-3.58222">
        <ele>97.8</ele>
        <time>2024-09-07T13:17:29Z</time>
      </trkpt>
      <trkpt lat="48.28638" lon="-3.58225">
        <ele>98.2</ele>
        <time>2024-09-07T13:17:30Z</time>
      </trkpt>
      <trkpt lat="48.28641" lon="-3.58226">
        <ele>98.4</ele>
        <time>2024-09-07T13:17:31Z</time>
      </trkpt>
      <trkpt lat="48.28644" lon="-3.58228">
        <ele>98.6</ele>
        <time>2024-09-07T13:17:32Z</time>
      </trkpt>
      <trkpt lat="48.28647" lon="-3.5823">
        <ele>98.8</ele>
        <time>2024-09-07T13:17:33Z</time>
      </trkpt>
      <trkpt lat="48.2865" lon="-3.58232">
        <ele>99</ele>
        <time>2024-09-07T13:17:34Z</time>
      </trkpt>
      <trkpt lat="48.28652" lon="-3.58234">
        <ele>99</ele>
        <time>2024-09-07T13:17:35Z</time>
      </trkpt>
      <trkpt lat="48.28655" lon="-3.58235">
        <ele>98.8</ele>
        <time>2024-09-07T13:17:36Z</time>
      </trkpt>
      <trkpt lat="48.28658" lon="-3.58236">
        <ele>99</ele>
        <time>2024-09-07T13:17:37Z</time>
      </trkpt>
      <trkpt lat="48.28661" lon="-3.58238">
        <ele>99.2</ele>
        <time>2024-09-07T13:17:38Z</time>
      </trkpt>
      <trkpt lat="48.28664" lon="-3.5824">
        <ele>99.6</ele>
        <time>2024-09-07T13:17:39Z</time>
      </trkpt>
      <trkpt lat="48.28667" lon="-3.58241">
        <ele>99.8</ele>
        <time>2024-09-07T13:17:40Z</time>
      </trkpt>
      <trkpt lat="48.2867" lon="-3.58243">
        <ele>100</ele>
        <time>2024-09-07T13:17:41Z</time>
      </trkpt>
      <trkpt lat="48.28673" lon="-3.58244">
        <ele>100.2</ele>
        <time>2024-09-07T13:17:42Z</time>
      </trkpt>
      <trkpt lat="48.28676" lon="-3.58246">
        <ele>100.4</ele>
        <time>2024-09-07T13:17:43Z</time>
      </trkpt>
      <trkpt lat="48.2868" lon="-3.58248">
        <ele>100.8</ele>
        <time>2024-09-07T13:17:44Z</time>
      </trkpt>
      <trkpt lat="48.28683" lon="-3.5825">
        <ele>101</ele>
        <time>2024-09-07T13:17:45Z</time>
      </trkpt>
      <trkpt lat="48.28686" lon="-3.58252">
        <ele>101</ele>
        <time>2024-09-07T13:17:46Z</time>
      </trkpt>
      <trkpt lat="48.28689" lon="-3.58254">
        <ele>101.2</ele>
        <time>2024-09-07T13:17:47Z</time>
      </trkpt>
      <trkpt lat="48.28692" lon="-3.58255">
        <ele>101.4</ele>
        <time>2024-09-07T13:17:48Z</time>
      </trkpt>
      <trkpt lat="48.28695" lon="-3.58257">
        <ele>101.6</ele>
        <time>2024-09-07T13:17:49Z</time>
      </trkpt>
      <trkpt lat="48.28698" lon="-3.58259">
        <ele>101.8</ele>
        <time>2024-09-07T13:17:50Z</time>
      </trkpt>
      <trkpt lat="48.28701" lon="-3.5826">
        <ele>102</ele>
        <time>2024-09-07T13:17:51Z</time>
      </trkpt>
      <trkpt lat="48.28704" lon="-3.58262">
        <ele>102.2</ele>
        <time>2024-09-07T13:17:52Z</time>
      </trkpt>
      <trkpt lat="48.28707" lon="-3.58264">
        <ele>102.4</ele>
        <time>2024-09-07T13:17:53Z</time>
      </trkpt>
      <trkpt lat="48.2871" lon="-3.58266">
        <ele>102.6</ele>
        <time>2024-09-07T13:17:54Z</time>
      </trkpt>
      <trkpt lat="48.28713" lon="-3.58267">
        <ele>102.8</ele>
        <time>2024-09-07T13:17:55Z</time>
      </trkpt>
      <trkpt lat="48.28716" lon="-3.58268">
        <ele>103</ele>
        <time>2024-09-07T13:17:56Z</time>
      </trkpt>
      <trkpt lat="48.28719" lon="-3.5827">
        <ele>103</ele>
        <time>2024-09-07T13:17:57Z</time>
      </trkpt>
      <trkpt lat="48.28722" lon="-3.58272">
        <ele>103.2</ele>
        <time>2024-09-07T13:17:58Z</time>
      </trkpt>
      <trkpt lat="48.28726" lon="-3.58274">
        <ele>103.4</ele>
        <time>2024-09-07T13:17:59Z</time>
      </trkpt>
      <trkpt lat="48.28729" lon="-3.58275">
        <ele>103.4</ele>
        <time>2024-09-07T13:18:00Z</time>
      </trkpt>
      <trkpt lat="48.28732" lon="-3.58277">
        <ele>103.6</ele>
        <time>2024-09-07T13:18:01Z</time>
      </trkpt>
      <trkpt lat="48.28735" lon="-3.58279">
        <ele>103.8</ele>
        <time>2024-09-07T13:18:02Z</time>
      </trkpt>
      <trkpt lat="48.28738" lon="-3.58281">
        <ele>104</ele>
        <time>2024-09-07T13:18:03Z</time>
      </trkpt>
      <trkpt lat="48.28741" lon="-3.58283">
        <ele>104.2</ele>
        <time>2024-09-07T13:18:04Z</time>
      </trkpt>
      <trkpt lat="48.28744" lon="-3.58285">
        <ele>104.4</ele>
        <time>2024-09-07T13:18:05Z</time>
      </trkpt>
      <trkpt lat="48.28747" lon="-3.58286">
        <ele>104.6</ele>
        <time>2024-09-07T13:18:06Z</time>
      </trkpt>
      <trkpt lat="48.2875" lon="-3.58288">
        <ele>104.6</ele>
        <time>2024-09-07T13:18:07Z</time>
      </trkpt>
      <trkpt lat="48.28753" lon="-3.5829">
        <ele>104.6</ele>
        <time>2024-09-07T13:18:08Z</time>
      </trkpt>
      <trkpt lat="48.28756" lon="-3.58292">
        <ele>104.8</ele>
        <time>2024-09-07T13:18:09Z</time>
      </trkpt>
      <trkpt lat="48.28759" lon="-3.58294">
        <ele>105</ele>
        <time>2024-09-07T13:18:10Z</time>
      </trkpt>
      <trkpt lat="48.28763" lon="-3.58296">
        <ele>105.2</ele>
        <time>2024-09-07T13:18:11Z</time>
      </trkpt>
      <trkpt lat="48.28766" lon="-3.58298">
        <ele>105.2</ele>
        <time>2024-09-07T13:18:12Z</time>
      </trkpt>
      <trkpt lat="48.28769" lon="-3.583">
        <ele>105.2</ele>
        <time>2024-09-07T13:18:13Z</time>
      </trkpt>
      <trkpt lat="48.28773" lon="-3.58302">
        <ele>105.4</ele>
        <time>2024-09-07T13:18:14Z</time>
      </trkpt>
      <trkpt lat="48.28776" lon="-3.58304">
        <ele>105.6</ele>
        <time>2024-09-07T13:18:15Z</time>
      </trkpt>
      <trkpt lat="48.28779" lon="-3.58306">
        <ele>105.8</ele>
        <time>2024-09-07T13:18:16Z</time>
      </trkpt>
      <trkpt lat="48.28783" lon="-3.58308">
        <ele>105.8</ele>
        <time>2024-09-07T13:18:17Z</time>
      </trkpt>
      <trkpt lat="48.28786" lon="-3.5831">
        <ele>106</ele>
        <time>2024-09-07T13:18:18Z</time>
      </trkpt>
      <trkpt lat="48.28789" lon="-3.58312">
        <ele>106</ele>
        <time>2024-09-07T13:18:19Z</time>
      </trkpt>
      <trkpt lat="48.28792" lon="-3.58313">
        <ele>106</ele>
        <time>2024-09-07T13:18:20Z</time>
      </trkpt>
      <trkpt lat="48.28795" lon="-3.58316">
        <ele>106.2</ele>
        <time>2024-09-07T13:18:21Z</time>
      </trkpt>
      <trkpt lat="48.28799" lon="-3.58318">
        <ele>106.2</ele>
        <time>2024-09-07T13:18:22Z</time>
      </trkpt>
      <trkpt lat="48.28802" lon="-3.5832">
        <ele>106.2</ele>
        <time>2024-09-07T13:18:23Z</time>
      </trkpt>
      <trkpt lat="48.28805" lon="-3.58322">
        <ele>106.2</ele>
        <time>2024-09-07T13:18:24Z</time>
      </trkpt>
      <trkpt lat="48.28808" lon="-3.58324">
        <ele>106.2</ele>
        <time>2024-09-07T13:18:25Z</time>
      </trkpt>
      <trkpt lat="48.28812" lon="-3.58326">
        <ele>106.4</ele>
        <time>2024-09-07T13:18:26Z</time>
      </trkpt>
      <trkpt lat="48.28815" lon="-3.58328">
        <ele>106.6</ele>
        <time>2024-09-07T13:18:27Z</time>
      </trkpt>
      <trkpt lat="48.28818" lon="-3.5833">
        <ele>106.6</ele>
        <time>2024-09-07T13:18:28Z</time>
      </trkpt>
      <trkpt lat="48.28821" lon="-3.58332">
        <ele>106.8</ele>
        <time>2024-09-07T13:18:29Z</time>
      </trkpt>
      <trkpt lat="48.28824" lon="-3.58334">
        <ele>107</ele>
        <time>2024-09-07T13:18:30Z</time>
      </trkpt>
      <trkpt lat="48.28827" lon="-3.58335">
        <ele>107.4</ele>
        <time>2024-09-07T13:18:31Z</time>
      </trkpt>
      <trkpt lat="48.2883" lon="-3.58337">
        <ele>107.6</ele>
        <time>2024-09-07T13:18:32Z</time>
      </trkpt>
      <trkpt lat="48.28833" lon="-3.58339">
        <ele>108</ele>
        <time>2024-09-07T13:18:33Z</time>
      </trkpt>
      <trkpt lat="48.28836" lon="-3.58341">
        <ele>108.2</ele>
        <time>2024-09-07T13:18:34Z</time>
      </trkpt>
      <trkpt lat="48.28839" lon="-3.58344">
        <ele>108.6</ele>
        <time>2024-09-07T13:18:35Z</time>
      </trkpt>
      <trkpt lat="48.28842" lon="-3.58346">
        <ele>108.8</ele>
        <time>2024-09-07T13:18:36Z</time>
      </trkpt>
      <trkpt lat="48.28845" lon="-3.58347">
        <ele>109</ele>
        <time>2024-09-07T13:18:37Z</time>
      </trkpt>
      <trkpt lat="48.28847" lon="-3.5835">
        <ele>109</ele>
        <time>2024-09-07T13:18:38Z</time>
      </trkpt>
      <trkpt lat="48.2885" lon="-3.58352">
        <ele>109.2</ele>
        <time>2024-09-07T13:18:39Z</time>
      </trkpt>
      <trkpt lat="48.28854" lon="-3.58354">
        <ele>109.4</ele>
        <time>2024-09-07T13:18:40Z</time>
      </trkpt>
      <trkpt lat="48.28858" lon="-3.58356">
        <ele>109.4</ele>
        <time>2024-09-07T13:18:41Z</time>
      </trkpt>
      <trkpt lat="48.28861" lon="-3.58358">
        <ele>109.6</ele>
        <time>2024-09-07T13:18:42Z</time>
      </trkpt>
      <trkpt lat="48.28865" lon="-3.5836">
        <ele>109.8</ele>
        <time>2024-09-07T13:18:43Z</time>
      </trkpt>
      <trkpt lat="48.28868" lon="-3.58363">
        <ele>109.8</ele>
        <time>2024-09-07T13:18:44Z</time>
      </trkpt>
      <trkpt lat="48.28871" lon="-3.58365">
        <ele>110</ele>
        <time>2024-09-07T13:18:45Z</time>
      </trkpt>
      <trkpt lat="48.28875" lon="-3.58368">
        <ele>110</ele>
        <time>2024-09-07T13:18:46Z</time>
      </trkpt>
      <trkpt lat="48.28878" lon="-3.5837">
        <ele>110.4</ele>
        <time>2024-09-07T13:18:47Z</time>
      </trkpt>
      <trkpt lat="48.28882" lon="-3.58372">
        <ele>110.6</ele>
        <time>2024-09-07T13:18:48Z</time>
      </trkpt>
      <trkpt lat="48.28885" lon="-3.58374">
        <ele>110.8</ele>
        <time>2024-09-07T13:18:49Z</time>
      </trkpt>
      <trkpt lat="48.28888" lon="-3.58376">
        <ele>111</ele>
        <time>2024-09-07T13:18:50Z</time>
      </trkpt>
      <trkpt lat="48.28892" lon="-3.58379">
        <ele>111</ele>
        <time>2024-09-07T13:18:51Z</time>
      </trkpt>
      <trkpt lat="48.28895" lon="-3.5838">
        <ele>110.8</ele>
        <time>2024-09-07T13:18:52Z</time>
      </trkpt>
      <trkpt lat="48.28898" lon="-3.58382">
        <ele>111.2</ele>
        <time>2024-09-07T13:18:53Z</time>
      </trkpt>
      <trkpt lat="48.28902" lon="-3.58384">
        <ele>111.2</ele>
        <time>2024-09-07T13:18:54Z</time>
      </trkpt>
      <trkpt lat="48.28905" lon="-3.58387">
        <ele>111.2</ele>
        <time>2024-09-07T13:18:55Z</time>
      </trkpt>
      <trkpt lat="48.28908" lon="-3.58389">
        <ele>111</ele>
        <time>2024-09-07T13:18:56Z</time>
      </trkpt>
      <trkpt lat="48.28911" lon="-3.58391">
        <ele>111.4</ele>
        <time>2024-09-07T13:18:57Z</time>
      </trkpt>
      <trkpt lat="48.28915" lon="-3.58393">
        <ele>111.4</ele>
        <time>2024-09-07T13:18:58Z</time>
      </trkpt>
      <trkpt lat="48.28918" lon="-3.58396">
        <ele>111.6</ele>
        <time>2024-09-07T13:18:59Z</time>
      </trkpt>
      <trkpt lat="48.28921" lon="-3.58398">
        <ele>111.8</ele>
        <time>2024-09-07T13:19:00Z</time>
      </trkpt>
      <trkpt lat="48.28924" lon="-3.58401">
        <ele>112</ele>
        <time>2024-09-07T13:19:01Z</time>
      </trkpt>
      <trkpt lat="48.28928" lon="-3.58403">
        <ele>112.2</ele>
        <time>2024-09-07T13:19:02Z</time>
      </trkpt>
      <trkpt lat="48.28931" lon="-3.58406">
        <ele>112.4</ele>
        <time>2024-09-07T13:19:03Z</time>
      </trkpt>
      <trkpt lat="48.28934" lon="-3.58409">
        <ele>112.6</ele>
        <time>2024-09-07T13:19:04Z</time>
      </trkpt>
      <trkpt lat="48.28938" lon="-3.58412">
        <ele>112.6</ele>
        <time>2024-09-07T13:19:05Z</time>
      </trkpt>
      <trkpt lat="48.28941" lon="-3.58415">
        <ele>112.8</ele>
        <time>2024-09-07T13:19:06Z</time>
      </trkpt>
      <trkpt lat="48.28944" lon="-3.58419">
        <ele>112.8</ele>
        <time>2024-09-07T13:19:07Z</time>
      </trkpt>
      <trkpt lat="48.28948" lon="-3.58423">
        <ele>113</ele>
        <time>2024-09-07T13:19:08Z</time>
      </trkpt>
      <trkpt lat="48.28951" lon="-3.58426">
        <ele>113.2</ele>
        <time>2024-09-07T13:19:09Z</time>
      </trkpt>
      <trkpt lat="48.28954" lon="-3.58429">
        <ele>113.2</ele>
        <time>2024-09-07T13:19:10Z</time>
      </trkpt>
      <trkpt lat="48.28957" lon="-3.58433">
        <ele>113.4</ele>
        <time>2024-09-07T13:19:11Z</time>
      </trkpt>
      <trkpt lat="48.28961" lon="-3.58436">
        <ele>113.4</ele>
        <time>2024-09-07T13:19:12Z</time>
      </trkpt>
      <trkpt lat="48.28964" lon="-3.58439">
        <ele>113.4</ele>
        <time>2024-09-07T13:19:13Z</time>
      </trkpt>
      <trkpt lat="48.28967" lon="-3.58442">
        <ele>113.6</ele>
        <time>2024-09-07T13:19:14Z</time>
      </trkpt>
      <trkpt lat="48.2897" lon="-3.58446">
        <ele>113.6</ele>
        <time>2024-09-07T13:19:15Z</time>
      </trkpt>
      <trkpt lat="48.28973" lon="-3.5845">
        <ele>113.6</ele>
        <time>2024-09-07T13:19:16Z</time>
      </trkpt>
      <trkpt lat="48.28976" lon="-3.58453">
        <ele>113.8</ele>
        <time>2024-09-07T13:19:17Z</time>
      </trkpt>
      <trkpt lat="48.28979" lon="-3.58456">
        <ele>113.8</ele>
        <time>2024-09-07T13:19:18Z</time>
      </trkpt>
      <trkpt lat="48.28982" lon="-3.5846">
        <ele>113.8</ele>
        <time>2024-09-07T13:19:19Z</time>
      </trkpt>
      <trkpt lat="48.28984" lon="-3.58463">
        <ele>114</ele>
        <time>2024-09-07T13:19:20Z</time>
      </trkpt>
      <trkpt lat="48.28987" lon="-3.58467">
        <ele>114</ele>
        <time>2024-09-07T13:19:21Z</time>
      </trkpt>
      <trkpt lat="48.28989" lon="-3.58471">
        <ele>114.2</ele>
        <time>2024-09-07T13:19:22Z</time>
      </trkpt>
      <trkpt lat="48.28992" lon="-3.58474">
        <ele>114.4</ele>
        <time>2024-09-07T13:19:23Z</time>
      </trkpt>
      <trkpt lat="48.28996" lon="-3.58477">
        <ele>114.4</ele>
        <time>2024-09-07T13:19:24Z</time>
      </trkpt>
      <trkpt lat="48.28999" lon="-3.5848">
        <ele>114.8</ele>
        <time>2024-09-07T13:19:25Z</time>
      </trkpt>
      <trkpt lat="48.29002" lon="-3.58483">
        <ele>115</ele>
        <time>2024-09-07T13:19:26Z</time>
      </trkpt>
      <trkpt lat="48.29006" lon="-3.58487">
        <ele>115</ele>
        <time>2024-09-07T13:19:27Z</time>
      </trkpt>
      <trkpt lat="48.29009" lon="-3.5849">
        <ele>115.2</ele>
        <time>2024-09-07T13:19:28Z</time>
      </trkpt>
      <trkpt lat="48.29013" lon="-3.58494">
        <ele>115.2</ele>
        <time>2024-09-07T13:19:29Z</time>
      </trkpt>
      <trkpt lat="48.29016" lon="-3.58498">
        <ele>115.4</ele>
        <time>2024-09-07T13:19:30Z</time>
      </trkpt>
      <trkpt lat="48.29019" lon="-3.58502">
        <ele>115.4</ele>
        <time>2024-09-07T13:19:31Z</time>
      </trkpt>
      <trkpt lat="48.29022" lon="-3.58507">
        <ele>115.4</ele>
        <time>2024-09-07T13:19:32Z</time>
      </trkpt>
      <trkpt lat="48.29026" lon="-3.5851">
        <ele>115.6</ele>
        <time>2024-09-07T13:19:33Z</time>
      </trkpt>
      <trkpt lat="48.29029" lon="-3.58514">
        <ele>115.6</ele>
        <time>2024-09-07T13:19:34Z</time>
      </trkpt>
      <trkpt lat="48.29033" lon="-3.58518">
        <ele>115.8</ele>
        <time>2024-09-07T13:19:35Z</time>
      </trkpt>
      <trkpt lat="48.29036" lon="-3.58522">
        <ele>115.8</ele>
        <time>2024-09-07T13:19:36Z</time>
      </trkpt>
      <trkpt lat="48.29039" lon="-3.58525">
        <ele>115.8</ele>
        <time>2024-09-07T13:19:37Z</time>
      </trkpt>
      <trkpt lat="48.29042" lon="-3.58529">
        <ele>116</ele>
        <time>2024-09-07T13:19:38Z</time>
      </trkpt>
      <trkpt lat="48.29045" lon="-3.58533">
        <ele>116</ele>
        <time>2024-09-07T13:19:39Z</time>
      </trkpt>
      <trkpt lat="48.29048" lon="-3.58536">
        <ele>116.2</ele>
        <time>2024-09-07T13:19:40Z</time>
      </trkpt>
      <trkpt lat="48.29052" lon="-3.5854">
        <ele>116.2</ele>
        <time>2024-09-07T13:19:41Z</time>
      </trkpt>
      <trkpt lat="48.29056" lon="-3.58544">
        <ele>116.2</ele>
        <time>2024-09-07T13:19:42Z</time>
      </trkpt>
      <trkpt lat="48.29059" lon="-3.58547">
        <ele>116.4</ele>
        <time>2024-09-07T13:19:43Z</time>
      </trkpt>
      <trkpt lat="48.29062" lon="-3.58551">
        <ele>116.4</ele>
        <time>2024-09-07T13:19:44Z</time>
      </trkpt>
      <trkpt lat="48.29065" lon="-3.58555">
        <ele>116.4</ele>
        <time>2024-09-07T13:19:45Z</time>
      </trkpt>
      <trkpt lat="48.29068" lon="-3.58559">
        <ele>116.6</ele>
        <time>2024-09-07T13:19:46Z</time>
      </trkpt>
      <trkpt lat="48.29072" lon="-3.58562">
        <ele>116.6</ele>
        <time>2024-09-07T13:19:47Z</time>
      </trkpt>
      <trkpt lat="48.29075" lon="-3.58566">
        <ele>116.8</ele>
        <time>2024-09-07T13:19:48Z</time>
      </trkpt>
      <trkpt lat="48.29079" lon="-3.5857">
        <ele>116.8</ele>
        <time>2024-09-07T13:19:49Z</time>
      </trkpt>
      <trkpt lat="48.29082" lon="-3.58573">
        <ele>117</ele>
        <time>2024-09-07T13:19:50Z</time>
      </trkpt>
      <trkpt lat="48.29085" lon="-3.58577">
        <ele>117</ele>
        <time>2024-09-07T13:19:51Z</time>
      </trkpt>
      <trkpt lat="48.29089" lon="-3.58581">
        <ele>117</ele>
        <time>2024-09-07T13:19:52Z</time>
      </trkpt>
      <trkpt lat="48.29092" lon="-3.58584">
        <ele>117.2</ele>
        <time>2024-09-07T13:19:53Z</time>
      </trkpt>
      <trkpt lat="48.29095" lon="-3.58588">
        <ele>117.2</ele>
        <time>2024-09-07T13:19:54Z</time>
      </trkpt>
      <trkpt lat="48.29099" lon="-3.58591">
        <ele>117.2</ele>
        <time>2024-09-07T13:19:55Z</time>
      </trkpt>
      <trkpt lat="48.29102" lon="-3.58595">
        <ele>117.2</ele>
        <time>2024-09-07T13:19:56Z</time>
      </trkpt>
      <trkpt lat="48.29106" lon="-3.58599">
        <ele>117.4</ele>
        <time>2024-09-07T13:19:57Z</time>
      </trkpt>
      <trkpt lat="48.29109" lon="-3.58602">
        <ele>117.4</ele>
        <time>2024-09-07T13:19:58Z</time>
      </trkpt>
      <trkpt lat="48.29113" lon="-3.58606">
        <ele>117.4</ele>
        <time>2024-09-07T13:19:59Z</time>
      </trkpt>
      <trkpt lat="48.29116" lon="-3.58609">
        <ele>117.6</ele>
        <time>2024-09-07T13:20:00Z</time>
      </trkpt>
      <trkpt lat="48.2912" lon="-3.58613">
        <ele>117.6</ele>
        <time>2024-09-07T13:20:01Z</time>
      </trkpt>
      <trkpt lat="48.29123" lon="-3.58616">
        <ele>117.6</ele>
        <time>2024-09-07T13:20:02Z</time>
      </trkpt>
      <trkpt lat="48.29126" lon="-3.58619">
        <ele>117.8</ele>
        <time>2024-09-07T13:20:03Z</time>
      </trkpt>
      <trkpt lat="48.2913" lon="-3.58623">
        <ele>117.8</ele>
        <time>2024-09-07T13:20:04Z</time>
      </trkpt>
      <trkpt lat="48.29134" lon="-3.58626">
        <ele>117.8</ele>
        <time>2024-09-07T13:20:05Z</time>
      </trkpt>
      <trkpt lat="48.29137" lon="-3.58629">
        <ele>118</ele>
        <time>2024-09-07T13:20:06Z</time>
      </trkpt>
      <trkpt lat="48.2914" lon="-3.58632">
        <ele>118.2</ele>
        <time>2024-09-07T13:20:07Z</time>
      </trkpt>
      <trkpt lat="48.29144" lon="-3.58634">
        <ele>118.4</ele>
        <time>2024-09-07T13:20:08Z</time>
      </trkpt>
      <trkpt lat="48.29147" lon="-3.58636">
        <ele>118.8</ele>
        <time>2024-09-07T13:20:09Z</time>
      </trkpt>
      <trkpt lat="48.29151" lon="-3.58638">
        <ele>118.8</ele>
        <time>2024-09-07T13:20:10Z</time>
      </trkpt>
      <trkpt lat="48.29154" lon="-3.5864">
        <ele>119</ele>
        <time>2024-09-07T13:20:11Z</time>
      </trkpt>
      <trkpt lat="48.29157" lon="-3.58643">
        <ele>119.2</ele>
        <time>2024-09-07T13:20:12Z</time>
      </trkpt>
      <trkpt lat="48.29161" lon="-3.58645">
        <ele>119.2</ele>
        <time>2024-09-07T13:20:13Z</time>
      </trkpt>
      <trkpt lat="48.29164" lon="-3.58647">
        <ele>119.4</ele>
        <time>2024-09-07T13:20:14Z</time>
      </trkpt>
      <trkpt lat="48.29167" lon="-3.58649">
        <ele>119.6</ele>
        <time>2024-09-07T13:20:15Z</time>
      </trkpt>
      <trkpt lat="48.2917" lon="-3.58651">
        <ele>119.8</ele>
        <time>2024-09-07T13:20:16Z</time>
      </trkpt>
      <trkpt lat="48.29173" lon="-3.58652">
        <ele>120</ele>
        <time>2024-09-07T13:20:17Z</time>
      </trkpt>
      <trkpt lat="48.29176" lon="-3.58655">
        <ele>120.2</ele>
        <time>2024-09-07T13:20:18Z</time>
      </trkpt>
      <trkpt lat="48.29179" lon="-3.58657">
        <ele>120.4</ele>
        <time>2024-09-07T13:20:19Z</time>
      </trkpt>
      <trkpt lat="48.29182" lon="-3.58659">
        <ele>120.4</ele>
        <time>2024-09-07T13:20:20Z</time>
      </trkpt>
      <trkpt lat="48.29186" lon="-3.58661">
        <ele>120.4</ele>
        <time>2024-09-07T13:20:21Z</time>
      </trkpt>
      <trkpt lat="48.29189" lon="-3.58662">
        <ele>120.6</ele>
        <time>2024-09-07T13:20:22Z</time>
      </trkpt>
      <trkpt lat="48.29192" lon="-3.58665">
        <ele>120.6</ele>
        <time>2024-09-07T13:20:23Z</time>
      </trkpt>
      <trkpt lat="48.29195" lon="-3.58667">
        <ele>120.8</ele>
        <time>2024-09-07T13:20:24Z</time>
      </trkpt>
      <trkpt lat="48.29198" lon="-3.58668">
        <ele>121</ele>
        <time>2024-09-07T13:20:25Z</time>
      </trkpt>
      <trkpt lat="48.29201" lon="-3.5867">
        <ele>121.2</ele>
        <time>2024-09-07T13:20:26Z</time>
      </trkpt>
      <trkpt lat="48.29204" lon="-3.58671">
        <ele>121.2</ele>
        <time>2024-09-07T13:20:27Z</time>
      </trkpt>
      <trkpt lat="48.29207" lon="-3.58673">
        <ele>121.4</ele>
        <time>2024-09-07T13:20:28Z</time>
      </trkpt>
      <trkpt lat="48.29211" lon="-3.58674">
        <ele>121.8</ele>
        <time>2024-09-07T13:20:29Z</time>
      </trkpt>
      <trkpt lat="48.29214" lon="-3.58675">
        <ele>122</ele>
        <time>2024-09-07T13:20:30Z</time>
      </trkpt>
      <trkpt lat="48.29217" lon="-3.58677">
        <ele>122.4</ele>
        <time>2024-09-07T13:20:31Z</time>
      </trkpt>
      <trkpt lat="48.2922" lon="-3.58678">
        <ele>122.6</ele>
        <time>2024-09-07T13:20:32Z</time>
      </trkpt>
      <trkpt lat="48.29224" lon="-3.58679">
        <ele>122.8</ele>
        <time>2024-09-07T13:20:33Z</time>
      </trkpt>
      <trkpt lat="48.29227" lon="-3.5868">
        <ele>123</ele>
        <time>2024-09-07T13:20:34Z</time>
      </trkpt>
      <trkpt lat="48.2923" lon="-3.58682">
        <ele>123.4</ele>
        <time>2024-09-07T13:20:35Z</time>
      </trkpt>
      <trkpt lat="48.29233" lon="-3.58683">
        <ele>123.6</ele>
        <time>2024-09-07T13:20:36Z</time>
      </trkpt>
      <trkpt lat="48.29236" lon="-3.58685">
        <ele>123.8</ele>
        <time>2024-09-07T13:20:37Z</time>
      </trkpt>
      <trkpt lat="48.29239" lon="-3.58686">
        <ele>124</ele>
        <time>2024-09-07T13:20:38Z</time>
      </trkpt>
      <trkpt lat="48.29242" lon="-3.58687">
        <ele>124.2</ele>
        <time>2024-09-07T13:20:39Z</time>
      </trkpt>
      <trkpt lat="48.29245" lon="-3.58688">
        <ele>124.4</ele>
        <time>2024-09-07T13:20:40Z</time>
      </trkpt>
      <trkpt lat="48.29249" lon="-3.58689">
        <ele>124.6</ele>
        <time>2024-09-07T13:20:41Z</time>
      </trkpt>
      <trkpt lat="48.29252" lon="-3.5869">
        <ele>124.8</ele>
        <time>2024-09-07T13:20:42Z</time>
      </trkpt>
      <trkpt lat="48.29255" lon="-3.5869">
        <ele>125</ele>
        <time>2024-09-07T13:20:43Z</time>
      </trkpt>
      <trkpt lat="48.29258" lon="-3.58691">
        <ele>125.2</ele>
        <time>2024-09-07T13:20:44Z</time>
      </trkpt>
      <trkpt lat="48.29261" lon="-3.58692">
        <ele>125.2</ele>
        <time>2024-09-07T13:20:45Z</time>
      </trkpt>
      <trkpt lat="48.29264" lon="-3.58693">
        <ele>125.4</ele>
        <time>2024-09-07T13:20:46Z</time>
      </trkpt>
      <trkpt lat="48.29267" lon="-3.58694">
        <ele>125.4</ele>
        <time>2024-09-07T13:20:47Z</time>
      </trkpt>
      <trkpt lat="48.29271" lon="-3.58695">
        <ele>125.6</ele>
        <time>2024-09-07T13:20:48Z</time>
      </trkpt>
      <trkpt lat="48.29274" lon="-3.58695">
        <ele>126</ele>
        <time>2024-09-07T13:20:49Z</time>
      </trkpt>
      <trkpt lat="48.29278" lon="-3.58696">
        <ele>126.2</ele>
        <time>2024-09-07T13:20:50Z</time>
      </trkpt>
      <trkpt lat="48.29281" lon="-3.58696">
        <ele>126.4</ele>
        <time>2024-09-07T13:20:51Z</time>
      </trkpt>
      <trkpt lat="48.29285" lon="-3.58696">
        <ele>126.6</ele>
        <time>2024-09-07T13:20:52Z</time>
      </trkpt>
      <trkpt lat="48.29288" lon="-3.58696">
        <ele>126.8</ele>
        <time>2024-09-07T13:20:53Z</time>
      </trkpt>
      <trkpt lat="48.29292" lon="-3.58696">
        <ele>127</ele>
        <time>2024-09-07T13:20:54Z</time>
      </trkpt>
      <trkpt lat="48.29296" lon="-3.58697">
        <ele>127.2</ele>
        <time>2024-09-07T13:20:55Z</time>
      </trkpt>
      <trkpt lat="48.293" lon="-3.58697">
        <ele>127.4</ele>
        <time>2024-09-07T13:20:56Z</time>
      </trkpt>
      <trkpt lat="48.29304" lon="-3.58698">
        <ele>127.6</ele>
        <time>2024-09-07T13:20:57Z</time>
      </trkpt>
      <trkpt lat="48.29307" lon="-3.58698">
        <ele>127.6</ele>
        <time>2024-09-07T13:20:58Z</time>
      </trkpt>
      <trkpt lat="48.29311" lon="-3.58698">
        <ele>127.8</ele>
        <time>2024-09-07T13:20:59Z</time>
      </trkpt>
      <trkpt lat="48.29315" lon="-3.58698">
        <ele>128</ele>
        <time>2024-09-07T13:21:00Z</time>
      </trkpt>
      <trkpt lat="48.29319" lon="-3.58698">
        <ele>128.2</ele>
        <time>2024-09-07T13:21:01Z</time>
      </trkpt>
      <trkpt lat="48.29323" lon="-3.58698">
        <ele>128.4</ele>
        <time>2024-09-07T13:21:02Z</time>
      </trkpt>
      <trkpt lat="48.29327" lon="-3.58698">
        <ele>128.6</ele>
        <time>2024-09-07T13:21:03Z</time>
      </trkpt>
      <trkpt lat="48.29331" lon="-3.58699">
        <ele>128.8</ele>
        <time>2024-09-07T13:21:04Z</time>
      </trkpt>
      <trkpt lat="48.29335" lon="-3.58699">
        <ele>129</ele>
        <time>2024-09-07T13:21:05Z</time>
      </trkpt>
      <trkpt lat="48.29338" lon="-3.58699">
        <ele>129.2</ele>
        <time>2024-09-07T13:21:06Z</time>
      </trkpt>
      <trkpt lat="48.29342" lon="-3.58699">
        <ele>129.4</ele>
        <time>2024-09-07T13:21:07Z</time>
      </trkpt>
      <trkpt lat="48.29346" lon="-3.58699">
        <ele>129.4</ele>
        <time>2024-09-07T13:21:08Z</time>
      </trkpt>
      <trkpt lat="48.29349" lon="-3.58699">
        <ele>129.6</ele>
        <time>2024-09-07T13:21:09Z</time>
      </trkpt>
      <trkpt lat="48.29353" lon="-3.58699">
        <ele>129.8</ele>
        <time>2024-09-07T13:21:10Z</time>
      </trkpt>
      <trkpt lat="48.29357" lon="-3.587">
        <ele>130</ele>
        <time>2024-09-07T13:21:11Z</time>
      </trkpt>
      <trkpt lat="48.2936" lon="-3.58701">
        <ele>130</ele>
        <time>2024-09-07T13:21:12Z</time>
      </trkpt>
      <trkpt lat="48.29364" lon="-3.58701">
        <ele>130.2</ele>
        <time>2024-09-07T13:21:13Z</time>
      </trkpt>
      <trkpt lat="48.29368" lon="-3.58702">
        <ele>130.2</ele>
        <time>2024-09-07T13:21:14Z</time>
      </trkpt>
      <trkpt lat="48.29372" lon="-3.58702">
        <ele>130.2</ele>
        <time>2024-09-07T13:21:15Z</time>
      </trkpt>
      <trkpt lat="48.29376" lon="-3.58703">
        <ele>130.2</ele>
        <time>2024-09-07T13:21:16Z</time>
      </trkpt>
      <trkpt lat="48.2938" lon="-3.58704">
        <ele>130.4</ele>
        <time>2024-09-07T13:21:17Z</time>
      </trkpt>
      <trkpt lat="48.29385" lon="-3.58705">
        <ele>130.4</ele>
        <time>2024-09-07T13:21:18Z</time>
      </trkpt>
      <trkpt lat="48.29388" lon="-3.58706">
        <ele>130.4</ele>
        <time>2024-09-07T13:21:19Z</time>
      </trkpt>
      <trkpt lat="48.29393" lon="-3.58707">
        <ele>130.4</ele>
        <time>2024-09-07T13:21:20Z</time>
      </trkpt>
      <trkpt lat="48.29397" lon="-3.58708">
        <ele>130.4</ele>
        <time>2024-09-07T13:21:21Z</time>
      </trkpt>
      <trkpt lat="48.29401" lon="-3.5871">
        <ele>130.4</ele>
        <time>2024-09-07T13:21:22Z</time>
      </trkpt>
      <trkpt lat="48.29404" lon="-3.58711">
        <ele>130.6</ele>
        <time>2024-09-07T13:21:23Z</time>
      </trkpt>
      <trkpt lat="48.29409" lon="-3.58712">
        <ele>130.6</ele>
        <time>2024-09-07T13:21:24Z</time>
      </trkpt>
      <trkpt lat="48.29413" lon="-3.58713">
        <ele>130.6</ele>
        <time>2024-09-07T13:21:25Z</time>
      </trkpt>
      <trkpt lat="48.29418" lon="-3.58714">
        <ele>130.6</ele>
        <time>2024-09-07T13:21:26Z</time>
      </trkpt>
      <trkpt lat="48.29422" lon="-3.58715">
        <ele>130.6</ele>
        <time>2024-09-07T13:21:27Z</time>
      </trkpt>
      <trkpt lat="48.29426" lon="-3.58717">
        <ele>130.6</ele>
        <time>2024-09-07T13:21:28Z</time>
      </trkpt>
      <trkpt lat="48.29431" lon="-3.58719">
        <ele>130.6</ele>
        <time>2024-09-07T13:21:29Z</time>
      </trkpt>
      <trkpt lat="48.29436" lon="-3.58721">
        <ele>130.6</ele>
        <time>2024-09-07T13:21:30Z</time>
      </trkpt>
      <trkpt lat="48.2944" lon="-3.58723">
        <ele>130.6</ele>
        <time>2024-09-07T13:21:31Z</time>
      </trkpt>
      <trkpt lat="48.29445" lon="-3.58725">
        <ele>130.6</ele>
        <time>2024-09-07T13:21:32Z</time>
      </trkpt>
      <trkpt lat="48.2945" lon="-3.58728">
        <ele>130.6</ele>
        <time>2024-09-07T13:21:33Z</time>
      </trkpt>
      <trkpt lat="48.29455" lon="-3.5873">
        <ele>130.6</ele>
        <time>2024-09-07T13:21:34Z</time>
      </trkpt>
      <trkpt lat="48.2946" lon="-3.58732">
        <ele>130.6</ele>
        <time>2024-09-07T13:21:35Z</time>
      </trkpt>
      <trkpt lat="48.29465" lon="-3.58735">
        <ele>130.6</ele>
        <time>2024-09-07T13:21:36Z</time>
      </trkpt>
      <trkpt lat="48.2947" lon="-3.58738">
        <ele>130.6</ele>
        <time>2024-09-07T13:21:37Z</time>
      </trkpt>
      <trkpt lat="48.29475" lon="-3.58741">
        <ele>130.6</ele>
        <time>2024-09-07T13:21:38Z</time>
      </trkpt>
      <trkpt lat="48.2948" lon="-3.58744">
        <ele>130.6</ele>
        <time>2024-09-07T13:21:39Z</time>
      </trkpt>
      <trkpt lat="48.29486" lon="-3.58748">
        <ele>130.4</ele>
        <time>2024-09-07T13:21:40Z</time>
      </trkpt>
      <trkpt lat="48.29492" lon="-3.58752">
        <ele>130.4</ele>
        <time>2024-09-07T13:21:41Z</time>
      </trkpt>
      <trkpt lat="48.29498" lon="-3.58756">
        <ele>130.2</ele>
        <time>2024-09-07T13:21:42Z</time>
      </trkpt>
      <trkpt lat="48.29504" lon="-3.5876">
        <ele>130.2</ele>
        <time>2024-09-07T13:21:43Z</time>
      </trkpt>
      <trkpt lat="48.29511" lon="-3.58763">
        <ele>130</ele>
        <time>2024-09-07T13:21:44Z</time>
      </trkpt>
      <trkpt lat="48.29518" lon="-3.58767">
        <ele>129.8</ele>
        <time>2024-09-07T13:21:45Z</time>
      </trkpt>
      <trkpt lat="48.29525" lon="-3.58771">
        <ele>129.8</ele>
        <time>2024-09-07T13:21:46Z</time>
      </trkpt>
      <trkpt lat="48.29533" lon="-3.58775">
        <ele>129.4</ele>
        <time>2024-09-07T13:21:47Z</time>
      </trkpt>
      <trkpt lat="48.2954" lon="-3.5878">
        <ele>129.4</ele>
        <time>2024-09-07T13:21:48Z</time>
      </trkpt>
      <trkpt lat="48.29547" lon="-3.58784">
        <ele>129.2</ele>
        <time>2024-09-07T13:21:49Z</time>
      </trkpt>
      <trkpt lat="48.29554" lon="-3.58789">
        <ele>129</ele>
        <time>2024-09-07T13:21:50Z</time>
      </trkpt>
      <trkpt lat="48.29562" lon="-3.58793">
        <ele>128.4</ele>
        <time>2024-09-07T13:21:51Z</time>
      </trkpt>
      <trkpt lat="48.29569" lon="-3.58798">
        <ele>128</ele>
        <time>2024-09-07T13:21:52Z</time>
      </trkpt>
      <trkpt lat="48.29576" lon="-3.58803">
        <ele>127.6</ele>
        <time>2024-09-07T13:21:53Z</time>
      </trkpt>
      <trkpt lat="48.29583" lon="-3.58807">
        <ele>127.2</ele>
        <time>2024-09-07T13:21:54Z</time>
      </trkpt>
      <trkpt lat="48.2959" lon="-3.58812">
        <ele>126.8</ele>
        <time>2024-09-07T13:21:55Z</time>
      </trkpt>
      <trkpt lat="48.29597" lon="-3.58816">
        <ele>126.6</ele>
        <time>2024-09-07T13:21:56Z</time>
      </trkpt>
      <trkpt lat="48.29604" lon="-3.5882">
        <ele>126.4</ele>
        <time>2024-09-07T13:21:57Z</time>
      </trkpt>
      <trkpt lat="48.2961" lon="-3.58824">
        <ele>126</ele>
        <time>2024-09-07T13:21:58Z</time>
      </trkpt>
      <trkpt lat="48.29616" lon="-3.58828">
        <ele>125.8</ele>
        <time>2024-09-07T13:21:59Z</time>
      </trkpt>
      <trkpt lat="48.29623" lon="-3.58831">
        <ele>125.6</ele>
        <time>2024-09-07T13:22:00Z</time>
      </trkpt>
      <trkpt lat="48.29629" lon="-3.58835">
        <ele>125.4</ele>
        <time>2024-09-07T13:22:01Z</time>
      </trkpt>
      <trkpt lat="48.29636" lon="-3.58838">
        <ele>125.2</ele>
        <time>2024-09-07T13:22:02Z</time>
      </trkpt>
      <trkpt lat="48.29642" lon="-3.58842">
        <ele>125</ele>
        <time>2024-09-07T13:22:03Z</time>
      </trkpt>
      <trkpt lat="48.29648" lon="-3.58845">
        <ele>125</ele>
        <time>2024-09-07T13:22:04Z</time>
      </trkpt>
      <trkpt lat="48.29655" lon="-3.58848">
        <ele>124.8</ele>
        <time>2024-09-07T13:22:05Z</time>
      </trkpt>
      <trkpt lat="48.29661" lon="-3.5885">
        <ele>124.8</ele>
        <time>2024-09-07T13:22:06Z</time>
      </trkpt>
      <trkpt lat="48.29668" lon="-3.58853">
        <ele>124.6</ele>
        <time>2024-09-07T13:22:07Z</time>
      </trkpt>
      <trkpt lat="48.29674" lon="-3.58855">
        <ele>124.6</ele>
        <time>2024-09-07T13:22:08Z</time>
      </trkpt>
      <trkpt lat="48.29679" lon="-3.58856">
        <ele>124.4</ele>
        <time>2024-09-07T13:22:09Z</time>
      </trkpt>
      <trkpt lat="48.29685" lon="-3.58858">
        <ele>124.4</ele>
        <time>2024-09-07T13:22:10Z</time>
      </trkpt>
      <trkpt lat="48.29691" lon="-3.58859">
        <ele>124.4</ele>
        <time>2024-09-07T13:22:11Z</time>
      </trkpt>
      <trkpt lat="48.29697" lon="-3.5886">
        <ele>124.4</ele>
        <time>2024-09-07T13:22:12Z</time>
      </trkpt>
      <trkpt lat="48.29703" lon="-3.58862">
        <ele>124.2</ele>
        <time>2024-09-07T13:22:13Z</time>
      </trkpt>
      <trkpt lat="48.2971" lon="-3.58863">
        <ele>124.2</ele>
        <time>2024-09-07T13:22:14Z</time>
      </trkpt>
      <trkpt lat="48.29716" lon="-3.58865">
        <ele>124.2</ele>
        <time>2024-09-07T13:22:15Z</time>
      </trkpt>
      <trkpt lat="48.29723" lon="-3.58866">
        <ele>124.2</ele>
        <time>2024-09-07T13:22:16Z</time>
      </trkpt>
      <trkpt lat="48.29729" lon="-3.58867">
        <ele>124.2</ele>
        <time>2024-09-07T13:22:17Z</time>
      </trkpt>
      <trkpt lat="48.29735" lon="-3.58868">
        <ele>124.2</ele>
        <time>2024-09-07T13:22:18Z</time>
      </trkpt>
      <trkpt lat="48.29741" lon="-3.58869">
        <ele>124.2</ele>
        <time>2024-09-07T13:22:19Z</time>
      </trkpt>
      <trkpt lat="48.29747" lon="-3.5887">
        <ele>124.2</ele>
        <time>2024-09-07T13:22:20Z</time>
      </trkpt>
      <trkpt lat="48.29753" lon="-3.58871">
        <ele>124.2</ele>
        <time>2024-09-07T13:22:21Z</time>
      </trkpt>
      <trkpt lat="48.29759" lon="-3.58872">
        <ele>124.2</ele>
        <time>2024-09-07T13:22:22Z</time>
      </trkpt>
      <trkpt lat="48.29765" lon="-3.58872">
        <ele>124.2</ele>
        <time>2024-09-07T13:22:23Z</time>
      </trkpt>
      <trkpt lat="48.29771" lon="-3.58872">
        <ele>124.2</ele>
        <time>2024-09-07T13:22:24Z</time>
      </trkpt>
      <trkpt lat="48.29777" lon="-3.58872">
        <ele>124.2</ele>
        <time>2024-09-07T13:22:25Z</time>
      </trkpt>
      <trkpt lat="48.29784" lon="-3.58873">
        <ele>124.2</ele>
        <time>2024-09-07T13:22:26Z</time>
      </trkpt>
      <trkpt lat="48.2979" lon="-3.58872">
        <ele>124.4</ele>
        <time>2024-09-07T13:22:27Z</time>
      </trkpt>
      <trkpt lat="48.29796" lon="-3.58872">
        <ele>124.4</ele>
        <time>2024-09-07T13:22:28Z</time>
      </trkpt>
      <trkpt lat="48.29802" lon="-3.58872">
        <ele>124.4</ele>
        <time>2024-09-07T13:22:29Z</time>
      </trkpt>
      <trkpt lat="48.29808" lon="-3.58871">
        <ele>124.6</ele>
        <time>2024-09-07T13:22:30Z</time>
      </trkpt>
      <trkpt lat="48.29815" lon="-3.5887">
        <ele>124.6</ele>
        <time>2024-09-07T13:22:31Z</time>
      </trkpt>
      <trkpt lat="48.29821" lon="-3.5887">
        <ele>124.8</ele>
        <time>2024-09-07T13:22:32Z</time>
      </trkpt>
      <trkpt lat="48.29827" lon="-3.58869">
        <ele>124.8</ele>
        <time>2024-09-07T13:22:33Z</time>
      </trkpt>
      <trkpt lat="48.29834" lon="-3.58868">
        <ele>125</ele>
        <time>2024-09-07T13:22:34Z</time>
      </trkpt>
      <trkpt lat="48.2984" lon="-3.58867">
        <ele>125.2</ele>
        <time>2024-09-07T13:22:35Z</time>
      </trkpt>
      <trkpt lat="48.29846" lon="-3.58866">
        <ele>125.4</ele>
        <time>2024-09-07T13:22:36Z</time>
      </trkpt>
      <trkpt lat="48.29853" lon="-3.58864">
        <ele>125.4</ele>
        <time>2024-09-07T13:22:37Z</time>
      </trkpt>
      <trkpt lat="48.29859" lon="-3.58863">
        <ele>125.6</ele>
        <time>2024-09-07T13:22:38Z</time>
      </trkpt>
      <trkpt lat="48.29865" lon="-3.5886">
        <ele>125.6</ele>
        <time>2024-09-07T13:22:39Z</time>
      </trkpt>
      <trkpt lat="48.29871" lon="-3.58858">
        <ele>125.6</ele>
        <time>2024-09-07T13:22:40Z</time>
      </trkpt>
      <trkpt lat="48.29877" lon="-3.58857">
        <ele>125.6</ele>
        <time>2024-09-07T13:22:41Z</time>
      </trkpt>
      <trkpt lat="48.29884" lon="-3.58856">
        <ele>125.6</ele>
        <time>2024-09-07T13:22:42Z</time>
      </trkpt>
      <trkpt lat="48.2989" lon="-3.58854">
        <ele>125.6</ele>
        <time>2024-09-07T13:22:43Z</time>
      </trkpt>
      <trkpt lat="48.29896" lon="-3.58853">
        <ele>125.6</ele>
        <time>2024-09-07T13:22:44Z</time>
      </trkpt>
      <trkpt lat="48.29903" lon="-3.58851">
        <ele>125.6</ele>
        <time>2024-09-07T13:22:45Z</time>
      </trkpt>
      <trkpt lat="48.2991" lon="-3.58849">
        <ele>125.6</ele>
        <time>2024-09-07T13:22:46Z</time>
      </trkpt>
      <trkpt lat="48.29916" lon="-3.58847">
        <ele>125.6</ele>
        <time>2024-09-07T13:22:47Z</time>
      </trkpt>
      <trkpt lat="48.29923" lon="-3.58844">
        <ele>125.6</ele>
        <time>2024-09-07T13:22:48Z</time>
      </trkpt>
      <trkpt lat="48.29929" lon="-3.58842">
        <ele>125.6</ele>
        <time>2024-09-07T13:22:49Z</time>
      </trkpt>
      <trkpt lat="48.29936" lon="-3.5884">
        <ele>125.6</ele>
        <time>2024-09-07T13:22:50Z</time>
      </trkpt>
      <trkpt lat="48.29942" lon="-3.58838">
        <ele>125.6</ele>
        <time>2024-09-07T13:22:51Z</time>
      </trkpt>
      <trkpt lat="48.29949" lon="-3.58836">
        <ele>125.6</ele>
        <time>2024-09-07T13:22:52Z</time>
      </trkpt>
      <trkpt lat="48.29955" lon="-3.58834">
        <ele>125.4</ele>
        <time>2024-09-07T13:22:53Z</time>
      </trkpt>
      <trkpt lat="48.29961" lon="-3.58833">
        <ele>125.2</ele>
        <time>2024-09-07T13:22:54Z</time>
      </trkpt>
      <trkpt lat="48.29967" lon="-3.58831">
        <ele>125.2</ele>
        <time>2024-09-07T13:22:55Z</time>
      </trkpt>
      <trkpt lat="48.29973" lon="-3.5883">
        <ele>125</ele>
        <time>2024-09-07T13:22:56Z</time>
      </trkpt>
      <trkpt lat="48.29979" lon="-3.58828">
        <ele>125</ele>
        <time>2024-09-07T13:22:57Z</time>
      </trkpt>
      <trkpt lat="48.29985" lon="-3.58826">
        <ele>125</ele>
        <time>2024-09-07T13:22:58Z</time>
      </trkpt>
      <trkpt lat="48.29991" lon="-3.58824">
        <ele>125</ele>
        <time>2024-09-07T13:22:59Z</time>
      </trkpt>
      <trkpt lat="48.29997" lon="-3.58822">
        <ele>125</ele>
        <time>2024-09-07T13:23:00Z</time>
      </trkpt>
      <trkpt lat="48.30004" lon="-3.5882">
        <ele>125</ele>
        <time>2024-09-07T13:23:01Z</time>
      </trkpt>
      <trkpt lat="48.30009" lon="-3.58818">
        <ele>125</ele>
        <time>2024-09-07T13:23:02Z</time>
      </trkpt>
      <trkpt lat="48.30016" lon="-3.58816">
        <ele>125</ele>
        <time>2024-09-07T13:23:03Z</time>
      </trkpt>
      <trkpt lat="48.30022" lon="-3.58814">
        <ele>125</ele>
        <time>2024-09-07T13:23:04Z</time>
      </trkpt>
      <trkpt lat="48.30029" lon="-3.58812">
        <ele>125</ele>
        <time>2024-09-07T13:23:05Z</time>
      </trkpt>
      <trkpt lat="48.30035" lon="-3.58811">
        <ele>125.2</ele>
        <time>2024-09-07T13:23:06Z</time>
      </trkpt>
      <trkpt lat="48.30041" lon="-3.58809">
        <ele>125.2</ele>
        <time>2024-09-07T13:23:07Z</time>
      </trkpt>
      <trkpt lat="48.30047" lon="-3.58807">
        <ele>125.4</ele>
        <time>2024-09-07T13:23:08Z</time>
      </trkpt>
      <trkpt lat="48.30053" lon="-3.58805">
        <ele>125.4</ele>
        <time>2024-09-07T13:23:09Z</time>
      </trkpt>
      <trkpt lat="48.30059" lon="-3.58804">
        <ele>125.4</ele>
        <time>2024-09-07T13:23:10Z</time>
      </trkpt>
      <trkpt lat="48.30066" lon="-3.58802">
        <ele>125.4</ele>
        <time>2024-09-07T13:23:11Z</time>
      </trkpt>
      <trkpt lat="48.30071" lon="-3.58801">
        <ele>125.4</ele>
        <time>2024-09-07T13:23:12Z</time>
      </trkpt>
      <trkpt lat="48.30078" lon="-3.58799">
        <ele>125.4</ele>
        <time>2024-09-07T13:23:13Z</time>
      </trkpt>
      <trkpt lat="48.30084" lon="-3.58797">
        <ele>125.6</ele>
        <time>2024-09-07T13:23:14Z</time>
      </trkpt>
      <trkpt lat="48.3009" lon="-3.58795">
        <ele>125.6</ele>
        <time>2024-09-07T13:23:15Z</time>
      </trkpt>
      <trkpt lat="48.30097" lon="-3.58793">
        <ele>125.8</ele>
        <time>2024-09-07T13:23:16Z</time>
      </trkpt>
      <trkpt lat="48.30103" lon="-3.58791">
        <ele>125.8</ele>
        <time>2024-09-07T13:23:17Z</time>
      </trkpt>
      <trkpt lat="48.3011" lon="-3.58789">
        <ele>126</ele>
        <time>2024-09-07T13:23:18Z</time>
      </trkpt>
      <trkpt lat="48.30116" lon="-3.58787">
        <ele>126</ele>
        <time>2024-09-07T13:23:19Z</time>
      </trkpt>
      <trkpt lat="48.30122" lon="-3.58786">
        <ele>126</ele>
        <time>2024-09-07T13:23:20Z</time>
      </trkpt>
      <trkpt lat="48.30128" lon="-3.58784">
        <ele>126</ele>
        <time>2024-09-07T13:23:21Z</time>
      </trkpt>
      <trkpt lat="48.30134" lon="-3.58782">
        <ele>126.2</ele>
        <time>2024-09-07T13:23:22Z</time>
      </trkpt>
      <trkpt lat="48.3014" lon="-3.5878">
        <ele>126</ele>
        <time>2024-09-07T13:23:23Z</time>
      </trkpt>
      <trkpt lat="48.30146" lon="-3.58778">
        <ele>126</ele>
        <time>2024-09-07T13:23:24Z</time>
      </trkpt>
      <trkpt lat="48.30152" lon="-3.58776">
        <ele>126.2</ele>
        <time>2024-09-07T13:23:25Z</time>
      </trkpt>
      <trkpt lat="48.30158" lon="-3.58775">
        <ele>126.4</ele>
        <time>2024-09-07T13:23:26Z</time>
      </trkpt>
      <trkpt lat="48.30165" lon="-3.58774">
        <ele>126.4</ele>
        <time>2024-09-07T13:23:27Z</time>
      </trkpt>
      <trkpt lat="48.30171" lon="-3.58772">
        <ele>126.4</ele>
        <time>2024-09-07T13:23:28Z</time>
      </trkpt>
      <trkpt lat="48.30178" lon="-3.58771">
        <ele>126.6</ele>
        <time>2024-09-07T13:23:29Z</time>
      </trkpt>
      <trkpt lat="48.30184" lon="-3.58769">
        <ele>126.4</ele>
        <time>2024-09-07T13:23:30Z</time>
      </trkpt>
      <trkpt lat="48.3019" lon="-3.58767">
        <ele>126.6</ele>
        <time>2024-09-07T13:23:31Z</time>
      </trkpt>
      <trkpt lat="48.30197" lon="-3.58765">
        <ele>126.8</ele>
        <time>2024-09-07T13:23:32Z</time>
      </trkpt>
      <trkpt lat="48.30203" lon="-3.58763">
        <ele>127</ele>
        <time>2024-09-07T13:23:33Z</time>
      </trkpt>
      <trkpt lat="48.30209" lon="-3.58761">
        <ele>127</ele>
        <time>2024-09-07T13:23:34Z</time>
      </trkpt>
      <trkpt lat="48.30215" lon="-3.5876">
        <ele>127.2</ele>
        <time>2024-09-07T13:23:35Z</time>
      </trkpt>
      <trkpt lat="48.30221" lon="-3.58759">
        <ele>127.2</ele>
        <time>2024-09-07T13:23:36Z</time>
      </trkpt>
      <trkpt lat="48.30228" lon="-3.58757">
        <ele>127.4</ele>
        <time>2024-09-07T13:23:37Z</time>
      </trkpt>
      <trkpt lat="48.30234" lon="-3.58755">
        <ele>127.4</ele>
        <time>2024-09-07T13:23:38Z</time>
      </trkpt>
      <trkpt lat="48.3024" lon="-3.58753">
        <ele>127.6</ele>
        <time>2024-09-07T13:23:39Z</time>
      </trkpt>
      <trkpt lat="48.30246" lon="-3.5875">
        <ele>127.8</ele>
        <time>2024-09-07T13:23:40Z</time>
      </trkpt>
      <trkpt lat="48.30252" lon="-3.58749">
        <ele>127.8</ele>
        <time>2024-09-07T13:23:41Z</time>
      </trkpt>
      <trkpt lat="48.30258" lon="-3.58747">
        <ele>128</ele>
        <time>2024-09-07T13:23:42Z</time>
      </trkpt>
      <trkpt lat="48.30264" lon="-3.58746">
        <ele>128</ele>
        <time>2024-09-07T13:23:43Z</time>
      </trkpt>
      <trkpt lat="48.30269" lon="-3.58745">
        <ele>128</ele>
        <time>2024-09-07T13:23:44Z</time>
      </trkpt>
      <trkpt lat="48.30275" lon="-3.58744">
        <ele>128.4</ele>
        <time>2024-09-07T13:23:45Z</time>
      </trkpt>
      <trkpt lat="48.3028" lon="-3.58742">
        <ele>128.6</ele>
        <time>2024-09-07T13:23:46Z</time>
      </trkpt>
      <trkpt lat="48.30285" lon="-3.58741">
        <ele>128.6</ele>
        <time>2024-09-07T13:23:47Z</time>
      </trkpt>
      <trkpt lat="48.30291" lon="-3.5874">
        <ele>128.6</ele>
        <time>2024-09-07T13:23:48Z</time>
      </trkpt>
      <trkpt lat="48.30296" lon="-3.5874">
        <ele>128.8</ele>
        <time>2024-09-07T13:23:49Z</time>
      </trkpt>
      <trkpt lat="48.30301" lon="-3.58739">
        <ele>129</ele>
        <time>2024-09-07T13:23:50Z</time>
      </trkpt>
      <trkpt lat="48.30306" lon="-3.58738">
        <ele>129.2</ele>
        <time>2024-09-07T13:23:51Z</time>
      </trkpt>
      <trkpt lat="48.30312" lon="-3.58737">
        <ele>129.2</ele>
        <time>2024-09-07T13:23:52Z</time>
      </trkpt>
      <trkpt lat="48.30317" lon="-3.58737">
        <ele>129.4</ele>
        <time>2024-09-07T13:23:53Z</time>
      </trkpt>
      <trkpt lat="48.30322" lon="-3.58737">
        <ele>129.6</ele>
        <time>2024-09-07T13:23:54Z</time>
      </trkpt>
      <trkpt lat="48.30328" lon="-3.58737">
        <ele>129.8</ele>
        <time>2024-09-07T13:23:55Z</time>
      </trkpt>
      <trkpt lat="48.30333" lon="-3.58737">
        <ele>130.2</ele>
        <time>2024-09-07T13:23:56Z</time>
      </trkpt>
      <trkpt lat="48.30339" lon="-3.58738">
        <ele>130.6</ele>
        <time>2024-09-07T13:23:57Z</time>
      </trkpt>
      <trkpt lat="48.30344" lon="-3.58738">
        <ele>130.8</ele>
        <time>2024-09-07T13:23:58Z</time>
      </trkpt>
      <trkpt lat="48.3035" lon="-3.58738">
        <ele>131</ele>
        <time>2024-09-07T13:23:59Z</time>
      </trkpt>
      <trkpt lat="48.30355" lon="-3.58738">
        <ele>131.2</ele>
        <time>2024-09-07T13:24:00Z</time>
      </trkpt>
      <trkpt lat="48.30361" lon="-3.58739">
        <ele>131.4</ele>
        <time>2024-09-07T13:24:01Z</time>
      </trkpt>
      <trkpt lat="48.30367" lon="-3.58739">
        <ele>131.4</ele>
        <time>2024-09-07T13:24:02Z</time>
      </trkpt>
      <trkpt lat="48.30373" lon="-3.5874">
        <ele>131.6</ele>
        <time>2024-09-07T13:24:03Z</time>
      </trkpt>
      <trkpt lat="48.3038" lon="-3.58741">
        <ele>131.6</ele>
        <time>2024-09-07T13:24:04Z</time>
      </trkpt>
      <trkpt lat="48.30387" lon="-3.58743">
        <ele>131.6</ele>
        <time>2024-09-07T13:24:05Z</time>
      </trkpt>
      <trkpt lat="48.30394" lon="-3.58744">
        <ele>131.6</ele>
        <time>2024-09-07T13:24:06Z</time>
      </trkpt>
      <trkpt lat="48.30401" lon="-3.58745">
        <ele>131.6</ele>
        <time>2024-09-07T13:24:07Z</time>
      </trkpt>
      <trkpt lat="48.30408" lon="-3.58746">
        <ele>131.6</ele>
        <time>2024-09-07T13:24:08Z</time>
      </trkpt>
      <trkpt lat="48.30415" lon="-3.58748">
        <ele>131.6</ele>
        <time>2024-09-07T13:24:09Z</time>
      </trkpt>
      <trkpt lat="48.30421" lon="-3.58749">
        <ele>131.6</ele>
        <time>2024-09-07T13:24:10Z</time>
      </trkpt>
      <trkpt lat="48.30429" lon="-3.5875">
        <ele>131.6</ele>
        <time>2024-09-07T13:24:11Z</time>
      </trkpt>
      <trkpt lat="48.30436" lon="-3.58752">
        <ele>131.4</ele>
        <time>2024-09-07T13:24:12Z</time>
      </trkpt>
      <trkpt lat="48.30443" lon="-3.58754">
        <ele>131.4</ele>
        <time>2024-09-07T13:24:13Z</time>
      </trkpt>
      <trkpt lat="48.30451" lon="-3.58755">
        <ele>131.2</ele>
        <time>2024-09-07T13:24:14Z</time>
      </trkpt>
      <trkpt lat="48.30458" lon="-3.58757">
        <ele>131</ele>
        <time>2024-09-07T13:24:15Z</time>
      </trkpt>
      <trkpt lat="48.30466" lon="-3.58758">
        <ele>130.6</ele>
        <time>2024-09-07T13:24:16Z</time>
      </trkpt>
      <trkpt lat="48.30473" lon="-3.5876">
        <ele>130.2</ele>
        <time>2024-09-07T13:24:17Z</time>
      </trkpt>
      <trkpt lat="48.3048" lon="-3.58761">
        <ele>130</ele>
        <time>2024-09-07T13:24:18Z</time>
      </trkpt>
      <trkpt lat="48.30487" lon="-3.58763">
        <ele>129.6</ele>
        <time>2024-09-07T13:24:19Z</time>
      </trkpt>
      <trkpt lat="48.30494" lon="-3.58765">
        <ele>129.4</ele>
        <time>2024-09-07T13:24:20Z</time>
      </trkpt>
      <trkpt lat="48.30501" lon="-3.58766">
        <ele>129</ele>
        <time>2024-09-07T13:24:21Z</time>
      </trkpt>
      <trkpt lat="48.30508" lon="-3.58768">
        <ele>129</ele>
        <time>2024-09-07T13:24:22Z</time>
      </trkpt>
      <trkpt lat="48.30514" lon="-3.5877">
        <ele>128.4</ele>
        <time>2024-09-07T13:24:23Z</time>
      </trkpt>
      <trkpt lat="48.3052" lon="-3.58772">
        <ele>128.2</ele>
        <time>2024-09-07T13:24:24Z</time>
      </trkpt>
      <trkpt lat="48.30527" lon="-3.58773">
        <ele>128</ele>
        <time>2024-09-07T13:24:25Z</time>
      </trkpt>
      <trkpt lat="48.30533" lon="-3.58775">
        <ele>128</ele>
        <time>2024-09-07T13:24:26Z</time>
      </trkpt>
      <trkpt lat="48.30539" lon="-3.58776">
        <ele>128</ele>
        <time>2024-09-07T13:24:27Z</time>
      </trkpt>
      <trkpt lat="48.30545" lon="-3.58777">
        <ele>127.8</ele>
        <time>2024-09-07T13:24:28Z</time>
      </trkpt>
      <trkpt lat="48.30551" lon="-3.58778">
        <ele>127.8</ele>
        <time>2024-09-07T13:24:29Z</time>
      </trkpt>
      <trkpt lat="48.30557" lon="-3.58779">
        <ele>127.8</ele>
        <time>2024-09-07T13:24:30Z</time>
      </trkpt>
      <trkpt lat="48.30563" lon="-3.58781">
        <ele>127.8</ele>
        <time>2024-09-07T13:24:31Z</time>
      </trkpt>
      <trkpt lat="48.30569" lon="-3.58782">
        <ele>127.6</ele>
        <time>2024-09-07T13:24:32Z</time>
      </trkpt>
      <trkpt lat="48.30575" lon="-3.58783">
        <ele>127.6</ele>
        <time>2024-09-07T13:24:33Z</time>
      </trkpt>
      <trkpt lat="48.30582" lon="-3.58784">
        <ele>127.6</ele>
        <time>2024-09-07T13:24:34Z</time>
      </trkpt>
      <trkpt lat="48.30588" lon="-3.58785">
        <ele>127.6</ele>
        <time>2024-09-07T13:24:35Z</time>
      </trkpt>
      <trkpt lat="48.30594" lon="-3.58787">
        <ele>127.6</ele>
        <time>2024-09-07T13:24:36Z</time>
      </trkpt>
      <trkpt lat="48.306" lon="-3.58789">
        <ele>127.6</ele>
        <time>2024-09-07T13:24:37Z</time>
      </trkpt>
      <trkpt lat="48.30606" lon="-3.5879">
        <ele>127.6</ele>
        <time>2024-09-07T13:24:38Z</time>
      </trkpt>
      <trkpt lat="48.30612" lon="-3.5879">
        <ele>127.6</ele>
        <time>2024-09-07T13:24:39Z</time>
      </trkpt>
      <trkpt lat="48.30619" lon="-3.58791">
        <ele>127.6</ele>
        <time>2024-09-07T13:24:40Z</time>
      </trkpt>
      <trkpt lat="48.30625" lon="-3.58791">
        <ele>127.6</ele>
        <time>2024-09-07T13:24:41Z</time>
      </trkpt>
      <trkpt lat="48.30631" lon="-3.58792">
        <ele>127.6</ele>
        <time>2024-09-07T13:24:42Z</time>
      </trkpt>
      <trkpt lat="48.30637" lon="-3.58792">
        <ele>127.6</ele>
        <time>2024-09-07T13:24:43Z</time>
      </trkpt>
      <trkpt lat="48.30644" lon="-3.58792">
        <ele>127.6</ele>
        <time>2024-09-07T13:24:44Z</time>
      </trkpt>
      <trkpt lat="48.3065" lon="-3.58792">
        <ele>127.4</ele>
        <time>2024-09-07T13:24:45Z</time>
      </trkpt>
      <trkpt lat="48.30656" lon="-3.58792">
        <ele>127.4</ele>
        <time>2024-09-07T13:24:46Z</time>
      </trkpt>
      <trkpt lat="48.30662" lon="-3.58792">
        <ele>127.4</ele>
        <time>2024-09-07T13:24:47Z</time>
      </trkpt>
      <trkpt lat="48.30668" lon="-3.58791">
        <ele>127.4</ele>
        <time>2024-09-07T13:24:48Z</time>
      </trkpt>
      <trkpt lat="48.30674" lon="-3.5879">
        <ele>127.4</ele>
        <time>2024-09-07T13:24:49Z</time>
      </trkpt>
      <trkpt lat="48.30681" lon="-3.58789">
        <ele>127.4</ele>
        <time>2024-09-07T13:24:50Z</time>
      </trkpt>
      <trkpt lat="48.30687" lon="-3.58787">
        <ele>127.4</ele>
        <time>2024-09-07T13:24:51Z</time>
      </trkpt>
      <trkpt lat="48.30693" lon="-3.58786">
        <ele>127.4</ele>
        <time>2024-09-07T13:24:52Z</time>
      </trkpt>
      <trkpt lat="48.30699" lon="-3.58784">
        <ele>127.4</ele>
        <time>2024-09-07T13:24:53Z</time>
      </trkpt>
      <trkpt lat="48.30705" lon="-3.58783">
        <ele>127.2</ele>
        <time>2024-09-07T13:24:54Z</time>
      </trkpt>
      <trkpt lat="48.30712" lon="-3.58781">
        <ele>127.2</ele>
        <time>2024-09-07T13:24:55Z</time>
      </trkpt>
      <trkpt lat="48.30718" lon="-3.58779">
        <ele>127.2</ele>
        <time>2024-09-07T13:24:56Z</time>
      </trkpt>
      <trkpt lat="48.30724" lon="-3.58777">
        <ele>127.2</ele>
        <time>2024-09-07T13:24:57Z</time>
      </trkpt>
      <trkpt lat="48.3073" lon="-3.58776">
        <ele>127.2</ele>
        <time>2024-09-07T13:24:58Z</time>
      </trkpt>
      <trkpt lat="48.30737" lon="-3.58774">
        <ele>127.2</ele>
        <time>2024-09-07T13:24:59Z</time>
      </trkpt>
      <trkpt lat="48.30743" lon="-3.58772">
        <ele>127.2</ele>
        <time>2024-09-07T13:25:00Z</time>
      </trkpt>
      <trkpt lat="48.3075" lon="-3.5877">
        <ele>127.2</ele>
        <time>2024-09-07T13:25:01Z</time>
      </trkpt>
      <trkpt lat="48.30756" lon="-3.58768">
        <ele>127.2</ele>
        <time>2024-09-07T13:25:02Z</time>
      </trkpt>
      <trkpt lat="48.30762" lon="-3.58766">
        <ele>127.2</ele>
        <time>2024-09-07T13:25:03Z</time>
      </trkpt>
      <trkpt lat="48.30769" lon="-3.58764">
        <ele>127.2</ele>
        <time>2024-09-07T13:25:04Z</time>
      </trkpt>
      <trkpt lat="48.30775" lon="-3.58763">
        <ele>127.2</ele>
        <time>2024-09-07T13:25:05Z</time>
      </trkpt>
      <trkpt lat="48.30781" lon="-3.58761">
        <ele>127.4</ele>
        <time>2024-09-07T13:25:06Z</time>
      </trkpt>
      <trkpt lat="48.30787" lon="-3.58759">
        <ele>127.4</ele>
        <time>2024-09-07T13:25:07Z</time>
      </trkpt>
      <trkpt lat="48.30793" lon="-3.58757">
        <ele>127.4</ele>
        <time>2024-09-07T13:25:08Z</time>
      </trkpt>
      <trkpt lat="48.30799" lon="-3.58755">
        <ele>127.6</ele>
        <time>2024-09-07T13:25:09Z</time>
      </trkpt>
      <trkpt lat="48.30806" lon="-3.58753">
        <ele>127.6</ele>
        <time>2024-09-07T13:25:10Z</time>
      </trkpt>
      <trkpt lat="48.30812" lon="-3.58751">
        <ele>127.8</ele>
        <time>2024-09-07T13:25:11Z</time>
      </trkpt>
      <trkpt lat="48.30817" lon="-3.58749">
        <ele>127.8</ele>
        <time>2024-09-07T13:25:12Z</time>
      </trkpt>
      <trkpt lat="48.30823" lon="-3.58747">
        <ele>127.8</ele>
        <time>2024-09-07T13:25:13Z</time>
      </trkpt>
      <trkpt lat="48.3083" lon="-3.58744">
        <ele>128</ele>
        <time>2024-09-07T13:25:14Z</time>
      </trkpt>
      <trkpt lat="48.30836" lon="-3.58742">
        <ele>128</ele>
        <time>2024-09-07T13:25:15Z</time>
      </trkpt>
      <trkpt lat="48.30841" lon="-3.58739">
        <ele>128</ele>
        <time>2024-09-07T13:25:16Z</time>
      </trkpt>
      <trkpt lat="48.30847" lon="-3.58737">
        <ele>128.2</ele>
        <time>2024-09-07T13:25:17Z</time>
      </trkpt>
      <trkpt lat="48.30853" lon="-3.58734">
        <ele>128.4</ele>
        <time>2024-09-07T13:25:18Z</time>
      </trkpt>
      <trkpt lat="48.30858" lon="-3.58731">
        <ele>128.6</ele>
        <time>2024-09-07T13:25:19Z</time>
      </trkpt>
      <trkpt lat="48.30864" lon="-3.58729">
        <ele>128.6</ele>
        <time>2024-09-07T13:25:20Z</time>
      </trkpt>
      <trkpt lat="48.3087" lon="-3.58726">
        <ele>128.8</ele>
        <time>2024-09-07T13:25:21Z</time>
      </trkpt>
      <trkpt lat="48.30876" lon="-3.58723">
        <ele>128.8</ele>
        <time>2024-09-07T13:25:22Z</time>
      </trkpt>
      <trkpt lat="48.30882" lon="-3.5872">
        <ele>129</ele>
        <time>2024-09-07T13:25:23Z</time>
      </trkpt>
      <trkpt lat="48.30888" lon="-3.58717">
        <ele>129</ele>
        <time>2024-09-07T13:25:24Z</time>
      </trkpt>
      <trkpt lat="48.30894" lon="-3.58713">
        <ele>129</ele>
        <time>2024-09-07T13:25:25Z</time>
      </trkpt>
      <trkpt lat="48.309" lon="-3.5871">
        <ele>129</ele>
        <time>2024-09-07T13:25:26Z</time>
      </trkpt>
      <trkpt lat="48.30906" lon="-3.58707">
        <ele>129.2</ele>
        <time>2024-09-07T13:25:27Z</time>
      </trkpt>
      <trkpt lat="48.30912" lon="-3.58704">
        <ele>129.4</ele>
        <time>2024-09-07T13:25:28Z</time>
      </trkpt>
      <trkpt lat="48.30918" lon="-3.58701">
        <ele>129.4</ele>
        <time>2024-09-07T13:25:29Z</time>
      </trkpt>
      <trkpt lat="48.30923" lon="-3.58698">
        <ele>129.6</ele>
        <time>2024-09-07T13:25:30Z</time>
      </trkpt>
      <trkpt lat="48.30929" lon="-3.58695">
        <ele>129.6</ele>
        <time>2024-09-07T13:25:31Z</time>
      </trkpt>
      <trkpt lat="48.30935" lon="-3.58693">
        <ele>129.6</ele>
        <time>2024-09-07T13:25:32Z</time>
      </trkpt>
      <trkpt lat="48.30941" lon="-3.5869">
        <ele>129.8</ele>
        <time>2024-09-07T13:25:33Z</time>
      </trkpt>
      <trkpt lat="48.30947" lon="-3.58688">
        <ele>129.8</ele>
        <time>2024-09-07T13:25:34Z</time>
      </trkpt>
      <trkpt lat="48.30952" lon="-3.58685">
        <ele>129.8</ele>
        <time>2024-09-07T13:25:35Z</time>
      </trkpt>
      <trkpt lat="48.30958" lon="-3.58682">
        <ele>129.8</ele>
        <time>2024-09-07T13:25:36Z</time>
      </trkpt>
      <trkpt lat="48.30963" lon="-3.58679">
        <ele>130</ele>
        <time>2024-09-07T13:25:37Z</time>
      </trkpt>
      <trkpt lat="48.30969" lon="-3.58677">
        <ele>130</ele>
        <time>2024-09-07T13:25:38Z</time>
      </trkpt>
      <trkpt lat="48.30975" lon="-3.58674">
        <ele>130</ele>
        <time>2024-09-07T13:25:39Z</time>
      </trkpt>
      <trkpt lat="48.3098" lon="-3.58672">
        <ele>130.2</ele>
        <time>2024-09-07T13:25:40Z</time>
      </trkpt>
      <trkpt lat="48.30986" lon="-3.58669">
        <ele>130.4</ele>
        <time>2024-09-07T13:25:41Z</time>
      </trkpt>
      <trkpt lat="48.30991" lon="-3.58668">
        <ele>130.6</ele>
        <time>2024-09-07T13:25:42Z</time>
      </trkpt>
      <trkpt lat="48.30997" lon="-3.58666">
        <ele>130.8</ele>
        <time>2024-09-07T13:25:43Z</time>
      </trkpt>
      <trkpt lat="48.31002" lon="-3.58665">
        <ele>130.8</ele>
        <time>2024-09-07T13:25:44Z</time>
      </trkpt>
      <trkpt lat="48.31008" lon="-3.58664">
        <ele>131</ele>
        <time>2024-09-07T13:25:45Z</time>
      </trkpt>
      <trkpt lat="48.31014" lon="-3.58664">
        <ele>131</ele>
        <time>2024-09-07T13:25:46Z</time>
      </trkpt>
      <trkpt lat="48.3102" lon="-3.58663">
        <ele>131.2</ele>
        <time>2024-09-07T13:25:47Z</time>
      </trkpt>
      <trkpt lat="48.31026" lon="-3.58662">
        <ele>131.2</ele>
        <time>2024-09-07T13:25:48Z</time>
      </trkpt>
      <trkpt lat="48.31031" lon="-3.58662">
        <ele>131.2</ele>
        <time>2024-09-07T13:25:49Z</time>
      </trkpt>
      <trkpt lat="48.31036" lon="-3.58661">
        <ele>131.4</ele>
        <time>2024-09-07T13:25:50Z</time>
      </trkpt>
      <trkpt lat="48.31042" lon="-3.5866">
        <ele>131.6</ele>
        <time>2024-09-07T13:25:51Z</time>
      </trkpt>
      <trkpt lat="48.31048" lon="-3.58659">
        <ele>131.6</ele>
        <time>2024-09-07T13:25:52Z</time>
      </trkpt>
      <trkpt lat="48.31053" lon="-3.58658">
        <ele>131.8</ele>
        <time>2024-09-07T13:25:53Z</time>
      </trkpt>
      <trkpt lat="48.31059" lon="-3.58657">
        <ele>131.8</ele>
        <time>2024-09-07T13:25:54Z</time>
      </trkpt>
      <trkpt lat="48.31065" lon="-3.58656">
        <ele>131.8</ele>
        <time>2024-09-07T13:25:55Z</time>
      </trkpt>
      <trkpt lat="48.31071" lon="-3.58654">
        <ele>131.8</ele>
        <time>2024-09-07T13:25:56Z</time>
      </trkpt>
      <trkpt lat="48.31076" lon="-3.58653">
        <ele>132</ele>
        <time>2024-09-07T13:25:57Z</time>
      </trkpt>
      <trkpt lat="48.31082" lon="-3.58651">
        <ele>132</ele>
        <time>2024-09-07T13:25:58Z</time>
      </trkpt>
      <trkpt lat="48.31087" lon="-3.58649">
        <ele>132.2</ele>
        <time>2024-09-07T13:25:59Z</time>
      </trkpt>
      <trkpt lat="48.31093" lon="-3.58647">
        <ele>132.4</ele>
        <time>2024-09-07T13:26:00Z</time>
      </trkpt>
      <trkpt lat="48.31098" lon="-3.58644">
        <ele>132.6</ele>
        <time>2024-09-07T13:26:01Z</time>
      </trkpt>
      <trkpt lat="48.31103" lon="-3.58641">
        <ele>132.6</ele>
        <time>2024-09-07T13:26:02Z</time>
      </trkpt>
      <trkpt lat="48.31109" lon="-3.58639">
        <ele>132.8</ele>
        <time>2024-09-07T13:26:03Z</time>
      </trkpt>
      <trkpt lat="48.31114" lon="-3.58636">
        <ele>132.8</ele>
        <time>2024-09-07T13:26:04Z</time>
      </trkpt>
      <trkpt lat="48.31119" lon="-3.58634">
        <ele>133</ele>
        <time>2024-09-07T13:26:05Z</time>
      </trkpt>
      <trkpt lat="48.31124" lon="-3.58632">
        <ele>133.2</ele>
        <time>2024-09-07T13:26:06Z</time>
      </trkpt>
      <trkpt lat="48.3113" lon="-3.58629">
        <ele>133.2</ele>
        <time>2024-09-07T13:26:07Z</time>
      </trkpt>
      <trkpt lat="48.31135" lon="-3.58627">
        <ele>133.4</ele>
        <time>2024-09-07T13:26:08Z</time>
      </trkpt>
      <trkpt lat="48.31141" lon="-3.58625">
        <ele>133.4</ele>
        <time>2024-09-07T13:26:09Z</time>
      </trkpt>
      <trkpt lat="48.31146" lon="-3.58622">
        <ele>133.6</ele>
        <time>2024-09-07T13:26:10Z</time>
      </trkpt>
      <trkpt lat="48.31152" lon="-3.5862">
        <ele>133.8</ele>
        <time>2024-09-07T13:26:11Z</time>
      </trkpt>
      <trkpt lat="48.31157" lon="-3.58617">
        <ele>133.8</ele>
        <time>2024-09-07T13:26:12Z</time>
      </trkpt>
      <trkpt lat="48.31163" lon="-3.58615">
        <ele>134</ele>
        <time>2024-09-07T13:26:13Z</time>
      </trkpt>
      <trkpt lat="48.31168" lon="-3.58613">
        <ele>134.2</ele>
        <time>2024-09-07T13:26:14Z</time>
      </trkpt>
      <trkpt lat="48.31173" lon="-3.58611">
        <ele>134.2</ele>
        <time>2024-09-07T13:26:15Z</time>
      </trkpt>
      <trkpt lat="48.31179" lon="-3.58609">
        <ele>134.4</ele>
        <time>2024-09-07T13:26:16Z</time>
      </trkpt>
      <trkpt lat="48.31184" lon="-3.58607">
        <ele>134.4</ele>
        <time>2024-09-07T13:26:17Z</time>
      </trkpt>
      <trkpt lat="48.31189" lon="-3.58605">
        <ele>134.6</ele>
        <time>2024-09-07T13:26:18Z</time>
      </trkpt>
      <trkpt lat="48.31195" lon="-3.58603">
        <ele>134.6</ele>
        <time>2024-09-07T13:26:19Z</time>
      </trkpt>
      <trkpt lat="48.312" lon="-3.58601">
        <ele>134.8</ele>
        <time>2024-09-07T13:26:20Z</time>
      </trkpt>
      <trkpt lat="48.31206" lon="-3.586">
        <ele>134.8</ele>
        <time>2024-09-07T13:26:21Z</time>
      </trkpt>
      <trkpt lat="48.31212" lon="-3.58598">
        <ele>135</ele>
        <time>2024-09-07T13:26:22Z</time>
      </trkpt>
      <trkpt lat="48.31217" lon="-3.58597">
        <ele>135.2</ele>
        <time>2024-09-07T13:26:23Z</time>
      </trkpt>
      <trkpt lat="48.31223" lon="-3.58595">
        <ele>135.4</ele>
        <time>2024-09-07T13:26:24Z</time>
      </trkpt>
      <trkpt lat="48.31228" lon="-3.58594">
        <ele>135.4</ele>
        <time>2024-09-07T13:26:25Z</time>
      </trkpt>
      <trkpt lat="48.31234" lon="-3.58593">
        <ele>135.6</ele>
        <time>2024-09-07T13:26:26Z</time>
      </trkpt>
      <trkpt lat="48.31239" lon="-3.58592">
        <ele>135.8</ele>
        <time>2024-09-07T13:26:27Z</time>
      </trkpt>
      <trkpt lat="48.31245" lon="-3.5859">
        <ele>136</ele>
        <time>2024-09-07T13:26:28Z</time>
      </trkpt>
      <trkpt lat="48.3125" lon="-3.58588">
        <ele>136.2</ele>
        <time>2024-09-07T13:26:29Z</time>
      </trkpt>
      <trkpt lat="48.31255" lon="-3.58588">
        <ele>136.4</ele>
        <time>2024-09-07T13:26:30Z</time>
      </trkpt>
      <trkpt lat="48.31261" lon="-3.58587">
        <ele>136.6</ele>
        <time>2024-09-07T13:26:31Z</time>
      </trkpt>
      <trkpt lat="48.31267" lon="-3.58586">
        <ele>137</ele>
        <time>2024-09-07T13:26:32Z</time>
      </trkpt>
      <trkpt lat="48.31272" lon="-3.58584">
        <ele>137.2</ele>
        <time>2024-09-07T13:26:33Z</time>
      </trkpt>
      <trkpt lat="48.31277" lon="-3.58583">
        <ele>137.2</ele>
        <time>2024-09-07T13:26:34Z</time>
      </trkpt>
      <trkpt lat="48.31282" lon="-3.58582">
        <ele>137.4</ele>
        <time>2024-09-07T13:26:35Z</time>
      </trkpt>
      <trkpt lat="48.31288" lon="-3.58581">
        <ele>137.6</ele>
        <time>2024-09-07T13:26:36Z</time>
      </trkpt>
      <trkpt lat="48.31293" lon="-3.5858">
        <ele>137.8</ele>
        <time>2024-09-07T13:26:37Z</time>
      </trkpt>
      <trkpt lat="48.31299" lon="-3.58579">
        <ele>138</ele>
        <time>2024-09-07T13:26:38Z</time>
      </trkpt>
      <trkpt lat="48.31304" lon="-3.58578">
        <ele>138</ele>
        <time>2024-09-07T13:26:39Z</time>
      </trkpt>
      <trkpt lat="48.3131" lon="-3.58576">
        <ele>138.2</ele>
        <time>2024-09-07T13:26:40Z</time>
      </trkpt>
      <trkpt lat="48.31315" lon="-3.58575">
        <ele>138.4</ele>
        <time>2024-09-07T13:26:41Z</time>
      </trkpt>
      <trkpt lat="48.31321" lon="-3.58573">
        <ele>138.4</ele>
        <time>2024-09-07T13:26:42Z</time>
      </trkpt>
      <trkpt lat="48.31326" lon="-3.58572">
        <ele>138.4</ele>
        <time>2024-09-07T13:26:43Z</time>
      </trkpt>
      <trkpt lat="48.31331" lon="-3.58571">
        <ele>138.4</ele>
        <time>2024-09-07T13:26:44Z</time>
      </trkpt>
      <trkpt lat="48.31337" lon="-3.58569">
        <ele>138.4</ele>
        <time>2024-09-07T13:26:45Z</time>
      </trkpt>
      <trkpt lat="48.31342" lon="-3.58568">
        <ele>138.4</ele>
        <time>2024-09-07T13:26:46Z</time>
      </trkpt>
      <trkpt lat="48.31348" lon="-3.58566">
        <ele>138.6</ele>
        <time>2024-09-07T13:26:47Z</time>
      </trkpt>
      <trkpt lat="48.31354" lon="-3.58564">
        <ele>138.8</ele>
        <time>2024-09-07T13:26:48Z</time>
      </trkpt>
      <trkpt lat="48.31359" lon="-3.58562">
        <ele>138.8</ele>
        <time>2024-09-07T13:26:49Z</time>
      </trkpt>
      <trkpt lat="48.31365" lon="-3.5856">
        <ele>139</ele>
        <time>2024-09-07T13:26:50Z</time>
      </trkpt>
      <trkpt lat="48.3137" lon="-3.58558">
        <ele>139</ele>
        <time>2024-09-07T13:26:51Z</time>
      </trkpt>
      <trkpt lat="48.31376" lon="-3.58556">
        <ele>139</ele>
        <time>2024-09-07T13:26:52Z</time>
      </trkpt>
      <trkpt lat="48.31381" lon="-3.58553">
        <ele>139.2</ele>
        <time>2024-09-07T13:26:53Z</time>
      </trkpt>
      <trkpt lat="48.31386" lon="-3.58551">
        <ele>139.4</ele>
        <time>2024-09-07T13:26:54Z</time>
      </trkpt>
      <trkpt lat="48.31392" lon="-3.58549">
        <ele>139.4</ele>
        <time>2024-09-07T13:26:55Z</time>
      </trkpt>
      <trkpt lat="48.31397" lon="-3.58546">
        <ele>139.6</ele>
        <time>2024-09-07T13:26:56Z</time>
      </trkpt>
      <trkpt lat="48.31402" lon="-3.58544">
        <ele>139.6</ele>
        <time>2024-09-07T13:26:57Z</time>
      </trkpt>
      <trkpt lat="48.31407" lon="-3.58541">
        <ele>139.6</ele>
        <time>2024-09-07T13:26:58Z</time>
      </trkpt>
      <trkpt lat="48.31412" lon="-3.58539">
        <ele>139.8</ele>
        <time>2024-09-07T13:26:59Z</time>
      </trkpt>
      <trkpt lat="48.31418" lon="-3.58536">
        <ele>139.8</ele>
        <time>2024-09-07T13:27:00Z</time>
      </trkpt>
      <trkpt lat="48.31423" lon="-3.58534">
        <ele>140</ele>
        <time>2024-09-07T13:27:01Z</time>
      </trkpt>
      <trkpt lat="48.31428" lon="-3.58531">
        <ele>140</ele>
        <time>2024-09-07T13:27:02Z</time>
      </trkpt>
      <trkpt lat="48.31434" lon="-3.58529">
        <ele>140.2</ele>
        <time>2024-09-07T13:27:03Z</time>
      </trkpt>
      <trkpt lat="48.31439" lon="-3.58527">
        <ele>140.2</ele>
        <time>2024-09-07T13:27:04Z</time>
      </trkpt>
      <trkpt lat="48.31444" lon="-3.58525">
        <ele>140.2</ele>
        <time>2024-09-07T13:27:05Z</time>
      </trkpt>
      <trkpt lat="48.31449" lon="-3.58522">
        <ele>140.4</ele>
        <time>2024-09-07T13:27:06Z</time>
      </trkpt>
      <trkpt lat="48.31454" lon="-3.5852">
        <ele>140.4</ele>
        <time>2024-09-07T13:27:07Z</time>
      </trkpt>
      <trkpt lat="48.3146" lon="-3.58518">
        <ele>140.4</ele>
        <time>2024-09-07T13:27:08Z</time>
      </trkpt>
      <trkpt lat="48.31465" lon="-3.58516">
        <ele>140.4</ele>
        <time>2024-09-07T13:27:09Z</time>
      </trkpt>
      <trkpt lat="48.3147" lon="-3.58514">
        <ele>140.6</ele>
        <time>2024-09-07T13:27:10Z</time>
      </trkpt>
      <trkpt lat="48.31475" lon="-3.58512">
        <ele>140.6</ele>
        <time>2024-09-07T13:27:11Z</time>
      </trkpt>
      <trkpt lat="48.3148" lon="-3.5851">
        <ele>140.6</ele>
        <time>2024-09-07T13:27:12Z</time>
      </trkpt>
      <trkpt lat="48.31485" lon="-3.58508">
        <ele>140.8</ele>
        <time>2024-09-07T13:27:13Z</time>
      </trkpt>
      <trkpt lat="48.3149" lon="-3.58506">
        <ele>141</ele>
        <time>2024-09-07T13:27:14Z</time>
      </trkpt>
      <trkpt lat="48.31494" lon="-3.58504">
        <ele>141</ele>
        <time>2024-09-07T13:27:15Z</time>
      </trkpt>
      <trkpt lat="48.31499" lon="-3.58502">
        <ele>141.2</ele>
        <time>2024-09-07T13:27:16Z</time>
      </trkpt>
      <trkpt lat="48.31504" lon="-3.585">
        <ele>141.4</ele>
        <time>2024-09-07T13:27:17Z</time>
      </trkpt>
      <trkpt lat="48.31509" lon="-3.58498">
        <ele>141.4</ele>
        <time>2024-09-07T13:27:18Z</time>
      </trkpt>
      <trkpt lat="48.31514" lon="-3.58496">
        <ele>141.6</ele>
        <time>2024-09-07T13:27:19Z</time>
      </trkpt>
      <trkpt lat="48.31518" lon="-3.58494">
        <ele>141.8</ele>
        <time>2024-09-07T13:27:20Z</time>
      </trkpt>
      <trkpt lat="48.31523" lon="-3.58493">
        <ele>141.8</ele>
        <time>2024-09-07T13:27:21Z</time>
      </trkpt>
      <trkpt lat="48.31528" lon="-3.58491">
        <ele>142</ele>
        <time>2024-09-07T13:27:22Z</time>
      </trkpt>
      <trkpt lat="48.31533" lon="-3.58489">
        <ele>142.2</ele>
        <time>2024-09-07T13:27:23Z</time>
      </trkpt>
      <trkpt lat="48.31538" lon="-3.58487">
        <ele>142.4</ele>
        <time>2024-09-07T13:27:24Z</time>
      </trkpt>
      <trkpt lat="48.31542" lon="-3.58484">
        <ele>142.6</ele>
        <time>2024-09-07T13:27:25Z</time>
      </trkpt>
      <trkpt lat="48.31547" lon="-3.58482">
        <ele>142.8</ele>
        <time>2024-09-07T13:27:26Z</time>
      </trkpt>
      <trkpt lat="48.31552" lon="-3.58479">
        <ele>143</ele>
        <time>2024-09-07T13:27:27Z</time>
      </trkpt>
      <trkpt lat="48.31556" lon="-3.58476">
        <ele>143</ele>
        <time>2024-09-07T13:27:28Z</time>
      </trkpt>
      <trkpt lat="48.31561" lon="-3.58472">
        <ele>143.2</ele>
        <time>2024-09-07T13:27:29Z</time>
      </trkpt>
      <trkpt lat="48.31566" lon="-3.58469">
        <ele>143.4</ele>
        <time>2024-09-07T13:27:30Z</time>
      </trkpt>
      <trkpt lat="48.3157" lon="-3.58465">
        <ele>143.6</ele>
        <time>2024-09-07T13:27:31Z</time>
      </trkpt>
      <trkpt lat="48.31574" lon="-3.58461">
        <ele>143.8</ele>
        <time>2024-09-07T13:27:32Z</time>
      </trkpt>
      <trkpt lat="48.31578" lon="-3.58458">
        <ele>143.8</ele>
        <time>2024-09-07T13:27:33Z</time>
      </trkpt>
      <trkpt lat="48.31583" lon="-3.58453">
        <ele>144</ele>
        <time>2024-09-07T13:27:34Z</time>
      </trkpt>
      <trkpt lat="48.31587" lon="-3.58449">
        <ele>144</ele>
        <time>2024-09-07T13:27:35Z</time>
      </trkpt>
      <trkpt lat="48.31592" lon="-3.58445">
        <ele>144.2</ele>
        <time>2024-09-07T13:27:36Z</time>
      </trkpt>
      <trkpt lat="48.31596" lon="-3.58441">
        <ele>144.4</ele>
        <time>2024-09-07T13:27:37Z</time>
      </trkpt>
      <trkpt lat="48.316" lon="-3.58437">
        <ele>144.4</ele>
        <time>2024-09-07T13:27:38Z</time>
      </trkpt>
      <trkpt lat="48.31605" lon="-3.58433">
        <ele>144.6</ele>
        <time>2024-09-07T13:27:39Z</time>
      </trkpt>
      <trkpt lat="48.31609" lon="-3.58429">
        <ele>144.6</ele>
        <time>2024-09-07T13:27:40Z</time>
      </trkpt>
      <trkpt lat="48.31613" lon="-3.58424">
        <ele>144.8</ele>
        <time>2024-09-07T13:27:41Z</time>
      </trkpt>
      <trkpt lat="48.31618" lon="-3.5842">
        <ele>145</ele>
        <time>2024-09-07T13:27:42Z</time>
      </trkpt>
      <trkpt lat="48.31622" lon="-3.58416">
        <ele>145.2</ele>
        <time>2024-09-07T13:27:43Z</time>
      </trkpt>
      <trkpt lat="48.31627" lon="-3.58412">
        <ele>145.2</ele>
        <time>2024-09-07T13:27:44Z</time>
      </trkpt>
      <trkpt lat="48.31631" lon="-3.58408">
        <ele>145.4</ele>
        <time>2024-09-07T13:27:45Z</time>
      </trkpt>
      <trkpt lat="48.31635" lon="-3.58404">
        <ele>145.6</ele>
        <time>2024-09-07T13:27:46Z</time>
      </trkpt>
      <trkpt lat="48.3164" lon="-3.58399">
        <ele>145.8</ele>
        <time>2024-09-07T13:27:47Z</time>
      </trkpt>
      <trkpt lat="48.31644" lon="-3.58395">
        <ele>146</ele>
        <time>2024-09-07T13:27:48Z</time>
      </trkpt>
      <trkpt lat="48.31648" lon="-3.58391">
        <ele>146</ele>
        <time>2024-09-07T13:27:49Z</time>
      </trkpt>
      <trkpt lat="48.31653" lon="-3.58386">
        <ele>146.2</ele>
        <time>2024-09-07T13:27:50Z</time>
      </trkpt>
      <trkpt lat="48.31657" lon="-3.58382">
        <ele>146.2</ele>
        <time>2024-09-07T13:27:51Z</time>
      </trkpt>
      <trkpt lat="48.31662" lon="-3.58378">
        <ele>146.2</ele>
        <time>2024-09-07T13:27:52Z</time>
      </trkpt>
      <trkpt lat="48.31666" lon="-3.58373">
        <ele>146.4</ele>
        <time>2024-09-07T13:27:53Z</time>
      </trkpt>
      <trkpt lat="48.31671" lon="-3.58369">
        <ele>146.4</ele>
        <time>2024-09-07T13:27:54Z</time>
      </trkpt>
      <trkpt lat="48.31675" lon="-3.58365">
        <ele>146.4</ele>
        <time>2024-09-07T13:27:55Z</time>
      </trkpt>
      <trkpt lat="48.3168" lon="-3.58361">
        <ele>146.6</ele>
        <time>2024-09-07T13:27:56Z</time>
      </trkpt>
      <trkpt lat="48.31684" lon="-3.58357">
        <ele>146.6</ele>
        <time>2024-09-07T13:27:57Z</time>
      </trkpt>
      <trkpt lat="48.31689" lon="-3.58353">
        <ele>146.6</ele>
        <time>2024-09-07T13:27:58Z</time>
      </trkpt>
      <trkpt lat="48.31694" lon="-3.5835">
        <ele>146.8</ele>
        <time>2024-09-07T13:27:59Z</time>
      </trkpt>
      <trkpt lat="48.31699" lon="-3.58347">
        <ele>147</ele>
        <time>2024-09-07T13:28:00Z</time>
      </trkpt>
      <trkpt lat="48.31703" lon="-3.58344">
        <ele>147</ele>
        <time>2024-09-07T13:28:01Z</time>
      </trkpt>
      <trkpt lat="48.31708" lon="-3.58341">
        <ele>147.2</ele>
        <time>2024-09-07T13:28:02Z</time>
      </trkpt>
      <trkpt lat="48.31714" lon="-3.58338">
        <ele>147.4</ele>
        <time>2024-09-07T13:28:03Z</time>
      </trkpt>
      <trkpt lat="48.31719" lon="-3.58336">
        <ele>147.4</ele>
        <time>2024-09-07T13:28:04Z</time>
      </trkpt>
      <trkpt lat="48.31724" lon="-3.58334">
        <ele>147.4</ele>
        <time>2024-09-07T13:28:05Z</time>
      </trkpt>
      <trkpt lat="48.3173" lon="-3.58333">
        <ele>147.4</ele>
        <time>2024-09-07T13:28:06Z</time>
      </trkpt>
      <trkpt lat="48.31735" lon="-3.58331">
        <ele>147.4</ele>
        <time>2024-09-07T13:28:07Z</time>
      </trkpt>
      <trkpt lat="48.3174" lon="-3.58331">
        <ele>147.6</ele>
        <time>2024-09-07T13:28:08Z</time>
      </trkpt>
      <trkpt lat="48.31746" lon="-3.5833">
        <ele>147.6</ele>
        <time>2024-09-07T13:28:09Z</time>
      </trkpt>
      <trkpt lat="48.31751" lon="-3.58329">
        <ele>147.8</ele>
        <time>2024-09-07T13:28:10Z</time>
      </trkpt>
      <trkpt lat="48.31756" lon="-3.58328">
        <ele>147.8</ele>
        <time>2024-09-07T13:28:11Z</time>
      </trkpt>
      <trkpt lat="48.31761" lon="-3.58328">
        <ele>148</ele>
        <time>2024-09-07T13:28:12Z</time>
      </trkpt>
      <trkpt lat="48.31767" lon="-3.58327">
        <ele>148</ele>
        <time>2024-09-07T13:28:13Z</time>
      </trkpt>
      <trkpt lat="48.31772" lon="-3.58326">
        <ele>148.2</ele>
        <time>2024-09-07T13:28:14Z</time>
      </trkpt>
      <trkpt lat="48.31778" lon="-3.58325">
        <ele>148.2</ele>
        <time>2024-09-07T13:28:15Z</time>
      </trkpt>
      <trkpt lat="48.31784" lon="-3.58324">
        <ele>148.4</ele>
        <time>2024-09-07T13:28:16Z</time>
      </trkpt>
      <trkpt lat="48.31789" lon="-3.58323">
        <ele>148.4</ele>
        <time>2024-09-07T13:28:17Z</time>
      </trkpt>
      <trkpt lat="48.31795" lon="-3.58321">
        <ele>148.4</ele>
        <time>2024-09-07T13:28:18Z</time>
      </trkpt>
      <trkpt lat="48.31801" lon="-3.5832">
        <ele>148.6</ele>
        <time>2024-09-07T13:28:19Z</time>
      </trkpt>
      <trkpt lat="48.31806" lon="-3.58318">
        <ele>148.6</ele>
        <time>2024-09-07T13:28:20Z</time>
      </trkpt>
      <trkpt lat="48.31811" lon="-3.58315">
        <ele>148.6</ele>
        <time>2024-09-07T13:28:21Z</time>
      </trkpt>
      <trkpt lat="48.31817" lon="-3.58313">
        <ele>148.6</ele>
        <time>2024-09-07T13:28:22Z</time>
      </trkpt>
      <trkpt lat="48.31822" lon="-3.58311">
        <ele>148.6</ele>
        <time>2024-09-07T13:28:23Z</time>
      </trkpt>
      <trkpt lat="48.31827" lon="-3.58309">
        <ele>148.6</ele>
        <time>2024-09-07T13:28:24Z</time>
      </trkpt>
      <trkpt lat="48.31832" lon="-3.58307">
        <ele>148.6</ele>
        <time>2024-09-07T13:28:25Z</time>
      </trkpt>
      <trkpt lat="48.31837" lon="-3.58305">
        <ele>148.6</ele>
        <time>2024-09-07T13:28:26Z</time>
      </trkpt>
      <trkpt lat="48.31842" lon="-3.58303">
        <ele>148.8</ele>
        <time>2024-09-07T13:28:27Z</time>
      </trkpt>
      <trkpt lat="48.31847" lon="-3.58301">
        <ele>148.8</ele>
        <time>2024-09-07T13:28:28Z</time>
      </trkpt>
      <trkpt lat="48.31851" lon="-3.58298">
        <ele>148.8</ele>
        <time>2024-09-07T13:28:29Z</time>
      </trkpt>
      <trkpt lat="48.31856" lon="-3.58296">
        <ele>148.8</ele>
        <time>2024-09-07T13:28:30Z</time>
      </trkpt>
      <trkpt lat="48.31861" lon="-3.58293">
        <ele>148.8</ele>
        <time>2024-09-07T13:28:31Z</time>
      </trkpt>
      <trkpt lat="48.31865" lon="-3.5829">
        <ele>149</ele>
        <time>2024-09-07T13:28:32Z</time>
      </trkpt>
      <trkpt lat="48.3187" lon="-3.58288">
        <ele>149.2</ele>
        <time>2024-09-07T13:28:33Z</time>
      </trkpt>
      <trkpt lat="48.31875" lon="-3.58285">
        <ele>149.4</ele>
        <time>2024-09-07T13:28:34Z</time>
      </trkpt>
      <trkpt lat="48.31879" lon="-3.58281">
        <ele>149.6</ele>
        <time>2024-09-07T13:28:35Z</time>
      </trkpt>
      <trkpt lat="48.31884" lon="-3.58278">
        <ele>149.8</ele>
        <time>2024-09-07T13:28:36Z</time>
      </trkpt>
      <trkpt lat="48.31889" lon="-3.58274">
        <ele>150</ele>
        <time>2024-09-07T13:28:37Z</time>
      </trkpt>
      <trkpt lat="48.31893" lon="-3.5827">
        <ele>150</ele>
        <time>2024-09-07T13:28:38Z</time>
      </trkpt>
      <trkpt lat="48.31898" lon="-3.58265">
        <ele>150.2</ele>
        <time>2024-09-07T13:28:39Z</time>
      </trkpt>
      <trkpt lat="48.31902" lon="-3.58261">
        <ele>150.2</ele>
        <time>2024-09-07T13:28:40Z</time>
      </trkpt>
      <trkpt lat="48.31907" lon="-3.58257">
        <ele>150.2</ele>
        <time>2024-09-07T13:28:41Z</time>
      </trkpt>
      <trkpt lat="48.31911" lon="-3.58253">
        <ele>150.4</ele>
        <time>2024-09-07T13:28:42Z</time>
      </trkpt>
      <trkpt lat="48.31916" lon="-3.58249">
        <ele>150.4</ele>
        <time>2024-09-07T13:28:43Z</time>
      </trkpt>
      <trkpt lat="48.3192" lon="-3.58246">
        <ele>150.4</ele>
        <time>2024-09-07T13:28:44Z</time>
      </trkpt>
      <trkpt lat="48.31925" lon="-3.58243">
        <ele>150.4</ele>
        <time>2024-09-07T13:28:45Z</time>
      </trkpt>
      <trkpt lat="48.31929" lon="-3.5824">
        <ele>150.6</ele>
        <time>2024-09-07T13:28:46Z</time>
      </trkpt>
      <trkpt lat="48.31933" lon="-3.58236">
        <ele>150.6</ele>
        <time>2024-09-07T13:28:47Z</time>
      </trkpt>
      <trkpt lat="48.31937" lon="-3.58233">
        <ele>150.6</ele>
        <time>2024-09-07T13:28:48Z</time>
      </trkpt>
      <trkpt lat="48.31941" lon="-3.58229">
        <ele>150.8</ele>
        <time>2024-09-07T13:28:49Z</time>
      </trkpt>
      <trkpt lat="48.31945" lon="-3.58224">
        <ele>150.8</ele>
        <time>2024-09-07T13:28:50Z</time>
      </trkpt>
      <trkpt lat="48.31948" lon="-3.5822">
        <ele>150.8</ele>
        <time>2024-09-07T13:28:51Z</time>
      </trkpt>
      <trkpt lat="48.31952" lon="-3.58215">
        <ele>150.8</ele>
        <time>2024-09-07T13:28:52Z</time>
      </trkpt>
      <trkpt lat="48.31957" lon="-3.58211">
        <ele>150.8</ele>
        <time>2024-09-07T13:28:53Z</time>
      </trkpt>
      <trkpt lat="48.31961" lon="-3.58207">
        <ele>150.8</ele>
        <time>2024-09-07T13:28:54Z</time>
      </trkpt>
      <trkpt lat="48.31966" lon="-3.58204">
        <ele>150.8</ele>
        <time>2024-09-07T13:28:55Z</time>
      </trkpt>
      <trkpt lat="48.3197" lon="-3.582">
        <ele>150.8</ele>
        <time>2024-09-07T13:28:56Z</time>
      </trkpt>
      <trkpt lat="48.31974" lon="-3.58196">
        <ele>150.8</ele>
        <time>2024-09-07T13:28:57Z</time>
      </trkpt>
      <trkpt lat="48.31979" lon="-3.58192">
        <ele>150.8</ele>
        <time>2024-09-07T13:28:58Z</time>
      </trkpt>
      <trkpt lat="48.31983" lon="-3.58187">
        <ele>150.8</ele>
        <time>2024-09-07T13:28:59Z</time>
      </trkpt>
      <trkpt lat="48.31987" lon="-3.58183">
        <ele>150.8</ele>
        <time>2024-09-07T13:29:00Z</time>
      </trkpt>
      <trkpt lat="48.31991" lon="-3.58179">
        <ele>150.8</ele>
        <time>2024-09-07T13:29:01Z</time>
      </trkpt>
      <trkpt lat="48.31996" lon="-3.58174">
        <ele>150.8</ele>
        <time>2024-09-07T13:29:02Z</time>
      </trkpt>
      <trkpt lat="48.32" lon="-3.5817">
        <ele>150.8</ele>
        <time>2024-09-07T13:29:03Z</time>
      </trkpt>
      <trkpt lat="48.32004" lon="-3.58165">
        <ele>150.8</ele>
        <time>2024-09-07T13:29:04Z</time>
      </trkpt>
      <trkpt lat="48.32008" lon="-3.58159">
        <ele>150.8</ele>
        <time>2024-09-07T13:29:05Z</time>
      </trkpt>
      <trkpt lat="48.32012" lon="-3.58154">
        <ele>150.8</ele>
        <time>2024-09-07T13:29:06Z</time>
      </trkpt>
      <trkpt lat="48.32016" lon="-3.58149">
        <ele>150.8</ele>
        <time>2024-09-07T13:29:07Z</time>
      </trkpt>
      <trkpt lat="48.3202" lon="-3.58143">
        <ele>150.8</ele>
        <time>2024-09-07T13:29:08Z</time>
      </trkpt>
      <trkpt lat="48.32025" lon="-3.58138">
        <ele>150.8</ele>
        <time>2024-09-07T13:29:09Z</time>
      </trkpt>
      <trkpt lat="48.32029" lon="-3.58133">
        <ele>150.8</ele>
        <time>2024-09-07T13:29:10Z</time>
      </trkpt>
      <trkpt lat="48.32033" lon="-3.58127">
        <ele>150.8</ele>
        <time>2024-09-07T13:29:11Z</time>
      </trkpt>
      <trkpt lat="48.32037" lon="-3.58121">
        <ele>150.8</ele>
        <time>2024-09-07T13:29:12Z</time>
      </trkpt>
      <trkpt lat="48.32042" lon="-3.58115">
        <ele>150.8</ele>
        <time>2024-09-07T13:29:13Z</time>
      </trkpt>
      <trkpt lat="48.32046" lon="-3.58109">
        <ele>150.8</ele>
        <time>2024-09-07T13:29:14Z</time>
      </trkpt>
      <trkpt lat="48.32051" lon="-3.58104">
        <ele>150.8</ele>
        <time>2024-09-07T13:29:15Z</time>
      </trkpt>
      <trkpt lat="48.32055" lon="-3.58098">
        <ele>150.8</ele>
        <time>2024-09-07T13:29:16Z</time>
      </trkpt>
      <trkpt lat="48.32059" lon="-3.58093">
        <ele>150.8</ele>
        <time>2024-09-07T13:29:17Z</time>
      </trkpt>
      <trkpt lat="48.32064" lon="-3.58087">
        <ele>151</ele>
        <time>2024-09-07T13:29:18Z</time>
      </trkpt>
      <trkpt lat="48.32068" lon="-3.58081">
        <ele>151</ele>
        <time>2024-09-07T13:29:19Z</time>
      </trkpt>
      <trkpt lat="48.32073" lon="-3.58075">
        <ele>151</ele>
        <time>2024-09-07T13:29:20Z</time>
      </trkpt>
      <trkpt lat="48.32077" lon="-3.58069">
        <ele>151</ele>
        <time>2024-09-07T13:29:21Z</time>
      </trkpt>
      <trkpt lat="48.32081" lon="-3.58064">
        <ele>151</ele>
        <time>2024-09-07T13:29:22Z</time>
      </trkpt>
      <trkpt lat="48.32086" lon="-3.58058">
        <ele>151</ele>
        <time>2024-09-07T13:29:23Z</time>
      </trkpt>
      <trkpt lat="48.3209" lon="-3.58052">
        <ele>151.2</ele>
        <time>2024-09-07T13:29:24Z</time>
      </trkpt>
      <trkpt lat="48.32094" lon="-3.58047">
        <ele>151.2</ele>
        <time>2024-09-07T13:29:25Z</time>
      </trkpt>
      <trkpt lat="48.32099" lon="-3.58041">
        <ele>151.2</ele>
        <time>2024-09-07T13:29:26Z</time>
      </trkpt>
      <trkpt lat="48.32103" lon="-3.58036">
        <ele>151.2</ele>
        <time>2024-09-07T13:29:27Z</time>
      </trkpt>
      <trkpt lat="48.32108" lon="-3.5803">
        <ele>151.2</ele>
        <time>2024-09-07T13:29:28Z</time>
      </trkpt>
      <trkpt lat="48.32112" lon="-3.58025">
        <ele>151.2</ele>
        <time>2024-09-07T13:29:29Z</time>
      </trkpt>
      <trkpt lat="48.32117" lon="-3.58019">
        <ele>151.4</ele>
        <time>2024-09-07T13:29:30Z</time>
      </trkpt>
      <trkpt lat="48.32122" lon="-3.58014">
        <ele>151.4</ele>
        <time>2024-09-07T13:29:31Z</time>
      </trkpt>
      <trkpt lat="48.32127" lon="-3.58008">
        <ele>151.4</ele>
        <time>2024-09-07T13:29:32Z</time>
      </trkpt>
      <trkpt lat="48.32132" lon="-3.58003">
        <ele>151.4</ele>
        <time>2024-09-07T13:29:33Z</time>
      </trkpt>
      <trkpt lat="48.32137" lon="-3.57997">
        <ele>151.4</ele>
        <time>2024-09-07T13:29:34Z</time>
      </trkpt>
      <trkpt lat="48.32142" lon="-3.57992">
        <ele>151.6</ele>
        <time>2024-09-07T13:29:35Z</time>
      </trkpt>
      <trkpt lat="48.32147" lon="-3.57987">
        <ele>151.6</ele>
        <time>2024-09-07T13:29:36Z</time>
      </trkpt>
      <trkpt lat="48.32152" lon="-3.57982">
        <ele>151.6</ele>
        <time>2024-09-07T13:29:37Z</time>
      </trkpt>
      <trkpt lat="48.32157" lon="-3.57977">
        <ele>151.6</ele>
        <time>2024-09-07T13:29:38Z</time>
      </trkpt>
      <trkpt lat="48.32162" lon="-3.57973">
        <ele>151.6</ele>
        <time>2024-09-07T13:29:39Z</time>
      </trkpt>
      <trkpt lat="48.32168" lon="-3.57969">
        <ele>151.8</ele>
        <time>2024-09-07T13:29:40Z</time>
      </trkpt>
      <trkpt lat="48.32174" lon="-3.57965">
        <ele>151.8</ele>
        <time>2024-09-07T13:29:41Z</time>
      </trkpt>
      <trkpt lat="48.32179" lon="-3.57961">
        <ele>151.8</ele>
        <time>2024-09-07T13:29:42Z</time>
      </trkpt>
      <trkpt lat="48.32185" lon="-3.57957">
        <ele>151.8</ele>
        <time>2024-09-07T13:29:43Z</time>
      </trkpt>
      <trkpt lat="48.32191" lon="-3.57953">
        <ele>151.8</ele>
        <time>2024-09-07T13:29:44Z</time>
      </trkpt>
      <trkpt lat="48.32197" lon="-3.5795">
        <ele>151.8</ele>
        <time>2024-09-07T13:29:45Z</time>
      </trkpt>
      <trkpt lat="48.32203" lon="-3.57947">
        <ele>151.8</ele>
        <time>2024-09-07T13:29:46Z</time>
      </trkpt>
      <trkpt lat="48.3221" lon="-3.57944">
        <ele>151.8</ele>
        <time>2024-09-07T13:29:47Z</time>
      </trkpt>
      <trkpt lat="48.32216" lon="-3.57942">
        <ele>151.8</ele>
        <time>2024-09-07T13:29:48Z</time>
      </trkpt>
      <trkpt lat="48.32223" lon="-3.57939">
        <ele>151.8</ele>
        <time>2024-09-07T13:29:49Z</time>
      </trkpt>
      <trkpt lat="48.3223" lon="-3.57937">
        <ele>151.8</ele>
        <time>2024-09-07T13:29:50Z</time>
      </trkpt>
      <trkpt lat="48.32236" lon="-3.57934">
        <ele>151.8</ele>
        <time>2024-09-07T13:29:51Z</time>
      </trkpt>
      <trkpt lat="48.32243" lon="-3.57932">
        <ele>151.8</ele>
        <time>2024-09-07T13:29:52Z</time>
      </trkpt>
      <trkpt lat="48.3225" lon="-3.5793">
        <ele>151.6</ele>
        <time>2024-09-07T13:29:53Z</time>
      </trkpt>
      <trkpt lat="48.32256" lon="-3.57928">
        <ele>151.6</ele>
        <time>2024-09-07T13:29:54Z</time>
      </trkpt>
      <trkpt lat="48.32263" lon="-3.57926">
        <ele>151.4</ele>
        <time>2024-09-07T13:29:55Z</time>
      </trkpt>
      <trkpt lat="48.3227" lon="-3.57924">
        <ele>151.4</ele>
        <time>2024-09-07T13:29:56Z</time>
      </trkpt>
      <trkpt lat="48.32277" lon="-3.57922">
        <ele>151.2</ele>
        <time>2024-09-07T13:29:57Z</time>
      </trkpt>
      <trkpt lat="48.32284" lon="-3.5792">
        <ele>151</ele>
        <time>2024-09-07T13:29:58Z</time>
      </trkpt>
      <trkpt lat="48.32291" lon="-3.57918">
        <ele>151</ele>
        <time>2024-09-07T13:29:59Z</time>
      </trkpt>
      <trkpt lat="48.32298" lon="-3.57916">
        <ele>150.8</ele>
        <time>2024-09-07T13:30:00Z</time>
      </trkpt>
      <trkpt lat="48.32305" lon="-3.57914">
        <ele>150.6</ele>
        <time>2024-09-07T13:30:01Z</time>
      </trkpt>
      <trkpt lat="48.32312" lon="-3.57912">
        <ele>150.6</ele>
        <time>2024-09-07T13:30:02Z</time>
      </trkpt>
      <trkpt lat="48.32319" lon="-3.5791">
        <ele>150.6</ele>
        <time>2024-09-07T13:30:03Z</time>
      </trkpt>
      <trkpt lat="48.32327" lon="-3.57908">
        <ele>150.4</ele>
        <time>2024-09-07T13:30:04Z</time>
      </trkpt>
      <trkpt lat="48.32334" lon="-3.57906">
        <ele>150.4</ele>
        <time>2024-09-07T13:30:05Z</time>
      </trkpt>
      <trkpt lat="48.32341" lon="-3.57904">
        <ele>150.2</ele>
        <time>2024-09-07T13:30:06Z</time>
      </trkpt>
      <trkpt lat="48.32348" lon="-3.57902">
        <ele>150</ele>
        <time>2024-09-07T13:30:07Z</time>
      </trkpt>
      <trkpt lat="48.32355" lon="-3.579">
        <ele>150</ele>
        <time>2024-09-07T13:30:08Z</time>
      </trkpt>
      <trkpt lat="48.32362" lon="-3.57898">
        <ele>149.8</ele>
        <time>2024-09-07T13:30:09Z</time>
      </trkpt>
      <trkpt lat="48.32369" lon="-3.57896">
        <ele>149.8</ele>
        <time>2024-09-07T13:30:10Z</time>
      </trkpt>
      <trkpt lat="48.32376" lon="-3.57894">
        <ele>149.6</ele>
        <time>2024-09-07T13:30:11Z</time>
      </trkpt>
      <trkpt lat="48.32383" lon="-3.57893">
        <ele>149.6</ele>
        <time>2024-09-07T13:30:12Z</time>
      </trkpt>
      <trkpt lat="48.3239" lon="-3.57891">
        <ele>149.4</ele>
        <time>2024-09-07T13:30:13Z</time>
      </trkpt>
      <trkpt lat="48.32397" lon="-3.57889">
        <ele>149.4</ele>
        <time>2024-09-07T13:30:14Z</time>
      </trkpt>
      <trkpt lat="48.32403" lon="-3.57887">
        <ele>149.2</ele>
        <time>2024-09-07T13:30:15Z</time>
      </trkpt>
      <trkpt lat="48.3241" lon="-3.57885">
        <ele>149</ele>
        <time>2024-09-07T13:30:16Z</time>
      </trkpt>
      <trkpt lat="48.32417" lon="-3.57883">
        <ele>149</ele>
        <time>2024-09-07T13:30:17Z</time>
      </trkpt>
      <trkpt lat="48.32424" lon="-3.57881">
        <ele>149</ele>
        <time>2024-09-07T13:30:18Z</time>
      </trkpt>
      <trkpt lat="48.3243" lon="-3.57879">
        <ele>148.8</ele>
        <time>2024-09-07T13:30:19Z</time>
      </trkpt>
      <trkpt lat="48.32437" lon="-3.57877">
        <ele>148.8</ele>
        <time>2024-09-07T13:30:20Z</time>
      </trkpt>
      <trkpt lat="48.32444" lon="-3.57875">
        <ele>148.8</ele>
        <time>2024-09-07T13:30:21Z</time>
      </trkpt>
      <trkpt lat="48.32452" lon="-3.57873">
        <ele>148.6</ele>
        <time>2024-09-07T13:30:22Z</time>
      </trkpt>
      <trkpt lat="48.32459" lon="-3.57872">
        <ele>148.6</ele>
        <time>2024-09-07T13:30:23Z</time>
      </trkpt>
      <trkpt lat="48.32466" lon="-3.57869">
        <ele>148.6</ele>
        <time>2024-09-07T13:30:24Z</time>
      </trkpt>
      <trkpt lat="48.32473" lon="-3.57867">
        <ele>148.4</ele>
        <time>2024-09-07T13:30:25Z</time>
      </trkpt>
      <trkpt lat="48.3248" lon="-3.57865">
        <ele>148.4</ele>
        <time>2024-09-07T13:30:26Z</time>
      </trkpt>
      <trkpt lat="48.32487" lon="-3.57863">
        <ele>148.4</ele>
        <time>2024-09-07T13:30:27Z</time>
      </trkpt>
      <trkpt lat="48.32494" lon="-3.57862">
        <ele>148.4</ele>
        <time>2024-09-07T13:30:28Z</time>
      </trkpt>
      <trkpt lat="48.32501" lon="-3.5786">
        <ele>148.2</ele>
        <time>2024-09-07T13:30:29Z</time>
      </trkpt>
      <trkpt lat="48.32509" lon="-3.57857">
        <ele>148.2</ele>
        <time>2024-09-07T13:30:30Z</time>
      </trkpt>
      <trkpt lat="48.32516" lon="-3.57855">
        <ele>148</ele>
        <time>2024-09-07T13:30:31Z</time>
      </trkpt>
      <trkpt lat="48.32523" lon="-3.57853">
        <ele>148</ele>
        <time>2024-09-07T13:30:32Z</time>
      </trkpt>
      <trkpt lat="48.3253" lon="-3.57851">
        <ele>148</ele>
        <time>2024-09-07T13:30:33Z</time>
      </trkpt>
      <trkpt lat="48.32538" lon="-3.57848">
        <ele>147.8</ele>
        <time>2024-09-07T13:30:34Z</time>
      </trkpt>
      <trkpt lat="48.32545" lon="-3.57847">
        <ele>147.8</ele>
        <time>2024-09-07T13:30:35Z</time>
      </trkpt>
      <trkpt lat="48.32552" lon="-3.57845">
        <ele>147.8</ele>
        <time>2024-09-07T13:30:36Z</time>
      </trkpt>
      <trkpt lat="48.32559" lon="-3.57843">
        <ele>147.6</ele>
        <time>2024-09-07T13:30:37Z</time>
      </trkpt>
      <trkpt lat="48.32567" lon="-3.57841">
        <ele>147.4</ele>
        <time>2024-09-07T13:30:38Z</time>
      </trkpt>
      <trkpt lat="48.32574" lon="-3.57838">
        <ele>147.2</ele>
        <time>2024-09-07T13:30:39Z</time>
      </trkpt>
      <trkpt lat="48.32581" lon="-3.57836">
        <ele>147</ele>
        <time>2024-09-07T13:30:40Z</time>
      </trkpt>
      <trkpt lat="48.32588" lon="-3.57834">
        <ele>146.8</ele>
        <time>2024-09-07T13:30:41Z</time>
      </trkpt>
      <trkpt lat="48.32595" lon="-3.57832">
        <ele>146.8</ele>
        <time>2024-09-07T13:30:42Z</time>
      </trkpt>
      <trkpt lat="48.32603" lon="-3.5783">
        <ele>146.6</ele>
        <time>2024-09-07T13:30:43Z</time>
      </trkpt>
      <trkpt lat="48.3261" lon="-3.57828">
        <ele>146.6</ele>
        <time>2024-09-07T13:30:44Z</time>
      </trkpt>
      <trkpt lat="48.32617" lon="-3.57826">
        <ele>146.6</ele>
        <time>2024-09-07T13:30:45Z</time>
      </trkpt>
      <trkpt lat="48.32624" lon="-3.57823">
        <ele>146.6</ele>
        <time>2024-09-07T13:30:46Z</time>
      </trkpt>
      <trkpt lat="48.32631" lon="-3.57821">
        <ele>146.4</ele>
        <time>2024-09-07T13:30:47Z</time>
      </trkpt>
      <trkpt lat="48.32638" lon="-3.5782">
        <ele>146.4</ele>
        <time>2024-09-07T13:30:48Z</time>
      </trkpt>
      <trkpt lat="48.32645" lon="-3.57818">
        <ele>146.4</ele>
        <time>2024-09-07T13:30:49Z</time>
      </trkpt>
      <trkpt lat="48.32652" lon="-3.57816">
        <ele>146.4</ele>
        <time>2024-09-07T13:30:50Z</time>
      </trkpt>
      <trkpt lat="48.32659" lon="-3.57813">
        <ele>146.4</ele>
        <time>2024-09-07T13:30:51Z</time>
      </trkpt>
      <trkpt lat="48.32666" lon="-3.57811">
        <ele>146.4</ele>
        <time>2024-09-07T13:30:52Z</time>
      </trkpt>
      <trkpt lat="48.32674" lon="-3.57809">
        <ele>146.4</ele>
        <time>2024-09-07T13:30:53Z</time>
      </trkpt>
      <trkpt lat="48.32681" lon="-3.57808">
        <ele>146.2</ele>
        <time>2024-09-07T13:30:54Z</time>
      </trkpt>
      <trkpt lat="48.32688" lon="-3.57806">
        <ele>146.2</ele>
        <time>2024-09-07T13:30:55Z</time>
      </trkpt>
      <trkpt lat="48.32695" lon="-3.57804">
        <ele>146.2</ele>
        <time>2024-09-07T13:30:56Z</time>
      </trkpt>
      <trkpt lat="48.32702" lon="-3.57801">
        <ele>146.2</ele>
        <time>2024-09-07T13:30:57Z</time>
      </trkpt>
      <trkpt lat="48.32709" lon="-3.57799">
        <ele>146.2</ele>
        <time>2024-09-07T13:30:58Z</time>
      </trkpt>
      <trkpt lat="48.32716" lon="-3.57796">
        <ele>146</ele>
        <time>2024-09-07T13:30:59Z</time>
      </trkpt>
      <trkpt lat="48.32723" lon="-3.57794">
        <ele>146</ele>
        <time>2024-09-07T13:31:00Z</time>
      </trkpt>
      <trkpt lat="48.3273" lon="-3.57792">
        <ele>146</ele>
        <time>2024-09-07T13:31:01Z</time>
      </trkpt>
      <trkpt lat="48.32737" lon="-3.5779">
        <ele>146</ele>
        <time>2024-09-07T13:31:02Z</time>
      </trkpt>
      <trkpt lat="48.32744" lon="-3.57787">
        <ele>145.8</ele>
        <time>2024-09-07T13:31:03Z</time>
      </trkpt>
      <trkpt lat="48.3275" lon="-3.57784">
        <ele>145.8</ele>
        <time>2024-09-07T13:31:04Z</time>
      </trkpt>
      <trkpt lat="48.32757" lon="-3.57782">
        <ele>145.8</ele>
        <time>2024-09-07T13:31:05Z</time>
      </trkpt>
      <trkpt lat="48.32764" lon="-3.57779">
        <ele>145.8</ele>
        <time>2024-09-07T13:31:06Z</time>
      </trkpt>
      <trkpt lat="48.32771" lon="-3.57776">
        <ele>145.8</ele>
        <time>2024-09-07T13:31:07Z</time>
      </trkpt>
      <trkpt lat="48.32777" lon="-3.57773">
        <ele>145.8</ele>
        <time>2024-09-07T13:31:08Z</time>
      </trkpt>
      <trkpt lat="48.32784" lon="-3.5777">
        <ele>145.6</ele>
        <time>2024-09-07T13:31:09Z</time>
      </trkpt>
      <trkpt lat="48.3279" lon="-3.57766">
        <ele>145.6</ele>
        <time>2024-09-07T13:31:10Z</time>
      </trkpt>
      <trkpt lat="48.32796" lon="-3.57763">
        <ele>145.6</ele>
        <time>2024-09-07T13:31:11Z</time>
      </trkpt>
      <trkpt lat="48.32802" lon="-3.57759">
        <ele>145.6</ele>
        <time>2024-09-07T13:31:12Z</time>
      </trkpt>
      <trkpt lat="48.32808" lon="-3.57756">
        <ele>145.6</ele>
        <time>2024-09-07T13:31:13Z</time>
      </trkpt>
      <trkpt lat="48.32814" lon="-3.57752">
        <ele>145.6</ele>
        <time>2024-09-07T13:31:14Z</time>
      </trkpt>
      <trkpt lat="48.3282" lon="-3.57748">
        <ele>145.6</ele>
        <time>2024-09-07T13:31:15Z</time>
      </trkpt>
      <trkpt lat="48.32826" lon="-3.57745">
        <ele>145.6</ele>
        <time>2024-09-07T13:31:16Z</time>
      </trkpt>
      <trkpt lat="48.32832" lon="-3.57741">
        <ele>145.6</ele>
        <time>2024-09-07T13:31:17Z</time>
      </trkpt>
      <trkpt lat="48.32838" lon="-3.57737">
        <ele>145.6</ele>
        <time>2024-09-07T13:31:18Z</time>
      </trkpt>
      <trkpt lat="48.32844" lon="-3.57733">
        <ele>145.6</ele>
        <time>2024-09-07T13:31:19Z</time>
      </trkpt>
      <trkpt lat="48.3285" lon="-3.5773">
        <ele>145.6</ele>
        <time>2024-09-07T13:31:20Z</time>
      </trkpt>
      <trkpt lat="48.32855" lon="-3.57726">
        <ele>145.6</ele>
        <time>2024-09-07T13:31:21Z</time>
      </trkpt>
      <trkpt lat="48.32861" lon="-3.57722">
        <ele>145.6</ele>
        <time>2024-09-07T13:31:22Z</time>
      </trkpt>
      <trkpt lat="48.32866" lon="-3.57719">
        <ele>145.6</ele>
        <time>2024-09-07T13:31:23Z</time>
      </trkpt>
      <trkpt lat="48.32872" lon="-3.57715">
        <ele>145.8</ele>
        <time>2024-09-07T13:31:24Z</time>
      </trkpt>
      <trkpt lat="48.32878" lon="-3.57711">
        <ele>145.8</ele>
        <time>2024-09-07T13:31:25Z</time>
      </trkpt>
      <trkpt lat="48.32883" lon="-3.57708">
        <ele>145.8</ele>
        <time>2024-09-07T13:31:26Z</time>
      </trkpt>
      <trkpt lat="48.32888" lon="-3.57704">
        <ele>145.8</ele>
        <time>2024-09-07T13:31:27Z</time>
      </trkpt>
      <trkpt lat="48.32894" lon="-3.57701">
        <ele>145.8</ele>
        <time>2024-09-07T13:31:28Z</time>
      </trkpt>
      <trkpt lat="48.329" lon="-3.57697">
        <ele>145.8</ele>
        <time>2024-09-07T13:31:29Z</time>
      </trkpt>
      <trkpt lat="48.32905" lon="-3.57694">
        <ele>145.8</ele>
        <time>2024-09-07T13:31:30Z</time>
      </trkpt>
      <trkpt lat="48.3291" lon="-3.5769">
        <ele>145.8</ele>
        <time>2024-09-07T13:31:31Z</time>
      </trkpt>
      <trkpt lat="48.32916" lon="-3.57687">
        <ele>145.8</ele>
        <time>2024-09-07T13:31:32Z</time>
      </trkpt>
      <trkpt lat="48.32921" lon="-3.57683">
        <ele>146</ele>
        <time>2024-09-07T13:31:33Z</time>
      </trkpt>
      <trkpt lat="48.32927" lon="-3.5768">
        <ele>146</ele>
        <time>2024-09-07T13:31:34Z</time>
      </trkpt>
      <trkpt lat="48.32933" lon="-3.57677">
        <ele>146</ele>
        <time>2024-09-07T13:31:35Z</time>
      </trkpt>
      <trkpt lat="48.32938" lon="-3.57674">
        <ele>146</ele>
        <time>2024-09-07T13:31:36Z</time>
      </trkpt>
      <trkpt lat="48.32944" lon="-3.57672">
        <ele>146</ele>
        <time>2024-09-07T13:31:37Z</time>
      </trkpt>
      <trkpt lat="48.32949" lon="-3.57669">
        <ele>146.2</ele>
        <time>2024-09-07T13:31:38Z</time>
      </trkpt>
      <trkpt lat="48.32954" lon="-3.57667">
        <ele>146.2</ele>
        <time>2024-09-07T13:31:39Z</time>
      </trkpt>
      <trkpt lat="48.32959" lon="-3.57664">
        <ele>146.4</ele>
        <time>2024-09-07T13:31:40Z</time>
      </trkpt>
      <trkpt lat="48.32965" lon="-3.57661">
        <ele>146.4</ele>
        <time>2024-09-07T13:31:41Z</time>
      </trkpt>
      <trkpt lat="48.3297" lon="-3.57659">
        <ele>146.6</ele>
        <time>2024-09-07T13:31:42Z</time>
      </trkpt>
      <trkpt lat="48.32975" lon="-3.57657">
        <ele>146.6</ele>
        <time>2024-09-07T13:31:43Z</time>
      </trkpt>
      <trkpt lat="48.3298" lon="-3.57655">
        <ele>146.8</ele>
        <time>2024-09-07T13:31:44Z</time>
      </trkpt>
      <trkpt lat="48.32985" lon="-3.57653">
        <ele>147</ele>
        <time>2024-09-07T13:31:45Z</time>
      </trkpt>
      <trkpt lat="48.32991" lon="-3.5765">
        <ele>147.2</ele>
        <time>2024-09-07T13:31:46Z</time>
      </trkpt>
      <trkpt lat="48.32996" lon="-3.57648">
        <ele>147.4</ele>
        <time>2024-09-07T13:31:47Z</time>
      </trkpt>
      <trkpt lat="48.33001" lon="-3.57646">
        <ele>147.4</ele>
        <time>2024-09-07T13:31:48Z</time>
      </trkpt>
      <trkpt lat="48.33006" lon="-3.57644">
        <ele>147.6</ele>
        <time>2024-09-07T13:31:49Z</time>
      </trkpt>
      <trkpt lat="48.33011" lon="-3.57643">
        <ele>147.8</ele>
        <time>2024-09-07T13:31:50Z</time>
      </trkpt>
      <trkpt lat="48.33017" lon="-3.57641">
        <ele>147.8</ele>
        <time>2024-09-07T13:31:51Z</time>
      </trkpt>
      <trkpt lat="48.33022" lon="-3.57639">
        <ele>148</ele>
        <time>2024-09-07T13:31:52Z</time>
      </trkpt>
      <trkpt lat="48.33026" lon="-3.57637">
        <ele>148.2</ele>
        <time>2024-09-07T13:31:53Z</time>
      </trkpt>
      <trkpt lat="48.33031" lon="-3.57635">
        <ele>148.2</ele>
        <time>2024-09-07T13:31:54Z</time>
      </trkpt>
      <trkpt lat="48.33037" lon="-3.57633">
        <ele>148.4</ele>
        <time>2024-09-07T13:31:55Z</time>
      </trkpt>
      <trkpt lat="48.33042" lon="-3.57631">
        <ele>148.4</ele>
        <time>2024-09-07T13:31:56Z</time>
      </trkpt>
      <trkpt lat="48.33047" lon="-3.57629">
        <ele>148.6</ele>
        <time>2024-09-07T13:31:57Z</time>
      </trkpt>
      <trkpt lat="48.33052" lon="-3.57627">
        <ele>148.8</ele>
        <time>2024-09-07T13:31:58Z</time>
      </trkpt>
      <trkpt lat="48.33057" lon="-3.57626">
        <ele>148.8</ele>
        <time>2024-09-07T13:31:59Z</time>
      </trkpt>
      <trkpt lat="48.33062" lon="-3.57624">
        <ele>148.8</ele>
        <time>2024-09-07T13:32:00Z</time>
      </trkpt>
      <trkpt lat="48.33067" lon="-3.57623">
        <ele>149</ele>
        <time>2024-09-07T13:32:01Z</time>
      </trkpt>
      <trkpt lat="48.33072" lon="-3.57621">
        <ele>149.2</ele>
        <time>2024-09-07T13:32:02Z</time>
      </trkpt>
      <trkpt lat="48.33077" lon="-3.5762">
        <ele>149.4</ele>
        <time>2024-09-07T13:32:03Z</time>
      </trkpt>
      <trkpt lat="48.33082" lon="-3.57619">
        <ele>149.4</ele>
        <time>2024-09-07T13:32:04Z</time>
      </trkpt>
      <trkpt lat="48.33087" lon="-3.57617">
        <ele>149.6</ele>
        <time>2024-09-07T13:32:05Z</time>
      </trkpt>
      <trkpt lat="48.33092" lon="-3.57616">
        <ele>149.8</ele>
        <time>2024-09-07T13:32:06Z</time>
      </trkpt>
      <trkpt lat="48.33097" lon="-3.57615">
        <ele>149.8</ele>
        <time>2024-09-07T13:32:07Z</time>
      </trkpt>
      <trkpt lat="48.33102" lon="-3.57613">
        <ele>150</ele>
        <time>2024-09-07T13:32:08Z</time>
      </trkpt>
      <trkpt lat="48.33107" lon="-3.57612">
        <ele>150.2</ele>
        <time>2024-09-07T13:32:09Z</time>
      </trkpt>
      <trkpt lat="48.33112" lon="-3.5761">
        <ele>150.2</ele>
        <time>2024-09-07T13:32:10Z</time>
      </trkpt>
      <trkpt lat="48.33117" lon="-3.57608">
        <ele>150.4</ele>
        <time>2024-09-07T13:32:11Z</time>
      </trkpt>
      <trkpt lat="48.33122" lon="-3.57606">
        <ele>150.6</ele>
        <time>2024-09-07T13:32:12Z</time>
      </trkpt>
      <trkpt lat="48.33127" lon="-3.57605">
        <ele>150.8</ele>
        <time>2024-09-07T13:32:13Z</time>
      </trkpt>
      <trkpt lat="48.33132" lon="-3.57603">
        <ele>151.2</ele>
        <time>2024-09-07T13:32:14Z</time>
      </trkpt>
      <trkpt lat="48.33137" lon="-3.57601">
        <ele>151.4</ele>
        <time>2024-09-07T13:32:15Z</time>
      </trkpt>
      <trkpt lat="48.33142" lon="-3.576">
        <ele>151.6</ele>
        <time>2024-09-07T13:32:16Z</time>
      </trkpt>
      <trkpt lat="48.33147" lon="-3.57598">
        <ele>151.8</ele>
        <time>2024-09-07T13:32:17Z</time>
      </trkpt>
      <trkpt lat="48.33152" lon="-3.57596">
        <ele>152.2</ele>
        <time>2024-09-07T13:32:18Z</time>
      </trkpt>
      <trkpt lat="48.33157" lon="-3.57593">
        <ele>152.4</ele>
        <time>2024-09-07T13:32:19Z</time>
      </trkpt>
      <trkpt lat="48.33161" lon="-3.5759">
        <ele>152.6</ele>
        <time>2024-09-07T13:32:20Z</time>
      </trkpt>
      <trkpt lat="48.33166" lon="-3.57587">
        <ele>152.6</ele>
        <time>2024-09-07T13:32:21Z</time>
      </trkpt>
      <trkpt lat="48.3317" lon="-3.57585">
        <ele>153</ele>
        <time>2024-09-07T13:32:22Z</time>
      </trkpt>
      <trkpt lat="48.33175" lon="-3.57581">
        <ele>153.4</ele>
        <time>2024-09-07T13:32:23Z</time>
      </trkpt>
      <trkpt lat="48.3318" lon="-3.57578">
        <ele>153.6</ele>
        <time>2024-09-07T13:32:24Z</time>
      </trkpt>
      <trkpt lat="48.33184" lon="-3.57574">
        <ele>153.8</ele>
        <time>2024-09-07T13:32:25Z</time>
      </trkpt>
      <trkpt lat="48.33188" lon="-3.5757">
        <ele>153.8</ele>
        <time>2024-09-07T13:32:26Z</time>
      </trkpt>
      <trkpt lat="48.33193" lon="-3.57566">
        <ele>154.2</ele>
        <time>2024-09-07T13:32:27Z</time>
      </trkpt>
      <trkpt lat="48.33197" lon="-3.57562">
        <ele>154.4</ele>
        <time>2024-09-07T13:32:28Z</time>
      </trkpt>
      <trkpt lat="48.33202" lon="-3.57559">
        <ele>154.6</ele>
        <time>2024-09-07T13:32:29Z</time>
      </trkpt>
      <trkpt lat="48.33207" lon="-3.57554">
        <ele>155</ele>
        <time>2024-09-07T13:32:30Z</time>
      </trkpt>
      <trkpt lat="48.33212" lon="-3.5755">
        <ele>155.2</ele>
        <time>2024-09-07T13:32:31Z</time>
      </trkpt>
      <trkpt lat="48.33217" lon="-3.57545">
        <ele>155.6</ele>
        <time>2024-09-07T13:32:32Z</time>
      </trkpt>
      <trkpt lat="48.33222" lon="-3.5754">
        <ele>155.8</ele>
        <time>2024-09-07T13:32:33Z</time>
      </trkpt>
      <trkpt lat="48.33226" lon="-3.57536">
        <ele>156</ele>
        <time>2024-09-07T13:32:34Z</time>
      </trkpt>
      <trkpt lat="48.33231" lon="-3.57532">
        <ele>156.4</ele>
        <time>2024-09-07T13:32:35Z</time>
      </trkpt>
      <trkpt lat="48.33235" lon="-3.57527">
        <ele>156.6</ele>
        <time>2024-09-07T13:32:36Z</time>
      </trkpt>
      <trkpt lat="48.3324" lon="-3.57523">
        <ele>156.8</ele>
        <time>2024-09-07T13:32:37Z</time>
      </trkpt>
      <trkpt lat="48.33245" lon="-3.57519">
        <ele>157</ele>
        <time>2024-09-07T13:32:38Z</time>
      </trkpt>
      <trkpt lat="48.33249" lon="-3.57515">
        <ele>157</ele>
        <time>2024-09-07T13:32:39Z</time>
      </trkpt>
      <trkpt lat="48.33254" lon="-3.57511">
        <ele>157.4</ele>
        <time>2024-09-07T13:32:40Z</time>
      </trkpt>
      <trkpt lat="48.33258" lon="-3.57506">
        <ele>157.4</ele>
        <time>2024-09-07T13:32:41Z</time>
      </trkpt>
      <trkpt lat="48.33262" lon="-3.57502">
        <ele>157.6</ele>
        <time>2024-09-07T13:32:42Z</time>
      </trkpt>
      <trkpt lat="48.33267" lon="-3.57499">
        <ele>157.8</ele>
        <time>2024-09-07T13:32:43Z</time>
      </trkpt>
      <trkpt lat="48.33271" lon="-3.57496">
        <ele>158</ele>
        <time>2024-09-07T13:32:44Z</time>
      </trkpt>
      <trkpt lat="48.33275" lon="-3.57493">
        <ele>158.2</ele>
        <time>2024-09-07T13:32:45Z</time>
      </trkpt>
      <trkpt lat="48.3328" lon="-3.57489">
        <ele>158.2</ele>
        <time>2024-09-07T13:32:46Z</time>
      </trkpt>
      <trkpt lat="48.33284" lon="-3.57485">
        <ele>158.4</ele>
        <time>2024-09-07T13:32:47Z</time>
      </trkpt>
      <trkpt lat="48.33289" lon="-3.57481">
        <ele>158.6</ele>
        <time>2024-09-07T13:32:48Z</time>
      </trkpt>
      <trkpt lat="48.33293" lon="-3.57476">
        <ele>158.6</ele>
        <time>2024-09-07T13:32:49Z</time>
      </trkpt>
      <trkpt lat="48.33298" lon="-3.57472">
        <ele>158.8</ele>
        <time>2024-09-07T13:32:50Z</time>
      </trkpt>
      <trkpt lat="48.33302" lon="-3.57468">
        <ele>159.2</ele>
        <time>2024-09-07T13:32:51Z</time>
      </trkpt>
      <trkpt lat="48.33307" lon="-3.57464">
        <ele>159.4</ele>
        <time>2024-09-07T13:32:52Z</time>
      </trkpt>
      <trkpt lat="48.33312" lon="-3.57459">
        <ele>159.8</ele>
        <time>2024-09-07T13:32:53Z</time>
      </trkpt>
      <trkpt lat="48.33316" lon="-3.57455">
        <ele>160</ele>
        <time>2024-09-07T13:32:54Z</time>
      </trkpt>
      <trkpt lat="48.33321" lon="-3.5745">
        <ele>160.2</ele>
        <time>2024-09-07T13:32:55Z</time>
      </trkpt>
      <trkpt lat="48.33326" lon="-3.57446">
        <ele>160.2</ele>
        <time>2024-09-07T13:32:56Z</time>
      </trkpt>
      <trkpt lat="48.3333" lon="-3.57442">
        <ele>160.4</ele>
        <time>2024-09-07T13:32:57Z</time>
      </trkpt>
      <trkpt lat="48.33335" lon="-3.57438">
        <ele>160.6</ele>
        <time>2024-09-07T13:32:58Z</time>
      </trkpt>
      <trkpt lat="48.33339" lon="-3.57434">
        <ele>160.6</ele>
        <time>2024-09-07T13:32:59Z</time>
      </trkpt>
      <trkpt lat="48.33344" lon="-3.5743">
        <ele>160.6</ele>
        <time>2024-09-07T13:33:00Z</time>
      </trkpt>
      <trkpt lat="48.33349" lon="-3.57426">
        <ele>160.8</ele>
        <time>2024-09-07T13:33:01Z</time>
      </trkpt>
      <trkpt lat="48.33353" lon="-3.57422">
        <ele>161</ele>
        <time>2024-09-07T13:33:02Z</time>
      </trkpt>
      <trkpt lat="48.33358" lon="-3.57418">
        <ele>161</ele>
        <time>2024-09-07T13:33:03Z</time>
      </trkpt>
      <trkpt lat="48.33363" lon="-3.57414">
        <ele>161.2</ele>
        <time>2024-09-07T13:33:04Z</time>
      </trkpt>
      <trkpt lat="48.33367" lon="-3.5741">
        <ele>161.2</ele>
        <time>2024-09-07T13:33:05Z</time>
      </trkpt>
      <trkpt lat="48.33372" lon="-3.57405">
        <ele>161.4</ele>
        <time>2024-09-07T13:33:06Z</time>
      </trkpt>
      <trkpt lat="48.33377" lon="-3.57401">
        <ele>161.4</ele>
        <time>2024-09-07T13:33:07Z</time>
      </trkpt>
      <trkpt lat="48.33382" lon="-3.57397">
        <ele>161.6</ele>
        <time>2024-09-07T13:33:08Z</time>
      </trkpt>
      <trkpt lat="48.33386" lon="-3.57393">
        <ele>161.6</ele>
        <time>2024-09-07T13:33:09Z</time>
      </trkpt>
      <trkpt lat="48.33391" lon="-3.57389">
        <ele>161.8</ele>
        <time>2024-09-07T13:33:10Z</time>
      </trkpt>
      <trkpt lat="48.33396" lon="-3.57385">
        <ele>161.8</ele>
        <time>2024-09-07T13:33:11Z</time>
      </trkpt>
      <trkpt lat="48.33401" lon="-3.57381">
        <ele>161.8</ele>
        <time>2024-09-07T13:33:12Z</time>
      </trkpt>
      <trkpt lat="48.33406" lon="-3.57377">
        <ele>161.8</ele>
        <time>2024-09-07T13:33:13Z</time>
      </trkpt>
      <trkpt lat="48.33411" lon="-3.57372">
        <ele>161.8</ele>
        <time>2024-09-07T13:33:14Z</time>
      </trkpt>
      <trkpt lat="48.33415" lon="-3.57367">
        <ele>162</ele>
        <time>2024-09-07T13:33:15Z</time>
      </trkpt>
      <trkpt lat="48.3342" lon="-3.57362">
        <ele>162</ele>
        <time>2024-09-07T13:33:16Z</time>
      </trkpt>
      <trkpt lat="48.33424" lon="-3.57358">
        <ele>162</ele>
        <time>2024-09-07T13:33:17Z</time>
      </trkpt>
      <trkpt lat="48.33429" lon="-3.57354">
        <ele>162</ele>
        <time>2024-09-07T13:33:18Z</time>
      </trkpt>
      <trkpt lat="48.33433" lon="-3.5735">
        <ele>162</ele>
        <time>2024-09-07T13:33:19Z</time>
      </trkpt>
      <trkpt lat="48.33438" lon="-3.57346">
        <ele>162</ele>
        <time>2024-09-07T13:33:20Z</time>
      </trkpt>
      <trkpt lat="48.33443" lon="-3.57342">
        <ele>162</ele>
        <time>2024-09-07T13:33:21Z</time>
      </trkpt>
      <trkpt lat="48.33447" lon="-3.57339">
        <ele>162</ele>
        <time>2024-09-07T13:33:22Z</time>
      </trkpt>
      <trkpt lat="48.33451" lon="-3.57335">
        <ele>162.2</ele>
        <time>2024-09-07T13:33:23Z</time>
      </trkpt>
      <trkpt lat="48.33456" lon="-3.57331">
        <ele>162.2</ele>
        <time>2024-09-07T13:33:24Z</time>
      </trkpt>
      <trkpt lat="48.3346" lon="-3.57327">
        <ele>162.4</ele>
        <time>2024-09-07T13:33:25Z</time>
      </trkpt>
      <trkpt lat="48.33465" lon="-3.57323">
        <ele>162.6</ele>
        <time>2024-09-07T13:33:26Z</time>
      </trkpt>
      <trkpt lat="48.33469" lon="-3.57319">
        <ele>162.6</ele>
        <time>2024-09-07T13:33:27Z</time>
      </trkpt>
      <trkpt lat="48.33475" lon="-3.57315">
        <ele>162.8</ele>
        <time>2024-09-07T13:33:28Z</time>
      </trkpt>
      <trkpt lat="48.3348" lon="-3.57311">
        <ele>162.8</ele>
        <time>2024-09-07T13:33:29Z</time>
      </trkpt>
      <trkpt lat="48.33484" lon="-3.57307">
        <ele>162.8</ele>
        <time>2024-09-07T13:33:30Z</time>
      </trkpt>
      <trkpt lat="48.33489" lon="-3.57302">
        <ele>162.8</ele>
        <time>2024-09-07T13:33:31Z</time>
      </trkpt>
      <trkpt lat="48.33494" lon="-3.57298">
        <ele>162.8</ele>
        <time>2024-09-07T13:33:32Z</time>
      </trkpt>
      <trkpt lat="48.335" lon="-3.57293">
        <ele>162.8</ele>
        <time>2024-09-07T13:33:33Z</time>
      </trkpt>
      <trkpt lat="48.33505" lon="-3.57288">
        <ele>162.8</ele>
        <time>2024-09-07T13:33:34Z</time>
      </trkpt>
      <trkpt lat="48.3351" lon="-3.57283">
        <ele>162.8</ele>
        <time>2024-09-07T13:33:35Z</time>
      </trkpt>
      <trkpt lat="48.33516" lon="-3.57278">
        <ele>162.8</ele>
        <time>2024-09-07T13:33:36Z</time>
      </trkpt>
      <trkpt lat="48.33522" lon="-3.57273">
        <ele>162.8</ele>
        <time>2024-09-07T13:33:37Z</time>
      </trkpt>
      <trkpt lat="48.33527" lon="-3.57268">
        <ele>162.8</ele>
        <time>2024-09-07T13:33:38Z</time>
      </trkpt>
      <trkpt lat="48.33533" lon="-3.57263">
        <ele>162.8</ele>
        <time>2024-09-07T13:33:39Z</time>
      </trkpt>
      <trkpt lat="48.33539" lon="-3.57258">
        <ele>162.8</ele>
        <time>2024-09-07T13:33:40Z</time>
      </trkpt>
      <trkpt lat="48.33545" lon="-3.57252">
        <ele>162.6</ele>
        <time>2024-09-07T13:33:41Z</time>
      </trkpt>
      <trkpt lat="48.33552" lon="-3.57247">
        <ele>162.6</ele>
        <time>2024-09-07T13:33:42Z</time>
      </trkpt>
      <trkpt lat="48.33558" lon="-3.57243">
        <ele>162.2</ele>
        <time>2024-09-07T13:33:43Z</time>
      </trkpt>
      <trkpt lat="48.33565" lon="-3.57238">
        <ele>162</ele>
        <time>2024-09-07T13:33:44Z</time>
      </trkpt>
      <trkpt lat="48.33572" lon="-3.57233">
        <ele>161.8</ele>
        <time>2024-09-07T13:33:45Z</time>
      </trkpt>
      <trkpt lat="48.33579" lon="-3.57228">
        <ele>161.6</ele>
        <time>2024-09-07T13:33:46Z</time>
      </trkpt>
      <trkpt lat="48.33586" lon="-3.57224">
        <ele>161.4</ele>
        <time>2024-09-07T13:33:47Z</time>
      </trkpt>
      <trkpt lat="48.33593" lon="-3.5722">
        <ele>161</ele>
        <time>2024-09-07T13:33:48Z</time>
      </trkpt>
      <trkpt lat="48.336" lon="-3.57217">
        <ele>160.6</ele>
        <time>2024-09-07T13:33:49Z</time>
      </trkpt>
      <trkpt lat="48.33608" lon="-3.57215">
        <ele>160.4</ele>
        <time>2024-09-07T13:33:50Z</time>
      </trkpt>
      <trkpt lat="48.33615" lon="-3.57212">
        <ele>160.2</ele>
        <time>2024-09-07T13:33:51Z</time>
      </trkpt>
      <trkpt lat="48.33623" lon="-3.5721">
        <ele>160</ele>
        <time>2024-09-07T13:33:52Z</time>
      </trkpt>
      <trkpt lat="48.33631" lon="-3.57209">
        <ele>159.6</ele>
        <time>2024-09-07T13:33:53Z</time>
      </trkpt>
      <trkpt lat="48.33639" lon="-3.57208">
        <ele>159.4</ele>
        <time>2024-09-07T13:33:54Z</time>
      </trkpt>
      <trkpt lat="48.33647" lon="-3.57208">
        <ele>158.8</ele>
        <time>2024-09-07T13:33:55Z</time>
      </trkpt>
      <trkpt lat="48.33655" lon="-3.57208">
        <ele>158.6</ele>
        <time>2024-09-07T13:33:56Z</time>
      </trkpt>
      <trkpt lat="48.33662" lon="-3.57209">
        <ele>158.2</ele>
        <time>2024-09-07T13:33:57Z</time>
      </trkpt>
      <trkpt lat="48.3367" lon="-3.57211">
        <ele>158</ele>
        <time>2024-09-07T13:33:58Z</time>
      </trkpt>
      <trkpt lat="48.33678" lon="-3.57213">
        <ele>158</ele>
        <time>2024-09-07T13:33:59Z</time>
      </trkpt>
      <trkpt lat="48.33685" lon="-3.57216">
        <ele>157.8</ele>
        <time>2024-09-07T13:34:00Z</time>
      </trkpt>
      <trkpt lat="48.33692" lon="-3.57219">
        <ele>157.4</ele>
        <time>2024-09-07T13:34:01Z</time>
      </trkpt>
      <trkpt lat="48.33699" lon="-3.57222">
        <ele>157.2</ele>
        <time>2024-09-07T13:34:02Z</time>
      </trkpt>
      <trkpt lat="48.33706" lon="-3.57226">
        <ele>157</ele>
        <time>2024-09-07T13:34:03Z</time>
      </trkpt>
      <trkpt lat="48.33712" lon="-3.5723">
        <ele>157</ele>
        <time>2024-09-07T13:34:04Z</time>
      </trkpt>
      <trkpt lat="48.33719" lon="-3.57234">
        <ele>156.6</ele>
        <time>2024-09-07T13:34:05Z</time>
      </trkpt>
      <trkpt lat="48.33725" lon="-3.57239">
        <ele>156.4</ele>
        <time>2024-09-07T13:34:06Z</time>
      </trkpt>
      <trkpt lat="48.33732" lon="-3.57243">
        <ele>156.2</ele>
        <time>2024-09-07T13:34:07Z</time>
      </trkpt>
      <trkpt lat="48.33738" lon="-3.57247">
        <ele>156</ele>
        <time>2024-09-07T13:34:08Z</time>
      </trkpt>
      <trkpt lat="48.33745" lon="-3.57251">
        <ele>155.8</ele>
        <time>2024-09-07T13:34:09Z</time>
      </trkpt>
      <trkpt lat="48.33751" lon="-3.57254">
        <ele>155.8</ele>
        <time>2024-09-07T13:34:10Z</time>
      </trkpt>
      <trkpt lat="48.33758" lon="-3.57258">
        <ele>155.6</ele>
        <time>2024-09-07T13:34:11Z</time>
      </trkpt>
      <trkpt lat="48.33764" lon="-3.57261">
        <ele>155.4</ele>
        <time>2024-09-07T13:34:12Z</time>
      </trkpt>
      <trkpt lat="48.33771" lon="-3.57264">
        <ele>155.4</ele>
        <time>2024-09-07T13:34:13Z</time>
      </trkpt>
      <trkpt lat="48.33778" lon="-3.57266">
        <ele>155.2</ele>
        <time>2024-09-07T13:34:14Z</time>
      </trkpt>
      <trkpt lat="48.33784" lon="-3.57269">
        <ele>155.2</ele>
        <time>2024-09-07T13:34:15Z</time>
      </trkpt>
      <trkpt lat="48.33791" lon="-3.57271">
        <ele>155.2</ele>
        <time>2024-09-07T13:34:16Z</time>
      </trkpt>
      <trkpt lat="48.33798" lon="-3.57273">
        <ele>155.2</ele>
        <time>2024-09-07T13:34:17Z</time>
      </trkpt>
      <trkpt lat="48.33805" lon="-3.57274">
        <ele>155.2</ele>
        <time>2024-09-07T13:34:18Z</time>
      </trkpt>
      <trkpt lat="48.33812" lon="-3.57276">
        <ele>155.2</ele>
        <time>2024-09-07T13:34:19Z</time>
      </trkpt>
      <trkpt lat="48.33819" lon="-3.57278">
        <ele>155</ele>
        <time>2024-09-07T13:34:20Z</time>
      </trkpt>
      <trkpt lat="48.33826" lon="-3.57281">
        <ele>155</ele>
        <time>2024-09-07T13:34:21Z</time>
      </trkpt>
      <trkpt lat="48.33833" lon="-3.57283">
        <ele>155</ele>
        <time>2024-09-07T13:34:22Z</time>
      </trkpt>
      <trkpt lat="48.33841" lon="-3.57285">
        <ele>155</ele>
        <time>2024-09-07T13:34:23Z</time>
      </trkpt>
      <trkpt lat="48.33848" lon="-3.57287">
        <ele>155</ele>
        <time>2024-09-07T13:34:24Z</time>
      </trkpt>
      <trkpt lat="48.33856" lon="-3.57289">
        <ele>155</ele>
        <time>2024-09-07T13:34:25Z</time>
      </trkpt>
      <trkpt lat="48.33863" lon="-3.5729">
        <ele>155</ele>
        <time>2024-09-07T13:34:26Z</time>
      </trkpt>
      <trkpt lat="48.3387" lon="-3.57292">
        <ele>155</ele>
        <time>2024-09-07T13:34:27Z</time>
      </trkpt>
      <trkpt lat="48.33876" lon="-3.57293">
        <ele>154.8</ele>
        <time>2024-09-07T13:34:28Z</time>
      </trkpt>
      <trkpt lat="48.33883" lon="-3.57295">
        <ele>154.8</ele>
        <time>2024-09-07T13:34:29Z</time>
      </trkpt>
      <trkpt lat="48.33891" lon="-3.57297">
        <ele>154.6</ele>
        <time>2024-09-07T13:34:30Z</time>
      </trkpt>
      <trkpt lat="48.33898" lon="-3.57298">
        <ele>154.6</ele>
        <time>2024-09-07T13:34:31Z</time>
      </trkpt>
      <trkpt lat="48.33905" lon="-3.57299">
        <ele>154.2</ele>
        <time>2024-09-07T13:34:32Z</time>
      </trkpt>
      <trkpt lat="48.33911" lon="-3.57301">
        <ele>154.2</ele>
        <time>2024-09-07T13:34:33Z</time>
      </trkpt>
      <trkpt lat="48.33918" lon="-3.57302">
        <ele>154</ele>
        <time>2024-09-07T13:34:34Z</time>
      </trkpt>
      <trkpt lat="48.33925" lon="-3.57303">
        <ele>154</ele>
        <time>2024-09-07T13:34:35Z</time>
      </trkpt>
      <trkpt lat="48.33932" lon="-3.57305">
        <ele>154</ele>
        <time>2024-09-07T13:34:36Z</time>
      </trkpt>
      <trkpt lat="48.33938" lon="-3.57306">
        <ele>154</ele>
        <time>2024-09-07T13:34:37Z</time>
      </trkpt>
      <trkpt lat="48.33945" lon="-3.57307">
        <ele>154</ele>
        <time>2024-09-07T13:34:38Z</time>
      </trkpt>
      <trkpt lat="48.33952" lon="-3.57308">
        <ele>154</ele>
        <time>2024-09-07T13:34:39Z</time>
      </trkpt>
      <trkpt lat="48.33959" lon="-3.57309">
        <ele>154</ele>
        <time>2024-09-07T13:34:40Z</time>
      </trkpt>
      <trkpt lat="48.33966" lon="-3.57311">
        <ele>154</ele>
        <time>2024-09-07T13:34:41Z</time>
      </trkpt>
      <trkpt lat="48.33973" lon="-3.57312">
        <ele>154</ele>
        <time>2024-09-07T13:34:42Z</time>
      </trkpt>
      <trkpt lat="48.33979" lon="-3.57314">
        <ele>154</ele>
        <time>2024-09-07T13:34:43Z</time>
      </trkpt>
      <trkpt lat="48.33986" lon="-3.57316">
        <ele>154</ele>
        <time>2024-09-07T13:34:44Z</time>
      </trkpt>
      <trkpt lat="48.33992" lon="-3.57319">
        <ele>154</ele>
        <time>2024-09-07T13:34:45Z</time>
      </trkpt>
      <trkpt lat="48.33999" lon="-3.57322">
        <ele>154</ele>
        <time>2024-09-07T13:34:46Z</time>
      </trkpt>
      <trkpt lat="48.34005" lon="-3.57325">
        <ele>154.2</ele>
        <time>2024-09-07T13:34:47Z</time>
      </trkpt>
      <trkpt lat="48.34011" lon="-3.57329">
        <ele>154.2</ele>
        <time>2024-09-07T13:34:48Z</time>
      </trkpt>
      <trkpt lat="48.34016" lon="-3.57332">
        <ele>154.2</ele>
        <time>2024-09-07T13:34:49Z</time>
      </trkpt>
      <trkpt lat="48.34022" lon="-3.57335">
        <ele>154.2</ele>
        <time>2024-09-07T13:34:50Z</time>
      </trkpt>
      <trkpt lat="48.34028" lon="-3.57338">
        <ele>154.4</ele>
        <time>2024-09-07T13:34:51Z</time>
      </trkpt>
      <trkpt lat="48.34033" lon="-3.57341">
        <ele>154.4</ele>
        <time>2024-09-07T13:34:52Z</time>
      </trkpt>
      <trkpt lat="48.34038" lon="-3.57345">
        <ele>154.6</ele>
        <time>2024-09-07T13:34:53Z</time>
      </trkpt>
      <trkpt lat="48.34043" lon="-3.57348">
        <ele>154.6</ele>
        <time>2024-09-07T13:34:54Z</time>
      </trkpt>
      <trkpt lat="48.34048" lon="-3.57351">
        <ele>154.8</ele>
        <time>2024-09-07T13:34:55Z</time>
      </trkpt>
      <trkpt lat="48.34053" lon="-3.57354">
        <ele>154.8</ele>
        <time>2024-09-07T13:34:56Z</time>
      </trkpt>
      <trkpt lat="48.34058" lon="-3.57357">
        <ele>155</ele>
        <time>2024-09-07T13:34:57Z</time>
      </trkpt>
      <trkpt lat="48.34063" lon="-3.5736">
        <ele>155.2</ele>
        <time>2024-09-07T13:34:58Z</time>
      </trkpt>
      <trkpt lat="48.34068" lon="-3.57363">
        <ele>155.4</ele>
        <time>2024-09-07T13:34:59Z</time>
      </trkpt>
      <trkpt lat="48.34072" lon="-3.57365">
        <ele>155.8</ele>
        <time>2024-09-07T13:35:00Z</time>
      </trkpt>
      <trkpt lat="48.34077" lon="-3.57369">
        <ele>156</ele>
        <time>2024-09-07T13:35:01Z</time>
      </trkpt>
      <trkpt lat="48.34081" lon="-3.57372">
        <ele>156.4</ele>
        <time>2024-09-07T13:35:02Z</time>
      </trkpt>
      <trkpt lat="48.34086" lon="-3.57375">
        <ele>156.6</ele>
        <time>2024-09-07T13:35:03Z</time>
      </trkpt>
      <trkpt lat="48.3409" lon="-3.57379">
        <ele>156.8</ele>
        <time>2024-09-07T13:35:04Z</time>
      </trkpt>
      <trkpt lat="48.34094" lon="-3.57381">
        <ele>157.2</ele>
        <time>2024-09-07T13:35:05Z</time>
      </trkpt>
      <trkpt lat="48.34099" lon="-3.57384">
        <ele>157.6</ele>
        <time>2024-09-07T13:35:06Z</time>
      </trkpt>
      <trkpt lat="48.34104" lon="-3.57386">
        <ele>158.2</ele>
        <time>2024-09-07T13:35:07Z</time>
      </trkpt>
      <trkpt lat="48.34109" lon="-3.57389">
        <ele>158.2</ele>
        <time>2024-09-07T13:35:08Z</time>
      </trkpt>
      <trkpt lat="48.34113" lon="-3.57392">
        <ele>158.4</ele>
        <time>2024-09-07T13:35:09Z</time>
      </trkpt>
      <trkpt lat="48.34117" lon="-3.57395">
        <ele>158.8</ele>
        <time>2024-09-07T13:35:10Z</time>
      </trkpt>
      <trkpt lat="48.34122" lon="-3.57397">
        <ele>159.2</ele>
        <time>2024-09-07T13:35:11Z</time>
      </trkpt>
      <trkpt lat="48.34127" lon="-3.574">
        <ele>159.4</ele>
        <time>2024-09-07T13:35:12Z</time>
      </trkpt>
      <trkpt lat="48.34131" lon="-3.57402">
        <ele>159.6</ele>
        <time>2024-09-07T13:35:13Z</time>
      </trkpt>
      <trkpt lat="48.34136" lon="-3.57405">
        <ele>159.8</ele>
        <time>2024-09-07T13:35:14Z</time>
      </trkpt>
      <trkpt lat="48.34141" lon="-3.57407">
        <ele>160.2</ele>
        <time>2024-09-07T13:35:15Z</time>
      </trkpt>
      <trkpt lat="48.34146" lon="-3.5741">
        <ele>160.4</ele>
        <time>2024-09-07T13:35:16Z</time>
      </trkpt>
      <trkpt lat="48.3415" lon="-3.57412">
        <ele>160.8</ele>
        <time>2024-09-07T13:35:17Z</time>
      </trkpt>
      <trkpt lat="48.34155" lon="-3.57415">
        <ele>161</ele>
        <time>2024-09-07T13:35:18Z</time>
      </trkpt>
      <trkpt lat="48.3416" lon="-3.57417">
        <ele>161.2</ele>
        <time>2024-09-07T13:35:19Z</time>
      </trkpt>
      <trkpt lat="48.34164" lon="-3.5742">
        <ele>161.4</ele>
        <time>2024-09-07T13:35:20Z</time>
      </trkpt>
      <trkpt lat="48.34169" lon="-3.57422">
        <ele>161.8</ele>
        <time>2024-09-07T13:35:21Z</time>
      </trkpt>
      <trkpt lat="48.34173" lon="-3.57425">
        <ele>162</ele>
        <time>2024-09-07T13:35:22Z</time>
      </trkpt>
      <trkpt lat="48.34178" lon="-3.57427">
        <ele>162.2</ele>
        <time>2024-09-07T13:35:23Z</time>
      </trkpt>
      <trkpt lat="48.34183" lon="-3.57429">
        <ele>162.4</ele>
        <time>2024-09-07T13:35:24Z</time>
      </trkpt>
      <trkpt lat="48.34188" lon="-3.57431">
        <ele>162.6</ele>
        <time>2024-09-07T13:35:25Z</time>
      </trkpt>
      <trkpt lat="48.34193" lon="-3.57433">
        <ele>163</ele>
        <time>2024-09-07T13:35:26Z</time>
      </trkpt>
      <trkpt lat="48.34198" lon="-3.57435">
        <ele>163.2</ele>
        <time>2024-09-07T13:35:27Z</time>
      </trkpt>
      <trkpt lat="48.34203" lon="-3.57437">
        <ele>163.4</ele>
        <time>2024-09-07T13:35:28Z</time>
      </trkpt>
      <trkpt lat="48.34208" lon="-3.57439">
        <ele>163.4</ele>
        <time>2024-09-07T13:35:29Z</time>
      </trkpt>
      <trkpt lat="48.34214" lon="-3.5744">
        <ele>163.6</ele>
        <time>2024-09-07T13:35:30Z</time>
      </trkpt>
      <trkpt lat="48.3422" lon="-3.57442">
        <ele>163.6</ele>
        <time>2024-09-07T13:35:31Z</time>
      </trkpt>
      <trkpt lat="48.34225" lon="-3.57443">
        <ele>163.8</ele>
        <time>2024-09-07T13:35:32Z</time>
      </trkpt>
      <trkpt lat="48.3423" lon="-3.57444">
        <ele>163.8</ele>
        <time>2024-09-07T13:35:33Z</time>
      </trkpt>
      <trkpt lat="48.34236" lon="-3.57446">
        <ele>164</ele>
        <time>2024-09-07T13:35:34Z</time>
      </trkpt>
      <trkpt lat="48.34241" lon="-3.57447">
        <ele>164</ele>
        <time>2024-09-07T13:35:35Z</time>
      </trkpt>
      <trkpt lat="48.34246" lon="-3.57448">
        <ele>164</ele>
        <time>2024-09-07T13:35:36Z</time>
      </trkpt>
      <trkpt lat="48.34251" lon="-3.5745">
        <ele>164.2</ele>
        <time>2024-09-07T13:35:37Z</time>
      </trkpt>
      <trkpt lat="48.34256" lon="-3.57451">
        <ele>164.2</ele>
        <time>2024-09-07T13:35:38Z</time>
      </trkpt>
      <trkpt lat="48.34261" lon="-3.57453">
        <ele>164.2</ele>
        <time>2024-09-07T13:35:39Z</time>
      </trkpt>
      <trkpt lat="48.34266" lon="-3.57454">
        <ele>164.2</ele>
        <time>2024-09-07T13:35:40Z</time>
      </trkpt>
      <trkpt lat="48.34271" lon="-3.57456">
        <ele>164.2</ele>
        <time>2024-09-07T13:35:41Z</time>
      </trkpt>
      <trkpt lat="48.34276" lon="-3.57457">
        <ele>164.4</ele>
        <time>2024-09-07T13:35:42Z</time>
      </trkpt>
      <trkpt lat="48.34281" lon="-3.57458">
        <ele>164.6</ele>
        <time>2024-09-07T13:35:43Z</time>
      </trkpt>
      <trkpt lat="48.34286" lon="-3.5746">
        <ele>164.6</ele>
        <time>2024-09-07T13:35:44Z</time>
      </trkpt>
      <trkpt lat="48.34291" lon="-3.57461">
        <ele>165</ele>
        <time>2024-09-07T13:35:45Z</time>
      </trkpt>
      <trkpt lat="48.34296" lon="-3.57462">
        <ele>165.2</ele>
        <time>2024-09-07T13:35:46Z</time>
      </trkpt>
      <trkpt lat="48.34301" lon="-3.57464">
        <ele>165.4</ele>
        <time>2024-09-07T13:35:47Z</time>
      </trkpt>
      <trkpt lat="48.34307" lon="-3.57466">
        <ele>165.6</ele>
        <time>2024-09-07T13:35:48Z</time>
      </trkpt>
      <trkpt lat="48.34312" lon="-3.57468">
        <ele>165.6</ele>
        <time>2024-09-07T13:35:49Z</time>
      </trkpt>
      <trkpt lat="48.34317" lon="-3.5747">
        <ele>165.8</ele>
        <time>2024-09-07T13:35:50Z</time>
      </trkpt>
      <trkpt lat="48.34322" lon="-3.57472">
        <ele>166</ele>
        <time>2024-09-07T13:35:51Z</time>
      </trkpt>
      <trkpt lat="48.34327" lon="-3.57473">
        <ele>166.2</ele>
        <time>2024-09-07T13:35:52Z</time>
      </trkpt>
      <trkpt lat="48.34332" lon="-3.57476">
        <ele>166.4</ele>
        <time>2024-09-07T13:35:53Z</time>
      </trkpt>
      <trkpt lat="48.34337" lon="-3.57478">
        <ele>166.4</ele>
        <time>2024-09-07T13:35:54Z</time>
      </trkpt>
      <trkpt lat="48.34342" lon="-3.57481">
        <ele>166.4</ele>
        <time>2024-09-07T13:35:55Z</time>
      </trkpt>
      <trkpt lat="48.34347" lon="-3.57484">
        <ele>166.4</ele>
        <time>2024-09-07T13:35:56Z</time>
      </trkpt>
      <trkpt lat="48.34352" lon="-3.57487">
        <ele>166.4</ele>
        <time>2024-09-07T13:35:57Z</time>
      </trkpt>
      <trkpt lat="48.34357" lon="-3.57489">
        <ele>166.4</ele>
        <time>2024-09-07T13:35:58Z</time>
      </trkpt>
      <trkpt lat="48.34362" lon="-3.57492">
        <ele>166.4</ele>
        <time>2024-09-07T13:35:59Z</time>
      </trkpt>
      <trkpt lat="48.34367" lon="-3.57495">
        <ele>166.4</ele>
        <time>2024-09-07T13:36:00Z</time>
      </trkpt>
      <trkpt lat="48.34372" lon="-3.57498">
        <ele>166.4</ele>
        <time>2024-09-07T13:36:01Z</time>
      </trkpt>
      <trkpt lat="48.34377" lon="-3.57501">
        <ele>166.4</ele>
        <time>2024-09-07T13:36:02Z</time>
      </trkpt>
      <trkpt lat="48.34382" lon="-3.57504">
        <ele>166.4</ele>
        <time>2024-09-07T13:36:03Z</time>
      </trkpt>
      <trkpt lat="48.34388" lon="-3.57507">
        <ele>166.4</ele>
        <time>2024-09-07T13:36:04Z</time>
      </trkpt>
      <trkpt lat="48.34393" lon="-3.5751">
        <ele>166.4</ele>
        <time>2024-09-07T13:36:05Z</time>
      </trkpt>
      <trkpt lat="48.34398" lon="-3.57513">
        <ele>166.4</ele>
        <time>2024-09-07T13:36:06Z</time>
      </trkpt>
      <trkpt lat="48.34403" lon="-3.57516">
        <ele>166.4</ele>
        <time>2024-09-07T13:36:07Z</time>
      </trkpt>
      <trkpt lat="48.34409" lon="-3.57519">
        <ele>166.4</ele>
        <time>2024-09-07T13:36:08Z</time>
      </trkpt>
      <trkpt lat="48.34414" lon="-3.57522">
        <ele>166.4</ele>
        <time>2024-09-07T13:36:09Z</time>
      </trkpt>
      <trkpt lat="48.34419" lon="-3.57525">
        <ele>166.4</ele>
        <time>2024-09-07T13:36:10Z</time>
      </trkpt>
      <trkpt lat="48.34424" lon="-3.57528">
        <ele>166.4</ele>
        <time>2024-09-07T13:36:11Z</time>
      </trkpt>
      <trkpt lat="48.34429" lon="-3.57531">
        <ele>166.4</ele>
        <time>2024-09-07T13:36:12Z</time>
      </trkpt>
      <trkpt lat="48.34434" lon="-3.57534">
        <ele>166.4</ele>
        <time>2024-09-07T13:36:13Z</time>
      </trkpt>
      <trkpt lat="48.34439" lon="-3.57538">
        <ele>166.4</ele>
        <time>2024-09-07T13:36:14Z</time>
      </trkpt>
      <trkpt lat="48.34444" lon="-3.57542">
        <ele>166.4</ele>
        <time>2024-09-07T13:36:15Z</time>
      </trkpt>
      <trkpt lat="48.34449" lon="-3.57547">
        <ele>166.4</ele>
        <time>2024-09-07T13:36:16Z</time>
      </trkpt>
      <trkpt lat="48.34454" lon="-3.57551">
        <ele>166.4</ele>
        <time>2024-09-07T13:36:17Z</time>
      </trkpt>
      <trkpt lat="48.34458" lon="-3.57556">
        <ele>166.4</ele>
        <time>2024-09-07T13:36:18Z</time>
      </trkpt>
      <trkpt lat="48.34463" lon="-3.57562">
        <ele>166.4</ele>
        <time>2024-09-07T13:36:19Z</time>
      </trkpt>
      <trkpt lat="48.34467" lon="-3.57567">
        <ele>166.4</ele>
        <time>2024-09-07T13:36:20Z</time>
      </trkpt>
      <trkpt lat="48.34471" lon="-3.57573">
        <ele>166.6</ele>
        <time>2024-09-07T13:36:21Z</time>
      </trkpt>
      <trkpt lat="48.34475" lon="-3.57578">
        <ele>166.8</ele>
        <time>2024-09-07T13:36:22Z</time>
      </trkpt>
      <trkpt lat="48.34479" lon="-3.57584">
        <ele>166.8</ele>
        <time>2024-09-07T13:36:23Z</time>
      </trkpt>
      <trkpt lat="48.34483" lon="-3.5759">
        <ele>166.8</ele>
        <time>2024-09-07T13:36:24Z</time>
      </trkpt>
      <trkpt lat="48.34487" lon="-3.57596">
        <ele>166.8</ele>
        <time>2024-09-07T13:36:25Z</time>
      </trkpt>
      <trkpt lat="48.34491" lon="-3.57603">
        <ele>166.8</ele>
        <time>2024-09-07T13:36:26Z</time>
      </trkpt>
      <trkpt lat="48.34495" lon="-3.57609">
        <ele>167</ele>
        <time>2024-09-07T13:36:27Z</time>
      </trkpt>
      <trkpt lat="48.34499" lon="-3.57615">
        <ele>167</ele>
        <time>2024-09-07T13:36:28Z</time>
      </trkpt>
      <trkpt lat="48.34503" lon="-3.57621">
        <ele>167</ele>
        <time>2024-09-07T13:36:29Z</time>
      </trkpt>
      <trkpt lat="48.34507" lon="-3.57626">
        <ele>167</ele>
        <time>2024-09-07T13:36:30Z</time>
      </trkpt>
      <trkpt lat="48.34512" lon="-3.57631">
        <ele>167.2</ele>
        <time>2024-09-07T13:36:31Z</time>
      </trkpt>
      <trkpt lat="48.34516" lon="-3.57636">
        <ele>167.2</ele>
        <time>2024-09-07T13:36:32Z</time>
      </trkpt>
      <trkpt lat="48.34521" lon="-3.5764">
        <ele>167.2</ele>
        <time>2024-09-07T13:36:33Z</time>
      </trkpt>
      <trkpt lat="48.34526" lon="-3.57644">
        <ele>167.4</ele>
        <time>2024-09-07T13:36:34Z</time>
      </trkpt>
      <trkpt lat="48.3453" lon="-3.57647">
        <ele>167.4</ele>
        <time>2024-09-07T13:36:35Z</time>
      </trkpt>
      <trkpt lat="48.34535" lon="-3.5765">
        <ele>167.6</ele>
        <time>2024-09-07T13:36:36Z</time>
      </trkpt>
      <trkpt lat="48.34539" lon="-3.57653">
        <ele>167.6</ele>
        <time>2024-09-07T13:36:37Z</time>
      </trkpt>
      <trkpt lat="48.34544" lon="-3.57655">
        <ele>167.8</ele>
        <time>2024-09-07T13:36:38Z</time>
      </trkpt>
      <trkpt lat="48.34548" lon="-3.57656">
        <ele>167.8</ele>
        <time>2024-09-07T13:36:39Z</time>
      </trkpt>
      <trkpt lat="48.34553" lon="-3.57658">
        <ele>167.8</ele>
        <time>2024-09-07T13:36:40Z</time>
      </trkpt>
      <trkpt lat="48.34558" lon="-3.57659">
        <ele>168</ele>
        <time>2024-09-07T13:36:41Z</time>
      </trkpt>
      <trkpt lat="48.34563" lon="-3.5766">
        <ele>168.2</ele>
        <time>2024-09-07T13:36:42Z</time>
      </trkpt>
      <trkpt lat="48.34568" lon="-3.57661">
        <ele>168.4</ele>
        <time>2024-09-07T13:36:43Z</time>
      </trkpt>
      <trkpt lat="48.34573" lon="-3.57662">
        <ele>168.6</ele>
        <time>2024-09-07T13:36:44Z</time>
      </trkpt>
      <trkpt lat="48.34578" lon="-3.57663">
        <ele>168.8</ele>
        <time>2024-09-07T13:36:45Z</time>
      </trkpt>
      <trkpt lat="48.34583" lon="-3.57664">
        <ele>169</ele>
        <time>2024-09-07T13:36:46Z</time>
      </trkpt>
      <trkpt lat="48.34588" lon="-3.57665">
        <ele>169.2</ele>
        <time>2024-09-07T13:36:47Z</time>
      </trkpt>
      <trkpt lat="48.34593" lon="-3.57665">
        <ele>169.4</ele>
        <time>2024-09-07T13:36:48Z</time>
      </trkpt>
      <trkpt lat="48.34598" lon="-3.57666">
        <ele>169.6</ele>
        <time>2024-09-07T13:36:49Z</time>
      </trkpt>
      <trkpt lat="48.34603" lon="-3.57666">
        <ele>169.8</ele>
        <time>2024-09-07T13:36:50Z</time>
      </trkpt>
      <trkpt lat="48.34608" lon="-3.57667">
        <ele>169.8</ele>
        <time>2024-09-07T13:36:51Z</time>
      </trkpt>
      <trkpt lat="48.34612" lon="-3.57667">
        <ele>170</ele>
        <time>2024-09-07T13:36:52Z</time>
      </trkpt>
      <trkpt lat="48.34617" lon="-3.57668">
        <ele>170.2</ele>
        <time>2024-09-07T13:36:53Z</time>
      </trkpt>
      <trkpt lat="48.34622" lon="-3.57668">
        <ele>170.4</ele>
        <time>2024-09-07T13:36:54Z</time>
      </trkpt>
      <trkpt lat="48.34626" lon="-3.57669">
        <ele>170.4</ele>
        <time>2024-09-07T13:36:55Z</time>
      </trkpt>
      <trkpt lat="48.3463" lon="-3.5767">
        <ele>170.6</ele>
        <time>2024-09-07T13:36:56Z</time>
      </trkpt>
      <trkpt lat="48.34635" lon="-3.57671">
        <ele>170.8</ele>
        <time>2024-09-07T13:36:57Z</time>
      </trkpt>
      <trkpt lat="48.34639" lon="-3.57671">
        <ele>171</ele>
        <time>2024-09-07T13:36:58Z</time>
      </trkpt>
      <trkpt lat="48.34643" lon="-3.57672">
        <ele>171.2</ele>
        <time>2024-09-07T13:36:59Z</time>
      </trkpt>
      <trkpt lat="48.34648" lon="-3.57672">
        <ele>171.4</ele>
        <time>2024-09-07T13:37:00Z</time>
      </trkpt>
      <trkpt lat="48.34652" lon="-3.57672">
        <ele>171.4</ele>
        <time>2024-09-07T13:37:01Z</time>
      </trkpt>
      <trkpt lat="48.34657" lon="-3.57673">
        <ele>171.4</ele>
        <time>2024-09-07T13:37:02Z</time>
      </trkpt>
      <trkpt lat="48.34662" lon="-3.57674">
        <ele>171.6</ele>
        <time>2024-09-07T13:37:03Z</time>
      </trkpt>
      <trkpt lat="48.34666" lon="-3.57675">
        <ele>171.8</ele>
        <time>2024-09-07T13:37:04Z</time>
      </trkpt>
      <trkpt lat="48.34671" lon="-3.57676">
        <ele>172</ele>
        <time>2024-09-07T13:37:05Z</time>
      </trkpt>
      <trkpt lat="48.34676" lon="-3.57677">
        <ele>172.4</ele>
        <time>2024-09-07T13:37:06Z</time>
      </trkpt>
      <trkpt lat="48.3468" lon="-3.57677">
        <ele>172.6</ele>
        <time>2024-09-07T13:37:07Z</time>
      </trkpt>
      <trkpt lat="48.34685" lon="-3.57678">
        <ele>172.8</ele>
        <time>2024-09-07T13:37:08Z</time>
      </trkpt>
      <trkpt lat="48.3469" lon="-3.57679">
        <ele>173.2</ele>
        <time>2024-09-07T13:37:09Z</time>
      </trkpt>
      <trkpt lat="48.34694" lon="-3.57681">
        <ele>173.6</ele>
        <time>2024-09-07T13:37:10Z</time>
      </trkpt>
      <trkpt lat="48.34699" lon="-3.57682">
        <ele>173.8</ele>
        <time>2024-09-07T13:37:11Z</time>
      </trkpt>
      <trkpt lat="48.34704" lon="-3.57683">
        <ele>174.2</ele>
        <time>2024-09-07T13:37:12Z</time>
      </trkpt>
      <trkpt lat="48.34709" lon="-3.57685">
        <ele>174.4</ele>
        <time>2024-09-07T13:37:13Z</time>
      </trkpt>
      <trkpt lat="48.34714" lon="-3.57686">
        <ele>174.8</ele>
        <time>2024-09-07T13:37:14Z</time>
      </trkpt>
      <trkpt lat="48.34719" lon="-3.57688">
        <ele>175</ele>
        <time>2024-09-07T13:37:15Z</time>
      </trkpt>
      <trkpt lat="48.34724" lon="-3.5769">
        <ele>175.2</ele>
        <time>2024-09-07T13:37:16Z</time>
      </trkpt>
      <trkpt lat="48.34728" lon="-3.57691">
        <ele>175.6</ele>
        <time>2024-09-07T13:37:17Z</time>
      </trkpt>
      <trkpt lat="48.34733" lon="-3.57693">
        <ele>175.8</ele>
        <time>2024-09-07T13:37:18Z</time>
      </trkpt>
      <trkpt lat="48.34737" lon="-3.57695">
        <ele>176</ele>
        <time>2024-09-07T13:37:19Z</time>
      </trkpt>
      <trkpt lat="48.34741" lon="-3.57697">
        <ele>176.2</ele>
        <time>2024-09-07T13:37:20Z</time>
      </trkpt>
      <trkpt lat="48.34746" lon="-3.57699">
        <ele>176.4</ele>
        <time>2024-09-07T13:37:21Z</time>
      </trkpt>
      <trkpt lat="48.3475" lon="-3.57702">
        <ele>176.6</ele>
        <time>2024-09-07T13:37:22Z</time>
      </trkpt>
      <trkpt lat="48.34755" lon="-3.57704">
        <ele>176.8</ele>
        <time>2024-09-07T13:37:23Z</time>
      </trkpt>
      <trkpt lat="48.34759" lon="-3.57706">
        <ele>176.8</ele>
        <time>2024-09-07T13:37:24Z</time>
      </trkpt>
      <trkpt lat="48.34764" lon="-3.57708">
        <ele>177</ele>
        <time>2024-09-07T13:37:25Z</time>
      </trkpt>
      <trkpt lat="48.34769" lon="-3.57711">
        <ele>177</ele>
        <time>2024-09-07T13:37:26Z</time>
      </trkpt>
      <trkpt lat="48.34774" lon="-3.57713">
        <ele>177.2</ele>
        <time>2024-09-07T13:37:27Z</time>
      </trkpt>
      <trkpt lat="48.34779" lon="-3.57716">
        <ele>177.2</ele>
        <time>2024-09-07T13:37:28Z</time>
      </trkpt>
      <trkpt lat="48.34784" lon="-3.57718">
        <ele>177.2</ele>
        <time>2024-09-07T13:37:29Z</time>
      </trkpt>
      <trkpt lat="48.34789" lon="-3.57721">
        <ele>177.2</ele>
        <time>2024-09-07T13:37:30Z</time>
      </trkpt>
      <trkpt lat="48.34794" lon="-3.57723">
        <ele>177.2</ele>
        <time>2024-09-07T13:37:31Z</time>
      </trkpt>
      <trkpt lat="48.34799" lon="-3.57725">
        <ele>177.2</ele>
        <time>2024-09-07T13:37:32Z</time>
      </trkpt>
      <trkpt lat="48.34804" lon="-3.57727">
        <ele>177.2</ele>
        <time>2024-09-07T13:37:33Z</time>
      </trkpt>
      <trkpt lat="48.34809" lon="-3.5773">
        <ele>177.2</ele>
        <time>2024-09-07T13:37:34Z</time>
      </trkpt>
      <trkpt lat="48.34815" lon="-3.57732">
        <ele>177.2</ele>
        <time>2024-09-07T13:37:35Z</time>
      </trkpt>
      <trkpt lat="48.34821" lon="-3.57735">
        <ele>177.2</ele>
        <time>2024-09-07T13:37:36Z</time>
      </trkpt>
      <trkpt lat="48.34827" lon="-3.57737">
        <ele>177</ele>
        <time>2024-09-07T13:37:37Z</time>
      </trkpt>
      <trkpt lat="48.34834" lon="-3.5774">
        <ele>176.8</ele>
        <time>2024-09-07T13:37:38Z</time>
      </trkpt>
      <trkpt lat="48.3484" lon="-3.57742">
        <ele>176.6</ele>
        <time>2024-09-07T13:37:39Z</time>
      </trkpt>
      <trkpt lat="48.34846" lon="-3.57744">
        <ele>176.6</ele>
        <time>2024-09-07T13:37:40Z</time>
      </trkpt>
      <trkpt lat="48.34853" lon="-3.57746">
        <ele>176.4</ele>
        <time>2024-09-07T13:37:41Z</time>
      </trkpt>
      <trkpt lat="48.34859" lon="-3.57748">
        <ele>176.2</ele>
        <time>2024-09-07T13:37:42Z</time>
      </trkpt>
      <trkpt lat="48.34865" lon="-3.5775">
        <ele>176</ele>
        <time>2024-09-07T13:37:43Z</time>
      </trkpt>
      <trkpt lat="48.34872" lon="-3.57752">
        <ele>175.8</ele>
        <time>2024-09-07T13:37:44Z</time>
      </trkpt>
      <trkpt lat="48.34878" lon="-3.57753">
        <ele>175.6</ele>
        <time>2024-09-07T13:37:45Z</time>
      </trkpt>
      <trkpt lat="48.34884" lon="-3.57755">
        <ele>175.2</ele>
        <time>2024-09-07T13:37:46Z</time>
      </trkpt>
      <trkpt lat="48.3489" lon="-3.57757">
        <ele>175.2</ele>
        <time>2024-09-07T13:37:47Z</time>
      </trkpt>
      <trkpt lat="48.34896" lon="-3.57759">
        <ele>175</ele>
        <time>2024-09-07T13:37:48Z</time>
      </trkpt>
      <trkpt lat="48.34902" lon="-3.57761">
        <ele>174.8</ele>
        <time>2024-09-07T13:37:49Z</time>
      </trkpt>
      <trkpt lat="48.34908" lon="-3.57762">
        <ele>174.6</ele>
        <time>2024-09-07T13:37:50Z</time>
      </trkpt>
      <trkpt lat="48.34914" lon="-3.57763">
        <ele>174.4</ele>
        <time>2024-09-07T13:37:51Z</time>
      </trkpt>
      <trkpt lat="48.3492" lon="-3.57765">
        <ele>174.4</ele>
        <time>2024-09-07T13:37:52Z</time>
      </trkpt>
      <trkpt lat="48.34926" lon="-3.57766">
        <ele>174.4</ele>
        <time>2024-09-07T13:37:53Z</time>
      </trkpt>
      <trkpt lat="48.34931" lon="-3.57768">
        <ele>174.2</ele>
        <time>2024-09-07T13:37:54Z</time>
      </trkpt>
      <trkpt lat="48.34937" lon="-3.57768">
        <ele>174.2</ele>
        <time>2024-09-07T13:37:55Z</time>
      </trkpt>
      <trkpt lat="48.34943" lon="-3.57769">
        <ele>174.2</ele>
        <time>2024-09-07T13:37:56Z</time>
      </trkpt>
      <trkpt lat="48.34949" lon="-3.5777">
        <ele>174.2</ele>
        <time>2024-09-07T13:37:57Z</time>
      </trkpt>
      <trkpt lat="48.34955" lon="-3.5777">
        <ele>174.2</ele>
        <time>2024-09-07T13:37:58Z</time>
      </trkpt>
      <trkpt lat="48.3496" lon="-3.57771">
        <ele>174.2</ele>
        <time>2024-09-07T13:37:59Z</time>
      </trkpt>
      <trkpt lat="48.34966" lon="-3.57772">
        <ele>174.2</ele>
        <time>2024-09-07T13:38:00Z</time>
      </trkpt>
      <trkpt lat="48.34972" lon="-3.57773">
        <ele>174.2</ele>
        <time>2024-09-07T13:38:01Z</time>
      </trkpt>
      <trkpt lat="48.34977" lon="-3.57773">
        <ele>174.2</ele>
        <time>2024-09-07T13:38:02Z</time>
      </trkpt>
      <trkpt lat="48.34983" lon="-3.57773">
        <ele>174.4</ele>
        <time>2024-09-07T13:38:03Z</time>
      </trkpt>
      <trkpt lat="48.34988" lon="-3.57774">
        <ele>174.4</ele>
        <time>2024-09-07T13:38:04Z</time>
      </trkpt>
      <trkpt lat="48.34994" lon="-3.57775">
        <ele>174.4</ele>
        <time>2024-09-07T13:38:05Z</time>
      </trkpt>
      <trkpt lat="48.34999" lon="-3.57776">
        <ele>174.6</ele>
        <time>2024-09-07T13:38:06Z</time>
      </trkpt>
      <trkpt lat="48.35004" lon="-3.57777">
        <ele>174.6</ele>
        <time>2024-09-07T13:38:07Z</time>
      </trkpt>
      <trkpt lat="48.3501" lon="-3.57778">
        <ele>174.8</ele>
        <time>2024-09-07T13:38:08Z</time>
      </trkpt>
      <trkpt lat="48.35015" lon="-3.57779">
        <ele>174.8</ele>
        <time>2024-09-07T13:38:09Z</time>
      </trkpt>
      <trkpt lat="48.35021" lon="-3.57779">
        <ele>174.8</ele>
        <time>2024-09-07T13:38:10Z</time>
      </trkpt>
      <trkpt lat="48.35027" lon="-3.57779">
        <ele>174.8</ele>
        <time>2024-09-07T13:38:11Z</time>
      </trkpt>
      <trkpt lat="48.35033" lon="-3.57779">
        <ele>174.8</ele>
        <time>2024-09-07T13:38:12Z</time>
      </trkpt>
      <trkpt lat="48.35039" lon="-3.57779">
        <ele>174.8</ele>
        <time>2024-09-07T13:38:13Z</time>
      </trkpt>
      <trkpt lat="48.35045" lon="-3.57778">
        <ele>174.8</ele>
        <time>2024-09-07T13:38:14Z</time>
      </trkpt>
      <trkpt lat="48.35051" lon="-3.57777">
        <ele>174.8</ele>
        <time>2024-09-07T13:38:15Z</time>
      </trkpt>
      <trkpt lat="48.35057" lon="-3.57776">
        <ele>174.8</ele>
        <time>2024-09-07T13:38:16Z</time>
      </trkpt>
      <trkpt lat="48.35062" lon="-3.57775">
        <ele>174.8</ele>
        <time>2024-09-07T13:38:17Z</time>
      </trkpt>
      <trkpt lat="48.35068" lon="-3.57773">
        <ele>174.8</ele>
        <time>2024-09-07T13:38:18Z</time>
      </trkpt>
      <trkpt lat="48.35074" lon="-3.57771">
        <ele>174.8</ele>
        <time>2024-09-07T13:38:19Z</time>
      </trkpt>
      <trkpt lat="48.3508" lon="-3.5777">
        <ele>174.8</ele>
        <time>2024-09-07T13:38:20Z</time>
      </trkpt>
      <trkpt lat="48.35086" lon="-3.57768">
        <ele>174.8</ele>
        <time>2024-09-07T13:38:21Z</time>
      </trkpt>
      <trkpt lat="48.35092" lon="-3.57766">
        <ele>174.8</ele>
        <time>2024-09-07T13:38:22Z</time>
      </trkpt>
      <trkpt lat="48.35097" lon="-3.57764">
        <ele>174.6</ele>
        <time>2024-09-07T13:38:23Z</time>
      </trkpt>
      <trkpt lat="48.35103" lon="-3.57762">
        <ele>174.6</ele>
        <time>2024-09-07T13:38:24Z</time>
      </trkpt>
      <trkpt lat="48.35108" lon="-3.5776">
        <ele>174.6</ele>
        <time>2024-09-07T13:38:25Z</time>
      </trkpt>
      <trkpt lat="48.35114" lon="-3.57758">
        <ele>174.6</ele>
        <time>2024-09-07T13:38:26Z</time>
      </trkpt>
      <trkpt lat="48.35119" lon="-3.57756">
        <ele>174.4</ele>
        <time>2024-09-07T13:38:27Z</time>
      </trkpt>
      <trkpt lat="48.35124" lon="-3.57754">
        <ele>174.4</ele>
        <time>2024-09-07T13:38:28Z</time>
      </trkpt>
      <trkpt lat="48.3513" lon="-3.57752">
        <ele>174.4</ele>
        <time>2024-09-07T13:38:29Z</time>
      </trkpt>
      <trkpt lat="48.35135" lon="-3.5775">
        <ele>174.4</ele>
        <time>2024-09-07T13:38:30Z</time>
      </trkpt>
      <trkpt lat="48.3514" lon="-3.57749">
        <ele>174.4</ele>
        <time>2024-09-07T13:38:31Z</time>
      </trkpt>
      <trkpt lat="48.35145" lon="-3.57747">
        <ele>174.4</ele>
        <time>2024-09-07T13:38:32Z</time>
      </trkpt>
      <trkpt lat="48.35151" lon="-3.57745">
        <ele>174.4</ele>
        <time>2024-09-07T13:38:33Z</time>
      </trkpt>
      <trkpt lat="48.35156" lon="-3.57743">
        <ele>174.4</ele>
        <time>2024-09-07T13:38:34Z</time>
      </trkpt>
      <trkpt lat="48.35161" lon="-3.57742">
        <ele>174.4</ele>
        <time>2024-09-07T13:38:35Z</time>
      </trkpt>
      <trkpt lat="48.35166" lon="-3.57741">
        <ele>174.4</ele>
        <time>2024-09-07T13:38:36Z</time>
      </trkpt>
      <trkpt lat="48.3517" lon="-3.57739">
        <ele>174.6</ele>
        <time>2024-09-07T13:38:37Z</time>
      </trkpt>
      <trkpt lat="48.35175" lon="-3.57737">
        <ele>174.6</ele>
        <time>2024-09-07T13:38:38Z</time>
      </trkpt>
      <trkpt lat="48.3518" lon="-3.57735">
        <ele>174.8</ele>
        <time>2024-09-07T13:38:39Z</time>
      </trkpt>
      <trkpt lat="48.35185" lon="-3.57734">
        <ele>174.8</ele>
        <time>2024-09-07T13:38:40Z</time>
      </trkpt>
      <trkpt lat="48.35191" lon="-3.57733">
        <ele>175</ele>
        <time>2024-09-07T13:38:41Z</time>
      </trkpt>
      <trkpt lat="48.35196" lon="-3.57732">
        <ele>175</ele>
        <time>2024-09-07T13:38:42Z</time>
      </trkpt>
      <trkpt lat="48.35201" lon="-3.57729">
        <ele>175.2</ele>
        <time>2024-09-07T13:38:43Z</time>
      </trkpt>
      <trkpt lat="48.35205" lon="-3.57727">
        <ele>175.4</ele>
        <time>2024-09-07T13:38:44Z</time>
      </trkpt>
      <trkpt lat="48.3521" lon="-3.57726">
        <ele>175.4</ele>
        <time>2024-09-07T13:38:45Z</time>
      </trkpt>
      <trkpt lat="48.35215" lon="-3.57724">
        <ele>175.6</ele>
        <time>2024-09-07T13:38:46Z</time>
      </trkpt>
      <trkpt lat="48.3522" lon="-3.57723">
        <ele>175.8</ele>
        <time>2024-09-07T13:38:47Z</time>
      </trkpt>
      <trkpt lat="48.35224" lon="-3.57721">
        <ele>176</ele>
        <time>2024-09-07T13:38:48Z</time>
      </trkpt>
      <trkpt lat="48.35228" lon="-3.57719">
        <ele>176</ele>
        <time>2024-09-07T13:38:49Z</time>
      </trkpt>
      <trkpt lat="48.35233" lon="-3.57717">
        <ele>176.2</ele>
        <time>2024-09-07T13:38:50Z</time>
      </trkpt>
      <trkpt lat="48.35237" lon="-3.57716">
        <ele>176.4</ele>
        <time>2024-09-07T13:38:51Z</time>
      </trkpt>
      <trkpt lat="48.35242" lon="-3.57715">
        <ele>176.6</ele>
        <time>2024-09-07T13:38:52Z</time>
      </trkpt>
      <trkpt lat="48.35246" lon="-3.57713">
        <ele>176.8</ele>
        <time>2024-09-07T13:38:53Z</time>
      </trkpt>
      <trkpt lat="48.35251" lon="-3.57712">
        <ele>176.8</ele>
        <time>2024-09-07T13:38:54Z</time>
      </trkpt>
      <trkpt lat="48.35255" lon="-3.57711">
        <ele>177</ele>
        <time>2024-09-07T13:38:55Z</time>
      </trkpt>
      <trkpt lat="48.35259" lon="-3.57709">
        <ele>177.4</ele>
        <time>2024-09-07T13:38:56Z</time>
      </trkpt>
      <trkpt lat="48.35263" lon="-3.57707">
        <ele>177.6</ele>
        <time>2024-09-07T13:38:57Z</time>
      </trkpt>
      <trkpt lat="48.35268" lon="-3.57706">
        <ele>177.8</ele>
        <time>2024-09-07T13:38:58Z</time>
      </trkpt>
      <trkpt lat="48.35272" lon="-3.57705">
        <ele>178</ele>
        <time>2024-09-07T13:38:59Z</time>
      </trkpt>
      <trkpt lat="48.35276" lon="-3.57704">
        <ele>178.2</ele>
        <time>2024-09-07T13:39:00Z</time>
      </trkpt>
      <trkpt lat="48.3528" lon="-3.57703">
        <ele>178.4</ele>
        <time>2024-09-07T13:39:01Z</time>
      </trkpt>
      <trkpt lat="48.35284" lon="-3.57702">
        <ele>178.4</ele>
        <time>2024-09-07T13:39:02Z</time>
      </trkpt>
      <trkpt lat="48.35288" lon="-3.57701">
        <ele>178.6</ele>
        <time>2024-09-07T13:39:03Z</time>
      </trkpt>
      <trkpt lat="48.35292" lon="-3.577">
        <ele>178.8</ele>
        <time>2024-09-07T13:39:04Z</time>
      </trkpt>
      <trkpt lat="48.35296" lon="-3.57699">
        <ele>178.8</ele>
        <time>2024-09-07T13:39:05Z</time>
      </trkpt>
      <trkpt lat="48.353" lon="-3.57698">
        <ele>179</ele>
        <time>2024-09-07T13:39:06Z</time>
      </trkpt>
      <trkpt lat="48.35304" lon="-3.57697">
        <ele>179.2</ele>
        <time>2024-09-07T13:39:07Z</time>
      </trkpt>
      <trkpt lat="48.35309" lon="-3.57697">
        <ele>179.2</ele>
        <time>2024-09-07T13:39:08Z</time>
      </trkpt>
      <trkpt lat="48.35313" lon="-3.57696">
        <ele>179.4</ele>
        <time>2024-09-07T13:39:09Z</time>
      </trkpt>
      <trkpt lat="48.35317" lon="-3.57696">
        <ele>179.6</ele>
        <time>2024-09-07T13:39:10Z</time>
      </trkpt>
      <trkpt lat="48.35322" lon="-3.57694">
        <ele>179.8</ele>
        <time>2024-09-07T13:39:11Z</time>
      </trkpt>
      <trkpt lat="48.35326" lon="-3.57693">
        <ele>179.8</ele>
        <time>2024-09-07T13:39:12Z</time>
      </trkpt>
      <trkpt lat="48.3533" lon="-3.57692">
        <ele>180</ele>
        <time>2024-09-07T13:39:13Z</time>
      </trkpt>
      <trkpt lat="48.35334" lon="-3.57691">
        <ele>180</ele>
        <time>2024-09-07T13:39:14Z</time>
      </trkpt>
      <trkpt lat="48.35338" lon="-3.57691">
        <ele>180</ele>
        <time>2024-09-07T13:39:15Z</time>
      </trkpt>
      <trkpt lat="48.35343" lon="-3.57691">
        <ele>180</ele>
        <time>2024-09-07T13:39:16Z</time>
      </trkpt>
      <trkpt lat="48.35347" lon="-3.57691">
        <ele>180.2</ele>
        <time>2024-09-07T13:39:17Z</time>
      </trkpt>
      <trkpt lat="48.35351" lon="-3.57692">
        <ele>180.4</ele>
        <time>2024-09-07T13:39:18Z</time>
      </trkpt>
      <trkpt lat="48.35355" lon="-3.57693">
        <ele>180.6</ele>
        <time>2024-09-07T13:39:19Z</time>
      </trkpt>
      <trkpt lat="48.3536" lon="-3.57693">
        <ele>180.6</ele>
        <time>2024-09-07T13:39:20Z</time>
      </trkpt>
      <trkpt lat="48.35364" lon="-3.57693">
        <ele>180.8</ele>
        <time>2024-09-07T13:39:21Z</time>
      </trkpt>
      <trkpt lat="48.35369" lon="-3.57693">
        <ele>181</ele>
        <time>2024-09-07T13:39:22Z</time>
      </trkpt>
      <trkpt lat="48.35373" lon="-3.57693">
        <ele>181</ele>
        <time>2024-09-07T13:39:23Z</time>
      </trkpt>
      <trkpt lat="48.35377" lon="-3.57694">
        <ele>181.2</ele>
        <time>2024-09-07T13:39:24Z</time>
      </trkpt>
      <trkpt lat="48.35382" lon="-3.57694">
        <ele>181.2</ele>
        <time>2024-09-07T13:39:25Z</time>
      </trkpt>
      <trkpt lat="48.35386" lon="-3.57695">
        <ele>181.4</ele>
        <time>2024-09-07T13:39:26Z</time>
      </trkpt>
      <trkpt lat="48.35391" lon="-3.57695">
        <ele>181.6</ele>
        <time>2024-09-07T13:39:27Z</time>
      </trkpt>
      <trkpt lat="48.35395" lon="-3.57696">
        <ele>181.8</ele>
        <time>2024-09-07T13:39:28Z</time>
      </trkpt>
      <trkpt lat="48.354" lon="-3.57697">
        <ele>182</ele>
        <time>2024-09-07T13:39:29Z</time>
      </trkpt>
      <trkpt lat="48.35404" lon="-3.57697">
        <ele>182.2</ele>
        <time>2024-09-07T13:39:30Z</time>
      </trkpt>
      <trkpt lat="48.35408" lon="-3.57698">
        <ele>182.4</ele>
        <time>2024-09-07T13:39:31Z</time>
      </trkpt>
      <trkpt lat="48.35413" lon="-3.57699">
        <ele>182.6</ele>
        <time>2024-09-07T13:39:32Z</time>
      </trkpt>
      <trkpt lat="48.35417" lon="-3.577">
        <ele>182.6</ele>
        <time>2024-09-07T13:39:33Z</time>
      </trkpt>
      <trkpt lat="48.35421" lon="-3.57701">
        <ele>182.8</ele>
        <time>2024-09-07T13:39:34Z</time>
      </trkpt>
      <trkpt lat="48.35425" lon="-3.57703">
        <ele>182.8</ele>
        <time>2024-09-07T13:39:35Z</time>
      </trkpt>
      <trkpt lat="48.35429" lon="-3.57704">
        <ele>183</ele>
        <time>2024-09-07T13:39:36Z</time>
      </trkpt>
      <trkpt lat="48.35433" lon="-3.57706">
        <ele>183.2</ele>
        <time>2024-09-07T13:39:37Z</time>
      </trkpt>
      <trkpt lat="48.35437" lon="-3.57708">
        <ele>183.2</ele>
        <time>2024-09-07T13:39:38Z</time>
      </trkpt>
      <trkpt lat="48.35441" lon="-3.57709">
        <ele>183.4</ele>
        <time>2024-09-07T13:39:39Z</time>
      </trkpt>
      <trkpt lat="48.35445" lon="-3.5771">
        <ele>183.4</ele>
        <time>2024-09-07T13:39:40Z</time>
      </trkpt>
      <trkpt lat="48.3545" lon="-3.57712">
        <ele>183.6</ele>
        <time>2024-09-07T13:39:41Z</time>
      </trkpt>
      <trkpt lat="48.35454" lon="-3.57712">
        <ele>183.8</ele>
        <time>2024-09-07T13:39:42Z</time>
      </trkpt>
      <trkpt lat="48.35458" lon="-3.57713">
        <ele>184</ele>
        <time>2024-09-07T13:39:43Z</time>
      </trkpt>
      <trkpt lat="48.35463" lon="-3.57715">
        <ele>184.2</ele>
        <time>2024-09-07T13:39:44Z</time>
      </trkpt>
      <trkpt lat="48.35466" lon="-3.57716">
        <ele>184.2</ele>
        <time>2024-09-07T13:39:45Z</time>
      </trkpt>
      <trkpt lat="48.35471" lon="-3.57717">
        <ele>184.4</ele>
        <time>2024-09-07T13:39:46Z</time>
      </trkpt>
      <trkpt lat="48.35475" lon="-3.57719">
        <ele>184.6</ele>
        <time>2024-09-07T13:39:47Z</time>
      </trkpt>
      <trkpt lat="48.35479" lon="-3.5772">
        <ele>184.8</ele>
        <time>2024-09-07T13:39:48Z</time>
      </trkpt>
      <trkpt lat="48.35483" lon="-3.57721">
        <ele>185</ele>
        <time>2024-09-07T13:39:49Z</time>
      </trkpt>
      <trkpt lat="48.35488" lon="-3.57722">
        <ele>185.4</ele>
        <time>2024-09-07T13:39:50Z</time>
      </trkpt>
      <trkpt lat="48.35492" lon="-3.57724">
        <ele>185.6</ele>
        <time>2024-09-07T13:39:51Z</time>
      </trkpt>
      <trkpt lat="48.35496" lon="-3.57725">
        <ele>185.6</ele>
        <time>2024-09-07T13:39:52Z</time>
      </trkpt>
      <trkpt lat="48.355" lon="-3.57727">
        <ele>185.8</ele>
        <time>2024-09-07T13:39:53Z</time>
      </trkpt>
      <trkpt lat="48.35504" lon="-3.57728">
        <ele>186</ele>
        <time>2024-09-07T13:39:54Z</time>
      </trkpt>
      <trkpt lat="48.35508" lon="-3.57729">
        <ele>186.2</ele>
        <time>2024-09-07T13:39:55Z</time>
      </trkpt>
      <trkpt lat="48.35513" lon="-3.5773">
        <ele>186.2</ele>
        <time>2024-09-07T13:39:56Z</time>
      </trkpt>
      <trkpt lat="48.35517" lon="-3.57731">
        <ele>186.4</ele>
        <time>2024-09-07T13:39:57Z</time>
      </trkpt>
      <trkpt lat="48.35521" lon="-3.57732">
        <ele>186.6</ele>
        <time>2024-09-07T13:39:58Z</time>
      </trkpt>
      <trkpt lat="48.35525" lon="-3.57733">
        <ele>186.8</ele>
        <time>2024-09-07T13:39:59Z</time>
      </trkpt>
      <trkpt lat="48.35529" lon="-3.57735">
        <ele>187</ele>
        <time>2024-09-07T13:40:00Z</time>
      </trkpt>
      <trkpt lat="48.35533" lon="-3.57736">
        <ele>187</ele>
        <time>2024-09-07T13:40:01Z</time>
      </trkpt>
      <trkpt lat="48.35537" lon="-3.57737">
        <ele>187.2</ele>
        <time>2024-09-07T13:40:02Z</time>
      </trkpt>
      <trkpt lat="48.35541" lon="-3.57739">
        <ele>187.4</ele>
        <time>2024-09-07T13:40:03Z</time>
      </trkpt>
      <trkpt lat="48.35546" lon="-3.5774">
        <ele>187.6</ele>
        <time>2024-09-07T13:40:04Z</time>
      </trkpt>
      <trkpt lat="48.3555" lon="-3.57741">
        <ele>187.8</ele>
        <time>2024-09-07T13:40:05Z</time>
      </trkpt>
      <trkpt lat="48.35554" lon="-3.57743">
        <ele>188</ele>
        <time>2024-09-07T13:40:06Z</time>
      </trkpt>
      <trkpt lat="48.35559" lon="-3.57744">
        <ele>188.2</ele>
        <time>2024-09-07T13:40:07Z</time>
      </trkpt>
      <trkpt lat="48.35563" lon="-3.57745">
        <ele>188.2</ele>
        <time>2024-09-07T13:40:08Z</time>
      </trkpt>
      <trkpt lat="48.35567" lon="-3.57746">
        <ele>188.4</ele>
        <time>2024-09-07T13:40:09Z</time>
      </trkpt>
      <trkpt lat="48.35571" lon="-3.57748">
        <ele>188.4</ele>
        <time>2024-09-07T13:40:10Z</time>
      </trkpt>
      <trkpt lat="48.35575" lon="-3.57748">
        <ele>188.8</ele>
        <time>2024-09-07T13:40:11Z</time>
      </trkpt>
      <trkpt lat="48.35579" lon="-3.57749">
        <ele>189</ele>
        <time>2024-09-07T13:40:12Z</time>
      </trkpt>
      <trkpt lat="48.35583" lon="-3.5775">
        <ele>189</ele>
        <time>2024-09-07T13:40:13Z</time>
      </trkpt>
      <trkpt lat="48.35587" lon="-3.57751">
        <ele>189.2</ele>
        <time>2024-09-07T13:40:14Z</time>
      </trkpt>
      <trkpt lat="48.3559" lon="-3.57752">
        <ele>189.4</ele>
        <time>2024-09-07T13:40:15Z</time>
      </trkpt>
      <trkpt lat="48.35594" lon="-3.57753">
        <ele>189.6</ele>
        <time>2024-09-07T13:40:16Z</time>
      </trkpt>
      <trkpt lat="48.35598" lon="-3.57754">
        <ele>189.8</ele>
        <time>2024-09-07T13:40:17Z</time>
      </trkpt>
      <trkpt lat="48.35602" lon="-3.57756">
        <ele>189.8</ele>
        <time>2024-09-07T13:40:18Z</time>
      </trkpt>
      <trkpt lat="48.35607" lon="-3.57757">
        <ele>190</ele>
        <time>2024-09-07T13:40:19Z</time>
      </trkpt>
      <trkpt lat="48.35611" lon="-3.57758">
        <ele>190.2</ele>
        <time>2024-09-07T13:40:20Z</time>
      </trkpt>
      <trkpt lat="48.35615" lon="-3.57759">
        <ele>190.2</ele>
        <time>2024-09-07T13:40:21Z</time>
      </trkpt>
      <trkpt lat="48.35619" lon="-3.57761">
        <ele>190.6</ele>
        <time>2024-09-07T13:40:22Z</time>
      </trkpt>
      <trkpt lat="48.35622" lon="-3.57762">
        <ele>190.6</ele>
        <time>2024-09-07T13:40:23Z</time>
      </trkpt>
      <trkpt lat="48.35626" lon="-3.57763">
        <ele>190.8</ele>
        <time>2024-09-07T13:40:24Z</time>
      </trkpt>
      <trkpt lat="48.35629" lon="-3.57765">
        <ele>190.8</ele>
        <time>2024-09-07T13:40:25Z</time>
      </trkpt>
      <trkpt lat="48.35632" lon="-3.57765">
        <ele>191</ele>
        <time>2024-09-07T13:40:26Z</time>
      </trkpt>
      <trkpt lat="48.35635" lon="-3.57766">
        <ele>191.2</ele>
        <time>2024-09-07T13:40:27Z</time>
      </trkpt>
      <trkpt lat="48.35638" lon="-3.57767">
        <ele>191.4</ele>
        <time>2024-09-07T13:40:28Z</time>
      </trkpt>
      <trkpt lat="48.35641" lon="-3.57768">
        <ele>191.6</ele>
        <time>2024-09-07T13:40:29Z</time>
      </trkpt>
      <trkpt lat="48.35643" lon="-3.57768">
        <ele>191.6</ele>
        <time>2024-09-07T13:40:30Z</time>
      </trkpt>
      <trkpt lat="48.35646" lon="-3.57769">
        <ele>191.6</ele>
        <time>2024-09-07T13:40:31Z</time>
      </trkpt>
      <trkpt lat="48.35648" lon="-3.5777">
        <ele>191.8</ele>
        <time>2024-09-07T13:40:32Z</time>
      </trkpt>
      <trkpt lat="48.3565" lon="-3.57771">
        <ele>192</ele>
        <time>2024-09-07T13:40:33Z</time>
      </trkpt>
      <trkpt lat="48.35653" lon="-3.57771">
        <ele>192.2</ele>
        <time>2024-09-07T13:40:34Z</time>
      </trkpt>
      <trkpt lat="48.35655" lon="-3.57772">
        <ele>192.4</ele>
        <time>2024-09-07T13:40:35Z</time>
      </trkpt>
      <trkpt lat="48.35657" lon="-3.57773">
        <ele>192.4</ele>
        <time>2024-09-07T13:40:36Z</time>
      </trkpt>
      <trkpt lat="48.35659" lon="-3.57773">
        <ele>192.6</ele>
        <time>2024-09-07T13:40:37Z</time>
      </trkpt>
      <trkpt lat="48.35662" lon="-3.57774">
        <ele>192.8</ele>
        <time>2024-09-07T13:40:38Z</time>
      </trkpt>
      <trkpt lat="48.35664" lon="-3.57773">
        <ele>192.8</ele>
        <time>2024-09-07T13:40:39Z</time>
      </trkpt>
      <trkpt lat="48.35666" lon="-3.57771">
        <ele>193</ele>
        <time>2024-09-07T13:40:40Z</time>
      </trkpt>
      <trkpt lat="48.35668" lon="-3.57768">
        <ele>193</ele>
        <time>2024-09-07T13:40:41Z</time>
      </trkpt>
      <trkpt lat="48.35669" lon="-3.57765">
        <ele>193.2</ele>
        <time>2024-09-07T13:40:42Z</time>
      </trkpt>
      <trkpt lat="48.3567" lon="-3.57761">
        <ele>193.2</ele>
        <time>2024-09-07T13:40:43Z</time>
      </trkpt>
      <trkpt lat="48.35672" lon="-3.57757">
        <ele>193.4</ele>
        <time>2024-09-07T13:40:44Z</time>
      </trkpt>
      <trkpt lat="48.35673" lon="-3.57753">
        <ele>193.4</ele>
        <time>2024-09-07T13:40:45Z</time>
      </trkpt>
      <trkpt lat="48.35674" lon="-3.57748">
        <ele>193.4</ele>
        <time>2024-09-07T13:40:46Z</time>
      </trkpt>
      <trkpt lat="48.35675" lon="-3.57743">
        <ele>193.6</ele>
        <time>2024-09-07T13:40:47Z</time>
      </trkpt>
      <trkpt lat="48.35676" lon="-3.57738">
        <ele>193.6</ele>
        <time>2024-09-07T13:40:48Z</time>
      </trkpt>
      <trkpt lat="48.35677" lon="-3.57733">
        <ele>193.6</ele>
        <time>2024-09-07T13:40:49Z</time>
      </trkpt>
      <trkpt lat="48.35678" lon="-3.57727">
        <ele>193.6</ele>
        <time>2024-09-07T13:40:50Z</time>
      </trkpt>
      <trkpt lat="48.35679" lon="-3.57721">
        <ele>193.8</ele>
        <time>2024-09-07T13:40:51Z</time>
      </trkpt>
      <trkpt lat="48.3568" lon="-3.57715">
        <ele>193.8</ele>
        <time>2024-09-07T13:40:52Z</time>
      </trkpt>
      <trkpt lat="48.35681" lon="-3.57709">
        <ele>194</ele>
        <time>2024-09-07T13:40:53Z</time>
      </trkpt>
      <trkpt lat="48.35682" lon="-3.57703">
        <ele>194</ele>
        <time>2024-09-07T13:40:54Z</time>
      </trkpt>
      <trkpt lat="48.35683" lon="-3.57697">
        <ele>194.2</ele>
        <time>2024-09-07T13:40:55Z</time>
      </trkpt>
      <trkpt lat="48.35685" lon="-3.5769">
        <ele>194.2</ele>
        <time>2024-09-07T13:40:56Z</time>
      </trkpt>
      <trkpt lat="48.35686" lon="-3.57685">
        <ele>194.2</ele>
        <time>2024-09-07T13:40:57Z</time>
      </trkpt>
      <trkpt lat="48.35687" lon="-3.57679">
        <ele>194.4</ele>
        <time>2024-09-07T13:40:58Z</time>
      </trkpt>
      <trkpt lat="48.35689" lon="-3.57673">
        <ele>194.4</ele>
        <time>2024-09-07T13:40:59Z</time>
      </trkpt>
      <trkpt lat="48.3569" lon="-3.57667">
        <ele>194.4</ele>
        <time>2024-09-07T13:41:00Z</time>
      </trkpt>
      <trkpt lat="48.35692" lon="-3.57662">
        <ele>194.6</ele>
        <time>2024-09-07T13:41:01Z</time>
      </trkpt>
      <trkpt lat="48.35694" lon="-3.57657">
        <ele>194.6</ele>
        <time>2024-09-07T13:41:02Z</time>
      </trkpt>
      <trkpt lat="48.35696" lon="-3.57651">
        <ele>194.6</ele>
        <time>2024-09-07T13:41:03Z</time>
      </trkpt>
      <trkpt lat="48.35698" lon="-3.57645">
        <ele>194.8</ele>
        <time>2024-09-07T13:41:04Z</time>
      </trkpt>
      <trkpt lat="48.35699" lon="-3.57639">
        <ele>194.8</ele>
        <time>2024-09-07T13:41:05Z</time>
      </trkpt>
      <trkpt lat="48.357" lon="-3.57634">
        <ele>194.8</ele>
        <time>2024-09-07T13:41:06Z</time>
      </trkpt>
      <trkpt lat="48.35702" lon="-3.57628">
        <ele>194.8</ele>
        <time>2024-09-07T13:41:07Z</time>
      </trkpt>
      <trkpt lat="48.35703" lon="-3.57622">
        <ele>194.8</ele>
        <time>2024-09-07T13:41:08Z</time>
      </trkpt>
      <trkpt lat="48.35705" lon="-3.57616">
        <ele>195</ele>
        <time>2024-09-07T13:41:09Z</time>
      </trkpt>
      <trkpt lat="48.35707" lon="-3.5761">
        <ele>195.2</ele>
        <time>2024-09-07T13:41:10Z</time>
      </trkpt>
      <trkpt lat="48.35709" lon="-3.57604">
        <ele>195.2</ele>
        <time>2024-09-07T13:41:11Z</time>
      </trkpt>
      <trkpt lat="48.35711" lon="-3.57597">
        <ele>195.2</ele>
        <time>2024-09-07T13:41:12Z</time>
      </trkpt>
      <trkpt lat="48.35712" lon="-3.57591">
        <ele>195.4</ele>
        <time>2024-09-07T13:41:13Z</time>
      </trkpt>
      <trkpt lat="48.35714" lon="-3.57584">
        <ele>195.4</ele>
        <time>2024-09-07T13:41:14Z</time>
      </trkpt>
      <trkpt lat="48.35716" lon="-3.57578">
        <ele>195.4</ele>
        <time>2024-09-07T13:41:15Z</time>
      </trkpt>
      <trkpt lat="48.35718" lon="-3.57571">
        <ele>195.4</ele>
        <time>2024-09-07T13:41:16Z</time>
      </trkpt>
      <trkpt lat="48.35721" lon="-3.57564">
        <ele>195.4</ele>
        <time>2024-09-07T13:41:17Z</time>
      </trkpt>
      <trkpt lat="48.35723" lon="-3.57557">
        <ele>195.4</ele>
        <time>2024-09-07T13:41:18Z</time>
      </trkpt>
      <trkpt lat="48.35725" lon="-3.57551">
        <ele>195.4</ele>
        <time>2024-09-07T13:41:19Z</time>
      </trkpt>
      <trkpt lat="48.35727" lon="-3.57544">
        <ele>195.4</ele>
        <time>2024-09-07T13:41:20Z</time>
      </trkpt>
      <trkpt lat="48.3573" lon="-3.57536">
        <ele>195.4</ele>
        <time>2024-09-07T13:41:21Z</time>
      </trkpt>
      <trkpt lat="48.35732" lon="-3.57529">
        <ele>195.4</ele>
        <time>2024-09-07T13:41:22Z</time>
      </trkpt>
      <trkpt lat="48.35734" lon="-3.57521">
        <ele>195.4</ele>
        <time>2024-09-07T13:41:23Z</time>
      </trkpt>
      <trkpt lat="48.35736" lon="-3.57513">
        <ele>195.4</ele>
        <time>2024-09-07T13:41:24Z</time>
      </trkpt>
      <trkpt lat="48.35739" lon="-3.57506">
        <ele>195.2</ele>
        <time>2024-09-07T13:41:25Z</time>
      </trkpt>
      <trkpt lat="48.35741" lon="-3.57498">
        <ele>195.2</ele>
        <time>2024-09-07T13:41:26Z</time>
      </trkpt>
      <trkpt lat="48.35744" lon="-3.5749">
        <ele>195.2</ele>
        <time>2024-09-07T13:41:27Z</time>
      </trkpt>
      <trkpt lat="48.35747" lon="-3.57482">
        <ele>195</ele>
        <time>2024-09-07T13:41:28Z</time>
      </trkpt>
      <trkpt lat="48.3575" lon="-3.57473">
        <ele>195</ele>
        <time>2024-09-07T13:41:29Z</time>
      </trkpt>
      <trkpt lat="48.35753" lon="-3.57464">
        <ele>195</ele>
        <time>2024-09-07T13:41:30Z</time>
      </trkpt>
      <trkpt lat="48.35756" lon="-3.57456">
        <ele>195</ele>
        <time>2024-09-07T13:41:31Z</time>
      </trkpt>
      <trkpt lat="48.3576" lon="-3.57448">
        <ele>194.8</ele>
        <time>2024-09-07T13:41:32Z</time>
      </trkpt>
      <trkpt lat="48.35763" lon="-3.57441">
        <ele>194.6</ele>
        <time>2024-09-07T13:41:33Z</time>
      </trkpt>
      <trkpt lat="48.35766" lon="-3.57433">
        <ele>194.4</ele>
        <time>2024-09-07T13:41:34Z</time>
      </trkpt>
      <trkpt lat="48.3577" lon="-3.57425">
        <ele>194.2</ele>
        <time>2024-09-07T13:41:35Z</time>
      </trkpt>
      <trkpt lat="48.35773" lon="-3.57417">
        <ele>194</ele>
        <time>2024-09-07T13:41:36Z</time>
      </trkpt>
      <trkpt lat="48.35777" lon="-3.5741">
        <ele>194</ele>
        <time>2024-09-07T13:41:37Z</time>
      </trkpt>
      <trkpt lat="48.35781" lon="-3.57402">
        <ele>193.8</ele>
        <time>2024-09-07T13:41:38Z</time>
      </trkpt>
      <trkpt lat="48.35785" lon="-3.57394">
        <ele>193.6</ele>
        <time>2024-09-07T13:41:39Z</time>
      </trkpt>
      <trkpt lat="48.35789" lon="-3.57386">
        <ele>193.4</ele>
        <time>2024-09-07T13:41:40Z</time>
      </trkpt>
      <trkpt lat="48.35793" lon="-3.57379">
        <ele>193.2</ele>
        <time>2024-09-07T13:41:41Z</time>
      </trkpt>
      <trkpt lat="48.35797" lon="-3.57372">
        <ele>193.2</ele>
        <time>2024-09-07T13:41:42Z</time>
      </trkpt>
      <trkpt lat="48.35801" lon="-3.57364">
        <ele>192.8</ele>
        <time>2024-09-07T13:41:43Z</time>
      </trkpt>
      <trkpt lat="48.35806" lon="-3.57357">
        <ele>192.6</ele>
        <time>2024-09-07T13:41:44Z</time>
      </trkpt>
      <trkpt lat="48.3581" lon="-3.57349">
        <ele>192.4</ele>
        <time>2024-09-07T13:41:45Z</time>
      </trkpt>
      <trkpt lat="48.35815" lon="-3.57342">
        <ele>192</ele>
        <time>2024-09-07T13:41:46Z</time>
      </trkpt>
      <trkpt lat="48.3582" lon="-3.57334">
        <ele>191.8</ele>
        <time>2024-09-07T13:41:47Z</time>
      </trkpt>
      <trkpt lat="48.35825" lon="-3.57326">
        <ele>191.6</ele>
        <time>2024-09-07T13:41:48Z</time>
      </trkpt>
      <trkpt lat="48.35831" lon="-3.57319">
        <ele>191.4</ele>
        <time>2024-09-07T13:41:49Z</time>
      </trkpt>
      <trkpt lat="48.35836" lon="-3.57313">
        <ele>191.4</ele>
        <time>2024-09-07T13:41:50Z</time>
      </trkpt>
      <trkpt lat="48.35842" lon="-3.57306">
        <ele>191</ele>
        <time>2024-09-07T13:41:51Z</time>
      </trkpt>
      <trkpt lat="48.35848" lon="-3.57299">
        <ele>191</ele>
        <time>2024-09-07T13:41:52Z</time>
      </trkpt>
      <trkpt lat="48.35854" lon="-3.57292">
        <ele>191</ele>
        <time>2024-09-07T13:41:53Z</time>
      </trkpt>
      <trkpt lat="48.3586" lon="-3.57285">
        <ele>190.8</ele>
        <time>2024-09-07T13:41:54Z</time>
      </trkpt>
      <trkpt lat="48.35866" lon="-3.57278">
        <ele>190.6</ele>
        <time>2024-09-07T13:41:55Z</time>
      </trkpt>
      <trkpt lat="48.35873" lon="-3.57271">
        <ele>190.4</ele>
        <time>2024-09-07T13:41:56Z</time>
      </trkpt>
      <trkpt lat="48.35879" lon="-3.57264">
        <ele>190.2</ele>
        <time>2024-09-07T13:41:57Z</time>
      </trkpt>
      <trkpt lat="48.35886" lon="-3.57257">
        <ele>190.2</ele>
        <time>2024-09-07T13:41:58Z</time>
      </trkpt>
      <trkpt lat="48.35892" lon="-3.5725">
        <ele>189.8</ele>
        <time>2024-09-07T13:41:59Z</time>
      </trkpt>
      <trkpt lat="48.35899" lon="-3.57244">
        <ele>189.6</ele>
        <time>2024-09-07T13:42:00Z</time>
      </trkpt>
      <trkpt lat="48.35906" lon="-3.57237">
        <ele>189.6</ele>
        <time>2024-09-07T13:42:01Z</time>
      </trkpt>
      <trkpt lat="48.35912" lon="-3.57231">
        <ele>189.4</ele>
        <time>2024-09-07T13:42:02Z</time>
      </trkpt>
      <trkpt lat="48.35919" lon="-3.57224">
        <ele>189.2</ele>
        <time>2024-09-07T13:42:03Z</time>
      </trkpt>
      <trkpt lat="48.35926" lon="-3.57218">
        <ele>189</ele>
        <time>2024-09-07T13:42:04Z</time>
      </trkpt>
      <trkpt lat="48.35932" lon="-3.57211">
        <ele>188.8</ele>
        <time>2024-09-07T13:42:05Z</time>
      </trkpt>
      <trkpt lat="48.35939" lon="-3.57204">
        <ele>188.6</ele>
        <time>2024-09-07T13:42:06Z</time>
      </trkpt>
      <trkpt lat="48.35946" lon="-3.57198">
        <ele>188.2</ele>
        <time>2024-09-07T13:42:07Z</time>
      </trkpt>
      <trkpt lat="48.35952" lon="-3.57191">
        <ele>187.8</ele>
        <time>2024-09-07T13:42:08Z</time>
      </trkpt>
      <trkpt lat="48.35959" lon="-3.57184">
        <ele>187.6</ele>
        <time>2024-09-07T13:42:09Z</time>
      </trkpt>
      <trkpt lat="48.35965" lon="-3.57178">
        <ele>187.4</ele>
        <time>2024-09-07T13:42:10Z</time>
      </trkpt>
      <trkpt lat="48.35971" lon="-3.57171">
        <ele>187.4</ele>
        <time>2024-09-07T13:42:11Z</time>
      </trkpt>
      <trkpt lat="48.35977" lon="-3.57164">
        <ele>187.4</ele>
        <time>2024-09-07T13:42:12Z</time>
      </trkpt>
      <trkpt lat="48.35983" lon="-3.57156">
        <ele>187.4</ele>
        <time>2024-09-07T13:42:13Z</time>
      </trkpt>
      <trkpt lat="48.35988" lon="-3.57149">
        <ele>187.4</ele>
        <time>2024-09-07T13:42:14Z</time>
      </trkpt>
      <trkpt lat="48.35994" lon="-3.57141">
        <ele>187.4</ele>
        <time>2024-09-07T13:42:15Z</time>
      </trkpt>
      <trkpt lat="48.35999" lon="-3.57134">
        <ele>187.4</ele>
        <time>2024-09-07T13:42:16Z</time>
      </trkpt>
      <trkpt lat="48.36004" lon="-3.57126">
        <ele>187.4</ele>
        <time>2024-09-07T13:42:17Z</time>
      </trkpt>
      <trkpt lat="48.36009" lon="-3.57119">
        <ele>187.4</ele>
        <time>2024-09-07T13:42:18Z</time>
      </trkpt>
      <trkpt lat="48.36013" lon="-3.57111">
        <ele>187.4</ele>
        <time>2024-09-07T13:42:19Z</time>
      </trkpt>
      <trkpt lat="48.36017" lon="-3.57103">
        <ele>187.4</ele>
        <time>2024-09-07T13:42:20Z</time>
      </trkpt>
      <trkpt lat="48.36021" lon="-3.57095">
        <ele>187.4</ele>
        <time>2024-09-07T13:42:21Z</time>
      </trkpt>
      <trkpt lat="48.36025" lon="-3.57088">
        <ele>187.4</ele>
        <time>2024-09-07T13:42:22Z</time>
      </trkpt>
      <trkpt lat="48.36029" lon="-3.5708">
        <ele>187.4</ele>
        <time>2024-09-07T13:42:23Z</time>
      </trkpt>
      <trkpt lat="48.36032" lon="-3.57072">
        <ele>187.4</ele>
        <time>2024-09-07T13:42:24Z</time>
      </trkpt>
      <trkpt lat="48.36036" lon="-3.57064">
        <ele>187.4</ele>
        <time>2024-09-07T13:42:25Z</time>
      </trkpt>
      <trkpt lat="48.36039" lon="-3.57057">
        <ele>187.4</ele>
        <time>2024-09-07T13:42:26Z</time>
      </trkpt>
      <trkpt lat="48.36043" lon="-3.57049">
        <ele>187.6</ele>
        <time>2024-09-07T13:42:27Z</time>
      </trkpt>
      <trkpt lat="48.36046" lon="-3.57042">
        <ele>187.8</ele>
        <time>2024-09-07T13:42:28Z</time>
      </trkpt>
      <trkpt lat="48.3605" lon="-3.57035">
        <ele>187.8</ele>
        <time>2024-09-07T13:42:29Z</time>
      </trkpt>
      <trkpt lat="48.36053" lon="-3.57028">
        <ele>188</ele>
        <time>2024-09-07T13:42:30Z</time>
      </trkpt>
      <trkpt lat="48.36056" lon="-3.57021">
        <ele>188</ele>
        <time>2024-09-07T13:42:31Z</time>
      </trkpt>
      <trkpt lat="48.36059" lon="-3.57015">
        <ele>188</ele>
        <time>2024-09-07T13:42:32Z</time>
      </trkpt>
      <trkpt lat="48.36062" lon="-3.57009">
        <ele>188.2</ele>
        <time>2024-09-07T13:42:33Z</time>
      </trkpt>
      <trkpt lat="48.36065" lon="-3.57003">
        <ele>188.2</ele>
        <time>2024-09-07T13:42:34Z</time>
      </trkpt>
      <trkpt lat="48.36068" lon="-3.56997">
        <ele>188.4</ele>
        <time>2024-09-07T13:42:35Z</time>
      </trkpt>
      <trkpt lat="48.3607" lon="-3.56991">
        <ele>188.4</ele>
        <time>2024-09-07T13:42:36Z</time>
      </trkpt>
      <trkpt lat="48.36073" lon="-3.56985">
        <ele>188.6</ele>
        <time>2024-09-07T13:42:37Z</time>
      </trkpt>
      <trkpt lat="48.36076" lon="-3.56978">
        <ele>188.6</ele>
        <time>2024-09-07T13:42:38Z</time>
      </trkpt>
      <trkpt lat="48.36079" lon="-3.56972">
        <ele>188.8</ele>
        <time>2024-09-07T13:42:39Z</time>
      </trkpt>
      <trkpt lat="48.36082" lon="-3.56966">
        <ele>189</ele>
        <time>2024-09-07T13:42:40Z</time>
      </trkpt>
      <trkpt lat="48.36085" lon="-3.5696">
        <ele>189.2</ele>
        <time>2024-09-07T13:42:41Z</time>
      </trkpt>
      <trkpt lat="48.36088" lon="-3.56954">
        <ele>189.4</ele>
        <time>2024-09-07T13:42:42Z</time>
      </trkpt>
      <trkpt lat="48.36091" lon="-3.56948">
        <ele>189.6</ele>
        <time>2024-09-07T13:42:43Z</time>
      </trkpt>
      <trkpt lat="48.36094" lon="-3.56942">
        <ele>189.6</ele>
        <time>2024-09-07T13:42:44Z</time>
      </trkpt>
      <trkpt lat="48.36097" lon="-3.56937">
        <ele>189.8</ele>
        <time>2024-09-07T13:42:45Z</time>
      </trkpt>
      <trkpt lat="48.36099" lon="-3.56931">
        <ele>190</ele>
        <time>2024-09-07T13:42:46Z</time>
      </trkpt>
      <trkpt lat="48.36102" lon="-3.56925">
        <ele>190.2</ele>
        <time>2024-09-07T13:42:47Z</time>
      </trkpt>
      <trkpt lat="48.36104" lon="-3.5692">
        <ele>190.2</ele>
        <time>2024-09-07T13:42:48Z</time>
      </trkpt>
      <trkpt lat="48.36107" lon="-3.56914">
        <ele>190.4</ele>
        <time>2024-09-07T13:42:49Z</time>
      </trkpt>
      <trkpt lat="48.36109" lon="-3.56908">
        <ele>190.4</ele>
        <time>2024-09-07T13:42:50Z</time>
      </trkpt>
      <trkpt lat="48.36112" lon="-3.56902">
        <ele>190.8</ele>
        <time>2024-09-07T13:42:51Z</time>
      </trkpt>
      <trkpt lat="48.36115" lon="-3.56896">
        <ele>191</ele>
        <time>2024-09-07T13:42:52Z</time>
      </trkpt>
      <trkpt lat="48.36117" lon="-3.56891">
        <ele>191.4</ele>
        <time>2024-09-07T13:42:53Z</time>
      </trkpt>
      <trkpt lat="48.3612" lon="-3.56886">
        <ele>191.4</ele>
        <time>2024-09-07T13:42:54Z</time>
      </trkpt>
      <trkpt lat="48.36123" lon="-3.5688">
        <ele>191.6</ele>
        <time>2024-09-07T13:42:55Z</time>
      </trkpt>
      <trkpt lat="48.36126" lon="-3.56874">
        <ele>191.8</ele>
        <time>2024-09-07T13:42:56Z</time>
      </trkpt>
      <trkpt lat="48.36128" lon="-3.56868">
        <ele>192</ele>
        <time>2024-09-07T13:42:57Z</time>
      </trkpt>
      <trkpt lat="48.36131" lon="-3.56863">
        <ele>192</ele>
        <time>2024-09-07T13:42:58Z</time>
      </trkpt>
      <trkpt lat="48.36133" lon="-3.56857">
        <ele>192</ele>
        <time>2024-09-07T13:42:59Z</time>
      </trkpt>
      <trkpt lat="48.36136" lon="-3.56851">
        <ele>192.2</ele>
        <time>2024-09-07T13:43:00Z</time>
      </trkpt>
      <trkpt lat="48.36139" lon="-3.56845">
        <ele>192.2</ele>
        <time>2024-09-07T13:43:01Z</time>
      </trkpt>
      <trkpt lat="48.36141" lon="-3.5684">
        <ele>192.6</ele>
        <time>2024-09-07T13:43:02Z</time>
      </trkpt>
      <trkpt lat="48.36144" lon="-3.56834">
        <ele>192.6</ele>
        <time>2024-09-07T13:43:03Z</time>
      </trkpt>
      <trkpt lat="48.36147" lon="-3.56828">
        <ele>193</ele>
        <time>2024-09-07T13:43:04Z</time>
      </trkpt>
      <trkpt lat="48.36149" lon="-3.56823">
        <ele>193</ele>
        <time>2024-09-07T13:43:05Z</time>
      </trkpt>
      <trkpt lat="48.36152" lon="-3.56817">
        <ele>193.2</ele>
        <time>2024-09-07T13:43:06Z</time>
      </trkpt>
      <trkpt lat="48.36154" lon="-3.56812">
        <ele>193.4</ele>
        <time>2024-09-07T13:43:07Z</time>
      </trkpt>
      <trkpt lat="48.36157" lon="-3.56806">
        <ele>193.4</ele>
        <time>2024-09-07T13:43:08Z</time>
      </trkpt>
      <trkpt lat="48.36159" lon="-3.568">
        <ele>193.6</ele>
        <time>2024-09-07T13:43:09Z</time>
      </trkpt>
      <trkpt lat="48.36161" lon="-3.56794">
        <ele>193.8</ele>
        <time>2024-09-07T13:43:10Z</time>
      </trkpt>
      <trkpt lat="48.36164" lon="-3.56789">
        <ele>193.8</ele>
        <time>2024-09-07T13:43:11Z</time>
      </trkpt>
      <trkpt lat="48.36167" lon="-3.56783">
        <ele>194</ele>
        <time>2024-09-07T13:43:12Z</time>
      </trkpt>
      <trkpt lat="48.3617" lon="-3.56778">
        <ele>194</ele>
        <time>2024-09-07T13:43:13Z</time>
      </trkpt>
      <trkpt lat="48.36172" lon="-3.56773">
        <ele>194.4</ele>
        <time>2024-09-07T13:43:14Z</time>
      </trkpt>
      <trkpt lat="48.36175" lon="-3.56767">
        <ele>194.4</ele>
        <time>2024-09-07T13:43:15Z</time>
      </trkpt>
      <trkpt lat="48.36178" lon="-3.56761">
        <ele>194.8</ele>
        <time>2024-09-07T13:43:16Z</time>
      </trkpt>
      <trkpt lat="48.3618" lon="-3.56756">
        <ele>194.8</ele>
        <time>2024-09-07T13:43:17Z</time>
      </trkpt>
      <trkpt lat="48.36183" lon="-3.5675">
        <ele>195</ele>
        <time>2024-09-07T13:43:18Z</time>
      </trkpt>
      <trkpt lat="48.36185" lon="-3.56745">
        <ele>195.2</ele>
        <time>2024-09-07T13:43:19Z</time>
      </trkpt>
      <trkpt lat="48.36188" lon="-3.56739">
        <ele>195.2</ele>
        <time>2024-09-07T13:43:20Z</time>
      </trkpt>
      <trkpt lat="48.3619" lon="-3.56733">
        <ele>195.2</ele>
        <time>2024-09-07T13:43:21Z</time>
      </trkpt>
      <trkpt lat="48.36193" lon="-3.56728">
        <ele>195.4</ele>
        <time>2024-09-07T13:43:22Z</time>
      </trkpt>
      <trkpt lat="48.36196" lon="-3.56722">
        <ele>195.6</ele>
        <time>2024-09-07T13:43:23Z</time>
      </trkpt>
      <trkpt lat="48.36199" lon="-3.56716">
        <ele>195.6</ele>
        <time>2024-09-07T13:43:24Z</time>
      </trkpt>
      <trkpt lat="48.36202" lon="-3.5671">
        <ele>195.8</ele>
        <time>2024-09-07T13:43:25Z</time>
      </trkpt>
      <trkpt lat="48.36205" lon="-3.56704">
        <ele>196</ele>
        <time>2024-09-07T13:43:26Z</time>
      </trkpt>
      <trkpt lat="48.36208" lon="-3.56698">
        <ele>196.2</ele>
        <time>2024-09-07T13:43:27Z</time>
      </trkpt>
      <trkpt lat="48.36211" lon="-3.56693">
        <ele>196.2</ele>
        <time>2024-09-07T13:43:28Z</time>
      </trkpt>
      <trkpt lat="48.36214" lon="-3.56688">
        <ele>196.4</ele>
        <time>2024-09-07T13:43:29Z</time>
      </trkpt>
      <trkpt lat="48.36217" lon="-3.56682">
        <ele>196.6</ele>
        <time>2024-09-07T13:43:30Z</time>
      </trkpt>
      <trkpt lat="48.3622" lon="-3.56677">
        <ele>196.8</ele>
        <time>2024-09-07T13:43:31Z</time>
      </trkpt>
      <trkpt lat="48.36224" lon="-3.56673">
        <ele>196.8</ele>
        <time>2024-09-07T13:43:32Z</time>
      </trkpt>
      <trkpt lat="48.36227" lon="-3.56667">
        <ele>196.8</ele>
        <time>2024-09-07T13:43:33Z</time>
      </trkpt>
      <trkpt lat="48.3623" lon="-3.56662">
        <ele>197.2</ele>
        <time>2024-09-07T13:43:34Z</time>
      </trkpt>
      <trkpt lat="48.36234" lon="-3.56657">
        <ele>197.6</ele>
        <time>2024-09-07T13:43:35Z</time>
      </trkpt>
      <trkpt lat="48.36237" lon="-3.56651">
        <ele>197.6</ele>
        <time>2024-09-07T13:43:36Z</time>
      </trkpt>
      <trkpt lat="48.3624" lon="-3.56646">
        <ele>197.8</ele>
        <time>2024-09-07T13:43:37Z</time>
      </trkpt>
      <trkpt lat="48.36243" lon="-3.56641">
        <ele>198</ele>
        <time>2024-09-07T13:43:38Z</time>
      </trkpt>
      <trkpt lat="48.36247" lon="-3.56636">
        <ele>198.4</ele>
        <time>2024-09-07T13:43:39Z</time>
      </trkpt>
      <trkpt lat="48.3625" lon="-3.56631">
        <ele>198.6</ele>
        <time>2024-09-07T13:43:40Z</time>
      </trkpt>
      <trkpt lat="48.36253" lon="-3.56626">
        <ele>198.6</ele>
        <time>2024-09-07T13:43:41Z</time>
      </trkpt>
      <trkpt lat="48.36257" lon="-3.56621">
        <ele>198.6</ele>
        <time>2024-09-07T13:43:42Z</time>
      </trkpt>
      <trkpt lat="48.3626" lon="-3.56617">
        <ele>198.6</ele>
        <time>2024-09-07T13:43:43Z</time>
      </trkpt>
      <trkpt lat="48.36263" lon="-3.56612">
        <ele>198.8</ele>
        <time>2024-09-07T13:43:44Z</time>
      </trkpt>
      <trkpt lat="48.36267" lon="-3.56607">
        <ele>198.8</ele>
        <time>2024-09-07T13:43:45Z</time>
      </trkpt>
      <trkpt lat="48.3627" lon="-3.56603">
        <ele>199.2</ele>
        <time>2024-09-07T13:43:46Z</time>
      </trkpt>
      <trkpt lat="48.36273" lon="-3.56598">
        <ele>199.2</ele>
        <time>2024-09-07T13:43:47Z</time>
      </trkpt>
      <trkpt lat="48.36276" lon="-3.56593">
        <ele>199.4</ele>
        <time>2024-09-07T13:43:48Z</time>
      </trkpt>
      <trkpt lat="48.36279" lon="-3.56589">
        <ele>199.6</ele>
        <time>2024-09-07T13:43:49Z</time>
      </trkpt>
      <trkpt lat="48.36282" lon="-3.56584">
        <ele>199.6</ele>
        <time>2024-09-07T13:43:50Z</time>
      </trkpt>
      <trkpt lat="48.36285" lon="-3.56579">
        <ele>200</ele>
        <time>2024-09-07T13:43:51Z</time>
      </trkpt>
      <trkpt lat="48.36288" lon="-3.56574">
        <ele>200</ele>
        <time>2024-09-07T13:43:52Z</time>
      </trkpt>
      <trkpt lat="48.3629" lon="-3.56569">
        <ele>200.2</ele>
        <time>2024-09-07T13:43:53Z</time>
      </trkpt>
      <trkpt lat="48.36293" lon="-3.56564">
        <ele>200.4</ele>
        <time>2024-09-07T13:43:54Z</time>
      </trkpt>
      <trkpt lat="48.36296" lon="-3.56559">
        <ele>200.6</ele>
        <time>2024-09-07T13:43:55Z</time>
      </trkpt>
      <trkpt lat="48.36298" lon="-3.56554">
        <ele>201</ele>
        <time>2024-09-07T13:43:56Z</time>
      </trkpt>
      <trkpt lat="48.36301" lon="-3.56549">
        <ele>201</ele>
        <time>2024-09-07T13:43:57Z</time>
      </trkpt>
      <trkpt lat="48.36303" lon="-3.56543">
        <ele>201.2</ele>
        <time>2024-09-07T13:43:58Z</time>
      </trkpt>
      <trkpt lat="48.36305" lon="-3.56537">
        <ele>201</ele>
        <time>2024-09-07T13:43:59Z</time>
      </trkpt>
      <trkpt lat="48.36308" lon="-3.56532">
        <ele>201.4</ele>
        <time>2024-09-07T13:44:00Z</time>
      </trkpt>
      <trkpt lat="48.3631" lon="-3.56526">
        <ele>201.4</ele>
        <time>2024-09-07T13:44:01Z</time>
      </trkpt>
      <trkpt lat="48.36312" lon="-3.5652">
        <ele>201.4</ele>
        <time>2024-09-07T13:44:02Z</time>
      </trkpt>
      <trkpt lat="48.36314" lon="-3.56514">
        <ele>201.4</ele>
        <time>2024-09-07T13:44:03Z</time>
      </trkpt>
      <trkpt lat="48.36317" lon="-3.56509">
        <ele>201.4</ele>
        <time>2024-09-07T13:44:04Z</time>
      </trkpt>
      <trkpt lat="48.3632" lon="-3.56503">
        <ele>201.4</ele>
        <time>2024-09-07T13:44:05Z</time>
      </trkpt>
      <trkpt lat="48.36323" lon="-3.56498">
        <ele>201.6</ele>
        <time>2024-09-07T13:44:06Z</time>
      </trkpt>
      <trkpt lat="48.36325" lon="-3.56492">
        <ele>201.8</ele>
        <time>2024-09-07T13:44:07Z</time>
      </trkpt>
      <trkpt lat="48.36328" lon="-3.56487">
        <ele>202</ele>
        <time>2024-09-07T13:44:08Z</time>
      </trkpt>
      <trkpt lat="48.3633" lon="-3.56481">
        <ele>202.4</ele>
        <time>2024-09-07T13:44:09Z</time>
      </trkpt>
      <trkpt lat="48.36333" lon="-3.56476">
        <ele>202.4</ele>
        <time>2024-09-07T13:44:10Z</time>
      </trkpt>
      <trkpt lat="48.36335" lon="-3.5647">
        <ele>202.6</ele>
        <time>2024-09-07T13:44:11Z</time>
      </trkpt>
      <trkpt lat="48.36338" lon="-3.56464">
        <ele>202.8</ele>
        <time>2024-09-07T13:44:12Z</time>
      </trkpt>
      <trkpt lat="48.3634" lon="-3.56458">
        <ele>202.8</ele>
        <time>2024-09-07T13:44:13Z</time>
      </trkpt>
      <trkpt lat="48.36343" lon="-3.56452">
        <ele>202.8</ele>
        <time>2024-09-07T13:44:14Z</time>
      </trkpt>
      <trkpt lat="48.36346" lon="-3.56446">
        <ele>202.8</ele>
        <time>2024-09-07T13:44:15Z</time>
      </trkpt>
      <trkpt lat="48.36348" lon="-3.5644">
        <ele>202.8</ele>
        <time>2024-09-07T13:44:16Z</time>
      </trkpt>
      <trkpt lat="48.36351" lon="-3.56434">
        <ele>203</ele>
        <time>2024-09-07T13:44:17Z</time>
      </trkpt>
      <trkpt lat="48.36354" lon="-3.56427">
        <ele>203</ele>
        <time>2024-09-07T13:44:18Z</time>
      </trkpt>
      <trkpt lat="48.36356" lon="-3.56421">
        <ele>203</ele>
        <time>2024-09-07T13:44:19Z</time>
      </trkpt>
      <trkpt lat="48.36359" lon="-3.56414">
        <ele>203</ele>
        <time>2024-09-07T13:44:20Z</time>
      </trkpt>
      <trkpt lat="48.36361" lon="-3.56409">
        <ele>203.2</ele>
        <time>2024-09-07T13:44:21Z</time>
      </trkpt>
      <trkpt lat="48.36364" lon="-3.56402">
        <ele>203.2</ele>
        <time>2024-09-07T13:44:22Z</time>
      </trkpt>
      <trkpt lat="48.36367" lon="-3.56396">
        <ele>203.4</ele>
        <time>2024-09-07T13:44:23Z</time>
      </trkpt>
      <trkpt lat="48.3637" lon="-3.56389">
        <ele>203.4</ele>
        <time>2024-09-07T13:44:24Z</time>
      </trkpt>
      <trkpt lat="48.36373" lon="-3.56382">
        <ele>203.4</ele>
        <time>2024-09-07T13:44:25Z</time>
      </trkpt>
      <trkpt lat="48.36376" lon="-3.56375">
        <ele>203.4</ele>
        <time>2024-09-07T13:44:26Z</time>
      </trkpt>
      <trkpt lat="48.36379" lon="-3.56367">
        <ele>203.4</ele>
        <time>2024-09-07T13:44:27Z</time>
      </trkpt>
      <trkpt lat="48.36383" lon="-3.56358">
        <ele>203.2</ele>
        <time>2024-09-07T13:44:28Z</time>
      </trkpt>
      <trkpt lat="48.36385" lon="-3.56352">
        <ele>203.2</ele>
        <time>2024-09-07T13:44:29Z</time>
      </trkpt>
      <trkpt lat="48.36389" lon="-3.56344">
        <ele>203.4</ele>
        <time>2024-09-07T13:44:30Z</time>
      </trkpt>
      <trkpt lat="48.36392" lon="-3.56337">
        <ele>203.4</ele>
        <time>2024-09-07T13:44:31Z</time>
      </trkpt>
      <trkpt lat="48.36395" lon="-3.56329">
        <ele>203.4</ele>
        <time>2024-09-07T13:44:32Z</time>
      </trkpt>
      <trkpt lat="48.36399" lon="-3.56321">
        <ele>203.4</ele>
        <time>2024-09-07T13:44:33Z</time>
      </trkpt>
      <trkpt lat="48.36402" lon="-3.56313">
        <ele>203.4</ele>
        <time>2024-09-07T13:44:34Z</time>
      </trkpt>
      <trkpt lat="48.36406" lon="-3.56304">
        <ele>203.2</ele>
        <time>2024-09-07T13:44:35Z</time>
      </trkpt>
      <trkpt lat="48.3641" lon="-3.56296">
        <ele>203.2</ele>
        <time>2024-09-07T13:44:36Z</time>
      </trkpt>
      <trkpt lat="48.36414" lon="-3.56287">
        <ele>203.2</ele>
        <time>2024-09-07T13:44:37Z</time>
      </trkpt>
      <trkpt lat="48.36418" lon="-3.56278">
        <ele>203</ele>
        <time>2024-09-07T13:44:38Z</time>
      </trkpt>
      <trkpt lat="48.36422" lon="-3.56269">
        <ele>202.8</ele>
        <time>2024-09-07T13:44:39Z</time>
      </trkpt>
      <trkpt lat="48.36426" lon="-3.5626">
        <ele>202.6</ele>
        <time>2024-09-07T13:44:40Z</time>
      </trkpt>
      <trkpt lat="48.3643" lon="-3.5625">
        <ele>202.6</ele>
        <time>2024-09-07T13:44:41Z</time>
      </trkpt>
      <trkpt lat="48.36434" lon="-3.56241">
        <ele>202.4</ele>
        <time>2024-09-07T13:44:42Z</time>
      </trkpt>
      <trkpt lat="48.36437" lon="-3.56234">
        <ele>202.4</ele>
        <time>2024-09-07T13:44:43Z</time>
      </trkpt>
      <trkpt lat="48.36441" lon="-3.56225">
        <ele>202.2</ele>
        <time>2024-09-07T13:44:44Z</time>
      </trkpt>
      <trkpt lat="48.36446" lon="-3.56215">
        <ele>202</ele>
        <time>2024-09-07T13:44:45Z</time>
      </trkpt>
      <trkpt lat="48.36449" lon="-3.56207">
        <ele>201.8</ele>
        <time>2024-09-07T13:44:46Z</time>
      </trkpt>
      <trkpt lat="48.36453" lon="-3.56196">
        <ele>201.4</ele>
        <time>2024-09-07T13:44:47Z</time>
      </trkpt>
      <trkpt lat="48.36456" lon="-3.56189">
        <ele>201.2</ele>
        <time>2024-09-07T13:44:48Z</time>
      </trkpt>
      <trkpt lat="48.3646" lon="-3.56181">
        <ele>201.2</ele>
        <time>2024-09-07T13:44:49Z</time>
      </trkpt>
      <trkpt lat="48.36464" lon="-3.56172">
        <ele>201</ele>
        <time>2024-09-07T13:44:50Z</time>
      </trkpt>
      <trkpt lat="48.36468" lon="-3.56163">
        <ele>201</ele>
        <time>2024-09-07T13:44:51Z</time>
      </trkpt>
      <trkpt lat="48.36472" lon="-3.56155">
        <ele>201</ele>
        <time>2024-09-07T13:44:52Z</time>
      </trkpt>
      <trkpt lat="48.36476" lon="-3.56146">
        <ele>200.6</ele>
        <time>2024-09-07T13:44:53Z</time>
      </trkpt>
      <trkpt lat="48.3648" lon="-3.56137">
        <ele>200.6</ele>
        <time>2024-09-07T13:44:54Z</time>
      </trkpt>
      <trkpt lat="48.36484" lon="-3.56128">
        <ele>200.4</ele>
        <time>2024-09-07T13:44:55Z</time>
      </trkpt>
      <trkpt lat="48.36488" lon="-3.56119">
        <ele>200.4</ele>
        <time>2024-09-07T13:44:56Z</time>
      </trkpt>
      <trkpt lat="48.36493" lon="-3.5611">
        <ele>200.2</ele>
        <time>2024-09-07T13:44:57Z</time>
      </trkpt>
      <trkpt lat="48.36497" lon="-3.56101">
        <ele>200.2</ele>
        <time>2024-09-07T13:44:58Z</time>
      </trkpt>
      <trkpt lat="48.36501" lon="-3.56092">
        <ele>200.2</ele>
        <time>2024-09-07T13:44:59Z</time>
      </trkpt>
      <trkpt lat="48.36506" lon="-3.56083">
        <ele>200</ele>
        <time>2024-09-07T13:45:00Z</time>
      </trkpt>
      <trkpt lat="48.3651" lon="-3.56075">
        <ele>200</ele>
        <time>2024-09-07T13:45:01Z</time>
      </trkpt>
      <trkpt lat="48.36514" lon="-3.56066">
        <ele>200</ele>
        <time>2024-09-07T13:45:02Z</time>
      </trkpt>
      <trkpt lat="48.36519" lon="-3.56058">
        <ele>200</ele>
        <time>2024-09-07T13:45:03Z</time>
      </trkpt>
      <trkpt lat="48.36523" lon="-3.56049">
        <ele>200</ele>
        <time>2024-09-07T13:45:04Z</time>
      </trkpt>
      <trkpt lat="48.36528" lon="-3.56041">
        <ele>200</ele>
        <time>2024-09-07T13:45:05Z</time>
      </trkpt>
      <trkpt lat="48.36532" lon="-3.56033">
        <ele>200</ele>
        <time>2024-09-07T13:45:06Z</time>
      </trkpt>
      <trkpt lat="48.36536" lon="-3.56025">
        <ele>200</ele>
        <time>2024-09-07T13:45:07Z</time>
      </trkpt>
      <trkpt lat="48.36541" lon="-3.56018">
        <ele>200</ele>
        <time>2024-09-07T13:45:08Z</time>
      </trkpt>
      <trkpt lat="48.36545" lon="-3.56011">
        <ele>200</ele>
        <time>2024-09-07T13:45:09Z</time>
      </trkpt>
      <trkpt lat="48.36549" lon="-3.56004">
        <ele>200</ele>
        <time>2024-09-07T13:45:10Z</time>
      </trkpt>
      <trkpt lat="48.36553" lon="-3.55997">
        <ele>200</ele>
        <time>2024-09-07T13:45:11Z</time>
      </trkpt>
      <trkpt lat="48.36557" lon="-3.5599">
        <ele>200</ele>
        <time>2024-09-07T13:45:12Z</time>
      </trkpt>
      <trkpt lat="48.36561" lon="-3.55984">
        <ele>200</ele>
        <time>2024-09-07T13:45:13Z</time>
      </trkpt>
      <trkpt lat="48.36566" lon="-3.55977">
        <ele>200</ele>
        <time>2024-09-07T13:45:14Z</time>
      </trkpt>
      <trkpt lat="48.36569" lon="-3.5597">
        <ele>200</ele>
        <time>2024-09-07T13:45:15Z</time>
      </trkpt>
      <trkpt lat="48.36573" lon="-3.55964">
        <ele>200</ele>
        <time>2024-09-07T13:45:16Z</time>
      </trkpt>
      <trkpt lat="48.36577" lon="-3.55957">
        <ele>200.2</ele>
        <time>2024-09-07T13:45:17Z</time>
      </trkpt>
      <trkpt lat="48.36581" lon="-3.5595">
        <ele>200.2</ele>
        <time>2024-09-07T13:45:18Z</time>
      </trkpt>
      <trkpt lat="48.36584" lon="-3.55944">
        <ele>200.2</ele>
        <time>2024-09-07T13:45:19Z</time>
      </trkpt>
      <trkpt lat="48.36588" lon="-3.55938">
        <ele>200.4</ele>
        <time>2024-09-07T13:45:20Z</time>
      </trkpt>
      <trkpt lat="48.36592" lon="-3.55931">
        <ele>200.4</ele>
        <time>2024-09-07T13:45:21Z</time>
      </trkpt>
      <trkpt lat="48.36595" lon="-3.55925">
        <ele>200.6</ele>
        <time>2024-09-07T13:45:22Z</time>
      </trkpt>
      <trkpt lat="48.36599" lon="-3.5592">
        <ele>200.6</ele>
        <time>2024-09-07T13:45:23Z</time>
      </trkpt>
      <trkpt lat="48.36602" lon="-3.55914">
        <ele>200.8</ele>
        <time>2024-09-07T13:45:24Z</time>
      </trkpt>
      <trkpt lat="48.36605" lon="-3.55907">
        <ele>201</ele>
        <time>2024-09-07T13:45:25Z</time>
      </trkpt>
      <trkpt lat="48.36609" lon="-3.55902">
        <ele>201.2</ele>
        <time>2024-09-07T13:45:26Z</time>
      </trkpt>
      <trkpt lat="48.36612" lon="-3.55897">
        <ele>201.4</ele>
        <time>2024-09-07T13:45:27Z</time>
      </trkpt>
      <trkpt lat="48.36615" lon="-3.55892">
        <ele>201.6</ele>
        <time>2024-09-07T13:45:28Z</time>
      </trkpt>
      <trkpt lat="48.36617" lon="-3.55887">
        <ele>201.8</ele>
        <time>2024-09-07T13:45:29Z</time>
      </trkpt>
      <trkpt lat="48.3662" lon="-3.55882">
        <ele>202</ele>
        <time>2024-09-07T13:45:30Z</time>
      </trkpt>
      <trkpt lat="48.36623" lon="-3.55878">
        <ele>202.2</ele>
        <time>2024-09-07T13:45:31Z</time>
      </trkpt>
      <trkpt lat="48.36625" lon="-3.55874">
        <ele>202.4</ele>
        <time>2024-09-07T13:45:32Z</time>
      </trkpt>
      <trkpt lat="48.36627" lon="-3.5587">
        <ele>202.6</ele>
        <time>2024-09-07T13:45:33Z</time>
      </trkpt>
      <trkpt lat="48.36629" lon="-3.55866">
        <ele>202.6</ele>
        <time>2024-09-07T13:45:34Z</time>
      </trkpt>
      <trkpt lat="48.36632" lon="-3.55861">
        <ele>203</ele>
        <time>2024-09-07T13:45:35Z</time>
      </trkpt>
      <trkpt lat="48.36633" lon="-3.55858">
        <ele>203</ele>
        <time>2024-09-07T13:45:36Z</time>
      </trkpt>
      <trkpt lat="48.36636" lon="-3.55854">
        <ele>203.2</ele>
        <time>2024-09-07T13:45:37Z</time>
      </trkpt>
      <trkpt lat="48.36638" lon="-3.55849">
        <ele>203.8</ele>
        <time>2024-09-07T13:45:38Z</time>
      </trkpt>
      <trkpt lat="48.36641" lon="-3.55845">
        <ele>204</ele>
        <time>2024-09-07T13:45:39Z</time>
      </trkpt>
      <trkpt lat="48.36643" lon="-3.55841">
        <ele>204.2</ele>
        <time>2024-09-07T13:45:40Z</time>
      </trkpt>
      <trkpt lat="48.36646" lon="-3.55837">
        <ele>204.6</ele>
        <time>2024-09-07T13:45:41Z</time>
      </trkpt>
      <trkpt lat="48.36648" lon="-3.55834">
        <ele>205</ele>
        <time>2024-09-07T13:45:42Z</time>
      </trkpt>
      <trkpt lat="48.36651" lon="-3.55829">
        <ele>205.2</ele>
        <time>2024-09-07T13:45:43Z</time>
      </trkpt>
      <trkpt lat="48.36654" lon="-3.55824">
        <ele>205.6</ele>
        <time>2024-09-07T13:45:44Z</time>
      </trkpt>
      <trkpt lat="48.36656" lon="-3.55821">
        <ele>205.8</ele>
        <time>2024-09-07T13:45:45Z</time>
      </trkpt>
      <trkpt lat="48.36658" lon="-3.55817">
        <ele>206</ele>
        <time>2024-09-07T13:45:46Z</time>
      </trkpt>
      <trkpt lat="48.36661" lon="-3.55813">
        <ele>206.4</ele>
        <time>2024-09-07T13:45:47Z</time>
      </trkpt>
      <trkpt lat="48.36664" lon="-3.5581">
        <ele>206.6</ele>
        <time>2024-09-07T13:45:48Z</time>
      </trkpt>
      <trkpt lat="48.36667" lon="-3.55806">
        <ele>206.8</ele>
        <time>2024-09-07T13:45:49Z</time>
      </trkpt>
      <trkpt lat="48.3667" lon="-3.55801">
        <ele>206.8</ele>
        <time>2024-09-07T13:45:50Z</time>
      </trkpt>
      <trkpt lat="48.36672" lon="-3.55798">
        <ele>207</ele>
        <time>2024-09-07T13:45:51Z</time>
      </trkpt>
      <trkpt lat="48.36675" lon="-3.55794">
        <ele>207.2</ele>
        <time>2024-09-07T13:45:52Z</time>
      </trkpt>
      <trkpt lat="48.36678" lon="-3.55791">
        <ele>207.6</ele>
        <time>2024-09-07T13:45:53Z</time>
      </trkpt>
      <trkpt lat="48.3668" lon="-3.55788">
        <ele>207.6</ele>
        <time>2024-09-07T13:45:54Z</time>
      </trkpt>
      <trkpt lat="48.36683" lon="-3.55785">
        <ele>208</ele>
        <time>2024-09-07T13:45:55Z</time>
      </trkpt>
      <trkpt lat="48.36686" lon="-3.55782">
        <ele>208</ele>
        <time>2024-09-07T13:45:56Z</time>
      </trkpt>
      <trkpt lat="48.36688" lon="-3.55779">
        <ele>208</ele>
        <time>2024-09-07T13:45:57Z</time>
      </trkpt>
      <trkpt lat="48.3669" lon="-3.55777">
        <ele>208.4</ele>
        <time>2024-09-07T13:45:58Z</time>
      </trkpt>
      <trkpt lat="48.36693" lon="-3.55774">
        <ele>208.6</ele>
        <time>2024-09-07T13:45:59Z</time>
      </trkpt>
      <trkpt lat="48.36695" lon="-3.55771">
        <ele>208.8</ele>
        <time>2024-09-07T13:46:00Z</time>
      </trkpt>
      <trkpt lat="48.36698" lon="-3.55768">
        <ele>209</ele>
        <time>2024-09-07T13:46:01Z</time>
      </trkpt>
      <trkpt lat="48.367" lon="-3.55766">
        <ele>209.2</ele>
        <time>2024-09-07T13:46:02Z</time>
      </trkpt>
      <trkpt lat="48.36703" lon="-3.55763">
        <ele>209.2</ele>
        <time>2024-09-07T13:46:03Z</time>
      </trkpt>
      <trkpt lat="48.36705" lon="-3.5576">
        <ele>209.4</ele>
        <time>2024-09-07T13:46:04Z</time>
      </trkpt>
      <trkpt lat="48.36708" lon="-3.55757">
        <ele>209.6</ele>
        <time>2024-09-07T13:46:05Z</time>
      </trkpt>
      <trkpt lat="48.36711" lon="-3.55753">
        <ele>209.6</ele>
        <time>2024-09-07T13:46:06Z</time>
      </trkpt>
      <trkpt lat="48.36714" lon="-3.5575">
        <ele>209.6</ele>
        <time>2024-09-07T13:46:07Z</time>
      </trkpt>
      <trkpt lat="48.36718" lon="-3.55746">
        <ele>209.8</ele>
        <time>2024-09-07T13:46:08Z</time>
      </trkpt>
      <trkpt lat="48.36722" lon="-3.55742">
        <ele>209.8</ele>
        <time>2024-09-07T13:46:09Z</time>
      </trkpt>
      <trkpt lat="48.36726" lon="-3.55739">
        <ele>210.2</ele>
        <time>2024-09-07T13:46:10Z</time>
      </trkpt>
      <trkpt lat="48.36729" lon="-3.55737">
        <ele>210.2</ele>
        <time>2024-09-07T13:46:11Z</time>
      </trkpt>
      <trkpt lat="48.36733" lon="-3.55733">
        <ele>210.2</ele>
        <time>2024-09-07T13:46:12Z</time>
      </trkpt>
      <trkpt lat="48.36737" lon="-3.55729">
        <ele>210.4</ele>
        <time>2024-09-07T13:46:13Z</time>
      </trkpt>
      <trkpt lat="48.36741" lon="-3.55724">
        <ele>210.6</ele>
        <time>2024-09-07T13:46:14Z</time>
      </trkpt>
      <trkpt lat="48.36747" lon="-3.5572">
        <ele>210.8</ele>
        <time>2024-09-07T13:46:15Z</time>
      </trkpt>
      <trkpt lat="48.36751" lon="-3.55714">
        <ele>210.8</ele>
        <time>2024-09-07T13:46:16Z</time>
      </trkpt>
      <trkpt lat="48.36756" lon="-3.55707">
        <ele>211</ele>
        <time>2024-09-07T13:46:17Z</time>
      </trkpt>
      <trkpt lat="48.36759" lon="-3.55703">
        <ele>211</ele>
        <time>2024-09-07T13:46:18Z</time>
      </trkpt>
      <trkpt lat="48.36761" lon="-3.55697">
        <ele>211</ele>
        <time>2024-09-07T13:46:19Z</time>
      </trkpt>
      <trkpt lat="48.36765" lon="-3.55692">
        <ele>211</ele>
        <time>2024-09-07T13:46:20Z</time>
      </trkpt>
      <trkpt lat="48.3677" lon="-3.55687">
        <ele>211</ele>
        <time>2024-09-07T13:46:21Z</time>
      </trkpt>
      <trkpt lat="48.36773" lon="-3.55682">
        <ele>211.2</ele>
        <time>2024-09-07T13:46:22Z</time>
      </trkpt>
      <trkpt lat="48.36778" lon="-3.55677">
        <ele>211.2</ele>
        <time>2024-09-07T13:46:23Z</time>
      </trkpt>
      <trkpt lat="48.36782" lon="-3.55671">
        <ele>211.2</ele>
        <time>2024-09-07T13:46:24Z</time>
      </trkpt>
      <trkpt lat="48.36788" lon="-3.55664">
        <ele>211.2</ele>
        <time>2024-09-07T13:46:25Z</time>
      </trkpt>
      <trkpt lat="48.36793" lon="-3.55658">
        <ele>211.2</ele>
        <time>2024-09-07T13:46:26Z</time>
      </trkpt>
      <trkpt lat="48.36798" lon="-3.55651">
        <ele>211.2</ele>
        <time>2024-09-07T13:46:27Z</time>
      </trkpt>
      <trkpt lat="48.36803" lon="-3.55644">
        <ele>211</ele>
        <time>2024-09-07T13:46:28Z</time>
      </trkpt>
      <trkpt lat="48.36807" lon="-3.55638">
        <ele>211</ele>
        <time>2024-09-07T13:46:29Z</time>
      </trkpt>
      <trkpt lat="48.36813" lon="-3.5563">
        <ele>210.8</ele>
        <time>2024-09-07T13:46:30Z</time>
      </trkpt>
      <trkpt lat="48.36819" lon="-3.55623">
        <ele>210.6</ele>
        <time>2024-09-07T13:46:31Z</time>
      </trkpt>
      <trkpt lat="48.36825" lon="-3.55614">
        <ele>210.4</ele>
        <time>2024-09-07T13:46:32Z</time>
      </trkpt>
      <trkpt lat="48.36832" lon="-3.55606">
        <ele>210</ele>
        <time>2024-09-07T13:46:33Z</time>
      </trkpt>
      <trkpt lat="48.36838" lon="-3.55597">
        <ele>209.6</ele>
        <time>2024-09-07T13:46:34Z</time>
      </trkpt>
      <trkpt lat="48.36847" lon="-3.55586">
        <ele>209.2</ele>
        <time>2024-09-07T13:46:35Z</time>
      </trkpt>
      <trkpt lat="48.36853" lon="-3.55578">
        <ele>208.8</ele>
        <time>2024-09-07T13:46:36Z</time>
      </trkpt>
      <trkpt lat="48.36861" lon="-3.55569">
        <ele>208.4</ele>
        <time>2024-09-07T13:46:37Z</time>
      </trkpt>
      <trkpt lat="48.36867" lon="-3.55562">
        <ele>208</ele>
        <time>2024-09-07T13:46:38Z</time>
      </trkpt>
      <trkpt lat="48.36875" lon="-3.55553">
        <ele>207.6</ele>
        <time>2024-09-07T13:46:39Z</time>
      </trkpt>
      <trkpt lat="48.36882" lon="-3.55543">
        <ele>207</ele>
        <time>2024-09-07T13:46:40Z</time>
      </trkpt>
      <trkpt lat="48.36891" lon="-3.55529">
        <ele>206.4</ele>
        <time>2024-09-07T13:46:41Z</time>
      </trkpt>
      <trkpt lat="48.36897" lon="-3.55517">
        <ele>206.4</ele>
        <time>2024-09-07T13:46:42Z</time>
      </trkpt>
      <trkpt lat="48.36901" lon="-3.55506">
        <ele>206</ele>
        <time>2024-09-07T13:46:43Z</time>
      </trkpt>
      <trkpt lat="48.36907" lon="-3.55493">
        <ele>205.4</ele>
        <time>2024-09-07T13:46:44Z</time>
      </trkpt>
      <trkpt lat="48.36913" lon="-3.55478">
        <ele>204.8</ele>
        <time>2024-09-07T13:46:45Z</time>
      </trkpt>
      <trkpt lat="48.36919" lon="-3.55464">
        <ele>204</ele>
        <time>2024-09-07T13:46:46Z</time>
      </trkpt>
      <trkpt lat="48.36925" lon="-3.55452">
        <ele>203</ele>
        <time>2024-09-07T13:46:47Z</time>
      </trkpt>
      <trkpt lat="48.36929" lon="-3.55436">
        <ele>202.2</ele>
        <time>2024-09-07T13:46:48Z</time>
      </trkpt>
      <trkpt lat="48.36931" lon="-3.55423">
        <ele>201.2</ele>
        <time>2024-09-07T13:46:49Z</time>
      </trkpt>
      <trkpt lat="48.36934" lon="-3.5541">
        <ele>200.4</ele>
        <time>2024-09-07T13:46:50Z</time>
      </trkpt>
      <trkpt lat="48.36938" lon="-3.55399">
        <ele>200</ele>
        <time>2024-09-07T13:46:51Z</time>
      </trkpt>
      <trkpt lat="48.36941" lon="-3.55388">
        <ele>199.8</ele>
        <time>2024-09-07T13:46:52Z</time>
      </trkpt>
      <trkpt lat="48.36944" lon="-3.55378">
        <ele>199.6</ele>
        <time>2024-09-07T13:46:53Z</time>
      </trkpt>
      <trkpt lat="48.36946" lon="-3.55369">
        <ele>199.6</ele>
        <time>2024-09-07T13:46:54Z</time>
      </trkpt>
      <trkpt lat="48.36949" lon="-3.55362">
        <ele>199.6</ele>
        <time>2024-09-07T13:46:55Z</time>
      </trkpt>
      <trkpt lat="48.3695" lon="-3.55354">
        <ele>199.6</ele>
        <time>2024-09-07T13:46:56Z</time>
      </trkpt>
      <trkpt lat="48.36954" lon="-3.55346">
        <ele>199.6</ele>
        <time>2024-09-07T13:46:57Z</time>
      </trkpt>
      <trkpt lat="48.36958" lon="-3.55339">
        <ele>199.6</ele>
        <time>2024-09-07T13:46:58Z</time>
      </trkpt>
      <trkpt lat="48.36961" lon="-3.55333">
        <ele>199.6</ele>
        <time>2024-09-07T13:46:59Z</time>
      </trkpt>
      <trkpt lat="48.36965" lon="-3.55327">
        <ele>199.6</ele>
        <time>2024-09-07T13:47:00Z</time>
      </trkpt>
      <trkpt lat="48.36969" lon="-3.5532">
        <ele>200</ele>
        <time>2024-09-07T13:47:01Z</time>
      </trkpt>
      <trkpt lat="48.36972" lon="-3.55314">
        <ele>200.6</ele>
        <time>2024-09-07T13:47:02Z</time>
      </trkpt>
      <trkpt lat="48.36976" lon="-3.55308">
        <ele>201</ele>
        <time>2024-09-07T13:47:03Z</time>
      </trkpt>
      <trkpt lat="48.3698" lon="-3.55302">
        <ele>201</ele>
        <time>2024-09-07T13:47:04Z</time>
      </trkpt>
      <trkpt lat="48.36984" lon="-3.55296">
        <ele>201.4</ele>
        <time>2024-09-07T13:47:05Z</time>
      </trkpt>
      <trkpt lat="48.36987" lon="-3.55291">
        <ele>201.8</ele>
        <time>2024-09-07T13:47:06Z</time>
      </trkpt>
      <trkpt lat="48.36992" lon="-3.55284">
        <ele>202</ele>
        <time>2024-09-07T13:47:07Z</time>
      </trkpt>
      <trkpt lat="48.36997" lon="-3.55278">
        <ele>202.4</ele>
        <time>2024-09-07T13:47:08Z</time>
      </trkpt>
      <trkpt lat="48.37002" lon="-3.55272">
        <ele>202.6</ele>
        <time>2024-09-07T13:47:09Z</time>
      </trkpt>
      <trkpt lat="48.37006" lon="-3.55266">
        <ele>202.8</ele>
        <time>2024-09-07T13:47:10Z</time>
      </trkpt>
      <trkpt lat="48.37011" lon="-3.5526">
        <ele>203</ele>
        <time>2024-09-07T13:47:11Z</time>
      </trkpt>
      <trkpt lat="48.37016" lon="-3.55255">
        <ele>203.2</ele>
        <time>2024-09-07T13:47:12Z</time>
      </trkpt>
      <trkpt lat="48.37021" lon="-3.5525">
        <ele>203.4</ele>
        <time>2024-09-07T13:47:13Z</time>
      </trkpt>
      <trkpt lat="48.37026" lon="-3.55245">
        <ele>203.6</ele>
        <time>2024-09-07T13:47:14Z</time>
      </trkpt>
      <trkpt lat="48.37031" lon="-3.55241">
        <ele>203.8</ele>
        <time>2024-09-07T13:47:15Z</time>
      </trkpt>
      <trkpt lat="48.37036" lon="-3.55236">
        <ele>203.8</ele>
        <time>2024-09-07T13:47:16Z</time>
      </trkpt>
      <trkpt lat="48.37042" lon="-3.55231">
        <ele>204</ele>
        <time>2024-09-07T13:47:17Z</time>
      </trkpt>
      <trkpt lat="48.37047" lon="-3.55227">
        <ele>203.8</ele>
        <time>2024-09-07T13:47:18Z</time>
      </trkpt>
      <trkpt lat="48.37052" lon="-3.55222">
        <ele>203.8</ele>
        <time>2024-09-07T13:47:19Z</time>
      </trkpt>
      <trkpt lat="48.37057" lon="-3.55219">
        <ele>203.8</ele>
        <time>2024-09-07T13:47:20Z</time>
      </trkpt>
      <trkpt lat="48.37064" lon="-3.55214">
        <ele>203.8</ele>
        <time>2024-09-07T13:47:21Z</time>
      </trkpt>
      <trkpt lat="48.37069" lon="-3.55209">
        <ele>203.8</ele>
        <time>2024-09-07T13:47:22Z</time>
      </trkpt>
      <trkpt lat="48.37075" lon="-3.55204">
        <ele>203.8</ele>
        <time>2024-09-07T13:47:23Z</time>
      </trkpt>
      <trkpt lat="48.37079" lon="-3.55201">
        <ele>203.8</ele>
        <time>2024-09-07T13:47:24Z</time>
      </trkpt>
      <trkpt lat="48.37086" lon="-3.55195">
        <ele>203.8</ele>
        <time>2024-09-07T13:47:25Z</time>
      </trkpt>
      <trkpt lat="48.37092" lon="-3.55191">
        <ele>203.8</ele>
        <time>2024-09-07T13:47:26Z</time>
      </trkpt>
      <trkpt lat="48.37098" lon="-3.55187">
        <ele>203.8</ele>
        <time>2024-09-07T13:47:27Z</time>
      </trkpt>
      <trkpt lat="48.37103" lon="-3.55184">
        <ele>203.6</ele>
        <time>2024-09-07T13:47:28Z</time>
      </trkpt>
      <trkpt lat="48.37109" lon="-3.5518">
        <ele>203.6</ele>
        <time>2024-09-07T13:47:29Z</time>
      </trkpt>
      <trkpt lat="48.37116" lon="-3.55175">
        <ele>203.4</ele>
        <time>2024-09-07T13:47:30Z</time>
      </trkpt>
      <trkpt lat="48.37121" lon="-3.55171">
        <ele>203.2</ele>
        <time>2024-09-07T13:47:31Z</time>
      </trkpt>
      <trkpt lat="48.37127" lon="-3.55167">
        <ele>203.2</ele>
        <time>2024-09-07T13:47:32Z</time>
      </trkpt>
      <trkpt lat="48.37132" lon="-3.55163">
        <ele>203</ele>
        <time>2024-09-07T13:47:33Z</time>
      </trkpt>
      <trkpt lat="48.37138" lon="-3.55158">
        <ele>203</ele>
        <time>2024-09-07T13:47:34Z</time>
      </trkpt>
      <trkpt lat="48.37142" lon="-3.55153">
        <ele>203</ele>
        <time>2024-09-07T13:47:35Z</time>
      </trkpt>
      <trkpt lat="48.37147" lon="-3.55148">
        <ele>203</ele>
        <time>2024-09-07T13:47:36Z</time>
      </trkpt>
      <trkpt lat="48.37151" lon="-3.55143">
        <ele>203</ele>
        <time>2024-09-07T13:47:37Z</time>
      </trkpt>
      <trkpt lat="48.37156" lon="-3.55139">
        <ele>203</ele>
        <time>2024-09-07T13:47:38Z</time>
      </trkpt>
      <trkpt lat="48.3716" lon="-3.55134">
        <ele>203</ele>
        <time>2024-09-07T13:47:39Z</time>
      </trkpt>
      <trkpt lat="48.37164" lon="-3.55129">
        <ele>203</ele>
        <time>2024-09-07T13:47:40Z</time>
      </trkpt>
      <trkpt lat="48.37168" lon="-3.55124">
        <ele>203</ele>
        <time>2024-09-07T13:47:41Z</time>
      </trkpt>
      <trkpt lat="48.37172" lon="-3.55119">
        <ele>203</ele>
        <time>2024-09-07T13:47:42Z</time>
      </trkpt>
      <trkpt lat="48.37176" lon="-3.55113">
        <ele>203</ele>
        <time>2024-09-07T13:47:43Z</time>
      </trkpt>
      <trkpt lat="48.3718" lon="-3.55108">
        <ele>203</ele>
        <time>2024-09-07T13:47:44Z</time>
      </trkpt>
      <trkpt lat="48.37184" lon="-3.55102">
        <ele>203</ele>
        <time>2024-09-07T13:47:45Z</time>
      </trkpt>
      <trkpt lat="48.37188" lon="-3.55096">
        <ele>203</ele>
        <time>2024-09-07T13:47:46Z</time>
      </trkpt>
      <trkpt lat="48.37192" lon="-3.55091">
        <ele>203</ele>
        <time>2024-09-07T13:47:47Z</time>
      </trkpt>
      <trkpt lat="48.37196" lon="-3.55085">
        <ele>203.2</ele>
        <time>2024-09-07T13:47:48Z</time>
      </trkpt>
      <trkpt lat="48.372" lon="-3.5508">
        <ele>203.2</ele>
        <time>2024-09-07T13:47:49Z</time>
      </trkpt>
      <trkpt lat="48.37203" lon="-3.55074">
        <ele>203.2</ele>
        <time>2024-09-07T13:47:50Z</time>
      </trkpt>
      <trkpt lat="48.37208" lon="-3.55069">
        <ele>203.4</ele>
        <time>2024-09-07T13:47:51Z</time>
      </trkpt>
      <trkpt lat="48.37211" lon="-3.55062">
        <ele>203.6</ele>
        <time>2024-09-07T13:47:52Z</time>
      </trkpt>
      <trkpt lat="48.37215" lon="-3.55057">
        <ele>203.8</ele>
        <time>2024-09-07T13:47:53Z</time>
      </trkpt>
      <trkpt lat="48.37219" lon="-3.55051">
        <ele>203.8</ele>
        <time>2024-09-07T13:47:54Z</time>
      </trkpt>
      <trkpt lat="48.37223" lon="-3.55046">
        <ele>204</ele>
        <time>2024-09-07T13:47:55Z</time>
      </trkpt>
      <trkpt lat="48.37227" lon="-3.5504">
        <ele>204</ele>
        <time>2024-09-07T13:47:56Z</time>
      </trkpt>
      <trkpt lat="48.3723" lon="-3.55034">
        <ele>204</ele>
        <time>2024-09-07T13:47:57Z</time>
      </trkpt>
      <trkpt lat="48.37234" lon="-3.55027">
        <ele>204</ele>
        <time>2024-09-07T13:47:58Z</time>
      </trkpt>
      <trkpt lat="48.37238" lon="-3.55021">
        <ele>204.2</ele>
        <time>2024-09-07T13:47:59Z</time>
      </trkpt>
      <trkpt lat="48.37242" lon="-3.55014">
        <ele>204.2</ele>
        <time>2024-09-07T13:48:00Z</time>
      </trkpt>
      <trkpt lat="48.37246" lon="-3.55007">
        <ele>204.2</ele>
        <time>2024-09-07T13:48:01Z</time>
      </trkpt>
      <trkpt lat="48.3725" lon="-3.54999">
        <ele>204.2</ele>
        <time>2024-09-07T13:48:02Z</time>
      </trkpt>
      <trkpt lat="48.37254" lon="-3.5499">
        <ele>204.2</ele>
        <time>2024-09-07T13:48:03Z</time>
      </trkpt>
      <trkpt lat="48.37258" lon="-3.54981">
        <ele>204.2</ele>
        <time>2024-09-07T13:48:04Z</time>
      </trkpt>
      <trkpt lat="48.37261" lon="-3.54972">
        <ele>204.2</ele>
        <time>2024-09-07T13:48:05Z</time>
      </trkpt>
      <trkpt lat="48.37265" lon="-3.54963">
        <ele>204.2</ele>
        <time>2024-09-07T13:48:06Z</time>
      </trkpt>
      <trkpt lat="48.37269" lon="-3.54955">
        <ele>204.2</ele>
        <time>2024-09-07T13:48:07Z</time>
      </trkpt>
      <trkpt lat="48.37273" lon="-3.54946">
        <ele>204.2</ele>
        <time>2024-09-07T13:48:08Z</time>
      </trkpt>
      <trkpt lat="48.37277" lon="-3.54937">
        <ele>204.2</ele>
        <time>2024-09-07T13:48:09Z</time>
      </trkpt>
      <trkpt lat="48.37281" lon="-3.54928">
        <ele>204</ele>
        <time>2024-09-07T13:48:10Z</time>
      </trkpt>
      <trkpt lat="48.37285" lon="-3.54919">
        <ele>204</ele>
        <time>2024-09-07T13:48:11Z</time>
      </trkpt>
      <trkpt lat="48.37289" lon="-3.5491">
        <ele>204</ele>
        <time>2024-09-07T13:48:12Z</time>
      </trkpt>
      <trkpt lat="48.37293" lon="-3.549">
        <ele>203.6</ele>
        <time>2024-09-07T13:48:13Z</time>
      </trkpt>
      <trkpt lat="48.37298" lon="-3.54891">
        <ele>203.4</ele>
        <time>2024-09-07T13:48:14Z</time>
      </trkpt>
      <trkpt lat="48.37302" lon="-3.54882">
        <ele>203.2</ele>
        <time>2024-09-07T13:48:15Z</time>
      </trkpt>
      <trkpt lat="48.37306" lon="-3.54873">
        <ele>203</ele>
        <time>2024-09-07T13:48:16Z</time>
      </trkpt>
      <trkpt lat="48.3731" lon="-3.54864">
        <ele>202.8</ele>
        <time>2024-09-07T13:48:17Z</time>
      </trkpt>
      <trkpt lat="48.37314" lon="-3.54855">
        <ele>202.6</ele>
        <time>2024-09-07T13:48:18Z</time>
      </trkpt>
      <trkpt lat="48.37318" lon="-3.54846">
        <ele>202.4</ele>
        <time>2024-09-07T13:48:19Z</time>
      </trkpt>
      <trkpt lat="48.37323" lon="-3.54836">
        <ele>202.2</ele>
        <time>2024-09-07T13:48:20Z</time>
      </trkpt>
      <trkpt lat="48.37327" lon="-3.54827">
        <ele>202.2</ele>
        <time>2024-09-07T13:48:21Z</time>
      </trkpt>
      <trkpt lat="48.37331" lon="-3.54818">
        <ele>201.8</ele>
        <time>2024-09-07T13:48:22Z</time>
      </trkpt>
      <trkpt lat="48.37335" lon="-3.54808">
        <ele>201.6</ele>
        <time>2024-09-07T13:48:23Z</time>
      </trkpt>
      <trkpt lat="48.37339" lon="-3.54799">
        <ele>201.4</ele>
        <time>2024-09-07T13:48:24Z</time>
      </trkpt>
      <trkpt lat="48.37343" lon="-3.5479">
        <ele>201.2</ele>
        <time>2024-09-07T13:48:25Z</time>
      </trkpt>
      <trkpt lat="48.37347" lon="-3.5478">
        <ele>201.2</ele>
        <time>2024-09-07T13:48:26Z</time>
      </trkpt>
      <trkpt lat="48.3735" lon="-3.5477">
        <ele>201</ele>
        <time>2024-09-07T13:48:27Z</time>
      </trkpt>
      <trkpt lat="48.37352" lon="-3.54761">
        <ele>201</ele>
        <time>2024-09-07T13:48:28Z</time>
      </trkpt>
      <trkpt lat="48.37355" lon="-3.54751">
        <ele>200.8</ele>
        <time>2024-09-07T13:48:29Z</time>
      </trkpt>
      <trkpt lat="48.37356" lon="-3.54741">
        <ele>200.6</ele>
        <time>2024-09-07T13:48:30Z</time>
      </trkpt>
      <trkpt lat="48.37357" lon="-3.54731">
        <ele>200.6</ele>
        <time>2024-09-07T13:48:31Z</time>
      </trkpt>
      <trkpt lat="48.37355" lon="-3.54722">
        <ele>200.4</ele>
        <time>2024-09-07T13:48:32Z</time>
      </trkpt>
      <trkpt lat="48.37351" lon="-3.54713">
        <ele>200.2</ele>
        <time>2024-09-07T13:48:33Z</time>
      </trkpt>
      <trkpt lat="48.37347" lon="-3.54706">
        <ele>200.2</ele>
        <time>2024-09-07T13:48:34Z</time>
      </trkpt>
      <trkpt lat="48.37343" lon="-3.54699">
        <ele>200.2</ele>
        <time>2024-09-07T13:48:35Z</time>
      </trkpt>
      <trkpt lat="48.3734" lon="-3.54691">
        <ele>200</ele>
        <time>2024-09-07T13:48:36Z</time>
      </trkpt>
      <trkpt lat="48.37338" lon="-3.54683">
        <ele>199.8</ele>
        <time>2024-09-07T13:48:37Z</time>
      </trkpt>
      <trkpt lat="48.37336" lon="-3.54675">
        <ele>199.8</ele>
        <time>2024-09-07T13:48:38Z</time>
      </trkpt>
      <trkpt lat="48.37335" lon="-3.54667">
        <ele>199.8</ele>
        <time>2024-09-07T13:48:39Z</time>
      </trkpt>
      <trkpt lat="48.37334" lon="-3.5466">
        <ele>199.6</ele>
        <time>2024-09-07T13:48:40Z</time>
      </trkpt>
      <trkpt lat="48.37333" lon="-3.54653">
        <ele>199.6</ele>
        <time>2024-09-07T13:48:41Z</time>
      </trkpt>
      <trkpt lat="48.37331" lon="-3.54646">
        <ele>199.6</ele>
        <time>2024-09-07T13:48:42Z</time>
      </trkpt>
      <trkpt lat="48.3733" lon="-3.5464">
        <ele>199.6</ele>
        <time>2024-09-07T13:48:43Z</time>
      </trkpt>
      <trkpt lat="48.37328" lon="-3.54634">
        <ele>199.6</ele>
        <time>2024-09-07T13:48:44Z</time>
      </trkpt>
      <trkpt lat="48.37327" lon="-3.54628">
        <ele>199.6</ele>
        <time>2024-09-07T13:48:45Z</time>
      </trkpt>
      <trkpt lat="48.37326" lon="-3.54622">
        <ele>199.6</ele>
        <time>2024-09-07T13:48:46Z</time>
      </trkpt>
      <trkpt lat="48.37326" lon="-3.54616">
        <ele>199.6</ele>
        <time>2024-09-07T13:48:47Z</time>
      </trkpt>
      <trkpt lat="48.37325" lon="-3.54608">
        <ele>199.6</ele>
        <time>2024-09-07T13:48:48Z</time>
      </trkpt>
      <trkpt lat="48.37324" lon="-3.54603">
        <ele>199.8</ele>
        <time>2024-09-07T13:48:49Z</time>
      </trkpt>
      <trkpt lat="48.37324" lon="-3.54597">
        <ele>200</ele>
        <time>2024-09-07T13:48:50Z</time>
      </trkpt>
      <trkpt lat="48.37323" lon="-3.5459">
        <ele>200.4</ele>
        <time>2024-09-07T13:48:51Z</time>
      </trkpt>
      <trkpt lat="48.37323" lon="-3.54584">
        <ele>200.8</ele>
        <time>2024-09-07T13:48:52Z</time>
      </trkpt>
      <trkpt lat="48.37323" lon="-3.54577">
        <ele>201</ele>
        <time>2024-09-07T13:48:53Z</time>
      </trkpt>
      <trkpt lat="48.37323" lon="-3.5457">
        <ele>201.2</ele>
        <time>2024-09-07T13:48:54Z</time>
      </trkpt>
      <trkpt lat="48.37323" lon="-3.54565">
        <ele>201.6</ele>
        <time>2024-09-07T13:48:55Z</time>
      </trkpt>
      <trkpt lat="48.37322" lon="-3.54559">
        <ele>201.8</ele>
        <time>2024-09-07T13:48:56Z</time>
      </trkpt>
      <trkpt lat="48.37322" lon="-3.54552">
        <ele>201.8</ele>
        <time>2024-09-07T13:48:57Z</time>
      </trkpt>
      <trkpt lat="48.37321" lon="-3.54546">
        <ele>202</ele>
        <time>2024-09-07T13:48:58Z</time>
      </trkpt>
      <trkpt lat="48.37321" lon="-3.5454">
        <ele>202</ele>
        <time>2024-09-07T13:48:59Z</time>
      </trkpt>
      <trkpt lat="48.37321" lon="-3.54532">
        <ele>202.2</ele>
        <time>2024-09-07T13:49:00Z</time>
      </trkpt>
      <trkpt lat="48.3732" lon="-3.54527">
        <ele>202.4</ele>
        <time>2024-09-07T13:49:01Z</time>
      </trkpt>
      <trkpt lat="48.3732" lon="-3.5452">
        <ele>202.4</ele>
        <time>2024-09-07T13:49:02Z</time>
      </trkpt>
      <trkpt lat="48.3732" lon="-3.54514">
        <ele>202.6</ele>
        <time>2024-09-07T13:49:03Z</time>
      </trkpt>
      <trkpt lat="48.37319" lon="-3.54508">
        <ele>202.6</ele>
        <time>2024-09-07T13:49:04Z</time>
      </trkpt>
      <trkpt lat="48.37319" lon="-3.54502">
        <ele>202.8</ele>
        <time>2024-09-07T13:49:05Z</time>
      </trkpt>
      <trkpt lat="48.37318" lon="-3.54496">
        <ele>202.8</ele>
        <time>2024-09-07T13:49:06Z</time>
      </trkpt>
      <trkpt lat="48.37318" lon="-3.5449">
        <ele>203</ele>
        <time>2024-09-07T13:49:07Z</time>
      </trkpt>
      <trkpt lat="48.37317" lon="-3.54484">
        <ele>203</ele>
        <time>2024-09-07T13:49:08Z</time>
      </trkpt>
      <trkpt lat="48.37316" lon="-3.54476">
        <ele>203.2</ele>
        <time>2024-09-07T13:49:09Z</time>
      </trkpt>
      <trkpt lat="48.37316" lon="-3.54472">
        <ele>203.2</ele>
        <time>2024-09-07T13:49:10Z</time>
      </trkpt>
      <trkpt lat="48.37315" lon="-3.54466">
        <ele>203.4</ele>
        <time>2024-09-07T13:49:11Z</time>
      </trkpt>
      <trkpt lat="48.37314" lon="-3.5446">
        <ele>203.6</ele>
        <time>2024-09-07T13:49:12Z</time>
      </trkpt>
      <trkpt lat="48.37313" lon="-3.54454">
        <ele>204</ele>
        <time>2024-09-07T13:49:13Z</time>
      </trkpt>
      <trkpt lat="48.37312" lon="-3.54448">
        <ele>204.2</ele>
        <time>2024-09-07T13:49:14Z</time>
      </trkpt>
      <trkpt lat="48.37311" lon="-3.54443">
        <ele>204.4</ele>
        <time>2024-09-07T13:49:15Z</time>
      </trkpt>
      <trkpt lat="48.3731" lon="-3.54437">
        <ele>204.6</ele>
        <time>2024-09-07T13:49:16Z</time>
      </trkpt>
      <trkpt lat="48.3731" lon="-3.54431">
        <ele>204.8</ele>
        <time>2024-09-07T13:49:17Z</time>
      </trkpt>
      <trkpt lat="48.3731" lon="-3.54426">
        <ele>205.2</ele>
        <time>2024-09-07T13:49:18Z</time>
      </trkpt>
      <trkpt lat="48.37309" lon="-3.54421">
        <ele>205.4</ele>
        <time>2024-09-07T13:49:19Z</time>
      </trkpt>
      <trkpt lat="48.37308" lon="-3.54415">
        <ele>205.4</ele>
        <time>2024-09-07T13:49:20Z</time>
      </trkpt>
      <trkpt lat="48.37308" lon="-3.5441">
        <ele>205.6</ele>
        <time>2024-09-07T13:49:21Z</time>
      </trkpt>
      <trkpt lat="48.37307" lon="-3.54405">
        <ele>205.8</ele>
        <time>2024-09-07T13:49:22Z</time>
      </trkpt>
      <trkpt lat="48.37306" lon="-3.544">
        <ele>206</ele>
        <time>2024-09-07T13:49:23Z</time>
      </trkpt>
      <trkpt lat="48.37305" lon="-3.54395">
        <ele>206.2</ele>
        <time>2024-09-07T13:49:24Z</time>
      </trkpt>
      <trkpt lat="48.37304" lon="-3.5439">
        <ele>206.6</ele>
        <time>2024-09-07T13:49:25Z</time>
      </trkpt>
      <trkpt lat="48.37303" lon="-3.54386">
        <ele>206.8</ele>
        <time>2024-09-07T13:49:26Z</time>
      </trkpt>
      <trkpt lat="48.37302" lon="-3.54381">
        <ele>207</ele>
        <time>2024-09-07T13:49:27Z</time>
      </trkpt>
      <trkpt lat="48.37301" lon="-3.54377">
        <ele>207.2</ele>
        <time>2024-09-07T13:49:28Z</time>
      </trkpt>
      <trkpt lat="48.37299" lon="-3.54372">
        <ele>207.4</ele>
        <time>2024-09-07T13:49:29Z</time>
      </trkpt>
      <trkpt lat="48.37297" lon="-3.54368">
        <ele>207.4</ele>
        <time>2024-09-07T13:49:30Z</time>
      </trkpt>
      <trkpt lat="48.37296" lon="-3.54364">
        <ele>207.6</ele>
        <time>2024-09-07T13:49:31Z</time>
      </trkpt>
      <trkpt lat="48.37294" lon="-3.5436">
        <ele>208</ele>
        <time>2024-09-07T13:49:32Z</time>
      </trkpt>
      <trkpt lat="48.37293" lon="-3.54356">
        <ele>208</ele>
        <time>2024-09-07T13:49:33Z</time>
      </trkpt>
      <trkpt lat="48.37291" lon="-3.54352">
        <ele>208.2</ele>
        <time>2024-09-07T13:49:34Z</time>
      </trkpt>
      <trkpt lat="48.37289" lon="-3.54348">
        <ele>208.6</ele>
        <time>2024-09-07T13:49:35Z</time>
      </trkpt>
      <trkpt lat="48.37288" lon="-3.54343">
        <ele>208.8</ele>
        <time>2024-09-07T13:49:36Z</time>
      </trkpt>
      <trkpt lat="48.37287" lon="-3.54339">
        <ele>209</ele>
        <time>2024-09-07T13:49:37Z</time>
      </trkpt>
      <trkpt lat="48.37285" lon="-3.54335">
        <ele>209.2</ele>
        <time>2024-09-07T13:49:38Z</time>
      </trkpt>
      <trkpt lat="48.37284" lon="-3.54332">
        <ele>209.6</ele>
        <time>2024-09-07T13:49:39Z</time>
      </trkpt>
      <trkpt lat="48.37282" lon="-3.54328">
        <ele>209.8</ele>
        <time>2024-09-07T13:49:40Z</time>
      </trkpt>
      <trkpt lat="48.3728" lon="-3.54323">
        <ele>210.2</ele>
        <time>2024-09-07T13:49:41Z</time>
      </trkpt>
      <trkpt lat="48.37278" lon="-3.54321">
        <ele>210.4</ele>
        <time>2024-09-07T13:49:42Z</time>
      </trkpt>
      <trkpt lat="48.37276" lon="-3.54317">
        <ele>210.4</ele>
        <time>2024-09-07T13:49:43Z</time>
      </trkpt>
      <trkpt lat="48.37273" lon="-3.54313">
        <ele>210.6</ele>
        <time>2024-09-07T13:49:44Z</time>
      </trkpt>
      <trkpt lat="48.37272" lon="-3.54311">
        <ele>210.8</ele>
        <time>2024-09-07T13:49:45Z</time>
      </trkpt>
      <trkpt lat="48.3727" lon="-3.54308">
        <ele>211.2</ele>
        <time>2024-09-07T13:49:46Z</time>
      </trkpt>
      <trkpt lat="48.37268" lon="-3.54304">
        <ele>211.4</ele>
        <time>2024-09-07T13:49:47Z</time>
      </trkpt>
      <trkpt lat="48.37267" lon="-3.54302">
        <ele>211.8</ele>
        <time>2024-09-07T13:49:48Z</time>
      </trkpt>
      <trkpt lat="48.37265" lon="-3.54298">
        <ele>212</ele>
        <time>2024-09-07T13:49:49Z</time>
      </trkpt>
      <trkpt lat="48.37263" lon="-3.54295">
        <ele>212.4</ele>
        <time>2024-09-07T13:49:50Z</time>
      </trkpt>
      <trkpt lat="48.37261" lon="-3.54292">
        <ele>212.8</ele>
        <time>2024-09-07T13:49:51Z</time>
      </trkpt>
      <trkpt lat="48.37259" lon="-3.54289">
        <ele>213</ele>
        <time>2024-09-07T13:49:52Z</time>
      </trkpt>
      <trkpt lat="48.37257" lon="-3.54287">
        <ele>213.4</ele>
        <time>2024-09-07T13:49:53Z</time>
      </trkpt>
      <trkpt lat="48.37254" lon="-3.54285">
        <ele>213.4</ele>
        <time>2024-09-07T13:49:54Z</time>
      </trkpt>
      <trkpt lat="48.37251" lon="-3.54283">
        <ele>213.8</ele>
        <time>2024-09-07T13:49:55Z</time>
      </trkpt>
      <trkpt lat="48.37249" lon="-3.54283">
        <ele>214</ele>
        <time>2024-09-07T13:49:56Z</time>
      </trkpt>
      <trkpt lat="48.37247" lon="-3.54282">
        <ele>214.4</ele>
        <time>2024-09-07T13:49:57Z</time>
      </trkpt>
      <trkpt lat="48.37246" lon="-3.54281">
        <ele>214.6</ele>
        <time>2024-09-07T13:49:58Z</time>
      </trkpt>
      <trkpt lat="48.37246" lon="-3.54281">
        <ele>214.8</ele>
        <time>2024-09-07T13:49:59Z</time>
      </trkpt>
      <trkpt lat="48.37246" lon="-3.54281">
        <ele>215</ele>
        <time>2024-09-07T13:50:00Z</time>
      </trkpt>
      <trkpt lat="48.37248" lon="-3.54272">
        <ele>216.4</ele>
        <time>2024-09-07T13:50:08Z</time>
      </trkpt>
      <trkpt lat="48.37249" lon="-3.54269">
        <ele>216.4</ele>
        <time>2024-09-07T13:50:09Z</time>
      </trkpt>
      <trkpt lat="48.37249" lon="-3.54267">
        <ele>216.4</ele>
        <time>2024-09-07T13:50:10Z</time>
      </trkpt>
      <trkpt lat="48.3725" lon="-3.54265">
        <ele>216.4</ele>
        <time>2024-09-07T13:50:11Z</time>
      </trkpt>
      <trkpt lat="48.3725" lon="-3.54262">
        <ele>216.4</ele>
        <time>2024-09-07T13:50:12Z</time>
      </trkpt>
      <trkpt lat="48.37251" lon="-3.54259">
        <ele>216.4</ele>
        <time>2024-09-07T13:50:13Z</time>
      </trkpt>
      <trkpt lat="48.37251" lon="-3.54256">
        <ele>216.4</ele>
        <time>2024-09-07T13:50:14Z</time>
      </trkpt>
      <trkpt lat="48.37251" lon="-3.54253">
        <ele>216.4</ele>
        <time>2024-09-07T13:50:15Z</time>
      </trkpt>
      <trkpt lat="48.37252" lon="-3.5425">
        <ele>216.4</ele>
        <time>2024-09-07T13:50:16Z</time>
      </trkpt>
      <trkpt lat="48.37252" lon="-3.54248">
        <ele>216.4</ele>
        <time>2024-09-07T13:50:17Z</time>
      </trkpt>
      <trkpt lat="48.37253" lon="-3.54245">
        <ele>216.4</ele>
        <time>2024-09-07T13:50:18Z</time>
      </trkpt>
      <trkpt lat="48.37253" lon="-3.54242">
        <ele>216.4</ele>
        <time>2024-09-07T13:50:19Z</time>
      </trkpt>
      <trkpt lat="48.37254" lon="-3.54239">
        <ele>216.4</ele>
        <time>2024-09-07T13:50:20Z</time>
      </trkpt>
      <trkpt lat="48.37254" lon="-3.54236">
        <ele>216.4</ele>
        <time>2024-09-07T13:50:21Z</time>
      </trkpt>
      <trkpt lat="48.37255" lon="-3.54232">
        <ele>216.4</ele>
        <time>2024-09-07T13:50:22Z</time>
      </trkpt>
      <trkpt lat="48.37256" lon="-3.54227">
        <ele>216.4</ele>
        <time>2024-09-07T13:50:23Z</time>
      </trkpt>
      <trkpt lat="48.37257" lon="-3.54223">
        <ele>216.4</ele>
        <time>2024-09-07T13:50:24Z</time>
      </trkpt>
      <trkpt lat="48.37258" lon="-3.54216">
        <ele>216.4</ele>
        <time>2024-09-07T13:50:25Z</time>
      </trkpt>
      <trkpt lat="48.37258" lon="-3.54212">
        <ele>216.4</ele>
        <time>2024-09-07T13:50:26Z</time>
      </trkpt>
      <trkpt lat="48.37258" lon="-3.54206">
        <ele>216.4</ele>
        <time>2024-09-07T13:50:27Z</time>
      </trkpt>
      <trkpt lat="48.37256" lon="-3.542">
        <ele>216.4</ele>
        <time>2024-09-07T13:50:28Z</time>
      </trkpt>
      <trkpt lat="48.37254" lon="-3.54195">
        <ele>216.4</ele>
        <time>2024-09-07T13:50:29Z</time>
      </trkpt>
      <trkpt lat="48.37252" lon="-3.54192">
        <ele>216.2</ele>
        <time>2024-09-07T13:50:30Z</time>
      </trkpt>
      <trkpt lat="48.3725" lon="-3.54189">
        <ele>216.2</ele>
        <time>2024-09-07T13:50:31Z</time>
      </trkpt>
      <trkpt lat="48.37247" lon="-3.54185">
        <ele>216.2</ele>
        <time>2024-09-07T13:50:32Z</time>
      </trkpt>
      <trkpt lat="48.37246" lon="-3.54184">
        <ele>216.2</ele>
        <time>2024-09-07T13:50:33Z</time>
      </trkpt>
      <trkpt lat="48.37244" lon="-3.54182">
        <ele>216.2</ele>
        <time>2024-09-07T13:50:34Z</time>
      </trkpt>
      <trkpt lat="48.37242" lon="-3.5418">
        <ele>216.2</ele>
        <time>2024-09-07T13:50:35Z</time>
      </trkpt>
      <trkpt lat="48.37241" lon="-3.54178">
        <ele>216.2</ele>
        <time>2024-09-07T13:50:36Z</time>
      </trkpt>
      <trkpt lat="48.37239" lon="-3.54177">
        <ele>216.2</ele>
        <time>2024-09-07T13:50:37Z</time>
      </trkpt>
      <trkpt lat="48.37237" lon="-3.54176">
        <ele>216.2</ele>
        <time>2024-09-07T13:50:38Z</time>
      </trkpt>
      <trkpt lat="48.37235" lon="-3.54176">
        <ele>216.2</ele>
        <time>2024-09-07T13:50:39Z</time>
      </trkpt>
      <trkpt lat="48.37233" lon="-3.54176">
        <ele>216.2</ele>
        <time>2024-09-07T13:50:40Z</time>
      </trkpt>
      <trkpt lat="48.3723" lon="-3.54177">
        <ele>216.2</ele>
        <time>2024-09-07T13:50:41Z</time>
      </trkpt>
      <trkpt lat="48.37229" lon="-3.54178">
        <ele>216.4</ele>
        <time>2024-09-07T13:50:42Z</time>
      </trkpt>
      <trkpt lat="48.37227" lon="-3.5418">
        <ele>216.8</ele>
        <time>2024-09-07T13:50:43Z</time>
      </trkpt>
      <trkpt lat="48.37225" lon="-3.54182">
        <ele>217</ele>
        <time>2024-09-07T13:50:44Z</time>
      </trkpt>
      <trkpt lat="48.37224" lon="-3.54184">
        <ele>217.2</ele>
        <time>2024-09-07T13:50:45Z</time>
      </trkpt>
      <trkpt lat="48.37222" lon="-3.54186">
        <ele>217.6</ele>
        <time>2024-09-07T13:50:46Z</time>
      </trkpt>
      <trkpt lat="48.37221" lon="-3.54189">
        <ele>217.8</ele>
        <time>2024-09-07T13:50:47Z</time>
      </trkpt>
      <trkpt lat="48.37219" lon="-3.54191">
        <ele>217.8</ele>
        <time>2024-09-07T13:50:48Z</time>
      </trkpt>
      <trkpt lat="48.37218" lon="-3.54194">
        <ele>218.2</ele>
        <time>2024-09-07T13:50:49Z</time>
      </trkpt>
      <trkpt lat="48.37217" lon="-3.54197">
        <ele>218.4</ele>
        <time>2024-09-07T13:50:50Z</time>
      </trkpt>
      <trkpt lat="48.37217" lon="-3.542">
        <ele>218.8</ele>
        <time>2024-09-07T13:50:51Z</time>
      </trkpt>
      <trkpt lat="48.37217" lon="-3.54201">
        <ele>219</ele>
        <time>2024-09-07T13:50:52Z</time>
      </trkpt>
      <trkpt lat="48.37217" lon="-3.54201">
        <ele>219</ele>
        <time>2024-09-07T13:50:53Z</time>
      </trkpt>
      <trkpt lat="48.37217" lon="-3.54201">
        <ele>219.2</ele>
        <time>2024-09-07T13:50:54Z</time>
      </trkpt>
      <trkpt lat="48.37221" lon="-3.54208">
        <ele>219.8</ele>
        <time>2024-09-07T13:50:58Z</time>
      </trkpt>
      <trkpt lat="48.37221" lon="-3.5421">
        <ele>220</ele>
        <time>2024-09-07T13:50:59Z</time>
      </trkpt>
      <trkpt lat="48.37222" lon="-3.54211">
        <ele>220</ele>
        <time>2024-09-07T13:51:00Z</time>
      </trkpt>
      <trkpt lat="48.37222" lon="-3.54212">
        <ele>220.2</ele>
        <time>2024-09-07T13:51:01Z</time>
      </trkpt>
      <trkpt lat="48.3724" lon="-3.54218">
        <ele>221.2</ele>
        <time>2024-09-07T15:09:55Z</time>
      </trkpt>
      <trkpt lat="48.37241" lon="-3.5422">
        <ele>221.2</ele>
        <time>2024-09-07T15:09:56Z</time>
      </trkpt>
      <trkpt lat="48.37242" lon="-3.54221">
        <ele>221.2</ele>
        <time>2024-09-07T15:09:57Z</time>
      </trkpt>
      <trkpt lat="48.37243" lon="-3.54222">
        <ele>221.2</ele>
        <time>2024-09-07T15:09:58Z</time>
      </trkpt>
      <trkpt lat="48.37248" lon="-3.5423">
        <ele>221</ele>
        <time>2024-09-07T15:10:06Z</time>
      </trkpt>
      <trkpt lat="48.37249" lon="-3.54232">
        <ele>221</ele>
        <time>2024-09-07T15:10:07Z</time>
      </trkpt>
      <trkpt lat="48.37249" lon="-3.54233">
        <ele>221</ele>
        <time>2024-09-07T15:10:08Z</time>
      </trkpt>
      <trkpt lat="48.37249" lon="-3.54233">
        <ele>220.8</ele>
        <time>2024-09-07T15:10:09Z</time>
      </trkpt>
      <trkpt lat="48.37249" lon="-3.54233">
        <ele>220.8</ele>
        <time>2024-09-07T15:10:10Z</time>
      </trkpt>
      <trkpt lat="48.37254" lon="-3.54226">
        <ele>219.4</ele>
        <time>2024-09-07T15:10:41Z</time>
      </trkpt>
      <trkpt lat="48.37255" lon="-3.54223">
        <ele>219.4</ele>
        <time>2024-09-07T15:10:42Z</time>
      </trkpt>
      <trkpt lat="48.37256" lon="-3.54219">
        <ele>219.4</ele>
        <time>2024-09-07T15:10:43Z</time>
      </trkpt>
      <trkpt lat="48.37256" lon="-3.54216">
        <ele>219.4</ele>
        <time>2024-09-07T15:10:44Z</time>
      </trkpt>
      <trkpt lat="48.37256" lon="-3.54213">
        <ele>219.4</ele>
        <time>2024-09-07T15:10:45Z</time>
      </trkpt>
      <trkpt lat="48.37257" lon="-3.54209">
        <ele>219.4</ele>
        <time>2024-09-07T15:10:46Z</time>
      </trkpt>
      <trkpt lat="48.37258" lon="-3.54204">
        <ele>219.2</ele>
        <time>2024-09-07T15:10:47Z</time>
      </trkpt>
      <trkpt lat="48.3726" lon="-3.542">
        <ele>219.2</ele>
        <time>2024-09-07T15:10:48Z</time>
      </trkpt>
      <trkpt lat="48.37261" lon="-3.54195">
        <ele>219</ele>
        <time>2024-09-07T15:10:49Z</time>
      </trkpt>
      <trkpt lat="48.37263" lon="-3.54191">
        <ele>219</ele>
        <time>2024-09-07T15:10:50Z</time>
      </trkpt>
      <trkpt lat="48.37264" lon="-3.54186">
        <ele>219</ele>
        <time>2024-09-07T15:10:51Z</time>
      </trkpt>
      <trkpt lat="48.37265" lon="-3.54182">
        <ele>219</ele>
        <time>2024-09-07T15:10:52Z</time>
      </trkpt>
      <trkpt lat="48.37265" lon="-3.54178">
        <ele>218.8</ele>
        <time>2024-09-07T15:10:53Z</time>
      </trkpt>
      <trkpt lat="48.37266" lon="-3.54173">
        <ele>218.8</ele>
        <time>2024-09-07T15:10:54Z</time>
      </trkpt>
      <trkpt lat="48.37267" lon="-3.54169">
        <ele>218.6</ele>
        <time>2024-09-07T15:10:55Z</time>
      </trkpt>
      <trkpt lat="48.37268" lon="-3.54164">
        <ele>218.6</ele>
        <time>2024-09-07T15:10:56Z</time>
      </trkpt>
      <trkpt lat="48.37269" lon="-3.5416">
        <ele>218.4</ele>
        <time>2024-09-07T15:10:57Z</time>
      </trkpt>
      <trkpt lat="48.37271" lon="-3.54155">
        <ele>218.2</ele>
        <time>2024-09-07T15:10:58Z</time>
      </trkpt>
      <trkpt lat="48.37272" lon="-3.5415">
        <ele>218</ele>
        <time>2024-09-07T15:10:59Z</time>
      </trkpt>
      <trkpt lat="48.37274" lon="-3.54145">
        <ele>217.8</ele>
        <time>2024-09-07T15:11:00Z</time>
      </trkpt>
      <trkpt lat="48.37275" lon="-3.5414">
        <ele>217.6</ele>
        <time>2024-09-07T15:11:01Z</time>
      </trkpt>
      <trkpt lat="48.37277" lon="-3.54135">
        <ele>217.4</ele>
        <time>2024-09-07T15:11:02Z</time>
      </trkpt>
      <trkpt lat="48.37279" lon="-3.5413">
        <ele>217.2</ele>
        <time>2024-09-07T15:11:03Z</time>
      </trkpt>
      <trkpt lat="48.37281" lon="-3.54125">
        <ele>217</ele>
        <time>2024-09-07T15:11:04Z</time>
      </trkpt>
      <trkpt lat="48.37284" lon="-3.5412">
        <ele>216.8</ele>
        <time>2024-09-07T15:11:05Z</time>
      </trkpt>
      <trkpt lat="48.37286" lon="-3.54115">
        <ele>216.8</ele>
        <time>2024-09-07T15:11:06Z</time>
      </trkpt>
      <trkpt lat="48.37289" lon="-3.5411">
        <ele>216.4</ele>
        <time>2024-09-07T15:11:07Z</time>
      </trkpt>
      <trkpt lat="48.37291" lon="-3.54105">
        <ele>216.2</ele>
        <time>2024-09-07T15:11:08Z</time>
      </trkpt>
      <trkpt lat="48.37294" lon="-3.541">
        <ele>216</ele>
        <time>2024-09-07T15:11:09Z</time>
      </trkpt>
      <trkpt lat="48.37297" lon="-3.54095">
        <ele>215.8</ele>
        <time>2024-09-07T15:11:10Z</time>
      </trkpt>
      <trkpt lat="48.373" lon="-3.5409">
        <ele>215.4</ele>
        <time>2024-09-07T15:11:11Z</time>
      </trkpt>
      <trkpt lat="48.37303" lon="-3.54085">
        <ele>215.2</ele>
        <time>2024-09-07T15:11:12Z</time>
      </trkpt>
      <trkpt lat="48.37306" lon="-3.5408">
        <ele>215</ele>
        <time>2024-09-07T15:11:13Z</time>
      </trkpt>
      <trkpt lat="48.37309" lon="-3.54075">
        <ele>214.6</ele>
        <time>2024-09-07T15:11:14Z</time>
      </trkpt>
      <trkpt lat="48.37312" lon="-3.54071">
        <ele>214.4</ele>
        <time>2024-09-07T15:11:15Z</time>
      </trkpt>
      <trkpt lat="48.37315" lon="-3.54066">
        <ele>214.2</ele>
        <time>2024-09-07T15:11:16Z</time>
      </trkpt>
      <trkpt lat="48.37318" lon="-3.54061">
        <ele>214</ele>
        <time>2024-09-07T15:11:17Z</time>
      </trkpt>
      <trkpt lat="48.37321" lon="-3.54056">
        <ele>213.8</ele>
        <time>2024-09-07T15:11:18Z</time>
      </trkpt>
      <trkpt lat="48.37324" lon="-3.54051">
        <ele>213.6</ele>
        <time>2024-09-07T15:11:19Z</time>
      </trkpt>
      <trkpt lat="48.37326" lon="-3.54046">
        <ele>213.4</ele>
        <time>2024-09-07T15:11:20Z</time>
      </trkpt>
      <trkpt lat="48.37329" lon="-3.54041">
        <ele>213.2</ele>
        <time>2024-09-07T15:11:21Z</time>
      </trkpt>
      <trkpt lat="48.37332" lon="-3.54036">
        <ele>213.2</ele>
        <time>2024-09-07T15:11:22Z</time>
      </trkpt>
      <trkpt lat="48.37335" lon="-3.54031">
        <ele>213</ele>
        <time>2024-09-07T15:11:23Z</time>
      </trkpt>
      <trkpt lat="48.37338" lon="-3.54026">
        <ele>212.6</ele>
        <time>2024-09-07T15:11:24Z</time>
      </trkpt>
      <trkpt lat="48.37341" lon="-3.5402">
        <ele>212.6</ele>
        <time>2024-09-07T15:11:25Z</time>
      </trkpt>
      <trkpt lat="48.37344" lon="-3.54015">
        <ele>212.4</ele>
        <time>2024-09-07T15:11:26Z</time>
      </trkpt>
      <trkpt lat="48.37347" lon="-3.5401">
        <ele>212.4</ele>
        <time>2024-09-07T15:11:27Z</time>
      </trkpt>
      <trkpt lat="48.3735" lon="-3.54004">
        <ele>212.2</ele>
        <time>2024-09-07T15:11:28Z</time>
      </trkpt>
      <trkpt lat="48.37352" lon="-3.53998">
        <ele>212.2</ele>
        <time>2024-09-07T15:11:29Z</time>
      </trkpt>
      <trkpt lat="48.37355" lon="-3.53992">
        <ele>212</ele>
        <time>2024-09-07T15:11:30Z</time>
      </trkpt>
      <trkpt lat="48.37357" lon="-3.53986">
        <ele>212</ele>
        <time>2024-09-07T15:11:31Z</time>
      </trkpt>
      <trkpt lat="48.3736" lon="-3.53979">
        <ele>212</ele>
        <time>2024-09-07T15:11:32Z</time>
      </trkpt>
      <trkpt lat="48.37362" lon="-3.53973">
        <ele>212</ele>
        <time>2024-09-07T15:11:33Z</time>
      </trkpt>
      <trkpt lat="48.37364" lon="-3.53966">
        <ele>211.8</ele>
        <time>2024-09-07T15:11:34Z</time>
      </trkpt>
      <trkpt lat="48.37366" lon="-3.53959">
        <ele>211.8</ele>
        <time>2024-09-07T15:11:35Z</time>
      </trkpt>
      <trkpt lat="48.37368" lon="-3.53951">
        <ele>211.8</ele>
        <time>2024-09-07T15:11:36Z</time>
      </trkpt>
      <trkpt lat="48.3737" lon="-3.53944">
        <ele>211.8</ele>
        <time>2024-09-07T15:11:37Z</time>
      </trkpt>
      <trkpt lat="48.37372" lon="-3.53936">
        <ele>211.6</ele>
        <time>2024-09-07T15:11:38Z</time>
      </trkpt>
      <trkpt lat="48.37374" lon="-3.53929">
        <ele>211.6</ele>
        <time>2024-09-07T15:11:39Z</time>
      </trkpt>
      <trkpt lat="48.37375" lon="-3.53921">
        <ele>211.6</ele>
        <time>2024-09-07T15:11:40Z</time>
      </trkpt>
      <trkpt lat="48.37377" lon="-3.53913">
        <ele>211.6</ele>
        <time>2024-09-07T15:11:41Z</time>
      </trkpt>
      <trkpt lat="48.37379" lon="-3.53906">
        <ele>211.4</ele>
        <time>2024-09-07T15:11:42Z</time>
      </trkpt>
      <trkpt lat="48.3738" lon="-3.53899">
        <ele>211.4</ele>
        <time>2024-09-07T15:11:43Z</time>
      </trkpt>
      <trkpt lat="48.3738" lon="-3.53891">
        <ele>211.2</ele>
        <time>2024-09-07T15:11:44Z</time>
      </trkpt>
      <trkpt lat="48.37382" lon="-3.53884">
        <ele>211.2</ele>
        <time>2024-09-07T15:11:45Z</time>
      </trkpt>
      <trkpt lat="48.37384" lon="-3.53876">
        <ele>211</ele>
        <time>2024-09-07T15:11:46Z</time>
      </trkpt>
      <trkpt lat="48.37385" lon="-3.53869">
        <ele>210.8</ele>
        <time>2024-09-07T15:11:47Z</time>
      </trkpt>
      <trkpt lat="48.37387" lon="-3.53861">
        <ele>210.8</ele>
        <time>2024-09-07T15:11:48Z</time>
      </trkpt>
      <trkpt lat="48.37388" lon="-3.53854">
        <ele>210.6</ele>
        <time>2024-09-07T15:11:49Z</time>
      </trkpt>
      <trkpt lat="48.37389" lon="-3.53846">
        <ele>210.6</ele>
        <time>2024-09-07T15:11:50Z</time>
      </trkpt>
      <trkpt lat="48.37391" lon="-3.53838">
        <ele>210.4</ele>
        <time>2024-09-07T15:11:51Z</time>
      </trkpt>
      <trkpt lat="48.37392" lon="-3.5383">
        <ele>210.4</ele>
        <time>2024-09-07T15:11:52Z</time>
      </trkpt>
      <trkpt lat="48.37394" lon="-3.53822">
        <ele>210</ele>
        <time>2024-09-07T15:11:53Z</time>
      </trkpt>
      <trkpt lat="48.37395" lon="-3.53813">
        <ele>209.8</ele>
        <time>2024-09-07T15:11:54Z</time>
      </trkpt>
      <trkpt lat="48.37397" lon="-3.53805">
        <ele>209.8</ele>
        <time>2024-09-07T15:11:55Z</time>
      </trkpt>
      <trkpt lat="48.37398" lon="-3.53796">
        <ele>209.6</ele>
        <time>2024-09-07T15:11:56Z</time>
      </trkpt>
      <trkpt lat="48.374" lon="-3.53787">
        <ele>209.6</ele>
        <time>2024-09-07T15:11:57Z</time>
      </trkpt>
      <trkpt lat="48.37402" lon="-3.53778">
        <ele>209.4</ele>
        <time>2024-09-07T15:11:58Z</time>
      </trkpt>
      <trkpt lat="48.37404" lon="-3.53769">
        <ele>209.2</ele>
        <time>2024-09-07T15:11:59Z</time>
      </trkpt>
      <trkpt lat="48.37405" lon="-3.53759">
        <ele>209</ele>
        <time>2024-09-07T15:12:00Z</time>
      </trkpt>
      <trkpt lat="48.37407" lon="-3.53749">
        <ele>208.8</ele>
        <time>2024-09-07T15:12:01Z</time>
      </trkpt>
      <trkpt lat="48.37408" lon="-3.53739">
        <ele>208.6</ele>
        <time>2024-09-07T15:12:02Z</time>
      </trkpt>
      <trkpt lat="48.37409" lon="-3.53729">
        <ele>208.4</ele>
        <time>2024-09-07T15:12:03Z</time>
      </trkpt>
      <trkpt lat="48.3741" lon="-3.53718">
        <ele>208.2</ele>
        <time>2024-09-07T15:12:04Z</time>
      </trkpt>
      <trkpt lat="48.3741" lon="-3.53707">
        <ele>208</ele>
        <time>2024-09-07T15:12:05Z</time>
      </trkpt>
      <trkpt lat="48.37409" lon="-3.53696">
        <ele>207.8</ele>
        <time>2024-09-07T15:12:06Z</time>
      </trkpt>
      <trkpt lat="48.37408" lon="-3.53685">
        <ele>207.8</ele>
        <time>2024-09-07T15:12:07Z</time>
      </trkpt>
      <trkpt lat="48.37407" lon="-3.53675">
        <ele>207.4</ele>
        <time>2024-09-07T15:12:08Z</time>
      </trkpt>
      <trkpt lat="48.37405" lon="-3.53664">
        <ele>207.2</ele>
        <time>2024-09-07T15:12:09Z</time>
      </trkpt>
      <trkpt lat="48.37402" lon="-3.53653">
        <ele>207</ele>
        <time>2024-09-07T15:12:10Z</time>
      </trkpt>
      <trkpt lat="48.37399" lon="-3.53643">
        <ele>206.6</ele>
        <time>2024-09-07T15:12:11Z</time>
      </trkpt>
      <trkpt lat="48.37395" lon="-3.53633">
        <ele>206.2</ele>
        <time>2024-09-07T15:12:12Z</time>
      </trkpt>
      <trkpt lat="48.37392" lon="-3.53623">
        <ele>206.2</ele>
        <time>2024-09-07T15:12:13Z</time>
      </trkpt>
      <trkpt lat="48.37388" lon="-3.53613">
        <ele>206</ele>
        <time>2024-09-07T15:12:14Z</time>
      </trkpt>
      <trkpt lat="48.37384" lon="-3.53603">
        <ele>205.8</ele>
        <time>2024-09-07T15:12:15Z</time>
      </trkpt>
      <trkpt lat="48.37381" lon="-3.53593">
        <ele>205.6</ele>
        <time>2024-09-07T15:12:16Z</time>
      </trkpt>
      <trkpt lat="48.37378" lon="-3.53583">
        <ele>205.2</ele>
        <time>2024-09-07T15:12:17Z</time>
      </trkpt>
      <trkpt lat="48.37375" lon="-3.53572">
        <ele>204.8</ele>
        <time>2024-09-07T15:12:18Z</time>
      </trkpt>
      <trkpt lat="48.37373" lon="-3.53562">
        <ele>204.4</ele>
        <time>2024-09-07T15:12:19Z</time>
      </trkpt>
      <trkpt lat="48.37371" lon="-3.53551">
        <ele>204.2</ele>
        <time>2024-09-07T15:12:20Z</time>
      </trkpt>
      <trkpt lat="48.37369" lon="-3.5354">
        <ele>204</ele>
        <time>2024-09-07T15:12:21Z</time>
      </trkpt>
      <trkpt lat="48.37368" lon="-3.53529">
        <ele>203.8</ele>
        <time>2024-09-07T15:12:22Z</time>
      </trkpt>
      <trkpt lat="48.37366" lon="-3.53519">
        <ele>203.8</ele>
        <time>2024-09-07T15:12:23Z</time>
      </trkpt>
      <trkpt lat="48.37364" lon="-3.53508">
        <ele>203.8</ele>
        <time>2024-09-07T15:12:24Z</time>
      </trkpt>
      <trkpt lat="48.37362" lon="-3.53497">
        <ele>203.6</ele>
        <time>2024-09-07T15:12:25Z</time>
      </trkpt>
      <trkpt lat="48.3736" lon="-3.53487">
        <ele>202.8</ele>
        <time>2024-09-07T15:12:26Z</time>
      </trkpt>
      <trkpt lat="48.37358" lon="-3.53477">
        <ele>202.2</ele>
        <time>2024-09-07T15:12:27Z</time>
      </trkpt>
      <trkpt lat="48.37357" lon="-3.53466">
        <ele>201.6</ele>
        <time>2024-09-07T15:12:28Z</time>
      </trkpt>
      <trkpt lat="48.37355" lon="-3.53456">
        <ele>201</ele>
        <time>2024-09-07T15:12:29Z</time>
      </trkpt>
      <trkpt lat="48.37353" lon="-3.53446">
        <ele>200.6</ele>
        <time>2024-09-07T15:12:30Z</time>
      </trkpt>
      <trkpt lat="48.37352" lon="-3.53436">
        <ele>200.4</ele>
        <time>2024-09-07T15:12:31Z</time>
      </trkpt>
      <trkpt lat="48.3735" lon="-3.53425">
        <ele>200.4</ele>
        <time>2024-09-07T15:12:32Z</time>
      </trkpt>
      <trkpt lat="48.37349" lon="-3.53415">
        <ele>200.2</ele>
        <time>2024-09-07T15:12:33Z</time>
      </trkpt>
      <trkpt lat="48.37347" lon="-3.53405">
        <ele>200.2</ele>
        <time>2024-09-07T15:12:34Z</time>
      </trkpt>
      <trkpt lat="48.37346" lon="-3.53395">
        <ele>200.2</ele>
        <time>2024-09-07T15:12:35Z</time>
      </trkpt>
      <trkpt lat="48.37344" lon="-3.53385">
        <ele>200.2</ele>
        <time>2024-09-07T15:12:36Z</time>
      </trkpt>
      <trkpt lat="48.37343" lon="-3.53375">
        <ele>200.2</ele>
        <time>2024-09-07T15:12:37Z</time>
      </trkpt>
      <trkpt lat="48.37342" lon="-3.53365">
        <ele>200.2</ele>
        <time>2024-09-07T15:12:38Z</time>
      </trkpt>
      <trkpt lat="48.3734" lon="-3.53356">
        <ele>200.2</ele>
        <time>2024-09-07T15:12:39Z</time>
      </trkpt>
      <trkpt lat="48.37339" lon="-3.53346">
        <ele>200.2</ele>
        <time>2024-09-07T15:12:40Z</time>
      </trkpt>
      <trkpt lat="48.37338" lon="-3.53337">
        <ele>200.2</ele>
        <time>2024-09-07T15:12:41Z</time>
      </trkpt>
      <trkpt lat="48.37337" lon="-3.53328">
        <ele>200.2</ele>
        <time>2024-09-07T15:12:42Z</time>
      </trkpt>
      <trkpt lat="48.37336" lon="-3.53319">
        <ele>200.2</ele>
        <time>2024-09-07T15:12:43Z</time>
      </trkpt>
      <trkpt lat="48.37335" lon="-3.5331">
        <ele>200.2</ele>
        <time>2024-09-07T15:12:44Z</time>
      </trkpt>
      <trkpt lat="48.37333" lon="-3.53301">
        <ele>200.4</ele>
        <time>2024-09-07T15:12:45Z</time>
      </trkpt>
      <trkpt lat="48.37331" lon="-3.53293">
        <ele>200.4</ele>
        <time>2024-09-07T15:12:46Z</time>
      </trkpt>
      <trkpt lat="48.3733" lon="-3.53284">
        <ele>200.6</ele>
        <time>2024-09-07T15:12:47Z</time>
      </trkpt>
      <trkpt lat="48.37327" lon="-3.53275">
        <ele>200.6</ele>
        <time>2024-09-07T15:12:48Z</time>
      </trkpt>
      <trkpt lat="48.37325" lon="-3.53266">
        <ele>200.8</ele>
        <time>2024-09-07T15:12:49Z</time>
      </trkpt>
      <trkpt lat="48.37323" lon="-3.53258">
        <ele>200.8</ele>
        <time>2024-09-07T15:12:50Z</time>
      </trkpt>
      <trkpt lat="48.3732" lon="-3.53249">
        <ele>201</ele>
        <time>2024-09-07T15:12:51Z</time>
      </trkpt>
      <trkpt lat="48.37317" lon="-3.53241">
        <ele>201.2</ele>
        <time>2024-09-07T15:12:52Z</time>
      </trkpt>
      <trkpt lat="48.37314" lon="-3.53232">
        <ele>201.6</ele>
        <time>2024-09-07T15:12:53Z</time>
      </trkpt>
      <trkpt lat="48.3731" lon="-3.53224">
        <ele>201.8</ele>
        <time>2024-09-07T15:12:54Z</time>
      </trkpt>
      <trkpt lat="48.37307" lon="-3.53215">
        <ele>202.2</ele>
        <time>2024-09-07T15:12:55Z</time>
      </trkpt>
      <trkpt lat="48.37303" lon="-3.53206">
        <ele>202.2</ele>
        <time>2024-09-07T15:12:56Z</time>
      </trkpt>
      <trkpt lat="48.373" lon="-3.53197">
        <ele>202.4</ele>
        <time>2024-09-07T15:12:57Z</time>
      </trkpt>
      <trkpt lat="48.37296" lon="-3.53189">
        <ele>202.6</ele>
        <time>2024-09-07T15:12:58Z</time>
      </trkpt>
      <trkpt lat="48.37294" lon="-3.5318">
        <ele>202.8</ele>
        <time>2024-09-07T15:12:59Z</time>
      </trkpt>
      <trkpt lat="48.37291" lon="-3.53172">
        <ele>202.8</ele>
        <time>2024-09-07T15:13:00Z</time>
      </trkpt>
      <trkpt lat="48.37288" lon="-3.53163">
        <ele>202.8</ele>
        <time>2024-09-07T15:13:01Z</time>
      </trkpt>
      <trkpt lat="48.37284" lon="-3.53155">
        <ele>202.8</ele>
        <time>2024-09-07T15:13:02Z</time>
      </trkpt>
      <trkpt lat="48.37281" lon="-3.53146">
        <ele>202.8</ele>
        <time>2024-09-07T15:13:03Z</time>
      </trkpt>
      <trkpt lat="48.37279" lon="-3.53136">
        <ele>203</ele>
        <time>2024-09-07T15:13:04Z</time>
      </trkpt>
      <trkpt lat="48.37276" lon="-3.53127">
        <ele>203</ele>
        <time>2024-09-07T15:13:05Z</time>
      </trkpt>
      <trkpt lat="48.37274" lon="-3.53117">
        <ele>203</ele>
        <time>2024-09-07T15:13:06Z</time>
      </trkpt>
      <trkpt lat="48.37271" lon="-3.53108">
        <ele>203</ele>
        <time>2024-09-07T15:13:07Z</time>
      </trkpt>
      <trkpt lat="48.37268" lon="-3.53098">
        <ele>203</ele>
        <time>2024-09-07T15:13:08Z</time>
      </trkpt>
      <trkpt lat="48.37266" lon="-3.53089">
        <ele>203</ele>
        <time>2024-09-07T15:13:09Z</time>
      </trkpt>
      <trkpt lat="48.37263" lon="-3.5308">
        <ele>202.8</ele>
        <time>2024-09-07T15:13:10Z</time>
      </trkpt>
      <trkpt lat="48.3726" lon="-3.5307">
        <ele>202.8</ele>
        <time>2024-09-07T15:13:11Z</time>
      </trkpt>
      <trkpt lat="48.37257" lon="-3.53061">
        <ele>202.6</ele>
        <time>2024-09-07T15:13:12Z</time>
      </trkpt>
      <trkpt lat="48.37254" lon="-3.53051">
        <ele>202.4</ele>
        <time>2024-09-07T15:13:13Z</time>
      </trkpt>
      <trkpt lat="48.37251" lon="-3.53041">
        <ele>202.4</ele>
        <time>2024-09-07T15:13:14Z</time>
      </trkpt>
      <trkpt lat="48.37248" lon="-3.5303">
        <ele>202.2</ele>
        <time>2024-09-07T15:13:15Z</time>
      </trkpt>
      <trkpt lat="48.37245" lon="-3.5302">
        <ele>202.2</ele>
        <time>2024-09-07T15:13:16Z</time>
      </trkpt>
      <trkpt lat="48.37243" lon="-3.53009">
        <ele>201.8</ele>
        <time>2024-09-07T15:13:17Z</time>
      </trkpt>
      <trkpt lat="48.37241" lon="-3.52998">
        <ele>201.6</ele>
        <time>2024-09-07T15:13:18Z</time>
      </trkpt>
      <trkpt lat="48.37239" lon="-3.52987">
        <ele>201.4</ele>
        <time>2024-09-07T15:13:19Z</time>
      </trkpt>
      <trkpt lat="48.37238" lon="-3.52977">
        <ele>201.2</ele>
        <time>2024-09-07T15:13:20Z</time>
      </trkpt>
      <trkpt lat="48.37238" lon="-3.52966">
        <ele>201</ele>
        <time>2024-09-07T15:13:21Z</time>
      </trkpt>
      <trkpt lat="48.37239" lon="-3.52955">
        <ele>200.8</ele>
        <time>2024-09-07T15:13:22Z</time>
      </trkpt>
      <trkpt lat="48.37239" lon="-3.52945">
        <ele>200.8</ele>
        <time>2024-09-07T15:13:23Z</time>
      </trkpt>
      <trkpt lat="48.3724" lon="-3.52935">
        <ele>200.6</ele>
        <time>2024-09-07T15:13:24Z</time>
      </trkpt>
      <trkpt lat="48.37241" lon="-3.52926">
        <ele>200.6</ele>
        <time>2024-09-07T15:13:25Z</time>
      </trkpt>
      <trkpt lat="48.37243" lon="-3.52916">
        <ele>200.4</ele>
        <time>2024-09-07T15:13:26Z</time>
      </trkpt>
      <trkpt lat="48.37244" lon="-3.52908">
        <ele>200.2</ele>
        <time>2024-09-07T15:13:27Z</time>
      </trkpt>
      <trkpt lat="48.37245" lon="-3.529">
        <ele>200</ele>
        <time>2024-09-07T15:13:28Z</time>
      </trkpt>
      <trkpt lat="48.37247" lon="-3.52892">
        <ele>200</ele>
        <time>2024-09-07T15:13:29Z</time>
      </trkpt>
      <trkpt lat="48.37248" lon="-3.52885">
        <ele>200</ele>
        <time>2024-09-07T15:13:30Z</time>
      </trkpt>
      <trkpt lat="48.37249" lon="-3.52879">
        <ele>200</ele>
        <time>2024-09-07T15:13:31Z</time>
      </trkpt>
      <trkpt lat="48.37249" lon="-3.52873">
        <ele>200</ele>
        <time>2024-09-07T15:13:32Z</time>
      </trkpt>
      <trkpt lat="48.37248" lon="-3.52869">
        <ele>200</ele>
        <time>2024-09-07T15:13:33Z</time>
      </trkpt>
      <trkpt lat="48.37247" lon="-3.52864">
        <ele>200</ele>
        <time>2024-09-07T15:13:34Z</time>
      </trkpt>
      <trkpt lat="48.37246" lon="-3.52861">
        <ele>200</ele>
        <time>2024-09-07T15:13:35Z</time>
      </trkpt>
      <trkpt lat="48.37244" lon="-3.52857">
        <ele>200</ele>
        <time>2024-09-07T15:13:36Z</time>
      </trkpt>
      <trkpt lat="48.37241" lon="-3.52853">
        <ele>200</ele>
        <time>2024-09-07T15:13:37Z</time>
      </trkpt>
      <trkpt lat="48.37239" lon="-3.52849">
        <ele>200</ele>
        <time>2024-09-07T15:13:38Z</time>
      </trkpt>
      <trkpt lat="48.37237" lon="-3.52845">
        <ele>200</ele>
        <time>2024-09-07T15:13:39Z</time>
      </trkpt>
      <trkpt lat="48.37234" lon="-3.5284">
        <ele>200</ele>
        <time>2024-09-07T15:13:40Z</time>
      </trkpt>
      <trkpt lat="48.37232" lon="-3.52836">
        <ele>200</ele>
        <time>2024-09-07T15:13:41Z</time>
      </trkpt>
      <trkpt lat="48.37229" lon="-3.52831">
        <ele>200</ele>
        <time>2024-09-07T15:13:42Z</time>
      </trkpt>
      <trkpt lat="48.37227" lon="-3.52826">
        <ele>200</ele>
        <time>2024-09-07T15:13:43Z</time>
      </trkpt>
      <trkpt lat="48.37224" lon="-3.52821">
        <ele>200</ele>
        <time>2024-09-07T15:13:44Z</time>
      </trkpt>
      <trkpt lat="48.37222" lon="-3.52816">
        <ele>200</ele>
        <time>2024-09-07T15:13:45Z</time>
      </trkpt>
      <trkpt lat="48.3722" lon="-3.52811">
        <ele>200</ele>
        <time>2024-09-07T15:13:46Z</time>
      </trkpt>
      <trkpt lat="48.37217" lon="-3.52806">
        <ele>200.2</ele>
        <time>2024-09-07T15:13:47Z</time>
      </trkpt>
      <trkpt lat="48.37215" lon="-3.528">
        <ele>200.2</ele>
        <time>2024-09-07T15:13:48Z</time>
      </trkpt>
      <trkpt lat="48.37212" lon="-3.52794">
        <ele>200.2</ele>
        <time>2024-09-07T15:13:49Z</time>
      </trkpt>
      <trkpt lat="48.3721" lon="-3.52789">
        <ele>200.4</ele>
        <time>2024-09-07T15:13:50Z</time>
      </trkpt>
      <trkpt lat="48.37207" lon="-3.52783">
        <ele>200.4</ele>
        <time>2024-09-07T15:13:51Z</time>
      </trkpt>
      <trkpt lat="48.37205" lon="-3.52777">
        <ele>200.6</ele>
        <time>2024-09-07T15:13:52Z</time>
      </trkpt>
      <trkpt lat="48.37202" lon="-3.52772">
        <ele>200.4</ele>
        <time>2024-09-07T15:13:53Z</time>
      </trkpt>
      <trkpt lat="48.37199" lon="-3.52766">
        <ele>200.8</ele>
        <time>2024-09-07T15:13:54Z</time>
      </trkpt>
      <trkpt lat="48.37197" lon="-3.5276">
        <ele>200.6</ele>
        <time>2024-09-07T15:13:55Z</time>
      </trkpt>
      <trkpt lat="48.37194" lon="-3.52754">
        <ele>200.6</ele>
        <time>2024-09-07T15:13:56Z</time>
      </trkpt>
      <trkpt lat="48.37192" lon="-3.52747">
        <ele>200.8</ele>
        <time>2024-09-07T15:13:57Z</time>
      </trkpt>
      <trkpt lat="48.3719" lon="-3.52741">
        <ele>200.8</ele>
        <time>2024-09-07T15:13:58Z</time>
      </trkpt>
      <trkpt lat="48.37187" lon="-3.52735">
        <ele>200.8</ele>
        <time>2024-09-07T15:13:59Z</time>
      </trkpt>
      <trkpt lat="48.37185" lon="-3.52729">
        <ele>201</ele>
        <time>2024-09-07T15:14:00Z</time>
      </trkpt>
      <trkpt lat="48.37182" lon="-3.52723">
        <ele>201</ele>
        <time>2024-09-07T15:14:01Z</time>
      </trkpt>
      <trkpt lat="48.3718" lon="-3.52717">
        <ele>201</ele>
        <time>2024-09-07T15:14:02Z</time>
      </trkpt>
      <trkpt lat="48.37177" lon="-3.52711">
        <ele>201</ele>
        <time>2024-09-07T15:14:03Z</time>
      </trkpt>
      <trkpt lat="48.37175" lon="-3.52704">
        <ele>201</ele>
        <time>2024-09-07T15:14:04Z</time>
      </trkpt>
      <trkpt lat="48.37172" lon="-3.52698">
        <ele>201</ele>
        <time>2024-09-07T15:14:05Z</time>
      </trkpt>
      <trkpt lat="48.37169" lon="-3.52691">
        <ele>201</ele>
        <time>2024-09-07T15:14:06Z</time>
      </trkpt>
      <trkpt lat="48.37166" lon="-3.52685">
        <ele>201</ele>
        <time>2024-09-07T15:14:07Z</time>
      </trkpt>
      <trkpt lat="48.37163" lon="-3.52678">
        <ele>201</ele>
        <time>2024-09-07T15:14:08Z</time>
      </trkpt>
      <trkpt lat="48.3716" lon="-3.52672">
        <ele>201</ele>
        <time>2024-09-07T15:14:09Z</time>
      </trkpt>
      <trkpt lat="48.37157" lon="-3.52665">
        <ele>201</ele>
        <time>2024-09-07T15:14:10Z</time>
      </trkpt>
      <trkpt lat="48.37154" lon="-3.52658">
        <ele>201</ele>
        <time>2024-09-07T15:14:11Z</time>
      </trkpt>
      <trkpt lat="48.3715" lon="-3.52651">
        <ele>201</ele>
        <time>2024-09-07T15:14:12Z</time>
      </trkpt>
      <trkpt lat="48.37146" lon="-3.52644">
        <ele>201</ele>
        <time>2024-09-07T15:14:13Z</time>
      </trkpt>
      <trkpt lat="48.37142" lon="-3.52638">
        <ele>201</ele>
        <time>2024-09-07T15:14:14Z</time>
      </trkpt>
      <trkpt lat="48.37138" lon="-3.52631">
        <ele>201</ele>
        <time>2024-09-07T15:14:15Z</time>
      </trkpt>
      <trkpt lat="48.37133" lon="-3.52624">
        <ele>201</ele>
        <time>2024-09-07T15:14:16Z</time>
      </trkpt>
      <trkpt lat="48.37128" lon="-3.52618">
        <ele>201</ele>
        <time>2024-09-07T15:14:17Z</time>
      </trkpt>
      <trkpt lat="48.37123" lon="-3.52611">
        <ele>200.8</ele>
        <time>2024-09-07T15:14:18Z</time>
      </trkpt>
      <trkpt lat="48.37119" lon="-3.52605">
        <ele>200.6</ele>
        <time>2024-09-07T15:14:19Z</time>
      </trkpt>
      <trkpt lat="48.37114" lon="-3.526">
        <ele>200.2</ele>
        <time>2024-09-07T15:14:20Z</time>
      </trkpt>
      <trkpt lat="48.37109" lon="-3.52595">
        <ele>200.2</ele>
        <time>2024-09-07T15:14:21Z</time>
      </trkpt>
      <trkpt lat="48.37105" lon="-3.52589">
        <ele>200.2</ele>
        <time>2024-09-07T15:14:22Z</time>
      </trkpt>
      <trkpt lat="48.371" lon="-3.52585">
        <ele>200</ele>
        <time>2024-09-07T15:14:23Z</time>
      </trkpt>
      <trkpt lat="48.37095" lon="-3.5258">
        <ele>200</ele>
        <time>2024-09-07T15:14:24Z</time>
      </trkpt>
      <trkpt lat="48.3709" lon="-3.52576">
        <ele>200</ele>
        <time>2024-09-07T15:14:25Z</time>
      </trkpt>
      <trkpt lat="48.37085" lon="-3.52572">
        <ele>200</ele>
        <time>2024-09-07T15:14:26Z</time>
      </trkpt>
      <trkpt lat="48.3708" lon="-3.52568">
        <ele>200</ele>
        <time>2024-09-07T15:14:27Z</time>
      </trkpt>
      <trkpt lat="48.37076" lon="-3.52564">
        <ele>200</ele>
        <time>2024-09-07T15:14:28Z</time>
      </trkpt>
      <trkpt lat="48.37071" lon="-3.5256">
        <ele>200</ele>
        <time>2024-09-07T15:14:29Z</time>
      </trkpt>
      <trkpt lat="48.37066" lon="-3.52556">
        <ele>200</ele>
        <time>2024-09-07T15:14:30Z</time>
      </trkpt>
      <trkpt lat="48.37061" lon="-3.52553">
        <ele>200</ele>
        <time>2024-09-07T15:14:31Z</time>
      </trkpt>
      <trkpt lat="48.37056" lon="-3.52549">
        <ele>200</ele>
        <time>2024-09-07T15:14:32Z</time>
      </trkpt>
      <trkpt lat="48.37051" lon="-3.52546">
        <ele>200</ele>
        <time>2024-09-07T15:14:33Z</time>
      </trkpt>
      <trkpt lat="48.37047" lon="-3.52541">
        <ele>200</ele>
        <time>2024-09-07T15:14:34Z</time>
      </trkpt>
      <trkpt lat="48.37042" lon="-3.52537">
        <ele>200.2</ele>
        <time>2024-09-07T15:14:35Z</time>
      </trkpt>
      <trkpt lat="48.37037" lon="-3.52533">
        <ele>200.4</ele>
        <time>2024-09-07T15:14:36Z</time>
      </trkpt>
      <trkpt lat="48.37032" lon="-3.52529">
        <ele>200.4</ele>
        <time>2024-09-07T15:14:37Z</time>
      </trkpt>
      <trkpt lat="48.37028" lon="-3.52526">
        <ele>200.4</ele>
        <time>2024-09-07T15:14:38Z</time>
      </trkpt>
      <trkpt lat="48.37023" lon="-3.52522">
        <ele>200.6</ele>
        <time>2024-09-07T15:14:39Z</time>
      </trkpt>
      <trkpt lat="48.37018" lon="-3.52518">
        <ele>200.8</ele>
        <time>2024-09-07T15:14:40Z</time>
      </trkpt>
      <trkpt lat="48.37013" lon="-3.52515">
        <ele>200.8</ele>
        <time>2024-09-07T15:14:41Z</time>
      </trkpt>
      <trkpt lat="48.37008" lon="-3.52512">
        <ele>201</ele>
        <time>2024-09-07T15:14:42Z</time>
      </trkpt>
      <trkpt lat="48.37003" lon="-3.52508">
        <ele>201.2</ele>
        <time>2024-09-07T15:14:43Z</time>
      </trkpt>
      <trkpt lat="48.36998" lon="-3.52505">
        <ele>201.2</ele>
        <time>2024-09-07T15:14:44Z</time>
      </trkpt>
      <trkpt lat="48.36993" lon="-3.52501">
        <ele>201.2</ele>
        <time>2024-09-07T15:14:45Z</time>
      </trkpt>
      <trkpt lat="48.36989" lon="-3.52497">
        <ele>201.4</ele>
        <time>2024-09-07T15:14:46Z</time>
      </trkpt>
      <trkpt lat="48.36984" lon="-3.52493">
        <ele>201.6</ele>
        <time>2024-09-07T15:14:47Z</time>
      </trkpt>
      <trkpt lat="48.36979" lon="-3.5249">
        <ele>201.6</ele>
        <time>2024-09-07T15:14:48Z</time>
      </trkpt>
      <trkpt lat="48.36974" lon="-3.52487">
        <ele>201.6</ele>
        <time>2024-09-07T15:14:49Z</time>
      </trkpt>
      <trkpt lat="48.36969" lon="-3.52483">
        <ele>201.8</ele>
        <time>2024-09-07T15:14:50Z</time>
      </trkpt>
      <trkpt lat="48.36964" lon="-3.52479">
        <ele>201.8</ele>
        <time>2024-09-07T15:14:51Z</time>
      </trkpt>
      <trkpt lat="48.36959" lon="-3.52476">
        <ele>201.8</ele>
        <time>2024-09-07T15:14:52Z</time>
      </trkpt>
      <trkpt lat="48.36954" lon="-3.52472">
        <ele>201.8</ele>
        <time>2024-09-07T15:14:53Z</time>
      </trkpt>
      <trkpt lat="48.3695" lon="-3.52468">
        <ele>201.8</ele>
        <time>2024-09-07T15:14:54Z</time>
      </trkpt>
      <trkpt lat="48.36945" lon="-3.52465">
        <ele>201.8</ele>
        <time>2024-09-07T15:14:55Z</time>
      </trkpt>
      <trkpt lat="48.3694" lon="-3.52461">
        <ele>202</ele>
        <time>2024-09-07T15:14:56Z</time>
      </trkpt>
      <trkpt lat="48.36936" lon="-3.52458">
        <ele>202</ele>
        <time>2024-09-07T15:14:57Z</time>
      </trkpt>
      <trkpt lat="48.36931" lon="-3.52456">
        <ele>202</ele>
        <time>2024-09-07T15:14:58Z</time>
      </trkpt>
      <trkpt lat="48.36926" lon="-3.52453">
        <ele>202</ele>
        <time>2024-09-07T15:14:59Z</time>
      </trkpt>
      <trkpt lat="48.36921" lon="-3.52449">
        <ele>202.2</ele>
        <time>2024-09-07T15:15:00Z</time>
      </trkpt>
      <trkpt lat="48.36917" lon="-3.52446">
        <ele>202.4</ele>
        <time>2024-09-07T15:15:01Z</time>
      </trkpt>
      <trkpt lat="48.36912" lon="-3.52443">
        <ele>202.4</ele>
        <time>2024-09-07T15:15:02Z</time>
      </trkpt>
      <trkpt lat="48.36908" lon="-3.52441">
        <ele>202.6</ele>
        <time>2024-09-07T15:15:03Z</time>
      </trkpt>
      <trkpt lat="48.36904" lon="-3.52437">
        <ele>202.6</ele>
        <time>2024-09-07T15:15:04Z</time>
      </trkpt>
      <trkpt lat="48.369" lon="-3.52435">
        <ele>202.6</ele>
        <time>2024-09-07T15:15:05Z</time>
      </trkpt>
      <trkpt lat="48.36896" lon="-3.52431">
        <ele>202.6</ele>
        <time>2024-09-07T15:15:06Z</time>
      </trkpt>
      <trkpt lat="48.36892" lon="-3.52427">
        <ele>202.6</ele>
        <time>2024-09-07T15:15:07Z</time>
      </trkpt>
      <trkpt lat="48.36888" lon="-3.52423">
        <ele>202.8</ele>
        <time>2024-09-07T15:15:08Z</time>
      </trkpt>
      <trkpt lat="48.36884" lon="-3.52419">
        <ele>202.8</ele>
        <time>2024-09-07T15:15:09Z</time>
      </trkpt>
      <trkpt lat="48.3688" lon="-3.52414">
        <ele>202.8</ele>
        <time>2024-09-07T15:15:10Z</time>
      </trkpt>
      <trkpt lat="48.36876" lon="-3.52408">
        <ele>202.8</ele>
        <time>2024-09-07T15:15:11Z</time>
      </trkpt>
      <trkpt lat="48.36872" lon="-3.52403">
        <ele>202.8</ele>
        <time>2024-09-07T15:15:12Z</time>
      </trkpt>
      <trkpt lat="48.36869" lon="-3.52397">
        <ele>202.8</ele>
        <time>2024-09-07T15:15:13Z</time>
      </trkpt>
      <trkpt lat="48.36865" lon="-3.52391">
        <ele>202.8</ele>
        <time>2024-09-07T15:15:14Z</time>
      </trkpt>
      <trkpt lat="48.36862" lon="-3.52385">
        <ele>202.8</ele>
        <time>2024-09-07T15:15:15Z</time>
      </trkpt>
      <trkpt lat="48.36859" lon="-3.5238">
        <ele>202.8</ele>
        <time>2024-09-07T15:15:16Z</time>
      </trkpt>
      <trkpt lat="48.36857" lon="-3.52373">
        <ele>202.8</ele>
        <time>2024-09-07T15:15:17Z</time>
      </trkpt>
      <trkpt lat="48.36854" lon="-3.52367">
        <ele>202.8</ele>
        <time>2024-09-07T15:15:18Z</time>
      </trkpt>
      <trkpt lat="48.36851" lon="-3.52361">
        <ele>202.8</ele>
        <time>2024-09-07T15:15:19Z</time>
      </trkpt>
      <trkpt lat="48.36849" lon="-3.52354">
        <ele>202.8</ele>
        <time>2024-09-07T15:15:20Z</time>
      </trkpt>
      <trkpt lat="48.36847" lon="-3.52347">
        <ele>202.8</ele>
        <time>2024-09-07T15:15:21Z</time>
      </trkpt>
      <trkpt lat="48.36846" lon="-3.5234">
        <ele>203</ele>
        <time>2024-09-07T15:15:22Z</time>
      </trkpt>
      <trkpt lat="48.36844" lon="-3.52333">
        <ele>203</ele>
        <time>2024-09-07T15:15:23Z</time>
      </trkpt>
      <trkpt lat="48.36843" lon="-3.52326">
        <ele>203.2</ele>
        <time>2024-09-07T15:15:24Z</time>
      </trkpt>
      <trkpt lat="48.36843" lon="-3.52318">
        <ele>203.2</ele>
        <time>2024-09-07T15:15:25Z</time>
      </trkpt>
      <trkpt lat="48.36842" lon="-3.52311">
        <ele>203.4</ele>
        <time>2024-09-07T15:15:26Z</time>
      </trkpt>
      <trkpt lat="48.36842" lon="-3.52303">
        <ele>203.4</ele>
        <time>2024-09-07T15:15:27Z</time>
      </trkpt>
      <trkpt lat="48.36842" lon="-3.52296">
        <ele>203.4</ele>
        <time>2024-09-07T15:15:28Z</time>
      </trkpt>
      <trkpt lat="48.36842" lon="-3.52288">
        <ele>203.6</ele>
        <time>2024-09-07T15:15:29Z</time>
      </trkpt>
      <trkpt lat="48.36842" lon="-3.52281">
        <ele>203.6</ele>
        <time>2024-09-07T15:15:30Z</time>
      </trkpt>
      <trkpt lat="48.36842" lon="-3.52274">
        <ele>203.6</ele>
        <time>2024-09-07T15:15:31Z</time>
      </trkpt>
      <trkpt lat="48.36842" lon="-3.52268">
        <ele>203.8</ele>
        <time>2024-09-07T15:15:32Z</time>
      </trkpt>
      <trkpt lat="48.36841" lon="-3.52261">
        <ele>204</ele>
        <time>2024-09-07T15:15:33Z</time>
      </trkpt>
      <trkpt lat="48.36841" lon="-3.52255">
        <ele>204</ele>
        <time>2024-09-07T15:15:34Z</time>
      </trkpt>
      <trkpt lat="48.36841" lon="-3.52248">
        <ele>204.2</ele>
        <time>2024-09-07T15:15:35Z</time>
      </trkpt>
      <trkpt lat="48.3684" lon="-3.52241">
        <ele>204.2</ele>
        <time>2024-09-07T15:15:36Z</time>
      </trkpt>
      <trkpt lat="48.3684" lon="-3.52234">
        <ele>204.4</ele>
        <time>2024-09-07T15:15:37Z</time>
      </trkpt>
      <trkpt lat="48.36839" lon="-3.52227">
        <ele>204.6</ele>
        <time>2024-09-07T15:15:38Z</time>
      </trkpt>
      <trkpt lat="48.36839" lon="-3.5222">
        <ele>204.6</ele>
        <time>2024-09-07T15:15:39Z</time>
      </trkpt>
      <trkpt lat="48.36838" lon="-3.52214">
        <ele>204.8</ele>
        <time>2024-09-07T15:15:40Z</time>
      </trkpt>
      <trkpt lat="48.36837" lon="-3.52207">
        <ele>204.8</ele>
        <time>2024-09-07T15:15:41Z</time>
      </trkpt>
      <trkpt lat="48.36835" lon="-3.52201">
        <ele>205</ele>
        <time>2024-09-07T15:15:42Z</time>
      </trkpt>
      <trkpt lat="48.36833" lon="-3.52196">
        <ele>205.2</ele>
        <time>2024-09-07T15:15:43Z</time>
      </trkpt>
      <trkpt lat="48.3683" lon="-3.52191">
        <ele>205.2</ele>
        <time>2024-09-07T15:15:44Z</time>
      </trkpt>
      <trkpt lat="48.36827" lon="-3.52186">
        <ele>205.4</ele>
        <time>2024-09-07T15:15:45Z</time>
      </trkpt>
      <trkpt lat="48.36823" lon="-3.52181">
        <ele>205.4</ele>
        <time>2024-09-07T15:15:46Z</time>
      </trkpt>
      <trkpt lat="48.36819" lon="-3.52177">
        <ele>205.4</ele>
        <time>2024-09-07T15:15:47Z</time>
      </trkpt>
      <trkpt lat="48.36815" lon="-3.52172">
        <ele>205.4</ele>
        <time>2024-09-07T15:15:48Z</time>
      </trkpt>
      <trkpt lat="48.36811" lon="-3.52166">
        <ele>205.4</ele>
        <time>2024-09-07T15:15:49Z</time>
      </trkpt>
      <trkpt lat="48.36807" lon="-3.52161">
        <ele>205.6</ele>
        <time>2024-09-07T15:15:50Z</time>
      </trkpt>
      <trkpt lat="48.36803" lon="-3.52154">
        <ele>205.6</ele>
        <time>2024-09-07T15:15:51Z</time>
      </trkpt>
      <trkpt lat="48.36799" lon="-3.52148">
        <ele>205.6</ele>
        <time>2024-09-07T15:15:52Z</time>
      </trkpt>
      <trkpt lat="48.36796" lon="-3.52141">
        <ele>205.6</ele>
        <time>2024-09-07T15:15:53Z</time>
      </trkpt>
      <trkpt lat="48.36794" lon="-3.52134">
        <ele>205.8</ele>
        <time>2024-09-07T15:15:54Z</time>
      </trkpt>
      <trkpt lat="48.36792" lon="-3.52126">
        <ele>205.8</ele>
        <time>2024-09-07T15:15:55Z</time>
      </trkpt>
      <trkpt lat="48.3679" lon="-3.52119">
        <ele>205.8</ele>
        <time>2024-09-07T15:15:56Z</time>
      </trkpt>
      <trkpt lat="48.36789" lon="-3.52111">
        <ele>205.8</ele>
        <time>2024-09-07T15:15:57Z</time>
      </trkpt>
      <trkpt lat="48.36787" lon="-3.52104">
        <ele>205.6</ele>
        <time>2024-09-07T15:15:58Z</time>
      </trkpt>
      <trkpt lat="48.36786" lon="-3.52096">
        <ele>205.6</ele>
        <time>2024-09-07T15:15:59Z</time>
      </trkpt>
      <trkpt lat="48.36785" lon="-3.52089">
        <ele>205.6</ele>
        <time>2024-09-07T15:16:00Z</time>
      </trkpt>
      <trkpt lat="48.36784" lon="-3.52083">
        <ele>205.6</ele>
        <time>2024-09-07T15:16:01Z</time>
      </trkpt>
      <trkpt lat="48.36783" lon="-3.52076">
        <ele>205.6</ele>
        <time>2024-09-07T15:16:02Z</time>
      </trkpt>
      <trkpt lat="48.36782" lon="-3.5207">
        <ele>205.6</ele>
        <time>2024-09-07T15:16:03Z</time>
      </trkpt>
      <trkpt lat="48.36781" lon="-3.52063">
        <ele>205.4</ele>
        <time>2024-09-07T15:16:04Z</time>
      </trkpt>
      <trkpt lat="48.3678" lon="-3.52057">
        <ele>205.4</ele>
        <time>2024-09-07T15:16:05Z</time>
      </trkpt>
      <trkpt lat="48.36779" lon="-3.52051">
        <ele>205.4</ele>
        <time>2024-09-07T15:16:06Z</time>
      </trkpt>
      <trkpt lat="48.36778" lon="-3.52048">
        <ele>205.2</ele>
        <time>2024-09-07T15:16:07Z</time>
      </trkpt>
      <trkpt lat="48.36777" lon="-3.52043">
        <ele>205.2</ele>
        <time>2024-09-07T15:16:08Z</time>
      </trkpt>
      <trkpt lat="48.36776" lon="-3.52039">
        <ele>205</ele>
        <time>2024-09-07T15:16:09Z</time>
      </trkpt>
      <trkpt lat="48.36776" lon="-3.52036">
        <ele>205</ele>
        <time>2024-09-07T15:16:10Z</time>
      </trkpt>
      <trkpt lat="48.36776" lon="-3.52033">
        <ele>204.8</ele>
        <time>2024-09-07T15:16:11Z</time>
      </trkpt>
      <trkpt lat="48.36776" lon="-3.5203">
        <ele>204.6</ele>
        <time>2024-09-07T15:16:12Z</time>
      </trkpt>
      <trkpt lat="48.36776" lon="-3.52028">
        <ele>204.6</ele>
        <time>2024-09-07T15:16:13Z</time>
      </trkpt>
      <trkpt lat="48.36776" lon="-3.52028">
        <ele>204.4</ele>
        <time>2024-09-07T15:16:14Z</time>
      </trkpt>
      <trkpt lat="48.36776" lon="-3.52028">
        <ele>204.2</ele>
        <time>2024-09-07T15:16:15Z</time>
      </trkpt>
      <trkpt lat="48.3678" lon="-3.52029">
        <ele>204</ele>
        <time>2024-09-07T15:16:20Z</time>
      </trkpt>
      <trkpt lat="48.3678" lon="-3.52031">
        <ele>203.8</ele>
        <time>2024-09-07T15:16:21Z</time>
      </trkpt>
      <trkpt lat="48.3678" lon="-3.52034">
        <ele>203.8</ele>
        <time>2024-09-07T15:16:22Z</time>
      </trkpt>
      <trkpt lat="48.3678" lon="-3.52037">
        <ele>203.8</ele>
        <time>2024-09-07T15:16:23Z</time>
      </trkpt>
      <trkpt lat="48.36781" lon="-3.52041">
        <ele>203.8</ele>
        <time>2024-09-07T15:16:24Z</time>
      </trkpt>
      <trkpt lat="48.36782" lon="-3.52045">
        <ele>203.8</ele>
        <time>2024-09-07T15:16:25Z</time>
      </trkpt>
      <trkpt lat="48.36782" lon="-3.52049">
        <ele>203.8</ele>
        <time>2024-09-07T15:16:26Z</time>
      </trkpt>
      <trkpt lat="48.36782" lon="-3.52054">
        <ele>203.8</ele>
        <time>2024-09-07T15:16:27Z</time>
      </trkpt>
      <trkpt lat="48.36782" lon="-3.52059">
        <ele>203.8</ele>
        <time>2024-09-07T15:16:28Z</time>
      </trkpt>
      <trkpt lat="48.36783" lon="-3.52064">
        <ele>203.8</ele>
        <time>2024-09-07T15:16:29Z</time>
      </trkpt>
      <trkpt lat="48.36785" lon="-3.52068">
        <ele>203.8</ele>
        <time>2024-09-07T15:16:30Z</time>
      </trkpt>
      <trkpt lat="48.36787" lon="-3.52071">
        <ele>203.8</ele>
        <time>2024-09-07T15:16:31Z</time>
      </trkpt>
      <trkpt lat="48.36791" lon="-3.52072">
        <ele>203.8</ele>
        <time>2024-09-07T15:16:32Z</time>
      </trkpt>
      <trkpt lat="48.36794" lon="-3.52072">
        <ele>203.8</ele>
        <time>2024-09-07T15:16:33Z</time>
      </trkpt>
      <trkpt lat="48.36798" lon="-3.52072">
        <ele>203.8</ele>
        <time>2024-09-07T15:16:34Z</time>
      </trkpt>
      <trkpt lat="48.36801" lon="-3.52071">
        <ele>204</ele>
        <time>2024-09-07T15:16:35Z</time>
      </trkpt>
      <trkpt lat="48.36804" lon="-3.5207">
        <ele>204</ele>
        <time>2024-09-07T15:16:36Z</time>
      </trkpt>
      <trkpt lat="48.36808" lon="-3.52069">
        <ele>204</ele>
        <time>2024-09-07T15:16:37Z</time>
      </trkpt>
      <trkpt lat="48.36812" lon="-3.52068">
        <ele>204</ele>
        <time>2024-09-07T15:16:38Z</time>
      </trkpt>
      <trkpt lat="48.36817" lon="-3.52066">
        <ele>204.2</ele>
        <time>2024-09-07T15:16:39Z</time>
      </trkpt>
      <trkpt lat="48.36822" lon="-3.52065">
        <ele>204.2</ele>
        <time>2024-09-07T15:16:40Z</time>
      </trkpt>
      <trkpt lat="48.36827" lon="-3.52064">
        <ele>204.4</ele>
        <time>2024-09-07T15:16:41Z</time>
      </trkpt>
      <trkpt lat="48.36832" lon="-3.52062">
        <ele>204.4</ele>
        <time>2024-09-07T15:16:42Z</time>
      </trkpt>
      <trkpt lat="48.36837" lon="-3.5206">
        <ele>204.6</ele>
        <time>2024-09-07T15:16:43Z</time>
      </trkpt>
      <trkpt lat="48.36843" lon="-3.52059">
        <ele>204.6</ele>
        <time>2024-09-07T15:16:44Z</time>
      </trkpt>
      <trkpt lat="48.36848" lon="-3.52058">
        <ele>204.6</ele>
        <time>2024-09-07T15:16:45Z</time>
      </trkpt>
      <trkpt lat="48.36853" lon="-3.52056">
        <ele>204.6</ele>
        <time>2024-09-07T15:16:46Z</time>
      </trkpt>
      <trkpt lat="48.36858" lon="-3.52055">
        <ele>204.8</ele>
        <time>2024-09-07T15:16:47Z</time>
      </trkpt>
      <trkpt lat="48.36864" lon="-3.52054">
        <ele>204.8</ele>
        <time>2024-09-07T15:16:48Z</time>
      </trkpt>
      <trkpt lat="48.36869" lon="-3.52054">
        <ele>204.8</ele>
        <time>2024-09-07T15:16:49Z</time>
      </trkpt>
      <trkpt lat="48.36874" lon="-3.52054">
        <ele>204.8</ele>
        <time>2024-09-07T15:16:50Z</time>
      </trkpt>
      <trkpt lat="48.36879" lon="-3.52054">
        <ele>204.8</ele>
        <time>2024-09-07T15:16:51Z</time>
      </trkpt>
      <trkpt lat="48.36884" lon="-3.52053">
        <ele>204.8</ele>
        <time>2024-09-07T15:16:52Z</time>
      </trkpt>
      <trkpt lat="48.3689" lon="-3.52051">
        <ele>204.8</ele>
        <time>2024-09-07T15:16:53Z</time>
      </trkpt>
      <trkpt lat="48.36895" lon="-3.5205">
        <ele>204.8</ele>
        <time>2024-09-07T15:16:54Z</time>
      </trkpt>
      <trkpt lat="48.369" lon="-3.52048">
        <ele>204.8</ele>
        <time>2024-09-07T15:16:55Z</time>
      </trkpt>
      <trkpt lat="48.36906" lon="-3.52047">
        <ele>204.8</ele>
        <time>2024-09-07T15:16:56Z</time>
      </trkpt>
      <trkpt lat="48.36911" lon="-3.52046">
        <ele>204.8</ele>
        <time>2024-09-07T15:16:57Z</time>
      </trkpt>
      <trkpt lat="48.36916" lon="-3.52045">
        <ele>204.8</ele>
        <time>2024-09-07T15:16:58Z</time>
      </trkpt>
      <trkpt lat="48.36922" lon="-3.52045">
        <ele>204.8</ele>
        <time>2024-09-07T15:16:59Z</time>
      </trkpt>
      <trkpt lat="48.36927" lon="-3.52044">
        <ele>204.8</ele>
        <time>2024-09-07T15:17:00Z</time>
      </trkpt>
      <trkpt lat="48.36931" lon="-3.52044">
        <ele>204.8</ele>
        <time>2024-09-07T15:17:01Z</time>
      </trkpt>
      <trkpt lat="48.36936" lon="-3.52043">
        <ele>204.6</ele>
        <time>2024-09-07T15:17:02Z</time>
      </trkpt>
      <trkpt lat="48.36941" lon="-3.52043">
        <ele>204.6</ele>
        <time>2024-09-07T15:17:03Z</time>
      </trkpt>
      <trkpt lat="48.36946" lon="-3.52043">
        <ele>204.6</ele>
        <time>2024-09-07T15:17:04Z</time>
      </trkpt>
      <trkpt lat="48.36951" lon="-3.52043">
        <ele>204.8</ele>
        <time>2024-09-07T15:17:05Z</time>
      </trkpt>
      <trkpt lat="48.36956" lon="-3.52043">
        <ele>204.8</ele>
        <time>2024-09-07T15:17:06Z</time>
      </trkpt>
      <trkpt lat="48.36961" lon="-3.52043">
        <ele>204.8</ele>
        <time>2024-09-07T15:17:07Z</time>
      </trkpt>
      <trkpt lat="48.36966" lon="-3.52043">
        <ele>204.8</ele>
        <time>2024-09-07T15:17:08Z</time>
      </trkpt>
      <trkpt lat="48.36971" lon="-3.52042">
        <ele>204.8</ele>
        <time>2024-09-07T15:17:09Z</time>
      </trkpt>
      <trkpt lat="48.36976" lon="-3.52041">
        <ele>204.8</ele>
        <time>2024-09-07T15:17:10Z</time>
      </trkpt>
      <trkpt lat="48.36982" lon="-3.5204">
        <ele>204.8</ele>
        <time>2024-09-07T15:17:11Z</time>
      </trkpt>
      <trkpt lat="48.36988" lon="-3.52039">
        <ele>204.8</ele>
        <time>2024-09-07T15:17:12Z</time>
      </trkpt>
      <trkpt lat="48.36994" lon="-3.52039">
        <ele>204.8</ele>
        <time>2024-09-07T15:17:13Z</time>
      </trkpt>
      <trkpt lat="48.37" lon="-3.52037">
        <ele>204.8</ele>
        <time>2024-09-07T15:17:14Z</time>
      </trkpt>
      <trkpt lat="48.37006" lon="-3.52036">
        <ele>205</ele>
        <time>2024-09-07T15:17:15Z</time>
      </trkpt>
      <trkpt lat="48.37012" lon="-3.52034">
        <ele>205</ele>
        <time>2024-09-07T15:17:16Z</time>
      </trkpt>
      <trkpt lat="48.37018" lon="-3.52033">
        <ele>205</ele>
        <time>2024-09-07T15:17:17Z</time>
      </trkpt>
      <trkpt lat="48.37024" lon="-3.52032">
        <ele>205.2</ele>
        <time>2024-09-07T15:17:18Z</time>
      </trkpt>
      <trkpt lat="48.37031" lon="-3.52031">
        <ele>205.4</ele>
        <time>2024-09-07T15:17:19Z</time>
      </trkpt>
      <trkpt lat="48.37037" lon="-3.5203">
        <ele>205.4</ele>
        <time>2024-09-07T15:17:20Z</time>
      </trkpt>
      <trkpt lat="48.37044" lon="-3.52029">
        <ele>205.4</ele>
        <time>2024-09-07T15:17:21Z</time>
      </trkpt>
      <trkpt lat="48.37051" lon="-3.52028">
        <ele>205.6</ele>
        <time>2024-09-07T15:17:22Z</time>
      </trkpt>
      <trkpt lat="48.37057" lon="-3.52028">
        <ele>205.6</ele>
        <time>2024-09-07T15:17:23Z</time>
      </trkpt>
      <trkpt lat="48.37064" lon="-3.52027">
        <ele>205.6</ele>
        <time>2024-09-07T15:17:24Z</time>
      </trkpt>
      <trkpt lat="48.37071" lon="-3.52027">
        <ele>205.6</ele>
        <time>2024-09-07T15:17:25Z</time>
      </trkpt>
      <trkpt lat="48.37078" lon="-3.52026">
        <ele>205.6</ele>
        <time>2024-09-07T15:17:26Z</time>
      </trkpt>
      <trkpt lat="48.37085" lon="-3.52025">
        <ele>205.6</ele>
        <time>2024-09-07T15:17:27Z</time>
      </trkpt>
      <trkpt lat="48.37092" lon="-3.52024">
        <ele>205.6</ele>
        <time>2024-09-07T15:17:28Z</time>
      </trkpt>
      <trkpt lat="48.37099" lon="-3.52024">
        <ele>205.6</ele>
        <time>2024-09-07T15:17:29Z</time>
      </trkpt>
      <trkpt lat="48.37106" lon="-3.52024">
        <ele>205.6</ele>
        <time>2024-09-07T15:17:30Z</time>
      </trkpt>
      <trkpt lat="48.37113" lon="-3.52025">
        <ele>205.6</ele>
        <time>2024-09-07T15:17:31Z</time>
      </trkpt>
      <trkpt lat="48.37119" lon="-3.52026">
        <ele>205.6</ele>
        <time>2024-09-07T15:17:32Z</time>
      </trkpt>
      <trkpt lat="48.37126" lon="-3.52028">
        <ele>205.6</ele>
        <time>2024-09-07T15:17:33Z</time>
      </trkpt>
      <trkpt lat="48.37132" lon="-3.52031">
        <ele>205.6</ele>
        <time>2024-09-07T15:17:34Z</time>
      </trkpt>
      <trkpt lat="48.37137" lon="-3.52034">
        <ele>205.6</ele>
        <time>2024-09-07T15:17:35Z</time>
      </trkpt>
      <trkpt lat="48.37142" lon="-3.52037">
        <ele>205.6</ele>
        <time>2024-09-07T15:17:36Z</time>
      </trkpt>
      <trkpt lat="48.37147" lon="-3.52041">
        <ele>205.6</ele>
        <time>2024-09-07T15:17:37Z</time>
      </trkpt>
      <trkpt lat="48.37152" lon="-3.52045">
        <ele>205.6</ele>
        <time>2024-09-07T15:17:38Z</time>
      </trkpt>
      <trkpt lat="48.37157" lon="-3.5205">
        <ele>205.8</ele>
        <time>2024-09-07T15:17:39Z</time>
      </trkpt>
      <trkpt lat="48.37162" lon="-3.52053">
        <ele>205.8</ele>
        <time>2024-09-07T15:17:40Z</time>
      </trkpt>
      <trkpt lat="48.37167" lon="-3.52057">
        <ele>205.8</ele>
        <time>2024-09-07T15:17:41Z</time>
      </trkpt>
      <trkpt lat="48.37172" lon="-3.52061">
        <ele>205.8</ele>
        <time>2024-09-07T15:17:42Z</time>
      </trkpt>
      <trkpt lat="48.37177" lon="-3.52064">
        <ele>205.8</ele>
        <time>2024-09-07T15:17:43Z</time>
      </trkpt>
      <trkpt lat="48.37182" lon="-3.52068">
        <ele>205.8</ele>
        <time>2024-09-07T15:17:44Z</time>
      </trkpt>
      <trkpt lat="48.37187" lon="-3.52071">
        <ele>206</ele>
        <time>2024-09-07T15:17:45Z</time>
      </trkpt>
      <trkpt lat="48.37192" lon="-3.52075">
        <ele>206</ele>
        <time>2024-09-07T15:17:46Z</time>
      </trkpt>
      <trkpt lat="48.37198" lon="-3.52079">
        <ele>206</ele>
        <time>2024-09-07T15:17:47Z</time>
      </trkpt>
      <trkpt lat="48.37203" lon="-3.52081">
        <ele>206</ele>
        <time>2024-09-07T15:17:48Z</time>
      </trkpt>
      <trkpt lat="48.37208" lon="-3.52084">
        <ele>206.2</ele>
        <time>2024-09-07T15:17:49Z</time>
      </trkpt>
      <trkpt lat="48.37214" lon="-3.52086">
        <ele>206.4</ele>
        <time>2024-09-07T15:17:50Z</time>
      </trkpt>
      <trkpt lat="48.37219" lon="-3.52088">
        <ele>206.4</ele>
        <time>2024-09-07T15:17:51Z</time>
      </trkpt>
      <trkpt lat="48.37225" lon="-3.5209">
        <ele>206.6</ele>
        <time>2024-09-07T15:17:52Z</time>
      </trkpt>
      <trkpt lat="48.3723" lon="-3.52092">
        <ele>206.6</ele>
        <time>2024-09-07T15:17:53Z</time>
      </trkpt>
      <trkpt lat="48.37235" lon="-3.52094">
        <ele>206.8</ele>
        <time>2024-09-07T15:17:54Z</time>
      </trkpt>
      <trkpt lat="48.37241" lon="-3.52096">
        <ele>207</ele>
        <time>2024-09-07T15:17:55Z</time>
      </trkpt>
      <trkpt lat="48.37246" lon="-3.52098">
        <ele>207.2</ele>
        <time>2024-09-07T15:17:56Z</time>
      </trkpt>
      <trkpt lat="48.37251" lon="-3.521">
        <ele>207.2</ele>
        <time>2024-09-07T15:17:57Z</time>
      </trkpt>
      <trkpt lat="48.37257" lon="-3.52102">
        <ele>207.4</ele>
        <time>2024-09-07T15:17:58Z</time>
      </trkpt>
      <trkpt lat="48.37262" lon="-3.52104">
        <ele>207.6</ele>
        <time>2024-09-07T15:17:59Z</time>
      </trkpt>
      <trkpt lat="48.37268" lon="-3.52106">
        <ele>207.6</ele>
        <time>2024-09-07T15:18:00Z</time>
      </trkpt>
      <trkpt lat="48.37273" lon="-3.52108">
        <ele>207.8</ele>
        <time>2024-09-07T15:18:01Z</time>
      </trkpt>
      <trkpt lat="48.37278" lon="-3.5211">
        <ele>207.8</ele>
        <time>2024-09-07T15:18:02Z</time>
      </trkpt>
      <trkpt lat="48.37284" lon="-3.52113">
        <ele>208</ele>
        <time>2024-09-07T15:18:03Z</time>
      </trkpt>
      <trkpt lat="48.3729" lon="-3.52115">
        <ele>208.2</ele>
        <time>2024-09-07T15:18:04Z</time>
      </trkpt>
      <trkpt lat="48.37295" lon="-3.52118">
        <ele>208.2</ele>
        <time>2024-09-07T15:18:05Z</time>
      </trkpt>
      <trkpt lat="48.37301" lon="-3.52121">
        <ele>208.2</ele>
        <time>2024-09-07T15:18:06Z</time>
      </trkpt>
      <trkpt lat="48.37306" lon="-3.52124">
        <ele>208.4</ele>
        <time>2024-09-07T15:18:07Z</time>
      </trkpt>
      <trkpt lat="48.37311" lon="-3.52127">
        <ele>208.4</ele>
        <time>2024-09-07T15:18:08Z</time>
      </trkpt>
      <trkpt lat="48.37316" lon="-3.5213">
        <ele>208.6</ele>
        <time>2024-09-07T15:18:09Z</time>
      </trkpt>
      <trkpt lat="48.37321" lon="-3.52133">
        <ele>208.6</ele>
        <time>2024-09-07T15:18:10Z</time>
      </trkpt>
      <trkpt lat="48.37327" lon="-3.52136">
        <ele>208.8</ele>
        <time>2024-09-07T15:18:11Z</time>
      </trkpt>
      <trkpt lat="48.37332" lon="-3.52139">
        <ele>208.8</ele>
        <time>2024-09-07T15:18:12Z</time>
      </trkpt>
      <trkpt lat="48.37338" lon="-3.52142">
        <ele>209</ele>
        <time>2024-09-07T15:18:13Z</time>
      </trkpt>
      <trkpt lat="48.37343" lon="-3.52145">
        <ele>209</ele>
        <time>2024-09-07T15:18:14Z</time>
      </trkpt>
      <trkpt lat="48.37349" lon="-3.52149">
        <ele>209</ele>
        <time>2024-09-07T15:18:15Z</time>
      </trkpt>
      <trkpt lat="48.37354" lon="-3.52152">
        <ele>209</ele>
        <time>2024-09-07T15:18:16Z</time>
      </trkpt>
      <trkpt lat="48.37359" lon="-3.52156">
        <ele>209.2</ele>
        <time>2024-09-07T15:18:17Z</time>
      </trkpt>
      <trkpt lat="48.37365" lon="-3.52159">
        <ele>209.2</ele>
        <time>2024-09-07T15:18:18Z</time>
      </trkpt>
      <trkpt lat="48.37371" lon="-3.52164">
        <ele>209.2</ele>
        <time>2024-09-07T15:18:19Z</time>
      </trkpt>
      <trkpt lat="48.37376" lon="-3.52167">
        <ele>209.4</ele>
        <time>2024-09-07T15:18:20Z</time>
      </trkpt>
      <trkpt lat="48.37381" lon="-3.52171">
        <ele>209.4</ele>
        <time>2024-09-07T15:18:21Z</time>
      </trkpt>
      <trkpt lat="48.37387" lon="-3.52175">
        <ele>209.4</ele>
        <time>2024-09-07T15:18:22Z</time>
      </trkpt>
      <trkpt lat="48.37392" lon="-3.52179">
        <ele>209.4</ele>
        <time>2024-09-07T15:18:23Z</time>
      </trkpt>
      <trkpt lat="48.37397" lon="-3.52183">
        <ele>209.4</ele>
        <time>2024-09-07T15:18:24Z</time>
      </trkpt>
      <trkpt lat="48.37402" lon="-3.52187">
        <ele>209.4</ele>
        <time>2024-09-07T15:18:25Z</time>
      </trkpt>
      <trkpt lat="48.37407" lon="-3.52191">
        <ele>209.4</ele>
        <time>2024-09-07T15:18:26Z</time>
      </trkpt>
      <trkpt lat="48.37412" lon="-3.52195">
        <ele>209.4</ele>
        <time>2024-09-07T15:18:27Z</time>
      </trkpt>
      <trkpt lat="48.37417" lon="-3.52199">
        <ele>209.4</ele>
        <time>2024-09-07T15:18:28Z</time>
      </trkpt>
      <trkpt lat="48.37422" lon="-3.52203">
        <ele>209.4</ele>
        <time>2024-09-07T15:18:29Z</time>
      </trkpt>
      <trkpt lat="48.37427" lon="-3.52207">
        <ele>209.4</ele>
        <time>2024-09-07T15:18:30Z</time>
      </trkpt>
      <trkpt lat="48.37432" lon="-3.52211">
        <ele>209.4</ele>
        <time>2024-09-07T15:18:31Z</time>
      </trkpt>
      <trkpt lat="48.37437" lon="-3.52215">
        <ele>209.4</ele>
        <time>2024-09-07T15:18:32Z</time>
      </trkpt>
      <trkpt lat="48.37442" lon="-3.52218">
        <ele>209.2</ele>
        <time>2024-09-07T15:18:33Z</time>
      </trkpt>
      <trkpt lat="48.37447" lon="-3.52223">
        <ele>209.2</ele>
        <time>2024-09-07T15:18:34Z</time>
      </trkpt>
      <trkpt lat="48.37452" lon="-3.52227">
        <ele>209.2</ele>
        <time>2024-09-07T15:18:35Z</time>
      </trkpt>
      <trkpt lat="48.37457" lon="-3.52232">
        <ele>209.2</ele>
        <time>2024-09-07T15:18:36Z</time>
      </trkpt>
      <trkpt lat="48.37462" lon="-3.52236">
        <ele>209.2</ele>
        <time>2024-09-07T15:18:37Z</time>
      </trkpt>
      <trkpt lat="48.37467" lon="-3.52241">
        <ele>209.2</ele>
        <time>2024-09-07T15:18:38Z</time>
      </trkpt>
      <trkpt lat="48.37473" lon="-3.52245">
        <ele>209.2</ele>
        <time>2024-09-07T15:18:39Z</time>
      </trkpt>
      <trkpt lat="48.37479" lon="-3.5225">
        <ele>209.2</ele>
        <time>2024-09-07T15:18:40Z</time>
      </trkpt>
      <trkpt lat="48.37485" lon="-3.52254">
        <ele>209</ele>
        <time>2024-09-07T15:18:41Z</time>
      </trkpt>
      <trkpt lat="48.37491" lon="-3.52259">
        <ele>208.8</ele>
        <time>2024-09-07T15:18:42Z</time>
      </trkpt>
      <trkpt lat="48.37497" lon="-3.52264">
        <ele>208.8</ele>
        <time>2024-09-07T15:18:43Z</time>
      </trkpt>
      <trkpt lat="48.37504" lon="-3.52269">
        <ele>208.6</ele>
        <time>2024-09-07T15:18:44Z</time>
      </trkpt>
      <trkpt lat="48.37512" lon="-3.52275">
        <ele>208.6</ele>
        <time>2024-09-07T15:18:45Z</time>
      </trkpt>
      <trkpt lat="48.37517" lon="-3.52279">
        <ele>208.6</ele>
        <time>2024-09-07T15:18:46Z</time>
      </trkpt>
      <trkpt lat="48.37524" lon="-3.52284">
        <ele>208.4</ele>
        <time>2024-09-07T15:18:47Z</time>
      </trkpt>
      <trkpt lat="48.37532" lon="-3.52289">
        <ele>208.4</ele>
        <time>2024-09-07T15:18:48Z</time>
      </trkpt>
      <trkpt lat="48.37539" lon="-3.52294">
        <ele>208.2</ele>
        <time>2024-09-07T15:18:49Z</time>
      </trkpt>
      <trkpt lat="48.37546" lon="-3.52299">
        <ele>208</ele>
        <time>2024-09-07T15:18:50Z</time>
      </trkpt>
      <trkpt lat="48.37554" lon="-3.52304">
        <ele>208</ele>
        <time>2024-09-07T15:18:51Z</time>
      </trkpt>
      <trkpt lat="48.37562" lon="-3.52309">
        <ele>207.8</ele>
        <time>2024-09-07T15:18:52Z</time>
      </trkpt>
      <trkpt lat="48.3757" lon="-3.52314">
        <ele>207.8</ele>
        <time>2024-09-07T15:18:53Z</time>
      </trkpt>
      <trkpt lat="48.37578" lon="-3.52319">
        <ele>207.8</ele>
        <time>2024-09-07T15:18:54Z</time>
      </trkpt>
      <trkpt lat="48.37587" lon="-3.52323">
        <ele>207.2</ele>
        <time>2024-09-07T15:18:55Z</time>
      </trkpt>
      <trkpt lat="48.37596" lon="-3.52326">
        <ele>207</ele>
        <time>2024-09-07T15:18:56Z</time>
      </trkpt>
      <trkpt lat="48.37605" lon="-3.52329">
        <ele>206.8</ele>
        <time>2024-09-07T15:18:57Z</time>
      </trkpt>
      <trkpt lat="48.37615" lon="-3.52331">
        <ele>206.6</ele>
        <time>2024-09-07T15:18:58Z</time>
      </trkpt>
      <trkpt lat="48.37625" lon="-3.52333">
        <ele>206.2</ele>
        <time>2024-09-07T15:18:59Z</time>
      </trkpt>
      <trkpt lat="48.37635" lon="-3.52335">
        <ele>206</ele>
        <time>2024-09-07T15:19:00Z</time>
      </trkpt>
      <trkpt lat="48.37646" lon="-3.52336">
        <ele>205.8</ele>
        <time>2024-09-07T15:19:01Z</time>
      </trkpt>
      <trkpt lat="48.37657" lon="-3.52337">
        <ele>205.6</ele>
        <time>2024-09-07T15:19:02Z</time>
      </trkpt>
      <trkpt lat="48.37668" lon="-3.52337">
        <ele>205.2</ele>
        <time>2024-09-07T15:19:03Z</time>
      </trkpt>
      <trkpt lat="48.37679" lon="-3.52336">
        <ele>205</ele>
        <time>2024-09-07T15:19:04Z</time>
      </trkpt>
      <trkpt lat="48.3769" lon="-3.52335">
        <ele>204.4</ele>
        <time>2024-09-07T15:19:05Z</time>
      </trkpt>
      <trkpt lat="48.37701" lon="-3.52334">
        <ele>204</ele>
        <time>2024-09-07T15:19:06Z</time>
      </trkpt>
      <trkpt lat="48.37711" lon="-3.52332">
        <ele>203.6</ele>
        <time>2024-09-07T15:19:07Z</time>
      </trkpt>
      <trkpt lat="48.37721" lon="-3.5233">
        <ele>203.2</ele>
        <time>2024-09-07T15:19:08Z</time>
      </trkpt>
      <trkpt lat="48.37731" lon="-3.52327">
        <ele>203.2</ele>
        <time>2024-09-07T15:19:09Z</time>
      </trkpt>
      <trkpt lat="48.37741" lon="-3.52325">
        <ele>202.2</ele>
        <time>2024-09-07T15:19:10Z</time>
      </trkpt>
      <trkpt lat="48.37751" lon="-3.52324">
        <ele>200.8</ele>
        <time>2024-09-07T15:19:11Z</time>
      </trkpt>
      <trkpt lat="48.3776" lon="-3.52322">
        <ele>199.8</ele>
        <time>2024-09-07T15:19:12Z</time>
      </trkpt>
      <trkpt lat="48.37769" lon="-3.5232">
        <ele>199</ele>
        <time>2024-09-07T15:19:13Z</time>
      </trkpt>
      <trkpt lat="48.37778" lon="-3.52318">
        <ele>198.2</ele>
        <time>2024-09-07T15:19:14Z</time>
      </trkpt>
      <trkpt lat="48.37787" lon="-3.52316">
        <ele>197.6</ele>
        <time>2024-09-07T15:19:15Z</time>
      </trkpt>
      <trkpt lat="48.37796" lon="-3.52314">
        <ele>197</ele>
        <time>2024-09-07T15:19:16Z</time>
      </trkpt>
      <trkpt lat="48.37805" lon="-3.52312">
        <ele>196.6</ele>
        <time>2024-09-07T15:19:17Z</time>
      </trkpt>
      <trkpt lat="48.37813" lon="-3.52309">
        <ele>196.4</ele>
        <time>2024-09-07T15:19:18Z</time>
      </trkpt>
      <trkpt lat="48.37822" lon="-3.52305">
        <ele>196.2</ele>
        <time>2024-09-07T15:19:19Z</time>
      </trkpt>
      <trkpt lat="48.3783" lon="-3.523">
        <ele>196</ele>
        <time>2024-09-07T15:19:20Z</time>
      </trkpt>
      <trkpt lat="48.37838" lon="-3.52295">
        <ele>195.8</ele>
        <time>2024-09-07T15:19:21Z</time>
      </trkpt>
      <trkpt lat="48.37846" lon="-3.52289">
        <ele>195.6</ele>
        <time>2024-09-07T15:19:22Z</time>
      </trkpt>
      <trkpt lat="48.37854" lon="-3.52283">
        <ele>195.6</ele>
        <time>2024-09-07T15:19:23Z</time>
      </trkpt>
      <trkpt lat="48.37862" lon="-3.52277">
        <ele>195.4</ele>
        <time>2024-09-07T15:19:24Z</time>
      </trkpt>
      <trkpt lat="48.37869" lon="-3.52269">
        <ele>195</ele>
        <time>2024-09-07T15:19:25Z</time>
      </trkpt>
      <trkpt lat="48.37877" lon="-3.5226">
        <ele>194.8</ele>
        <time>2024-09-07T15:19:26Z</time>
      </trkpt>
      <trkpt lat="48.37884" lon="-3.52252">
        <ele>194.6</ele>
        <time>2024-09-07T15:19:27Z</time>
      </trkpt>
      <trkpt lat="48.37891" lon="-3.52244">
        <ele>194.2</ele>
        <time>2024-09-07T15:19:28Z</time>
      </trkpt>
      <trkpt lat="48.37898" lon="-3.52236">
        <ele>194</ele>
        <time>2024-09-07T15:19:29Z</time>
      </trkpt>
      <trkpt lat="48.37906" lon="-3.5223">
        <ele>193.8</ele>
        <time>2024-09-07T15:19:30Z</time>
      </trkpt>
      <trkpt lat="48.37915" lon="-3.52226">
        <ele>193.8</ele>
        <time>2024-09-07T15:19:31Z</time>
      </trkpt>
      <trkpt lat="48.37924" lon="-3.52225">
        <ele>193.4</ele>
        <time>2024-09-07T15:19:32Z</time>
      </trkpt>
      <trkpt lat="48.37933" lon="-3.52226">
        <ele>192.8</ele>
        <time>2024-09-07T15:19:33Z</time>
      </trkpt>
      <trkpt lat="48.37943" lon="-3.52228">
        <ele>192.4</ele>
        <time>2024-09-07T15:19:34Z</time>
      </trkpt>
      <trkpt lat="48.37953" lon="-3.52231">
        <ele>192.2</ele>
        <time>2024-09-07T15:19:35Z</time>
      </trkpt>
      <trkpt lat="48.37964" lon="-3.52234">
        <ele>191.4</ele>
        <time>2024-09-07T15:19:36Z</time>
      </trkpt>
      <trkpt lat="48.37975" lon="-3.52238">
        <ele>190.6</ele>
        <time>2024-09-07T15:19:37Z</time>
      </trkpt>
      <trkpt lat="48.37987" lon="-3.52241">
        <ele>189.8</ele>
        <time>2024-09-07T15:19:38Z</time>
      </trkpt>
      <trkpt lat="48.38002" lon="-3.52245">
        <ele>188.6</ele>
        <time>2024-09-07T15:19:39Z</time>
      </trkpt>
      <trkpt lat="48.38012" lon="-3.52247">
        <ele>187.6</ele>
        <time>2024-09-07T15:19:40Z</time>
      </trkpt>
      <trkpt lat="48.38025" lon="-3.52249">
        <ele>186.4</ele>
        <time>2024-09-07T15:19:41Z</time>
      </trkpt>
      <trkpt lat="48.38038" lon="-3.52251">
        <ele>185.2</ele>
        <time>2024-09-07T15:19:42Z</time>
      </trkpt>
      <trkpt lat="48.38051" lon="-3.52251">
        <ele>184</ele>
        <time>2024-09-07T15:19:43Z</time>
      </trkpt>
      <trkpt lat="48.38064" lon="-3.52248">
        <ele>183</ele>
        <time>2024-09-07T15:19:44Z</time>
      </trkpt>
      <trkpt lat="48.38077" lon="-3.52243">
        <ele>181.8</ele>
        <time>2024-09-07T15:19:45Z</time>
      </trkpt>
      <trkpt lat="48.38092" lon="-3.52234">
        <ele>180.4</ele>
        <time>2024-09-07T15:19:46Z</time>
      </trkpt>
      <trkpt lat="48.38102" lon="-3.52226">
        <ele>178.8</ele>
        <time>2024-09-07T15:19:47Z</time>
      </trkpt>
      <trkpt lat="48.38116" lon="-3.52213">
        <ele>177.2</ele>
        <time>2024-09-07T15:19:48Z</time>
      </trkpt>
      <trkpt lat="48.38125" lon="-3.52203">
        <ele>175.4</ele>
        <time>2024-09-07T15:19:49Z</time>
      </trkpt>
      <trkpt lat="48.38136" lon="-3.52192">
        <ele>173.4</ele>
        <time>2024-09-07T15:19:50Z</time>
      </trkpt>
      <trkpt lat="48.38146" lon="-3.52182">
        <ele>171.4</ele>
        <time>2024-09-07T15:19:51Z</time>
      </trkpt>
      <trkpt lat="48.38157" lon="-3.52174">
        <ele>169.8</ele>
        <time>2024-09-07T15:19:52Z</time>
      </trkpt>
      <trkpt lat="48.38167" lon="-3.52167">
        <ele>168.6</ele>
        <time>2024-09-07T15:19:53Z</time>
      </trkpt>
      <trkpt lat="48.38177" lon="-3.52162">
        <ele>167.4</ele>
        <time>2024-09-07T15:19:54Z</time>
      </trkpt>
      <trkpt lat="48.38187" lon="-3.52158">
        <ele>167.4</ele>
        <time>2024-09-07T15:19:55Z</time>
      </trkpt>
      <trkpt lat="48.38198" lon="-3.52155">
        <ele>166.4</ele>
        <time>2024-09-07T15:19:56Z</time>
      </trkpt>
      <trkpt lat="48.38208" lon="-3.52151">
        <ele>165.2</ele>
        <time>2024-09-07T15:19:57Z</time>
      </trkpt>
      <trkpt lat="48.38218" lon="-3.52147">
        <ele>164</ele>
        <time>2024-09-07T15:19:58Z</time>
      </trkpt>
      <trkpt lat="48.38228" lon="-3.52144">
        <ele>162.8</ele>
        <time>2024-09-07T15:19:59Z</time>
      </trkpt>
      <trkpt lat="48.38237" lon="-3.52139">
        <ele>161.8</ele>
        <time>2024-09-07T15:20:00Z</time>
      </trkpt>
      <trkpt lat="48.38245" lon="-3.52132">
        <ele>161.2</ele>
        <time>2024-09-07T15:20:01Z</time>
      </trkpt>
      <trkpt lat="48.38252" lon="-3.52122">
        <ele>161</ele>
        <time>2024-09-07T15:20:02Z</time>
      </trkpt>
      <trkpt lat="48.38257" lon="-3.52108">
        <ele>160.8</ele>
        <time>2024-09-07T15:20:03Z</time>
      </trkpt>
      <trkpt lat="48.38259" lon="-3.52098">
        <ele>160.6</ele>
        <time>2024-09-07T15:20:04Z</time>
      </trkpt>
      <trkpt lat="48.38261" lon="-3.52085">
        <ele>160.2</ele>
        <time>2024-09-07T15:20:05Z</time>
      </trkpt>
      <trkpt lat="48.38262" lon="-3.52071">
        <ele>160</ele>
        <time>2024-09-07T15:20:06Z</time>
      </trkpt>
      <trkpt lat="48.38262" lon="-3.52061">
        <ele>159.4</ele>
        <time>2024-09-07T15:20:07Z</time>
      </trkpt>
      <trkpt lat="48.38263" lon="-3.5205">
        <ele>159</ele>
        <time>2024-09-07T15:20:08Z</time>
      </trkpt>
      <trkpt lat="48.38263" lon="-3.5204">
        <ele>158.2</ele>
        <time>2024-09-07T15:20:09Z</time>
      </trkpt>
      <trkpt lat="48.38263" lon="-3.5203">
        <ele>157.8</ele>
        <time>2024-09-07T15:20:10Z</time>
      </trkpt>
      <trkpt lat="48.38263" lon="-3.52021">
        <ele>157.6</ele>
        <time>2024-09-07T15:20:11Z</time>
      </trkpt>
      <trkpt lat="48.38264" lon="-3.52013">
        <ele>157.4</ele>
        <time>2024-09-07T15:20:12Z</time>
      </trkpt>
      <trkpt lat="48.38265" lon="-3.52005">
        <ele>157.4</ele>
        <time>2024-09-07T15:20:13Z</time>
      </trkpt>
      <trkpt lat="48.38267" lon="-3.51996">
        <ele>157.4</ele>
        <time>2024-09-07T15:20:14Z</time>
      </trkpt>
      <trkpt lat="48.38269" lon="-3.51989">
        <ele>157.4</ele>
        <time>2024-09-07T15:20:15Z</time>
      </trkpt>
      <trkpt lat="48.38271" lon="-3.51981">
        <ele>157.4</ele>
        <time>2024-09-07T15:20:16Z</time>
      </trkpt>
      <trkpt lat="48.38274" lon="-3.51974">
        <ele>157.4</ele>
        <time>2024-09-07T15:20:17Z</time>
      </trkpt>
      <trkpt lat="48.38277" lon="-3.51967">
        <ele>157.4</ele>
        <time>2024-09-07T15:20:18Z</time>
      </trkpt>
      <trkpt lat="48.38281" lon="-3.5196">
        <ele>157.4</ele>
        <time>2024-09-07T15:20:19Z</time>
      </trkpt>
      <trkpt lat="48.38285" lon="-3.51954">
        <ele>157.4</ele>
        <time>2024-09-07T15:20:20Z</time>
      </trkpt>
      <trkpt lat="48.38289" lon="-3.51948">
        <ele>157.4</ele>
        <time>2024-09-07T15:20:21Z</time>
      </trkpt>
      <trkpt lat="48.38295" lon="-3.51942">
        <ele>157.6</ele>
        <time>2024-09-07T15:20:22Z</time>
      </trkpt>
      <trkpt lat="48.383" lon="-3.51936">
        <ele>157.8</ele>
        <time>2024-09-07T15:20:23Z</time>
      </trkpt>
      <trkpt lat="48.38305" lon="-3.5193">
        <ele>158</ele>
        <time>2024-09-07T15:20:24Z</time>
      </trkpt>
      <trkpt lat="48.38312" lon="-3.51924">
        <ele>158.2</ele>
        <time>2024-09-07T15:20:25Z</time>
      </trkpt>
      <trkpt lat="48.38317" lon="-3.51919">
        <ele>158.6</ele>
        <time>2024-09-07T15:20:26Z</time>
      </trkpt>
      <trkpt lat="48.38323" lon="-3.51914">
        <ele>158.8</ele>
        <time>2024-09-07T15:20:27Z</time>
      </trkpt>
      <trkpt lat="48.3833" lon="-3.51908">
        <ele>159</ele>
        <time>2024-09-07T15:20:28Z</time>
      </trkpt>
      <trkpt lat="48.38337" lon="-3.51902">
        <ele>159</ele>
        <time>2024-09-07T15:20:29Z</time>
      </trkpt>
      <trkpt lat="48.38343" lon="-3.51896">
        <ele>159.2</ele>
        <time>2024-09-07T15:20:30Z</time>
      </trkpt>
      <trkpt lat="48.3835" lon="-3.5189">
        <ele>159.2</ele>
        <time>2024-09-07T15:20:31Z</time>
      </trkpt>
      <trkpt lat="48.38357" lon="-3.51884">
        <ele>159.2</ele>
        <time>2024-09-07T15:20:32Z</time>
      </trkpt>
      <trkpt lat="48.38364" lon="-3.51877">
        <ele>159.2</ele>
        <time>2024-09-07T15:20:33Z</time>
      </trkpt>
      <trkpt lat="48.3837" lon="-3.51869">
        <ele>159.2</ele>
        <time>2024-09-07T15:20:34Z</time>
      </trkpt>
      <trkpt lat="48.38377" lon="-3.5186">
        <ele>159.2</ele>
        <time>2024-09-07T15:20:35Z</time>
      </trkpt>
      <trkpt lat="48.38382" lon="-3.5185">
        <ele>159.2</ele>
        <time>2024-09-07T15:20:36Z</time>
      </trkpt>
      <trkpt lat="48.38388" lon="-3.51839">
        <ele>159</ele>
        <time>2024-09-07T15:20:37Z</time>
      </trkpt>
      <trkpt lat="48.38393" lon="-3.51829">
        <ele>158.8</ele>
        <time>2024-09-07T15:20:38Z</time>
      </trkpt>
      <trkpt lat="48.38399" lon="-3.51817">
        <ele>158.6</ele>
        <time>2024-09-07T15:20:39Z</time>
      </trkpt>
      <trkpt lat="48.38405" lon="-3.51806">
        <ele>158.6</ele>
        <time>2024-09-07T15:20:40Z</time>
      </trkpt>
      <trkpt lat="48.3841" lon="-3.51794">
        <ele>158.2</ele>
        <time>2024-09-07T15:20:41Z</time>
      </trkpt>
      <trkpt lat="48.38416" lon="-3.51782">
        <ele>158</ele>
        <time>2024-09-07T15:20:42Z</time>
      </trkpt>
      <trkpt lat="48.38421" lon="-3.51769">
        <ele>157.8</ele>
        <time>2024-09-07T15:20:43Z</time>
      </trkpt>
      <trkpt lat="48.38427" lon="-3.51756">
        <ele>157.4</ele>
        <time>2024-09-07T15:20:44Z</time>
      </trkpt>
      <trkpt lat="48.38432" lon="-3.51743">
        <ele>157</ele>
        <time>2024-09-07T15:20:45Z</time>
      </trkpt>
      <trkpt lat="48.38438" lon="-3.51729">
        <ele>156.4</ele>
        <time>2024-09-07T15:20:46Z</time>
      </trkpt>
      <trkpt lat="48.38443" lon="-3.51716">
        <ele>156</ele>
        <time>2024-09-07T15:20:47Z</time>
      </trkpt>
      <trkpt lat="48.38447" lon="-3.51701">
        <ele>155.2</ele>
        <time>2024-09-07T15:20:48Z</time>
      </trkpt>
      <trkpt lat="48.38452" lon="-3.51686">
        <ele>154.6</ele>
        <time>2024-09-07T15:20:49Z</time>
      </trkpt>
      <trkpt lat="48.38455" lon="-3.51671">
        <ele>154.2</ele>
        <time>2024-09-07T15:20:50Z</time>
      </trkpt>
      <trkpt lat="48.38456" lon="-3.51655">
        <ele>153.6</ele>
        <time>2024-09-07T15:20:51Z</time>
      </trkpt>
      <trkpt lat="48.38457" lon="-3.51638">
        <ele>153.2</ele>
        <time>2024-09-07T15:20:52Z</time>
      </trkpt>
      <trkpt lat="48.38457" lon="-3.51621">
        <ele>152.6</ele>
        <time>2024-09-07T15:20:53Z</time>
      </trkpt>
      <trkpt lat="48.38457" lon="-3.51604">
        <ele>152</ele>
        <time>2024-09-07T15:20:54Z</time>
      </trkpt>
      <trkpt lat="48.38457" lon="-3.51587">
        <ele>151.4</ele>
        <time>2024-09-07T15:20:55Z</time>
      </trkpt>
      <trkpt lat="48.38457" lon="-3.5157">
        <ele>150.8</ele>
        <time>2024-09-07T15:20:56Z</time>
      </trkpt>
      <trkpt lat="48.38457" lon="-3.51552">
        <ele>150.2</ele>
        <time>2024-09-07T15:20:57Z</time>
      </trkpt>
      <trkpt lat="48.38457" lon="-3.51535">
        <ele>149.6</ele>
        <time>2024-09-07T15:20:58Z</time>
      </trkpt>
      <trkpt lat="48.38457" lon="-3.51518">
        <ele>149</ele>
        <time>2024-09-07T15:20:59Z</time>
      </trkpt>
      <trkpt lat="48.38457" lon="-3.51501">
        <ele>148.4</ele>
        <time>2024-09-07T15:21:00Z</time>
      </trkpt>
      <trkpt lat="48.38457" lon="-3.51484">
        <ele>147.8</ele>
        <time>2024-09-07T15:21:01Z</time>
      </trkpt>
      <trkpt lat="48.38457" lon="-3.51467">
        <ele>147.8</ele>
        <time>2024-09-07T15:21:02Z</time>
      </trkpt>
      <trkpt lat="48.38458" lon="-3.51451">
        <ele>147.2</ele>
        <time>2024-09-07T15:21:03Z</time>
      </trkpt>
      <trkpt lat="48.38459" lon="-3.51435">
        <ele>146.8</ele>
        <time>2024-09-07T15:21:04Z</time>
      </trkpt>
      <trkpt lat="48.3846" lon="-3.51418">
        <ele>145.8</ele>
        <time>2024-09-07T15:21:05Z</time>
      </trkpt>
      <trkpt lat="48.38461" lon="-3.51403">
        <ele>145.2</ele>
        <time>2024-09-07T15:21:06Z</time>
      </trkpt>
      <trkpt lat="48.38462" lon="-3.51388">
        <ele>144.2</ele>
        <time>2024-09-07T15:21:07Z</time>
      </trkpt>
      <trkpt lat="48.38463" lon="-3.51373">
        <ele>143.2</ele>
        <time>2024-09-07T15:21:08Z</time>
      </trkpt>
      <trkpt lat="48.38465" lon="-3.51359">
        <ele>142.4</ele>
        <time>2024-09-07T15:21:09Z</time>
      </trkpt>
      <trkpt lat="48.38467" lon="-3.51345">
        <ele>141.8</ele>
        <time>2024-09-07T15:21:10Z</time>
      </trkpt>
      <trkpt lat="48.38469" lon="-3.51331">
        <ele>141.4</ele>
        <time>2024-09-07T15:21:11Z</time>
      </trkpt>
      <trkpt lat="48.38471" lon="-3.51317">
        <ele>141</ele>
        <time>2024-09-07T15:21:12Z</time>
      </trkpt>
      <trkpt lat="48.38473" lon="-3.51302">
        <ele>140.8</ele>
        <time>2024-09-07T15:21:13Z</time>
      </trkpt>
      <trkpt lat="48.38475" lon="-3.51287">
        <ele>140.6</ele>
        <time>2024-09-07T15:21:14Z</time>
      </trkpt>
      <trkpt lat="48.38477" lon="-3.51273">
        <ele>140.6</ele>
        <time>2024-09-07T15:21:15Z</time>
      </trkpt>
      <trkpt lat="48.3848" lon="-3.51258">
        <ele>140.4</ele>
        <time>2024-09-07T15:21:16Z</time>
      </trkpt>
      <trkpt lat="48.38483" lon="-3.51244">
        <ele>140.4</ele>
        <time>2024-09-07T15:21:17Z</time>
      </trkpt>
      <trkpt lat="48.38487" lon="-3.5123">
        <ele>140.4</ele>
        <time>2024-09-07T15:21:18Z</time>
      </trkpt>
      <trkpt lat="48.3849" lon="-3.51216">
        <ele>140.2</ele>
        <time>2024-09-07T15:21:19Z</time>
      </trkpt>
      <trkpt lat="48.38494" lon="-3.51203">
        <ele>140</ele>
        <time>2024-09-07T15:21:20Z</time>
      </trkpt>
      <trkpt lat="48.38498" lon="-3.51189">
        <ele>139.6</ele>
        <time>2024-09-07T15:21:21Z</time>
      </trkpt>
      <trkpt lat="48.38502" lon="-3.51177">
        <ele>139.2</ele>
        <time>2024-09-07T15:21:22Z</time>
      </trkpt>
      <trkpt lat="48.38506" lon="-3.51166">
        <ele>138.8</ele>
        <time>2024-09-07T15:21:23Z</time>
      </trkpt>
      <trkpt lat="48.3851" lon="-3.51155">
        <ele>138.4</ele>
        <time>2024-09-07T15:21:24Z</time>
      </trkpt>
      <trkpt lat="48.38513" lon="-3.51145">
        <ele>138.4</ele>
        <time>2024-09-07T15:21:25Z</time>
      </trkpt>
      <trkpt lat="48.38515" lon="-3.51135">
        <ele>137.8</ele>
        <time>2024-09-07T15:21:26Z</time>
      </trkpt>
      <trkpt lat="48.38515" lon="-3.51126">
        <ele>137.6</ele>
        <time>2024-09-07T15:21:27Z</time>
      </trkpt>
      <trkpt lat="48.38515" lon="-3.51117">
        <ele>137.4</ele>
        <time>2024-09-07T15:21:28Z</time>
      </trkpt>
      <trkpt lat="48.38515" lon="-3.51109">
        <ele>137.4</ele>
        <time>2024-09-07T15:21:29Z</time>
      </trkpt>
      <trkpt lat="48.38514" lon="-3.51101">
        <ele>137.4</ele>
        <time>2024-09-07T15:21:30Z</time>
      </trkpt>
      <trkpt lat="48.38512" lon="-3.51094">
        <ele>137.4</ele>
        <time>2024-09-07T15:21:31Z</time>
      </trkpt>
      <trkpt lat="48.38511" lon="-3.51088">
        <ele>137.4</ele>
        <time>2024-09-07T15:21:32Z</time>
      </trkpt>
      <trkpt lat="48.38509" lon="-3.51081">
        <ele>137.4</ele>
        <time>2024-09-07T15:21:33Z</time>
      </trkpt>
      <trkpt lat="48.38507" lon="-3.51075">
        <ele>137.4</ele>
        <time>2024-09-07T15:21:34Z</time>
      </trkpt>
      <trkpt lat="48.38505" lon="-3.5107">
        <ele>137.4</ele>
        <time>2024-09-07T15:21:35Z</time>
      </trkpt>
      <trkpt lat="48.38502" lon="-3.51064">
        <ele>137.6</ele>
        <time>2024-09-07T15:21:36Z</time>
      </trkpt>
      <trkpt lat="48.385" lon="-3.51059">
        <ele>138</ele>
        <time>2024-09-07T15:21:37Z</time>
      </trkpt>
      <trkpt lat="48.38498" lon="-3.51053">
        <ele>138.4</ele>
        <time>2024-09-07T15:21:38Z</time>
      </trkpt>
      <trkpt lat="48.38496" lon="-3.51047">
        <ele>138.6</ele>
        <time>2024-09-07T15:21:39Z</time>
      </trkpt>
      <trkpt lat="48.38494" lon="-3.51042">
        <ele>139</ele>
        <time>2024-09-07T15:21:40Z</time>
      </trkpt>
      <trkpt lat="48.38492" lon="-3.51036">
        <ele>139.6</ele>
        <time>2024-09-07T15:21:41Z</time>
      </trkpt>
      <trkpt lat="48.38491" lon="-3.51031">
        <ele>139.6</ele>
        <time>2024-09-07T15:21:42Z</time>
      </trkpt>
      <trkpt lat="48.38489" lon="-3.51025">
        <ele>140</ele>
        <time>2024-09-07T15:21:43Z</time>
      </trkpt>
      <trkpt lat="48.38487" lon="-3.5102">
        <ele>140.2</ele>
        <time>2024-09-07T15:21:44Z</time>
      </trkpt>
      <trkpt lat="48.38486" lon="-3.51014">
        <ele>140.6</ele>
        <time>2024-09-07T15:21:45Z</time>
      </trkpt>
      <trkpt lat="48.38484" lon="-3.51009">
        <ele>140.8</ele>
        <time>2024-09-07T15:21:46Z</time>
      </trkpt>
      <trkpt lat="48.38483" lon="-3.51003">
        <ele>140.8</ele>
        <time>2024-09-07T15:21:47Z</time>
      </trkpt>
      <trkpt lat="48.38482" lon="-3.50997">
        <ele>141</ele>
        <time>2024-09-07T15:21:48Z</time>
      </trkpt>
      <trkpt lat="48.38481" lon="-3.50991">
        <ele>141.6</ele>
        <time>2024-09-07T15:21:49Z</time>
      </trkpt>
      <trkpt lat="48.3848" lon="-3.50986">
        <ele>141.8</ele>
        <time>2024-09-07T15:21:50Z</time>
      </trkpt>
      <trkpt lat="48.38479" lon="-3.5098">
        <ele>142.2</ele>
        <time>2024-09-07T15:21:51Z</time>
      </trkpt>
      <trkpt lat="48.38478" lon="-3.50974">
        <ele>142.4</ele>
        <time>2024-09-07T15:21:52Z</time>
      </trkpt>
      <trkpt lat="48.38477" lon="-3.50969">
        <ele>142.4</ele>
        <time>2024-09-07T15:21:53Z</time>
      </trkpt>
      <trkpt lat="48.38476" lon="-3.50963">
        <ele>142.6</ele>
        <time>2024-09-07T15:21:54Z</time>
      </trkpt>
      <trkpt lat="48.38476" lon="-3.50958">
        <ele>143</ele>
        <time>2024-09-07T15:21:55Z</time>
      </trkpt>
      <trkpt lat="48.38475" lon="-3.50952">
        <ele>143.2</ele>
        <time>2024-09-07T15:21:56Z</time>
      </trkpt>
      <trkpt lat="48.38475" lon="-3.50946">
        <ele>143.4</ele>
        <time>2024-09-07T15:21:57Z</time>
      </trkpt>
      <trkpt lat="48.38475" lon="-3.50941">
        <ele>143.8</ele>
        <time>2024-09-07T15:21:58Z</time>
      </trkpt>
      <trkpt lat="48.38474" lon="-3.50935">
        <ele>144</ele>
        <time>2024-09-07T15:21:59Z</time>
      </trkpt>
      <trkpt lat="48.38474" lon="-3.50929">
        <ele>144.2</ele>
        <time>2024-09-07T15:22:00Z</time>
      </trkpt>
      <trkpt lat="48.38474" lon="-3.50924">
        <ele>144.6</ele>
        <time>2024-09-07T15:22:01Z</time>
      </trkpt>
      <trkpt lat="48.38473" lon="-3.50918">
        <ele>144.8</ele>
        <time>2024-09-07T15:22:02Z</time>
      </trkpt>
      <trkpt lat="48.38473" lon="-3.50912">
        <ele>145</ele>
        <time>2024-09-07T15:22:03Z</time>
      </trkpt>
      <trkpt lat="48.38472" lon="-3.50907">
        <ele>145.2</ele>
        <time>2024-09-07T15:22:04Z</time>
      </trkpt>
      <trkpt lat="48.38471" lon="-3.50901">
        <ele>145.6</ele>
        <time>2024-09-07T15:22:05Z</time>
      </trkpt>
      <trkpt lat="48.38471" lon="-3.50895">
        <ele>145.6</ele>
        <time>2024-09-07T15:22:06Z</time>
      </trkpt>
      <trkpt lat="48.3847" lon="-3.50889">
        <ele>146</ele>
        <time>2024-09-07T15:22:07Z</time>
      </trkpt>
      <trkpt lat="48.3847" lon="-3.50883">
        <ele>146</ele>
        <time>2024-09-07T15:22:08Z</time>
      </trkpt>
      <trkpt lat="48.38469" lon="-3.50877">
        <ele>146</ele>
        <time>2024-09-07T15:22:09Z</time>
      </trkpt>
      <trkpt lat="48.38469" lon="-3.50872">
        <ele>146</ele>
        <time>2024-09-07T15:22:10Z</time>
      </trkpt>
      <trkpt lat="48.38469" lon="-3.50866">
        <ele>146.4</ele>
        <time>2024-09-07T15:22:11Z</time>
      </trkpt>
      <trkpt lat="48.38468" lon="-3.5086">
        <ele>146.4</ele>
        <time>2024-09-07T15:22:12Z</time>
      </trkpt>
      <trkpt lat="48.38468" lon="-3.50854">
        <ele>146.6</ele>
        <time>2024-09-07T15:22:13Z</time>
      </trkpt>
      <trkpt lat="48.38467" lon="-3.50848">
        <ele>146.8</ele>
        <time>2024-09-07T15:22:14Z</time>
      </trkpt>
      <trkpt lat="48.38466" lon="-3.50842">
        <ele>147</ele>
        <time>2024-09-07T15:22:15Z</time>
      </trkpt>
      <trkpt lat="48.38466" lon="-3.50836">
        <ele>147</ele>
        <time>2024-09-07T15:22:16Z</time>
      </trkpt>
      <trkpt lat="48.38465" lon="-3.5083">
        <ele>147.2</ele>
        <time>2024-09-07T15:22:17Z</time>
      </trkpt>
      <trkpt lat="48.38464" lon="-3.50823">
        <ele>147.4</ele>
        <time>2024-09-07T15:22:18Z</time>
      </trkpt>
      <trkpt lat="48.38463" lon="-3.50817">
        <ele>147.6</ele>
        <time>2024-09-07T15:22:19Z</time>
      </trkpt>
      <trkpt lat="48.38462" lon="-3.50811">
        <ele>147.8</ele>
        <time>2024-09-07T15:22:20Z</time>
      </trkpt>
      <trkpt lat="48.38461" lon="-3.50804">
        <ele>147.8</ele>
        <time>2024-09-07T15:22:21Z</time>
      </trkpt>
      <trkpt lat="48.3846" lon="-3.50798">
        <ele>148.2</ele>
        <time>2024-09-07T15:22:22Z</time>
      </trkpt>
      <trkpt lat="48.38458" lon="-3.50791">
        <ele>148.4</ele>
        <time>2024-09-07T15:22:23Z</time>
      </trkpt>
      <trkpt lat="48.38457" lon="-3.50785">
        <ele>148.4</ele>
        <time>2024-09-07T15:22:24Z</time>
      </trkpt>
      <trkpt lat="48.38455" lon="-3.50778">
        <ele>148.6</ele>
        <time>2024-09-07T15:22:25Z</time>
      </trkpt>
      <trkpt lat="48.38453" lon="-3.50772">
        <ele>148.6</ele>
        <time>2024-09-07T15:22:26Z</time>
      </trkpt>
      <trkpt lat="48.38451" lon="-3.50765">
        <ele>148.6</ele>
        <time>2024-09-07T15:22:27Z</time>
      </trkpt>
      <trkpt lat="48.38448" lon="-3.50758">
        <ele>148.6</ele>
        <time>2024-09-07T15:22:28Z</time>
      </trkpt>
      <trkpt lat="48.38446" lon="-3.50751">
        <ele>148.8</ele>
        <time>2024-09-07T15:22:29Z</time>
      </trkpt>
      <trkpt lat="48.38443" lon="-3.50745">
        <ele>148.8</ele>
        <time>2024-09-07T15:22:30Z</time>
      </trkpt>
      <trkpt lat="48.38441" lon="-3.50739">
        <ele>149</ele>
        <time>2024-09-07T15:22:31Z</time>
      </trkpt>
      <trkpt lat="48.38438" lon="-3.50733">
        <ele>149</ele>
        <time>2024-09-07T15:22:32Z</time>
      </trkpt>
      <trkpt lat="48.38435" lon="-3.50727">
        <ele>149</ele>
        <time>2024-09-07T15:22:33Z</time>
      </trkpt>
      <trkpt lat="48.38432" lon="-3.5072">
        <ele>149</ele>
        <time>2024-09-07T15:22:34Z</time>
      </trkpt>
      <trkpt lat="48.38428" lon="-3.50713">
        <ele>148.8</ele>
        <time>2024-09-07T15:22:35Z</time>
      </trkpt>
      <trkpt lat="48.38425" lon="-3.50707">
        <ele>149</ele>
        <time>2024-09-07T15:22:36Z</time>
      </trkpt>
      <trkpt lat="48.38422" lon="-3.507">
        <ele>149</ele>
        <time>2024-09-07T15:22:37Z</time>
      </trkpt>
      <trkpt lat="48.38418" lon="-3.50691">
        <ele>149</ele>
        <time>2024-09-07T15:22:38Z</time>
      </trkpt>
      <trkpt lat="48.38415" lon="-3.50682">
        <ele>149</ele>
        <time>2024-09-07T15:22:39Z</time>
      </trkpt>
      <trkpt lat="48.38412" lon="-3.50673">
        <ele>149</ele>
        <time>2024-09-07T15:22:40Z</time>
      </trkpt>
      <trkpt lat="48.38409" lon="-3.50663">
        <ele>149</ele>
        <time>2024-09-07T15:22:41Z</time>
      </trkpt>
      <trkpt lat="48.38407" lon="-3.50653">
        <ele>148.6</ele>
        <time>2024-09-07T15:22:42Z</time>
      </trkpt>
      <trkpt lat="48.38404" lon="-3.50642">
        <ele>148.6</ele>
        <time>2024-09-07T15:22:43Z</time>
      </trkpt>
      <trkpt lat="48.38402" lon="-3.50631">
        <ele>148.4</ele>
        <time>2024-09-07T15:22:44Z</time>
      </trkpt>
      <trkpt lat="48.384" lon="-3.5062">
        <ele>148.2</ele>
        <time>2024-09-07T15:22:45Z</time>
      </trkpt>
      <trkpt lat="48.38398" lon="-3.50608">
        <ele>148</ele>
        <time>2024-09-07T15:22:46Z</time>
      </trkpt>
      <trkpt lat="48.38397" lon="-3.50597">
        <ele>147.8</ele>
        <time>2024-09-07T15:22:47Z</time>
      </trkpt>
      <trkpt lat="48.38395" lon="-3.50586">
        <ele>147.6</ele>
        <time>2024-09-07T15:22:48Z</time>
      </trkpt>
      <trkpt lat="48.38395" lon="-3.50573">
        <ele>147.4</ele>
        <time>2024-09-07T15:22:49Z</time>
      </trkpt>
      <trkpt lat="48.38394" lon="-3.50561">
        <ele>147.2</ele>
        <time>2024-09-07T15:22:50Z</time>
      </trkpt>
      <trkpt lat="48.38394" lon="-3.5055">
        <ele>147</ele>
        <time>2024-09-07T15:22:51Z</time>
      </trkpt>
      <trkpt lat="48.38393" lon="-3.50538">
        <ele>146.6</ele>
        <time>2024-09-07T15:22:52Z</time>
      </trkpt>
      <trkpt lat="48.38393" lon="-3.50526">
        <ele>146.4</ele>
        <time>2024-09-07T15:22:53Z</time>
      </trkpt>
      <trkpt lat="48.38392" lon="-3.50514">
        <ele>146.2</ele>
        <time>2024-09-07T15:22:54Z</time>
      </trkpt>
      <trkpt lat="48.38392" lon="-3.50502">
        <ele>146.2</ele>
        <time>2024-09-07T15:22:55Z</time>
      </trkpt>
      <trkpt lat="48.38392" lon="-3.50491">
        <ele>146</ele>
        <time>2024-09-07T15:22:56Z</time>
      </trkpt>
      <trkpt lat="48.38392" lon="-3.50479">
        <ele>145.6</ele>
        <time>2024-09-07T15:22:57Z</time>
      </trkpt>
      <trkpt lat="48.38392" lon="-3.50468">
        <ele>145.4</ele>
        <time>2024-09-07T15:22:58Z</time>
      </trkpt>
      <trkpt lat="48.38392" lon="-3.50457">
        <ele>145</ele>
        <time>2024-09-07T15:22:59Z</time>
      </trkpt>
      <trkpt lat="48.38392" lon="-3.50446">
        <ele>144.8</ele>
        <time>2024-09-07T15:23:00Z</time>
      </trkpt>
      <trkpt lat="48.38392" lon="-3.50435">
        <ele>144.6</ele>
        <time>2024-09-07T15:23:01Z</time>
      </trkpt>
      <trkpt lat="48.38393" lon="-3.50425">
        <ele>144.4</ele>
        <time>2024-09-07T15:23:02Z</time>
      </trkpt>
      <trkpt lat="48.38393" lon="-3.50415">
        <ele>144</ele>
        <time>2024-09-07T15:23:03Z</time>
      </trkpt>
      <trkpt lat="48.38393" lon="-3.50405">
        <ele>143.8</ele>
        <time>2024-09-07T15:23:04Z</time>
      </trkpt>
      <trkpt lat="48.38394" lon="-3.50396">
        <ele>143.6</ele>
        <time>2024-09-07T15:23:05Z</time>
      </trkpt>
      <trkpt lat="48.38394" lon="-3.50387">
        <ele>143.6</ele>
        <time>2024-09-07T15:23:06Z</time>
      </trkpt>
      <trkpt lat="48.38396" lon="-3.50379">
        <ele>143.8</ele>
        <time>2024-09-07T15:23:07Z</time>
      </trkpt>
      <trkpt lat="48.38398" lon="-3.50372">
        <ele>143.8</ele>
        <time>2024-09-07T15:23:08Z</time>
      </trkpt>
      <trkpt lat="48.38401" lon="-3.50365">
        <ele>143.6</ele>
        <time>2024-09-07T15:23:09Z</time>
      </trkpt>
      <trkpt lat="48.38404" lon="-3.50359">
        <ele>143.6</ele>
        <time>2024-09-07T15:23:10Z</time>
      </trkpt>
      <trkpt lat="48.38407" lon="-3.50354">
        <ele>143.6</ele>
        <time>2024-09-07T15:23:11Z</time>
      </trkpt>
      <trkpt lat="48.38411" lon="-3.50349">
        <ele>143.6</ele>
        <time>2024-09-07T15:23:12Z</time>
      </trkpt>
      <trkpt lat="48.38415" lon="-3.50345">
        <ele>143.6</ele>
        <time>2024-09-07T15:23:13Z</time>
      </trkpt>
      <trkpt lat="48.38419" lon="-3.50342">
        <ele>143.6</ele>
        <time>2024-09-07T15:23:14Z</time>
      </trkpt>
      <trkpt lat="48.38423" lon="-3.5034">
        <ele>143.6</ele>
        <time>2024-09-07T15:23:15Z</time>
      </trkpt>
      <trkpt lat="48.38427" lon="-3.50338">
        <ele>143.6</ele>
        <time>2024-09-07T15:23:16Z</time>
      </trkpt>
      <trkpt lat="48.38431" lon="-3.50336">
        <ele>143.6</ele>
        <time>2024-09-07T15:23:17Z</time>
      </trkpt>
      <trkpt lat="48.38436" lon="-3.50335">
        <ele>143.8</ele>
        <time>2024-09-07T15:23:18Z</time>
      </trkpt>
      <trkpt lat="48.38441" lon="-3.50334">
        <ele>144</ele>
        <time>2024-09-07T15:23:19Z</time>
      </trkpt>
      <trkpt lat="48.38445" lon="-3.50334">
        <ele>144.4</ele>
        <time>2024-09-07T15:23:20Z</time>
      </trkpt>
      <trkpt lat="48.38449" lon="-3.50334">
        <ele>144.8</ele>
        <time>2024-09-07T15:23:21Z</time>
      </trkpt>
      <trkpt lat="48.38453" lon="-3.50334">
        <ele>145</ele>
        <time>2024-09-07T15:23:22Z</time>
      </trkpt>
      <trkpt lat="48.38458" lon="-3.50334">
        <ele>145.4</ele>
        <time>2024-09-07T15:23:23Z</time>
      </trkpt>
      <trkpt lat="48.38462" lon="-3.50335">
        <ele>145.8</ele>
        <time>2024-09-07T15:23:24Z</time>
      </trkpt>
      <trkpt lat="48.38466" lon="-3.50335">
        <ele>146</ele>
        <time>2024-09-07T15:23:25Z</time>
      </trkpt>
      <trkpt lat="48.38471" lon="-3.50335">
        <ele>146.2</ele>
        <time>2024-09-07T15:23:26Z</time>
      </trkpt>
      <trkpt lat="48.38475" lon="-3.50334">
        <ele>146.6</ele>
        <time>2024-09-07T15:23:27Z</time>
      </trkpt>
      <trkpt lat="48.38479" lon="-3.50334">
        <ele>146.8</ele>
        <time>2024-09-07T15:23:28Z</time>
      </trkpt>
      <trkpt lat="48.38483" lon="-3.50334">
        <ele>147</ele>
        <time>2024-09-07T15:23:29Z</time>
      </trkpt>
      <trkpt lat="48.38487" lon="-3.50333">
        <ele>147.2</ele>
        <time>2024-09-07T15:23:30Z</time>
      </trkpt>
      <trkpt lat="48.38491" lon="-3.50333">
        <ele>147.4</ele>
        <time>2024-09-07T15:23:31Z</time>
      </trkpt>
      <trkpt lat="48.38495" lon="-3.50333">
        <ele>147.6</ele>
        <time>2024-09-07T15:23:32Z</time>
      </trkpt>
      <trkpt lat="48.38499" lon="-3.50332">
        <ele>148</ele>
        <time>2024-09-07T15:23:33Z</time>
      </trkpt>
      <trkpt lat="48.38503" lon="-3.50331">
        <ele>148.2</ele>
        <time>2024-09-07T15:23:34Z</time>
      </trkpt>
      <trkpt lat="48.38507" lon="-3.50331">
        <ele>148.6</ele>
        <time>2024-09-07T15:23:35Z</time>
      </trkpt>
      <trkpt lat="48.38511" lon="-3.50329">
        <ele>148.8</ele>
        <time>2024-09-07T15:23:36Z</time>
      </trkpt>
      <trkpt lat="48.38514" lon="-3.50328">
        <ele>148.8</ele>
        <time>2024-09-07T15:23:37Z</time>
      </trkpt>
      <trkpt lat="48.38518" lon="-3.50326">
        <ele>149</ele>
        <time>2024-09-07T15:23:38Z</time>
      </trkpt>
      <trkpt lat="48.38522" lon="-3.50324">
        <ele>149.4</ele>
        <time>2024-09-07T15:23:39Z</time>
      </trkpt>
      <trkpt lat="48.38525" lon="-3.50322">
        <ele>149.4</ele>
        <time>2024-09-07T15:23:40Z</time>
      </trkpt>
      <trkpt lat="48.38529" lon="-3.50321">
        <ele>149.4</ele>
        <time>2024-09-07T15:23:41Z</time>
      </trkpt>
      <trkpt lat="48.38533" lon="-3.5032">
        <ele>149.8</ele>
        <time>2024-09-07T15:23:42Z</time>
      </trkpt>
      <trkpt lat="48.38536" lon="-3.50318">
        <ele>150</ele>
        <time>2024-09-07T15:23:43Z</time>
      </trkpt>
      <trkpt lat="48.38539" lon="-3.50316">
        <ele>150.2</ele>
        <time>2024-09-07T15:23:44Z</time>
      </trkpt>
      <trkpt lat="48.38543" lon="-3.50314">
        <ele>150.4</ele>
        <time>2024-09-07T15:23:45Z</time>
      </trkpt>
      <trkpt lat="48.38546" lon="-3.50312">
        <ele>150.6</ele>
        <time>2024-09-07T15:23:46Z</time>
      </trkpt>
      <trkpt lat="48.38549" lon="-3.50311">
        <ele>150.8</ele>
        <time>2024-09-07T15:23:47Z</time>
      </trkpt>
      <trkpt lat="48.38552" lon="-3.50308">
        <ele>151</ele>
        <time>2024-09-07T15:23:48Z</time>
      </trkpt>
      <trkpt lat="48.38555" lon="-3.50306">
        <ele>151.2</ele>
        <time>2024-09-07T15:23:49Z</time>
      </trkpt>
      <trkpt lat="48.38558" lon="-3.50303">
        <ele>151.4</ele>
        <time>2024-09-07T15:23:50Z</time>
      </trkpt>
      <trkpt lat="48.38561" lon="-3.503">
        <ele>151.6</ele>
        <time>2024-09-07T15:23:51Z</time>
      </trkpt>
      <trkpt lat="48.38563" lon="-3.50296">
        <ele>151.8</ele>
        <time>2024-09-07T15:23:52Z</time>
      </trkpt>
      <trkpt lat="48.38566" lon="-3.50292">
        <ele>152</ele>
        <time>2024-09-07T15:23:53Z</time>
      </trkpt>
      <trkpt lat="48.38568" lon="-3.50288">
        <ele>152.2</ele>
        <time>2024-09-07T15:23:54Z</time>
      </trkpt>
      <trkpt lat="48.3857" lon="-3.50285">
        <ele>152.4</ele>
        <time>2024-09-07T15:23:55Z</time>
      </trkpt>
      <trkpt lat="48.38572" lon="-3.50281">
        <ele>152.4</ele>
        <time>2024-09-07T15:23:56Z</time>
      </trkpt>
      <trkpt lat="48.38573" lon="-3.50278">
        <ele>152.6</ele>
        <time>2024-09-07T15:23:57Z</time>
      </trkpt>
      <trkpt lat="48.38574" lon="-3.50274">
        <ele>152.8</ele>
        <time>2024-09-07T15:23:58Z</time>
      </trkpt>
      <trkpt lat="48.38575" lon="-3.5027">
        <ele>152.8</ele>
        <time>2024-09-07T15:23:59Z</time>
      </trkpt>
      <trkpt lat="48.38575" lon="-3.50266">
        <ele>152.8</ele>
        <time>2024-09-07T15:24:00Z</time>
      </trkpt>
      <trkpt lat="48.38575" lon="-3.50262">
        <ele>152.8</ele>
        <time>2024-09-07T15:24:01Z</time>
      </trkpt>
      <trkpt lat="48.38575" lon="-3.50258">
        <ele>152.8</ele>
        <time>2024-09-07T15:24:02Z</time>
      </trkpt>
      <trkpt lat="48.38575" lon="-3.50253">
        <ele>153</ele>
        <time>2024-09-07T15:24:03Z</time>
      </trkpt>
      <trkpt lat="48.38575" lon="-3.50248">
        <ele>153</ele>
        <time>2024-09-07T15:24:04Z</time>
      </trkpt>
      <trkpt lat="48.38575" lon="-3.50243">
        <ele>153</ele>
        <time>2024-09-07T15:24:05Z</time>
      </trkpt>
      <trkpt lat="48.38576" lon="-3.50238">
        <ele>153</ele>
        <time>2024-09-07T15:24:06Z</time>
      </trkpt>
      <trkpt lat="48.38576" lon="-3.50232">
        <ele>153</ele>
        <time>2024-09-07T15:24:07Z</time>
      </trkpt>
      <trkpt lat="48.38576" lon="-3.50227">
        <ele>153</ele>
        <time>2024-09-07T15:24:08Z</time>
      </trkpt>
      <trkpt lat="48.38577" lon="-3.50222">
        <ele>153</ele>
        <time>2024-09-07T15:24:09Z</time>
      </trkpt>
      <trkpt lat="48.38577" lon="-3.50216">
        <ele>153</ele>
        <time>2024-09-07T15:24:10Z</time>
      </trkpt>
      <trkpt lat="48.38577" lon="-3.5021">
        <ele>153</ele>
        <time>2024-09-07T15:24:11Z</time>
      </trkpt>
      <trkpt lat="48.38578" lon="-3.50204">
        <ele>153</ele>
        <time>2024-09-07T15:24:12Z</time>
      </trkpt>
      <trkpt lat="48.38578" lon="-3.50198">
        <ele>153</ele>
        <time>2024-09-07T15:24:13Z</time>
      </trkpt>
      <trkpt lat="48.38579" lon="-3.50191">
        <ele>153</ele>
        <time>2024-09-07T15:24:14Z</time>
      </trkpt>
      <trkpt lat="48.38579" lon="-3.50185">
        <ele>153</ele>
        <time>2024-09-07T15:24:15Z</time>
      </trkpt>
      <trkpt lat="48.38579" lon="-3.50179">
        <ele>153</ele>
        <time>2024-09-07T15:24:16Z</time>
      </trkpt>
      <trkpt lat="48.3858" lon="-3.50172">
        <ele>153</ele>
        <time>2024-09-07T15:24:17Z</time>
      </trkpt>
      <trkpt lat="48.3858" lon="-3.50165">
        <ele>153</ele>
        <time>2024-09-07T15:24:18Z</time>
      </trkpt>
      <trkpt lat="48.3858" lon="-3.50157">
        <ele>152.8</ele>
        <time>2024-09-07T15:24:19Z</time>
      </trkpt>
      <trkpt lat="48.3858" lon="-3.50149">
        <ele>152.6</ele>
        <time>2024-09-07T15:24:20Z</time>
      </trkpt>
      <trkpt lat="48.38581" lon="-3.50141">
        <ele>152.4</ele>
        <time>2024-09-07T15:24:21Z</time>
      </trkpt>
      <trkpt lat="48.38581" lon="-3.50132">
        <ele>152.4</ele>
        <time>2024-09-07T15:24:22Z</time>
      </trkpt>
      <trkpt lat="48.38581" lon="-3.50123">
        <ele>152.2</ele>
        <time>2024-09-07T15:24:23Z</time>
      </trkpt>
      <trkpt lat="48.38581" lon="-3.50114">
        <ele>152</ele>
        <time>2024-09-07T15:24:24Z</time>
      </trkpt>
      <trkpt lat="48.38581" lon="-3.50105">
        <ele>152</ele>
        <time>2024-09-07T15:24:25Z</time>
      </trkpt>
      <trkpt lat="48.38582" lon="-3.50095">
        <ele>152</ele>
        <time>2024-09-07T15:24:26Z</time>
      </trkpt>
      <trkpt lat="48.38582" lon="-3.50085">
        <ele>151.8</ele>
        <time>2024-09-07T15:24:27Z</time>
      </trkpt>
      <trkpt lat="48.38583" lon="-3.50074">
        <ele>151.8</ele>
        <time>2024-09-07T15:24:28Z</time>
      </trkpt>
      <trkpt lat="48.38583" lon="-3.50063">
        <ele>151.6</ele>
        <time>2024-09-07T15:24:29Z</time>
      </trkpt>
      <trkpt lat="48.38583" lon="-3.50052">
        <ele>151.6</ele>
        <time>2024-09-07T15:24:30Z</time>
      </trkpt>
      <trkpt lat="48.38583" lon="-3.5004">
        <ele>151.4</ele>
        <time>2024-09-07T15:24:31Z</time>
      </trkpt>
      <trkpt lat="48.38583" lon="-3.50028">
        <ele>151.2</ele>
        <time>2024-09-07T15:24:32Z</time>
      </trkpt>
      <trkpt lat="48.38582" lon="-3.50015">
        <ele>151</ele>
        <time>2024-09-07T15:24:33Z</time>
      </trkpt>
      <trkpt lat="48.38581" lon="-3.50002">
        <ele>151</ele>
        <time>2024-09-07T15:24:34Z</time>
      </trkpt>
      <trkpt lat="48.3858" lon="-3.49989">
        <ele>150.6</ele>
        <time>2024-09-07T15:24:35Z</time>
      </trkpt>
      <trkpt lat="48.38578" lon="-3.49975">
        <ele>150.2</ele>
        <time>2024-09-07T15:24:36Z</time>
      </trkpt>
      <trkpt lat="48.38576" lon="-3.49961">
        <ele>150</ele>
        <time>2024-09-07T15:24:37Z</time>
      </trkpt>
      <trkpt lat="48.38573" lon="-3.49947">
        <ele>149.8</ele>
        <time>2024-09-07T15:24:38Z</time>
      </trkpt>
      <trkpt lat="48.38569" lon="-3.49933">
        <ele>149.2</ele>
        <time>2024-09-07T15:24:39Z</time>
      </trkpt>
      <trkpt lat="48.38565" lon="-3.49918">
        <ele>148.6</ele>
        <time>2024-09-07T15:24:40Z</time>
      </trkpt>
      <trkpt lat="48.38561" lon="-3.49904">
        <ele>148</ele>
        <time>2024-09-07T15:24:41Z</time>
      </trkpt>
      <trkpt lat="48.38557" lon="-3.49889">
        <ele>147.4</ele>
        <time>2024-09-07T15:24:42Z</time>
      </trkpt>
      <trkpt lat="48.38552" lon="-3.49875">
        <ele>146.6</ele>
        <time>2024-09-07T15:24:43Z</time>
      </trkpt>
      <trkpt lat="48.38548" lon="-3.4986">
        <ele>146</ele>
        <time>2024-09-07T15:24:44Z</time>
      </trkpt>
      <trkpt lat="48.38543" lon="-3.49845">
        <ele>145.6</ele>
        <time>2024-09-07T15:24:45Z</time>
      </trkpt>
      <trkpt lat="48.38539" lon="-3.4983">
        <ele>144.4</ele>
        <time>2024-09-07T15:24:46Z</time>
      </trkpt>
      <trkpt lat="48.38535" lon="-3.49815">
        <ele>144.4</ele>
        <time>2024-09-07T15:24:47Z</time>
      </trkpt>
      <trkpt lat="48.3853" lon="-3.498">
        <ele>143.6</ele>
        <time>2024-09-07T15:24:48Z</time>
      </trkpt>
      <trkpt lat="48.38525" lon="-3.49785">
        <ele>142.8</ele>
        <time>2024-09-07T15:24:49Z</time>
      </trkpt>
      <trkpt lat="48.3852" lon="-3.4977">
        <ele>141.6</ele>
        <time>2024-09-07T15:24:50Z</time>
      </trkpt>
      <trkpt lat="48.38516" lon="-3.49755">
        <ele>140.8</ele>
        <time>2024-09-07T15:24:51Z</time>
      </trkpt>
      <trkpt lat="48.38511" lon="-3.4974">
        <ele>140</ele>
        <time>2024-09-07T15:24:52Z</time>
      </trkpt>
      <trkpt lat="48.38506" lon="-3.49724">
        <ele>139.2</ele>
        <time>2024-09-07T15:24:53Z</time>
      </trkpt>
      <trkpt lat="48.38502" lon="-3.49709">
        <ele>138.8</ele>
        <time>2024-09-07T15:24:54Z</time>
      </trkpt>
      <trkpt lat="48.38497" lon="-3.49694">
        <ele>138</ele>
        <time>2024-09-07T15:24:55Z</time>
      </trkpt>
      <trkpt lat="48.38492" lon="-3.49679">
        <ele>137.4</ele>
        <time>2024-09-07T15:24:56Z</time>
      </trkpt>
      <trkpt lat="48.38488" lon="-3.49664">
        <ele>136.6</ele>
        <time>2024-09-07T15:24:57Z</time>
      </trkpt>
      <trkpt lat="48.38483" lon="-3.49649">
        <ele>135.8</ele>
        <time>2024-09-07T15:24:58Z</time>
      </trkpt>
      <trkpt lat="48.38479" lon="-3.49635">
        <ele>134.8</ele>
        <time>2024-09-07T15:24:59Z</time>
      </trkpt>
      <trkpt lat="48.38475" lon="-3.49622">
        <ele>134</ele>
        <time>2024-09-07T15:25:00Z</time>
      </trkpt>
      <trkpt lat="48.38472" lon="-3.49609">
        <ele>132.8</ele>
        <time>2024-09-07T15:25:01Z</time>
      </trkpt>
      <trkpt lat="48.3847" lon="-3.49598">
        <ele>132</ele>
        <time>2024-09-07T15:25:02Z</time>
      </trkpt>
      <trkpt lat="48.38468" lon="-3.49588">
        <ele>131.6</ele>
        <time>2024-09-07T15:25:03Z</time>
      </trkpt>
      <trkpt lat="48.38467" lon="-3.49579">
        <ele>131.4</ele>
        <time>2024-09-07T15:25:04Z</time>
      </trkpt>
      <trkpt lat="48.38467" lon="-3.49571">
        <ele>131.2</ele>
        <time>2024-09-07T15:25:05Z</time>
      </trkpt>
      <trkpt lat="48.38466" lon="-3.49563">
        <ele>131.2</ele>
        <time>2024-09-07T15:25:06Z</time>
      </trkpt>
      <trkpt lat="48.38466" lon="-3.49557">
        <ele>131.2</ele>
        <time>2024-09-07T15:25:07Z</time>
      </trkpt>
      <trkpt lat="48.38465" lon="-3.49552">
        <ele>131.2</ele>
        <time>2024-09-07T15:25:08Z</time>
      </trkpt>
      <trkpt lat="48.38464" lon="-3.49547">
        <ele>131.2</ele>
        <time>2024-09-07T15:25:09Z</time>
      </trkpt>
      <trkpt lat="48.38464" lon="-3.49543">
        <ele>131.2</ele>
        <time>2024-09-07T15:25:10Z</time>
      </trkpt>
      <trkpt lat="48.38463" lon="-3.49539">
        <ele>131.2</ele>
        <time>2024-09-07T15:25:11Z</time>
      </trkpt>
      <trkpt lat="48.38463" lon="-3.49536">
        <ele>131.2</ele>
        <time>2024-09-07T15:25:12Z</time>
      </trkpt>
      <trkpt lat="48.38462" lon="-3.49533">
        <ele>131.8</ele>
        <time>2024-09-07T15:25:13Z</time>
      </trkpt>
      <trkpt lat="48.38461" lon="-3.49532">
        <ele>132.2</ele>
        <time>2024-09-07T15:25:14Z</time>
      </trkpt>
      <trkpt lat="48.38461" lon="-3.49531">
        <ele>132.8</ele>
        <time>2024-09-07T15:25:15Z</time>
      </trkpt>
      <trkpt lat="48.38461" lon="-3.49531">
        <ele>133.4</ele>
        <time>2024-09-07T15:25:16Z</time>
      </trkpt>
      <trkpt lat="48.38464" lon="-3.49537">
        <ele>136.4</ele>
        <time>2024-09-07T15:26:08Z</time>
      </trkpt>
      <trkpt lat="48.38464" lon="-3.49541">
        <ele>136.4</ele>
        <time>2024-09-07T15:26:09Z</time>
      </trkpt>
      <trkpt lat="48.38464" lon="-3.49546">
        <ele>136.4</ele>
        <time>2024-09-07T15:26:10Z</time>
      </trkpt>
      <trkpt lat="48.38464" lon="-3.49552">
        <ele>136.4</ele>
        <time>2024-09-07T15:26:11Z</time>
      </trkpt>
      <trkpt lat="48.38465" lon="-3.49559">
        <ele>136.4</ele>
        <time>2024-09-07T15:26:12Z</time>
      </trkpt>
      <trkpt lat="48.38465" lon="-3.49567">
        <ele>136.4</ele>
        <time>2024-09-07T15:26:13Z</time>
      </trkpt>
      <trkpt lat="48.38466" lon="-3.49575">
        <ele>136.4</ele>
        <time>2024-09-07T15:26:14Z</time>
      </trkpt>
      <trkpt lat="48.38467" lon="-3.49583">
        <ele>136.2</ele>
        <time>2024-09-07T15:26:15Z</time>
      </trkpt>
      <trkpt lat="48.38468" lon="-3.49592">
        <ele>136.2</ele>
        <time>2024-09-07T15:26:16Z</time>
      </trkpt>
      <trkpt lat="48.38469" lon="-3.49599">
        <ele>136.2</ele>
        <time>2024-09-07T15:26:17Z</time>
      </trkpt>
      <trkpt lat="48.38471" lon="-3.49605">
        <ele>136.2</ele>
        <time>2024-09-07T15:26:18Z</time>
      </trkpt>
      <trkpt lat="48.38472" lon="-3.4961">
        <ele>136.2</ele>
        <time>2024-09-07T15:26:19Z</time>
      </trkpt>
      <trkpt lat="48.38474" lon="-3.49613">
        <ele>136</ele>
        <time>2024-09-07T15:26:20Z</time>
      </trkpt>
      <trkpt lat="48.38475" lon="-3.49615">
        <ele>135.8</ele>
        <time>2024-09-07T15:26:21Z</time>
      </trkpt>
      <trkpt lat="48.38477" lon="-3.49616">
        <ele>135.8</ele>
        <time>2024-09-07T15:26:22Z</time>
      </trkpt>
      <trkpt lat="48.38478" lon="-3.49617">
        <ele>135.4</ele>
        <time>2024-09-07T15:26:23Z</time>
      </trkpt>
      <trkpt lat="48.38478" lon="-3.49617">
        <ele>135</ele>
        <time>2024-09-07T15:26:24Z</time>
      </trkpt>
      <trkpt lat="48.38478" lon="-3.49617">
        <ele>134.8</ele>
        <time>2024-09-07T15:26:25Z</time>
      </trkpt>
      <trkpt lat="48.38474" lon="-3.49619">
        <ele>131.8</ele>
        <time>2024-09-07T15:26:47Z</time>
      </trkpt>
      <trkpt lat="48.38473" lon="-3.49617">
        <ele>131.8</ele>
        <time>2024-09-07T15:26:48Z</time>
      </trkpt>
      <trkpt lat="48.38473" lon="-3.49616">
        <ele>131.8</ele>
        <time>2024-09-07T15:26:49Z</time>
      </trkpt>
      <trkpt lat="48.38473" lon="-3.49613">
        <ele>131.8</ele>
        <time>2024-09-07T15:26:50Z</time>
      </trkpt>
      <trkpt lat="48.38472" lon="-3.49611">
        <ele>131.8</ele>
        <time>2024-09-07T15:26:51Z</time>
      </trkpt>
      <trkpt lat="48.38472" lon="-3.49609">
        <ele>131.8</ele>
        <time>2024-09-07T15:26:52Z</time>
      </trkpt>
      <trkpt lat="48.38471" lon="-3.49605">
        <ele>131.8</ele>
        <time>2024-09-07T15:26:53Z</time>
      </trkpt>
      <trkpt lat="48.38471" lon="-3.49601">
        <ele>131.8</ele>
        <time>2024-09-07T15:26:54Z</time>
      </trkpt>
      <trkpt lat="48.38471" lon="-3.49597">
        <ele>131.8</ele>
        <time>2024-09-07T15:26:55Z</time>
      </trkpt>
      <trkpt lat="48.38471" lon="-3.49592">
        <ele>131.8</ele>
        <time>2024-09-07T15:26:56Z</time>
      </trkpt>
      <trkpt lat="48.38471" lon="-3.49587">
        <ele>131.8</ele>
        <time>2024-09-07T15:26:57Z</time>
      </trkpt>
      <trkpt lat="48.38471" lon="-3.49582">
        <ele>132</ele>
        <time>2024-09-07T15:26:58Z</time>
      </trkpt>
      <trkpt lat="48.3847" lon="-3.49576">
        <ele>132.2</ele>
        <time>2024-09-07T15:26:59Z</time>
      </trkpt>
      <trkpt lat="48.38469" lon="-3.49571">
        <ele>132.2</ele>
        <time>2024-09-07T15:27:00Z</time>
      </trkpt>
      <trkpt lat="48.38469" lon="-3.49566">
        <ele>132.4</ele>
        <time>2024-09-07T15:27:01Z</time>
      </trkpt>
      <trkpt lat="48.38469" lon="-3.49561">
        <ele>132.6</ele>
        <time>2024-09-07T15:27:02Z</time>
      </trkpt>
      <trkpt lat="48.38468" lon="-3.49556">
        <ele>132.6</ele>
        <time>2024-09-07T15:27:03Z</time>
      </trkpt>
      <trkpt lat="48.38467" lon="-3.49551">
        <ele>132.6</ele>
        <time>2024-09-07T15:27:04Z</time>
      </trkpt>
      <trkpt lat="48.38467" lon="-3.49546">
        <ele>132.8</ele>
        <time>2024-09-07T15:27:05Z</time>
      </trkpt>
      <trkpt lat="48.38467" lon="-3.49542">
        <ele>133</ele>
        <time>2024-09-07T15:27:06Z</time>
      </trkpt>
      <trkpt lat="48.38467" lon="-3.49537">
        <ele>133.2</ele>
        <time>2024-09-07T15:27:07Z</time>
      </trkpt>
      <trkpt lat="48.38467" lon="-3.49533">
        <ele>133.4</ele>
        <time>2024-09-07T15:27:08Z</time>
      </trkpt>
      <trkpt lat="48.38467" lon="-3.49528">
        <ele>133.6</ele>
        <time>2024-09-07T15:27:09Z</time>
      </trkpt>
      <trkpt lat="48.38468" lon="-3.49524">
        <ele>134</ele>
        <time>2024-09-07T15:27:10Z</time>
      </trkpt>
      <trkpt lat="48.38467" lon="-3.4952">
        <ele>134.4</ele>
        <time>2024-09-07T15:27:11Z</time>
      </trkpt>
      <trkpt lat="48.38467" lon="-3.49516">
        <ele>134.6</ele>
        <time>2024-09-07T15:27:12Z</time>
      </trkpt>
      <trkpt lat="48.38467" lon="-3.49511">
        <ele>134.8</ele>
        <time>2024-09-07T15:27:13Z</time>
      </trkpt>
      <trkpt lat="48.38468" lon="-3.49506">
        <ele>135.2</ele>
        <time>2024-09-07T15:27:14Z</time>
      </trkpt>
      <trkpt lat="48.38469" lon="-3.49501">
        <ele>135.4</ele>
        <time>2024-09-07T15:27:15Z</time>
      </trkpt>
      <trkpt lat="48.38469" lon="-3.49497">
        <ele>135.6</ele>
        <time>2024-09-07T15:27:16Z</time>
      </trkpt>
      <trkpt lat="48.3847" lon="-3.49492">
        <ele>135.6</ele>
        <time>2024-09-07T15:27:17Z</time>
      </trkpt>
      <trkpt lat="48.38471" lon="-3.49487">
        <ele>136</ele>
        <time>2024-09-07T15:27:18Z</time>
      </trkpt>
      <trkpt lat="48.38471" lon="-3.49483">
        <ele>136.4</ele>
        <time>2024-09-07T15:27:19Z</time>
      </trkpt>
      <trkpt lat="48.38471" lon="-3.49477">
        <ele>136.8</ele>
        <time>2024-09-07T15:27:20Z</time>
      </trkpt>
      <trkpt lat="48.38472" lon="-3.49474">
        <ele>137</ele>
        <time>2024-09-07T15:27:21Z</time>
      </trkpt>
      <trkpt lat="48.38474" lon="-3.49469">
        <ele>137.4</ele>
        <time>2024-09-07T15:27:22Z</time>
      </trkpt>
      <trkpt lat="48.38475" lon="-3.49465">
        <ele>137.6</ele>
        <time>2024-09-07T15:27:23Z</time>
      </trkpt>
      <trkpt lat="48.38477" lon="-3.49461">
        <ele>138</ele>
        <time>2024-09-07T15:27:24Z</time>
      </trkpt>
      <trkpt lat="48.38478" lon="-3.49456">
        <ele>138</ele>
        <time>2024-09-07T15:27:25Z</time>
      </trkpt>
      <trkpt lat="48.38478" lon="-3.49451">
        <ele>138</ele>
        <time>2024-09-07T15:27:26Z</time>
      </trkpt>
      <trkpt lat="48.38479" lon="-3.49446">
        <ele>138.4</ele>
        <time>2024-09-07T15:27:27Z</time>
      </trkpt>
      <trkpt lat="48.3848" lon="-3.49442">
        <ele>138.6</ele>
        <time>2024-09-07T15:27:28Z</time>
      </trkpt>
      <trkpt lat="48.38481" lon="-3.49438">
        <ele>139</ele>
        <time>2024-09-07T15:27:29Z</time>
      </trkpt>
      <trkpt lat="48.38482" lon="-3.49434">
        <ele>139.2</ele>
        <time>2024-09-07T15:27:30Z</time>
      </trkpt>
      <trkpt lat="48.38483" lon="-3.4943">
        <ele>139.2</ele>
        <time>2024-09-07T15:27:31Z</time>
      </trkpt>
      <trkpt lat="48.38484" lon="-3.49426">
        <ele>139.6</ele>
        <time>2024-09-07T15:27:32Z</time>
      </trkpt>
      <trkpt lat="48.38485" lon="-3.49422">
        <ele>139.8</ele>
        <time>2024-09-07T15:27:33Z</time>
      </trkpt>
      <trkpt lat="48.38486" lon="-3.49418">
        <ele>140</ele>
        <time>2024-09-07T15:27:34Z</time>
      </trkpt>
      <trkpt lat="48.38487" lon="-3.49414">
        <ele>140.2</ele>
        <time>2024-09-07T15:27:35Z</time>
      </trkpt>
      <trkpt lat="48.38488" lon="-3.4941">
        <ele>140.4</ele>
        <time>2024-09-07T15:27:36Z</time>
      </trkpt>
      <trkpt lat="48.38489" lon="-3.49406">
        <ele>140.8</ele>
        <time>2024-09-07T15:27:37Z</time>
      </trkpt>
      <trkpt lat="48.3849" lon="-3.49402">
        <ele>140.8</ele>
        <time>2024-09-07T15:27:38Z</time>
      </trkpt>
      <trkpt lat="48.38491" lon="-3.49399">
        <ele>141</ele>
        <time>2024-09-07T15:27:39Z</time>
      </trkpt>
      <trkpt lat="48.38492" lon="-3.49395">
        <ele>141.2</ele>
        <time>2024-09-07T15:27:40Z</time>
      </trkpt>
      <trkpt lat="48.38493" lon="-3.49391">
        <ele>141.2</ele>
        <time>2024-09-07T15:27:41Z</time>
      </trkpt>
      <trkpt lat="48.38494" lon="-3.49386">
        <ele>141.4</ele>
        <time>2024-09-07T15:27:42Z</time>
      </trkpt>
      <trkpt lat="48.38495" lon="-3.49382">
        <ele>141.8</ele>
        <time>2024-09-07T15:27:43Z</time>
      </trkpt>
      <trkpt lat="48.38495" lon="-3.49377">
        <ele>142</ele>
        <time>2024-09-07T15:27:44Z</time>
      </trkpt>
      <trkpt lat="48.38496" lon="-3.49373">
        <ele>142</ele>
        <time>2024-09-07T15:27:45Z</time>
      </trkpt>
      <trkpt lat="48.38497" lon="-3.49368">
        <ele>142.2</ele>
        <time>2024-09-07T15:27:46Z</time>
      </trkpt>
      <trkpt lat="48.38498" lon="-3.49364">
        <ele>142.4</ele>
        <time>2024-09-07T15:27:47Z</time>
      </trkpt>
      <trkpt lat="48.38499" lon="-3.4936">
        <ele>142.6</ele>
        <time>2024-09-07T15:27:48Z</time>
      </trkpt>
      <trkpt lat="48.385" lon="-3.49355">
        <ele>142.6</ele>
        <time>2024-09-07T15:27:49Z</time>
      </trkpt>
      <trkpt lat="48.38501" lon="-3.49351">
        <ele>142.8</ele>
        <time>2024-09-07T15:27:50Z</time>
      </trkpt>
      <trkpt lat="48.38502" lon="-3.49346">
        <ele>142.8</ele>
        <time>2024-09-07T15:27:51Z</time>
      </trkpt>
      <trkpt lat="48.38503" lon="-3.49342">
        <ele>143</ele>
        <time>2024-09-07T15:27:52Z</time>
      </trkpt>
      <trkpt lat="48.38504" lon="-3.49337">
        <ele>143</ele>
        <time>2024-09-07T15:27:53Z</time>
      </trkpt>
      <trkpt lat="48.38504" lon="-3.49332">
        <ele>143.4</ele>
        <time>2024-09-07T15:27:54Z</time>
      </trkpt>
      <trkpt lat="48.38505" lon="-3.49328">
        <ele>143.6</ele>
        <time>2024-09-07T15:27:55Z</time>
      </trkpt>
      <trkpt lat="48.38506" lon="-3.49323">
        <ele>143.8</ele>
        <time>2024-09-07T15:27:56Z</time>
      </trkpt>
      <trkpt lat="48.38507" lon="-3.49319">
        <ele>144</ele>
        <time>2024-09-07T15:27:57Z</time>
      </trkpt>
      <trkpt lat="48.38508" lon="-3.49314">
        <ele>144.2</ele>
        <time>2024-09-07T15:27:58Z</time>
      </trkpt>
      <trkpt lat="48.38509" lon="-3.4931">
        <ele>144.2</ele>
        <time>2024-09-07T15:27:59Z</time>
      </trkpt>
      <trkpt lat="48.3851" lon="-3.49305">
        <ele>144.4</ele>
        <time>2024-09-07T15:28:00Z</time>
      </trkpt>
      <trkpt lat="48.38511" lon="-3.49301">
        <ele>144.4</ele>
        <time>2024-09-07T15:28:01Z</time>
      </trkpt>
      <trkpt lat="48.38512" lon="-3.49296">
        <ele>144.6</ele>
        <time>2024-09-07T15:28:02Z</time>
      </trkpt>
      <trkpt lat="48.38512" lon="-3.49291">
        <ele>144.6</ele>
        <time>2024-09-07T15:28:03Z</time>
      </trkpt>
      <trkpt lat="48.38513" lon="-3.49286">
        <ele>144.6</ele>
        <time>2024-09-07T15:28:04Z</time>
      </trkpt>
      <trkpt lat="48.38514" lon="-3.4928">
        <ele>144.8</ele>
        <time>2024-09-07T15:28:05Z</time>
      </trkpt>
      <trkpt lat="48.38514" lon="-3.49276">
        <ele>144.8</ele>
        <time>2024-09-07T15:28:06Z</time>
      </trkpt>
      <trkpt lat="48.38515" lon="-3.49271">
        <ele>145</ele>
        <time>2024-09-07T15:28:07Z</time>
      </trkpt>
      <trkpt lat="48.38515" lon="-3.49266">
        <ele>145</ele>
        <time>2024-09-07T15:28:08Z</time>
      </trkpt>
      <trkpt lat="48.38516" lon="-3.4926">
        <ele>145</ele>
        <time>2024-09-07T15:28:09Z</time>
      </trkpt>
      <trkpt lat="48.38516" lon="-3.49255">
        <ele>145.2</ele>
        <time>2024-09-07T15:28:10Z</time>
      </trkpt>
      <trkpt lat="48.38517" lon="-3.4925">
        <ele>145.2</ele>
        <time>2024-09-07T15:28:11Z</time>
      </trkpt>
      <trkpt lat="48.38517" lon="-3.49245">
        <ele>145.2</ele>
        <time>2024-09-07T15:28:12Z</time>
      </trkpt>
      <trkpt lat="48.38517" lon="-3.4924">
        <ele>145.2</ele>
        <time>2024-09-07T15:28:13Z</time>
      </trkpt>
      <trkpt lat="48.38517" lon="-3.49235">
        <ele>145.2</ele>
        <time>2024-09-07T15:28:14Z</time>
      </trkpt>
      <trkpt lat="48.38517" lon="-3.49229">
        <ele>145.4</ele>
        <time>2024-09-07T15:28:15Z</time>
      </trkpt>
      <trkpt lat="48.38518" lon="-3.49224">
        <ele>145.4</ele>
        <time>2024-09-07T15:28:16Z</time>
      </trkpt>
      <trkpt lat="48.38519" lon="-3.49219">
        <ele>145.4</ele>
        <time>2024-09-07T15:28:17Z</time>
      </trkpt>
      <trkpt lat="48.38519" lon="-3.49213">
        <ele>145.4</ele>
        <time>2024-09-07T15:28:18Z</time>
      </trkpt>
      <trkpt lat="48.38519" lon="-3.49207">
        <ele>145.4</ele>
        <time>2024-09-07T15:28:19Z</time>
      </trkpt>
      <trkpt lat="48.38519" lon="-3.49202">
        <ele>145.4</ele>
        <time>2024-09-07T15:28:20Z</time>
      </trkpt>
      <trkpt lat="48.38519" lon="-3.49196">
        <ele>145.6</ele>
        <time>2024-09-07T15:28:21Z</time>
      </trkpt>
      <trkpt lat="48.38519" lon="-3.49191">
        <ele>145.6</ele>
        <time>2024-09-07T15:28:22Z</time>
      </trkpt>
      <trkpt lat="48.38519" lon="-3.49185">
        <ele>145.6</ele>
        <time>2024-09-07T15:28:23Z</time>
      </trkpt>
      <trkpt lat="48.3852" lon="-3.4918">
        <ele>145.6</ele>
        <time>2024-09-07T15:28:24Z</time>
      </trkpt>
      <trkpt lat="48.3852" lon="-3.49174">
        <ele>145.6</ele>
        <time>2024-09-07T15:28:25Z</time>
      </trkpt>
      <trkpt lat="48.3852" lon="-3.49169">
        <ele>145.8</ele>
        <time>2024-09-07T15:28:26Z</time>
      </trkpt>
      <trkpt lat="48.3852" lon="-3.49163">
        <ele>145.8</ele>
        <time>2024-09-07T15:28:27Z</time>
      </trkpt>
      <trkpt lat="48.38521" lon="-3.49158">
        <ele>145.8</ele>
        <time>2024-09-07T15:28:28Z</time>
      </trkpt>
      <trkpt lat="48.38521" lon="-3.49152">
        <ele>146</ele>
        <time>2024-09-07T15:28:29Z</time>
      </trkpt>
      <trkpt lat="48.38522" lon="-3.49147">
        <ele>146</ele>
        <time>2024-09-07T15:28:30Z</time>
      </trkpt>
      <trkpt lat="48.38522" lon="-3.49141">
        <ele>146</ele>
        <time>2024-09-07T15:28:31Z</time>
      </trkpt>
      <trkpt lat="48.38523" lon="-3.49136">
        <ele>146.2</ele>
        <time>2024-09-07T15:28:32Z</time>
      </trkpt>
      <trkpt lat="48.38523" lon="-3.49131">
        <ele>146.4</ele>
        <time>2024-09-07T15:28:33Z</time>
      </trkpt>
      <trkpt lat="48.38523" lon="-3.49125">
        <ele>146.4</ele>
        <time>2024-09-07T15:28:34Z</time>
      </trkpt>
      <trkpt lat="48.38523" lon="-3.4912">
        <ele>146.4</ele>
        <time>2024-09-07T15:28:35Z</time>
      </trkpt>
      <trkpt lat="48.38524" lon="-3.49115">
        <ele>146.6</ele>
        <time>2024-09-07T15:28:36Z</time>
      </trkpt>
      <trkpt lat="48.38524" lon="-3.49109">
        <ele>146.6</ele>
        <time>2024-09-07T15:28:37Z</time>
      </trkpt>
      <trkpt lat="48.38524" lon="-3.49104">
        <ele>146.6</ele>
        <time>2024-09-07T15:28:38Z</time>
      </trkpt>
      <trkpt lat="48.38525" lon="-3.49099">
        <ele>146.8</ele>
        <time>2024-09-07T15:28:39Z</time>
      </trkpt>
      <trkpt lat="48.38525" lon="-3.49094">
        <ele>146.8</ele>
        <time>2024-09-07T15:28:40Z</time>
      </trkpt>
      <trkpt lat="48.38526" lon="-3.49088">
        <ele>146.8</ele>
        <time>2024-09-07T15:28:41Z</time>
      </trkpt>
      <trkpt lat="48.38527" lon="-3.49083">
        <ele>147</ele>
        <time>2024-09-07T15:28:42Z</time>
      </trkpt>
      <trkpt lat="48.38527" lon="-3.49078">
        <ele>147</ele>
        <time>2024-09-07T15:28:43Z</time>
      </trkpt>
      <trkpt lat="48.38528" lon="-3.49073">
        <ele>147</ele>
        <time>2024-09-07T15:28:44Z</time>
      </trkpt>
      <trkpt lat="48.38529" lon="-3.49068">
        <ele>147.4</ele>
        <time>2024-09-07T15:28:45Z</time>
      </trkpt>
      <trkpt lat="48.38529" lon="-3.49063">
        <ele>147.6</ele>
        <time>2024-09-07T15:28:46Z</time>
      </trkpt>
      <trkpt lat="48.3853" lon="-3.49059">
        <ele>147.8</ele>
        <time>2024-09-07T15:28:47Z</time>
      </trkpt>
      <trkpt lat="48.38532" lon="-3.49054">
        <ele>147.8</ele>
        <time>2024-09-07T15:28:48Z</time>
      </trkpt>
      <trkpt lat="48.38533" lon="-3.4905">
        <ele>148</ele>
        <time>2024-09-07T15:28:49Z</time>
      </trkpt>
      <trkpt lat="48.38534" lon="-3.49046">
        <ele>148</ele>
        <time>2024-09-07T15:28:50Z</time>
      </trkpt>
      <trkpt lat="48.38535" lon="-3.49041">
        <ele>148.2</ele>
        <time>2024-09-07T15:28:51Z</time>
      </trkpt>
      <trkpt lat="48.38536" lon="-3.49037">
        <ele>148.2</ele>
        <time>2024-09-07T15:28:52Z</time>
      </trkpt>
      <trkpt lat="48.38537" lon="-3.49032">
        <ele>148.4</ele>
        <time>2024-09-07T15:28:53Z</time>
      </trkpt>
      <trkpt lat="48.38538" lon="-3.49028">
        <ele>148.6</ele>
        <time>2024-09-07T15:28:54Z</time>
      </trkpt>
      <trkpt lat="48.38539" lon="-3.49024">
        <ele>148.6</ele>
        <time>2024-09-07T15:28:55Z</time>
      </trkpt>
      <trkpt lat="48.3854" lon="-3.4902">
        <ele>149</ele>
        <time>2024-09-07T15:28:56Z</time>
      </trkpt>
      <trkpt lat="48.38541" lon="-3.49015">
        <ele>149.2</ele>
        <time>2024-09-07T15:28:57Z</time>
      </trkpt>
      <trkpt lat="48.38542" lon="-3.49011">
        <ele>149.2</ele>
        <time>2024-09-07T15:28:58Z</time>
      </trkpt>
      <trkpt lat="48.38544" lon="-3.49007">
        <ele>149.2</ele>
        <time>2024-09-07T15:28:59Z</time>
      </trkpt>
      <trkpt lat="48.38545" lon="-3.49003">
        <ele>149.4</ele>
        <time>2024-09-07T15:29:00Z</time>
      </trkpt>
      <trkpt lat="48.38546" lon="-3.48999">
        <ele>149.6</ele>
        <time>2024-09-07T15:29:01Z</time>
      </trkpt>
      <trkpt lat="48.38548" lon="-3.48995">
        <ele>149.6</ele>
        <time>2024-09-07T15:29:02Z</time>
      </trkpt>
      <trkpt lat="48.38549" lon="-3.48991">
        <ele>149.8</ele>
        <time>2024-09-07T15:29:03Z</time>
      </trkpt>
      <trkpt lat="48.3855" lon="-3.48987">
        <ele>149.8</ele>
        <time>2024-09-07T15:29:04Z</time>
      </trkpt>
      <trkpt lat="48.38551" lon="-3.48983">
        <ele>150.2</ele>
        <time>2024-09-07T15:29:05Z</time>
      </trkpt>
      <trkpt lat="48.38552" lon="-3.48979">
        <ele>150.4</ele>
        <time>2024-09-07T15:29:06Z</time>
      </trkpt>
      <trkpt lat="48.38553" lon="-3.48974">
        <ele>150.4</ele>
        <time>2024-09-07T15:29:07Z</time>
      </trkpt>
      <trkpt lat="48.38554" lon="-3.48971">
        <ele>150.6</ele>
        <time>2024-09-07T15:29:08Z</time>
      </trkpt>
      <trkpt lat="48.38556" lon="-3.48967">
        <ele>150.8</ele>
        <time>2024-09-07T15:29:09Z</time>
      </trkpt>
      <trkpt lat="48.38557" lon="-3.48962">
        <ele>151</ele>
        <time>2024-09-07T15:29:10Z</time>
      </trkpt>
      <trkpt lat="48.38558" lon="-3.48958">
        <ele>151</ele>
        <time>2024-09-07T15:29:11Z</time>
      </trkpt>
      <trkpt lat="48.38559" lon="-3.48954">
        <ele>151.2</ele>
        <time>2024-09-07T15:29:12Z</time>
      </trkpt>
      <trkpt lat="48.3856" lon="-3.4895">
        <ele>151.2</ele>
        <time>2024-09-07T15:29:13Z</time>
      </trkpt>
      <trkpt lat="48.38561" lon="-3.48946">
        <ele>151.4</ele>
        <time>2024-09-07T15:29:14Z</time>
      </trkpt>
      <trkpt lat="48.38562" lon="-3.48942">
        <ele>151.6</ele>
        <time>2024-09-07T15:29:15Z</time>
      </trkpt>
      <trkpt lat="48.38563" lon="-3.48938">
        <ele>152</ele>
        <time>2024-09-07T15:29:16Z</time>
      </trkpt>
      <trkpt lat="48.38565" lon="-3.48934">
        <ele>152.2</ele>
        <time>2024-09-07T15:29:17Z</time>
      </trkpt>
      <trkpt lat="48.38566" lon="-3.48931">
        <ele>152.6</ele>
        <time>2024-09-07T15:29:18Z</time>
      </trkpt>
      <trkpt lat="48.38567" lon="-3.48927">
        <ele>152.8</ele>
        <time>2024-09-07T15:29:19Z</time>
      </trkpt>
      <trkpt lat="48.38568" lon="-3.48923">
        <ele>153</ele>
        <time>2024-09-07T15:29:20Z</time>
      </trkpt>
      <trkpt lat="48.38569" lon="-3.48919">
        <ele>153</ele>
        <time>2024-09-07T15:29:21Z</time>
      </trkpt>
      <trkpt lat="48.3857" lon="-3.48915">
        <ele>153</ele>
        <time>2024-09-07T15:29:22Z</time>
      </trkpt>
      <trkpt lat="48.38571" lon="-3.48912">
        <ele>153.2</ele>
        <time>2024-09-07T15:29:23Z</time>
      </trkpt>
      <trkpt lat="48.38572" lon="-3.48908">
        <ele>153.6</ele>
        <time>2024-09-07T15:29:24Z</time>
      </trkpt>
      <trkpt lat="48.38573" lon="-3.48904">
        <ele>153.8</ele>
        <time>2024-09-07T15:29:25Z</time>
      </trkpt>
      <trkpt lat="48.38573" lon="-3.489">
        <ele>154</ele>
        <time>2024-09-07T15:29:26Z</time>
      </trkpt>
      <trkpt lat="48.38574" lon="-3.48896">
        <ele>154.2</ele>
        <time>2024-09-07T15:29:27Z</time>
      </trkpt>
      <trkpt lat="48.38575" lon="-3.48892">
        <ele>154.4</ele>
        <time>2024-09-07T15:29:28Z</time>
      </trkpt>
      <trkpt lat="48.38576" lon="-3.48888">
        <ele>154.6</ele>
        <time>2024-09-07T15:29:29Z</time>
      </trkpt>
      <trkpt lat="48.38576" lon="-3.48884">
        <ele>155</ele>
        <time>2024-09-07T15:29:30Z</time>
      </trkpt>
      <trkpt lat="48.38576" lon="-3.4888">
        <ele>155.2</ele>
        <time>2024-09-07T15:29:31Z</time>
      </trkpt>
      <trkpt lat="48.38576" lon="-3.48876">
        <ele>155.4</ele>
        <time>2024-09-07T15:29:32Z</time>
      </trkpt>
      <trkpt lat="48.38576" lon="-3.48872">
        <ele>155.6</ele>
        <time>2024-09-07T15:29:33Z</time>
      </trkpt>
      <trkpt lat="48.38576" lon="-3.48867">
        <ele>156</ele>
        <time>2024-09-07T15:29:34Z</time>
      </trkpt>
      <trkpt lat="48.38577" lon="-3.48864">
        <ele>156</ele>
        <time>2024-09-07T15:29:35Z</time>
      </trkpt>
      <trkpt lat="48.38577" lon="-3.4886">
        <ele>156.2</ele>
        <time>2024-09-07T15:29:36Z</time>
      </trkpt>
      <trkpt lat="48.38577" lon="-3.48856">
        <ele>156.2</ele>
        <time>2024-09-07T15:29:37Z</time>
      </trkpt>
      <trkpt lat="48.38576" lon="-3.48852">
        <ele>156.2</ele>
        <time>2024-09-07T15:29:38Z</time>
      </trkpt>
      <trkpt lat="48.38576" lon="-3.48848">
        <ele>156.6</ele>
        <time>2024-09-07T15:29:39Z</time>
      </trkpt>
      <trkpt lat="48.38576" lon="-3.48844">
        <ele>156.8</ele>
        <time>2024-09-07T15:29:40Z</time>
      </trkpt>
      <trkpt lat="48.38575" lon="-3.4884">
        <ele>157</ele>
        <time>2024-09-07T15:29:41Z</time>
      </trkpt>
      <trkpt lat="48.38574" lon="-3.48836">
        <ele>157.4</ele>
        <time>2024-09-07T15:29:42Z</time>
      </trkpt>
      <trkpt lat="48.38574" lon="-3.48833">
        <ele>157.6</ele>
        <time>2024-09-07T15:29:43Z</time>
      </trkpt>
      <trkpt lat="48.38573" lon="-3.48829">
        <ele>157.6</ele>
        <time>2024-09-07T15:29:44Z</time>
      </trkpt>
      <trkpt lat="48.38572" lon="-3.48825">
        <ele>158</ele>
        <time>2024-09-07T15:29:45Z</time>
      </trkpt>
      <trkpt lat="48.38572" lon="-3.48822">
        <ele>158.2</ele>
        <time>2024-09-07T15:29:46Z</time>
      </trkpt>
      <trkpt lat="48.38571" lon="-3.48818">
        <ele>158.4</ele>
        <time>2024-09-07T15:29:47Z</time>
      </trkpt>
      <trkpt lat="48.38571" lon="-3.48814">
        <ele>158.6</ele>
        <time>2024-09-07T15:29:48Z</time>
      </trkpt>
      <trkpt lat="48.3857" lon="-3.4881">
        <ele>158.6</ele>
        <time>2024-09-07T15:29:49Z</time>
      </trkpt>
      <trkpt lat="48.38569" lon="-3.48807">
        <ele>158.8</ele>
        <time>2024-09-07T15:29:50Z</time>
      </trkpt>
      <trkpt lat="48.38569" lon="-3.48803">
        <ele>159</ele>
        <time>2024-09-07T15:29:51Z</time>
      </trkpt>
      <trkpt lat="48.38568" lon="-3.48799">
        <ele>159.4</ele>
        <time>2024-09-07T15:29:52Z</time>
      </trkpt>
      <trkpt lat="48.38567" lon="-3.48796">
        <ele>159.6</ele>
        <time>2024-09-07T15:29:53Z</time>
      </trkpt>
      <trkpt lat="48.38565" lon="-3.48793">
        <ele>159.6</ele>
        <time>2024-09-07T15:29:54Z</time>
      </trkpt>
      <trkpt lat="48.38564" lon="-3.4879">
        <ele>159.8</ele>
        <time>2024-09-07T15:29:55Z</time>
      </trkpt>
      <trkpt lat="48.38563" lon="-3.48786">
        <ele>160</ele>
        <time>2024-09-07T15:29:56Z</time>
      </trkpt>
      <trkpt lat="48.38562" lon="-3.48784">
        <ele>160</ele>
        <time>2024-09-07T15:29:57Z</time>
      </trkpt>
      <trkpt lat="48.38561" lon="-3.48781">
        <ele>160.2</ele>
        <time>2024-09-07T15:29:58Z</time>
      </trkpt>
      <trkpt lat="48.38561" lon="-3.48778">
        <ele>160.4</ele>
        <time>2024-09-07T15:29:59Z</time>
      </trkpt>
      <trkpt lat="48.38562" lon="-3.48776">
        <ele>160.6</ele>
        <time>2024-09-07T15:30:00Z</time>
      </trkpt>
      <trkpt lat="48.38563" lon="-3.48774">
        <ele>160.8</ele>
        <time>2024-09-07T15:30:01Z</time>
      </trkpt>
      <trkpt lat="48.38565" lon="-3.48774">
        <ele>161</ele>
        <time>2024-09-07T15:30:02Z</time>
      </trkpt>
      <trkpt lat="48.38566" lon="-3.48773">
        <ele>161</ele>
        <time>2024-09-07T15:30:03Z</time>
      </trkpt>
      <trkpt lat="48.38568" lon="-3.48772">
        <ele>161.2</ele>
        <time>2024-09-07T15:30:04Z</time>
      </trkpt>
      <trkpt lat="48.38569" lon="-3.48771">
        <ele>161.4</ele>
        <time>2024-09-07T15:30:05Z</time>
      </trkpt>
      <trkpt lat="48.38571" lon="-3.4877">
        <ele>161.4</ele>
        <time>2024-09-07T15:30:06Z</time>
      </trkpt>
      <trkpt lat="48.38573" lon="-3.48768">
        <ele>161.4</ele>
        <time>2024-09-07T15:30:07Z</time>
      </trkpt>
      <trkpt lat="48.38573" lon="-3.48768">
        <ele>161.6</ele>
        <time>2024-09-07T15:30:08Z</time>
      </trkpt>
      <trkpt lat="48.38573" lon="-3.48768">
        <ele>161.8</ele>
        <time>2024-09-07T15:30:09Z</time>
      </trkpt>
      <trkpt lat="48.38573" lon="-3.48768">
        <ele>161.8</ele>
        <time>2024-09-07T15:30:10Z</time>
      </trkpt>
    </trkseg>
  </trk>
</gpx>